<?xml version='1.0' encoding='UTF-8'?><gpx version="1.1" creator="JPX - https://github.com/jenetics/jpx" xmlns="http://www.topografix.com/GPX/1/1"><trk><trkseg><trkpt lat="45.14240362354028" lon="5.735599671996248"><ele>227.00000000000003</ele><time>2026-05-02T12:07:32.999Z</time></trkpt><trkpt lat="45.142462841929415" lon="5.735477464855205"><ele>227.0</ele><time>2026-05-02T12:07:34.999Z</time></trkpt><trkpt lat="45.14249368852621" lon="5.735386838427886"><ele>227.0</ele><time>2026-05-02T12:07:36.999Z</time></trkpt><trkpt lat="45.142564896628095" lon="5.735354460181434"><ele>227.0</ele><time>2026-05-02T12:07:40.999Z</time></trkpt><trkpt lat="45.14264160507214" lon="5.73543008481166"><ele>227.00000000000003</ele><time>2026-05-02T12:07:42.999Z</time></trkpt><trkpt lat="45.14266383774111" lon="5.735528046693817"><ele>227.0</ele><time>2026-05-02T12:07:43.999Z</time></trkpt><trkpt lat="45.142686406817006" lon="5.735615952151604"><ele>227.0</ele><time>2026-05-02T12:07:44.999Z</time></trkpt><trkpt lat="45.14273703257001" lon="5.735788452840973"><ele>227.0</ele><time>2026-05-02T12:07:46.999Z</time></trkpt><trkpt lat="45.14276929890136" lon="5.735891417241242"><ele>227.0</ele><time>2026-05-02T12:07:48Z</time></trkpt><trkpt lat="45.14279854397594" lon="5.736007858315434"><ele>227.0</ele><time>2026-05-02T12:07:49Z</time></trkpt><trkpt lat="45.14283998965194" lon="5.7361203814345405"><ele>227.0</ele><time>2026-05-02T12:07:50Z</time></trkpt><trkpt lat="45.14285869963314" lon="5.7362092544359635"><ele>227.00000000000003</ele><time>2026-05-02T12:07:51Z</time></trkpt><trkpt lat="45.14287149991072" lon="5.736305361099202"><ele>227.0</ele><time>2026-05-02T12:07:52Z</time></trkpt><trkpt lat="45.14289983313121" lon="5.73639782937007"><ele>227.0</ele><time>2026-05-02T12:07:53Z</time></trkpt><trkpt lat="45.14292567894136" lon="5.7364957621689"><ele>227.0</ele><time>2026-05-02T12:07:54Z</time></trkpt><trkpt lat="45.14295950091446" lon="5.73660376429635"><ele>227.00000000000003</ele><time>2026-05-02T12:07:55Z</time></trkpt><trkpt lat="45.14298902039647" lon="5.736716268616348"><ele>227.0</ele><time>2026-05-02T12:07:56Z</time></trkpt><trkpt lat="45.14302378562952" lon="5.73683758946737"><ele>227.0</ele><time>2026-05-02T12:07:57Z</time></trkpt><trkpt lat="45.143057471111554" lon="5.736987850987466"><ele>227.0</ele><time>2026-05-02T12:07:58Z</time></trkpt><trkpt lat="45.14309622818754" lon="5.737111532914762"><ele>227.0</ele><time>2026-05-02T12:07:59Z</time></trkpt><trkpt lat="45.14312955502641" lon="5.737220881504147"><ele>227.0</ele><time>2026-05-02T12:08:00Z</time></trkpt><trkpt lat="45.14316196447435" lon="5.737339167133116"><ele>227.0</ele><time>2026-05-02T12:08:01Z</time></trkpt><trkpt lat="45.14319664953224" lon="5.737466538002986"><ele>227.16666666666669</ele><time>2026-05-02T12:08:02Z</time></trkpt><trkpt lat="45.14323145526347" lon="5.737594080954247"><ele>227.33333333333334</ele><time>2026-05-02T12:08:03Z</time></trkpt><trkpt lat="45.143263659273686" lon="5.737706718742045"><ele>227.5</ele><time>2026-05-02T12:08:04Z</time></trkpt><trkpt lat="45.14329026541223" lon="5.737811906775449"><ele>227.66666666666669</ele><time>2026-05-02T12:08:05Z</time></trkpt><trkpt lat="45.14332046601084" lon="5.737918774619455"><ele>227.83333333333334</ele><time>2026-05-02T12:08:06Z</time></trkpt><trkpt lat="45.14335071227462" lon="5.7380300645500855"><ele>228.0</ele><time>2026-05-02T12:08:07Z</time></trkpt><trkpt lat="45.143381495906425" lon="5.738151695306335"><ele>228.0</ele><time>2026-05-02T12:08:08Z</time></trkpt><trkpt lat="45.14341395603664" lon="5.738267476294115"><ele>228.0</ele><time>2026-05-02T12:08:09Z</time></trkpt><trkpt lat="45.14344487472639" lon="5.738386730072613"><ele>228.0</ele><time>2026-05-02T12:08:10Z</time></trkpt><trkpt lat="45.14347650769692" lon="5.738509519368892"><ele>228.0</ele><time>2026-05-02T12:08:11Z</time></trkpt><trkpt lat="45.143505844782034" lon="5.738627715746161"><ele>228.0</ele><time>2026-05-02T12:08:12Z</time></trkpt><trkpt lat="45.14353480007239" lon="5.738730855632045"><ele>228.0</ele><time>2026-05-02T12:08:13Z</time></trkpt><trkpt lat="45.143563669260246" lon="5.738822001408311"><ele>228.2</ele><time>2026-05-02T12:08:14Z</time></trkpt><trkpt lat="45.14358904030297" lon="5.738904386746143"><ele>228.4</ele><time>2026-05-02T12:08:15Z</time></trkpt><trkpt lat="45.14362709621432" lon="5.739026217793465"><ele>228.59999999999997</ele><time>2026-05-02T12:08:17Z</time></trkpt><trkpt lat="45.143665454913815" lon="5.739127401909141"><ele>228.79999999999998</ele><time>2026-05-02T12:08:20Z</time></trkpt><trkpt lat="45.14369630516145" lon="5.739296523378137"><ele>229.0</ele><time>2026-05-02T12:08:32.999Z</time></trkpt><trkpt lat="45.14375242891692" lon="5.739429371830338"><ele>228.6</ele><time>2026-05-02T12:08:34.999Z</time></trkpt><trkpt lat="45.143863552455436" lon="5.73950398504393"><ele>228.2</ele><time>2026-05-02T12:08:36.999Z</time></trkpt><trkpt lat="45.143945146225036" lon="5.739479253018717"><ele>227.79999999999998</ele><time>2026-05-02T12:08:37.999Z</time></trkpt><trkpt lat="45.1440412357057" lon="5.739416080607154"><ele>227.39999999999998</ele><time>2026-05-02T12:08:38.999Z</time></trkpt><trkpt lat="45.14413591398592" lon="5.739334704186199"><ele>227.0</ele><time>2026-05-02T12:08:39.999Z</time></trkpt><trkpt lat="45.1442244702111" lon="5.739248616422126"><ele>227.0</ele><time>2026-05-02T12:08:40.999Z</time></trkpt><trkpt lat="45.14431714884039" lon="5.739160491492221"><ele>227.0</ele><time>2026-05-02T12:08:41.999Z</time></trkpt><trkpt lat="45.144410437779506" lon="5.739063423176809"><ele>227.0</ele><time>2026-05-02T12:08:42.999Z</time></trkpt><trkpt lat="45.144505149181136" lon="5.738970235266055"><ele>227.0</ele><time>2026-05-02T12:08:43.999Z</time></trkpt><trkpt lat="45.14460137179191" lon="5.738887542465397"><ele>227.0</ele><time>2026-05-02T12:08:44.999Z</time></trkpt><trkpt lat="45.14469477269243" lon="5.738799526338574"><ele>227.0</ele><time>2026-05-02T12:08:45.999Z</time></trkpt><trkpt lat="45.14479281844348" lon="5.7387108472993775"><ele>227.0</ele><time>2026-05-02T12:08:46.999Z</time></trkpt><trkpt lat="45.14489211584268" lon="5.73862259675039"><ele>227.0</ele><time>2026-05-02T12:08:47.999Z</time></trkpt><trkpt lat="45.144996339801075" lon="5.738529146032796"><ele>227.25</ele><time>2026-05-02T12:08:48.999Z</time></trkpt><trkpt lat="45.14509891993224" lon="5.738441420247041"><ele>227.5</ele><time>2026-05-02T12:08:49.999Z</time></trkpt><trkpt lat="45.145200732342126" lon="5.738351818786474"><ele>227.75</ele><time>2026-05-02T12:08:50.999Z</time></trkpt><trkpt lat="45.14530213479874" lon="5.738258783644784"><ele>228.0</ele><time>2026-05-02T12:08:51.999Z</time></trkpt><trkpt lat="45.1454041598388" lon="5.738166408914929"><ele>228.0</ele><time>2026-05-02T12:08:52.999Z</time></trkpt><trkpt lat="45.14550542631997" lon="5.738074971785384"><ele>228.0</ele><time>2026-05-02T12:08:53.999Z</time></trkpt><trkpt lat="45.145615733112976" lon="5.737974643709678"><ele>228.0</ele><time>2026-05-02T12:08:54.999Z</time></trkpt><trkpt lat="45.14572086903815" lon="5.737868584051181"><ele>228.0</ele><time>2026-05-02T12:08:55.999Z</time></trkpt><trkpt lat="45.1458247705513" lon="5.737770531396386"><ele>227.5</ele><time>2026-05-02T12:08:56.999Z</time></trkpt><trkpt lat="45.14592801216217" lon="5.73767465138711"><ele>227.0</ele><time>2026-05-02T12:08:57.999Z</time></trkpt><trkpt lat="45.146038932318355" lon="5.737565709333303"><ele>226.5</ele><time>2026-05-02T12:08:58.999Z</time></trkpt><trkpt lat="45.146159664335045" lon="5.7374530511050965"><ele>226.0</ele><time>2026-05-02T12:08:59.999Z</time></trkpt><trkpt lat="45.14625721367819" lon="5.737364259942117"><ele>226.0</ele><time>2026-05-02T12:09:00.999Z</time></trkpt><trkpt lat="45.14634715024576" lon="5.73727763533465"><ele>226.00000000000003</ele><time>2026-05-02T12:09:01.999Z</time></trkpt><trkpt lat="45.146437814429326" lon="5.737190382660373"><ele>226.00000000000003</ele><time>2026-05-02T12:09:02.999Z</time></trkpt><trkpt lat="45.14652731119004" lon="5.737104597990866"><ele>226.0</ele><time>2026-05-02T12:09:03.999Z</time></trkpt><trkpt lat="45.14661724604649" lon="5.737017994392026"><ele>226.0</ele><time>2026-05-02T12:09:04.999Z</time></trkpt><trkpt lat="45.14670906011797" lon="5.736932057685457"><ele>226.0</ele><time>2026-05-02T12:09:05.999Z</time></trkpt><trkpt lat="45.14680227507287" lon="5.73684328326274"><ele>226.00000000000003</ele><time>2026-05-02T12:09:06.999Z</time></trkpt><trkpt lat="45.146895900537665" lon="5.736756049120476"><ele>226.00000000000003</ele><time>2026-05-02T12:09:07.999Z</time></trkpt><trkpt lat="45.14698930839474" lon="5.736670278799042"><ele>226.0</ele><time>2026-05-02T12:09:08.999Z</time></trkpt><trkpt lat="45.14708321792134" lon="5.736579951978314"><ele>226.0</ele><time>2026-05-02T12:09:09.999Z</time></trkpt><trkpt lat="45.147178961932084" lon="5.73649244616913"><ele>226.0</ele><time>2026-05-02T12:09:10.999Z</time></trkpt><trkpt lat="45.147272735506604" lon="5.7364052517051425"><ele>226.00000000000003</ele><time>2026-05-02T12:09:11.999Z</time></trkpt><trkpt lat="45.14736846775996" lon="5.736315461770043"><ele>226.00000000000003</ele><time>2026-05-02T12:09:12.999Z</time></trkpt><trkpt lat="45.147463151075975" lon="5.73623168599631"><ele>226.0</ele><time>2026-05-02T12:09:13.999Z</time></trkpt><trkpt lat="45.14754636284231" lon="5.736164806084351"><ele>226.0</ele><time>2026-05-02T12:09:14.999Z</time></trkpt><trkpt lat="45.14761379202213" lon="5.736116338074618"><ele>225.66666666666666</ele><time>2026-05-02T12:09:15.999Z</time></trkpt><trkpt lat="45.147706214102584" lon="5.73605388150122"><ele>225.33333333333331</ele><time>2026-05-02T12:09:17.999Z</time></trkpt><trkpt lat="45.14779105307195" lon="5.7359939073190285"><ele>225.0</ele><time>2026-05-02T12:09:19.999Z</time></trkpt><trkpt lat="45.147868748303" lon="5.7359539845733245"><ele>224.66666666666669</ele><time>2026-05-02T12:09:21.999Z</time></trkpt><trkpt lat="45.14792699183769" lon="5.735920091027671"><ele>224.33333333333334</ele><time>2026-05-02T12:09:23.999Z</time></trkpt><trkpt lat="45.14800662928839" lon="5.735895230008978"><ele>224.0</ele><time>2026-05-02T12:09:27.999Z</time></trkpt><trkpt lat="45.148098128361866" lon="5.735897094398775"><ele>224.0</ele><time>2026-05-02T12:09:29.999Z</time></trkpt><trkpt lat="45.148175204315756" lon="5.735914461923314"><ele>224.0</ele><time>2026-05-02T12:09:30.999Z</time></trkpt><trkpt lat="45.14824202981213" lon="5.735890511658377"><ele>224.0</ele><time>2026-05-02T12:09:31.999Z</time></trkpt><trkpt lat="45.148305259677024" lon="5.73584376987726"><ele>224.0</ele><time>2026-05-02T12:09:32.999Z</time></trkpt><trkpt lat="45.148349058842825" lon="5.735763668430619"><ele>224.0</ele><time>2026-05-02T12:09:33.999Z</time></trkpt><trkpt lat="45.14838069544778" lon="5.735684195304838"><ele>224.0</ele><time>2026-05-02T12:09:34.999Z</time></trkpt><trkpt lat="45.14842519756155" lon="5.73560786021843"><ele>224.0</ele><time>2026-05-02T12:09:35.999Z</time></trkpt><trkpt lat="45.14850220432141" lon="5.735514004168523"><ele>224.0</ele><time>2026-05-02T12:09:36.999Z</time></trkpt><trkpt lat="45.14861236876104" lon="5.73540854546823"><ele>224.0</ele><time>2026-05-02T12:09:37.999Z</time></trkpt><trkpt lat="45.14872467216723" lon="5.735311814895579"><ele>224.0</ele><time>2026-05-02T12:09:38.999Z</time></trkpt><trkpt lat="45.148833077082536" lon="5.73522352017434"><ele>224.0</ele><time>2026-05-02T12:09:39.999Z</time></trkpt><trkpt lat="45.14894455572337" lon="5.735133519602993"><ele>223.0</ele><time>2026-05-02T12:09:40.999Z</time></trkpt><trkpt lat="45.14906916144929" lon="5.735033784408211"><ele>222.0</ele><time>2026-05-02T12:09:41.999Z</time></trkpt><trkpt lat="45.14920244309652" lon="5.734930319208344"><ele>221.0</ele><time>2026-05-02T12:09:42.999Z</time></trkpt><trkpt lat="45.14933294182455" lon="5.734832625175332"><ele>220.0</ele><time>2026-05-02T12:09:43.999Z</time></trkpt><trkpt lat="45.14946380278394" lon="5.734738354930167"><ele>220.0</ele><time>2026-05-02T12:09:44.999Z</time></trkpt><trkpt lat="45.14960738786417" lon="5.734644416901274"><ele>220.0</ele><time>2026-05-02T12:09:45.999Z</time></trkpt><trkpt lat="45.14976183750493" lon="5.734547068974248"><ele>220.0</ele><time>2026-05-02T12:09:46.999Z</time></trkpt><trkpt lat="45.149908440119255" lon="5.734459812468297"><ele>220.4</ele><time>2026-05-02T12:09:47.999Z</time></trkpt><trkpt lat="45.150040139068444" lon="5.734387486621243"><ele>220.8</ele><time>2026-05-02T12:09:48.999Z</time></trkpt><trkpt lat="45.15015775656967" lon="5.734327358325832"><ele>221.2</ele><time>2026-05-02T12:09:49.999Z</time></trkpt><trkpt lat="45.150255026383455" lon="5.734286503625733"><ele>221.6</ele><time>2026-05-02T12:09:50.999Z</time></trkpt><trkpt lat="45.15033054998784" lon="5.734257271411549"><ele>222.0</ele><time>2026-05-02T12:09:51.999Z</time></trkpt><trkpt lat="45.15043032363489" lon="5.734246167767366"><ele>222.0</ele><time>2026-05-02T12:09:53.999Z</time></trkpt><trkpt lat="45.15050010623478" lon="5.734222061788161"><ele>222.0</ele><time>2026-05-02T12:09:57.999Z</time></trkpt><trkpt lat="45.15063130883926" lon="5.734290080522166"><ele>222.0</ele><time>2026-05-02T12:09:59.999Z</time></trkpt><trkpt lat="45.15068664570638" lon="5.734409297086055"><ele>222.0</ele><time>2026-05-02T12:10:00.999Z</time></trkpt><trkpt lat="45.150776732608314" lon="5.734490165678028"><ele>222.0</ele><time>2026-05-02T12:10:01.999Z</time></trkpt><trkpt lat="45.150877441954805" lon="5.734531421743047"><ele>223.0</ele><time>2026-05-02T12:10:02.999Z</time></trkpt><trkpt lat="45.1509930702432" lon="5.734534471303691"><ele>224.0</ele><time>2026-05-02T12:10:03.999Z</time></trkpt><trkpt lat="45.15109054112961" lon="5.734488895216068"><ele>225.0</ele><time>2026-05-02T12:10:04.999Z</time></trkpt><trkpt lat="45.15119165356865" lon="5.734429111906306"><ele>226.0</ele><time>2026-05-02T12:10:05.999Z</time></trkpt><trkpt lat="45.15126555322293" lon="5.734307115763403"><ele>227.0</ele><time>2026-05-02T12:10:06.999Z</time></trkpt><trkpt lat="45.15132055430125" lon="5.734168210355078"><ele>227.0</ele><time>2026-05-02T12:10:07.999Z</time></trkpt><trkpt lat="45.15133346471652" lon="5.733997597015629"><ele>227.0</ele><time>2026-05-02T12:10:08.999Z</time></trkpt><trkpt lat="45.15131476509361" lon="5.7338361965069655"><ele>227.0</ele><time>2026-05-02T12:10:09.999Z</time></trkpt><trkpt lat="45.15125103931127" lon="5.733702946771549"><ele>227.0</ele><time>2026-05-02T12:10:10.999Z</time></trkpt><trkpt lat="45.15118879286661" lon="5.733577054879104"><ele>227.0</ele><time>2026-05-02T12:10:11.999Z</time></trkpt><trkpt lat="45.15109206702517" lon="5.733501349772629"><ele>227.0</ele><time>2026-05-02T12:10:12.999Z</time></trkpt><trkpt lat="45.15101933874734" lon="5.733384966688126"><ele>227.0</ele><time>2026-05-02T12:10:13.999Z</time></trkpt><trkpt lat="45.150974805716636" lon="5.733218636678159"><ele>227.0</ele><time>2026-05-02T12:10:14.999Z</time></trkpt><trkpt lat="45.150952249518056" lon="5.733033447081125"><ele>227.0</ele><time>2026-05-02T12:10:15.999Z</time></trkpt><trkpt lat="45.15094068110366" lon="5.73283974626696"><ele>227.0</ele><time>2026-05-02T12:10:16.999Z</time></trkpt><trkpt lat="45.150923646845975" lon="5.732632307632306"><ele>227.0</ele><time>2026-05-02T12:10:17.999Z</time></trkpt><trkpt lat="45.15090286464531" lon="5.732425076027613"><ele>227.0</ele><time>2026-05-02T12:10:18.999Z</time></trkpt><trkpt lat="45.150883760156646" lon="5.732201590714827"><ele>225.66666666666669</ele><time>2026-05-02T12:10:19.999Z</time></trkpt><trkpt lat="45.150866346770705" lon="5.731963562173866"><ele>224.33333333333331</ele><time>2026-05-02T12:10:20.999Z</time></trkpt><trkpt lat="45.150850338485384" lon="5.731717738608737"><ele>223.0</ele><time>2026-05-02T12:10:21.999Z</time></trkpt><trkpt lat="45.150832245251806" lon="5.731460241441452"><ele>222.66666666666666</ele><time>2026-05-02T12:10:22.999Z</time></trkpt><trkpt lat="45.15081328408097" lon="5.731199068205991"><ele>222.33333333333331</ele><time>2026-05-02T12:10:23.999Z</time></trkpt><trkpt lat="45.15079798452623" lon="5.730935249326865"><ele>222.0</ele><time>2026-05-02T12:10:24.999Z</time></trkpt><trkpt lat="45.1507829555209" lon="5.7306699087586885"><ele>222.33333333333331</ele><time>2026-05-02T12:10:25.999Z</time></trkpt><trkpt lat="45.15077013517174" lon="5.730407451762353"><ele>222.66666666666666</ele><time>2026-05-02T12:10:26.999Z</time></trkpt><trkpt lat="45.15075745667927" lon="5.730144866612091"><ele>223.0</ele><time>2026-05-02T12:10:27.999Z</time></trkpt><trkpt lat="45.15074919073397" lon="5.729883256137127"><ele>223.0</ele><time>2026-05-02T12:10:28.999Z</time></trkpt><trkpt lat="45.150746272024435" lon="5.729626149928427"><ele>223.0</ele><time>2026-05-02T12:10:29.999Z</time></trkpt><trkpt lat="45.15074645248086" lon="5.729374354319266"><ele>223.0</ele><time>2026-05-02T12:10:30.999Z</time></trkpt><trkpt lat="45.15074669185879" lon="5.72912631449136"><ele>224.0</ele><time>2026-05-02T12:10:31.999Z</time></trkpt><trkpt lat="45.15074211764719" lon="5.728870245350622"><ele>225.0</ele><time>2026-05-02T12:10:32.999Z</time></trkpt><trkpt lat="45.15073168892595" lon="5.728590756903852"><ele>226.0</ele><time>2026-05-02T12:10:33.999Z</time></trkpt><trkpt lat="45.15072394829654" lon="5.72824325654521"><ele>226.0</ele><time>2026-05-02T12:10:34.999Z</time></trkpt><trkpt lat="45.15073161067644" lon="5.72785549166701"><ele>226.0</ele><time>2026-05-02T12:10:35.999Z</time></trkpt><trkpt lat="45.150745772298194" lon="5.727457100539305"><ele>225.5</ele><time>2026-05-02T12:10:36.999Z</time></trkpt><trkpt lat="45.15075709499244" lon="5.7271650980082685"><ele>225.0</ele><time>2026-05-02T12:10:37.999Z</time></trkpt><trkpt lat="45.1507879290473" lon="5.726813969074637"><ele>224.5</ele><time>2026-05-02T12:10:38.999Z</time></trkpt><trkpt lat="45.15082136497199" lon="5.726471577499124"><ele>224.0</ele><time>2026-05-02T12:10:39.999Z</time></trkpt><trkpt lat="45.150858626968855" lon="5.726134918725068"><ele>223.5</ele><time>2026-05-02T12:10:40.999Z</time></trkpt><trkpt lat="45.150903772545966" lon="5.725803863009139"><ele>223.0</ele><time>2026-05-02T12:10:41.999Z</time></trkpt><trkpt lat="45.15094311589508" lon="5.72546841102702"><ele>224.0</ele><time>2026-05-02T12:10:42.999Z</time></trkpt><trkpt lat="45.1509847278112" lon="5.7251346248376995"><ele>225.0</ele><time>2026-05-02T12:10:43.999Z</time></trkpt><trkpt lat="45.15103271694875" lon="5.724800320189421"><ele>225.0</ele><time>2026-05-02T12:10:44.999Z</time></trkpt><trkpt lat="45.15107801034084" lon="5.724465148422275"><ele>225.0</ele><time>2026-05-02T12:10:45.999Z</time></trkpt><trkpt lat="45.15114155903375" lon="5.724133230170781"><ele>226.5</ele><time>2026-05-02T12:10:46.999Z</time></trkpt><trkpt lat="45.15120416985364" lon="5.72380504414556"><ele>228.0</ele><time>2026-05-02T12:10:47.999Z</time></trkpt><trkpt lat="45.151271167527426" lon="5.723474619501296"><ele>228.0</ele><time>2026-05-02T12:10:48.999Z</time></trkpt><trkpt lat="45.151339592278894" lon="5.723143885335395"><ele>228.0</ele><time>2026-05-02T12:10:49.999Z</time></trkpt><trkpt lat="45.15141257121164" lon="5.722817478828669"><ele>228.5</ele><time>2026-05-02T12:10:50.999Z</time></trkpt><trkpt lat="45.15148483298392" lon="5.722496541360107"><ele>229.0</ele><time>2026-05-02T12:10:51.999Z</time></trkpt><trkpt lat="45.15155889044202" lon="5.72217755741554"><ele>228.0</ele><time>2026-05-02T12:10:52.999Z</time></trkpt><trkpt lat="45.151631558910495" lon="5.721860577339575"><ele>227.0</ele><time>2026-05-02T12:10:53.999Z</time></trkpt><trkpt lat="45.15170201661836" lon="5.721545563520844"><ele>227.0</ele><time>2026-05-02T12:10:54.999Z</time></trkpt><trkpt lat="45.15176493327982" lon="5.7212239540033005"><ele>227.0</ele><time>2026-05-02T12:10:55.999Z</time></trkpt><trkpt lat="45.15182361808335" lon="5.720913019316721"><ele>226.5</ele><time>2026-05-02T12:10:56.999Z</time></trkpt><trkpt lat="45.15187862254381" lon="5.720599216590952"><ele>226.0</ele><time>2026-05-02T12:10:57.999Z</time></trkpt><trkpt lat="45.15194106400848" lon="5.720287134326437"><ele>226.0</ele><time>2026-05-02T12:10:58.999Z</time></trkpt><trkpt lat="45.15200158429734" lon="5.719978367405186"><ele>226.0</ele><time>2026-05-02T12:10:59.999Z</time></trkpt><trkpt lat="45.15206039267714" lon="5.719675479765092"><ele>226.0</ele><time>2026-05-02T12:11:00.999Z</time></trkpt><trkpt lat="45.152109540324766" lon="5.719371075516166"><ele>226.0</ele><time>2026-05-02T12:11:01.999Z</time></trkpt><trkpt lat="45.152152464663594" lon="5.719074658951623"><ele>226.0</ele><time>2026-05-02T12:11:02.999Z</time></trkpt><trkpt lat="45.152199985607595" lon="5.718774912663396"><ele>226.0</ele><time>2026-05-02T12:11:03.999Z</time></trkpt><trkpt lat="45.1522602162567" lon="5.718486012358452"><ele>226.0</ele><time>2026-05-02T12:11:04.999Z</time></trkpt><trkpt lat="45.15233444403835" lon="5.718206404886082"><ele>226.0</ele><time>2026-05-02T12:11:05.999Z</time></trkpt><trkpt lat="45.15242593067895" lon="5.717952939651493"><ele>226.0</ele><time>2026-05-02T12:11:06.999Z</time></trkpt><trkpt lat="45.15255169112747" lon="5.7176984969781355"><ele>227.0</ele><time>2026-05-02T12:11:07.999Z</time></trkpt><trkpt lat="45.15265889898337" lon="5.717436537426904"><ele>228.0</ele><time>2026-05-02T12:11:08.999Z</time></trkpt><trkpt lat="45.15278452549674" lon="5.717188610670952"><ele>229.0</ele><time>2026-05-02T12:11:09.999Z</time></trkpt><trkpt lat="45.1529141567943" lon="5.716951688407953"><ele>228.66666666666666</ele><time>2026-05-02T12:11:10.999Z</time></trkpt><trkpt lat="45.153051168683646" lon="5.7167317473263815"><ele>228.33333333333331</ele><time>2026-05-02T12:11:11.999Z</time></trkpt><trkpt lat="45.15320033611581" lon="5.716521960053274"><ele>228.0</ele><time>2026-05-02T12:11:12.999Z</time></trkpt><trkpt lat="45.15335208615773" lon="5.716326387205532"><ele>228.0</ele><time>2026-05-02T12:11:13.999Z</time></trkpt><trkpt lat="45.153513381390944" lon="5.716140591432695"><ele>228.0</ele><time>2026-05-02T12:11:14.999Z</time></trkpt><trkpt lat="45.153683610997454" lon="5.715958473834814"><ele>228.0</ele><time>2026-05-02T12:11:15.999Z</time></trkpt><trkpt lat="45.153858959717944" lon="5.715764559119852"><ele>229.5</ele><time>2026-05-02T12:11:16.999Z</time></trkpt><trkpt lat="45.15403846844609" lon="5.715561817787398"><ele>231.0</ele><time>2026-05-02T12:11:17.999Z</time></trkpt><trkpt lat="45.15424739388703" lon="5.715371577227279"><ele>229.5</ele><time>2026-05-02T12:11:18.999Z</time></trkpt><trkpt lat="45.154441767287224" lon="5.715181390523448"><ele>228.0</ele><time>2026-05-02T12:11:19.999Z</time></trkpt><trkpt lat="45.15463127816564" lon="5.714968199756295"><ele>228.0</ele><time>2026-05-02T12:11:20.999Z</time></trkpt><trkpt lat="45.154818147352756" lon="5.714750102494796"><ele>228.0</ele><time>2026-05-02T12:11:21.999Z</time></trkpt><trkpt lat="45.155004419416606" lon="5.714539507915408"><ele>228.5</ele><time>2026-05-02T12:11:22.999Z</time></trkpt><trkpt lat="45.15518819049002" lon="5.714338540324879"><ele>229.0</ele><time>2026-05-02T12:11:23.999Z</time></trkpt><trkpt lat="45.15537615937574" lon="5.714156851547128"><ele>229.0</ele><time>2026-05-02T12:11:24.999Z</time></trkpt><trkpt lat="45.15556492825477" lon="5.713985340837435"><ele>229.0</ele><time>2026-05-02T12:11:25.999Z</time></trkpt><trkpt lat="45.155751321466" lon="5.713823690682671"><ele>229.0</ele><time>2026-05-02T12:11:26.999Z</time></trkpt><trkpt lat="45.15594406761476" lon="5.713667919860351"><ele>227.66666666666666</ele><time>2026-05-02T12:11:27.999Z</time></trkpt><trkpt lat="45.156133757934846" lon="5.713521183166979"><ele>226.33333333333331</ele><time>2026-05-02T12:11:28.999Z</time></trkpt><trkpt lat="45.15633177804005" lon="5.713380802620695"><ele>225.0</ele><time>2026-05-02T12:11:29.999Z</time></trkpt><trkpt lat="45.15652631590017" lon="5.713238265997454"><ele>225.0</ele><time>2026-05-02T12:11:30.999Z</time></trkpt><trkpt lat="45.15671861050147" lon="5.713093688645747"><ele>225.0</ele><time>2026-05-02T12:11:31.999Z</time></trkpt><trkpt lat="45.156890590953495" lon="5.712910413347343"><ele>225.0</ele><time>2026-05-02T12:11:32.999Z</time></trkpt><trkpt lat="45.15707652671379" lon="5.712762226644399"><ele>225.0</ele><time>2026-05-02T12:11:33.999Z</time></trkpt><trkpt lat="45.15724484463803" lon="5.712586170317619"><ele>225.0</ele><time>2026-05-02T12:11:34.999Z</time></trkpt><trkpt lat="45.15740471676774" lon="5.712386576058944"><ele>225.0</ele><time>2026-05-02T12:11:35.999Z</time></trkpt><trkpt lat="45.15755688043316" lon="5.712178967182529"><ele>225.0</ele><time>2026-05-02T12:11:36.999Z</time></trkpt><trkpt lat="45.15769738732143" lon="5.711958540895395"><ele>225.0</ele><time>2026-05-02T12:11:37.999Z</time></trkpt><trkpt lat="45.15782638125556" lon="5.71173016932857"><ele>225.0</ele><time>2026-05-02T12:11:38.999Z</time></trkpt><trkpt lat="45.157944833631916" lon="5.711505702910669"><ele>225.0</ele><time>2026-05-02T12:11:39.999Z</time></trkpt><trkpt lat="45.15804494845847" lon="5.711290510149181"><ele>225.0</ele><time>2026-05-02T12:11:40.999Z</time></trkpt><trkpt lat="45.158134065143614" lon="5.71108637094239"><ele>225.0</ele><time>2026-05-02T12:11:41.999Z</time></trkpt><trkpt lat="45.15822501805988" lon="5.710869529140205"><ele>224.66666666666669</ele><time>2026-05-02T12:11:42.999Z</time></trkpt><trkpt lat="45.15830929242805" lon="5.710650572238246"><ele>224.33333333333334</ele><time>2026-05-02T12:11:43.999Z</time></trkpt><trkpt lat="45.15838939899294" lon="5.710428738704444"><ele>224.0</ele><time>2026-05-02T12:11:44.999Z</time></trkpt><trkpt lat="45.15846230284138" lon="5.710203391348216"><ele>223.33333333333334</ele><time>2026-05-02T12:11:45.999Z</time></trkpt><trkpt lat="45.15853516882802" lon="5.709979400525901"><ele>222.66666666666669</ele><time>2026-05-02T12:11:46.999Z</time></trkpt><trkpt lat="45.1585962040084" lon="5.709750219821648"><ele>222.0</ele><time>2026-05-02T12:11:47.999Z</time></trkpt><trkpt lat="45.15864148621563" lon="5.7095165406207915"><ele>222.33333333333331</ele><time>2026-05-02T12:11:48.999Z</time></trkpt><trkpt lat="45.158683428277094" lon="5.70928433487532"><ele>222.66666666666666</ele><time>2026-05-02T12:11:49.999Z</time></trkpt><trkpt lat="45.15871026940882" lon="5.709049830011493"><ele>223.0</ele><time>2026-05-02T12:11:50.999Z</time></trkpt><trkpt lat="45.15873420471356" lon="5.708811891088179"><ele>223.0</ele><time>2026-05-02T12:11:51.999Z</time></trkpt><trkpt lat="45.15876199899452" lon="5.708577777870517"><ele>223.0</ele><time>2026-05-02T12:11:52.999Z</time></trkpt><trkpt lat="45.158795287784976" lon="5.708376232123498"><ele>223.0</ele><time>2026-05-02T12:11:53.999Z</time></trkpt><trkpt lat="45.15881840247268" lon="5.708191904694737"><ele>223.0</ele><time>2026-05-02T12:11:54.999Z</time></trkpt><trkpt lat="45.15883138702406" lon="5.707999925942523"><ele>224.0</ele><time>2026-05-02T12:11:55.999Z</time></trkpt><trkpt lat="45.158838402779864" lon="5.707819699488422"><ele>225.0</ele><time>2026-05-02T12:11:56.999Z</time></trkpt><trkpt lat="45.15884306047057" lon="5.707638517270039"><ele>226.0</ele><time>2026-05-02T12:11:57.999Z</time></trkpt><trkpt lat="45.15884792835889" lon="5.707460581612313"><ele>227.0</ele><time>2026-05-02T12:11:58.999Z</time></trkpt><trkpt lat="45.15885396033123" lon="5.707288173674669"><ele>227.0</ele><time>2026-05-02T12:11:59.999Z</time></trkpt><trkpt lat="45.158863441628625" lon="5.707114374291191"><ele>227.0</ele><time>2026-05-02T12:12:00.999Z</time></trkpt><trkpt lat="45.15887408631365" lon="5.706937579187974"><ele>227.0</ele><time>2026-05-02T12:12:01.999Z</time></trkpt><trkpt lat="45.15888623625998" lon="5.706756298613238"><ele>227.0</ele><time>2026-05-02T12:12:02.999Z</time></trkpt><trkpt lat="45.15889201598988" lon="5.706582128159313"><ele>227.0</ele><time>2026-05-02T12:12:03.999Z</time></trkpt><trkpt lat="45.158893943497816" lon="5.706431224335588"><ele>227.0</ele><time>2026-05-02T12:12:04.999Z</time></trkpt><trkpt lat="45.158894595925496" lon="5.706280784122133"><ele>227.0</ele><time>2026-05-02T12:12:05.999Z</time></trkpt><trkpt lat="45.15889607027394" lon="5.706128662286187"><ele>227.0</ele><time>2026-05-02T12:12:06.999Z</time></trkpt><trkpt lat="45.15890104879237" lon="5.705991725390237"><ele>227.0</ele><time>2026-05-02T12:12:07.999Z</time></trkpt><trkpt lat="45.1589043562331" lon="5.7058530349529155"><ele>227.00000000000003</ele><time>2026-05-02T12:12:08.999Z</time></trkpt><trkpt lat="45.1589074518753" lon="5.705730009981708"><ele>227.0</ele><time>2026-05-02T12:12:09.999Z</time></trkpt><trkpt lat="45.15890573263276" lon="5.705629264847449"><ele>227.0</ele><time>2026-05-02T12:12:10.999Z</time></trkpt><trkpt lat="45.158905666590044" lon="5.705530375915578"><ele>227.0</ele><time>2026-05-02T12:12:11.999Z</time></trkpt><trkpt lat="45.1589062851751" lon="5.7054268225557685"><ele>227.00000000000003</ele><time>2026-05-02T12:12:12.999Z</time></trkpt><trkpt lat="45.1589077594905" lon="5.705305857259677"><ele>227.0</ele><time>2026-05-02T12:12:13.999Z</time></trkpt><trkpt lat="45.15890986089752" lon="5.705186637497119"><ele>227.0</ele><time>2026-05-02T12:12:14.999Z</time></trkpt><trkpt lat="45.15890944457162" lon="5.705073120945484"><ele>227.0</ele><time>2026-05-02T12:12:15.999Z</time></trkpt><trkpt lat="45.158911628945575" lon="5.704983580201823"><ele>227.0</ele><time>2026-05-02T12:12:16.999Z</time></trkpt><trkpt lat="45.15891258298241" lon="5.704835681468618"><ele>227.0</ele><time>2026-05-02T12:12:18.999Z</time></trkpt><trkpt lat="45.15890473053116" lon="5.704674902345485"><ele>227.0</ele><time>2026-05-02T12:12:20.999Z</time></trkpt><trkpt lat="45.158904763565594" lon="5.704512563249651"><ele>227.0</ele><time>2026-05-02T12:12:22.999Z</time></trkpt><trkpt lat="45.158793674853335" lon="5.70445575753029"><ele>227.0</ele><time>2026-05-02T12:12:24.999Z</time></trkpt><trkpt lat="45.158724193155884" lon="5.7043329451811795"><ele>227.0</ele><time>2026-05-02T12:12:26.999Z</time></trkpt><trkpt lat="45.15868554549184" lon="5.704241112385665"><ele>227.0</ele><time>2026-05-02T12:12:27.999Z</time></trkpt><trkpt lat="45.15865812743334" lon="5.704122942328806"><ele>227.0</ele><time>2026-05-02T12:12:28.999Z</time></trkpt><trkpt lat="45.15864071837403" lon="5.703985512105492"><ele>227.5</ele><time>2026-05-02T12:12:29.999Z</time></trkpt><trkpt lat="45.158631234969974" lon="5.703844358667347"><ele>228.0</ele><time>2026-05-02T12:12:30.999Z</time></trkpt><trkpt lat="45.158638060065584" lon="5.703690573196394"><ele>228.5</ele><time>2026-05-02T12:12:31.999Z</time></trkpt><trkpt lat="45.15863467467377" lon="5.703532630907967"><ele>229.0</ele><time>2026-05-02T12:12:32.999Z</time></trkpt><trkpt lat="45.158607878687036" lon="5.703351587223658"><ele>229.0</ele><time>2026-05-02T12:12:33.999Z</time></trkpt><trkpt lat="45.158582075398506" lon="5.703180376778733"><ele>228.99999999999997</ele><time>2026-05-02T12:12:34.999Z</time></trkpt><trkpt lat="45.158570274000645" lon="5.7030449488439885"><ele>228.99999999999997</ele><time>2026-05-02T12:12:35.999Z</time></trkpt><trkpt lat="45.15856483706632" lon="5.702890828580428"><ele>229.0</ele><time>2026-05-02T12:12:36.999Z</time></trkpt><trkpt lat="45.1585580801828" lon="5.702731521791046"><ele>229.0</ele><time>2026-05-02T12:12:37.999Z</time></trkpt><trkpt lat="45.15855732993968" lon="5.702573008925124"><ele>228.5</ele><time>2026-05-02T12:12:38.999Z</time></trkpt><trkpt lat="45.1585598071924" lon="5.702410477608991"><ele>228.0</ele><time>2026-05-02T12:12:39.999Z</time></trkpt><trkpt lat="45.158567866775705" lon="5.702248692959609"><ele>227.5</ele><time>2026-05-02T12:12:40.999Z</time></trkpt><trkpt lat="45.1585833563629" lon="5.702084898330852"><ele>227.0</ele><time>2026-05-02T12:12:41.999Z</time></trkpt><trkpt lat="45.158603198530045" lon="5.70192241047819"><ele>227.5</ele><time>2026-05-02T12:12:42.999Z</time></trkpt><trkpt lat="45.1586230799224" lon="5.7017591319014995"><ele>228.0</ele><time>2026-05-02T12:12:43.999Z</time></trkpt><trkpt lat="45.15864564188049" lon="5.701594740582607"><ele>228.5</ele><time>2026-05-02T12:12:44.999Z</time></trkpt><trkpt lat="45.158672328295445" lon="5.701431140012835"><ele>229.0</ele><time>2026-05-02T12:12:45.999Z</time></trkpt><trkpt lat="45.15869949499331" lon="5.701267055334334"><ele>229.0</ele><time>2026-05-02T12:12:46.999Z</time></trkpt><trkpt lat="45.15872677443323" lon="5.701107281707849"><ele>229.0</ele><time>2026-05-02T12:12:47.999Z</time></trkpt><trkpt lat="45.158751566080426" lon="5.700950401281209"><ele>229.0</ele><time>2026-05-02T12:12:48.999Z</time></trkpt><trkpt lat="45.15877827087453" lon="5.700790061795771"><ele>229.0</ele><time>2026-05-02T12:12:49.999Z</time></trkpt><trkpt lat="45.1588041608775" lon="5.700629643442199"><ele>228.75</ele><time>2026-05-02T12:12:50.999Z</time></trkpt><trkpt lat="45.15882962803942" lon="5.700462534307441"><ele>228.5</ele><time>2026-05-02T12:12:51.999Z</time></trkpt><trkpt lat="45.15885607007188" lon="5.700302344822078"><ele>228.25</ele><time>2026-05-02T12:12:52.999Z</time></trkpt><trkpt lat="45.158881525518304" lon="5.700136152904327"><ele>228.0</ele><time>2026-05-02T12:12:53.999Z</time></trkpt><trkpt lat="45.15890977792059" lon="5.699969743111444"><ele>227.25</ele><time>2026-05-02T12:12:54.999Z</time></trkpt><trkpt lat="45.15893766939441" lon="5.699804046038208"><ele>226.5</ele><time>2026-05-02T12:12:55.999Z</time></trkpt><trkpt lat="45.15896470253128" lon="5.699639915311559"><ele>225.75</ele><time>2026-05-02T12:12:56.999Z</time></trkpt><trkpt lat="45.15898867922419" lon="5.699487410420969"><ele>225.0</ele><time>2026-05-02T12:12:57.999Z</time></trkpt><trkpt lat="45.159007631991344" lon="5.699338464368111"><ele>224.5</ele><time>2026-05-02T12:12:58.999Z</time></trkpt><trkpt lat="45.15903181278648" lon="5.699186772617586"><ele>224.0</ele><time>2026-05-02T12:12:59.999Z</time></trkpt><trkpt lat="45.159059962108536" lon="5.699023545169553"><ele>223.5</ele><time>2026-05-02T12:13:00.999Z</time></trkpt><trkpt lat="45.159085007331946" lon="5.698863656626395"><ele>223.0</ele><time>2026-05-02T12:13:01.999Z</time></trkpt><trkpt lat="45.15911261213043" lon="5.698705594595479"><ele>223.33333333333331</ele><time>2026-05-02T12:13:02.999Z</time></trkpt><trkpt lat="45.15914082827452" lon="5.698522734933086"><ele>223.66666666666669</ele><time>2026-05-02T12:13:03.999Z</time></trkpt><trkpt lat="45.15917391424825" lon="5.69829814981735"><ele>224.0</ele><time>2026-05-02T12:13:04.999Z</time></trkpt><trkpt lat="45.15921808894201" lon="5.698065150229564"><ele>224.0</ele><time>2026-05-02T12:13:05.999Z</time></trkpt><trkpt lat="45.15927025809177" lon="5.697803737241129"><ele>224.0</ele><time>2026-05-02T12:13:06.999Z</time></trkpt><trkpt lat="45.15931617565672" lon="5.6975522489160575"><ele>224.0</ele><time>2026-05-02T12:13:07.999Z</time></trkpt><trkpt lat="45.15934790930343" lon="5.697335440264241"><ele>224.25</ele><time>2026-05-02T12:13:08.999Z</time></trkpt><trkpt lat="45.159361250264716" lon="5.697161646143389"><ele>224.5</ele><time>2026-05-02T12:13:09.999Z</time></trkpt><trkpt lat="45.15937955461739" lon="5.696983802463917"><ele>224.75</ele><time>2026-05-02T12:13:10.999Z</time></trkpt><trkpt lat="45.159396388116534" lon="5.696828856497402"><ele>225.0</ele><time>2026-05-02T12:13:11.999Z</time></trkpt><trkpt lat="45.159426578788235" lon="5.696695629001476"><ele>225.0</ele><time>2026-05-02T12:13:12.999Z</time></trkpt><trkpt lat="45.15947491143958" lon="5.696577520651645"><ele>225.0</ele><time>2026-05-02T12:13:13.999Z</time></trkpt><trkpt lat="45.1595435605084" lon="5.696482208543833"><ele>225.0</ele><time>2026-05-02T12:13:14.999Z</time></trkpt><trkpt lat="45.15961624515112" lon="5.696425633040387"><ele>225.0</ele><time>2026-05-02T12:13:15.999Z</time></trkpt><trkpt lat="45.15969075625779" lon="5.696374478431488"><ele>225.0</ele><time>2026-05-02T12:13:16.999Z</time></trkpt><trkpt lat="45.15975326462604" lon="5.69627823543122"><ele>225.0</ele><time>2026-05-02T12:13:17.999Z</time></trkpt><trkpt lat="45.15977953920478" lon="5.696149720984418"><ele>225.0</ele><time>2026-05-02T12:13:18.999Z</time></trkpt><trkpt lat="45.15977382226511" lon="5.696027426137808"><ele>225.0</ele><time>2026-05-02T12:13:19.999Z</time></trkpt><trkpt lat="45.15974824108583" lon="5.695911661135714"><ele>225.0</ele><time>2026-05-02T12:13:20.999Z</time></trkpt><trkpt lat="45.159697822275916" lon="5.695810017551787"><ele>225.0</ele><time>2026-05-02T12:13:21.999Z</time></trkpt><trkpt lat="45.15965332684765" lon="5.695724635098424"><ele>225.0</ele><time>2026-05-02T12:13:22.999Z</time></trkpt><trkpt lat="45.15964117104414" lon="5.695620818786934"><ele>224.8</ele><time>2026-05-02T12:13:23.999Z</time></trkpt><trkpt lat="45.15964421333575" lon="5.69550271844981"><ele>224.6</ele><time>2026-05-02T12:13:24.999Z</time></trkpt><trkpt lat="45.159659156628294" lon="5.695380313584204"><ele>224.39999999999998</ele><time>2026-05-02T12:13:25.999Z</time></trkpt><trkpt lat="45.15967988468377" lon="5.695245734297898"><ele>224.2</ele><time>2026-05-02T12:13:26.999Z</time></trkpt><trkpt lat="45.15970761101165" lon="5.695116530841224"><ele>224.0</ele><time>2026-05-02T12:13:27.999Z</time></trkpt><trkpt lat="45.15972456570514" lon="5.694990680616167"><ele>224.0</ele><time>2026-05-02T12:13:28.999Z</time></trkpt><trkpt lat="45.15975904059782" lon="5.694853170910986"><ele>223.99999999999997</ele><time>2026-05-02T12:13:29.999Z</time></trkpt><trkpt lat="45.15979563755715" lon="5.694707951017826"><ele>223.99999999999997</ele><time>2026-05-02T12:13:30.999Z</time></trkpt><trkpt lat="45.15983693273253" lon="5.694559903309456"><ele>224.0</ele><time>2026-05-02T12:13:31.999Z</time></trkpt><trkpt lat="45.15989586539388" lon="5.694416782496816"><ele>224.0</ele><time>2026-05-02T12:13:32.999Z</time></trkpt><trkpt lat="45.15996000530291" lon="5.69426807797294"><ele>224.25</ele><time>2026-05-02T12:13:33.999Z</time></trkpt><trkpt lat="45.160025426541374" lon="5.694123788201738"><ele>224.5</ele><time>2026-05-02T12:13:34.999Z</time></trkpt><trkpt lat="45.16009848371065" lon="5.693982742704153"><ele>224.75</ele><time>2026-05-02T12:13:35.999Z</time></trkpt><trkpt lat="45.160183016263936" lon="5.69384396318306"><ele>225.0</ele><time>2026-05-02T12:13:36.999Z</time></trkpt><trkpt lat="45.16027345788013" lon="5.693713054823054"><ele>225.0</ele><time>2026-05-02T12:13:37.999Z</time></trkpt><trkpt lat="45.16036908310754" lon="5.693590814775461"><ele>225.0</ele><time>2026-05-02T12:13:38.999Z</time></trkpt><trkpt lat="45.160467253982965" lon="5.693465753275783"><ele>225.0</ele><time>2026-05-02T12:13:39.999Z</time></trkpt><trkpt lat="45.160575670622414" lon="5.693336797196397"><ele>225.0</ele><time>2026-05-02T12:13:40.999Z</time></trkpt><trkpt lat="45.16069315124758" lon="5.693214446908676"><ele>225.0</ele><time>2026-05-02T12:13:41.999Z</time></trkpt><trkpt lat="45.16082854060739" lon="5.693134745781458"><ele>225.0</ele><time>2026-05-02T12:13:42.999Z</time></trkpt><trkpt lat="45.16096053092618" lon="5.693043808367028"><ele>225.0</ele><time>2026-05-02T12:13:43.999Z</time></trkpt><trkpt lat="45.16109884186531" lon="5.692963201199365"><ele>225.0</ele><time>2026-05-02T12:13:44.999Z</time></trkpt><trkpt lat="45.16124197269194" lon="5.692897996471087"><ele>225.0</ele><time>2026-05-02T12:13:45.999Z</time></trkpt><trkpt lat="45.16139319472234" lon="5.6928486176243265"><ele>225.0</ele><time>2026-05-02T12:13:46.999Z</time></trkpt><trkpt lat="45.16155250927107" lon="5.692809582167663"><ele>225.0</ele><time>2026-05-02T12:13:47.999Z</time></trkpt><trkpt lat="45.161709305570156" lon="5.692778215316303"><ele>226.33333333333331</ele><time>2026-05-02T12:13:48.999Z</time></trkpt><trkpt lat="45.16188600082304" lon="5.692745010242593"><ele>227.66666666666666</ele><time>2026-05-02T12:13:49.999Z</time></trkpt><trkpt lat="45.1620616498754" lon="5.69271481190537"><ele>229.0</ele><time>2026-05-02T12:13:50.999Z</time></trkpt><trkpt lat="45.16225308000745" lon="5.6926759644780205"><ele>228.0</ele><time>2026-05-02T12:13:51.999Z</time></trkpt><trkpt lat="45.16242389492032" lon="5.692648272309458"><ele>227.0</ele><time>2026-05-02T12:13:52.999Z</time></trkpt><trkpt lat="45.162593751332736" lon="5.692611826198366"><ele>226.0</ele><time>2026-05-02T12:13:53.999Z</time></trkpt><trkpt lat="45.16277317179867" lon="5.6925869397847375"><ele>226.0</ele><time>2026-05-02T12:13:54.999Z</time></trkpt><trkpt lat="45.16294855962345" lon="5.692550940684963"><ele>226.0</ele><time>2026-05-02T12:13:55.999Z</time></trkpt><trkpt lat="45.16314919186981" lon="5.692512573267153"><ele>226.0</ele><time>2026-05-02T12:13:56.999Z</time></trkpt><trkpt lat="45.16335173673713" lon="5.692497017234005"><ele>225.66666666666666</ele><time>2026-05-02T12:13:57.999Z</time></trkpt><trkpt lat="45.16353477166274" lon="5.692443410279262"><ele>225.33333333333331</ele><time>2026-05-02T12:13:58.999Z</time></trkpt><trkpt lat="45.16371534047707" lon="5.69242469940815"><ele>225.0</ele><time>2026-05-02T12:13:59.999Z</time></trkpt><trkpt lat="45.16390940461424" lon="5.692383870105685"><ele>224.66666666666669</ele><time>2026-05-02T12:14:00.999Z</time></trkpt><trkpt lat="45.1640966956282" lon="5.692360787248996"><ele>224.33333333333334</ele><time>2026-05-02T12:14:01.999Z</time></trkpt><trkpt lat="45.164283088263716" lon="5.692301152479038"><ele>224.0</ele><time>2026-05-02T12:14:02.999Z</time></trkpt><trkpt lat="45.16446737646118" lon="5.692247228466759"><ele>224.0</ele><time>2026-05-02T12:14:03.999Z</time></trkpt><trkpt lat="45.16464641360738" lon="5.692175636339349"><ele>224.0</ele><time>2026-05-02T12:14:04.999Z</time></trkpt><trkpt lat="45.16481342237247" lon="5.692084776702518"><ele>224.0</ele><time>2026-05-02T12:14:06Z</time></trkpt><trkpt lat="45.164988514902056" lon="5.691997631727641"><ele>226.66666666666669</ele><time>2026-05-02T12:14:07Z</time></trkpt><trkpt lat="45.16516524866636" lon="5.691917427400032"><ele>229.33333333333331</ele><time>2026-05-02T12:14:08Z</time></trkpt><trkpt lat="45.165336697055515" lon="5.691839802661377"><ele>232.0</ele><time>2026-05-02T12:14:09Z</time></trkpt><trkpt lat="45.165506284863994" lon="5.691766211663178"><ele>232.0</ele><time>2026-05-02T12:14:10Z</time></trkpt><trkpt lat="45.16566023231014" lon="5.691697920358927"><ele>232.0</ele><time>2026-05-02T12:14:11Z</time></trkpt><trkpt lat="45.165807072299565" lon="5.6916366496544555"><ele>232.0</ele><time>2026-05-02T12:14:12Z</time></trkpt><trkpt lat="45.1659589746621" lon="5.691563519140947"><ele>230.66666666666666</ele><time>2026-05-02T12:14:13Z</time></trkpt><trkpt lat="45.166113183984315" lon="5.691503716695686"><ele>229.33333333333331</ele><time>2026-05-02T12:14:14Z</time></trkpt><trkpt lat="45.16627318946431" lon="5.691450098080657"><ele>228.0</ele><time>2026-05-02T12:14:15Z</time></trkpt><trkpt lat="45.16642495411808" lon="5.6914066413963535"><ele>227.0</ele><time>2026-05-02T12:14:16Z</time></trkpt><trkpt lat="45.16656544558922" lon="5.691361095588772"><ele>226.0</ele><time>2026-05-02T12:14:17Z</time></trkpt><trkpt lat="45.16671546446846" lon="5.691305761878234"><ele>225.0</ele><time>2026-05-02T12:14:18Z</time></trkpt><trkpt lat="45.166871294850296" lon="5.691251020402438"><ele>225.0</ele><time>2026-05-02T12:14:19Z</time></trkpt><trkpt lat="45.167009913526066" lon="5.691192328812667"><ele>225.0</ele><time>2026-05-02T12:14:20Z</time></trkpt><trkpt lat="45.16712756692041" lon="5.691137311428865"><ele>225.0</ele><time>2026-05-02T12:14:21Z</time></trkpt><trkpt lat="45.16722622742187" lon="5.6910885267020745"><ele>225.0</ele><time>2026-05-02T12:14:22Z</time></trkpt><trkpt lat="45.16732727460947" lon="5.6910592466985435"><ele>225.5</ele><time>2026-05-02T12:14:23Z</time></trkpt><trkpt lat="45.16741063677482" lon="5.6911134120996145"><ele>226.0</ele><time>2026-05-02T12:14:24Z</time></trkpt><trkpt lat="45.167495055972324" lon="5.691176204203058"><ele>226.5</ele><time>2026-05-02T12:14:25Z</time></trkpt><trkpt lat="45.16756865256843" lon="5.691256669090817"><ele>227.0</ele><time>2026-05-02T12:14:26Z</time></trkpt><trkpt lat="45.16763539495757" lon="5.691323995211231"><ele>227.5</ele><time>2026-05-02T12:14:27Z</time></trkpt><trkpt lat="45.1677118645931" lon="5.691329160990334"><ele>228.0</ele><time>2026-05-02T12:14:28Z</time></trkpt><trkpt lat="45.167784037390824" lon="5.691278534299598"><ele>228.0</ele><time>2026-05-02T12:14:29Z</time></trkpt><trkpt lat="45.16784482129581" lon="5.691205889732982"><ele>228.0</ele><time>2026-05-02T12:14:30Z</time></trkpt><trkpt lat="45.16788925774198" lon="5.691070498366288"><ele>228.0</ele><time>2026-05-02T12:14:31Z</time></trkpt><trkpt lat="45.167921514191896" lon="5.690907238270422"><ele>228.0</ele><time>2026-05-02T12:14:32Z</time></trkpt><trkpt lat="45.1679800258161" lon="5.690727283042813"><ele>228.0</ele><time>2026-05-02T12:14:33Z</time></trkpt><trkpt lat="45.16809308291422" lon="5.690573664076372"><ele>227.66666666666669</ele><time>2026-05-02T12:14:34Z</time></trkpt><trkpt lat="45.168245852337705" lon="5.690421162155982"><ele>227.33333333333334</ele><time>2026-05-02T12:14:35Z</time></trkpt><trkpt lat="45.16842374753454" lon="5.690241678225965"><ele>227.0</ele><time>2026-05-02T12:14:36Z</time></trkpt><trkpt lat="45.168620454143095" lon="5.69004493892611"><ele>228.0</ele><time>2026-05-02T12:14:37Z</time></trkpt><trkpt lat="45.16881649668269" lon="5.689849326012397"><ele>229.0</ele><time>2026-05-02T12:14:38Z</time></trkpt><trkpt lat="45.16898979260817" lon="5.689636300177329"><ele>228.66666666666666</ele><time>2026-05-02T12:14:39Z</time></trkpt><trkpt lat="45.16914504138643" lon="5.689417045443104"><ele>228.33333333333331</ele><time>2026-05-02T12:14:40Z</time></trkpt><trkpt lat="45.16929941474394" lon="5.68919912728777"><ele>228.0</ele><time>2026-05-02T12:14:41Z</time></trkpt><trkpt lat="45.169455868202576" lon="5.6889909719522"><ele>228.0</ele><time>2026-05-02T12:14:42Z</time></trkpt><trkpt lat="45.1696138696457" lon="5.688787429401021"><ele>228.0</ele><time>2026-05-02T12:14:43Z</time></trkpt><trkpt lat="45.169772747535994" lon="5.68858729980977"><ele>228.0</ele><time>2026-05-02T12:14:44Z</time></trkpt><trkpt lat="45.16992870341848" lon="5.688396506025324"><ele>228.33333333333331</ele><time>2026-05-02T12:14:45Z</time></trkpt><trkpt lat="45.17009217581998" lon="5.688210029036238"><ele>228.66666666666666</ele><time>2026-05-02T12:14:46Z</time></trkpt><trkpt lat="45.17026459197188" lon="5.688059641137364"><ele>229.0</ele><time>2026-05-02T12:14:47Z</time></trkpt><trkpt lat="45.17043872281825" lon="5.687913829656805"><ele>229.0</ele><time>2026-05-02T12:14:48Z</time></trkpt><trkpt lat="45.170621122581565" lon="5.687792755835522"><ele>229.0</ele><time>2026-05-02T12:14:49Z</time></trkpt><trkpt lat="45.170810477859014" lon="5.687670122675562"><ele>229.0</ele><time>2026-05-02T12:14:50Z</time></trkpt><trkpt lat="45.17100287766695" lon="5.687584552250832"><ele>227.66666666666666</ele><time>2026-05-02T12:14:51Z</time></trkpt><trkpt lat="45.171197329924496" lon="5.687525616706503"><ele>226.33333333333331</ele><time>2026-05-02T12:14:52Z</time></trkpt><trkpt lat="45.17139691046196" lon="5.687487121185749"><ele>225.0</ele><time>2026-05-02T12:14:53Z</time></trkpt><trkpt lat="45.17159913066714" lon="5.68747272430638"><ele>224.66666666666669</ele><time>2026-05-02T12:14:54Z</time></trkpt><trkpt lat="45.17179907731337" lon="5.687468436768794"><ele>224.33333333333334</ele><time>2026-05-02T12:14:55Z</time></trkpt><trkpt lat="45.171992132017316" lon="5.687475798812936"><ele>224.0</ele><time>2026-05-02T12:14:56Z</time></trkpt><trkpt lat="45.17219047331803" lon="5.68747869910626"><ele>224.0</ele><time>2026-05-02T12:14:57Z</time></trkpt><trkpt lat="45.17239059432955" lon="5.687474269207348"><ele>224.0</ele><time>2026-05-02T12:14:58Z</time></trkpt><trkpt lat="45.17258181114382" lon="5.687471115099988"><ele>224.0</ele><time>2026-05-02T12:14:59Z</time></trkpt><trkpt lat="45.17277895484899" lon="5.687467725925683"><ele>224.0</ele><time>2026-05-02T12:15:00Z</time></trkpt><trkpt lat="45.1729727699565" lon="5.687465453476486"><ele>224.0</ele><time>2026-05-02T12:15:01Z</time></trkpt><trkpt lat="45.17316365435231" lon="5.687461039849286"><ele>224.0</ele><time>2026-05-02T12:15:02Z</time></trkpt><trkpt lat="45.173350924651544" lon="5.687456552682742"><ele>223.33333333333334</ele><time>2026-05-02T12:15:03Z</time></trkpt><trkpt lat="45.17353882313512" lon="5.687449365374497"><ele>222.66666666666669</ele><time>2026-05-02T12:15:04Z</time></trkpt><trkpt lat="45.173727729071224" lon="5.687440053929527"><ele>222.0</ele><time>2026-05-02T12:15:05Z</time></trkpt><trkpt lat="45.173916551371256" lon="5.687428911073747"><ele>220.33333333333331</ele><time>2026-05-02T12:15:06Z</time></trkpt><trkpt lat="45.174105714925396" lon="5.687420764985423"><ele>218.66666666666666</ele><time>2026-05-02T12:15:07Z</time></trkpt><trkpt lat="45.17429402078537" lon="5.68741069760024"><ele>217.0</ele><time>2026-05-02T12:15:08Z</time></trkpt><trkpt lat="45.17448423595161" lon="5.687399270798045"><ele>217.0</ele><time>2026-05-02T12:15:09Z</time></trkpt><trkpt lat="45.17467204058778" lon="5.6873889849355646"><ele>217.0</ele><time>2026-05-02T12:15:10Z</time></trkpt><trkpt lat="45.174861966736614" lon="5.6873785567109705"><ele>217.0</ele><time>2026-05-02T12:15:11Z</time></trkpt><trkpt lat="45.17505125772274" lon="5.687371563585837"><ele>217.33333333333331</ele><time>2026-05-02T12:15:12Z</time></trkpt><trkpt lat="45.17523496667916" lon="5.68736957097954"><ele>217.66666666666669</ele><time>2026-05-02T12:15:13Z</time></trkpt><trkpt lat="45.175395190229665" lon="5.68737546715196"><ele>218.0</ele><time>2026-05-02T12:15:14Z</time></trkpt><trkpt lat="45.17553112797202" lon="5.687378058878263"><ele>218.0</ele><time>2026-05-02T12:15:15Z</time></trkpt><trkpt lat="45.17565468710984" lon="5.68737820221567"><ele>218.0</ele><time>2026-05-02T12:15:16Z</time></trkpt><trkpt lat="45.17575851812038" lon="5.687371726873557"><ele>218.0</ele><time>2026-05-02T12:15:17Z</time></trkpt><trkpt lat="45.175846946918305" lon="5.687366326321014"><ele>218.0</ele><time>2026-05-02T12:15:18Z</time></trkpt><trkpt lat="45.175942035054675" lon="5.6873645293611945"><ele>218.0</ele><time>2026-05-02T12:15:19Z</time></trkpt><trkpt lat="45.17603807074905" lon="5.687384590784744"><ele>218.16666666666669</ele><time>2026-05-02T12:15:20Z</time></trkpt><trkpt lat="45.17612792784067" lon="5.687409644755666"><ele>218.33333333333334</ele><time>2026-05-02T12:15:21Z</time></trkpt><trkpt lat="45.1762068728807" lon="5.687379935492037"><ele>218.5</ele><time>2026-05-02T12:15:22Z</time></trkpt><trkpt lat="45.17624824371968" lon="5.6872805256147005"><ele>218.66666666666669</ele><time>2026-05-02T12:15:22.999Z</time></trkpt><trkpt lat="45.176249949725346" lon="5.687146543755377"><ele>218.83333333333334</ele><time>2026-05-02T12:15:23.999Z</time></trkpt><trkpt lat="45.176201695010064" lon="5.687028689151967"><ele>219.0</ele><time>2026-05-02T12:15:24.999Z</time></trkpt><trkpt lat="45.176115540194374" lon="5.686929656420281"><ele>219.0</ele><time>2026-05-02T12:15:25.999Z</time></trkpt><trkpt lat="45.17600420144351" lon="5.686819323217698"><ele>219.0</ele><time>2026-05-02T12:15:26.999Z</time></trkpt><trkpt lat="45.17589380011597" lon="5.686640308274077"><ele>219.0</ele><time>2026-05-02T12:15:27.999Z</time></trkpt><trkpt lat="45.175762556938196" lon="5.686486548669992"><ele>218.66666666666669</ele><time>2026-05-02T12:15:28.999Z</time></trkpt><trkpt lat="45.1756657370779" lon="5.686314359812093"><ele>218.33333333333334</ele><time>2026-05-02T12:15:29.999Z</time></trkpt><trkpt lat="45.1755244760664" lon="5.686180953378102"><ele>218.0</ele><time>2026-05-02T12:15:30.999Z</time></trkpt><trkpt lat="45.1753812808382" lon="5.686033961764997"><ele>219.33333333333334</ele><time>2026-05-02T12:15:31.999Z</time></trkpt><trkpt lat="45.17524164376021" lon="5.685860832465686"><ele>220.66666666666669</ele><time>2026-05-02T12:15:32.999Z</time></trkpt><trkpt lat="45.17509410145673" lon="5.685706271590548"><ele>222.0</ele><time>2026-05-02T12:15:33.999Z</time></trkpt><trkpt lat="45.17495489842097" lon="5.685563571329523"><ele>221.33333333333331</ele><time>2026-05-02T12:15:34.999Z</time></trkpt><trkpt lat="45.17481395932108" lon="5.685422973082334"><ele>220.66666666666666</ele><time>2026-05-02T12:15:35.999Z</time></trkpt><trkpt lat="45.17466756324431" lon="5.685280171312505"><ele>220.0</ele><time>2026-05-02T12:15:36.999Z</time></trkpt><trkpt lat="45.17452385324793" lon="5.685139827882322"><ele>225.33333333333331</ele><time>2026-05-02T12:15:37.999Z</time></trkpt><trkpt lat="45.17437701396932" lon="5.685014980882323"><ele>230.66666666666669</ele><time>2026-05-02T12:15:38.999Z</time></trkpt><trkpt lat="45.17422910089194" lon="5.684904233652959"><ele>236.0</ele><time>2026-05-02T12:15:39.999Z</time></trkpt><trkpt lat="45.17406446492671" lon="5.6848412774114525"><ele>236.0</ele><time>2026-05-02T12:15:40.999Z</time></trkpt><trkpt lat="45.173890245341376" lon="5.684807397819931"><ele>236.0</ele><time>2026-05-02T12:15:41.999Z</time></trkpt><trkpt lat="45.17371532997423" lon="5.684821486460195"><ele>236.0</ele><time>2026-05-02T12:15:42.999Z</time></trkpt><trkpt lat="45.173548125167315" lon="5.684815321602124"><ele>236.0</ele><time>2026-05-02T12:15:43.999Z</time></trkpt><trkpt lat="45.173378337564145" lon="5.684815348787727"><ele>236.0</ele><time>2026-05-02T12:15:44.999Z</time></trkpt><trkpt lat="45.17320545086923" lon="5.684788766666424"><ele>236.0</ele><time>2026-05-02T12:15:45.999Z</time></trkpt><trkpt lat="45.17301740546653" lon="5.684716281964563"><ele>233.33333333333334</ele><time>2026-05-02T12:15:46.999Z</time></trkpt><trkpt lat="45.172820805785335" lon="5.684588922634986"><ele>230.66666666666669</ele><time>2026-05-02T12:15:47.999Z</time></trkpt><trkpt lat="45.17263302181088" lon="5.684437355838387"><ele>228.0</ele><time>2026-05-02T12:15:48.999Z</time></trkpt><trkpt lat="45.172474153143526" lon="5.684310214166925"><ele>230.66666666666669</ele><time>2026-05-02T12:15:49.999Z</time></trkpt><trkpt lat="45.17231863727086" lon="5.6842258584855765"><ele>233.33333333333334</ele><time>2026-05-02T12:15:50.999Z</time></trkpt><trkpt lat="45.1721853227992" lon="5.684095348103057"><ele>236.0</ele><time>2026-05-02T12:15:51.999Z</time></trkpt><trkpt lat="45.172073136705876" lon="5.68396135421283"><ele>236.0</ele><time>2026-05-02T12:15:52.999Z</time></trkpt><trkpt lat="45.171975167964646" lon="5.683847056051438"><ele>236.0</ele><time>2026-05-02T12:15:53.999Z</time></trkpt><trkpt lat="45.17190680625793" lon="5.6837100852759175"><ele>236.0</ele><time>2026-05-02T12:15:54.999Z</time></trkpt><trkpt lat="45.17184862621057" lon="5.683593519532875"><ele>236.0</ele><time>2026-05-02T12:15:55.999Z</time></trkpt><trkpt lat="45.17176896581261" lon="5.6834896246485815"><ele>239.0</ele><time>2026-05-02T12:15:56.999Z</time></trkpt><trkpt lat="45.171812117617336" lon="5.683309539692703"><ele>242.0</ele><time>2026-05-02T12:15:57.999Z</time></trkpt><trkpt lat="45.17181005123659" lon="5.683151544477017"><ele>245.0</ele><time>2026-05-02T12:15:58.999Z</time></trkpt><trkpt lat="45.171790762800974" lon="5.683000664326325"><ele>248.0</ele><time>2026-05-02T12:15:59.999Z</time></trkpt><trkpt lat="45.17175727836181" lon="5.682858682310025"><ele>248.4</ele><time>2026-05-02T12:16:00.999Z</time></trkpt><trkpt lat="45.171709426414175" lon="5.682721956595768"><ele>248.8</ele><time>2026-05-02T12:16:01.999Z</time></trkpt><trkpt lat="45.17163904386523" lon="5.682604125293717"><ele>249.2</ele><time>2026-05-02T12:16:02.999Z</time></trkpt><trkpt lat="45.17155788897389" lon="5.682508972620001"><ele>249.6</ele><time>2026-05-02T12:16:03.999Z</time></trkpt><trkpt lat="45.17149084873152" lon="5.682394421874079"><ele>250.0</ele><time>2026-05-02T12:16:04.999Z</time></trkpt><trkpt lat="45.17142508228303" lon="5.682279095338655"><ele>250.0</ele><time>2026-05-02T12:16:05.999Z</time></trkpt><trkpt lat="45.17136440928149" lon="5.682163931509721"><ele>250.0</ele><time>2026-05-02T12:16:06.999Z</time></trkpt><trkpt lat="45.171317492403624" lon="5.682045665487492"><ele>250.0</ele><time>2026-05-02T12:16:07.999Z</time></trkpt><trkpt lat="45.17129136300187" lon="5.681919962310966"><ele>250.0</ele><time>2026-05-02T12:16:08.999Z</time></trkpt><trkpt lat="45.17129366204741" lon="5.681787487163248"><ele>250.0</ele><time>2026-05-02T12:16:09.999Z</time></trkpt><trkpt lat="45.17131750117699" lon="5.681662287975611"><ele>252.6</ele><time>2026-05-02T12:16:10.999Z</time></trkpt><trkpt lat="45.17135698574864" lon="5.681539491579747"><ele>255.2</ele><time>2026-05-02T12:16:12Z</time></trkpt><trkpt lat="45.17139521775711" lon="5.681427699863466"><ele>257.8</ele><time>2026-05-02T12:16:13Z</time></trkpt><trkpt lat="45.17142573457672" lon="5.681335130024863"><ele>260.4</ele><time>2026-05-02T12:16:14Z</time></trkpt><trkpt lat="45.17145680146569" lon="5.6811785865142825"><ele>263.0</ele><time>2026-05-02T12:16:16Z</time></trkpt><trkpt lat="45.171416666671846" lon="5.681014272357267"><ele>264.4</ele><time>2026-05-02T12:16:18Z</time></trkpt><trkpt lat="45.17129315216663" lon="5.680922206298138"><ele>265.8</ele><time>2026-05-02T12:16:20Z</time></trkpt><trkpt lat="45.171215513063025" lon="5.680924179728569"><ele>267.2</ele><time>2026-05-02T12:16:21Z</time></trkpt><trkpt lat="45.1711350115386" lon="5.680917140142313"><ele>268.6</ele><time>2026-05-02T12:16:22Z</time></trkpt><trkpt lat="45.171049335904065" lon="5.6808995513276415"><ele>270.0</ele><time>2026-05-02T12:16:23Z</time></trkpt><trkpt lat="45.17096100336292" lon="5.6808863696940195"><ele>270.0</ele><time>2026-05-02T12:16:24Z</time></trkpt><trkpt lat="45.170877237203264" lon="5.6808151174786925"><ele>270.0</ele><time>2026-05-02T12:16:25Z</time></trkpt><trkpt lat="45.170784850257775" lon="5.680789798289107"><ele>270.0</ele><time>2026-05-02T12:16:26Z</time></trkpt><trkpt lat="45.1707097832362" lon="5.680786871162382"><ele>270.0</ele><time>2026-05-02T12:16:27Z</time></trkpt><trkpt lat="45.17064334518795" lon="5.680752615808896"><ele>270.0</ele><time>2026-05-02T12:16:28Z</time></trkpt><trkpt lat="45.17056748490441" lon="5.680732014343048"><ele>270.0</ele><time>2026-05-02T12:16:29Z</time></trkpt><trkpt lat="45.17047273456484" lon="5.680701671672584"><ele>269.6</ele><time>2026-05-02T12:16:30Z</time></trkpt><trkpt lat="45.17038201144117" lon="5.68066343666465"><ele>269.2</ele><time>2026-05-02T12:16:31Z</time></trkpt><trkpt lat="45.170283841631196" lon="5.68061662405539"><ele>268.8</ele><time>2026-05-02T12:16:32Z</time></trkpt><trkpt lat="45.170192700514214" lon="5.680562168854611"><ele>268.4</ele><time>2026-05-02T12:16:33Z</time></trkpt><trkpt lat="45.17010541015134" lon="5.680510292411982"><ele>268.0</ele><time>2026-05-02T12:16:34Z</time></trkpt><trkpt lat="45.1700136176975" lon="5.680473759274311"><ele>268.0</ele><time>2026-05-02T12:16:35Z</time></trkpt><trkpt lat="45.169916050351276" lon="5.680455480538775"><ele>268.0</ele><time>2026-05-02T12:16:36Z</time></trkpt><trkpt lat="45.16982763290171" lon="5.680450569530281"><ele>268.0</ele><time>2026-05-02T12:16:37Z</time></trkpt><trkpt lat="45.16975653161693" lon="5.680442509421714"><ele>268.0</ele><time>2026-05-02T12:16:38Z</time></trkpt><trkpt lat="45.169679045954545" lon="5.680433747548077"><ele>268.0</ele><time>2026-05-02T12:16:39Z</time></trkpt><trkpt lat="45.16961625942962" lon="5.680427020014637"><ele>268.0</ele><time>2026-05-02T12:16:40Z</time></trkpt><trkpt lat="45.16954404740904" lon="5.680423021355231"><ele>268.8333333333333</ele><time>2026-05-02T12:16:41Z</time></trkpt><trkpt lat="45.16946867784411" lon="5.680426052656434"><ele>269.66666666666663</ele><time>2026-05-02T12:16:42Z</time></trkpt><trkpt lat="45.16938159832442" lon="5.680449756933631"><ele>270.5</ele><time>2026-05-02T12:16:43Z</time></trkpt><trkpt lat="45.16931128822149" lon="5.680484933883159"><ele>271.3333333333333</ele><time>2026-05-02T12:16:44Z</time></trkpt><trkpt lat="45.169244403547964" lon="5.68049919364774"><ele>272.1666666666667</ele><time>2026-05-02T12:16:45Z</time></trkpt><trkpt lat="45.16917181759338" lon="5.680494413379486"><ele>273.0</ele><time>2026-05-02T12:16:46Z</time></trkpt><trkpt lat="45.16909463383537" lon="5.680435899057543"><ele>272.6</ele><time>2026-05-02T12:16:47Z</time></trkpt><trkpt lat="45.169024963142995" lon="5.680334767234682"><ele>272.20000000000005</ele><time>2026-05-02T12:16:48Z</time></trkpt><trkpt lat="45.169004011147905" lon="5.680194121350608"><ele>271.8</ele><time>2026-05-02T12:16:49Z</time></trkpt><trkpt lat="45.16898644175754" lon="5.6800302067878565"><ele>271.40000000000003</ele><time>2026-05-02T12:16:50Z</time></trkpt><trkpt lat="45.16893682692467" lon="5.679882361579328"><ele>271.0</ele><time>2026-05-02T12:16:51Z</time></trkpt><trkpt lat="45.16891472825743" lon="5.679715231757606"><ele>271.0</ele><time>2026-05-02T12:16:52Z</time></trkpt><trkpt lat="45.16885362125448" lon="5.679557062444379"><ele>271.0</ele><time>2026-05-02T12:16:53Z</time></trkpt><trkpt lat="45.16877934027389" lon="5.6793985639519144"><ele>271.0</ele><time>2026-05-02T12:16:54Z</time></trkpt><trkpt lat="45.16868836389048" lon="5.679254945183505"><ele>271.0</ele><time>2026-05-02T12:16:55Z</time></trkpt><trkpt lat="45.168603168606516" lon="5.679107317010331"><ele>275.25</ele><time>2026-05-02T12:16:56Z</time></trkpt><trkpt lat="45.168509274012195" lon="5.678976654549363"><ele>279.5</ele><time>2026-05-02T12:16:57Z</time></trkpt><trkpt lat="45.16839897769019" lon="5.678859237529393"><ele>283.75</ele><time>2026-05-02T12:16:58Z</time></trkpt><trkpt lat="45.16828596528891" lon="5.678739035820573"><ele>288.0</ele><time>2026-05-02T12:16:59Z</time></trkpt><trkpt lat="45.16818736531188" lon="5.678598087926098"><ele>289.75</ele><time>2026-05-02T12:17:00Z</time></trkpt><trkpt lat="45.168103429203946" lon="5.678460046940854"><ele>291.5</ele><time>2026-05-02T12:17:01Z</time></trkpt><trkpt lat="45.168013393076926" lon="5.678321421972377"><ele>293.25</ele><time>2026-05-02T12:17:02Z</time></trkpt><trkpt lat="45.167918226142405" lon="5.67819803292834"><ele>295.0</ele><time>2026-05-02T12:17:03Z</time></trkpt><trkpt lat="45.1678118196937" lon="5.6781054232563015"><ele>295.0</ele><time>2026-05-02T12:17:04Z</time></trkpt><trkpt lat="45.16770784433005" lon="5.678016961976525"><ele>295.0</ele><time>2026-05-02T12:17:05Z</time></trkpt><trkpt lat="45.167586829959006" lon="5.678014017061209"><ele>295.0</ele><time>2026-05-02T12:17:06Z</time></trkpt><trkpt lat="45.16747628863939" lon="5.678006779573986"><ele>295.0</ele><time>2026-05-02T12:17:07Z</time></trkpt><trkpt lat="45.1673737805551" lon="5.678016585594971"><ele>296.8333333333333</ele><time>2026-05-02T12:17:08Z</time></trkpt><trkpt lat="45.16728695313448" lon="5.678020385761129"><ele>298.66666666666663</ele><time>2026-05-02T12:17:09Z</time></trkpt><trkpt lat="45.1672019002077" lon="5.678007320310229"><ele>300.5</ele><time>2026-05-02T12:17:10Z</time></trkpt><trkpt lat="45.16712096992823" lon="5.677966035941437"><ele>302.3333333333333</ele><time>2026-05-02T12:17:11Z</time></trkpt><trkpt lat="45.167059102307704" lon="5.677881028996823"><ele>304.1666666666667</ele><time>2026-05-02T12:17:12Z</time></trkpt><trkpt lat="45.16702941748179" lon="5.677750818849885"><ele>306.0</ele><time>2026-05-02T12:17:13Z</time></trkpt><trkpt lat="45.16705442214006" lon="5.67762004992965"><ele>306.8</ele><time>2026-05-02T12:17:14Z</time></trkpt><trkpt lat="45.16712263825742" lon="5.677514742135309"><ele>307.6</ele><time>2026-05-02T12:17:15Z</time></trkpt><trkpt lat="45.167207306042094" lon="5.677450065653148"><ele>308.4</ele><time>2026-05-02T12:17:16Z</time></trkpt><trkpt lat="45.16730746649986" lon="5.6774356041817375"><ele>309.2</ele><time>2026-05-02T12:17:17Z</time></trkpt><trkpt lat="45.16741445946808" lon="5.677457398421669"><ele>310.0</ele><time>2026-05-02T12:17:18Z</time></trkpt><trkpt lat="45.16752433682386" lon="5.677497468980717"><ele>310.0</ele><time>2026-05-02T12:17:19Z</time></trkpt><trkpt lat="45.167658169057766" lon="5.677554229158245"><ele>310.0</ele><time>2026-05-02T12:17:20Z</time></trkpt><trkpt lat="45.16780354651653" lon="5.6776636395316045"><ele>310.0</ele><time>2026-05-02T12:17:21Z</time></trkpt><trkpt lat="45.16793724224092" lon="5.677791918611054"><ele>308.66666666666663</ele><time>2026-05-02T12:17:22Z</time></trkpt><trkpt lat="45.168028179874966" lon="5.677872762268099"><ele>307.3333333333333</ele><time>2026-05-02T12:17:23Z</time></trkpt><trkpt lat="45.168097055603695" lon="5.6779190504351575"><ele>306.0</ele><time>2026-05-02T12:17:24Z</time></trkpt><trkpt lat="45.1681629973952" lon="5.67793819726042"><ele>304.6666666666667</ele><time>2026-05-02T12:17:25Z</time></trkpt><trkpt lat="45.168227380979" lon="5.677969423727968"><ele>303.33333333333337</ele><time>2026-05-02T12:17:26Z</time></trkpt><trkpt lat="45.1683394534125" lon="5.678020418694742"><ele>302.0</ele><time>2026-05-02T12:17:27Z</time></trkpt><trkpt lat="45.168486391287956" lon="5.678032760493688"><ele>302.0</ele><time>2026-05-02T12:17:28Z</time></trkpt><trkpt lat="45.168601162876456" lon="5.677984603059824"><ele>302.0</ele><time>2026-05-02T12:17:29Z</time></trkpt><trkpt lat="45.168754099039134" lon="5.6778933295784295"><ele>302.0</ele><time>2026-05-02T12:17:30Z</time></trkpt><trkpt lat="45.168862635154" lon="5.677790610162808"><ele>302.0</ele><time>2026-05-02T12:17:31Z</time></trkpt><trkpt lat="45.16897056760538" lon="5.677729183532684"><ele>303.0</ele><time>2026-05-02T12:17:32Z</time></trkpt><trkpt lat="45.16910499882676" lon="5.67772292953592"><ele>304.0</ele><time>2026-05-02T12:17:33Z</time></trkpt><trkpt lat="45.169251454386476" lon="5.677786597156226"><ele>305.0</ele><time>2026-05-02T12:17:34Z</time></trkpt><trkpt lat="45.1694309494877" lon="5.677830279580216"><ele>305.0</ele><time>2026-05-02T12:17:35Z</time></trkpt><trkpt lat="45.16964392356699" lon="5.677855694384605"><ele>305.0</ele><time>2026-05-02T12:17:36Z</time></trkpt><trkpt lat="45.1698429320956" lon="5.677909895314229"><ele>305.0</ele><time>2026-05-02T12:17:37Z</time></trkpt><trkpt lat="45.170036215830685" lon="5.677939968555957"><ele>307.0</ele><time>2026-05-02T12:17:38Z</time></trkpt><trkpt lat="45.170218545693785" lon="5.677951547353046"><ele>309.0</ele><time>2026-05-02T12:17:39Z</time></trkpt><trkpt lat="45.170393679073236" lon="5.67796980997752"><ele>311.0</ele><time>2026-05-02T12:17:40Z</time></trkpt><trkpt lat="45.1705711816795" lon="5.677993457746823"><ele>314.6666666666667</ele><time>2026-05-02T12:17:41Z</time></trkpt><trkpt lat="45.170746718148465" lon="5.678023889812376"><ele>318.3333333333333</ele><time>2026-05-02T12:17:42Z</time></trkpt><trkpt lat="45.17091006872945" lon="5.678099435975106"><ele>322.0</ele><time>2026-05-02T12:17:43Z</time></trkpt><trkpt lat="45.17107559591298" lon="5.678184420725952"><ele>322.0</ele><time>2026-05-02T12:17:44Z</time></trkpt><trkpt lat="45.17125427763538" lon="5.67825904361555"><ele>322.0</ele><time>2026-05-02T12:17:45Z</time></trkpt><trkpt lat="45.17141931102146" lon="5.678357978936714"><ele>322.0</ele><time>2026-05-02T12:17:46Z</time></trkpt><trkpt lat="45.171582756945185" lon="5.678443763199658"><ele>327.66666666666663</ele><time>2026-05-02T12:17:47Z</time></trkpt><trkpt lat="45.1717479107837" lon="5.67850473833929"><ele>333.3333333333333</ele><time>2026-05-02T12:17:48Z</time></trkpt><trkpt lat="45.17191562177039" lon="5.678548061839134"><ele>339.0</ele><time>2026-05-02T12:17:49Z</time></trkpt><trkpt lat="45.17208356051184" lon="5.67858353983146"><ele>334.3333333333333</ele><time>2026-05-02T12:17:50Z</time></trkpt><trkpt lat="45.172255023840556" lon="5.6786124416394275"><ele>329.66666666666663</ele><time>2026-05-02T12:17:51Z</time></trkpt><trkpt lat="45.17242306131058" lon="5.6786594538864215"><ele>325.0</ele><time>2026-05-02T12:17:51.999Z</time></trkpt><trkpt lat="45.17259342229102" lon="5.678734996534833"><ele>325.0</ele><time>2026-05-02T12:17:52.999Z</time></trkpt><trkpt lat="45.17275879651214" lon="5.678808408087887"><ele>325.0</ele><time>2026-05-02T12:17:53.999Z</time></trkpt><trkpt lat="45.17292028613855" lon="5.678882634210999"><ele>325.0</ele><time>2026-05-02T12:17:54.999Z</time></trkpt><trkpt lat="45.173083800148675" lon="5.6789600630790416"><ele>331.3333333333333</ele><time>2026-05-02T12:17:55.999Z</time></trkpt><trkpt lat="45.173244317784466" lon="5.679027018449122"><ele>337.6666666666667</ele><time>2026-05-02T12:17:56.999Z</time></trkpt><trkpt lat="45.173413540427106" lon="5.679117097988963"><ele>344.0</ele><time>2026-05-02T12:17:57.999Z</time></trkpt><trkpt lat="45.173566999390374" lon="5.679207713360227"><ele>344.0</ele><time>2026-05-02T12:17:58.999Z</time></trkpt><trkpt lat="45.173711662756716" lon="5.679317289647048"><ele>344.0</ele><time>2026-05-02T12:17:59.999Z</time></trkpt><trkpt lat="45.173857588171074" lon="5.679414299225332"><ele>344.0</ele><time>2026-05-02T12:18:00.999Z</time></trkpt><trkpt lat="45.174011795071046" lon="5.679505295088269"><ele>344.33333333333337</ele><time>2026-05-02T12:18:01.999Z</time></trkpt><trkpt lat="45.17416589783254" lon="5.67958807727084"><ele>344.6666666666667</ele><time>2026-05-02T12:18:02.999Z</time></trkpt><trkpt lat="45.17431419412035" lon="5.679681060073254"><ele>345.0</ele><time>2026-05-02T12:18:03.999Z</time></trkpt><trkpt lat="45.17443085133015" lon="5.679831968957806"><ele>345.0</ele><time>2026-05-02T12:18:04.999Z</time></trkpt><trkpt lat="45.17454577075661" lon="5.679988034195609"><ele>345.0</ele><time>2026-05-02T12:18:05.999Z</time></trkpt><trkpt lat="45.17462305969545" lon="5.680181358910754"><ele>345.0</ele><time>2026-05-02T12:18:06.999Z</time></trkpt><trkpt lat="45.17468856421137" lon="5.6803826607718815"><ele>342.0</ele><time>2026-05-02T12:18:07.999Z</time></trkpt><trkpt lat="45.17475391329375" lon="5.68057367678758"><ele>339.0</ele><time>2026-05-02T12:18:08.999Z</time></trkpt><trkpt lat="45.17482142512762" lon="5.6807550057445475"><ele>336.0</ele><time>2026-05-02T12:18:09.999Z</time></trkpt><trkpt lat="45.17490056524492" lon="5.680926594300637"><ele>333.0</ele><time>2026-05-02T12:18:10.999Z</time></trkpt><trkpt lat="45.174991124297996" lon="5.681091486115953"><ele>337.25</ele><time>2026-05-02T12:18:11.999Z</time></trkpt><trkpt lat="45.1751003455892" lon="5.681236935116143"><ele>341.5</ele><time>2026-05-02T12:18:12.999Z</time></trkpt><trkpt lat="45.1752230687344" lon="5.681349515203313"><ele>345.75</ele><time>2026-05-02T12:18:13.999Z</time></trkpt><trkpt lat="45.17536167370313" lon="5.681441086473406"><ele>350.0</ele><time>2026-05-02T12:18:14.999Z</time></trkpt><trkpt lat="45.175505704978136" lon="5.68151747314311"><ele>350.0</ele><time>2026-05-02T12:18:15.999Z</time></trkpt><trkpt lat="45.175652654158306" lon="5.681565467439967"><ele>350.0</ele><time>2026-05-02T12:18:16.999Z</time></trkpt><trkpt lat="45.175810767114754" lon="5.681570075809981"><ele>350.0</ele><time>2026-05-02T12:18:18.001Z</time></trkpt><trkpt lat="45.175964475301456" lon="5.6815637454504335"><ele>354.6666666666667</ele><time>2026-05-02T12:18:19.001Z</time></trkpt><trkpt lat="45.17612253751227" lon="5.681544313546749"><ele>359.3333333333333</ele><time>2026-05-02T12:18:20Z</time></trkpt><trkpt lat="45.17628863975745" lon="5.681511865254001"><ele>364.0</ele><time>2026-05-02T12:18:21Z</time></trkpt><trkpt lat="45.176479968586264" lon="5.681459227145848"><ele>365.5</ele><time>2026-05-02T12:18:22Z</time></trkpt><trkpt lat="45.176709677263815" lon="5.681395248113676"><ele>367.0</ele><time>2026-05-02T12:18:23Z</time></trkpt><trkpt lat="45.17695907103323" lon="5.681374973775853"><ele>367.0</ele><time>2026-05-02T12:18:24Z</time></trkpt><trkpt lat="45.177202554268774" lon="5.681371680479006"><ele>367.0</ele><time>2026-05-02T12:18:25Z</time></trkpt><trkpt lat="45.17741817865663" lon="5.681389878412379"><ele>367.66666666666663</ele><time>2026-05-02T12:18:26Z</time></trkpt><trkpt lat="45.177602893654516" lon="5.681442922168581"><ele>368.3333333333333</ele><time>2026-05-02T12:18:27Z</time></trkpt><trkpt lat="45.17774016075663" lon="5.681504214695207"><ele>369.0</ele><time>2026-05-02T12:18:28Z</time></trkpt><trkpt lat="45.177860923024184" lon="5.68154368980095"><ele>369.0</ele><time>2026-05-02T12:18:29Z</time></trkpt><trkpt lat="45.177958965782544" lon="5.6814996737297765"><ele>369.0</ele><time>2026-05-02T12:18:30Z</time></trkpt><trkpt lat="45.17803820306854" lon="5.681425831511743"><ele>369.0</ele><time>2026-05-02T12:18:31Z</time></trkpt><trkpt lat="45.17807554980786" lon="5.6812729885246585"><ele>369.0</ele><time>2026-05-02T12:18:32Z</time></trkpt><trkpt lat="45.177967691117466" lon="5.681098654812589"><ele>379.66666666666663</ele><time>2026-05-02T12:18:33Z</time></trkpt><trkpt lat="45.177854163597246" lon="5.68100455037136"><ele>390.3333333333333</ele><time>2026-05-02T12:18:34Z</time></trkpt><trkpt lat="45.1776820476195" lon="5.680976706012493"><ele>401.0</ele><time>2026-05-02T12:18:35Z</time></trkpt><trkpt lat="45.1774827810269" lon="5.680968766016324"><ele>398.0</ele><time>2026-05-02T12:18:36Z</time></trkpt><trkpt lat="45.17726999063806" lon="5.680861987133955"><ele>395.0</ele><time>2026-05-02T12:18:37Z</time></trkpt><trkpt lat="45.177033239694055" lon="5.6807358168415805"><ele>395.0</ele><time>2026-05-02T12:18:38Z</time></trkpt><trkpt lat="45.176786910290424" lon="5.680576722380433"><ele>395.0</ele><time>2026-05-02T12:18:39Z</time></trkpt><trkpt lat="45.17654822839738" lon="5.680362953889842"><ele>395.5</ele><time>2026-05-02T12:18:40Z</time></trkpt><trkpt lat="45.17631672384626" lon="5.680108424242491"><ele>396.0</ele><time>2026-05-02T12:18:41Z</time></trkpt><trkpt lat="45.17612387637148" lon="5.679884242678343"><ele>396.0</ele><time>2026-05-02T12:18:42Z</time></trkpt><trkpt lat="45.17597052655303" lon="5.679693008832613"><ele>396.0</ele><time>2026-05-02T12:18:43Z</time></trkpt><trkpt lat="45.17585319836058" lon="5.679522509067536"><ele>396.0</ele><time>2026-05-02T12:18:44Z</time></trkpt><trkpt lat="45.175785038483994" lon="5.6793741451151165"><ele>399.0</ele><time>2026-05-02T12:18:45Z</time></trkpt><trkpt lat="45.17576555045333" lon="5.679204707509182"><ele>402.0</ele><time>2026-05-02T12:18:46Z</time></trkpt><trkpt lat="45.17579966801911" lon="5.679029732074157"><ele>405.0</ele><time>2026-05-02T12:18:47Z</time></trkpt><trkpt lat="45.17591561406781" lon="5.6788794569800585"><ele>408.0</ele><time>2026-05-02T12:18:48Z</time></trkpt><trkpt lat="45.17600707452451" lon="5.678693174848321"><ele>409.5</ele><time>2026-05-02T12:18:49Z</time></trkpt><trkpt lat="45.176094690513445" lon="5.67856338220274"><ele>411.0</ele><time>2026-05-02T12:18:50Z</time></trkpt><trkpt lat="45.17615084574143" lon="5.678421375667951"><ele>412.5</ele><time>2026-05-02T12:18:51Z</time></trkpt><trkpt lat="45.176167831819356" lon="5.6782693948800445"><ele>414.0</ele><time>2026-05-02T12:18:52Z</time></trkpt><trkpt lat="45.17610415663449" lon="5.678133618476153"><ele>414.0</ele><time>2026-05-02T12:18:53Z</time></trkpt><trkpt lat="45.17600570999729" lon="5.678015994117811"><ele>414.0</ele><time>2026-05-02T12:18:54Z</time></trkpt><trkpt lat="45.17583733813817" lon="5.678042896085976"><ele>414.0</ele><time>2026-05-02T12:18:55Z</time></trkpt><trkpt lat="45.17564903420957" lon="5.678105720544718"><ele>411.66666666666663</ele><time>2026-05-02T12:18:56Z</time></trkpt><trkpt lat="45.17544269476782" lon="5.678079128780132"><ele>409.3333333333333</ele><time>2026-05-02T12:18:57Z</time></trkpt><trkpt lat="45.17522857344376" lon="5.677965372581894"><ele>407.0</ele><time>2026-05-02T12:18:58Z</time></trkpt><trkpt lat="45.17498544683659" lon="5.6778223992012"><ele>414.0</ele><time>2026-05-02T12:18:59Z</time></trkpt><trkpt lat="45.17473702648033" lon="5.677618502399384"><ele>421.0</ele><time>2026-05-02T12:19:00Z</time></trkpt><trkpt lat="45.174501000762504" lon="5.677359978809208"><ele>421.0</ele><time>2026-05-02T12:19:01Z</time></trkpt><trkpt lat="45.17426573434821" lon="5.677090656523118"><ele>421.0</ele><time>2026-05-02T12:19:02Z</time></trkpt><trkpt lat="45.174047424120445" lon="5.6768443632862375"><ele>425.5</ele><time>2026-05-02T12:19:03Z</time></trkpt><trkpt lat="45.17382465478388" lon="5.676642971733746"><ele>430.0</ele><time>2026-05-02T12:19:04Z</time></trkpt><trkpt lat="45.173629751267576" lon="5.676410502737186"><ele>430.0</ele><time>2026-05-02T12:19:05Z</time></trkpt><trkpt lat="45.17344561736408" lon="5.676185837266719"><ele>430.0</ele><time>2026-05-02T12:19:06Z</time></trkpt><trkpt lat="45.173270733084834" lon="5.6759726176153364"><ele>433.0</ele><time>2026-05-02T12:19:07Z</time></trkpt><trkpt lat="45.173112474167176" lon="5.675746176607335"><ele>436.0</ele><time>2026-05-02T12:19:08Z</time></trkpt><trkpt lat="45.172945948662324" lon="5.67555109419209"><ele>439.0</ele><time>2026-05-02T12:19:09Z</time></trkpt><trkpt lat="45.17278228791024" lon="5.675354925687883"><ele>446.0</ele><time>2026-05-02T12:19:10Z</time></trkpt><trkpt lat="45.172633369254754" lon="5.6751408473527345"><ele>453.0</ele><time>2026-05-02T12:19:11Z</time></trkpt><trkpt lat="45.172502782322375" lon="5.674895107745777"><ele>460.0</ele><time>2026-05-02T12:19:12Z</time></trkpt><trkpt lat="45.17238371479778" lon="5.674639628474038"><ele>457.6666666666667</ele><time>2026-05-02T12:19:13Z</time></trkpt><trkpt lat="45.17225486507875" lon="5.674393710928773"><ele>455.33333333333337</ele><time>2026-05-02T12:19:14Z</time></trkpt><trkpt lat="45.172157903108044" lon="5.674138010688475"><ele>453.0</ele><time>2026-05-02T12:19:15Z</time></trkpt><trkpt lat="45.172037906265" lon="5.673931522386207"><ele>453.0</ele><time>2026-05-02T12:19:16Z</time></trkpt><trkpt lat="45.17191402805299" lon="5.673768677015124"><ele>453.0</ele><time>2026-05-02T12:19:17Z</time></trkpt><trkpt lat="45.171750236182206" lon="5.673656086255404"><ele>453.0</ele><time>2026-05-02T12:19:18Z</time></trkpt><trkpt lat="45.17156316762806" lon="5.673564230596976"><ele>453.0</ele><time>2026-05-02T12:19:19Z</time></trkpt><trkpt lat="45.17138525559764" lon="5.673472925486172"><ele>453.0</ele><time>2026-05-02T12:19:20Z</time></trkpt><trkpt lat="45.171213272675885" lon="5.673362134178193"><ele>453.0</ele><time>2026-05-02T12:19:21Z</time></trkpt><trkpt lat="45.17103936877195" lon="5.673248038937302"><ele>453.0</ele><time>2026-05-02T12:19:22Z</time></trkpt><trkpt lat="45.170862740840626" lon="5.6731196979119956"><ele>453.0</ele><time>2026-05-02T12:19:23Z</time></trkpt><trkpt lat="45.17066197721411" lon="5.6729986058433415"><ele>453.0</ele><time>2026-05-02T12:19:24Z</time></trkpt><trkpt lat="45.17044010983178" lon="5.672836274420481"><ele>455.5</ele><time>2026-05-02T12:19:25Z</time></trkpt><trkpt lat="45.17020527147104" lon="5.672676725047913"><ele>458.0</ele><time>2026-05-02T12:19:26Z</time></trkpt><trkpt lat="45.170010869397466" lon="5.6724756025643375"><ele>457.0</ele><time>2026-05-02T12:19:27Z</time></trkpt><trkpt lat="45.16980460687545" lon="5.672255833982308"><ele>456.0</ele><time>2026-05-02T12:19:28Z</time></trkpt><trkpt lat="45.16965402296591" lon="5.671971200923912"><ele>464.0</ele><time>2026-05-02T12:19:29Z</time></trkpt><trkpt lat="45.16948331488694" lon="5.671730307020529"><ele>472.0</ele><time>2026-05-02T12:19:30Z</time></trkpt><trkpt lat="45.16924538188851" lon="5.671542490190014"><ele>469.0</ele><time>2026-05-02T12:19:31Z</time></trkpt><trkpt lat="45.16898127150626" lon="5.671364439675635"><ele>466.0</ele><time>2026-05-02T12:19:32Z</time></trkpt><trkpt lat="45.168702390960995" lon="5.671236240715746"><ele>466.0</ele><time>2026-05-02T12:19:33Z</time></trkpt><trkpt lat="45.16841094198676" lon="5.671142119562298"><ele>466.0</ele><time>2026-05-02T12:19:34Z</time></trkpt><trkpt lat="45.16811957427824" lon="5.67107132662154"><ele>476.0</ele><time>2026-05-02T12:19:35Z</time></trkpt><trkpt lat="45.16783897101091" lon="5.671039409064365"><ele>486.0</ele><time>2026-05-02T12:19:36Z</time></trkpt><trkpt lat="45.167589162759874" lon="5.671067631948503"><ele>490.0</ele><time>2026-05-02T12:19:37Z</time></trkpt><trkpt lat="45.16733926476834" lon="5.671043020897221"><ele>494.0</ele><time>2026-05-02T12:19:38Z</time></trkpt><trkpt lat="45.16711231187288" lon="5.671025532955773"><ele>494.0</ele><time>2026-05-02T12:19:39Z</time></trkpt><trkpt lat="45.16691445789864" lon="5.670892679380653"><ele>494.0</ele><time>2026-05-02T12:19:40Z</time></trkpt><trkpt lat="45.16676179735335" lon="5.670709575847647"><ele>494.0</ele><time>2026-05-02T12:19:41Z</time></trkpt><trkpt lat="45.16661321642623" lon="5.670573345841599"><ele>497.0</ele><time>2026-05-02T12:19:42Z</time></trkpt><trkpt lat="45.16643096633585" lon="5.670539854820915"><ele>500.0</ele><time>2026-05-02T12:19:43Z</time></trkpt><trkpt lat="45.16622533325439" lon="5.670586393557545"><ele>503.0</ele><time>2026-05-02T12:19:44Z</time></trkpt><trkpt lat="45.166039282004114" lon="5.670652220479733"><ele>503.0</ele><time>2026-05-02T12:19:45Z</time></trkpt><trkpt lat="45.16588806566052" lon="5.6707487265743595"><ele>503.0</ele><time>2026-05-02T12:19:46Z</time></trkpt><trkpt lat="45.165765984414506" lon="5.670926166288006"><ele>503.0</ele><time>2026-05-02T12:19:47Z</time></trkpt><trkpt lat="45.165628681584906" lon="5.671176644537229"><ele>505.0</ele><time>2026-05-02T12:19:48Z</time></trkpt><trkpt lat="45.165530044803916" lon="5.671504179008341"><ele>507.0</ele><time>2026-05-02T12:19:49Z</time></trkpt><trkpt lat="45.16538276681557" lon="5.671745043366797"><ele>507.0</ele><time>2026-05-02T12:19:50Z</time></trkpt><trkpt lat="45.165203600010976" lon="5.671936535276726"><ele>507.0</ele><time>2026-05-02T12:19:50.999Z</time></trkpt><trkpt lat="45.16498501152378" lon="5.672080171653024"><ele>502.66666666666663</ele><time>2026-05-02T12:19:51.999Z</time></trkpt><trkpt lat="45.164765510499784" lon="5.672157129912978"><ele>498.3333333333333</ele><time>2026-05-02T12:19:52.999Z</time></trkpt><trkpt lat="45.1645508990471" lon="5.6721958541656985"><ele>494.0</ele><time>2026-05-02T12:19:53.999Z</time></trkpt><trkpt lat="45.16434913574714" lon="5.6721774706631"><ele>494.0</ele><time>2026-05-02T12:19:54.999Z</time></trkpt><trkpt lat="45.16418127726812" lon="5.672148545090483"><ele>494.0</ele><time>2026-05-02T12:19:55.999Z</time></trkpt><trkpt lat="45.16403706238808" lon="5.672111103390768"><ele>494.0</ele><time>2026-05-02T12:19:56.999Z</time></trkpt><trkpt lat="45.1639254560485" lon="5.672040316635587"><ele>494.0</ele><time>2026-05-02T12:19:57.999Z</time></trkpt><trkpt lat="45.16385429844876" lon="5.671923541718205"><ele>498.25</ele><time>2026-05-02T12:19:58.999Z</time></trkpt><trkpt lat="45.16382613977506" lon="5.67178330069358"><ele>502.5</ele><time>2026-05-02T12:19:59.999Z</time></trkpt><trkpt lat="45.16387762211855" lon="5.671646465121027"><ele>506.75</ele><time>2026-05-02T12:20:00.999Z</time></trkpt><trkpt lat="45.16397415579335" lon="5.671574922276068"><ele>511.0</ele><time>2026-05-02T12:20:01.999Z</time></trkpt><trkpt lat="45.16410789975429" lon="5.671605463963886"><ele>511.0</ele><time>2026-05-02T12:20:02.999Z</time></trkpt><trkpt lat="45.16424873395384" lon="5.671650288075817"><ele>511.0</ele><time>2026-05-02T12:20:03.999Z</time></trkpt><trkpt lat="45.16442727908395" lon="5.671717202534474"><ele>511.0</ele><time>2026-05-02T12:20:04.999Z</time></trkpt><trkpt lat="45.16460584065038" lon="5.671716385770714"><ele>511.0</ele><time>2026-05-02T12:20:05.999Z</time></trkpt><trkpt lat="45.16476630966614" lon="5.6716165679022446"><ele>511.0</ele><time>2026-05-02T12:20:06.999Z</time></trkpt><trkpt lat="45.164890073215496" lon="5.671442164774115"><ele>511.0</ele><time>2026-05-02T12:20:07.999Z</time></trkpt><trkpt lat="45.16495568572153" lon="5.6712130199378095"><ele>514.0</ele><time>2026-05-02T12:20:08.999Z</time></trkpt><trkpt lat="45.164963119190396" lon="5.670974335941774"><ele>517.0</ele><time>2026-05-02T12:20:09.999Z</time></trkpt><trkpt lat="45.16492400062088" lon="5.670739301610646"><ele>520.0</ele><time>2026-05-02T12:20:10.999Z</time></trkpt><trkpt lat="45.16482961517587" lon="5.670528642098676"><ele>520.3333333333334</ele><time>2026-05-02T12:20:11.999Z</time></trkpt><trkpt lat="45.16466375366521" lon="5.670392127603991"><ele>520.6666666666666</ele><time>2026-05-02T12:20:12.999Z</time></trkpt><trkpt lat="45.16446603789737" lon="5.670345635700454"><ele>521.0</ele><time>2026-05-02T12:20:13.999Z</time></trkpt><trkpt lat="45.16425516483328" lon="5.67033326836809"><ele>521.0</ele><time>2026-05-02T12:20:14.999Z</time></trkpt><trkpt lat="45.164043633160674" lon="5.6703229791796925"><ele>521.0</ele><time>2026-05-02T12:20:15.999Z</time></trkpt><trkpt lat="45.16380507003178" lon="5.67031518292492"><ele>521.5</ele><time>2026-05-02T12:20:16.999Z</time></trkpt><trkpt lat="45.163566059794135" lon="5.670342460690371"><ele>522.0</ele><time>2026-05-02T12:20:17.999Z</time></trkpt><trkpt lat="45.1633252274516" lon="5.670424090918123"><ele>524.6666666666666</ele><time>2026-05-02T12:20:18.999Z</time></trkpt><trkpt lat="45.16311794757699" lon="5.670507392024801"><ele>527.3333333333333</ele><time>2026-05-02T12:20:19.999Z</time></trkpt><trkpt lat="45.16294842391191" lon="5.670550232169154"><ele>530.0</ele><time>2026-05-02T12:20:20.999Z</time></trkpt><trkpt lat="45.162788885402506" lon="5.670564955833749"><ele>530.0</ele><time>2026-05-02T12:20:21.999Z</time></trkpt><trkpt lat="45.162626762858125" lon="5.670512417518089"><ele>530.0</ele><time>2026-05-02T12:20:22.999Z</time></trkpt><trkpt lat="45.16245896264095" lon="5.670366646902543"><ele>530.0</ele><time>2026-05-02T12:20:24Z</time></trkpt><trkpt lat="45.16234791552583" lon="5.6701383652353226"><ele>529.0</ele><time>2026-05-02T12:20:25Z</time></trkpt><trkpt lat="45.162280958667004" lon="5.669871456876843"><ele>528.0</ele><time>2026-05-02T12:20:26Z</time></trkpt><trkpt lat="45.162233619983546" lon="5.669598503199724"><ele>527.0</ele><time>2026-05-02T12:20:27Z</time></trkpt><trkpt lat="45.16213640705913" lon="5.669421500357403"><ele>534.3333333333333</ele><time>2026-05-02T12:20:28Z</time></trkpt><trkpt lat="45.16198811339127" lon="5.669274585542452"><ele>541.6666666666666</ele><time>2026-05-02T12:20:29Z</time></trkpt><trkpt lat="45.16179323990033" lon="5.669199669869983"><ele>549.0</ele><time>2026-05-02T12:20:30Z</time></trkpt><trkpt lat="45.16159470417871" lon="5.669136993111596"><ele>551.6666666666666</ele><time>2026-05-02T12:20:31Z</time></trkpt><trkpt lat="45.161426843748174" lon="5.668991020946326"><ele>554.3333333333333</ele><time>2026-05-02T12:20:32Z</time></trkpt><trkpt lat="45.161291257896764" lon="5.668795601558789"><ele>557.0</ele><time>2026-05-02T12:20:33Z</time></trkpt><trkpt lat="45.16119684205691" lon="5.668604710090015"><ele>557.0</ele><time>2026-05-02T12:20:34Z</time></trkpt><trkpt lat="45.16110860889694" lon="5.668463521936396"><ele>557.0</ele><time>2026-05-02T12:20:35Z</time></trkpt><trkpt lat="45.161017809338745" lon="5.668338047026271"><ele>557.0</ele><time>2026-05-02T12:20:36Z</time></trkpt><trkpt lat="45.16092134099208" lon="5.668255411892546"><ele>557.0</ele><time>2026-05-02T12:20:37Z</time></trkpt><trkpt lat="45.160823816882036" lon="5.668190785285868"><ele>557.0</ele><time>2026-05-02T12:20:38Z</time></trkpt><trkpt lat="45.1607281361553" lon="5.668111161578318"><ele>557.0</ele><time>2026-05-02T12:20:39Z</time></trkpt><trkpt lat="45.16067601181661" lon="5.667992547793694"><ele>557.0</ele><time>2026-05-02T12:20:40Z</time></trkpt><trkpt lat="45.1606942774027" lon="5.6678587927597786"><ele>557.0</ele><time>2026-05-02T12:20:41Z</time></trkpt><trkpt lat="45.16079543869109" lon="5.6677701850295374"><ele>557.0</ele><time>2026-05-02T12:20:42Z</time></trkpt><trkpt lat="45.16090655816493" lon="5.667776653759491"><ele>557.0</ele><time>2026-05-02T12:20:43Z</time></trkpt><trkpt lat="45.16104217243917" lon="5.667871902077917"><ele>557.0</ele><time>2026-05-02T12:20:44Z</time></trkpt><trkpt lat="45.16121107631608" lon="5.668010747651515"><ele>557.0</ele><time>2026-05-02T12:20:45Z</time></trkpt><trkpt lat="45.16137587005073" lon="5.668142305220131"><ele>562.5</ele><time>2026-05-02T12:20:46Z</time></trkpt><trkpt lat="45.16160216926501" lon="5.6683012542067965"><ele>568.0</ele><time>2026-05-02T12:20:47Z</time></trkpt><trkpt lat="45.161848846763256" lon="5.6684637740426105"><ele>558.5</ele><time>2026-05-02T12:20:48Z</time></trkpt><trkpt lat="45.16207801806766" lon="5.668616546988087"><ele>549.0</ele><time>2026-05-02T12:20:49Z</time></trkpt><trkpt lat="45.16229760992194" lon="5.66870826498076"><ele>555.5</ele><time>2026-05-02T12:20:50Z</time></trkpt><trkpt lat="45.16256578475796" lon="5.668698892307217"><ele>562.0</ele><time>2026-05-02T12:20:51Z</time></trkpt><trkpt lat="45.16286265455012" lon="5.668706496765238"><ele>562.0</ele><time>2026-05-02T12:20:52Z</time></trkpt><trkpt lat="45.163176559835065" lon="5.668751440655931"><ele>562.0</ele><time>2026-05-02T12:20:53Z</time></trkpt><trkpt lat="45.16349491870293" lon="5.668741397378146"><ele>562.5</ele><time>2026-05-02T12:20:54Z</time></trkpt><trkpt lat="45.163823096997056" lon="5.668766526345432"><ele>563.0</ele><time>2026-05-02T12:20:55Z</time></trkpt><trkpt lat="45.164115958790404" lon="5.668787221027529"><ele>564.5</ele><time>2026-05-02T12:20:56Z</time></trkpt><trkpt lat="45.16437310001198" lon="5.668807361368486"><ele>566.0</ele><time>2026-05-02T12:20:57Z</time></trkpt><trkpt lat="45.16460725230548" lon="5.6688213582952205"><ele>566.0</ele><time>2026-05-02T12:20:58Z</time></trkpt><trkpt lat="45.16482969365191" lon="5.668821102115355"><ele>566.0</ele><time>2026-05-02T12:20:59Z</time></trkpt><trkpt lat="45.16504377411997" lon="5.66874853951334"><ele>566.0</ele><time>2026-05-02T12:21:00Z</time></trkpt><trkpt lat="45.165255321801716" lon="5.668634036132292"><ele>574.6666666666666</ele><time>2026-05-02T12:21:01Z</time></trkpt><trkpt lat="45.165461484221474" lon="5.668529849717228"><ele>583.3333333333334</ele><time>2026-05-02T12:21:02Z</time></trkpt><trkpt lat="45.16564411902672" lon="5.668453551139165"><ele>592.0</ele><time>2026-05-02T12:21:03Z</time></trkpt><trkpt lat="45.16580131965741" lon="5.6683752063319375"><ele>592.0</ele><time>2026-05-02T12:21:04Z</time></trkpt><trkpt lat="45.16593542633543" lon="5.668315926969107"><ele>592.0</ele><time>2026-05-02T12:21:05Z</time></trkpt><trkpt lat="45.16606337121821" lon="5.668221185653768"><ele>592.0</ele><time>2026-05-02T12:21:06Z</time></trkpt><trkpt lat="45.16617041175331" lon="5.668065291717868"><ele>592.0</ele><time>2026-05-02T12:21:07Z</time></trkpt><trkpt lat="45.166263716731486" lon="5.667897653742452"><ele>595.5</ele><time>2026-05-02T12:21:08Z</time></trkpt><trkpt lat="45.16635661110215" lon="5.6677375614132"><ele>599.0</ele><time>2026-05-02T12:21:09Z</time></trkpt><trkpt lat="45.1664720357311" lon="5.667643885888228"><ele>602.5</ele><time>2026-05-02T12:21:10Z</time></trkpt><trkpt lat="45.166613253801266" lon="5.667605353899952"><ele>606.0</ele><time>2026-05-02T12:21:11Z</time></trkpt><trkpt lat="45.16675526961404" lon="5.667646717266976"><ele>606.0</ele><time>2026-05-02T12:21:12Z</time></trkpt><trkpt lat="45.16689351685655" lon="5.667664092710828"><ele>606.0</ele><time>2026-05-02T12:21:13Z</time></trkpt><trkpt lat="45.167040117013926" lon="5.667687595703083"><ele>606.0</ele><time>2026-05-02T12:21:14Z</time></trkpt><trkpt lat="45.167182290403986" lon="5.667701684119983"><ele>606.0</ele><time>2026-05-02T12:21:15Z</time></trkpt><trkpt lat="45.16732891357698" lon="5.667702756778262"><ele>609.0</ele><time>2026-05-02T12:21:16Z</time></trkpt><trkpt lat="45.16746107028007" lon="5.6676957831559"><ele>612.0</ele><time>2026-05-02T12:21:17Z</time></trkpt><trkpt lat="45.1675785734844" lon="5.667676703911005"><ele>615.0</ele><time>2026-05-02T12:21:18Z</time></trkpt><trkpt lat="45.16768271814355" lon="5.667657417908014"><ele>618.0</ele><time>2026-05-02T12:21:19Z</time></trkpt><trkpt lat="45.16777706904211" lon="5.667644957297349"><ele>618.0</ele><time>2026-05-02T12:21:20Z</time></trkpt><trkpt lat="45.167871545518665" lon="5.667624074082468"><ele>618.0</ele><time>2026-05-02T12:21:21Z</time></trkpt><trkpt lat="45.16796641005521" lon="5.667592766515186"><ele>618.0</ele><time>2026-05-02T12:21:22Z</time></trkpt><trkpt lat="45.16804636949527" lon="5.667596379632542"><ele>618.0</ele><time>2026-05-02T12:21:23Z</time></trkpt><trkpt lat="45.16811956680904" lon="5.667604047025496"><ele>618.0</ele><time>2026-05-02T12:21:24Z</time></trkpt><trkpt lat="45.16818526928157" lon="5.667625181570935"><ele>618.0</ele><time>2026-05-02T12:21:25Z</time></trkpt><trkpt lat="45.16826043178492" lon="5.667653881601526"><ele>619.25</ele><time>2026-05-02T12:21:28Z</time></trkpt><trkpt lat="45.16840364759734" lon="5.667714186859095"><ele>620.5</ele><time>2026-05-02T12:21:30Z</time></trkpt><trkpt lat="45.16852153610939" lon="5.667759716236448"><ele>621.75</ele><time>2026-05-02T12:21:31Z</time></trkpt><trkpt lat="45.16865223164807" lon="5.667824589397963"><ele>623.0</ele><time>2026-05-02T12:21:32Z</time></trkpt><trkpt lat="45.168795718487715" lon="5.667846510727812"><ele>622.3333333333333</ele><time>2026-05-02T12:21:33Z</time></trkpt><trkpt lat="45.16896200179945" lon="5.667790003926178"><ele>621.6666666666666</ele><time>2026-05-02T12:21:34Z</time></trkpt><trkpt lat="45.16912992228712" lon="5.66765282669929"><ele>621.0</ele><time>2026-05-02T12:21:35Z</time></trkpt><trkpt lat="45.16929821724976" lon="5.667474287421217"><ele>621.0</ele><time>2026-05-02T12:21:36Z</time></trkpt><trkpt lat="45.16947316971101" lon="5.667309051408097"><ele>621.0</ele><time>2026-05-02T12:21:37Z</time></trkpt><trkpt lat="45.169631951624275" lon="5.667123624423913"><ele>621.0</ele><time>2026-05-02T12:21:38Z</time></trkpt><trkpt lat="45.16980243672035" lon="5.666991303551363"><ele>630.3333333333334</ele><time>2026-05-02T12:21:39Z</time></trkpt><trkpt lat="45.169981606346084" lon="5.666935869424522"><ele>639.6666666666667</ele><time>2026-05-02T12:21:40Z</time></trkpt><trkpt lat="45.17015023991988" lon="5.6669196899391245"><ele>649.0</ele><time>2026-05-02T12:21:41Z</time></trkpt><trkpt lat="45.1702982987455" lon="5.66690202464619"><ele>649.0</ele><time>2026-05-02T12:21:42Z</time></trkpt><trkpt lat="45.17041465505149" lon="5.666882433224173"><ele>649.0</ele><time>2026-05-02T12:21:43Z</time></trkpt><trkpt lat="45.17052224704911" lon="5.666841636696258"><ele>649.0</ele><time>2026-05-02T12:21:44Z</time></trkpt><trkpt lat="45.17066586658952" lon="5.666810034416867"><ele>649.0</ele><time>2026-05-02T12:21:45Z</time></trkpt><trkpt lat="45.17076174409946" lon="5.666830653153594"><ele>647.75</ele><time>2026-05-02T12:21:46Z</time></trkpt><trkpt lat="45.170860465783726" lon="5.666899379164569"><ele>646.5</ele><time>2026-05-02T12:21:46.999Z</time></trkpt><trkpt lat="45.170960881836656" lon="5.666959729736782"><ele>645.25</ele><time>2026-05-02T12:21:47.999Z</time></trkpt><trkpt lat="45.171086834306664" lon="5.6670134728364365"><ele>644.0</ele><time>2026-05-02T12:21:48.999Z</time></trkpt><trkpt lat="45.17119173280416" lon="5.667078734807836"><ele>643.8333333333333</ele><time>2026-05-02T12:21:49.999Z</time></trkpt><trkpt lat="45.171293956929475" lon="5.667125134657568"><ele>643.6666666666666</ele><time>2026-05-02T12:21:50.999Z</time></trkpt><trkpt lat="45.17138738360113" lon="5.6671562380969505"><ele>643.5</ele><time>2026-05-02T12:21:51.999Z</time></trkpt><trkpt lat="45.17147652317174" lon="5.667186080218335"><ele>643.3333333333334</ele><time>2026-05-02T12:21:52.999Z</time></trkpt><trkpt lat="45.17154771731502" lon="5.667172633614991"><ele>643.1666666666667</ele><time>2026-05-02T12:21:53.999Z</time></trkpt><trkpt lat="45.17160869822908" lon="5.66711082365982"><ele>643.0</ele><time>2026-05-02T12:21:54.999Z</time></trkpt><trkpt lat="45.17164973552269" lon="5.6669989957115785"><ele>642.25</ele><time>2026-05-02T12:21:55.999Z</time></trkpt><trkpt lat="45.17166754266375" lon="5.666855910497159"><ele>641.5</ele><time>2026-05-02T12:21:56.999Z</time></trkpt><trkpt lat="45.1716545705161" lon="5.666686999383478"><ele>640.75</ele><time>2026-05-02T12:21:57.999Z</time></trkpt><trkpt lat="45.171636032896146" lon="5.666511997601718"><ele>640.0</ele><time>2026-05-02T12:21:58.999Z</time></trkpt><trkpt lat="45.17161248849836" lon="5.666339533965312"><ele>640.0</ele><time>2026-05-02T12:21:59.999Z</time></trkpt><trkpt lat="45.171583816400464" lon="5.666169429984899"><ele>640.0</ele><time>2026-05-02T12:22:00.999Z</time></trkpt><trkpt lat="45.171559577032625" lon="5.66599535751472"><ele>640.0</ele><time>2026-05-02T12:22:01.999Z</time></trkpt><trkpt lat="45.171541254706966" lon="5.665823131509891"><ele>640.0</ele><time>2026-05-02T12:22:02.999Z</time></trkpt><trkpt lat="45.171554455405904" lon="5.66564924410313"><ele>641.5</ele><time>2026-05-02T12:22:03.999Z</time></trkpt><trkpt lat="45.171636885474655" lon="5.665494306181878"><ele>643.0</ele><time>2026-05-02T12:22:04.999Z</time></trkpt><trkpt lat="45.17170638800526" lon="5.6653297047432725"><ele>644.5</ele><time>2026-05-02T12:22:05.999Z</time></trkpt><trkpt lat="45.171778112296586" lon="5.665166438447394"><ele>646.0</ele><time>2026-05-02T12:22:06.999Z</time></trkpt><trkpt lat="45.17185719121013" lon="5.665014587504937"><ele>649.5</ele><time>2026-05-02T12:22:07.999Z</time></trkpt><trkpt lat="45.17194722748125" lon="5.664890680896631"><ele>653.0</ele><time>2026-05-02T12:22:08.999Z</time></trkpt><trkpt lat="45.17204755920119" lon="5.664754511890585"><ele>656.5</ele><time>2026-05-02T12:22:09.999Z</time></trkpt><trkpt lat="45.172144530843646" lon="5.664627383706213"><ele>660.0</ele><time>2026-05-02T12:22:10.999Z</time></trkpt><trkpt lat="45.17224950106473" lon="5.664503438645131"><ele>662.25</ele><time>2026-05-02T12:22:11.999Z</time></trkpt><trkpt lat="45.17237791113529" lon="5.664411699338732"><ele>664.5</ele><time>2026-05-02T12:22:12.999Z</time></trkpt><trkpt lat="45.17250869156549" lon="5.664331717420944"><ele>666.75</ele><time>2026-05-02T12:22:13.999Z</time></trkpt><trkpt lat="45.17264735602436" lon="5.664227140728634"><ele>669.0</ele><time>2026-05-02T12:22:14.999Z</time></trkpt><trkpt lat="45.17277999075627" lon="5.664123990116123"><ele>669.0</ele><time>2026-05-02T12:22:15.999Z</time></trkpt><trkpt lat="45.172899981369405" lon="5.663996631770787"><ele>669.0</ele><time>2026-05-02T12:22:16.999Z</time></trkpt><trkpt lat="45.173000477601335" lon="5.663839380924905"><ele>669.0</ele><time>2026-05-02T12:22:17.999Z</time></trkpt><trkpt lat="45.173104166871376" lon="5.663675209857937"><ele>668.3333333333334</ele><time>2026-05-02T12:22:18.999Z</time></trkpt><trkpt lat="45.17318060880788" lon="5.663494174072693"><ele>667.6666666666667</ele><time>2026-05-02T12:22:19.999Z</time></trkpt><trkpt lat="45.17323845735375" lon="5.663296026611479"><ele>667.0</ele><time>2026-05-02T12:22:20.999Z</time></trkpt><trkpt lat="45.17328520524734" lon="5.66309419848426"><ele>667.0</ele><time>2026-05-02T12:22:21.999Z</time></trkpt><trkpt lat="45.17331635747795" lon="5.6628823198350124"><ele>667.0</ele><time>2026-05-02T12:22:22.999Z</time></trkpt><trkpt lat="45.1733423138486" lon="5.662682470815475"><ele>667.0</ele><time>2026-05-02T12:22:23.999Z</time></trkpt><trkpt lat="45.17337864522363" lon="5.662497146250573"><ele>667.0</ele><time>2026-05-02T12:22:24.999Z</time></trkpt><trkpt lat="45.17344758007113" lon="5.662339620411212"><ele>670.2</ele><time>2026-05-02T12:22:25.999Z</time></trkpt><trkpt lat="45.17352189925371" lon="5.662198465092253"><ele>673.4000000000001</ele><time>2026-05-02T12:22:26.999Z</time></trkpt><trkpt lat="45.173595801291576" lon="5.662073152346665"><ele>676.5999999999999</ele><time>2026-05-02T12:22:27.999Z</time></trkpt><trkpt lat="45.17365367137756" lon="5.66196095737421"><ele>679.8</ele><time>2026-05-02T12:22:28.999Z</time></trkpt><trkpt lat="45.173702726733005" lon="5.661873593301508"><ele>683.0</ele><time>2026-05-02T12:22:30Z</time></trkpt><trkpt lat="45.17375147327795" lon="5.661753519604921"><ele>683.75</ele><time>2026-05-02T12:22:31Z</time></trkpt><trkpt lat="45.173775204242375" lon="5.66158356453637"><ele>684.5</ele><time>2026-05-02T12:22:32Z</time></trkpt><trkpt lat="45.173767004766404" lon="5.661392592213017"><ele>685.25</ele><time>2026-05-02T12:22:33Z</time></trkpt><trkpt lat="45.17377246496178" lon="5.661199998078094"><ele>686.0</ele><time>2026-05-02T12:22:34Z</time></trkpt><trkpt lat="45.17377616216643" lon="5.661000067240053"><ele>687.0</ele><time>2026-05-02T12:22:35Z</time></trkpt><trkpt lat="45.17377365412165" lon="5.660822839453241"><ele>688.0</ele><time>2026-05-02T12:22:36Z</time></trkpt><trkpt lat="45.173790188450816" lon="5.660639392182807"><ele>689.0</ele><time>2026-05-02T12:22:37Z</time></trkpt><trkpt lat="45.173836978312835" lon="5.660431708186479"><ele>690.0</ele><time>2026-05-02T12:22:38Z</time></trkpt><trkpt lat="45.17390792014218" lon="5.660244865328628"><ele>690.75</ele><time>2026-05-02T12:22:39Z</time></trkpt><trkpt lat="45.17397887917436" lon="5.660100277391881"><ele>691.5</ele><time>2026-05-02T12:22:40Z</time></trkpt><trkpt lat="45.174049887245474" lon="5.659972388102158"><ele>692.25</ele><time>2026-05-02T12:22:41Z</time></trkpt><trkpt lat="45.1741344424183" lon="5.659836947586191"><ele>693.0</ele><time>2026-05-02T12:22:42Z</time></trkpt><trkpt lat="45.17422783708026" lon="5.659700960273005"><ele>693.0</ele><time>2026-05-02T12:22:43Z</time></trkpt><trkpt lat="45.17431526008819" lon="5.659557002879399"><ele>693.0</ele><time>2026-05-02T12:22:44Z</time></trkpt><trkpt lat="45.174400748398874" lon="5.659392660514998"><ele>693.0</ele><time>2026-05-02T12:22:45Z</time></trkpt><trkpt lat="45.17448500711895" lon="5.659230177344826"><ele>693.0</ele><time>2026-05-02T12:22:46Z</time></trkpt><trkpt lat="45.174574887188115" lon="5.659071658598148"><ele>694.75</ele><time>2026-05-02T12:22:47Z</time></trkpt><trkpt lat="45.17466269284916" lon="5.658917327965471"><ele>696.5</ele><time>2026-05-02T12:22:48Z</time></trkpt><trkpt lat="45.17474360943096" lon="5.658766136949404"><ele>698.25</ele><time>2026-05-02T12:22:49Z</time></trkpt><trkpt lat="45.17483148976204" lon="5.658615340942198"><ele>700.0</ele><time>2026-05-02T12:22:50Z</time></trkpt><trkpt lat="45.17491512866852" lon="5.6584675442281025"><ele>700.0</ele><time>2026-05-02T12:22:51Z</time></trkpt><trkpt lat="45.175000845491795" lon="5.658312327960574"><ele>700.0</ele><time>2026-05-02T12:22:52Z</time></trkpt><trkpt lat="45.175085008964196" lon="5.658163106114224"><ele>700.0</ele><time>2026-05-02T12:22:53Z</time></trkpt><trkpt lat="45.17515709282642" lon="5.658012762803328"><ele>700.0</ele><time>2026-05-02T12:22:54Z</time></trkpt><trkpt lat="45.175217478429666" lon="5.657853138568052"><ele>702.0</ele><time>2026-05-02T12:22:55Z</time></trkpt><trkpt lat="45.175270249866635" lon="5.657687731092752"><ele>704.0</ele><time>2026-05-02T12:22:56Z</time></trkpt><trkpt lat="45.175327172020076" lon="5.657505282962055"><ele>706.0</ele><time>2026-05-02T12:22:57Z</time></trkpt><trkpt lat="45.17538775881508" lon="5.657329416806193"><ele>708.0</ele><time>2026-05-02T12:22:58Z</time></trkpt><trkpt lat="45.17544844731767" lon="5.65714774630281"><ele>708.0</ele><time>2026-05-02T12:22:59Z</time></trkpt><trkpt lat="45.17558414225351" lon="5.657010864979303"><ele>708.0</ele><time>2026-05-02T12:23:00Z</time></trkpt><trkpt lat="45.175658366724655" lon="5.65683090889895"><ele>708.0</ele><time>2026-05-02T12:23:01Z</time></trkpt><trkpt lat="45.175733236243495" lon="5.656665502746772"><ele>707.3333333333334</ele><time>2026-05-02T12:23:02Z</time></trkpt><trkpt lat="45.17573499710904" lon="5.6564183372140135"><ele>706.6666666666667</ele><time>2026-05-02T12:23:03Z</time></trkpt><trkpt lat="45.17581117943808" lon="5.656211146707126"><ele>706.0</ele><time>2026-05-02T12:23:04Z</time></trkpt><trkpt lat="45.175886576334406" lon="5.656010874967474"><ele>709.0</ele><time>2026-05-02T12:23:05Z</time></trkpt><trkpt lat="45.17596429634629" lon="5.655813473383313"><ele>712.0</ele><time>2026-05-02T12:23:06Z</time></trkpt><trkpt lat="45.176039496594946" lon="5.655616184250986"><ele>715.0</ele><time>2026-05-02T12:23:07Z</time></trkpt><trkpt lat="45.17609636755609" lon="5.655418064930834"><ele>718.25</ele><time>2026-05-02T12:23:08Z</time></trkpt><trkpt lat="45.17612627262557" lon="5.655214547490101"><ele>721.5</ele><time>2026-05-02T12:23:09Z</time></trkpt><trkpt lat="45.1761169792523" lon="5.655012637856712"><ele>724.75</ele><time>2026-05-02T12:23:10Z</time></trkpt><trkpt lat="45.176088138003855" lon="5.654823529494365"><ele>728.0</ele><time>2026-05-02T12:23:11Z</time></trkpt><trkpt lat="45.1760176074008" lon="5.654659135655501"><ele>728.0</ele><time>2026-05-02T12:23:12Z</time></trkpt><trkpt lat="45.175926106802095" lon="5.654530693546582"><ele>728.0</ele><time>2026-05-02T12:23:13Z</time></trkpt><trkpt lat="45.17585632788169" lon="5.654403279864633"><ele>728.0</ele><time>2026-05-02T12:23:14Z</time></trkpt><trkpt lat="45.17580632915559" lon="5.654288816289472"><ele>728.0</ele><time>2026-05-02T12:23:15Z</time></trkpt><trkpt lat="45.17578178700683" lon="5.654174657878979"><ele>728.0</ele><time>2026-05-02T12:23:16Z</time></trkpt><trkpt lat="45.17579223577311" lon="5.654056543915954"><ele>729.75</ele><time>2026-05-02T12:23:17Z</time></trkpt><trkpt lat="45.175843512836096" lon="5.653939623893469"><ele>731.5</ele><time>2026-05-02T12:23:18Z</time></trkpt><trkpt lat="45.17592895876908" lon="5.653850127446151"><ele>733.25</ele><time>2026-05-02T12:23:19Z</time></trkpt><trkpt lat="45.17605523488811" lon="5.653801023973676"><ele>735.0</ele><time>2026-05-02T12:23:20Z</time></trkpt><trkpt lat="45.17621206570471" lon="5.6538372753805035"><ele>735.0</ele><time>2026-05-02T12:23:21Z</time></trkpt><trkpt lat="45.17638860673995" lon="5.653904358288959"><ele>735.0</ele><time>2026-05-02T12:23:22Z</time></trkpt><trkpt lat="45.17655612765985" lon="5.653948337772248"><ele>735.0</ele><time>2026-05-02T12:23:23Z</time></trkpt><trkpt lat="45.17672150749936" lon="5.653959695220959"><ele>735.6666666666666</ele><time>2026-05-02T12:23:24Z</time></trkpt><trkpt lat="45.176920144929746" lon="5.65390933624976"><ele>736.3333333333333</ele><time>2026-05-02T12:23:25Z</time></trkpt><trkpt lat="45.17715676527953" lon="5.653828681671019"><ele>737.0</ele><time>2026-05-02T12:23:26Z</time></trkpt><trkpt lat="45.17741631155417" lon="5.6537515863294106"><ele>739.0</ele><time>2026-05-02T12:23:27Z</time></trkpt><trkpt lat="45.17769192992434" lon="5.65368323489389"><ele>741.0</ele><time>2026-05-02T12:23:28Z</time></trkpt><trkpt lat="45.17796715954684" lon="5.653611114724941"><ele>752.5</ele><time>2026-05-02T12:23:29Z</time></trkpt><trkpt lat="45.17825863803872" lon="5.653543724890472"><ele>764.0</ele><time>2026-05-02T12:23:30Z</time></trkpt><trkpt lat="45.17851821451464" lon="5.653473180091822"><ele>764.0</ele><time>2026-05-02T12:23:31Z</time></trkpt><trkpt lat="45.178745605364554" lon="5.65342354862473"><ele>764.0</ele><time>2026-05-02T12:23:32Z</time></trkpt><trkpt lat="45.17894602753326" lon="5.6534011250045175"><ele>764.0</ele><time>2026-05-02T12:23:33Z</time></trkpt><trkpt lat="45.17912670386953" lon="5.6533958363114944"><ele>764.0</ele><time>2026-05-02T12:23:34Z</time></trkpt><trkpt lat="45.179282705771186" lon="5.653410262250234"><ele>764.0</ele><time>2026-05-02T12:23:35Z</time></trkpt><trkpt lat="45.179402000558646" lon="5.653417008928425"><ele>764.0</ele><time>2026-05-02T12:23:36Z</time></trkpt><trkpt lat="45.179515063118664" lon="5.653364572169697"><ele>764.0</ele><time>2026-05-02T12:23:37Z</time></trkpt><trkpt lat="45.1795846464706" lon="5.653213744559176"><ele>764.0</ele><time>2026-05-02T12:23:38Z</time></trkpt><trkpt lat="45.17960349441653" lon="5.65302315270249"><ele>764.0</ele><time>2026-05-02T12:23:39Z</time></trkpt><trkpt lat="45.17954163854021" lon="5.652827929708502"><ele>764.0</ele><time>2026-05-02T12:23:40Z</time></trkpt><trkpt lat="45.17942020837282" lon="5.652701553133753"><ele>764.0</ele><time>2026-05-02T12:23:41Z</time></trkpt><trkpt lat="45.1792663209493" lon="5.652653281471854"><ele>770.3333333333333</ele><time>2026-05-02T12:23:42Z</time></trkpt><trkpt lat="45.17908406590109" lon="5.652719097659105"><ele>776.6666666666666</ele><time>2026-05-02T12:23:43Z</time></trkpt><trkpt lat="45.17888944067498" lon="5.6527890825395115"><ele>783.0</ele><time>2026-05-02T12:23:44Z</time></trkpt><trkpt lat="45.178678689986604" lon="5.6527171060965795"><ele>783.0</ele><time>2026-05-02T12:23:45Z</time></trkpt><trkpt lat="45.17844297819176" lon="5.652606846780067"><ele>783.0</ele><time>2026-05-02T12:23:46Z</time></trkpt><trkpt lat="45.17821024584187" lon="5.652499051845027"><ele>781.6666666666667</ele><time>2026-05-02T12:23:47Z</time></trkpt><trkpt lat="45.17799529331868" lon="5.6523937048722175"><ele>780.3333333333334</ele><time>2026-05-02T12:23:47.999Z</time></trkpt><trkpt lat="45.177811612394656" lon="5.652223459111131"><ele>779.0</ele><time>2026-05-02T12:23:48.999Z</time></trkpt><trkpt lat="45.177664419837974" lon="5.651995026121418"><ele>784.5</ele><time>2026-05-02T12:23:49.999Z</time></trkpt><trkpt lat="45.17748718466686" lon="5.65173016680816"><ele>790.0</ele><time>2026-05-02T12:23:50.999Z</time></trkpt><trkpt lat="45.17727334604672" lon="5.651511603330523"><ele>790.0</ele><time>2026-05-02T12:23:51.999Z</time></trkpt><trkpt lat="45.17702801021518" lon="5.651334072298085"><ele>790.0</ele><time>2026-05-02T12:23:52.999Z</time></trkpt><trkpt lat="45.17677566472396" lon="5.65121809449795"><ele>800.0</ele><time>2026-05-02T12:23:53.999Z</time></trkpt><trkpt lat="45.17652256529274" lon="5.651075961023613"><ele>810.0</ele><time>2026-05-02T12:23:54.999Z</time></trkpt><trkpt lat="45.17626820375713" lon="5.650938018476657"><ele>810.0</ele><time>2026-05-02T12:23:55.999Z</time></trkpt><trkpt lat="45.17600082893381" lon="5.650792507142753"><ele>810.0</ele><time>2026-05-02T12:23:56.999Z</time></trkpt><trkpt lat="45.175735335732696" lon="5.650660476954727"><ele>812.0</ele><time>2026-05-02T12:23:57.999Z</time></trkpt><trkpt lat="45.17548536731645" lon="5.650523363500892"><ele>814.0</ele><time>2026-05-02T12:23:58.999Z</time></trkpt><trkpt lat="45.175274707008484" lon="5.6504439519596525"><ele>814.0</ele><time>2026-05-02T12:23:59.999Z</time></trkpt><trkpt lat="45.175059250499416" lon="5.650452450795706"><ele>814.0</ele><time>2026-05-02T12:24:00.999Z</time></trkpt><trkpt lat="45.17484457614303" lon="5.650507664017028"><ele>814.0</ele><time>2026-05-02T12:24:01.999Z</time></trkpt><trkpt lat="45.17465459071" lon="5.650413721700683"><ele>821.0</ele><time>2026-05-02T12:24:02.999Z</time></trkpt><trkpt lat="45.17449866707072" lon="5.650247136373793"><ele>828.0</ele><time>2026-05-02T12:24:03.999Z</time></trkpt><trkpt lat="45.17432425372608" lon="5.650036632662332"><ele>835.0</ele><time>2026-05-02T12:24:04.999Z</time></trkpt><trkpt lat="45.17415349335243" lon="5.649821113617064"><ele>836.0</ele><time>2026-05-02T12:24:05.999Z</time></trkpt><trkpt lat="45.17399983235569" lon="5.64962717620798"><ele>837.0</ele><time>2026-05-02T12:24:06.999Z</time></trkpt><trkpt lat="45.173685669758264" lon="5.649735727618006"><ele>837.0</ele><time>2026-05-02T12:24:07.999Z</time></trkpt><trkpt lat="45.1734360895917" lon="5.649793484579314"><ele>837.0</ele><time>2026-05-02T12:24:08.999Z</time></trkpt><trkpt lat="45.173163978345876" lon="5.649826313820223"><ele>841.3333333333333</ele><time>2026-05-02T12:24:09.999Z</time></trkpt><trkpt lat="45.17292991798576" lon="5.649842205495746"><ele>845.6666666666666</ele><time>2026-05-02T12:24:10.999Z</time></trkpt><trkpt lat="45.172736237077515" lon="5.649855958092467"><ele>850.0</ele><time>2026-05-02T12:24:11.999Z</time></trkpt><trkpt lat="45.17256541503341" lon="5.649900700504799"><ele>850.0</ele><time>2026-05-02T12:24:12.999Z</time></trkpt><trkpt lat="45.17241878491317" lon="5.6500236446554"><ele>850.0</ele><time>2026-05-02T12:24:13.999Z</time></trkpt><trkpt lat="45.17231459440191" lon="5.650240650305303"><ele>850.0</ele><time>2026-05-02T12:24:14.999Z</time></trkpt><trkpt lat="45.172233529245155" lon="5.650497425416671"><ele>848.0</ele><time>2026-05-02T12:24:15.999Z</time></trkpt><trkpt lat="45.172097327627846" lon="5.650671756942472"><ele>846.0</ele><time>2026-05-02T12:24:16.999Z</time></trkpt><trkpt lat="45.171887178095666" lon="5.650722210350518"><ele>844.0</ele><time>2026-05-02T12:24:17.999Z</time></trkpt><trkpt lat="45.171724398063276" lon="5.650754334135761"><ele>844.0</ele><time>2026-05-02T12:24:18.999Z</time></trkpt><trkpt lat="45.17153022984269" lon="5.650654738273587"><ele>844.0</ele><time>2026-05-02T12:24:19.999Z</time></trkpt><trkpt lat="45.17136338031098" lon="5.650452638264622"><ele>844.0</ele><time>2026-05-02T12:24:20.999Z</time></trkpt><trkpt lat="45.17118511901063" lon="5.65023310310869"><ele>851.3333333333333</ele><time>2026-05-02T12:24:21.999Z</time></trkpt><trkpt lat="45.17102612115592" lon="5.65005995898222"><ele>858.6666666666667</ele><time>2026-05-02T12:24:22.999Z</time></trkpt><trkpt lat="45.17087605214981" lon="5.649942066388698"><ele>866.0</ele><time>2026-05-02T12:24:23.999Z</time></trkpt><trkpt lat="45.170704194431536" lon="5.64989521130926"><ele>868.3333333333334</ele><time>2026-05-02T12:24:24.999Z</time></trkpt><trkpt lat="45.170526977570695" lon="5.649939848005833"><ele>870.6666666666667</ele><time>2026-05-02T12:24:25.999Z</time></trkpt><trkpt lat="45.17038150030621" lon="5.650062313391836"><ele>873.0</ele><time>2026-05-02T12:24:26.999Z</time></trkpt><trkpt lat="45.17026431981289" lon="5.650250630910434"><ele>870.3333333333333</ele><time>2026-05-02T12:24:27.999Z</time></trkpt><trkpt lat="45.170189510260386" lon="5.650478303087352"><ele>867.6666666666666</ele><time>2026-05-02T12:24:28.999Z</time></trkpt><trkpt lat="45.1701948931061" lon="5.650717596496246"><ele>865.0</ele><time>2026-05-02T12:24:29.999Z</time></trkpt><trkpt lat="45.17017841911674" lon="5.650897006116551"><ele>865.0</ele><time>2026-05-02T12:24:30.999Z</time></trkpt><trkpt lat="45.17011373588441" lon="5.651016308373529"><ele>865.0</ele><time>2026-05-02T12:24:31.999Z</time></trkpt><trkpt lat="45.17001864118634" lon="5.651044297151603"><ele>865.0</ele><time>2026-05-02T12:24:32.999Z</time></trkpt><trkpt lat="45.16992647492866" lon="5.650962520091953"><ele>865.0</ele><time>2026-05-02T12:24:33.999Z</time></trkpt><trkpt lat="45.169881262188106" lon="5.650790199342278"><ele>865.0</ele><time>2026-05-02T12:24:34.999Z</time></trkpt><trkpt lat="45.169891793503865" lon="5.65055592964845"><ele>865.0</ele><time>2026-05-02T12:24:36Z</time></trkpt><trkpt lat="45.169953350070706" lon="5.650302389001237"><ele>865.0</ele><time>2026-05-02T12:24:37Z</time></trkpt><trkpt lat="45.17004219796495" lon="5.650066686636011"><ele>865.0</ele><time>2026-05-02T12:24:38Z</time></trkpt><trkpt lat="45.17015523734653" lon="5.649849280818698"><ele>865.3333333333333</ele><time>2026-05-02T12:24:39Z</time></trkpt><trkpt lat="45.1703192051985" lon="5.649661386772727"><ele>865.6666666666667</ele><time>2026-05-02T12:24:40Z</time></trkpt><trkpt lat="45.170521818530425" lon="5.649543717007918"><ele>866.0</ele><time>2026-05-02T12:24:41Z</time></trkpt><trkpt lat="45.170791807306834" lon="5.649507507919975"><ele>866.0</ele><time>2026-05-02T12:24:42Z</time></trkpt><trkpt lat="45.17094760674296" lon="5.649504607641608"><ele>866.0</ele><time>2026-05-02T12:24:43Z</time></trkpt><trkpt lat="45.17108669687763" lon="5.649540885334801"><ele>866.0</ele><time>2026-05-02T12:24:44Z</time></trkpt><trkpt lat="45.17120434945722" lon="5.649580601962465"><ele>866.0</ele><time>2026-05-02T12:24:45Z</time></trkpt><trkpt lat="45.17131271552488" lon="5.64956650589521"><ele>866.0</ele><time>2026-05-02T12:24:46Z</time></trkpt><trkpt lat="45.171388365984846" lon="5.649469559202248"><ele>865.9999999999999</ele><time>2026-05-02T12:24:47Z</time></trkpt><trkpt lat="45.17141867710037" lon="5.64931093222099"><ele>865.9999999999999</ele><time>2026-05-02T12:24:48Z</time></trkpt><trkpt lat="45.17142128194494" lon="5.649152945807893"><ele>866.0</ele><time>2026-05-02T12:24:49Z</time></trkpt><trkpt lat="45.171414762833024" lon="5.649004857858839"><ele>866.0</ele><time>2026-05-02T12:24:50Z</time></trkpt><trkpt lat="45.17142226895064" lon="5.648874921902714"><ele>872.25</ele><time>2026-05-02T12:24:51Z</time></trkpt><trkpt lat="45.17146174869234" lon="5.648735391142313"><ele>878.5</ele><time>2026-05-02T12:24:52Z</time></trkpt><trkpt lat="45.171547741527874" lon="5.648620233803108"><ele>884.75</ele><time>2026-05-02T12:24:53Z</time></trkpt><trkpt lat="45.17168055873211" lon="5.648557460776275"><ele>891.0</ele><time>2026-05-02T12:24:54Z</time></trkpt><trkpt lat="45.171811208305506" lon="5.648531143467417"><ele>893.25</ele><time>2026-05-02T12:24:55Z</time></trkpt><trkpt lat="45.17193763264163" lon="5.648535958318211"><ele>895.5</ele><time>2026-05-02T12:24:56Z</time></trkpt><trkpt lat="45.17207152843403" lon="5.648554025958189"><ele>897.75</ele><time>2026-05-02T12:24:57Z</time></trkpt><trkpt lat="45.172252539716126" lon="5.648597591078131"><ele>900.0</ele><time>2026-05-02T12:24:58Z</time></trkpt><trkpt lat="45.17243739819097" lon="5.648596769690388"><ele>900.0</ele><time>2026-05-02T12:24:59Z</time></trkpt><trkpt lat="45.17266217460056" lon="5.648526895825938"><ele>900.0</ele><time>2026-05-02T12:25:00Z</time></trkpt><trkpt lat="45.17291577835131" lon="5.6484562213446825"><ele>901.0</ele><time>2026-05-02T12:25:01Z</time></trkpt><trkpt lat="45.17320353782943" lon="5.648384556322379"><ele>902.0</ele><time>2026-05-02T12:25:02Z</time></trkpt><trkpt lat="45.17350176452739" lon="5.64832299731714"><ele>902.0</ele><time>2026-05-02T12:25:03Z</time></trkpt><trkpt lat="45.173809392545834" lon="5.648257105157947"><ele>902.0</ele><time>2026-05-02T12:25:04Z</time></trkpt><trkpt lat="45.174100106942326" lon="5.64819568410195"><ele>900.0</ele><time>2026-05-02T12:25:05Z</time></trkpt><trkpt lat="45.17435053292" lon="5.648155268469175"><ele>898.0</ele><time>2026-05-02T12:25:06Z</time></trkpt><trkpt lat="45.174606271162084" lon="5.648135070121951"><ele>898.0</ele><time>2026-05-02T12:25:07Z</time></trkpt><trkpt lat="45.17482839192361" lon="5.648024827176999"><ele>898.0</ele><time>2026-05-02T12:25:08Z</time></trkpt><trkpt lat="45.1750497538086" lon="5.647926838834188"><ele>898.0</ele><time>2026-05-02T12:25:09Z</time></trkpt><trkpt lat="45.17527355472346" lon="5.6478437002859865"><ele>898.0</ele><time>2026-05-02T12:25:10Z</time></trkpt><trkpt lat="45.17549785420968" lon="5.647863366550828"><ele>902.0</ele><time>2026-05-02T12:25:11Z</time></trkpt><trkpt lat="45.17570807398624" lon="5.647938865254839"><ele>906.0</ele><time>2026-05-02T12:25:12Z</time></trkpt><trkpt lat="45.17593846526609" lon="5.648063640337196"><ele>906.0</ele><time>2026-05-02T12:25:13Z</time></trkpt><trkpt lat="45.176161158815276" lon="5.648163204205081"><ele>906.0</ele><time>2026-05-02T12:25:14Z</time></trkpt><trkpt lat="45.176397170502035" lon="5.6482039055526245"><ele>912.5</ele><time>2026-05-02T12:25:15Z</time></trkpt><trkpt lat="45.17663560372793" lon="5.648182142535489"><ele>919.0</ele><time>2026-05-02T12:25:16Z</time></trkpt><trkpt lat="45.17689649872376" lon="5.64814603996848"><ele>919.0</ele><time>2026-05-02T12:25:17Z</time></trkpt><trkpt lat="45.17715811448846" lon="5.648138735896"><ele>919.0</ele><time>2026-05-02T12:25:18Z</time></trkpt><trkpt lat="45.177429496682734" lon="5.648134138944632"><ele>922.5</ele><time>2026-05-02T12:25:19Z</time></trkpt><trkpt lat="45.17770547085103" lon="5.648129600881857"><ele>926.0</ele><time>2026-05-02T12:25:20Z</time></trkpt><trkpt lat="45.17800140912286" lon="5.648120179201965"><ele>925.0</ele><time>2026-05-02T12:25:21Z</time></trkpt><trkpt lat="45.17830351708082" lon="5.648117636940557"><ele>924.0</ele><time>2026-05-02T12:25:22Z</time></trkpt><trkpt lat="45.17862354193461" lon="5.648121973073572"><ele>924.0</ele><time>2026-05-02T12:25:23Z</time></trkpt><trkpt lat="45.17896111424126" lon="5.648124586433727"><ele>924.0</ele><time>2026-05-02T12:25:24Z</time></trkpt><trkpt lat="45.17927072040733" lon="5.648084933526699"><ele>926.5</ele><time>2026-05-02T12:25:25Z</time></trkpt><trkpt lat="45.17957145464228" lon="5.648047582954129"><ele>929.0</ele><time>2026-05-02T12:25:26Z</time></trkpt><trkpt lat="45.179863894869435" lon="5.64803534160275"><ele>933.0</ele><time>2026-05-02T12:25:27Z</time></trkpt><trkpt lat="45.180153512417334" lon="5.6481143981510105"><ele>937.0</ele><time>2026-05-02T12:25:28Z</time></trkpt><trkpt lat="45.18044659271064" lon="5.64815823599914"><ele>942.5</ele><time>2026-05-02T12:25:29Z</time></trkpt><trkpt lat="45.18072379794665" lon="5.648216849685715"><ele>948.0</ele><time>2026-05-02T12:25:30Z</time></trkpt><trkpt lat="45.18099297922356" lon="5.648260756584966"><ele>948.0</ele><time>2026-05-02T12:25:31Z</time></trkpt><trkpt lat="45.18124978233696" lon="5.648297690369331"><ele>948.0</ele><time>2026-05-02T12:25:32Z</time></trkpt><trkpt lat="45.181495493164995" lon="5.648302586267124"><ele>952.6666666666667</ele><time>2026-05-02T12:25:33Z</time></trkpt><trkpt lat="45.18172629873088" lon="5.648273881251824"><ele>957.3333333333334</ele><time>2026-05-02T12:25:34Z</time></trkpt><trkpt lat="45.18192245721951" lon="5.648237848804651"><ele>962.0</ele><time>2026-05-02T12:25:35Z</time></trkpt><trkpt lat="45.18210772327815" lon="5.648212167763097"><ele>962.0</ele><time>2026-05-02T12:25:36Z</time></trkpt><trkpt lat="45.18228993688003" lon="5.648198260509092"><ele>962.0</ele><time>2026-05-02T12:25:37Z</time></trkpt><trkpt lat="45.182458498310595" lon="5.648197810827458"><ele>962.0</ele><time>2026-05-02T12:25:38Z</time></trkpt><trkpt lat="45.18262210422186" lon="5.648205766659588"><ele>963.4000000000001</ele><time>2026-05-02T12:25:39Z</time></trkpt><trkpt lat="45.182753120117674" lon="5.648227831870106"><ele>964.8000000000001</ele><time>2026-05-02T12:25:40Z</time></trkpt><trkpt lat="45.1828563015867" lon="5.648254363225924"><ele>966.2</ele><time>2026-05-02T12:25:40.999Z</time></trkpt><trkpt lat="45.182948095302784" lon="5.648295951981381"><ele>967.6</ele><time>2026-05-02T12:25:41.999Z</time></trkpt><trkpt lat="45.18304375184708" lon="5.648308744973819"><ele>969.0</ele><time>2026-05-02T12:25:42.999Z</time></trkpt><trkpt lat="45.18312261966058" lon="5.648254632926413"><ele>969.0</ele><time>2026-05-02T12:25:43.999Z</time></trkpt><trkpt lat="45.18316258932359" lon="5.648153295666738"><ele>969.0</ele><time>2026-05-02T12:25:44.999Z</time></trkpt><trkpt lat="45.18312951004876" lon="5.64798315783754"><ele>969.0</ele><time>2026-05-02T12:25:45.999Z</time></trkpt><trkpt lat="45.18300806495966" lon="5.647910233498372"><ele>969.0</ele><time>2026-05-02T12:25:46.999Z</time></trkpt><trkpt lat="45.18285909674446" lon="5.647911888556002"><ele>969.0</ele><time>2026-05-02T12:25:47.999Z</time></trkpt><trkpt lat="45.18267806979671" lon="5.647966214115415"><ele>969.0</ele><time>2026-05-02T12:25:48.999Z</time></trkpt><trkpt lat="45.18247404267774" lon="5.647946320993378"><ele>969.0</ele><time>2026-05-02T12:25:49.999Z</time></trkpt><trkpt lat="45.182241902292404" lon="5.647884649706895"><ele>965.5</ele><time>2026-05-02T12:25:50.999Z</time></trkpt><trkpt lat="45.18198123153224" lon="5.647811403097186"><ele>962.0</ele><time>2026-05-02T12:25:51.999Z</time></trkpt><trkpt lat="45.181709209092055" lon="5.647728501094076"><ele>976.0</ele><time>2026-05-02T12:25:52.999Z</time></trkpt><trkpt lat="45.18143106737384" lon="5.647606767454166"><ele>990.0</ele><time>2026-05-02T12:25:53.999Z</time></trkpt><trkpt lat="45.1811403773682" lon="5.647458813603783"><ele>990.0</ele><time>2026-05-02T12:25:54.999Z</time></trkpt><trkpt lat="45.180852772762115" lon="5.647318610734889"><ele>990.0</ele><time>2026-05-02T12:25:55.999Z</time></trkpt><trkpt lat="45.18059259742531" lon="5.647190308008529"><ele>984.5</ele><time>2026-05-02T12:25:56.999Z</time></trkpt><trkpt lat="45.1803491512266" lon="5.647069130234875"><ele>979.0</ele><time>2026-05-02T12:25:57.999Z</time></trkpt><trkpt lat="45.18012357537579" lon="5.646956847628613"><ele>990.0</ele><time>2026-05-02T12:25:58.999Z</time></trkpt><trkpt lat="45.17990272458648" lon="5.646846128172559"><ele>1001.0</ele><time>2026-05-02T12:25:59.999Z</time></trkpt><trkpt lat="45.179665818839325" lon="5.6467273082192"><ele>1001.0</ele><time>2026-05-02T12:26:00.999Z</time></trkpt><trkpt lat="45.17941561189001" lon="5.646600115742913"><ele>1001.0</ele><time>2026-05-02T12:26:01.999Z</time></trkpt><trkpt lat="45.17917695462778" lon="5.646473196899498"><ele>997.5</ele><time>2026-05-02T12:26:02.999Z</time></trkpt><trkpt lat="45.17893367326074" lon="5.646328554527615"><ele>994.0</ele><time>2026-05-02T12:26:03.999Z</time></trkpt><trkpt lat="45.17870268287542" lon="5.646159648391453"><ele>1002.5</ele><time>2026-05-02T12:26:04.999Z</time></trkpt><trkpt lat="45.178479084459624" lon="5.645982882357084"><ele>1011.0</ele><time>2026-05-02T12:26:05.999Z</time></trkpt><trkpt lat="45.17826710094739" lon="5.645814033288614"><ele>1010.0</ele><time>2026-05-02T12:26:06.999Z</time></trkpt><trkpt lat="45.17808505192644" lon="5.645659579693299"><ele>1009.0</ele><time>2026-05-02T12:26:07.999Z</time></trkpt><trkpt lat="45.17793319072767" lon="5.645486693564278"><ele>1008.0</ele><time>2026-05-02T12:26:08.999Z</time></trkpt><trkpt lat="45.177825512689964" lon="5.645266666567555"><ele>1012.6666666666667</ele><time>2026-05-02T12:26:09.999Z</time></trkpt><trkpt lat="45.1777003166045" lon="5.645015565995568"><ele>1017.3333333333334</ele><time>2026-05-02T12:26:10.999Z</time></trkpt><trkpt lat="45.17755322006503" lon="5.644789112904219"><ele>1022.0</ele><time>2026-05-02T12:26:11.999Z</time></trkpt><trkpt lat="45.1774175805663" lon="5.644582917594393"><ele>1024.0</ele><time>2026-05-02T12:26:12.999Z</time></trkpt><trkpt lat="45.177269049460804" lon="5.644428369141349"><ele>1026.0</ele><time>2026-05-02T12:26:13.999Z</time></trkpt><trkpt lat="45.17709997269134" lon="5.644290535004658"><ele>1028.0</ele><time>2026-05-02T12:26:14.999Z</time></trkpt><trkpt lat="45.17690065759605" lon="5.64419211387668"><ele>1028.0</ele><time>2026-05-02T12:26:15.999Z</time></trkpt><trkpt lat="45.1767090293589" lon="5.644091908723874"><ele>1028.0</ele><time>2026-05-02T12:26:16.999Z</time></trkpt><trkpt lat="45.17650858373645" lon="5.644000011243048"><ele>1028.0</ele><time>2026-05-02T12:26:17.999Z</time></trkpt><trkpt lat="45.17631344036656" lon="5.643872858678912"><ele>1026.3333333333335</ele><time>2026-05-02T12:26:18.999Z</time></trkpt><trkpt lat="45.176118847172795" lon="5.643769422389149"><ele>1024.6666666666667</ele><time>2026-05-02T12:26:19.999Z</time></trkpt><trkpt lat="45.17592279744926" lon="5.643662201846619"><ele>1023.0</ele><time>2026-05-02T12:26:20.999Z</time></trkpt><trkpt lat="45.1757332272938" lon="5.643565346323143"><ele>1029.0</ele><time>2026-05-02T12:26:21.999Z</time></trkpt><trkpt lat="45.17554593182539" lon="5.64349554387488"><ele>1035.0</ele><time>2026-05-02T12:26:22.999Z</time></trkpt><trkpt lat="45.17537992674351" lon="5.643444759523078"><ele>1041.0</ele><time>2026-05-02T12:26:23.999Z</time></trkpt><trkpt lat="45.175229913844504" lon="5.643432516996986"><ele>1041.0</ele><time>2026-05-02T12:26:24.999Z</time></trkpt><trkpt lat="45.17508821678179" lon="5.643462807070099"><ele>1041.0</ele><time>2026-05-02T12:26:25.999Z</time></trkpt><trkpt lat="45.17496916714639" lon="5.643504326319375"><ele>1041.0</ele><time>2026-05-02T12:26:26.999Z</time></trkpt><trkpt lat="45.1748611582392" lon="5.643512565067411"><ele>1041.0</ele><time>2026-05-02T12:26:27.999Z</time></trkpt><trkpt lat="45.174757098452005" lon="5.643483775632611"><ele>1040.0</ele><time>2026-05-02T12:26:28.999Z</time></trkpt><trkpt lat="45.17465325260725" lon="5.643411189126813"><ele>1039.0</ele><time>2026-05-02T12:26:29.999Z</time></trkpt><trkpt lat="45.17455797447031" lon="5.643303606143965"><ele>1038.0</ele><time>2026-05-02T12:26:30.999Z</time></trkpt><trkpt lat="45.17450773621708" lon="5.64313878315521"><ele>1037.0</ele><time>2026-05-02T12:26:31.999Z</time></trkpt><trkpt lat="45.174470838105954" lon="5.6429585363397265"><ele>1039.6666666666667</ele><time>2026-05-02T12:26:32.999Z</time></trkpt><trkpt lat="45.17445098380802" lon="5.642758959195284"><ele>1042.3333333333333</ele><time>2026-05-02T12:26:33.999Z</time></trkpt><trkpt lat="45.17444990643777" lon="5.642547790829861"><ele>1045.0</ele><time>2026-05-02T12:26:34.999Z</time></trkpt><trkpt lat="45.17446124040302" lon="5.642318613225887"><ele>1045.0</ele><time>2026-05-02T12:26:35.999Z</time></trkpt><trkpt lat="45.174482442389454" lon="5.642042539304571"><ele>1045.0</ele><time>2026-05-02T12:26:36.999Z</time></trkpt><trkpt lat="45.174512393787985" lon="5.6417222538235166"><ele>1045.0</ele><time>2026-05-02T12:26:37.999Z</time></trkpt><trkpt lat="45.17454554831625" lon="5.641387443835555"><ele>1047.5</ele><time>2026-05-02T12:26:38.999Z</time></trkpt><trkpt lat="45.17457397853035" lon="5.64105308846507"><ele>1050.0</ele><time>2026-05-02T12:26:39.999Z</time></trkpt><trkpt lat="45.174588733287436" lon="5.640726809217158"><ele>1050.0</ele><time>2026-05-02T12:26:40.999Z</time></trkpt><trkpt lat="45.174610077530225" lon="5.6404097047713355"><ele>1050.0</ele><time>2026-05-02T12:26:42Z</time></trkpt><trkpt lat="45.174678350801706" lon="5.640134296626067"><ele>1050.0</ele><time>2026-05-02T12:26:43Z</time></trkpt><trkpt lat="45.174552301109046" lon="5.639892827431735"><ele>1051.3333333333333</ele><time>2026-05-02T12:26:44Z</time></trkpt><trkpt lat="45.17443637415649" lon="5.639667269786315"><ele>1052.6666666666665</ele><time>2026-05-02T12:26:45Z</time></trkpt><trkpt lat="45.174266022818934" lon="5.639492980043416"><ele>1054.0</ele><time>2026-05-02T12:26:46Z</time></trkpt><trkpt lat="45.174063681704254" lon="5.6393887366162625"><ele>1061.5</ele><time>2026-05-02T12:26:47Z</time></trkpt><trkpt lat="45.17384276957532" lon="5.639351007588049"><ele>1069.0</ele><time>2026-05-02T12:26:48Z</time></trkpt><trkpt lat="45.17359711249722" lon="5.639394295411971"><ele>1069.0</ele><time>2026-05-02T12:26:49Z</time></trkpt><trkpt lat="45.17333939038444" lon="5.639460327044445"><ele>1069.0</ele><time>2026-05-02T12:26:50Z</time></trkpt><trkpt lat="45.17308592233582" lon="5.639523183612218"><ele>1070.0</ele><time>2026-05-02T12:26:51Z</time></trkpt><trkpt lat="45.17286597547755" lon="5.639564916154574"><ele>1071.0</ele><time>2026-05-02T12:26:52Z</time></trkpt><trkpt lat="45.17266096414337" lon="5.639548834456184"><ele>1072.0</ele><time>2026-05-02T12:26:53Z</time></trkpt><trkpt lat="45.172493000128085" lon="5.639378863388528"><ele>1072.0</ele><time>2026-05-02T12:26:54Z</time></trkpt><trkpt lat="45.17231725480679" lon="5.639186595190753"><ele>1072.0</ele><time>2026-05-02T12:26:55Z</time></trkpt><trkpt lat="45.172113957775274" lon="5.638991988771925"><ele>1072.0</ele><time>2026-05-02T12:26:56Z</time></trkpt><trkpt lat="45.17190307825065" lon="5.638815343802233"><ele>1072.0</ele><time>2026-05-02T12:26:57Z</time></trkpt><trkpt lat="45.17166777249554" lon="5.638759703866783"><ele>1076.0</ele><time>2026-05-02T12:26:58Z</time></trkpt><trkpt lat="45.17139928042831" lon="5.638759024767911"><ele>1080.0</ele><time>2026-05-02T12:26:59Z</time></trkpt><trkpt lat="45.171125658756345" lon="5.638792704637602"><ele>1080.0</ele><time>2026-05-02T12:27:00Z</time></trkpt><trkpt lat="45.17084259760454" lon="5.638833849304249"><ele>1080.0</ele><time>2026-05-02T12:27:01Z</time></trkpt><trkpt lat="45.1705476363334" lon="5.638862643011756"><ele>1085.0</ele><time>2026-05-02T12:27:02Z</time></trkpt><trkpt lat="45.170251674689" lon="5.638909473780722"><ele>1090.0</ele><time>2026-05-02T12:27:03Z</time></trkpt><trkpt lat="45.1699881768632" lon="5.638968295887619"><ele>1094.0</ele><time>2026-05-02T12:27:04Z</time></trkpt><trkpt lat="45.16975099630729" lon="5.639038267294627"><ele>1098.0</ele><time>2026-05-02T12:27:05Z</time></trkpt><trkpt lat="45.16954114019746" lon="5.639125561363057"><ele>1098.0</ele><time>2026-05-02T12:27:06Z</time></trkpt><trkpt lat="45.16934447921761" lon="5.639235549065895"><ele>1098.0</ele><time>2026-05-02T12:27:07Z</time></trkpt><trkpt lat="45.16913586935518" lon="5.639336539818081"><ele>1098.0</ele><time>2026-05-02T12:27:08Z</time></trkpt><trkpt lat="45.16895838268802" lon="5.639429213323827"><ele>1097.5</ele><time>2026-05-02T12:27:09Z</time></trkpt><trkpt lat="45.16879683994467" lon="5.639513561802531"><ele>1097.0</ele><time>2026-05-02T12:27:10Z</time></trkpt><trkpt lat="45.16865741320961" lon="5.6395849788483865"><ele>1096.5</ele><time>2026-05-02T12:27:11Z</time></trkpt><trkpt lat="45.168542650564234" lon="5.639613026968155"><ele>1096.0</ele><time>2026-05-02T12:27:12Z</time></trkpt><trkpt lat="45.16844699806507" lon="5.639578165007793"><ele>1096.0</ele><time>2026-05-02T12:27:13Z</time></trkpt><trkpt lat="45.168369554604865" lon="5.639476816930878"><ele>1096.0</ele><time>2026-05-02T12:27:14Z</time></trkpt><trkpt lat="45.16835844638441" lon="5.639288391562063"><ele>1096.0</ele><time>2026-05-02T12:27:15Z</time></trkpt><trkpt lat="45.16836551461068" lon="5.639175805470763"><ele>1096.0</ele><time>2026-05-02T12:27:16Z</time></trkpt><trkpt lat="45.16856126893579" lon="5.639044574538019"><ele>1096.6666666666665</ele><time>2026-05-02T12:27:17Z</time></trkpt><trkpt lat="45.16871193059241" lon="5.639068703812239"><ele>1097.3333333333333</ele><time>2026-05-02T12:27:18Z</time></trkpt><trkpt lat="45.16888025892398" lon="5.639132535939944"><ele>1098.0</ele><time>2026-05-02T12:27:19Z</time></trkpt><trkpt lat="45.16906410093489" lon="5.639078594656986"><ele>1098.0</ele><time>2026-05-02T12:27:20Z</time></trkpt><trkpt lat="45.16926319069135" lon="5.638930652146994"><ele>1098.0</ele><time>2026-05-02T12:27:21Z</time></trkpt><trkpt lat="45.16948116761759" lon="5.638752822991186"><ele>1103.0</ele><time>2026-05-02T12:27:22Z</time></trkpt><trkpt lat="45.16970506053462" lon="5.638550781334847"><ele>1108.0</ele><time>2026-05-02T12:27:23Z</time></trkpt><trkpt lat="45.16993092542943" lon="5.6383123509419555"><ele>1108.0</ele><time>2026-05-02T12:27:24Z</time></trkpt><trkpt lat="45.17014555258496" lon="5.638036332265544"><ele>1108.0</ele><time>2026-05-02T12:27:25Z</time></trkpt><trkpt lat="45.17033800646833" lon="5.637738330992207"><ele>1117.5</ele><time>2026-05-02T12:27:26Z</time></trkpt><trkpt lat="45.17050242281312" lon="5.637439973783711"><ele>1127.0</ele><time>2026-05-02T12:27:27Z</time></trkpt><trkpt lat="45.17064063442429" lon="5.637163037515304"><ele>1125.6666666666667</ele><time>2026-05-02T12:27:28Z</time></trkpt><trkpt lat="45.170776992727944" lon="5.636927881377979"><ele>1124.3333333333333</ele><time>2026-05-02T12:27:29Z</time></trkpt><trkpt lat="45.170960488420114" lon="5.636824525170807"><ele>1123.0</ele><time>2026-05-02T12:27:30Z</time></trkpt><trkpt lat="45.17115768082651" lon="5.636759334434122"><ele>1123.0</ele><time>2026-05-02T12:27:31Z</time></trkpt><trkpt lat="45.17138107772499" lon="5.636687121119521"><ele>1123.0</ele><time>2026-05-02T12:27:32Z</time></trkpt><trkpt lat="45.1716100446859" lon="5.636632131088676"><ele>1122.5</ele><time>2026-05-02T12:27:33Z</time></trkpt><trkpt lat="45.171824888059156" lon="5.6365034869583654"><ele>1122.0</ele><time>2026-05-02T12:27:34Z</time></trkpt><trkpt lat="45.172016395374996" lon="5.6363232634795954"><ele>1133.5</ele><time>2026-05-02T12:27:35Z</time></trkpt><trkpt lat="45.17214355085732" lon="5.636035653647508"><ele>1145.0</ele><time>2026-05-02T12:27:36Z</time></trkpt><trkpt lat="45.17224481667965" lon="5.635691329437321"><ele>1145.0</ele><time>2026-05-02T12:27:37Z</time></trkpt><trkpt lat="45.172335131384635" lon="5.635317706163552"><ele>1145.0</ele><time>2026-05-02T12:27:38Z</time></trkpt><trkpt lat="45.17242405032681" lon="5.634946940108687"><ele>1144.5</ele><time>2026-05-02T12:27:39Z</time></trkpt><trkpt lat="45.17248721794908" lon="5.634617676412288"><ele>1144.0</ele><time>2026-05-02T12:27:40Z</time></trkpt><trkpt lat="45.172500062271595" lon="5.63430395003585"><ele>1147.0</ele><time>2026-05-02T12:27:41Z</time></trkpt><trkpt lat="45.172445856032766" lon="5.633988341570274"><ele>1150.0</ele><time>2026-05-02T12:27:41.999Z</time></trkpt><trkpt lat="45.17238786283236" lon="5.63367141704774"><ele>1152.0</ele><time>2026-05-02T12:27:42.999Z</time></trkpt><trkpt lat="45.17237454341161" lon="5.6333680223734826"><ele>1154.0</ele><time>2026-05-02T12:27:43.999Z</time></trkpt><trkpt lat="45.172405597425765" lon="5.633066462593376"><ele>1156.0</ele><time>2026-05-02T12:27:44.999Z</time></trkpt><trkpt lat="45.172443691317945" lon="5.632716521405602"><ele>1156.0</ele><time>2026-05-02T12:27:45.999Z</time></trkpt><trkpt lat="45.1724970124168" lon="5.6323627593016745"><ele>1156.0</ele><time>2026-05-02T12:27:46.999Z</time></trkpt><trkpt lat="45.17251329627164" lon="5.632001764781863"><ele>1154.6666666666665</ele><time>2026-05-02T12:27:47.999Z</time></trkpt><trkpt lat="45.17250212477054" lon="5.63168191828945"><ele>1153.3333333333333</ele><time>2026-05-02T12:27:48.999Z</time></trkpt><trkpt lat="45.17247410139449" lon="5.631418565328746"><ele>1152.0</ele><time>2026-05-02T12:27:49.999Z</time></trkpt><trkpt lat="45.172447408077396" lon="5.631178849132159"><ele>1151.25</ele><time>2026-05-02T12:27:50.999Z</time></trkpt><trkpt lat="45.17241351574479" lon="5.630958856772595"><ele>1150.5</ele><time>2026-05-02T12:27:51.999Z</time></trkpt><trkpt lat="45.172366044251135" lon="5.630772129182218"><ele>1149.75</ele><time>2026-05-02T12:27:52.999Z</time></trkpt><trkpt lat="45.17228635906563" lon="5.63062730646143"><ele>1149.0</ele><time>2026-05-02T12:27:53.999Z</time></trkpt><trkpt lat="45.17218563804791" lon="5.630541563030449"><ele>1151.4</ele><time>2026-05-02T12:27:54.999Z</time></trkpt><trkpt lat="45.172075178266105" lon="5.630497547231712"><ele>1153.8000000000002</ele><time>2026-05-02T12:27:55.999Z</time></trkpt><trkpt lat="45.171971396902975" lon="5.630480094161884"><ele>1156.1999999999998</ele><time>2026-05-02T12:27:56.999Z</time></trkpt><trkpt lat="45.1718636487396" lon="5.63048717961037"><ele>1158.6</ele><time>2026-05-02T12:27:57.999Z</time></trkpt><trkpt lat="45.17177110744498" lon="5.630521996259775"><ele>1161.0</ele><time>2026-05-02T12:27:58.999Z</time></trkpt><trkpt lat="45.17168581503347" lon="5.630545900726708"><ele>1161.0</ele><time>2026-05-02T12:27:59.999Z</time></trkpt><trkpt lat="45.171610564341066" lon="5.630521947525625"><ele>1161.0</ele><time>2026-05-02T12:28:00.999Z</time></trkpt><trkpt lat="45.1715158457133" lon="5.630559485843492"><ele>1161.0</ele><time>2026-05-02T12:28:01.999Z</time></trkpt><trkpt lat="45.171429834923416" lon="5.630600190746285"><ele>1161.0</ele><time>2026-05-02T12:28:02.999Z</time></trkpt><trkpt lat="45.17134314469193" lon="5.630624732250447"><ele>1161.0</ele><time>2026-05-02T12:28:03.999Z</time></trkpt><trkpt lat="45.17125719652825" lon="5.6306512865763345"><ele>1161.0</ele><time>2026-05-02T12:28:04.999Z</time></trkpt><trkpt lat="45.17117739766424" lon="5.630699251592838"><ele>1161.3999999999999</ele><time>2026-05-02T12:28:05.999Z</time></trkpt><trkpt lat="45.17109644726776" lon="5.630705349589572"><ele>1161.8</ele><time>2026-05-02T12:28:06.999Z</time></trkpt><trkpt lat="45.17102334287099" lon="5.630660456569992"><ele>1162.1999999999998</ele><time>2026-05-02T12:28:07.999Z</time></trkpt><trkpt lat="45.170938723247886" lon="5.630646969957997"><ele>1162.6</ele><time>2026-05-02T12:28:08.999Z</time></trkpt><trkpt lat="45.17098350415519" lon="5.630390702700029"><ele>1163.0</ele><time>2026-05-02T12:28:09.999Z</time></trkpt><trkpt lat="45.17095442255844" lon="5.63027372136821"><ele>1163.0</ele><time>2026-05-02T12:28:10.999Z</time></trkpt><trkpt lat="45.17092454145002" lon="5.630143367008871"><ele>1163.0</ele><time>2026-05-02T12:28:11.999Z</time></trkpt><trkpt lat="45.17088804966592" lon="5.630017227712515"><ele>1163.0</ele><time>2026-05-02T12:28:12.999Z</time></trkpt><trkpt lat="45.170826429741126" lon="5.6299013110106"><ele>1163.0</ele><time>2026-05-02T12:28:13.999Z</time></trkpt><trkpt lat="45.170777729821666" lon="5.629788141652758"><ele>1163.0</ele><time>2026-05-02T12:28:14.999Z</time></trkpt><trkpt lat="45.17072184175465" lon="5.629673817575467"><ele>1163.6</ele><time>2026-05-02T12:28:15.999Z</time></trkpt><trkpt lat="45.17067642268657" lon="5.629556672491664"><ele>1164.1999999999998</ele><time>2026-05-02T12:28:16.999Z</time></trkpt><trkpt lat="45.17064671047445" lon="5.629426918652365"><ele>1164.8</ele><time>2026-05-02T12:28:17.999Z</time></trkpt><trkpt lat="45.170650254070225" lon="5.629293012902107"><ele>1165.3999999999999</ele><time>2026-05-02T12:28:18.999Z</time></trkpt><trkpt lat="45.17064312618202" lon="5.629158198293532"><ele>1166.0</ele><time>2026-05-02T12:28:19.999Z</time></trkpt><trkpt lat="45.1706064910903" lon="5.6290251093996995"><ele>1166.3333333333335</ele><time>2026-05-02T12:28:20.999Z</time></trkpt><trkpt lat="45.170606692150315" lon="5.628901300238836"><ele>1166.6666666666667</ele><time>2026-05-02T12:28:21.999Z</time></trkpt><trkpt lat="45.170603405407924" lon="5.628786242789276"><ele>1167.0</ele><time>2026-05-02T12:28:22.999Z</time></trkpt><trkpt lat="45.17061537349684" lon="5.628676339343687"><ele>1167.3333333333333</ele><time>2026-05-02T12:28:23.999Z</time></trkpt><trkpt lat="45.170606435337234" lon="5.628560578775233"><ele>1167.6666666666665</ele><time>2026-05-02T12:28:24.999Z</time></trkpt><trkpt lat="45.17060075395794" lon="5.6284437524542605"><ele>1168.0</ele><time>2026-05-02T12:28:25.999Z</time></trkpt><trkpt lat="45.170590917422096" lon="5.628299916602944"><ele>1168.4</ele><time>2026-05-02T12:28:26.999Z</time></trkpt><trkpt lat="45.170585170174334" lon="5.6281496628818735"><ele>1168.8</ele><time>2026-05-02T12:28:27.999Z</time></trkpt><trkpt lat="45.17057851183018" lon="5.627991887571783"><ele>1169.2</ele><time>2026-05-02T12:28:28.999Z</time></trkpt><trkpt lat="45.170562571683845" lon="5.627845719281471"><ele>1169.6</ele><time>2026-05-02T12:28:29.999Z</time></trkpt><trkpt lat="45.170537567139334" lon="5.627697867336914"><ele>1170.0</ele><time>2026-05-02T12:28:30.999Z</time></trkpt><trkpt lat="45.17049055431163" lon="5.627559657433836"><ele>1171.0</ele><time>2026-05-02T12:28:31.999Z</time></trkpt><trkpt lat="45.17045597161114" lon="5.627413740628053"><ele>1172.0</ele><time>2026-05-02T12:28:32.999Z</time></trkpt><trkpt lat="45.170412329093345" lon="5.627275882339133"><ele>1173.0</ele><time>2026-05-02T12:28:33.999Z</time></trkpt><trkpt lat="45.17021378784827" lon="5.62722187624562"><ele>1174.0</ele><time>2026-05-02T12:28:34.999Z</time></trkpt><trkpt lat="45.1700733224929" lon="5.627127213385723"><ele>1174.0</ele><time>2026-05-02T12:28:35.999Z</time></trkpt><trkpt lat="45.16991733722555" lon="5.62703958516603"><ele>1174.0</ele><time>2026-05-02T12:28:36.999Z</time></trkpt><trkpt lat="45.16976661678973" lon="5.626961655907471"><ele>1174.0</ele><time>2026-05-02T12:28:37.999Z</time></trkpt><trkpt lat="45.16962128599984" lon="5.626876006046288"><ele>1176.5</ele><time>2026-05-02T12:28:38.999Z</time></trkpt><trkpt lat="45.1694837135326" lon="5.626793517293564"><ele>1179.0</ele><time>2026-05-02T12:28:39.999Z</time></trkpt><trkpt lat="45.16936345884586" lon="5.626707622968304"><ele>1181.5</ele><time>2026-05-02T12:28:40.999Z</time></trkpt><trkpt lat="45.169257044911156" lon="5.626564872793092"><ele>1184.0</ele><time>2026-05-02T12:28:41.999Z</time></trkpt><trkpt lat="45.16918941863275" lon="5.626394281369183"><ele>1184.0</ele><time>2026-05-02T12:28:42.999Z</time></trkpt><trkpt lat="45.16917238437063" lon="5.626212724022296"><ele>1184.0</ele><time>2026-05-02T12:28:43.999Z</time></trkpt><trkpt lat="45.169188643895" lon="5.6260116921995404"><ele>1184.0</ele><time>2026-05-02T12:28:44.999Z</time></trkpt><trkpt lat="45.16921684730017" lon="5.625798270788391"><ele>1184.0</ele><time>2026-05-02T12:28:45.999Z</time></trkpt><trkpt lat="45.169243865813755" lon="5.625592060215235"><ele>1183.0</ele><time>2026-05-02T12:28:46.999Z</time></trkpt><trkpt lat="45.16925619373454" lon="5.625409895652599"><ele>1182.0</ele><time>2026-05-02T12:28:48Z</time></trkpt><trkpt lat="45.16926067757361" lon="5.625242522346343"><ele>1181.0</ele><time>2026-05-02T12:28:49Z</time></trkpt><trkpt lat="45.169249835798176" lon="5.62508885074267"><ele>1180.0</ele><time>2026-05-02T12:28:50Z</time></trkpt><trkpt lat="45.16922030967106" lon="5.624949975698068"><ele>1179.5</ele><time>2026-05-02T12:28:51Z</time></trkpt><trkpt lat="45.16916146252461" lon="5.624810286454268"><ele>1179.0</ele><time>2026-05-02T12:28:52Z</time></trkpt><trkpt lat="45.16907003239955" lon="5.624679379081379"><ele>1178.5</ele><time>2026-05-02T12:28:53Z</time></trkpt><trkpt lat="45.16896385198479" lon="5.624574484145738"><ele>1178.0</ele><time>2026-05-02T12:28:54Z</time></trkpt><trkpt lat="45.16884566276508" lon="5.624507460195792"><ele>1178.0</ele><time>2026-05-02T12:28:55Z</time></trkpt><trkpt lat="45.16872218989379" lon="5.624484260223281"><ele>1178.0</ele><time>2026-05-02T12:28:56Z</time></trkpt><trkpt lat="45.16859548152639" lon="5.62450124973358"><ele>1178.0</ele><time>2026-05-02T12:28:57Z</time></trkpt><trkpt lat="45.16848446999707" lon="5.62457655946967"><ele>1178.0</ele><time>2026-05-02T12:28:58Z</time></trkpt><trkpt lat="45.168377513199694" lon="5.624683967656575"><ele>1178.0</ele><time>2026-05-02T12:28:59Z</time></trkpt><trkpt lat="45.16826124108016" lon="5.624806829538374"><ele>1178.0</ele><time>2026-05-02T12:29:00Z</time></trkpt><trkpt lat="45.16809941794351" lon="5.624916800522473"><ele>1178.0</ele><time>2026-05-02T12:29:01Z</time></trkpt><trkpt lat="45.16791212307414" lon="5.624990687741831"><ele>1178.0</ele><time>2026-05-02T12:29:02Z</time></trkpt><trkpt lat="45.167698155951875" lon="5.624978941336156"><ele>1178.0</ele><time>2026-05-02T12:29:03Z</time></trkpt><trkpt lat="45.16748854053688" lon="5.625039182937419"><ele>1178.0</ele><time>2026-05-02T12:29:04Z</time></trkpt><trkpt lat="45.16729291509306" lon="5.6250284380105935"><ele>1178.75</ele><time>2026-05-02T12:29:05Z</time></trkpt><trkpt lat="45.167141363920706" lon="5.624963068425882"><ele>1179.5</ele><time>2026-05-02T12:29:06Z</time></trkpt><trkpt lat="45.16702289368769" lon="5.624841278234856"><ele>1180.25</ele><time>2026-05-02T12:29:07Z</time></trkpt><trkpt lat="45.16693951357908" lon="5.624676668563488"><ele>1181.0</ele><time>2026-05-02T12:29:08Z</time></trkpt><trkpt lat="45.166844050877984" lon="5.624517921386261"><ele>1177.0</ele><time>2026-05-02T12:29:09Z</time></trkpt><trkpt lat="45.16674432520072" lon="5.6243974339211915"><ele>1173.0</ele><time>2026-05-02T12:29:10Z</time></trkpt><trkpt lat="45.16664104054698" lon="5.6242997014795835"><ele>1169.0</ele><time>2026-05-02T12:29:11Z</time></trkpt><trkpt lat="45.16651426095043" lon="5.624291814860796"><ele>1165.0</ele><time>2026-05-02T12:29:12Z</time></trkpt><trkpt lat="45.16639652112301" lon="5.624313278344588"><ele>1165.0</ele><time>2026-05-02T12:29:13Z</time></trkpt><trkpt lat="45.16628481034165" lon="5.624366173631348"><ele>1165.0</ele><time>2026-05-02T12:29:14Z</time></trkpt><trkpt lat="45.166173115418516" lon="5.624446448439879"><ele>1165.0</ele><time>2026-05-02T12:29:15Z</time></trkpt><trkpt lat="45.166072367365665" lon="5.624547291923439"><ele>1165.0</ele><time>2026-05-02T12:29:16Z</time></trkpt><trkpt lat="45.165991585508785" lon="5.624703526761308"><ele>1165.0</ele><time>2026-05-02T12:29:17Z</time></trkpt><trkpt lat="45.165944554895276" lon="5.624887315122241"><ele>1165.0</ele><time>2026-05-02T12:29:18Z</time></trkpt><trkpt lat="45.16591673754261" lon="5.625110063307974"><ele>1165.0</ele><time>2026-05-02T12:29:19Z</time></trkpt><trkpt lat="45.16589814482777" lon="5.625347847495566"><ele>1162.6666666666665</ele><time>2026-05-02T12:29:20Z</time></trkpt><trkpt lat="45.1658513399313" lon="5.625565166003986"><ele>1160.3333333333333</ele><time>2026-05-02T12:29:21Z</time></trkpt><trkpt lat="45.16576742363922" lon="5.625775221670787"><ele>1158.0</ele><time>2026-05-02T12:29:22Z</time></trkpt><trkpt lat="45.16565453462214" lon="5.625959794291185"><ele>1158.0</ele><time>2026-05-02T12:29:23Z</time></trkpt><trkpt lat="45.16552486938887" lon="5.626133674791611"><ele>1158.0</ele><time>2026-05-02T12:29:24Z</time></trkpt><trkpt lat="45.165393847420816" lon="5.6262966223474935"><ele>1158.0</ele><time>2026-05-02T12:29:25Z</time></trkpt><trkpt lat="45.16528198200941" lon="5.626466066903135"><ele>1160.25</ele><time>2026-05-02T12:29:26Z</time></trkpt><trkpt lat="45.16517620468524" lon="5.626592507784514"><ele>1162.5</ele><time>2026-05-02T12:29:27Z</time></trkpt><trkpt lat="45.16507721067147" lon="5.626716081808158"><ele>1164.75</ele><time>2026-05-02T12:29:28Z</time></trkpt><trkpt lat="45.164972345243214" lon="5.626809283599281"><ele>1167.0</ele><time>2026-05-02T12:29:29Z</time></trkpt><trkpt lat="45.16486863529293" lon="5.626891793012145"><ele>1165.75</ele><time>2026-05-02T12:29:30Z</time></trkpt><trkpt lat="45.164750014083644" lon="5.626933203978214"><ele>1164.5</ele><time>2026-05-02T12:29:31Z</time></trkpt><trkpt lat="45.164618182950825" lon="5.626938773097831"><ele>1163.25</ele><time>2026-05-02T12:29:32Z</time></trkpt><trkpt lat="45.164468228393176" lon="5.626877260778398"><ele>1162.0</ele><time>2026-05-02T12:29:33Z</time></trkpt><trkpt lat="45.16430265851434" lon="5.62674696799183"><ele>1162.0</ele><time>2026-05-02T12:29:34Z</time></trkpt><trkpt lat="45.16412390183061" lon="5.626570376612218"><ele>1162.0</ele><time>2026-05-02T12:29:35Z</time></trkpt><trkpt lat="45.163949525258026" lon="5.626363923754661"><ele>1162.0</ele><time>2026-05-02T12:29:36Z</time></trkpt><trkpt lat="45.16378889130127" lon="5.626147409434822"><ele>1162.6666666666665</ele><time>2026-05-02T12:29:37Z</time></trkpt><trkpt lat="45.163640226861055" lon="5.625981604275465"><ele>1163.3333333333333</ele><time>2026-05-02T12:29:38Z</time></trkpt><trkpt lat="45.16349197235632" lon="5.625837890666978"><ele>1164.0</ele><time>2026-05-02T12:29:39Z</time></trkpt><trkpt lat="45.16331385313978" lon="5.625737643509099"><ele>1164.5</ele><time>2026-05-02T12:29:40Z</time></trkpt><trkpt lat="45.16310678430042" lon="5.625631385518652"><ele>1165.0</ele><time>2026-05-02T12:29:41Z</time></trkpt><trkpt lat="45.16288180368458" lon="5.625538479257353"><ele>1165.0</ele><time>2026-05-02T12:29:42Z</time></trkpt><trkpt lat="45.16269161148764" lon="5.625411727277098"><ele>1165.0</ele><time>2026-05-02T12:29:43Z</time></trkpt><trkpt lat="45.16254975116384" lon="5.625201945595528"><ele>1165.0</ele><time>2026-05-02T12:29:44Z</time></trkpt><trkpt lat="45.162415565768285" lon="5.624905829402191"><ele>1175.5</ele><time>2026-05-02T12:29:45Z</time></trkpt><trkpt lat="45.16226214940847" lon="5.62458811829382"><ele>1186.0</ele><time>2026-05-02T12:29:46Z</time></trkpt><trkpt lat="45.16209582676291" lon="5.6242851994832455"><ele>1186.0</ele><time>2026-05-02T12:29:47Z</time></trkpt><trkpt lat="45.16193469880994" lon="5.623960672436401"><ele>1186.0</ele><time>2026-05-02T12:29:48Z</time></trkpt><trkpt lat="45.16181393782426" lon="5.6236202387124035"><ele>1177.5</ele><time>2026-05-02T12:29:49Z</time></trkpt><trkpt lat="45.16172218373203" lon="5.623312253529572"><ele>1169.0</ele><time>2026-05-02T12:29:49.999Z</time></trkpt><trkpt lat="45.1616489379267" lon="5.623019201182498"><ele>1167.0</ele><time>2026-05-02T12:29:50.999Z</time></trkpt><trkpt lat="45.16159260505676" lon="5.622726593188533"><ele>1165.0</ele><time>2026-05-02T12:29:51.999Z</time></trkpt><trkpt lat="45.161500453046685" lon="5.622463972471988"><ele>1163.0</ele><time>2026-05-02T12:29:52.999Z</time></trkpt><trkpt lat="45.1613687356611" lon="5.622241570138761"><ele>1167.0</ele><time>2026-05-02T12:29:53.999Z</time></trkpt><trkpt lat="45.161212877975764" lon="5.622071717864466"><ele>1171.0</ele><time>2026-05-02T12:29:54.999Z</time></trkpt><trkpt lat="45.161112750962104" lon="5.621899333372503"><ele>1175.0</ele><time>2026-05-02T12:29:55.999Z</time></trkpt><trkpt lat="45.161048989115336" lon="5.621735068888165"><ele>1175.0</ele><time>2026-05-02T12:29:56.999Z</time></trkpt><trkpt lat="45.16101394547667" lon="5.621558793963987"><ele>1175.0</ele><time>2026-05-02T12:29:57.999Z</time></trkpt><trkpt lat="45.161004769328336" lon="5.621386696927905"><ele>1175.0</ele><time>2026-05-02T12:29:58.999Z</time></trkpt><trkpt lat="45.1609967422922" lon="5.621220780148267"><ele>1175.0</ele><time>2026-05-02T12:29:59.999Z</time></trkpt><trkpt lat="45.160960168961154" lon="5.621060524791774"><ele>1172.3333333333335</ele><time>2026-05-02T12:30:00.999Z</time></trkpt><trkpt lat="45.16091170501577" lon="5.620838453419289"><ele>1169.6666666666667</ele><time>2026-05-02T12:30:01.999Z</time></trkpt><trkpt lat="45.1608093266262" lon="5.620589782515363"><ele>1167.0</ele><time>2026-05-02T12:30:02.999Z</time></trkpt><trkpt lat="45.160685306962264" lon="5.620351517774471"><ele>1173.0</ele><time>2026-05-02T12:30:03.999Z</time></trkpt><trkpt lat="45.160520101005204" lon="5.620113147454241"><ele>1179.0</ele><time>2026-05-02T12:30:04.999Z</time></trkpt><trkpt lat="45.160392914546414" lon="5.6198310807168985"><ele>1179.0</ele><time>2026-05-02T12:30:05.999Z</time></trkpt><trkpt lat="45.16031953152681" lon="5.61955834581259"><ele>1179.0</ele><time>2026-05-02T12:30:06.999Z</time></trkpt><trkpt lat="45.160317343397786" lon="5.619305556989969"><ele>1179.0</ele><time>2026-05-02T12:30:07.999Z</time></trkpt><trkpt lat="45.160379578492275" lon="5.6190792706603165"><ele>1177.0</ele><time>2026-05-02T12:30:08.999Z</time></trkpt><trkpt lat="45.16047772500152" lon="5.618892619894037"><ele>1175.0</ele><time>2026-05-02T12:30:09.999Z</time></trkpt><trkpt lat="45.16058092109938" lon="5.618713811862099"><ele>1173.0</ele><time>2026-05-02T12:30:10.999Z</time></trkpt><trkpt lat="45.1606773911682" lon="5.618558186269441"><ele>1170.0</ele><time>2026-05-02T12:30:11.999Z</time></trkpt><trkpt lat="45.16071222197805" lon="5.618373903226858"><ele>1167.0</ele><time>2026-05-02T12:30:12.999Z</time></trkpt><trkpt lat="45.16068196486303" lon="5.618165429415152"><ele>1164.0</ele><time>2026-05-02T12:30:13.999Z</time></trkpt><trkpt lat="45.160604714044005" lon="5.617972299035886"><ele>1161.0</ele><time>2026-05-02T12:30:14.999Z</time></trkpt><trkpt lat="45.16047801336066" lon="5.617843162393569"><ele>1161.0</ele><time>2026-05-02T12:30:15.999Z</time></trkpt><trkpt lat="45.16029459860269" lon="5.617805483335325"><ele>1161.0</ele><time>2026-05-02T12:30:16.999Z</time></trkpt><trkpt lat="45.16009760735449" lon="5.617837816164309"><ele>1161.0</ele><time>2026-05-02T12:30:17.999Z</time></trkpt><trkpt lat="45.159883119850754" lon="5.617935784865893"><ele>1159.0</ele><time>2026-05-02T12:30:18.999Z</time></trkpt><trkpt lat="45.15965847269533" lon="5.618053136374693"><ele>1157.0</ele><time>2026-05-02T12:30:19.999Z</time></trkpt><trkpt lat="45.159412358625424" lon="5.618164448558935"><ele>1157.0</ele><time>2026-05-02T12:30:20.999Z</time></trkpt><trkpt lat="45.159188706005004" lon="5.618222684328806"><ele>1157.0</ele><time>2026-05-02T12:30:21.999Z</time></trkpt><trkpt lat="45.158984214406715" lon="5.618261398530035"><ele>1157.0</ele><time>2026-05-02T12:30:22.999Z</time></trkpt><trkpt lat="45.15881635104865" lon="5.618340077137045"><ele>1155.6666666666667</ele><time>2026-05-02T12:30:23.999Z</time></trkpt><trkpt lat="45.15867368403075" lon="5.618494066141511"><ele>1154.3333333333333</ele><time>2026-05-02T12:30:24.999Z</time></trkpt><trkpt lat="45.158561400436284" lon="5.618724734137775"><ele>1153.0</ele><time>2026-05-02T12:30:25.999Z</time></trkpt><trkpt lat="45.158471172951856" lon="5.619012564942122"><ele>1153.0</ele><time>2026-05-02T12:30:26.999Z</time></trkpt><trkpt lat="45.15840343529177" lon="5.619277630167999"><ele>1153.0</ele><time>2026-05-02T12:30:27.999Z</time></trkpt><trkpt lat="45.15831411729032" lon="5.619473835003088"><ele>1153.0</ele><time>2026-05-02T12:30:28.999Z</time></trkpt><trkpt lat="45.158232069719595" lon="5.6196646654768045"><ele>1155.25</ele><time>2026-05-02T12:30:29.999Z</time></trkpt><trkpt lat="45.15811791865651" lon="5.619809401976304"><ele>1157.5</ele><time>2026-05-02T12:30:30.999Z</time></trkpt><trkpt lat="45.157973988323484" lon="5.619815925409517"><ele>1159.75</ele><time>2026-05-02T12:30:31.999Z</time></trkpt><trkpt lat="45.15783242259408" lon="5.619743138886474"><ele>1162.0</ele><time>2026-05-02T12:30:32.999Z</time></trkpt><trkpt lat="45.15765789578105" lon="5.619607464529941"><ele>1162.0</ele><time>2026-05-02T12:30:33.999Z</time></trkpt><trkpt lat="45.15745903114158" lon="5.619511956788943"><ele>1162.0</ele><time>2026-05-02T12:30:34.999Z</time></trkpt><trkpt lat="45.15726587614744" lon="5.619434022401759"><ele>1162.0</ele><time>2026-05-02T12:30:35.999Z</time></trkpt><trkpt lat="45.157080692587485" lon="5.619380788408262"><ele>1153.3333333333333</ele><time>2026-05-02T12:30:36.999Z</time></trkpt><trkpt lat="45.15690737641936" lon="5.619325637266217"><ele>1144.6666666666667</ele><time>2026-05-02T12:30:37.999Z</time></trkpt><trkpt lat="45.15675896093995" lon="5.619273931559704"><ele>1136.0</ele><time>2026-05-02T12:30:38.999Z</time></trkpt><trkpt lat="45.15662292063176" lon="5.619228204727253"><ele>1135.5</ele><time>2026-05-02T12:30:39.999Z</time></trkpt><trkpt lat="45.15649432201204" lon="5.619193142928674"><ele>1135.0</ele><time>2026-05-02T12:30:40.999Z</time></trkpt><trkpt lat="45.15637844304107" lon="5.619163809283687"><ele>1134.5</ele><time>2026-05-02T12:30:41.999Z</time></trkpt><trkpt lat="45.15625779496489" lon="5.619151446901742"><ele>1134.0</ele><time>2026-05-02T12:30:42.999Z</time></trkpt><trkpt lat="45.156131281806715" lon="5.619147505316539"><ele>1134.0</ele><time>2026-05-02T12:30:43.999Z</time></trkpt><trkpt lat="45.15600731299833" lon="5.619156580290161"><ele>1134.0</ele><time>2026-05-02T12:30:44.999Z</time></trkpt><trkpt lat="45.15588618906444" lon="5.619185366160126"><ele>1134.0</ele><time>2026-05-02T12:30:45.999Z</time></trkpt><trkpt lat="45.15576960462643" lon="5.61924256471095"><ele>1134.0</ele><time>2026-05-02T12:30:46.999Z</time></trkpt><trkpt lat="45.15566471679691" lon="5.619340768238723"><ele>1132.3333333333333</ele><time>2026-05-02T12:30:47.999Z</time></trkpt><trkpt lat="45.15555931896866" lon="5.619511586585002"><ele>1130.6666666666665</ele><time>2026-05-02T12:30:48.999Z</time></trkpt><trkpt lat="45.155422232534804" lon="5.619740313819899"><ele>1129.0</ele><time>2026-05-02T12:30:49.999Z</time></trkpt><trkpt lat="45.15528864255019" lon="5.620026984301565"><ele>1129.0</ele><time>2026-05-02T12:30:50.999Z</time></trkpt><trkpt lat="45.15512864888514" lon="5.620279102531063"><ele>1129.0</ele><time>2026-05-02T12:30:51.999Z</time></trkpt><trkpt lat="45.1549774262167" lon="5.620483089785899"><ele>1129.0</ele><time>2026-05-02T12:30:52.999Z</time></trkpt><trkpt lat="45.15480661449267" lon="5.620610715411474"><ele>1133.6666666666665</ele><time>2026-05-02T12:30:54Z</time></trkpt><trkpt lat="45.15460933143712" lon="5.6205780414075734"><ele>1138.3333333333333</ele><time>2026-05-02T12:30:55Z</time></trkpt><trkpt lat="45.15440976346763" lon="5.62051221044244"><ele>1143.0</ele><time>2026-05-02T12:30:56Z</time></trkpt><trkpt lat="45.15419525335577" lon="5.620438335975569"><ele>1141.5</ele><time>2026-05-02T12:30:57Z</time></trkpt><trkpt lat="45.15398929465926" lon="5.620401362213075"><ele>1140.0</ele><time>2026-05-02T12:30:58Z</time></trkpt><trkpt lat="45.1537418365485" lon="5.620413900793856"><ele>1140.0</ele><time>2026-05-02T12:30:59Z</time></trkpt><trkpt lat="45.153468699684865" lon="5.6204273728710685"><ele>1140.0</ele><time>2026-05-02T12:31:00Z</time></trkpt><trkpt lat="45.153212139453544" lon="5.620395570951839"><ele>1143.5</ele><time>2026-05-02T12:31:01Z</time></trkpt><trkpt lat="45.15297453826993" lon="5.620351889975092"><ele>1147.0</ele><time>2026-05-02T12:31:02Z</time></trkpt><trkpt lat="45.15275065740341" lon="5.620333368892004"><ele>1143.6666666666665</ele><time>2026-05-02T12:31:03Z</time></trkpt><trkpt lat="45.15255221556261" lon="5.620314923606034"><ele>1140.3333333333333</ele><time>2026-05-02T12:31:04Z</time></trkpt><trkpt lat="45.1523512919407" lon="5.620336899362507"><ele>1137.0</ele><time>2026-05-02T12:31:05Z</time></trkpt><trkpt lat="45.15212173594912" lon="5.620410045350229"><ele>1137.0</ele><time>2026-05-02T12:31:06Z</time></trkpt><trkpt lat="45.15188923949958" lon="5.620474091295049"><ele>1137.0</ele><time>2026-05-02T12:31:07Z</time></trkpt><trkpt lat="45.15166567546154" lon="5.620533834533707"><ele>1129.5</ele><time>2026-05-02T12:31:08Z</time></trkpt><trkpt lat="45.151441847649906" lon="5.620600310441049"><ele>1122.0</ele><time>2026-05-02T12:31:09Z</time></trkpt><trkpt lat="45.15120625265911" lon="5.620667416542345"><ele>1122.0</ele><time>2026-05-02T12:31:10Z</time></trkpt><trkpt lat="45.1509616405847" lon="5.620754442682945"><ele>1122.0</ele><time>2026-05-02T12:31:11Z</time></trkpt><trkpt lat="45.1507270493332" lon="5.620863973427753"><ele>1116.0</ele><time>2026-05-02T12:31:12Z</time></trkpt><trkpt lat="45.15049939837982" lon="5.620999358596727"><ele>1110.0</ele><time>2026-05-02T12:31:13Z</time></trkpt><trkpt lat="45.15026596558191" lon="5.621142987424297"><ele>1120.0</ele><time>2026-05-02T12:31:14Z</time></trkpt><trkpt lat="45.150009259948675" lon="5.621271873208317"><ele>1130.0</ele><time>2026-05-02T12:31:15Z</time></trkpt><trkpt lat="45.14974080090179" lon="5.621394431276985"><ele>1130.0</ele><time>2026-05-02T12:31:16Z</time></trkpt><trkpt lat="45.149482155471325" lon="5.621531831303336"><ele>1130.0</ele><time>2026-05-02T12:31:17Z</time></trkpt><trkpt lat="45.149238852109946" lon="5.621609776051964"><ele>1125.0</ele><time>2026-05-02T12:31:18Z</time></trkpt><trkpt lat="45.14898787013498" lon="5.621626670707189"><ele>1120.0</ele><time>2026-05-02T12:31:19Z</time></trkpt><trkpt lat="45.14872120807759" lon="5.621638975676088"><ele>1120.0</ele><time>2026-05-02T12:31:20Z</time></trkpt><trkpt lat="45.14844529298525" lon="5.62165545652027"><ele>1120.0</ele><time>2026-05-02T12:31:21Z</time></trkpt><trkpt lat="45.148188760821604" lon="5.621676827065637"><ele>1117.5</ele><time>2026-05-02T12:31:22Z</time></trkpt><trkpt lat="45.14794941422319" lon="5.621746156359722"><ele>1115.0</ele><time>2026-05-02T12:31:23Z</time></trkpt><trkpt lat="45.14773633303978" lon="5.621863389823698"><ele>1115.0</ele><time>2026-05-02T12:31:24Z</time></trkpt><trkpt lat="45.14754524266372" lon="5.621955611515296"><ele>1115.0</ele><time>2026-05-02T12:31:25Z</time></trkpt><trkpt lat="45.147325924653956" lon="5.621903700233983"><ele>1115.0</ele><time>2026-05-02T12:31:26Z</time></trkpt><trkpt lat="45.147085824527124" lon="5.621823667137489"><ele>1117.5</ele><time>2026-05-02T12:31:27Z</time></trkpt><trkpt lat="45.14683206653509" lon="5.62175432617578"><ele>1120.0</ele><time>2026-05-02T12:31:28Z</time></trkpt><trkpt lat="45.146556397348505" lon="5.621703223738104"><ele>1123.0</ele><time>2026-05-02T12:31:29Z</time></trkpt><trkpt lat="45.14624487157361" lon="5.6216412428665"><ele>1126.0</ele><time>2026-05-02T12:31:30Z</time></trkpt><trkpt lat="45.14593776446154" lon="5.62157517150388"><ele>1131.0</ele><time>2026-05-02T12:31:31Z</time></trkpt><trkpt lat="45.145639525117815" lon="5.621501938646159"><ele>1136.0</ele><time>2026-05-02T12:31:32Z</time></trkpt><trkpt lat="45.14536722267934" lon="5.621440280229435"><ele>1136.0</ele><time>2026-05-02T12:31:33Z</time></trkpt><trkpt lat="45.14511446720915" lon="5.621366307818222"><ele>1136.0</ele><time>2026-05-02T12:31:34Z</time></trkpt><trkpt lat="45.14487987441616" lon="5.621228315223391"><ele>1130.5</ele><time>2026-05-02T12:31:35Z</time></trkpt><trkpt lat="45.1446532769982" lon="5.6210455669496975"><ele>1125.0</ele><time>2026-05-02T12:31:36Z</time></trkpt><trkpt lat="45.14440444476033" lon="5.620863797923064"><ele>1125.0</ele><time>2026-05-02T12:31:37Z</time></trkpt><trkpt lat="45.144165880944335" lon="5.6206603682956935"><ele>1125.0</ele><time>2026-05-02T12:31:38Z</time></trkpt><trkpt lat="45.14394101605152" lon="5.620449331294147"><ele>1131.0</ele><time>2026-05-02T12:31:39Z</time></trkpt><trkpt lat="45.14375678696876" lon="5.620207550071893"><ele>1137.0</ele><time>2026-05-02T12:31:40Z</time></trkpt><trkpt lat="45.14356769231196" lon="5.620006617648702"><ele>1137.0</ele><time>2026-05-02T12:31:41Z</time></trkpt><trkpt lat="45.14350848029815" lon="5.6196424188395815"><ele>1137.0</ele><time>2026-05-02T12:31:42Z</time></trkpt><trkpt lat="45.14347648582082" lon="5.619289259326493"><ele>1132.5</ele><time>2026-05-02T12:31:43Z</time></trkpt><trkpt lat="45.143428358218074" lon="5.6189167018865165"><ele>1128.0</ele><time>2026-05-02T12:31:44Z</time></trkpt><trkpt lat="45.14334168119046" lon="5.618552192213682"><ele>1125.0</ele><time>2026-05-02T12:31:45Z</time></trkpt><trkpt lat="45.14326508633455" lon="5.618214962081353"><ele>1122.0</ele><time>2026-05-02T12:31:46Z</time></trkpt><trkpt lat="45.14318825962161" lon="5.617914284601475"><ele>1127.6666666666667</ele><time>2026-05-02T12:31:47Z</time></trkpt><trkpt lat="45.14306408005222" lon="5.617658695098117"><ele>1133.3333333333335</ele><time>2026-05-02T12:31:48Z</time></trkpt><trkpt lat="45.14290816348206" lon="5.617445096194804"><ele>1139.0</ele><time>2026-05-02T12:31:49Z</time></trkpt><trkpt lat="45.14272285490233" lon="5.617275492361518"><ele>1139.0</ele><time>2026-05-02T12:31:50Z</time></trkpt><trkpt lat="45.14253847665057" lon="5.617103989712689"><ele>1139.0</ele><time>2026-05-02T12:31:51Z</time></trkpt><trkpt lat="45.14240934725008" lon="5.616880348939977"><ele>1139.0</ele><time>2026-05-02T12:31:52Z</time></trkpt><trkpt lat="45.14232555964912" lon="5.616613376564972"><ele>1134.0</ele><time>2026-05-02T12:31:53Z</time></trkpt><trkpt lat="45.142346423273125" lon="5.616260945320127"><ele>1129.0</ele><time>2026-05-02T12:31:54Z</time></trkpt><trkpt lat="45.14241496360241" lon="5.615951281959269"><ele>1129.0</ele><time>2026-05-02T12:31:55Z</time></trkpt><trkpt lat="45.14253003219767" lon="5.615658557378355"><ele>1129.0</ele><time>2026-05-02T12:31:56Z</time></trkpt><trkpt lat="45.1426505458878" lon="5.615361319023996"><ele>1136.0</ele><time>2026-05-02T12:31:57Z</time></trkpt><trkpt lat="45.142790316737084" lon="5.615023898184021"><ele>1143.0</ele><time>2026-05-02T12:31:57.999Z</time></trkpt><trkpt lat="45.1429258744567" lon="5.614677565816228"><ele>1153.0</ele><time>2026-05-02T12:31:58.999Z</time></trkpt><trkpt lat="45.143058222285404" lon="5.614342367638211"><ele>1163.0</ele><time>2026-05-02T12:31:59.999Z</time></trkpt><trkpt lat="45.143196935058036" lon="5.614009952665853"><ele>1151.5</ele><time>2026-05-02T12:32:00.999Z</time></trkpt><trkpt lat="45.14333075081832" lon="5.6136604407995"><ele>1140.0</ele><time>2026-05-02T12:32:01.999Z</time></trkpt><trkpt lat="45.143495629469946" lon="5.613310983829837"><ele>1140.0</ele><time>2026-05-02T12:32:02.999Z</time></trkpt><trkpt lat="45.14367708464407" lon="5.6129755104750805"><ele>1140.0</ele><time>2026-05-02T12:32:03.999Z</time></trkpt><trkpt lat="45.14386164128686" lon="5.61268449956489"><ele>1148.5</ele><time>2026-05-02T12:32:04.999Z</time></trkpt><trkpt lat="45.144032422445626" lon="5.6124315555973965"><ele>1157.0</ele><time>2026-05-02T12:32:05.999Z</time></trkpt><trkpt lat="45.14420509045467" lon="5.612212744163694"><ele>1149.0</ele><time>2026-05-02T12:32:06.999Z</time></trkpt><trkpt lat="45.144368823007554" lon="5.612019195604641"><ele>1141.0</ele><time>2026-05-02T12:32:07.999Z</time></trkpt><trkpt lat="45.14449703249089" lon="5.611835017597976"><ele>1133.0</ele><time>2026-05-02T12:32:08.999Z</time></trkpt><trkpt lat="45.14458554687332" lon="5.611619490499546"><ele>1133.0</ele><time>2026-05-02T12:32:09.999Z</time></trkpt><trkpt lat="45.14460104657059" lon="5.611369200105346"><ele>1133.0</ele><time>2026-05-02T12:32:10.999Z</time></trkpt><trkpt lat="45.144543676579964" lon="5.611126857743389"><ele>1133.0</ele><time>2026-05-02T12:32:11.999Z</time></trkpt><trkpt lat="45.14444022752641" lon="5.610911159563255"><ele>1129.3333333333335</ele><time>2026-05-02T12:32:12.999Z</time></trkpt><trkpt lat="45.14425007194569" lon="5.610788365322264"><ele>1125.6666666666667</ele><time>2026-05-02T12:32:13.999Z</time></trkpt><trkpt lat="45.144052877318394" lon="5.610710480173122"><ele>1122.0</ele><time>2026-05-02T12:32:14.999Z</time></trkpt><trkpt lat="45.14384824177177" lon="5.610638356325252"><ele>1124.6666666666667</ele><time>2026-05-02T12:32:15.999Z</time></trkpt><trkpt lat="45.14363569174417" lon="5.610536848797899"><ele>1127.3333333333335</ele><time>2026-05-02T12:32:16.999Z</time></trkpt><trkpt lat="45.14350469975695" lon="5.610398184327948"><ele>1130.0</ele><time>2026-05-02T12:32:17.999Z</time></trkpt><trkpt lat="45.1433981279007" lon="5.6102052667641855"><ele>1130.0</ele><time>2026-05-02T12:32:18.999Z</time></trkpt><trkpt lat="45.14336467093839" lon="5.609934311907697"><ele>1130.0</ele><time>2026-05-02T12:32:19.999Z</time></trkpt><trkpt lat="45.14339445075377" lon="5.609664524816487"><ele>1130.0</ele><time>2026-05-02T12:32:20.999Z</time></trkpt><trkpt lat="45.143482604303564" lon="5.609459268473467"><ele>1134.0</ele><time>2026-05-02T12:32:21.999Z</time></trkpt><trkpt lat="45.1436346749511" lon="5.609303957441264"><ele>1138.0</ele><time>2026-05-02T12:32:22.999Z</time></trkpt><trkpt lat="45.14381574446122" lon="5.609164574457929"><ele>1142.0</ele><time>2026-05-02T12:32:23.999Z</time></trkpt><trkpt lat="45.14402984681947" lon="5.609047144708901"><ele>1130.0</ele><time>2026-05-02T12:32:24.999Z</time></trkpt><trkpt lat="45.14425771965845" lon="5.608902584367762"><ele>1118.0</ele><time>2026-05-02T12:32:25.999Z</time></trkpt><trkpt lat="45.144472311369704" lon="5.608712034190547"><ele>1116.3333333333335</ele><time>2026-05-02T12:32:26.999Z</time></trkpt><trkpt lat="45.14466894166402" lon="5.608554368438941"><ele>1114.6666666666667</ele><time>2026-05-02T12:32:27.999Z</time></trkpt><trkpt lat="45.14484013747327" lon="5.6084071833780476"><ele>1113.0</ele><time>2026-05-02T12:32:28.999Z</time></trkpt><trkpt lat="45.14498519982736" lon="5.608270851788715"><ele>1113.0</ele><time>2026-05-02T12:32:29.999Z</time></trkpt><trkpt lat="45.14510124130524" lon="5.608132555294422"><ele>1113.0</ele><time>2026-05-02T12:32:30.999Z</time></trkpt><trkpt lat="45.14513282668166" lon="5.607943181401094"><ele>1113.0</ele><time>2026-05-02T12:32:31.999Z</time></trkpt><trkpt lat="45.145089052835836" lon="5.607742432393291"><ele>1113.0</ele><time>2026-05-02T12:32:32.999Z</time></trkpt><trkpt lat="45.144982589183975" lon="5.607583604244145"><ele>1115.3333333333333</ele><time>2026-05-02T12:32:33.999Z</time></trkpt><trkpt lat="45.14483468268837" lon="5.607488129468085"><ele>1117.6666666666665</ele><time>2026-05-02T12:32:34.999Z</time></trkpt><trkpt lat="45.14463715376857" lon="5.6074718165412865"><ele>1120.0</ele><time>2026-05-02T12:32:35.999Z</time></trkpt><trkpt lat="45.14441911780167" lon="5.607450748941491"><ele>1120.0</ele><time>2026-05-02T12:32:36.999Z</time></trkpt><trkpt lat="45.144205857797424" lon="5.607386512138464"><ele>1120.0</ele><time>2026-05-02T12:32:37.999Z</time></trkpt><trkpt lat="45.14399232959441" lon="5.607245892202659"><ele>1122.3333333333333</ele><time>2026-05-02T12:32:38.999Z</time></trkpt><trkpt lat="45.14379001456651" lon="5.607126584846767"><ele>1124.6666666666667</ele><time>2026-05-02T12:32:39.999Z</time></trkpt><trkpt lat="45.14357176486517" lon="5.607061729884438"><ele>1127.0</ele><time>2026-05-02T12:32:40.999Z</time></trkpt><trkpt lat="45.143357819833554" lon="5.607072815571266"><ele>1125.0</ele><time>2026-05-02T12:32:41.999Z</time></trkpt><trkpt lat="45.14314388475248" lon="5.607124012212626"><ele>1123.0</ele><time>2026-05-02T12:32:42.999Z</time></trkpt><trkpt lat="45.142942075566864" lon="5.607185498058841"><ele>1121.0</ele><time>2026-05-02T12:32:43.999Z</time></trkpt><trkpt lat="45.14276121399282" lon="5.607232716504725"><ele>1121.0</ele><time>2026-05-02T12:32:44.999Z</time></trkpt><trkpt lat="45.14257853482656" lon="5.6072550243104216"><ele>1121.0</ele><time>2026-05-02T12:32:45.999Z</time></trkpt><trkpt lat="45.1424101542207" lon="5.607285961328234"><ele>1121.0</ele><time>2026-05-02T12:32:46.999Z</time></trkpt><trkpt lat="45.142238034734916" lon="5.607315986060619"><ele>1121.0</ele><time>2026-05-02T12:32:47.999Z</time></trkpt><trkpt lat="45.14206613364965" lon="5.607333839903799"><ele>1121.0</ele><time>2026-05-02T12:32:48.999Z</time></trkpt><trkpt lat="45.14189993764419" lon="5.607335390045415"><ele>1121.0</ele><time>2026-05-02T12:32:49.999Z</time></trkpt><trkpt lat="45.14171772429544" lon="5.6072550962134"><ele>1121.0</ele><time>2026-05-02T12:32:50.999Z</time></trkpt><trkpt lat="45.14159069564857" lon="5.607070488569237"><ele>1121.0</ele><time>2026-05-02T12:32:51.999Z</time></trkpt><trkpt lat="45.14151506691959" lon="5.606854105545338"><ele>1121.0</ele><time>2026-05-02T12:32:52.999Z</time></trkpt><trkpt lat="45.14147680647724" lon="5.6065843298928035"><ele>1120.6666666666667</ele><time>2026-05-02T12:32:53.999Z</time></trkpt><trkpt lat="45.141408862644084" lon="5.606343411616222"><ele>1120.3333333333333</ele><time>2026-05-02T12:32:54.999Z</time></trkpt><trkpt lat="45.14128554678553" lon="5.606150864370026"><ele>1120.0</ele><time>2026-05-02T12:32:55.999Z</time></trkpt><trkpt lat="45.14109708981156" lon="5.6060025034729195"><ele>1112.0</ele><time>2026-05-02T12:32:56.999Z</time></trkpt><trkpt lat="45.140907250220884" lon="5.605893244693454"><ele>1104.0</ele><time>2026-05-02T12:32:57.999Z</time></trkpt><trkpt lat="45.14071573095289" lon="5.605811848942178"><ele>1096.0</ele><time>2026-05-02T12:32:58.999Z</time></trkpt><trkpt lat="45.14052014675491" lon="5.605725377202576"><ele>1095.6666666666665</ele><time>2026-05-02T12:33:00Z</time></trkpt><trkpt lat="45.14032328279106" lon="5.605656546620901"><ele>1095.3333333333333</ele><time>2026-05-02T12:33:01Z</time></trkpt><trkpt lat="45.140139306753035" lon="5.605628463639857"><ele>1095.0</ele><time>2026-05-02T12:33:02Z</time></trkpt><trkpt lat="45.139966109549036" lon="5.605634955812673"><ele>1097.6666666666667</ele><time>2026-05-02T12:33:03Z</time></trkpt><trkpt lat="45.139793271168934" lon="5.605684898053644"><ele>1100.3333333333335</ele><time>2026-05-02T12:33:04Z</time></trkpt><trkpt lat="45.139625625056496" lon="5.605804196078065"><ele>1103.0</ele><time>2026-05-02T12:33:05Z</time></trkpt><trkpt lat="45.139466033448464" lon="5.605951746837409"><ele>1103.0</ele><time>2026-05-02T12:33:06Z</time></trkpt><trkpt lat="45.1392891323942" lon="5.605998650082481"><ele>1103.0</ele><time>2026-05-02T12:33:07Z</time></trkpt><trkpt lat="45.13912004159216" lon="5.605953734379664"><ele>1103.0</ele><time>2026-05-02T12:33:08Z</time></trkpt><trkpt lat="45.13896845203925" lon="5.605824687322895"><ele>1103.0</ele><time>2026-05-02T12:33:09Z</time></trkpt><trkpt lat="45.13883359822709" lon="5.6056154923582975"><ele>1103.0</ele><time>2026-05-02T12:33:10Z</time></trkpt><trkpt lat="45.138687880220694" lon="5.605410992497682"><ele>1103.0</ele><time>2026-05-02T12:33:11Z</time></trkpt><trkpt lat="45.13854318770231" lon="5.605214210237968"><ele>1103.0</ele><time>2026-05-02T12:33:12Z</time></trkpt><trkpt lat="45.13839850547227" lon="5.605038883117482"><ele>1103.0</ele><time>2026-05-02T12:33:13Z</time></trkpt><trkpt lat="45.13825393319809" lon="5.6048496859134795"><ele>1103.0</ele><time>2026-05-02T12:33:14Z</time></trkpt><trkpt lat="45.13811811710575" lon="5.604655543510067"><ele>1096.6666666666667</ele><time>2026-05-02T12:33:15Z</time></trkpt><trkpt lat="45.137982597583324" lon="5.6044702536916144"><ele>1090.3333333333333</ele><time>2026-05-02T12:33:16Z</time></trkpt><trkpt lat="45.13782206084036" lon="5.604365234645225"><ele>1084.0</ele><time>2026-05-02T12:33:17Z</time></trkpt><trkpt lat="45.13765769343255" lon="5.6043214500498"><ele>1084.0</ele><time>2026-05-02T12:33:18Z</time></trkpt><trkpt lat="45.13748318292884" lon="5.604330481841256"><ele>1084.0</ele><time>2026-05-02T12:33:19Z</time></trkpt><trkpt lat="45.13732057526451" lon="5.60440330728142"><ele>1084.0</ele><time>2026-05-02T12:33:20Z</time></trkpt><trkpt lat="45.137162741821705" lon="5.604517186970769"><ele>1085.6666666666665</ele><time>2026-05-02T12:33:21Z</time></trkpt><trkpt lat="45.137013828195" lon="5.60467510580042"><ele>1087.3333333333333</ele><time>2026-05-02T12:33:22Z</time></trkpt><trkpt lat="45.13685770268671" lon="5.60485433578877"><ele>1089.0</ele><time>2026-05-02T12:33:23Z</time></trkpt><trkpt lat="45.13671807616689" lon="5.60505957288724"><ele>1089.0</ele><time>2026-05-02T12:33:24Z</time></trkpt><trkpt lat="45.1365965835765" lon="5.605254980734222"><ele>1089.0</ele><time>2026-05-02T12:33:25Z</time></trkpt><trkpt lat="45.13643599884917" lon="5.605377854482283"><ele>1089.0</ele><time>2026-05-02T12:33:26Z</time></trkpt><trkpt lat="45.13626174266001" lon="5.605426453083776"><ele>1091.0</ele><time>2026-05-02T12:33:27Z</time></trkpt><trkpt lat="45.136072860447165" lon="5.605370144618931"><ele>1093.0</ele><time>2026-05-02T12:33:28Z</time></trkpt><trkpt lat="45.13589333332012" lon="5.605359249507729"><ele>1095.0</ele><time>2026-05-02T12:33:29Z</time></trkpt><trkpt lat="45.135695281291326" lon="5.605413479212646"><ele>1095.0</ele><time>2026-05-02T12:33:30Z</time></trkpt><trkpt lat="45.13549761870099" lon="5.605504815050916"><ele>1095.0</ele><time>2026-05-02T12:33:31Z</time></trkpt><trkpt lat="45.13531272961348" lon="5.605571167443395"><ele>1095.0</ele><time>2026-05-02T12:33:32Z</time></trkpt><trkpt lat="45.13513235965613" lon="5.605545996258914"><ele>1095.0</ele><time>2026-05-02T12:33:33Z</time></trkpt><trkpt lat="45.13496595672071" lon="5.605435904676453"><ele>1095.0</ele><time>2026-05-02T12:33:34Z</time></trkpt><trkpt lat="45.134784278990494" lon="5.605307699833795"><ele>1095.0</ele><time>2026-05-02T12:33:35Z</time></trkpt><trkpt lat="45.13457704679781" lon="5.605154172188938"><ele>1090.6666666666667</ele><time>2026-05-02T12:33:36Z</time></trkpt><trkpt lat="45.13436152683234" lon="5.605034162773318"><ele>1086.3333333333335</ele><time>2026-05-02T12:33:37Z</time></trkpt><trkpt lat="45.134164210048326" lon="5.604912827067923"><ele>1082.0</ele><time>2026-05-02T12:33:38Z</time></trkpt><trkpt lat="45.1339638907649" lon="5.604834443103969"><ele>1082.0</ele><time>2026-05-02T12:33:39Z</time></trkpt><trkpt lat="45.13377889811979" lon="5.60477508909263"><ele>1082.0</ele><time>2026-05-02T12:33:40Z</time></trkpt><trkpt lat="45.13362885027446" lon="5.604619195688236"><ele>1082.0</ele><time>2026-05-02T12:33:41Z</time></trkpt><trkpt lat="45.13352930709844" lon="5.604413360038747"><ele>1078.0</ele><time>2026-05-02T12:33:42Z</time></trkpt><trkpt lat="45.13350196219327" lon="5.604206967883251"><ele>1074.0</ele><time>2026-05-02T12:33:43Z</time></trkpt><trkpt lat="45.13345131054007" lon="5.6039720003746325"><ele>1070.0</ele><time>2026-05-02T12:33:44Z</time></trkpt><trkpt lat="45.133371000110515" lon="5.603766648946974"><ele>1068.6666666666667</ele><time>2026-05-02T12:33:45Z</time></trkpt><trkpt lat="45.1332319612992" lon="5.6035984775125955"><ele>1067.3333333333333</ele><time>2026-05-02T12:33:46Z</time></trkpt><trkpt lat="45.13309833466373" lon="5.603394327537694"><ele>1066.0</ele><time>2026-05-02T12:33:47Z</time></trkpt><trkpt lat="45.13294132218356" lon="5.603166880621305"><ele>1064.5</ele><time>2026-05-02T12:33:48Z</time></trkpt><trkpt lat="45.13278367833323" lon="5.602892361828621"><ele>1063.0</ele><time>2026-05-02T12:33:49Z</time></trkpt><trkpt lat="45.13264085649852" lon="5.602653731472108"><ele>1063.0</ele><time>2026-05-02T12:33:50Z</time></trkpt><trkpt lat="45.132534781785075" lon="5.602420670089981"><ele>1063.0</ele><time>2026-05-02T12:33:51Z</time></trkpt><trkpt lat="45.132431745316524" lon="5.6022349909342255"><ele>1063.0</ele><time>2026-05-02T12:33:52Z</time></trkpt><trkpt lat="45.13233973409319" lon="5.602101208770834"><ele>1063.0</ele><time>2026-05-02T12:33:53Z</time></trkpt><trkpt lat="45.13225752993406" lon="5.601948049961929"><ele>1063.0</ele><time>2026-05-02T12:33:54Z</time></trkpt><trkpt lat="45.13212934748368" lon="5.601839001333705"><ele>1063.0</ele><time>2026-05-02T12:33:55Z</time></trkpt><trkpt lat="45.13198088465798" lon="5.601752530323825"><ele>1063.0</ele><time>2026-05-02T12:33:56Z</time></trkpt><trkpt lat="45.13185935393686" lon="5.6016937613498365"><ele>1059.5</ele><time>2026-05-02T12:33:57Z</time></trkpt><trkpt lat="45.13153154066854" lon="5.601326468777023"><ele>1056.0</ele><time>2026-05-02T12:33:58Z</time></trkpt><trkpt lat="45.13142125811089" lon="5.601127890020526"><ele>1056.0</ele><time>2026-05-02T12:33:58.999Z</time></trkpt><trkpt lat="45.131298608051594" lon="5.600980054606019"><ele>1056.0</ele><time>2026-05-02T12:33:59.999Z</time></trkpt><trkpt lat="45.13114672868939" lon="5.600895657633273"><ele>1056.0</ele><time>2026-05-02T12:34:00.999Z</time></trkpt><trkpt lat="45.130975957230454" lon="5.600901804005248"><ele>1056.0</ele><time>2026-05-02T12:34:01.999Z</time></trkpt><trkpt lat="45.13081167063276" lon="5.600988096330538"><ele>1056.0</ele><time>2026-05-02T12:34:02.999Z</time></trkpt><trkpt lat="45.13064174785695" lon="5.601038530668214"><ele>1056.0</ele><time>2026-05-02T12:34:03.999Z</time></trkpt><trkpt lat="45.13051778420122" lon="5.600882839781898"><ele>1054.0</ele><time>2026-05-02T12:34:04.999Z</time></trkpt><trkpt lat="45.13040368596216" lon="5.600695034398536"><ele>1052.0</ele><time>2026-05-02T12:34:05.999Z</time></trkpt><trkpt lat="45.13034353889133" lon="5.600450805248837"><ele>1050.0</ele><time>2026-05-02T12:34:06.999Z</time></trkpt><trkpt lat="45.13029770370599" lon="5.600156279927789"><ele>1050.0</ele><time>2026-05-02T12:34:07.999Z</time></trkpt><trkpt lat="45.130218322063556" lon="5.599873265713155"><ele>1050.0</ele><time>2026-05-02T12:34:08.999Z</time></trkpt><trkpt lat="45.13009649799381" lon="5.599644663012734"><ele>1050.0</ele><time>2026-05-02T12:34:09.999Z</time></trkpt><trkpt lat="45.12993518989636" lon="5.599463165071788"><ele>1049.6666666666667</ele><time>2026-05-02T12:34:10.999Z</time></trkpt><trkpt lat="45.129742025155295" lon="5.599331758163019"><ele>1049.3333333333335</ele><time>2026-05-02T12:34:11.999Z</time></trkpt><trkpt lat="45.12954242482319" lon="5.599216961855156"><ele>1049.0</ele><time>2026-05-02T12:34:12.999Z</time></trkpt><trkpt lat="45.12934693190151" lon="5.59910692960019"><ele>1049.0</ele><time>2026-05-02T12:34:13.999Z</time></trkpt><trkpt lat="45.1291432400518" lon="5.599053547329776"><ele>1049.0</ele><time>2026-05-02T12:34:14.999Z</time></trkpt><trkpt lat="45.12892322159291" lon="5.59906465233212"><ele>1049.0</ele><time>2026-05-02T12:34:15.999Z</time></trkpt><trkpt lat="45.128704714996616" lon="5.599108388057702"><ele>1048.0</ele><time>2026-05-02T12:34:16.999Z</time></trkpt><trkpt lat="45.12849673251692" lon="5.59919419438796"><ele>1047.0</ele><time>2026-05-02T12:34:17.999Z</time></trkpt><trkpt lat="45.128295798373905" lon="5.599314990163357"><ele>1046.0</ele><time>2026-05-02T12:34:18.999Z</time></trkpt><trkpt lat="45.128110309628106" lon="5.599419322498891"><ele>1043.3333333333335</ele><time>2026-05-02T12:34:19.999Z</time></trkpt><trkpt lat="45.12792730464473" lon="5.599455069084509"><ele>1040.6666666666667</ele><time>2026-05-02T12:34:20.999Z</time></trkpt><trkpt lat="45.12777925738165" lon="5.599338392765592"><ele>1038.0</ele><time>2026-05-02T12:34:21.999Z</time></trkpt><trkpt lat="45.12764026379297" lon="5.599262316512088"><ele>1038.0</ele><time>2026-05-02T12:34:22.999Z</time></trkpt><trkpt lat="45.12750861801054" lon="5.599187142165318"><ele>1038.0</ele><time>2026-05-02T12:34:23.999Z</time></trkpt><trkpt lat="45.12737849345274" lon="5.599112466537483"><ele>1038.0</ele><time>2026-05-02T12:34:24.999Z</time></trkpt><trkpt lat="45.127260000135095" lon="5.599048997615496"><ele>1038.0</ele><time>2026-05-02T12:34:25.999Z</time></trkpt><trkpt lat="45.12714880240267" lon="5.59900928178256"><ele>1038.2</ele><time>2026-05-02T12:34:26.999Z</time></trkpt><trkpt lat="45.12705298722448" lon="5.598954726259927"><ele>1038.4</ele><time>2026-05-02T12:34:27.999Z</time></trkpt><trkpt lat="45.12696550324865" lon="5.5988942521690435"><ele>1038.6000000000001</ele><time>2026-05-02T12:34:28.999Z</time></trkpt><trkpt lat="45.126889538995684" lon="5.598838820864016"><ele>1038.8</ele><time>2026-05-02T12:34:29.999Z</time></trkpt><trkpt lat="45.12681618125706" lon="5.598792056952152"><ele>1039.0</ele><time>2026-05-02T12:34:30.999Z</time></trkpt><trkpt lat="45.12673221168628" lon="5.598737545442766"><ele>1039.0</ele><time>2026-05-02T12:34:31.999Z</time></trkpt><trkpt lat="45.12664319583737" lon="5.59867275871744"><ele>1039.0</ele><time>2026-05-02T12:34:32.999Z</time></trkpt><trkpt lat="45.12656517893615" lon="5.598580351242157"><ele>1039.0</ele><time>2026-05-02T12:34:33.999Z</time></trkpt><trkpt lat="45.126483084125276" lon="5.598477646378055"><ele>1039.0</ele><time>2026-05-02T12:34:34.999Z</time></trkpt><trkpt lat="45.126411284977664" lon="5.598363751558564"><ele>1039.0</ele><time>2026-05-02T12:34:35.999Z</time></trkpt><trkpt lat="45.1263418550688" lon="5.598228985266752"><ele>1038.75</ele><time>2026-05-02T12:34:36.999Z</time></trkpt><trkpt lat="45.126312784174175" lon="5.598062525939678"><ele>1038.5</ele><time>2026-05-02T12:34:37.999Z</time></trkpt><trkpt lat="45.12627895239162" lon="5.597885030983302"><ele>1038.25</ele><time>2026-05-02T12:34:38.999Z</time></trkpt><trkpt lat="45.12626489513444" lon="5.597704746465287"><ele>1038.0</ele><time>2026-05-02T12:34:39.999Z</time></trkpt><trkpt lat="45.1262747469159" lon="5.597529873464988"><ele>1038.0</ele><time>2026-05-02T12:34:40.999Z</time></trkpt><trkpt lat="45.12628889231711" lon="5.597340973063202"><ele>1038.0</ele><time>2026-05-02T12:34:41.999Z</time></trkpt><trkpt lat="45.12630603154269" lon="5.597159322586867"><ele>1038.0</ele><time>2026-05-02T12:34:42.999Z</time></trkpt><trkpt lat="45.126322085797526" lon="5.596991732255201"><ele>1038.0</ele><time>2026-05-02T12:34:43.999Z</time></trkpt><trkpt lat="45.12633723784157" lon="5.596837501775887"><ele>1037.0</ele><time>2026-05-02T12:34:44.999Z</time></trkpt><trkpt lat="45.12634045909686" lon="5.596697478797584"><ele>1036.0</ele><time>2026-05-02T12:34:45.999Z</time></trkpt><trkpt lat="45.12635364026464" lon="5.596566801254915"><ele>1035.0</ele><time>2026-05-02T12:34:46.999Z</time></trkpt><trkpt lat="45.12636504842994" lon="5.59643019109303"><ele>1034.0</ele><time>2026-05-02T12:34:47.999Z</time></trkpt><trkpt lat="45.126377671900165" lon="5.596291289061655"><ele>1033.0</ele><time>2026-05-02T12:34:48.999Z</time></trkpt><trkpt lat="45.1263863335298" lon="5.596143792008487"><ele>1032.5</ele><time>2026-05-02T12:34:49.999Z</time></trkpt><trkpt lat="45.126391646924695" lon="5.5959829575905085"><ele>1032.0</ele><time>2026-05-02T12:34:50.999Z</time></trkpt><trkpt lat="45.126397643341086" lon="5.595810112040955"><ele>1031.5</ele><time>2026-05-02T12:34:51.999Z</time></trkpt><trkpt lat="45.12644159168313" lon="5.595648587559623"><ele>1031.0</ele><time>2026-05-02T12:34:52.999Z</time></trkpt><trkpt lat="45.12648732598379" lon="5.5954941507002935"><ele>1030.75</ele><time>2026-05-02T12:34:53.999Z</time></trkpt><trkpt lat="45.12656124145119" lon="5.595345170899372"><ele>1030.5</ele><time>2026-05-02T12:34:54.999Z</time></trkpt><trkpt lat="45.126636544725436" lon="5.595201772857984"><ele>1030.25</ele><time>2026-05-02T12:34:55.999Z</time></trkpt><trkpt lat="45.12670448380504" lon="5.595050123057524"><ele>1030.0</ele><time>2026-05-02T12:34:56.999Z</time></trkpt><trkpt lat="45.12676018957072" lon="5.5948911180805485"><ele>1029.5</ele><time>2026-05-02T12:34:57.999Z</time></trkpt><trkpt lat="45.126810179300705" lon="5.594730721932032"><ele>1029.0</ele><time>2026-05-02T12:34:58.999Z</time></trkpt><trkpt lat="45.12685666421799" lon="5.5945663556693646"><ele>1028.5</ele><time>2026-05-02T12:34:59.999Z</time></trkpt><trkpt lat="45.126907376676776" lon="5.594400438361718"><ele>1028.0</ele><time>2026-05-02T12:35:00.999Z</time></trkpt><trkpt lat="45.12696008195865" lon="5.594231901808234"><ele>1028.0</ele><time>2026-05-02T12:35:01.999Z</time></trkpt><trkpt lat="45.127006824658665" lon="5.594066830880107"><ele>1028.0</ele><time>2026-05-02T12:35:02.999Z</time></trkpt><trkpt lat="45.1270577254822" lon="5.59389803484148"><ele>1028.0</ele><time>2026-05-02T12:35:03.999Z</time></trkpt><trkpt lat="45.127109147886436" lon="5.593727186544703"><ele>1028.0</ele><time>2026-05-02T12:35:04.999Z</time></trkpt><trkpt lat="45.12715915697756" lon="5.593556248897009"><ele>1027.75</ele><time>2026-05-02T12:35:06Z</time></trkpt><trkpt lat="45.12720736779799" lon="5.593384242155694"><ele>1027.5</ele><time>2026-05-02T12:35:07Z</time></trkpt><trkpt lat="45.1272610757337" lon="5.59321839647721"><ele>1027.25</ele><time>2026-05-02T12:35:08Z</time></trkpt><trkpt lat="45.127308996304585" lon="5.593047331498432"><ele>1027.0</ele><time>2026-05-02T12:35:09Z</time></trkpt><trkpt lat="45.127351996097275" lon="5.59287688380089"><ele>1026.0</ele><time>2026-05-02T12:35:10Z</time></trkpt><trkpt lat="45.12739700341894" lon="5.592708409747034"><ele>1025.0</ele><time>2026-05-02T12:35:11Z</time></trkpt><trkpt lat="45.12744222840957" lon="5.592541339827319"><ele>1024.0</ele><time>2026-05-02T12:35:12Z</time></trkpt><trkpt lat="45.127488852020235" lon="5.5923762850172585"><ele>1023.0</ele><time>2026-05-02T12:35:13Z</time></trkpt><trkpt lat="45.127526801325985" lon="5.5922269862684635"><ele>1023.0</ele><time>2026-05-02T12:35:14Z</time></trkpt><trkpt lat="45.12755993788056" lon="5.592082723347451"><ele>1023.0</ele><time>2026-05-02T12:35:15Z</time></trkpt><trkpt lat="45.12759964829974" lon="5.591940901403427"><ele>1023.0</ele><time>2026-05-02T12:35:16Z</time></trkpt><trkpt lat="45.1276295278251" lon="5.591817510392233"><ele>1023.0</ele><time>2026-05-02T12:35:17Z</time></trkpt><trkpt lat="45.127656091632794" lon="5.591709091902839"><ele>1023.0</ele><time>2026-05-02T12:35:18Z</time></trkpt><trkpt lat="45.12769799883688" lon="5.591604446923778"><ele>1022.5999999999999</ele><time>2026-05-02T12:35:19Z</time></trkpt><trkpt lat="45.1277078607994" lon="5.591473987058303"><ele>1022.1999999999999</ele><time>2026-05-02T12:35:20Z</time></trkpt><trkpt lat="45.12773032100263" lon="5.591337100882353"><ele>1021.8</ele><time>2026-05-02T12:35:21Z</time></trkpt><trkpt lat="45.127776586279154" lon="5.591206385989123"><ele>1021.4</ele><time>2026-05-02T12:35:22Z</time></trkpt><trkpt lat="45.12779932518828" lon="5.591061811124078"><ele>1021.0</ele><time>2026-05-02T12:35:23Z</time></trkpt><trkpt lat="45.12783400208675" lon="5.5909285438098415"><ele>1020.8</ele><time>2026-05-02T12:35:24Z</time></trkpt><trkpt lat="45.12787291497051" lon="5.590794495842527"><ele>1020.5999999999999</ele><time>2026-05-02T12:35:25Z</time></trkpt><trkpt lat="45.12791389148531" lon="5.590663858815249"><ele>1020.4</ele><time>2026-05-02T12:35:26Z</time></trkpt><trkpt lat="45.12794908336766" lon="5.590527865206564"><ele>1020.2</ele><time>2026-05-02T12:35:27Z</time></trkpt><trkpt lat="45.127987987285806" lon="5.590386436149188"><ele>1020.0</ele><time>2026-05-02T12:35:28Z</time></trkpt><trkpt lat="45.12801514802435" lon="5.590243798608608"><ele>1020.0</ele><time>2026-05-02T12:35:29Z</time></trkpt><trkpt lat="45.12804411045059" lon="5.590106500413487"><ele>1020.0</ele><time>2026-05-02T12:35:30Z</time></trkpt><trkpt lat="45.12807477227644" lon="5.58995397967872"><ele>1020.0</ele><time>2026-05-02T12:35:31Z</time></trkpt><trkpt lat="45.128096063002026" lon="5.589807715694151"><ele>1020.0</ele><time>2026-05-02T12:35:32Z</time></trkpt><trkpt lat="45.1281166992062" lon="5.589657536083289"><ele>1020.0</ele><time>2026-05-02T12:35:33Z</time></trkpt><trkpt lat="45.1281310595617" lon="5.589504005847551"><ele>1020.0</ele><time>2026-05-02T12:35:34Z</time></trkpt><trkpt lat="45.12814842487956" lon="5.5893573349371275"><ele>1020.0</ele><time>2026-05-02T12:35:35Z</time></trkpt><trkpt lat="45.128163152967666" lon="5.589212015200232"><ele>1020.0</ele><time>2026-05-02T12:35:36Z</time></trkpt><trkpt lat="45.12818477553903" lon="5.58906497959285"><ele>1020.0</ele><time>2026-05-02T12:35:37Z</time></trkpt><trkpt lat="45.128204525743804" lon="5.588925189993271"><ele>1020.0</ele><time>2026-05-02T12:35:38Z</time></trkpt><trkpt lat="45.128228112456206" lon="5.588784531411726"><ele>1019.2</ele><time>2026-05-02T12:35:39Z</time></trkpt><trkpt lat="45.1282573185626" lon="5.588649027883521"><ele>1018.4</ele><time>2026-05-02T12:35:40Z</time></trkpt><trkpt lat="45.12829333578921" lon="5.5885160986707065"><ele>1017.5999999999999</ele><time>2026-05-02T12:35:41Z</time></trkpt><trkpt lat="45.128327137082195" lon="5.588390968404619"><ele>1016.8</ele><time>2026-05-02T12:35:42Z</time></trkpt><trkpt lat="45.12836657337707" lon="5.588261412606954"><ele>1016.0</ele><time>2026-05-02T12:35:43Z</time></trkpt><trkpt lat="45.12840575211907" lon="5.5881425057954885"><ele>1016.0</ele><time>2026-05-02T12:35:44Z</time></trkpt><trkpt lat="45.12844653932224" lon="5.588014731844815"><ele>1015.9999999999999</ele><time>2026-05-02T12:35:45Z</time></trkpt><trkpt lat="45.12848823656369" lon="5.5878927412873445"><ele>1015.9999999999999</ele><time>2026-05-02T12:35:46Z</time></trkpt><trkpt lat="45.12852246903658" lon="5.587770918767073"><ele>1016.0</ele><time>2026-05-02T12:35:47Z</time></trkpt><trkpt lat="45.128562146307715" lon="5.587638715634771"><ele>1016.0</ele><time>2026-05-02T12:35:48Z</time></trkpt><trkpt lat="45.12859805506665" lon="5.58751149873087"><ele>1016.0</ele><time>2026-05-02T12:35:49Z</time></trkpt><trkpt lat="45.128639131635914" lon="5.587360840064585"><ele>1016.0</ele><time>2026-05-02T12:35:50Z</time></trkpt><trkpt lat="45.128682493636084" lon="5.587215908966546"><ele>1016.0</ele><time>2026-05-02T12:35:51Z</time></trkpt><trkpt lat="45.12873122616016" lon="5.587070894485071"><ele>1016.0</ele><time>2026-05-02T12:35:52Z</time></trkpt><trkpt lat="45.12877365181894" lon="5.58691264560951"><ele>1016.25</ele><time>2026-05-02T12:35:53Z</time></trkpt><trkpt lat="45.12881782326407" lon="5.58675033528397"><ele>1016.5</ele><time>2026-05-02T12:35:54Z</time></trkpt><trkpt lat="45.12886950775191" lon="5.586583266001572"><ele>1016.75</ele><time>2026-05-02T12:35:55Z</time></trkpt><trkpt lat="45.12892099504139" lon="5.586425486899334"><ele>1017.0</ele><time>2026-05-02T12:35:56Z</time></trkpt><trkpt lat="45.12897088136213" lon="5.58626403014003"><ele>1016.0</ele><time>2026-05-02T12:35:57Z</time></trkpt><trkpt lat="45.12901553424512" lon="5.586105384445807"><ele>1015.0</ele><time>2026-05-02T12:35:58Z</time></trkpt><trkpt lat="45.12905491767894" lon="5.585972800468117"><ele>1014.0</ele><time>2026-05-02T12:35:59Z</time></trkpt><trkpt lat="45.12909058231815" lon="5.585855322481879"><ele>1013.0</ele><time>2026-05-02T12:36:00Z</time></trkpt><trkpt lat="45.12912424375438" lon="5.5857318925574955"><ele>1012.0</ele><time>2026-05-02T12:36:01Z</time></trkpt><trkpt lat="45.12916292902518" lon="5.585600431253145"><ele>1012.0</ele><time>2026-05-02T12:36:02Z</time></trkpt><trkpt lat="45.12920402206206" lon="5.5854672048239955"><ele>1012.0</ele><time>2026-05-02T12:36:03Z</time></trkpt><trkpt lat="45.129242926753435" lon="5.585328366295626"><ele>1012.0</ele><time>2026-05-02T12:36:03.999Z</time></trkpt><trkpt lat="45.12928451493095" lon="5.585191398536322"><ele>1012.0</ele><time>2026-05-02T12:36:04.999Z</time></trkpt><trkpt lat="45.129331140225894" lon="5.585037642252442"><ele>1012.0</ele><time>2026-05-02T12:36:05.999Z</time></trkpt><trkpt lat="45.12938081573128" lon="5.584873928715982"><ele>1012.0</ele><time>2026-05-02T12:36:06.999Z</time></trkpt><trkpt lat="45.12943475151673" lon="5.584699547038134"><ele>1012.0</ele><time>2026-05-02T12:36:07.999Z</time></trkpt><trkpt lat="45.12948834174209" lon="5.584523352914563"><ele>1012.0</ele><time>2026-05-02T12:36:08.999Z</time></trkpt><trkpt lat="45.12954165831767" lon="5.584345238807229"><ele>1012.0</ele><time>2026-05-02T12:36:09.999Z</time></trkpt><trkpt lat="45.12959695661943" lon="5.584164279786607"><ele>1011.75</ele><time>2026-05-02T12:36:10.999Z</time></trkpt><trkpt lat="45.12964896025773" lon="5.583978291627443"><ele>1011.5</ele><time>2026-05-02T12:36:11.999Z</time></trkpt><trkpt lat="45.129707592131986" lon="5.583797735680424"><ele>1011.25</ele><time>2026-05-02T12:36:12.999Z</time></trkpt><trkpt lat="45.12976331544794" lon="5.583617101508214"><ele>1011.0</ele><time>2026-05-02T12:36:13.999Z</time></trkpt><trkpt lat="45.12981803321506" lon="5.583430302781921"><ele>1010.25</ele><time>2026-05-02T12:36:14.999Z</time></trkpt><trkpt lat="45.1298721901444" lon="5.583243262092086"><ele>1009.5</ele><time>2026-05-02T12:36:15.999Z</time></trkpt><trkpt lat="45.1299308675257" lon="5.583062453719688"><ele>1008.75</ele><time>2026-05-02T12:36:16.999Z</time></trkpt><trkpt lat="45.129983607918916" lon="5.582884650310502"><ele>1008.0</ele><time>2026-05-02T12:36:17.999Z</time></trkpt><trkpt lat="45.13002826656513" lon="5.582724988260057"><ele>1007.6666666666666</ele><time>2026-05-02T12:36:18.999Z</time></trkpt><trkpt lat="45.130073920689" lon="5.582594169587155"><ele>1007.3333333333333</ele><time>2026-05-02T12:36:19.999Z</time></trkpt><trkpt lat="45.13012679310303" lon="5.582483740853278"><ele>1007.0</ele><time>2026-05-02T12:36:20.999Z</time></trkpt><trkpt lat="45.130183527785185" lon="5.5823950445428645"><ele>1006.6666666666666</ele><time>2026-05-02T12:36:21.999Z</time></trkpt><trkpt lat="45.13024536472934" lon="5.582317918962778"><ele>1006.3333333333333</ele><time>2026-05-02T12:36:22.999Z</time></trkpt><trkpt lat="45.13031183764251" lon="5.582250400904853"><ele>1006.0</ele><time>2026-05-02T12:36:23.999Z</time></trkpt><trkpt lat="45.130385496432794" lon="5.582196578389527"><ele>1006.0</ele><time>2026-05-02T12:36:24.999Z</time></trkpt><trkpt lat="45.13046001990156" lon="5.582168989474568"><ele>1006.0000000000001</ele><time>2026-05-02T12:36:25.999Z</time></trkpt><trkpt lat="45.130534820712874" lon="5.582156858305948"><ele>1006.0</ele><time>2026-05-02T12:36:26.999Z</time></trkpt><trkpt lat="45.13060589343375" lon="5.5821495131876215"><ele>1006.0</ele><time>2026-05-02T12:36:27.999Z</time></trkpt><trkpt lat="45.13067801478799" lon="5.582129844584026"><ele>1006.0000000000001</ele><time>2026-05-02T12:36:28.999Z</time></trkpt><trkpt lat="45.13074706201245" lon="5.58208656471007"><ele>1006.0</ele><time>2026-05-02T12:36:29.999Z</time></trkpt><trkpt lat="45.1308040343686" lon="5.5820195728648745"><ele>1006.0</ele><time>2026-05-02T12:36:30.999Z</time></trkpt><trkpt lat="45.130847602000514" lon="5.581944369795892"><ele>1005.4999999999999</ele><time>2026-05-02T12:36:31.999Z</time></trkpt><trkpt lat="45.130899576356725" lon="5.581880891529119"><ele>1005.0</ele><time>2026-05-02T12:36:32.999Z</time></trkpt><trkpt lat="45.13097222848066" lon="5.581831824652104"><ele>1004.5</ele><time>2026-05-02T12:36:33.999Z</time></trkpt><trkpt lat="45.13105230773892" lon="5.581769685485008"><ele>1004.0</ele><time>2026-05-02T12:36:34.999Z</time></trkpt><trkpt lat="45.13109091243403" lon="5.581662881122221"><ele>1003.4999999999999</ele><time>2026-05-02T12:36:35.999Z</time></trkpt><trkpt lat="45.131082543896234" lon="5.581534688472975"><ele>1003.0</ele><time>2026-05-02T12:36:36.999Z</time></trkpt><trkpt lat="45.13104196318519" lon="5.581427271224456"><ele>1002.9999999999999</ele><time>2026-05-02T12:36:37.999Z</time></trkpt><trkpt lat="45.13096942379053" lon="5.581369061884106"><ele>1003.0</ele><time>2026-05-02T12:36:38.999Z</time></trkpt><trkpt lat="45.1308744777484" lon="5.5814071450269696"><ele>1003.0</ele><time>2026-05-02T12:36:39.999Z</time></trkpt><trkpt lat="45.130801572072194" lon="5.581457038678959"><ele>1003.0</ele><time>2026-05-02T12:36:40.999Z</time></trkpt><trkpt lat="45.13074118792412" lon="5.581503267365985"><ele>1002.9999999999999</ele><time>2026-05-02T12:36:41.999Z</time></trkpt><trkpt lat="45.13067618769754" lon="5.581511413015946"><ele>1003.0</ele><time>2026-05-02T12:36:42.999Z</time></trkpt><trkpt lat="45.13056615632695" lon="5.581413696369212"><ele>1003.5999999999999</ele><time>2026-05-02T12:36:44.999Z</time></trkpt><trkpt lat="45.130530756732774" lon="5.581259900877376"><ele>1004.1999999999999</ele><time>2026-05-02T12:36:46.999Z</time></trkpt><trkpt lat="45.13055463458066" lon="5.581119240445553"><ele>1004.8</ele><time>2026-05-02T12:36:48.999Z</time></trkpt><trkpt lat="45.13053621763475" lon="5.5809964237392"><ele>1005.4</ele><time>2026-05-02T12:36:50.999Z</time></trkpt><trkpt lat="45.13050050344197" lon="5.580905661491197"><ele>1006.0</ele><time>2026-05-02T12:36:51.999Z</time></trkpt><trkpt lat="45.13044261255305" lon="5.5808338588356445"><ele>1006.0</ele><time>2026-05-02T12:36:52.999Z</time></trkpt><trkpt lat="45.13036381106843" lon="5.5807868900272615"><ele>1006.0</ele><time>2026-05-02T12:36:53.999Z</time></trkpt><trkpt lat="45.13026494204525" lon="5.580759070338022"><ele>1006.0</ele><time>2026-05-02T12:36:54.999Z</time></trkpt><trkpt lat="45.13015002451877" lon="5.580674012096004"><ele>1006.0</ele><time>2026-05-02T12:36:55.999Z</time></trkpt><trkpt lat="45.13002593888701" lon="5.580582935399201"><ele>1006.0</ele><time>2026-05-02T12:36:56.999Z</time></trkpt><trkpt lat="45.129903506945304" lon="5.580488470802522"><ele>1006.0</ele><time>2026-05-02T12:36:57.999Z</time></trkpt><trkpt lat="45.12977388993708" lon="5.580408140506016"><ele>1006.0</ele><time>2026-05-02T12:36:58.999Z</time></trkpt><trkpt lat="45.12966167315749" lon="5.5803007641442"><ele>1006.0</ele><time>2026-05-02T12:36:59.999Z</time></trkpt><trkpt lat="45.129537377203405" lon="5.58022165714092"><ele>1006.3333333333333</ele><time>2026-05-02T12:37:00.999Z</time></trkpt><trkpt lat="45.12941647632991" lon="5.580102120616461"><ele>1006.6666666666667</ele><time>2026-05-02T12:37:01.999Z</time></trkpt><trkpt lat="45.12927978039529" lon="5.580009960700936"><ele>1007.0</ele><time>2026-05-02T12:37:02.999Z</time></trkpt><trkpt lat="45.12914242833878" lon="5.579904715821708"><ele>1005.6666666666667</ele><time>2026-05-02T12:37:03.999Z</time></trkpt><trkpt lat="45.1290170112179" lon="5.579792275709994"><ele>1004.3333333333333</ele><time>2026-05-02T12:37:04.999Z</time></trkpt><trkpt lat="45.128879913213616" lon="5.579687132463958"><ele>1003.0</ele><time>2026-05-02T12:37:05.999Z</time></trkpt><trkpt lat="45.12873561882284" lon="5.579576940927426"><ele>1003.0</ele><time>2026-05-02T12:37:06.999Z</time></trkpt><trkpt lat="45.12859714155588" lon="5.579465027008079"><ele>1003.0</ele><time>2026-05-02T12:37:07.998Z</time></trkpt><trkpt lat="45.12845621476965" lon="5.579351089018357"><ele>1003.0</ele><time>2026-05-02T12:37:08.998Z</time></trkpt><trkpt lat="45.12831375604022" lon="5.579240405755277"><ele>1002.6666666666666</ele><time>2026-05-02T12:37:09.998Z</time></trkpt><trkpt lat="45.1281671255569" lon="5.579138808357094"><ele>1002.3333333333333</ele><time>2026-05-02T12:37:10.998Z</time></trkpt><trkpt lat="45.12801589489984" lon="5.579025684593124"><ele>1002.0</ele><time>2026-05-02T12:37:12Z</time></trkpt><trkpt lat="45.12787183849926" lon="5.578904270578396"><ele>1002.0</ele><time>2026-05-02T12:37:13Z</time></trkpt><trkpt lat="45.12771372437279" lon="5.578782202911037"><ele>1002.0</ele><time>2026-05-02T12:37:14Z</time></trkpt><trkpt lat="45.127553877215014" lon="5.578658673692481"><ele>1002.0</ele><time>2026-05-02T12:37:15Z</time></trkpt><trkpt lat="45.12739823956926" lon="5.578535982411629"><ele>1001.3333333333333</ele><time>2026-05-02T12:37:16Z</time></trkpt><trkpt lat="45.127243270496564" lon="5.578413075990238"><ele>1000.6666666666666</ele><time>2026-05-02T12:37:17Z</time></trkpt><trkpt lat="45.127080582846745" lon="5.578288212957738"><ele>1000.0</ele><time>2026-05-02T12:37:18Z</time></trkpt><trkpt lat="45.12691856684432" lon="5.578163572676122"><ele>1000.0</ele><time>2026-05-02T12:37:19Z</time></trkpt><trkpt lat="45.126755970255644" lon="5.57803964737209"><ele>1000.0</ele><time>2026-05-02T12:37:20Z</time></trkpt><trkpt lat="45.12659126131917" lon="5.5779142444398415"><ele>1000.0</ele><time>2026-05-02T12:37:21Z</time></trkpt><trkpt lat="45.12642123350285" lon="5.577788157752758"><ele>1000.6666666666666</ele><time>2026-05-02T12:37:22Z</time></trkpt><trkpt lat="45.12625398509545" lon="5.577657640981147"><ele>1001.3333333333333</ele><time>2026-05-02T12:37:23Z</time></trkpt><trkpt lat="45.12609107285198" lon="5.577525096052051"><ele>1002.0</ele><time>2026-05-02T12:37:24Z</time></trkpt><trkpt lat="45.12592948213594" lon="5.5773979609423385"><ele>1002.0</ele><time>2026-05-02T12:37:25Z</time></trkpt><trkpt lat="45.12576318695787" lon="5.577269691794027"><ele>1002.0</ele><time>2026-05-02T12:37:26Z</time></trkpt><trkpt lat="45.125591461403445" lon="5.577140346036859"><ele>1002.0</ele><time>2026-05-02T12:37:27Z</time></trkpt><trkpt lat="45.12542533097792" lon="5.5770091100803425"><ele>1002.0</ele><time>2026-05-02T12:37:28Z</time></trkpt><trkpt lat="45.12525670449015" lon="5.57687666908551"><ele>1002.0</ele><time>2026-05-02T12:37:29Z</time></trkpt><trkpt lat="45.12509354348118" lon="5.576747195811429"><ele>1002.0</ele><time>2026-05-02T12:37:30Z</time></trkpt><trkpt lat="45.12492758304911" lon="5.576610195800899"><ele>1001.5</ele><time>2026-05-02T12:37:31Z</time></trkpt><trkpt lat="45.124755851537614" lon="5.5764714524176044"><ele>1001.0</ele><time>2026-05-02T12:37:32Z</time></trkpt><trkpt lat="45.124509137795165" lon="5.5762823601891425"><ele>1001.3333333333334</ele><time>2026-05-02T12:37:33Z</time></trkpt><trkpt lat="45.12431305056409" lon="5.576131282384388"><ele>1001.6666666666667</ele><time>2026-05-02T12:37:34Z</time></trkpt><trkpt lat="45.124122120657105" lon="5.575981745575029"><ele>1002.0</ele><time>2026-05-02T12:37:35Z</time></trkpt><trkpt lat="45.123940984248684" lon="5.575806454921676"><ele>999.0</ele><time>2026-05-02T12:37:36Z</time></trkpt><trkpt lat="45.123748845033774" lon="5.575655676322281"><ele>996.0</ele><time>2026-05-02T12:37:37Z</time></trkpt><trkpt lat="45.123552237755284" lon="5.575501247613557"><ele>993.0</ele><time>2026-05-02T12:37:38Z</time></trkpt><trkpt lat="45.1233506227701" lon="5.575367212514128"><ele>996.5</ele><time>2026-05-02T12:37:39Z</time></trkpt><trkpt lat="45.1231526212603" lon="5.575209915822346"><ele>1000.0</ele><time>2026-05-02T12:37:40Z</time></trkpt><trkpt lat="45.122946651612146" lon="5.575048979067478"><ele>1000.0</ele><time>2026-05-02T12:37:41Z</time></trkpt><trkpt lat="45.122746143568015" lon="5.574889025434221"><ele>1000.0</ele><time>2026-05-02T12:37:42Z</time></trkpt><trkpt lat="45.122537843532236" lon="5.574727183418353"><ele>999.5</ele><time>2026-05-02T12:37:43Z</time></trkpt><trkpt lat="45.122338960034824" lon="5.574570595467073"><ele>999.0</ele><time>2026-05-02T12:37:44Z</time></trkpt><trkpt lat="45.12213538913512" lon="5.574406738428354"><ele>999.0</ele><time>2026-05-02T12:37:45Z</time></trkpt><trkpt lat="45.12193270043201" lon="5.574245370270622"><ele>999.0</ele><time>2026-05-02T12:37:46Z</time></trkpt><trkpt lat="45.12174865434326" lon="5.574055988726904"><ele>999.0</ele><time>2026-05-02T12:37:47Z</time></trkpt><trkpt lat="45.12157257034531" lon="5.573865453927655"><ele>999.0</ele><time>2026-05-02T12:37:48Z</time></trkpt><trkpt lat="45.12140532613068" lon="5.573649349100284"><ele>999.0</ele><time>2026-05-02T12:37:49Z</time></trkpt><trkpt lat="45.12123901387673" lon="5.573416823682925"><ele>1001.0</ele><time>2026-05-02T12:37:50Z</time></trkpt><trkpt lat="45.12107403676609" lon="5.573187041711601"><ele>1003.0</ele><time>2026-05-02T12:37:51Z</time></trkpt><trkpt lat="45.120888971167325" lon="5.572992189766935"><ele>1008.5</ele><time>2026-05-02T12:37:52Z</time></trkpt><trkpt lat="45.1207042784285" lon="5.57279861469256"><ele>1014.0</ele><time>2026-05-02T12:37:53Z</time></trkpt><trkpt lat="45.12049985814229" lon="5.5726495614820415"><ele>1014.0</ele><time>2026-05-02T12:37:54Z</time></trkpt><trkpt lat="45.12027613615735" lon="5.572541249966503"><ele>1014.0</ele><time>2026-05-02T12:37:55Z</time></trkpt><trkpt lat="45.120032764789514" lon="5.572506281563855"><ele>1010.3333333333333</ele><time>2026-05-02T12:37:56Z</time></trkpt><trkpt lat="45.11982507058888" lon="5.572447027038207"><ele>1006.6666666666666</ele><time>2026-05-02T12:37:57Z</time></trkpt><trkpt lat="45.11960804365164" lon="5.57236104912279"><ele>1003.0</ele><time>2026-05-02T12:37:58Z</time></trkpt><trkpt lat="45.1193812953978" lon="5.572319392608119"><ele>1003.0</ele><time>2026-05-02T12:37:59Z</time></trkpt><trkpt lat="45.11916251886613" lon="5.572251557129983"><ele>1003.0</ele><time>2026-05-02T12:38:00Z</time></trkpt><trkpt lat="45.11894536556218" lon="5.572170544648291"><ele>1003.0</ele><time>2026-05-02T12:38:01Z</time></trkpt><trkpt lat="45.1187267670928" lon="5.572107253438632"><ele>1004.0</ele><time>2026-05-02T12:38:02Z</time></trkpt><trkpt lat="45.11851070214809" lon="5.572046546306615"><ele>1005.0</ele><time>2026-05-02T12:38:02.999Z</time></trkpt><trkpt lat="45.11828870650747" lon="5.572010161882012"><ele>1006.0</ele><time>2026-05-02T12:38:03.999Z</time></trkpt><trkpt lat="45.118071741652976" lon="5.571950056592628"><ele>1009.0</ele><time>2026-05-02T12:38:04.999Z</time></trkpt><trkpt lat="45.117856398870366" lon="5.571904128748597"><ele>1012.0</ele><time>2026-05-02T12:38:05.999Z</time></trkpt><trkpt lat="45.11764284846755" lon="5.571867811840592"><ele>1015.0</ele><time>2026-05-02T12:38:06.999Z</time></trkpt><trkpt lat="45.11743008871998" lon="5.571826846025983"><ele>1014.6666666666666</ele><time>2026-05-02T12:38:07.999Z</time></trkpt><trkpt lat="45.11721563034715" lon="5.571793371934435"><ele>1014.3333333333333</ele><time>2026-05-02T12:38:08.999Z</time></trkpt><trkpt lat="45.11700151515389" lon="5.571787083307043"><ele>1014.0</ele><time>2026-05-02T12:38:09.999Z</time></trkpt><trkpt lat="45.11678626036419" lon="5.571842402680566"><ele>1014.0</ele><time>2026-05-02T12:38:10.999Z</time></trkpt><trkpt lat="45.11657680368981" lon="5.571935068082483"><ele>1014.0</ele><time>2026-05-02T12:38:11.999Z</time></trkpt><trkpt lat="45.116375904085174" lon="5.572049824171049"><ele>1014.0</ele><time>2026-05-02T12:38:12.999Z</time></trkpt><trkpt lat="45.11618450732595" lon="5.572189259522002"><ele>1011.6666666666667</ele><time>2026-05-02T12:38:13.999Z</time></trkpt><trkpt lat="45.11599369885952" lon="5.5723375650321"><ele>1009.3333333333334</ele><time>2026-05-02T12:38:14.999Z</time></trkpt><trkpt lat="45.11578947335252" lon="5.572429621245483"><ele>1007.0</ele><time>2026-05-02T12:38:15.999Z</time></trkpt><trkpt lat="45.115582000206985" lon="5.572497163574185"><ele>1006.6666666666667</ele><time>2026-05-02T12:38:16.999Z</time></trkpt><trkpt lat="45.11536946868065" lon="5.572545647705575"><ele>1006.3333333333333</ele><time>2026-05-02T12:38:17.999Z</time></trkpt><trkpt lat="45.11515753333856" lon="5.572613759015835"><ele>1006.0</ele><time>2026-05-02T12:38:18.999Z</time></trkpt><trkpt lat="45.114940321060594" lon="5.572655705047557"><ele>1005.3333333333333</ele><time>2026-05-02T12:38:19.999Z</time></trkpt><trkpt lat="45.114724076273085" lon="5.572702977118675"><ele>1004.6666666666667</ele><time>2026-05-02T12:38:20.999Z</time></trkpt><trkpt lat="45.11450723517013" lon="5.572754231445431"><ele>1004.0</ele><time>2026-05-02T12:38:21.999Z</time></trkpt><trkpt lat="45.11429154423198" lon="5.572787389312471"><ele>1002.6666666666667</ele><time>2026-05-02T12:38:22.999Z</time></trkpt><trkpt lat="45.114069413670435" lon="5.572726571039908"><ele>1001.3333333333333</ele><time>2026-05-02T12:38:23.999Z</time></trkpt><trkpt lat="45.113862363223454" lon="5.572645368149401"><ele>1000.0</ele><time>2026-05-02T12:38:24.999Z</time></trkpt><trkpt lat="45.113672674199464" lon="5.57249149342562"><ele>1000.0</ele><time>2026-05-02T12:38:25.999Z</time></trkpt><trkpt lat="45.113497501231215" lon="5.5722965669656"><ele>1000.0</ele><time>2026-05-02T12:38:26.999Z</time></trkpt><trkpt lat="45.1133677483188" lon="5.572048459459228"><ele>1000.0</ele><time>2026-05-02T12:38:27.999Z</time></trkpt><trkpt lat="45.11322695849188" lon="5.571786863958254"><ele>997.5</ele><time>2026-05-02T12:38:28.999Z</time></trkpt><trkpt lat="45.11315965545688" lon="5.57146919955041"><ele>995.0</ele><time>2026-05-02T12:38:29.999Z</time></trkpt><trkpt lat="45.11310067008776" lon="5.571152309187978"><ele>995.0</ele><time>2026-05-02T12:38:30.999Z</time></trkpt><trkpt lat="45.113022822456145" lon="5.570846634810726"><ele>995.0</ele><time>2026-05-02T12:38:31.999Z</time></trkpt><trkpt lat="45.112921493434634" lon="5.570553888863188"><ele>994.6666666666667</ele><time>2026-05-02T12:38:32.999Z</time></trkpt><trkpt lat="45.11281030668758" lon="5.570294491715906"><ele>994.3333333333333</ele><time>2026-05-02T12:38:33.999Z</time></trkpt><trkpt lat="45.11269255633892" lon="5.570068053579268"><ele>994.0</ele><time>2026-05-02T12:38:34.999Z</time></trkpt><trkpt lat="45.11257431564886" lon="5.569862838872771"><ele>994.0</ele><time>2026-05-02T12:38:35.999Z</time></trkpt><trkpt lat="45.11245797212002" lon="5.569662104398754"><ele>994.0</ele><time>2026-05-02T12:38:36.999Z</time></trkpt><trkpt lat="45.112340464974544" lon="5.569463134983803"><ele>994.0</ele><time>2026-05-02T12:38:37.999Z</time></trkpt><trkpt lat="45.11222579644143" lon="5.569264079139598"><ele>994.0</ele><time>2026-05-02T12:38:38.999Z</time></trkpt><trkpt lat="45.112113551030404" lon="5.569066473251828"><ele>994.0</ele><time>2026-05-02T12:38:39.999Z</time></trkpt><trkpt lat="45.11200069940228" lon="5.568872608065749"><ele>994.0</ele><time>2026-05-02T12:38:40.999Z</time></trkpt><trkpt lat="45.111889651814224" lon="5.5686762850608025"><ele>994.0</ele><time>2026-05-02T12:38:41.999Z</time></trkpt><trkpt lat="45.11178222861727" lon="5.568487145487253"><ele>994.0</ele><time>2026-05-02T12:38:42.999Z</time></trkpt><trkpt lat="45.11168470905658" lon="5.568311206833461"><ele>994.0</ele><time>2026-05-02T12:38:43.999Z</time></trkpt><trkpt lat="45.11159539314716" lon="5.568149967561455"><ele>993.0</ele><time>2026-05-02T12:38:44.999Z</time></trkpt><trkpt lat="45.111511665525995" lon="5.5679986442513485"><ele>992.0</ele><time>2026-05-02T12:38:45.999Z</time></trkpt><trkpt lat="45.11143086950661" lon="5.5678564108539055"><ele>991.0</ele><time>2026-05-02T12:38:46.999Z</time></trkpt><trkpt lat="45.111348860359094" lon="5.567714811671096"><ele>990.0</ele><time>2026-05-02T12:38:47.999Z</time></trkpt><trkpt lat="45.11126313411257" lon="5.567566947573622"><ele>990.0</ele><time>2026-05-02T12:38:48.999Z</time></trkpt><trkpt lat="45.1111711943027" lon="5.56742708180824"><ele>990.0</ele><time>2026-05-02T12:38:49.999Z</time></trkpt><trkpt lat="45.111068303800735" lon="5.56729462522796"><ele>990.0</ele><time>2026-05-02T12:38:50.999Z</time></trkpt><trkpt lat="45.11095176847949" lon="5.567174521869955"><ele>990.0</ele><time>2026-05-02T12:38:51.999Z</time></trkpt><trkpt lat="45.11083179728654" lon="5.567054481512844"><ele>990.6666666666667</ele><time>2026-05-02T12:38:52.999Z</time></trkpt><trkpt lat="45.11071117355359" lon="5.5669352301940025"><ele>991.3333333333334</ele><time>2026-05-02T12:38:53.999Z</time></trkpt><trkpt lat="45.110588406495424" lon="5.566809225244532"><ele>992.0</ele><time>2026-05-02T12:38:54.999Z</time></trkpt><trkpt lat="45.11046248803357" lon="5.5666819590228105"><ele>992.0</ele><time>2026-05-02T12:38:55.999Z</time></trkpt><trkpt lat="45.11033403655591" lon="5.566554207886947"><ele>992.0</ele><time>2026-05-02T12:38:56.999Z</time></trkpt><trkpt lat="45.11020232090937" lon="5.566427296471247"><ele>992.0</ele><time>2026-05-02T12:38:57.999Z</time></trkpt><trkpt lat="45.11007433078414" lon="5.566295722278791"><ele>991.0</ele><time>2026-05-02T12:38:58.999Z</time></trkpt><trkpt lat="45.109943419957226" lon="5.566163821534978"><ele>990.0</ele><time>2026-05-02T12:38:59.999Z</time></trkpt><trkpt lat="45.10980669667555" lon="5.56603304383126"><ele>989.0</ele><time>2026-05-02T12:39:00.999Z</time></trkpt><trkpt lat="45.10965047866861" lon="5.56589026646921"><ele>989.0</ele><time>2026-05-02T12:39:01.999Z</time></trkpt><trkpt lat="45.10948497991356" lon="5.565740431028916"><ele>989.0</ele><time>2026-05-02T12:39:02.999Z</time></trkpt><trkpt lat="45.109318827189625" lon="5.565589848026203"><ele>989.0</ele><time>2026-05-02T12:39:03.999Z</time></trkpt><trkpt lat="45.10912395579363" lon="5.565439942071654"><ele>988.3333333333334</ele><time>2026-05-02T12:39:04.998Z</time></trkpt><trkpt lat="45.108938900624416" lon="5.565297475742349"><ele>987.6666666666667</ele><time>2026-05-02T12:39:05.998Z</time></trkpt><trkpt lat="45.10874194626268" lon="5.565148427096244"><ele>987.0</ele><time>2026-05-02T12:39:06.998Z</time></trkpt><trkpt lat="45.10854302814226" lon="5.56499310202079"><ele>987.0</ele><time>2026-05-02T12:39:07.998Z</time></trkpt><trkpt lat="45.108341719212" lon="5.564842844160811"><ele>987.0</ele><time>2026-05-02T12:39:08.998Z</time></trkpt><trkpt lat="45.108139566812056" lon="5.564687836405205"><ele>986.5</ele><time>2026-05-02T12:39:09.998Z</time></trkpt><trkpt lat="45.10793629303629" lon="5.5645300102130815"><ele>986.0</ele><time>2026-05-02T12:39:10.998Z</time></trkpt><trkpt lat="45.107732999441424" lon="5.564369279032653"><ele>987.0</ele><time>2026-05-02T12:39:11.998Z</time></trkpt><trkpt lat="45.10753047725975" lon="5.564207806521919"><ele>988.0</ele><time>2026-05-02T12:39:12.998Z</time></trkpt><trkpt lat="45.10732435229381" lon="5.564048023276784"><ele>985.0</ele><time>2026-05-02T12:39:13.998Z</time></trkpt><trkpt lat="45.107118457866704" lon="5.563892609150058"><ele>982.0</ele><time>2026-05-02T12:39:14.998Z</time></trkpt><trkpt lat="45.10691752900371" lon="5.563742930320577"><ele>983.5</ele><time>2026-05-02T12:39:15.998Z</time></trkpt><trkpt lat="45.106713216865295" lon="5.5636003489363794"><ele>985.0</ele><time>2026-05-02T12:39:16.998Z</time></trkpt><trkpt lat="45.10649999994461" lon="5.563460746907201"><ele>985.0</ele><time>2026-05-02T12:39:18Z</time></trkpt><trkpt lat="45.10627725962031" lon="5.563332387219028"><ele>985.0</ele><time>2026-05-02T12:39:19Z</time></trkpt><trkpt lat="45.10605245596623" lon="5.563208891097223"><ele>985.0</ele><time>2026-05-02T12:39:20Z</time></trkpt><trkpt lat="45.10583054709802" lon="5.563084759599823"><ele>985.0</ele><time>2026-05-02T12:39:21Z</time></trkpt><trkpt lat="45.105612288997065" lon="5.562951902643749"><ele>986.5</ele><time>2026-05-02T12:39:22Z</time></trkpt><trkpt lat="45.10539597654585" lon="5.562823833177315"><ele>988.0</ele><time>2026-05-02T12:39:23Z</time></trkpt><trkpt lat="45.10517660038611" lon="5.562696314217227"><ele>988.0</ele><time>2026-05-02T12:39:24Z</time></trkpt><trkpt lat="45.104958036406885" lon="5.56257037231526"><ele>988.0</ele><time>2026-05-02T12:39:25Z</time></trkpt><trkpt lat="45.10473994778076" lon="5.5624443195960005"><ele>985.5</ele><time>2026-05-02T12:39:26Z</time></trkpt><trkpt lat="45.10452160271515" lon="5.562326420921277"><ele>983.0</ele><time>2026-05-02T12:39:27Z</time></trkpt><trkpt lat="45.10429953295594" lon="5.562215678083001"><ele>982.5</ele><time>2026-05-02T12:39:28Z</time></trkpt><trkpt lat="45.10407274234961" lon="5.562113899681818"><ele>982.0</ele><time>2026-05-02T12:39:29Z</time></trkpt><trkpt lat="45.103843242485816" lon="5.562010817258432"><ele>985.5</ele><time>2026-05-02T12:39:30Z</time></trkpt><trkpt lat="45.10361644991229" lon="5.561900712938411"><ele>989.0</ele><time>2026-05-02T12:39:31Z</time></trkpt><trkpt lat="45.103389409702515" lon="5.561792991425663"><ele>988.0</ele><time>2026-05-02T12:39:32Z</time></trkpt><trkpt lat="45.103161415454004" lon="5.561686408407004"><ele>987.0</ele><time>2026-05-02T12:39:33Z</time></trkpt><trkpt lat="45.10293569779072" lon="5.561574332482118"><ele>987.0</ele><time>2026-05-02T12:39:34Z</time></trkpt><trkpt lat="45.102706619927126" lon="5.561456977563769"><ele>987.0</ele><time>2026-05-02T12:39:35Z</time></trkpt><trkpt lat="45.10249929765675" lon="5.56130474839465"><ele>989.0</ele><time>2026-05-02T12:39:36Z</time></trkpt><trkpt lat="45.10227479155218" lon="5.561189756026826"><ele>991.0</ele><time>2026-05-02T12:39:37Z</time></trkpt><trkpt lat="45.102059592861565" lon="5.561051074206864"><ele>991.0</ele><time>2026-05-02T12:39:38Z</time></trkpt><trkpt lat="45.10184516486846" lon="5.560916502327427"><ele>991.0</ele><time>2026-05-02T12:39:39Z</time></trkpt><trkpt lat="45.10163449140159" lon="5.56077286233513"><ele>987.0</ele><time>2026-05-02T12:39:40Z</time></trkpt><trkpt lat="45.101429767663575" lon="5.560625717770171"><ele>983.0</ele><time>2026-05-02T12:39:41Z</time></trkpt><trkpt lat="45.101216908755966" lon="5.560480652797497"><ele>987.0</ele><time>2026-05-02T12:39:42Z</time></trkpt><trkpt lat="45.1010077374722" lon="5.5603385333499755"><ele>991.0</ele><time>2026-05-02T12:39:43Z</time></trkpt><trkpt lat="45.10080214291037" lon="5.560193510367818"><ele>987.0</ele><time>2026-05-02T12:39:44Z</time></trkpt><trkpt lat="45.10060278787549" lon="5.560036339733047"><ele>983.0</ele><time>2026-05-02T12:39:45Z</time></trkpt><trkpt lat="45.100425546836156" lon="5.559838606202736"><ele>983.0</ele><time>2026-05-02T12:39:46Z</time></trkpt><trkpt lat="45.100260297257734" lon="5.559625386039381"><ele>983.0</ele><time>2026-05-02T12:39:47Z</time></trkpt><trkpt lat="45.10009479222469" lon="5.559404914207699"><ele>982.6666666666667</ele><time>2026-05-02T12:39:48Z</time></trkpt><trkpt lat="45.099923207734534" lon="5.55919961318102"><ele>982.3333333333333</ele><time>2026-05-02T12:39:49Z</time></trkpt><trkpt lat="45.0997580866398" lon="5.558986788102619"><ele>982.0</ele><time>2026-05-02T12:39:50Z</time></trkpt><trkpt lat="45.09959330855197" lon="5.55877889428678"><ele>982.0</ele><time>2026-05-02T12:39:51Z</time></trkpt><trkpt lat="45.099427973845785" lon="5.558576449175097"><ele>982.0</ele><time>2026-05-02T12:39:52Z</time></trkpt><trkpt lat="45.09924834886603" lon="5.558400712260591"><ele>982.0</ele><time>2026-05-02T12:39:53Z</time></trkpt><trkpt lat="45.09904691205707" lon="5.558253586287323"><ele>982.0</ele><time>2026-05-02T12:39:54Z</time></trkpt><trkpt lat="45.09882184691317" lon="5.558139422384777"><ele>982.0</ele><time>2026-05-02T12:39:55Z</time></trkpt><trkpt lat="45.09859763846775" lon="5.558017031296825"><ele>984.5</ele><time>2026-05-02T12:39:56Z</time></trkpt><trkpt lat="45.09838630279642" lon="5.557867649496606"><ele>987.0</ele><time>2026-05-02T12:39:57Z</time></trkpt><trkpt lat="45.098173650989615" lon="5.5577288267308935"><ele>987.0</ele><time>2026-05-02T12:39:58Z</time></trkpt><trkpt lat="45.097950602307115" lon="5.557615638207979"><ele>987.0</ele><time>2026-05-02T12:39:59Z</time></trkpt><trkpt lat="45.09772420731122" lon="5.557497728962473"><ele>987.0</ele><time>2026-05-02T12:40:00Z</time></trkpt><trkpt lat="45.09748967465743" lon="5.557427770683859"><ele>987.0</ele><time>2026-05-02T12:40:01Z</time></trkpt><trkpt lat="45.09725212335955" lon="5.5573758151483155"><ele>984.0</ele><time>2026-05-02T12:40:02Z</time></trkpt><trkpt lat="45.09701867310772" lon="5.55728814000082"><ele>981.0</ele><time>2026-05-02T12:40:03Z</time></trkpt><trkpt lat="45.09678438855516" lon="5.5572126110517495"><ele>982.5</ele><time>2026-05-02T12:40:03.999Z</time></trkpt><trkpt lat="45.09654886547907" lon="5.557134688627929"><ele>984.0</ele><time>2026-05-02T12:40:04.999Z</time></trkpt><trkpt lat="45.09631216056009" lon="5.557056375151544"><ele>985.5</ele><time>2026-05-02T12:40:05.999Z</time></trkpt><trkpt lat="45.09608140355996" lon="5.556980510145167"><ele>987.0</ele><time>2026-05-02T12:40:06.999Z</time></trkpt><trkpt lat="45.09584185304211" lon="5.556932767418957"><ele>984.0</ele><time>2026-05-02T12:40:07.999Z</time></trkpt><trkpt lat="45.0956076996199" lon="5.556876232781435"><ele>981.0</ele><time>2026-05-02T12:40:08.999Z</time></trkpt><trkpt lat="45.0953784160409" lon="5.556798980514475"><ele>981.0</ele><time>2026-05-02T12:40:09.999Z</time></trkpt><trkpt lat="45.09514637492096" lon="5.556768688871541"><ele>981.0</ele><time>2026-05-02T12:40:10.999Z</time></trkpt><trkpt lat="45.09491743845729" lon="5.556712115710922"><ele>981.5</ele><time>2026-05-02T12:40:11.999Z</time></trkpt><trkpt lat="45.0946895979956" lon="5.556657722297949"><ele>982.0</ele><time>2026-05-02T12:40:12.999Z</time></trkpt><trkpt lat="45.0944625196247" lon="5.556604534295028"><ele>982.0</ele><time>2026-05-02T12:40:13.999Z</time></trkpt><trkpt lat="45.09424064198904" lon="5.556554207231259"><ele>982.0</ele><time>2026-05-02T12:40:14.999Z</time></trkpt><trkpt lat="45.09402017115935" lon="5.556505134749672"><ele>982.0</ele><time>2026-05-02T12:40:15.999Z</time></trkpt><trkpt lat="45.093799951888215" lon="5.5564539337056775"><ele>982.6666666666666</ele><time>2026-05-02T12:40:16.999Z</time></trkpt><trkpt lat="45.09358204960231" lon="5.556401039857109"><ele>983.3333333333333</ele><time>2026-05-02T12:40:17.999Z</time></trkpt><trkpt lat="45.09336536395409" lon="5.556349818170144"><ele>984.0</ele><time>2026-05-02T12:40:18.999Z</time></trkpt><trkpt lat="45.093144360306084" lon="5.556302187924074"><ele>982.6666666666667</ele><time>2026-05-02T12:40:19.999Z</time></trkpt><trkpt lat="45.092923720326525" lon="5.556250501244492"><ele>981.3333333333334</ele><time>2026-05-02T12:40:20.999Z</time></trkpt><trkpt lat="45.09270479997338" lon="5.556201519724077"><ele>980.0</ele><time>2026-05-02T12:40:21.999Z</time></trkpt><trkpt lat="45.092482416517086" lon="5.556150815687124"><ele>977.5</ele><time>2026-05-02T12:40:22.999Z</time></trkpt><trkpt lat="45.092258421010676" lon="5.556099785722664"><ele>975.0</ele><time>2026-05-02T12:40:23.999Z</time></trkpt><trkpt lat="45.092036802848405" lon="5.556050431051708"><ele>975.0</ele><time>2026-05-02T12:40:24.999Z</time></trkpt><trkpt lat="45.09181514488162" lon="5.556000814154222"><ele>975.0</ele><time>2026-05-02T12:40:25.999Z</time></trkpt><trkpt lat="45.09159480802125" lon="5.5559517319392295"><ele>975.0</ele><time>2026-05-02T12:40:26.999Z</time></trkpt><trkpt lat="45.09138364043907" lon="5.555904786200426"><ele>975.3333333333333</ele><time>2026-05-02T12:40:27.999Z</time></trkpt><trkpt lat="45.09118501723426" lon="5.55586262062611"><ele>975.6666666666666</ele><time>2026-05-02T12:40:28.999Z</time></trkpt><trkpt lat="45.09100588700434" lon="5.555823424778095"><ele>976.0</ele><time>2026-05-02T12:40:29.999Z</time></trkpt><trkpt lat="45.09083515609186" lon="5.555780200922418"><ele>976.25</ele><time>2026-05-02T12:40:30.999Z</time></trkpt><trkpt lat="45.09068022547124" lon="5.555737534364583"><ele>976.5</ele><time>2026-05-02T12:40:31.999Z</time></trkpt><trkpt lat="45.0905430894342" lon="5.555690838156795"><ele>976.75</ele><time>2026-05-02T12:40:32.999Z</time></trkpt><trkpt lat="45.0904195414406" lon="5.55563142652549"><ele>977.0</ele><time>2026-05-02T12:40:33.999Z</time></trkpt><trkpt lat="45.090314720908026" lon="5.555533470913403"><ele>977.0</ele><time>2026-05-02T12:40:34.999Z</time></trkpt><trkpt lat="45.090231947278774" lon="5.555390101099614"><ele>977.0</ele><time>2026-05-02T12:40:35.999Z</time></trkpt><trkpt lat="45.09010621680374" lon="5.555357018459595"><ele>977.0</ele><time>2026-05-02T12:40:36.999Z</time></trkpt><trkpt lat="45.08996844344947" lon="5.555399166102289"><ele>977.0</ele><time>2026-05-02T12:40:37.999Z</time></trkpt><trkpt lat="45.08980534728001" lon="5.555460813608546"><ele>977.0</ele><time>2026-05-02T12:40:38.999Z</time></trkpt><trkpt lat="45.08962666814569" lon="5.5554632114290206"><ele>977.0</ele><time>2026-05-02T12:40:39.999Z</time></trkpt><trkpt lat="45.0894517821247" lon="5.555487732068703"><ele>977.0</ele><time>2026-05-02T12:40:40.999Z</time></trkpt><trkpt lat="45.08935771188703" lon="5.555670371185329"><ele>978.5</ele><time>2026-05-02T12:40:41.999Z</time></trkpt><trkpt lat="45.08908350542024" lon="5.555276350880871"><ele>980.0</ele><time>2026-05-02T12:40:42.999Z</time></trkpt><trkpt lat="45.08890440726125" lon="5.555224391474682"><ele>980.0</ele><time>2026-05-02T12:40:43.999Z</time></trkpt><trkpt lat="45.088737855863464" lon="5.555167272964112"><ele>980.0</ele><time>2026-05-02T12:40:44.999Z</time></trkpt><trkpt lat="45.088567860487345" lon="5.555118601922715"><ele>980.0</ele><time>2026-05-02T12:40:45.999Z</time></trkpt><trkpt lat="45.08839545542053" lon="5.555074290065767"><ele>980.6666666666667</ele><time>2026-05-02T12:40:46.999Z</time></trkpt><trkpt lat="45.088223655630394" lon="5.555026070745902"><ele>981.3333333333333</ele><time>2026-05-02T12:40:47.999Z</time></trkpt><trkpt lat="45.088050718679476" lon="5.554979043458683"><ele>982.0</ele><time>2026-05-02T12:40:48.999Z</time></trkpt><trkpt lat="45.08788049812495" lon="5.554925561375829"><ele>982.0</ele><time>2026-05-02T12:40:49.999Z</time></trkpt><trkpt lat="45.08771088896002" lon="5.554878091006311"><ele>982.0</ele><time>2026-05-02T12:40:50.999Z</time></trkpt><trkpt lat="45.087554212186056" lon="5.554826959377408"><ele>982.0</ele><time>2026-05-02T12:40:51.999Z</time></trkpt><trkpt lat="45.08739877477147" lon="5.554787918944402"><ele>981.0</ele><time>2026-05-02T12:40:52.999Z</time></trkpt><trkpt lat="45.08724923251034" lon="5.554741750729211"><ele>980.0</ele><time>2026-05-02T12:40:53.999Z</time></trkpt><trkpt lat="45.087104388401336" lon="5.554695682346983"><ele>979.0</ele><time>2026-05-02T12:40:54.999Z</time></trkpt><trkpt lat="45.08695339921707" lon="5.554650407114001"><ele>979.0</ele><time>2026-05-02T12:40:55.999Z</time></trkpt><trkpt lat="45.08680166430905" lon="5.554602677521145"><ele>979.0</ele><time>2026-05-02T12:40:56.999Z</time></trkpt><trkpt lat="45.08664992724365" lon="5.554555718728902"><ele>979.0</ele><time>2026-05-02T12:40:57.999Z</time></trkpt><trkpt lat="45.086495729167254" lon="5.55450737246062"><ele>978.3333333333333</ele><time>2026-05-02T12:40:58.999Z</time></trkpt><trkpt lat="45.08634198778673" lon="5.554458442250774"><ele>977.6666666666667</ele><time>2026-05-02T12:40:59.999Z</time></trkpt><trkpt lat="45.08618585419555" lon="5.554412659978457"><ele>977.0</ele><time>2026-05-02T12:41:00.999Z</time></trkpt><trkpt lat="45.08603122541254" lon="5.5543674379049035"><ele>977.0</ele><time>2026-05-02T12:41:01.999Z</time></trkpt><trkpt lat="45.08587572070911" lon="5.554324698372393"><ele>977.0</ele><time>2026-05-02T12:41:02.999Z</time></trkpt><trkpt lat="45.08572167445714" lon="5.554280785030846"><ele>977.0</ele><time>2026-05-02T12:41:03.999Z</time></trkpt><trkpt lat="45.085568469666846" lon="5.554240273282251"><ele>977.0</ele><time>2026-05-02T12:41:04.999Z</time></trkpt><trkpt lat="45.08541323167388" lon="5.554192859117884"><ele>977.0</ele><time>2026-05-02T12:41:05.999Z</time></trkpt><trkpt lat="45.08526000974688" lon="5.554145406741585"><ele>977.0</ele><time>2026-05-02T12:41:06.998Z</time></trkpt><trkpt lat="45.08510721423943" lon="5.554099361114516"><ele>977.0</ele><time>2026-05-02T12:41:07.998Z</time></trkpt><trkpt lat="45.08495527363139" lon="5.554064824762951"><ele>977.0</ele><time>2026-05-02T12:41:08.998Z</time></trkpt><trkpt lat="45.08479589026902" lon="5.554037133151858"><ele>977.0</ele><time>2026-05-02T12:41:09.998Z</time></trkpt><trkpt lat="45.08463453524397" lon="5.554008475717729"><ele>978.0</ele><time>2026-05-02T12:41:10.998Z</time></trkpt><trkpt lat="45.08447489580605" lon="5.553967374807091"><ele>979.0</ele><time>2026-05-02T12:41:11.998Z</time></trkpt><trkpt lat="45.08431851598352" lon="5.553919436589413"><ele>980.0</ele><time>2026-05-02T12:41:12.998Z</time></trkpt><trkpt lat="45.08416017131354" lon="5.55387169794016"><ele>981.3333333333334</ele><time>2026-05-02T12:41:13.998Z</time></trkpt><trkpt lat="45.08398907348881" lon="5.553829028859507"><ele>982.6666666666667</ele><time>2026-05-02T12:41:14.998Z</time></trkpt><trkpt lat="45.083813942569016" lon="5.55380048860551"><ele>984.0</ele><time>2026-05-02T12:41:15.998Z</time></trkpt><trkpt lat="45.08362706071529" lon="5.553788553349296"><ele>984.0</ele><time>2026-05-02T12:41:16.998Z</time></trkpt><trkpt lat="45.083434979828944" lon="5.553793045302165"><ele>984.0</ele><time>2026-05-02T12:41:17.998Z</time></trkpt><trkpt lat="45.08323543935551" lon="5.553810492281654"><ele>984.0</ele><time>2026-05-02T12:41:18.998Z</time></trkpt><trkpt lat="45.08303115509396" lon="5.553833026602429"><ele>985.0</ele><time>2026-05-02T12:41:19.998Z</time></trkpt><trkpt lat="45.082821710947954" lon="5.553847539891619"><ele>986.0</ele><time>2026-05-02T12:41:20.998Z</time></trkpt><trkpt lat="45.082617532885486" lon="5.553869116188338"><ele>987.0</ele><time>2026-05-02T12:41:21.998Z</time></trkpt><trkpt lat="45.08241169929304" lon="5.553900504929695"><ele>987.0</ele><time>2026-05-02T12:41:22.998Z</time></trkpt><trkpt lat="45.08220073444174" lon="5.553931442755631"><ele>987.0</ele><time>2026-05-02T12:41:24Z</time></trkpt><trkpt lat="45.08199118469047" lon="5.553967809833567"><ele>987.0</ele><time>2026-05-02T12:41:25Z</time></trkpt><trkpt lat="45.08178033460942" lon="5.55399438268242"><ele>988.3333333333333</ele><time>2026-05-02T12:41:26Z</time></trkpt><trkpt lat="45.0815694779661" lon="5.553987021902355"><ele>989.6666666666666</ele><time>2026-05-02T12:41:27Z</time></trkpt><trkpt lat="45.081365885473076" lon="5.55392374635311"><ele>991.0</ele><time>2026-05-02T12:41:28Z</time></trkpt><trkpt lat="45.08118419061193" lon="5.55379448709185"><ele>990.3333333333333</ele><time>2026-05-02T12:41:29Z</time></trkpt><trkpt lat="45.08101527487023" lon="5.553638808030503"><ele>989.6666666666667</ele><time>2026-05-02T12:41:30Z</time></trkpt><trkpt lat="45.08084845733269" lon="5.553489251035921"><ele>989.0</ele><time>2026-05-02T12:41:31Z</time></trkpt><trkpt lat="45.080690404524155" lon="5.553362505268491"><ele>989.0</ele><time>2026-05-02T12:41:32Z</time></trkpt><trkpt lat="45.08054223021184" lon="5.553250369876511"><ele>989.0</ele><time>2026-05-02T12:41:33Z</time></trkpt><trkpt lat="45.08039435862629" lon="5.553158824913998"><ele>989.0</ele><time>2026-05-02T12:41:34Z</time></trkpt><trkpt lat="45.080242440321435" lon="5.5530929930052855"><ele>989.0</ele><time>2026-05-02T12:41:35Z</time></trkpt><trkpt lat="45.08008107508854" lon="5.553057474783924"><ele>989.0</ele><time>2026-05-02T12:41:36Z</time></trkpt><trkpt lat="45.079923518667464" lon="5.553053203512144"><ele>989.0</ele><time>2026-05-02T12:41:37Z</time></trkpt><trkpt lat="45.07976553391609" lon="5.553087650566108"><ele>987.5</ele><time>2026-05-02T12:41:38Z</time></trkpt><trkpt lat="45.07962412310626" lon="5.55314941824439"><ele>986.0</ele><time>2026-05-02T12:41:39Z</time></trkpt><trkpt lat="45.079500301838166" lon="5.553221298197816"><ele>984.5</ele><time>2026-05-02T12:41:40Z</time></trkpt><trkpt lat="45.07938144792648" lon="5.553289691016422"><ele>983.0</ele><time>2026-05-02T12:41:41Z</time></trkpt><trkpt lat="45.07924725470172" lon="5.55328787744192"><ele>983.0</ele><time>2026-05-02T12:41:42Z</time></trkpt><trkpt lat="45.0791091364975" lon="5.553320185806466"><ele>983.0</ele><time>2026-05-02T12:41:43Z</time></trkpt><trkpt lat="45.07896428498815" lon="5.553389056935212"><ele>983.0</ele><time>2026-05-02T12:41:44Z</time></trkpt><trkpt lat="45.07880518968176" lon="5.553393055753498"><ele>980.6666666666667</ele><time>2026-05-02T12:41:45Z</time></trkpt><trkpt lat="45.07864121736877" lon="5.553404315083418"><ele>978.3333333333333</ele><time>2026-05-02T12:41:46Z</time></trkpt><trkpt lat="45.07847514384445" lon="5.553399128419446"><ele>976.0</ele><time>2026-05-02T12:41:47Z</time></trkpt><trkpt lat="45.07831179041737" lon="5.553353738446933"><ele>979.0</ele><time>2026-05-02T12:41:48Z</time></trkpt><trkpt lat="45.078152091489585" lon="5.55325262008889"><ele>982.0</ele><time>2026-05-02T12:41:49Z</time></trkpt><trkpt lat="45.078027252338174" lon="5.553107795991092"><ele>985.0</ele><time>2026-05-02T12:41:50Z</time></trkpt><trkpt lat="45.07792574412298" lon="5.552918479297063"><ele>982.3333333333333</ele><time>2026-05-02T12:41:51Z</time></trkpt><trkpt lat="45.07782564737008" lon="5.552712476353806"><ele>979.6666666666667</ele><time>2026-05-02T12:41:52Z</time></trkpt><trkpt lat="45.07771748326328" lon="5.552518095950493"><ele>977.0</ele><time>2026-05-02T12:41:53Z</time></trkpt><trkpt lat="45.0776273424644" lon="5.5523189398890445"><ele>977.0</ele><time>2026-05-02T12:41:54Z</time></trkpt><trkpt lat="45.07752853118571" lon="5.552125725877875"><ele>977.0</ele><time>2026-05-02T12:41:55Z</time></trkpt><trkpt lat="45.07742653198056" lon="5.551940501847647"><ele>977.0</ele><time>2026-05-02T12:41:56Z</time></trkpt><trkpt lat="45.07732704235254" lon="5.551755785429924"><ele>980.3333333333334</ele><time>2026-05-02T12:41:57Z</time></trkpt><trkpt lat="45.07721663324646" lon="5.551572517208254"><ele>983.6666666666667</ele><time>2026-05-02T12:41:58Z</time></trkpt><trkpt lat="45.07710658577664" lon="5.551391057592721"><ele>987.0</ele><time>2026-05-02T12:41:59Z</time></trkpt><trkpt lat="45.07699323187429" lon="5.551222782664807"><ele>983.6666666666667</ele><time>2026-05-02T12:42:00Z</time></trkpt><trkpt lat="45.07687246257263" lon="5.551063579620229"><ele>980.3333333333334</ele><time>2026-05-02T12:42:01Z</time></trkpt><trkpt lat="45.0767584597814" lon="5.550896515954877"><ele>977.0</ele><time>2026-05-02T12:42:02Z</time></trkpt><trkpt lat="45.07663120817485" lon="5.550760181822512"><ele>979.3333333333334</ele><time>2026-05-02T12:42:03Z</time></trkpt><trkpt lat="45.07648541333684" lon="5.550663110592466"><ele>981.6666666666667</ele><time>2026-05-02T12:42:04Z</time></trkpt><trkpt lat="45.07634595246675" lon="5.5505380219140905"><ele>984.0</ele><time>2026-05-02T12:42:05Z</time></trkpt><trkpt lat="45.07619219264125" lon="5.550440839839102"><ele>982.3333333333333</ele><time>2026-05-02T12:42:06Z</time></trkpt><trkpt lat="45.07604354916391" lon="5.550346230157315"><ele>980.6666666666666</ele><time>2026-05-02T12:42:07Z</time></trkpt><trkpt lat="45.07589911794059" lon="5.550253078076722"><ele>979.0</ele><time>2026-05-02T12:42:08Z</time></trkpt><trkpt lat="45.07575853618051" lon="5.550182892519184"><ele>979.0</ele><time>2026-05-02T12:42:08.999Z</time></trkpt><trkpt lat="45.07563357632412" lon="5.55009491293606"><ele>979.0</ele><time>2026-05-02T12:42:09.999Z</time></trkpt><trkpt lat="45.075515048593466" lon="5.5500117095589765"><ele>979.0</ele><time>2026-05-02T12:42:10.999Z</time></trkpt><trkpt lat="45.0753994201956" lon="5.549921490429273"><ele>979.0</ele><time>2026-05-02T12:42:11.999Z</time></trkpt><trkpt lat="45.075289417536524" lon="5.5498307706565795"><ele>979.0</ele><time>2026-05-02T12:42:12.999Z</time></trkpt><trkpt lat="45.075158477005" lon="5.549724962908814"><ele>979.0000000000001</ele><time>2026-05-02T12:42:13.999Z</time></trkpt><trkpt lat="45.0750916563501" lon="5.549670230177837"><ele>979.0000000000001</ele><time>2026-05-02T12:42:14.999Z</time></trkpt><trkpt lat="45.07500609816124" lon="5.549582815281872"><ele>979.0</ele><time>2026-05-02T12:42:15.999Z</time></trkpt><trkpt lat="45.07491544347767" lon="5.549493318270593"><ele>979.0</ele><time>2026-05-02T12:42:16.999Z</time></trkpt><trkpt lat="45.074819504996036" lon="5.549392528024027"><ele>978.25</ele><time>2026-05-02T12:42:17.999Z</time></trkpt><trkpt lat="45.07472182029482" lon="5.549277878461585"><ele>977.5</ele><time>2026-05-02T12:42:18.999Z</time></trkpt><trkpt lat="45.07463203547943" lon="5.549142557186767"><ele>976.75</ele><time>2026-05-02T12:42:19.999Z</time></trkpt><trkpt lat="45.07453132350311" lon="5.5490273144806075"><ele>976.0</ele><time>2026-05-02T12:42:20.999Z</time></trkpt><trkpt lat="45.074417481206474" lon="5.548928877830547"><ele>976.0</ele><time>2026-05-02T12:42:21.999Z</time></trkpt><trkpt lat="45.07431514780389" lon="5.548812185863658"><ele>976.0</ele><time>2026-05-02T12:42:22.999Z</time></trkpt><trkpt lat="45.07421254470344" lon="5.5486957566731485"><ele>976.0</ele><time>2026-05-02T12:42:23.999Z</time></trkpt><trkpt lat="45.07411068055159" lon="5.548573604951376"><ele>976.0</ele><time>2026-05-02T12:42:24.999Z</time></trkpt><trkpt lat="45.074011815256576" lon="5.548449521932282"><ele>976.25</ele><time>2026-05-02T12:42:25.999Z</time></trkpt><trkpt lat="45.073915266636305" lon="5.548305817144118"><ele>976.5</ele><time>2026-05-02T12:42:26.999Z</time></trkpt><trkpt lat="45.073834149828876" lon="5.548148074266613"><ele>976.75</ele><time>2026-05-02T12:42:27.999Z</time></trkpt><trkpt lat="45.07378462823529" lon="5.5479683500713035"><ele>977.0</ele><time>2026-05-02T12:42:28.999Z</time></trkpt><trkpt lat="45.07373097375433" lon="5.547814618018336"><ele>975.3333333333334</ele><time>2026-05-02T12:42:29.999Z</time></trkpt><trkpt lat="45.07370977773585" lon="5.547665787695534"><ele>973.6666666666667</ele><time>2026-05-02T12:42:30.999Z</time></trkpt><trkpt lat="45.073690848610276" lon="5.54752901862346"><ele>972.0</ele><time>2026-05-02T12:42:31.999Z</time></trkpt><trkpt lat="45.07367419954211" lon="5.547415090810284"><ele>970.3333333333333</ele><time>2026-05-02T12:42:32.999Z</time></trkpt><trkpt lat="45.07366043060445" lon="5.547307970389581"><ele>968.6666666666666</ele><time>2026-05-02T12:42:33.999Z</time></trkpt><trkpt lat="45.073663341068325" lon="5.5471982462107325"><ele>967.0</ele><time>2026-05-02T12:42:34.999Z</time></trkpt><trkpt lat="45.07369133265635" lon="5.547107533033897"><ele>966.2</ele><time>2026-05-02T12:42:35.999Z</time></trkpt><trkpt lat="45.073724301953234" lon="5.547025867920845"><ele>965.4000000000001</ele><time>2026-05-02T12:42:36.999Z</time></trkpt><trkpt lat="45.073747325151636" lon="5.546930660226934"><ele>964.5999999999999</ele><time>2026-05-02T12:42:37.999Z</time></trkpt><trkpt lat="45.073719426662095" lon="5.5467573698910835"><ele>963.8</ele><time>2026-05-02T12:42:39.999Z</time></trkpt><trkpt lat="45.07359055261009" lon="5.54676393573847"><ele>963.0</ele><time>2026-05-02T12:42:40.999Z</time></trkpt><trkpt lat="45.073505454603556" lon="5.546795612203028"><ele>963.0</ele><time>2026-05-02T12:42:41.999Z</time></trkpt><trkpt lat="45.07342305541566" lon="5.546771225858848"><ele>963.0</ele><time>2026-05-02T12:42:42.999Z</time></trkpt><trkpt lat="45.073330262114716" lon="5.546745490912042"><ele>963.0</ele><time>2026-05-02T12:42:43.999Z</time></trkpt><trkpt lat="45.073215517434626" lon="5.546670630088663"><ele>963.0</ele><time>2026-05-02T12:42:44.999Z</time></trkpt><trkpt lat="45.07306434024822" lon="5.546605840652292"><ele>964.0</ele><time>2026-05-02T12:42:45.999Z</time></trkpt><trkpt lat="45.072891457380614" lon="5.5465425898239165"><ele>965.0</ele><time>2026-05-02T12:42:46.999Z</time></trkpt><trkpt lat="45.072728865669" lon="5.5464831041301"><ele>966.0</ele><time>2026-05-02T12:42:47.999Z</time></trkpt><trkpt lat="45.07256932694293" lon="5.546422227352291"><ele>966.3333333333333</ele><time>2026-05-02T12:42:48.999Z</time></trkpt><trkpt lat="45.0724090057885" lon="5.546360220824273"><ele>966.6666666666666</ele><time>2026-05-02T12:42:49.999Z</time></trkpt><trkpt lat="45.07226294221623" lon="5.546306275380812"><ele>967.0</ele><time>2026-05-02T12:42:50.999Z</time></trkpt><trkpt lat="45.07212179001451" lon="5.546254143851987"><ele>967.0</ele><time>2026-05-02T12:42:51.999Z</time></trkpt><trkpt lat="45.071981728465104" lon="5.546218095069107"><ele>967.0</ele><time>2026-05-02T12:42:52.999Z</time></trkpt><trkpt lat="45.07184035120101" lon="5.546166928124176"><ele>967.0</ele><time>2026-05-02T12:42:53.999Z</time></trkpt><trkpt lat="45.07167416914297" lon="5.546118712282966"><ele>968.3333333333333</ele><time>2026-05-02T12:42:54.999Z</time></trkpt><trkpt lat="45.071482547233614" lon="5.546067703402434"><ele>969.6666666666667</ele><time>2026-05-02T12:42:55.999Z</time></trkpt><trkpt lat="45.07129199005606" lon="5.5459953677452765"><ele>971.0</ele><time>2026-05-02T12:42:56.999Z</time></trkpt><trkpt lat="45.07110961237302" lon="5.545889722558619"><ele>971.0</ele><time>2026-05-02T12:42:57.999Z</time></trkpt><trkpt lat="45.07091328392319" lon="5.545837054891432"><ele>971.0</ele><time>2026-05-02T12:42:58.999Z</time></trkpt><trkpt lat="45.07072033818532" lon="5.545772105484241"><ele>971.0</ele><time>2026-05-02T12:42:59.999Z</time></trkpt><trkpt lat="45.07053071481655" lon="5.545681601514361"><ele>970.6666666666667</ele><time>2026-05-02T12:43:00.999Z</time></trkpt><trkpt lat="45.07033657847786" lon="5.545612151685586"><ele>970.3333333333333</ele><time>2026-05-02T12:43:01.999Z</time></trkpt><trkpt lat="45.07013929235677" lon="5.545540531597309"><ele>970.0</ele><time>2026-05-02T12:43:02.999Z</time></trkpt><trkpt lat="45.06994478804449" lon="5.5454680234253795"><ele>971.6666666666666</ele><time>2026-05-02T12:43:03.999Z</time></trkpt><trkpt lat="45.06975059117861" lon="5.545388237128275"><ele>973.3333333333333</ele><time>2026-05-02T12:43:04.999Z</time></trkpt><trkpt lat="45.06956897495059" lon="5.545325934293872"><ele>975.0</ele><time>2026-05-02T12:43:05.999Z</time></trkpt><trkpt lat="45.06937611763471" lon="5.545283320159566"><ele>983.0</ele><time>2026-05-02T12:43:06.999Z</time></trkpt><trkpt lat="45.0691831600009" lon="5.545258275846134"><ele>991.0</ele><time>2026-05-02T12:43:07.999Z</time></trkpt><trkpt lat="45.0689993610174" lon="5.545247002353745"><ele>999.0</ele><time>2026-05-02T12:43:08.999Z</time></trkpt><trkpt lat="45.06881629097056" lon="5.5452551548433755"><ele>1002.0</ele><time>2026-05-02T12:43:09.999Z</time></trkpt><trkpt lat="45.068633678845224" lon="5.545270948514032"><ele>1005.0</ele><time>2026-05-02T12:43:10.999Z</time></trkpt><trkpt lat="45.06845396846176" lon="5.545309015550819"><ele>1008.0</ele><time>2026-05-02T12:43:11.998Z</time></trkpt><trkpt lat="45.06827724472761" lon="5.545366228834285"><ele>999.0</ele><time>2026-05-02T12:43:12.998Z</time></trkpt><trkpt lat="45.06809838171052" lon="5.545445979878681"><ele>990.0</ele><time>2026-05-02T12:43:13.998Z</time></trkpt><trkpt lat="45.06793307540349" lon="5.545529159923802"><ele>981.0</ele><time>2026-05-02T12:43:14.998Z</time></trkpt><trkpt lat="45.067778421872106" lon="5.5456145603566185"><ele>981.0</ele><time>2026-05-02T12:43:15.998Z</time></trkpt><trkpt lat="45.06765362817662" lon="5.545694927053261"><ele>981.0</ele><time>2026-05-02T12:43:16.998Z</time></trkpt><trkpt lat="45.06753521292694" lon="5.545761182277134"><ele>981.0</ele><time>2026-05-02T12:43:17.998Z</time></trkpt><trkpt lat="45.06744658935379" lon="5.545843037108967"><ele>981.0</ele><time>2026-05-02T12:43:18.998Z</time></trkpt><trkpt lat="45.067371988322215" lon="5.545917805802956"><ele>981.0</ele><time>2026-05-02T12:43:19.998Z</time></trkpt><trkpt lat="45.06731173627022" lon="5.545974077629229"><ele>981.0</ele><time>2026-05-02T12:43:20.998Z</time></trkpt><trkpt lat="45.06724679906861" lon="5.54594238682849"><ele>981.0</ele><time>2026-05-02T12:43:21.998Z</time></trkpt><trkpt lat="45.06719226844855" lon="5.545805528687586"><ele>981.0</ele><time>2026-05-02T12:43:23.998Z</time></trkpt><trkpt lat="45.067249868324744" lon="5.545711359651764"><ele>981.0</ele><time>2026-05-02T12:43:24.998Z</time></trkpt><trkpt lat="45.06733771904469" lon="5.545697461726019"><ele>981.0</ele><time>2026-05-02T12:43:25.998Z</time></trkpt><trkpt lat="45.06746064652176" lon="5.545665022358132"><ele>981.0</ele><time>2026-05-02T12:43:26.998Z</time></trkpt><trkpt lat="45.06759030616337" lon="5.545591108514496"><ele>981.0</ele><time>2026-05-02T12:43:27.998Z</time></trkpt><trkpt lat="45.06774365912563" lon="5.545477733714373"><ele>981.0</ele><time>2026-05-02T12:43:28.998Z</time></trkpt><trkpt lat="45.06794079668118" lon="5.5453448227730355"><ele>994.5</ele><time>2026-05-02T12:43:30Z</time></trkpt><trkpt lat="45.068183668374274" lon="5.545233566364223"><ele>1008.0</ele><time>2026-05-02T12:43:31Z</time></trkpt><trkpt lat="45.06842708733354" lon="5.545093640076011"><ele>1008.0</ele><time>2026-05-02T12:43:32Z</time></trkpt><trkpt lat="45.06869602614568" lon="5.545003778170966"><ele>1008.0</ele><time>2026-05-02T12:43:33Z</time></trkpt><trkpt lat="45.06893040034056" lon="5.544969841816595"><ele>1003.5</ele><time>2026-05-02T12:43:34Z</time></trkpt><trkpt lat="45.069168911183134" lon="5.544950812779387"><ele>999.0</ele><time>2026-05-02T12:43:35Z</time></trkpt><trkpt lat="45.069400083750075" lon="5.5449893038222084"><ele>999.0</ele><time>2026-05-02T12:43:36Z</time></trkpt><trkpt lat="45.06961956718008" lon="5.545008231542207"><ele>999.0</ele><time>2026-05-02T12:43:37Z</time></trkpt><trkpt lat="45.069813932889986" lon="5.545037146332144"><ele>999.0</ele><time>2026-05-02T12:43:38Z</time></trkpt><trkpt lat="45.07000290530414" lon="5.545078089019322"><ele>999.3333333333333</ele><time>2026-05-02T12:43:39Z</time></trkpt><trkpt lat="45.070196585152225" lon="5.545066429966933"><ele>999.6666666666666</ele><time>2026-05-02T12:43:40Z</time></trkpt><trkpt lat="45.07038325701164" lon="5.545029540853218"><ele>1000.0</ele><time>2026-05-02T12:43:41Z</time></trkpt><trkpt lat="45.070590875681816" lon="5.5449498706156675"><ele>1000.3333333333333</ele><time>2026-05-02T12:43:42Z</time></trkpt><trkpt lat="45.07078512024261" lon="5.544879758282327"><ele>1000.6666666666667</ele><time>2026-05-02T12:43:43Z</time></trkpt><trkpt lat="45.07096584395079" lon="5.5448137257960015"><ele>1001.0</ele><time>2026-05-02T12:43:44Z</time></trkpt><trkpt lat="45.07113529832897" lon="5.54471898878203"><ele>1001.0</ele><time>2026-05-02T12:43:45Z</time></trkpt><trkpt lat="45.07128018731709" lon="5.544586541718519"><ele>1001.0</ele><time>2026-05-02T12:43:46Z</time></trkpt><trkpt lat="45.07139511963663" lon="5.544391267412225"><ele>1001.0</ele><time>2026-05-02T12:43:47Z</time></trkpt><trkpt lat="45.07149715609201" lon="5.544179387801031"><ele>1004.3333333333334</ele><time>2026-05-02T12:43:48Z</time></trkpt><trkpt lat="45.07161754530261" lon="5.543987275479645"><ele>1007.6666666666667</ele><time>2026-05-02T12:43:49Z</time></trkpt><trkpt lat="45.07170538480804" lon="5.543777630383672"><ele>1011.0</ele><time>2026-05-02T12:43:50Z</time></trkpt><trkpt lat="45.071799197288165" lon="5.543612731881443"><ele>1012.75</ele><time>2026-05-02T12:43:51Z</time></trkpt><trkpt lat="45.07185504392799" lon="5.543445071977752"><ele>1014.5</ele><time>2026-05-02T12:43:52Z</time></trkpt><trkpt lat="45.071885478185955" lon="5.543269015643066"><ele>1016.25</ele><time>2026-05-02T12:43:53Z</time></trkpt><trkpt lat="45.071894705" lon="5.543098031231676"><ele>1018.0</ele><time>2026-05-02T12:43:54Z</time></trkpt><trkpt lat="45.07183128546403" lon="5.54292033592949"><ele>1017.0</ele><time>2026-05-02T12:43:55Z</time></trkpt><trkpt lat="45.071752902552305" lon="5.542705614153485"><ele>1016.0</ele><time>2026-05-02T12:43:56Z</time></trkpt><trkpt lat="45.07167562099521" lon="5.542447174049253"><ele>1015.0</ele><time>2026-05-02T12:43:57Z</time></trkpt><trkpt lat="45.07156589713005" lon="5.542188097477815"><ele>1020.0</ele><time>2026-05-02T12:43:58Z</time></trkpt><trkpt lat="45.07144951490635" lon="5.541924098091998"><ele>1025.0</ele><time>2026-05-02T12:43:59Z</time></trkpt><trkpt lat="45.07134596057989" lon="5.541679656024668"><ele>1030.0</ele><time>2026-05-02T12:44:00Z</time></trkpt><trkpt lat="45.071248410792144" lon="5.54142601876641"><ele>1029.0</ele><time>2026-05-02T12:44:01Z</time></trkpt><trkpt lat="45.07117250589577" lon="5.541135554423172"><ele>1028.0</ele><time>2026-05-02T12:44:02Z</time></trkpt><trkpt lat="45.07110716009191" lon="5.540852345397174"><ele>1027.0</ele><time>2026-05-02T12:44:03Z</time></trkpt><trkpt lat="45.07100418620257" lon="5.540612282051806"><ele>1027.0</ele><time>2026-05-02T12:44:04Z</time></trkpt><trkpt lat="45.07086195121492" lon="5.5403844822988475"><ele>1027.0</ele><time>2026-05-02T12:44:05Z</time></trkpt><trkpt lat="45.07071746833219" lon="5.540128674342116"><ele>1027.0</ele><time>2026-05-02T12:44:06Z</time></trkpt><trkpt lat="45.07057061206386" lon="5.5399056066070935"><ele>1028.0</ele><time>2026-05-02T12:44:07Z</time></trkpt><trkpt lat="45.07043891909433" lon="5.539690970639696"><ele>1029.0</ele><time>2026-05-02T12:44:08Z</time></trkpt><trkpt lat="45.070266758961274" lon="5.539530993554971"><ele>1030.0</ele><time>2026-05-02T12:44:09Z</time></trkpt><trkpt lat="45.070032394803086" lon="5.539409870361527"><ele>1044.0</ele><time>2026-05-02T12:44:10Z</time></trkpt><trkpt lat="45.069791602071696" lon="5.539317453741227"><ele>1058.0</ele><time>2026-05-02T12:44:11Z</time></trkpt><trkpt lat="45.069556249537634" lon="5.539223210430612"><ele>1058.0</ele><time>2026-05-02T12:44:12Z</time></trkpt><trkpt lat="45.069330566670544" lon="5.539030897026593"><ele>1058.0</ele><time>2026-05-02T12:44:13Z</time></trkpt><trkpt lat="45.06909033198065" lon="5.538832873161202"><ele>1058.5</ele><time>2026-05-02T12:44:14Z</time></trkpt><trkpt lat="45.0688362093483" lon="5.538645505139985"><ele>1059.0</ele><time>2026-05-02T12:44:15Z</time></trkpt><trkpt lat="45.06858406344167" lon="5.5384161559344385"><ele>1059.0</ele><time>2026-05-02T12:44:15.999Z</time></trkpt><trkpt lat="45.068316512619354" lon="5.538198737818004"><ele>1059.0</ele><time>2026-05-02T12:44:16.999Z</time></trkpt><trkpt lat="45.068058097476055" lon="5.538019633384525"><ele>1059.0</ele><time>2026-05-02T12:44:17.999Z</time></trkpt><trkpt lat="45.067800325027875" lon="5.537889620726326"><ele>1059.0</ele><time>2026-05-02T12:44:18.999Z</time></trkpt><trkpt lat="45.06753194339656" lon="5.537752995486865"><ele>1076.5</ele><time>2026-05-02T12:44:19.999Z</time></trkpt><trkpt lat="45.06726473236141" lon="5.537588183718367"><ele>1094.0</ele><time>2026-05-02T12:44:20.999Z</time></trkpt><trkpt lat="45.06703290501437" lon="5.537416542576982"><ele>1094.0</ele><time>2026-05-02T12:44:21.999Z</time></trkpt><trkpt lat="45.06682602296331" lon="5.537226526953355"><ele>1094.0</ele><time>2026-05-02T12:44:22.999Z</time></trkpt><trkpt lat="45.06663585020464" lon="5.53704747572054"><ele>1097.0</ele><time>2026-05-02T12:44:23.999Z</time></trkpt><trkpt lat="45.066473500635546" lon="5.536889454112115"><ele>1100.0</ele><time>2026-05-02T12:44:24.999Z</time></trkpt><trkpt lat="45.06630965524857" lon="5.536733525501569"><ele>1103.0</ele><time>2026-05-02T12:44:25.999Z</time></trkpt><trkpt lat="45.066153248529865" lon="5.536590731902251"><ele>1103.0</ele><time>2026-05-02T12:44:26.999Z</time></trkpt><trkpt lat="45.06602713402026" lon="5.536474557291514"><ele>1103.0</ele><time>2026-05-02T12:44:27.999Z</time></trkpt><trkpt lat="45.06591943310676" lon="5.536367451543866"><ele>1103.0</ele><time>2026-05-02T12:44:28.999Z</time></trkpt><trkpt lat="45.065852145930236" lon="5.536255895893615"><ele>1103.0</ele><time>2026-05-02T12:44:29.999Z</time></trkpt><trkpt lat="45.06582844196274" lon="5.536118376870603"><ele>1105.3333333333335</ele><time>2026-05-02T12:44:30.999Z</time></trkpt><trkpt lat="45.065884574704555" lon="5.535944444473565"><ele>1107.6666666666667</ele><time>2026-05-02T12:44:31.999Z</time></trkpt><trkpt lat="45.06602853359925" lon="5.535791126190527"><ele>1110.0</ele><time>2026-05-02T12:44:32.999Z</time></trkpt><trkpt lat="45.06619762080495" lon="5.535709511020948"><ele>1110.0</ele><time>2026-05-02T12:44:33.999Z</time></trkpt><trkpt lat="45.06639236354456" lon="5.535659068001978"><ele>1110.0</ele><time>2026-05-02T12:44:34.999Z</time></trkpt><trkpt lat="45.06660370636228" lon="5.535612587833125"><ele>1110.0</ele><time>2026-05-02T12:44:35.999Z</time></trkpt><trkpt lat="45.06680729870217" lon="5.535569595594118"><ele>1107.6666666666667</ele><time>2026-05-02T12:44:36.999Z</time></trkpt><trkpt lat="45.06700700594673" lon="5.5355283743614265"><ele>1105.3333333333335</ele><time>2026-05-02T12:44:37.999Z</time></trkpt><trkpt lat="45.0672093622848" lon="5.535485420554352"><ele>1103.0</ele><time>2026-05-02T12:44:38.999Z</time></trkpt><trkpt lat="45.06740500418483" lon="5.535443224266039"><ele>1101.6666666666667</ele><time>2026-05-02T12:44:39.999Z</time></trkpt><trkpt lat="45.06760281544542" lon="5.535397279920325"><ele>1100.3333333333333</ele><time>2026-05-02T12:44:40.999Z</time></trkpt><trkpt lat="45.06780128931598" lon="5.535345680285551"><ele>1099.0</ele><time>2026-05-02T12:44:41.999Z</time></trkpt><trkpt lat="45.0680149167247" lon="5.535301478106501"><ele>1103.6666666666665</ele><time>2026-05-02T12:44:42.999Z</time></trkpt><trkpt lat="45.06822115293907" lon="5.535227670024788"><ele>1108.3333333333333</ele><time>2026-05-02T12:44:43.999Z</time></trkpt><trkpt lat="45.068380022365396" lon="5.5351169634970345"><ele>1113.0</ele><time>2026-05-02T12:44:44.999Z</time></trkpt><trkpt lat="45.06847470859284" lon="5.535022509275699"><ele>1113.0</ele><time>2026-05-02T12:44:45.999Z</time></trkpt><trkpt lat="45.06853743094079" lon="5.534855053148847"><ele>1113.0</ele><time>2026-05-02T12:44:46.999Z</time></trkpt><trkpt lat="45.06854992066711" lon="5.534662599176606"><ele>1113.0</ele><time>2026-05-02T12:44:47.999Z</time></trkpt><trkpt lat="45.068588483897024" lon="5.534432251346562"><ele>1113.0</ele><time>2026-05-02T12:44:48.999Z</time></trkpt><trkpt lat="45.068603629939176" lon="5.534187331070567"><ele>1116.25</ele><time>2026-05-02T12:44:49.999Z</time></trkpt><trkpt lat="45.068617844968514" lon="5.53396779339914"><ele>1119.5</ele><time>2026-05-02T12:44:50.999Z</time></trkpt><trkpt lat="45.0686234301875" lon="5.53377952885596"><ele>1122.75</ele><time>2026-05-02T12:44:51.999Z</time></trkpt><trkpt lat="45.068609199744344" lon="5.533631003909057"><ele>1126.0</ele><time>2026-05-02T12:44:52.999Z</time></trkpt><trkpt lat="45.06859329314761" lon="5.533529293691766"><ele>1127.0</ele><time>2026-05-02T12:44:53.999Z</time></trkpt><trkpt lat="45.06856010443444" lon="5.533373061078916"><ele>1128.0</ele><time>2026-05-02T12:44:55.999Z</time></trkpt><trkpt lat="45.068503287150705" lon="5.5332557586280275"><ele>1129.0</ele><time>2026-05-02T12:44:57.999Z</time></trkpt><trkpt lat="45.06841702685853" lon="5.533124406735872"><ele>1130.0</ele><time>2026-05-02T12:44:59.999Z</time></trkpt><trkpt lat="45.06834609537462" lon="5.5330543595461315"><ele>1131.0</ele><time>2026-05-02T12:45:00.999Z</time></trkpt><trkpt lat="45.06825281025128" lon="5.53298653813937"><ele>1128.75</ele><time>2026-05-02T12:45:01.999Z</time></trkpt><trkpt lat="45.06813904144746" lon="5.532932524895532"><ele>1126.5</ele><time>2026-05-02T12:45:02.999Z</time></trkpt><trkpt lat="45.068021414295565" lon="5.532865332416778"><ele>1124.25</ele><time>2026-05-02T12:45:03.999Z</time></trkpt><trkpt lat="45.06792134033553" lon="5.5328048264433285"><ele>1122.0</ele><time>2026-05-02T12:45:04.999Z</time></trkpt><trkpt lat="45.067813535001555" lon="5.532749863006123"><ele>1122.0</ele><time>2026-05-02T12:45:05.999Z</time></trkpt><trkpt lat="45.06769755505321" lon="5.532703073344172"><ele>1122.0</ele><time>2026-05-02T12:45:06.999Z</time></trkpt><trkpt lat="45.06759080744412" lon="5.532634092334371"><ele>1122.0</ele><time>2026-05-02T12:45:07.999Z</time></trkpt><trkpt lat="45.067473126220776" lon="5.532598023654947"><ele>1122.0</ele><time>2026-05-02T12:45:08.999Z</time></trkpt><trkpt lat="45.06735240410242" lon="5.532564217795393"><ele>1124.25</ele><time>2026-05-02T12:45:09.999Z</time></trkpt><trkpt lat="45.067218127686466" lon="5.532545835203856"><ele>1126.5</ele><time>2026-05-02T12:45:10.999Z</time></trkpt><trkpt lat="45.06707882780603" lon="5.532529468090237"><ele>1128.75</ele><time>2026-05-02T12:45:11.999Z</time></trkpt><trkpt lat="45.06694466842701" lon="5.532522473353712"><ele>1131.0</ele><time>2026-05-02T12:45:12.999Z</time></trkpt><trkpt lat="45.06681598746926" lon="5.532504255621035"><ele>1131.0</ele><time>2026-05-02T12:45:13.999Z</time></trkpt><trkpt lat="45.066678191796" lon="5.532512522218968"><ele>1131.0</ele><time>2026-05-02T12:45:14.999Z</time></trkpt><trkpt lat="45.06653742520781" lon="5.532520680704051"><ele>1131.0</ele><time>2026-05-02T12:45:15.999Z</time></trkpt><trkpt lat="45.06641049873018" lon="5.532522798941349"><ele>1131.0</ele><time>2026-05-02T12:45:16.999Z</time></trkpt><trkpt lat="45.06627325552027" lon="5.532526539148809"><ele>1131.75</ele><time>2026-05-02T12:45:17.999Z</time></trkpt><trkpt lat="45.06613071632315" lon="5.5324995614457695"><ele>1132.5</ele><time>2026-05-02T12:45:18.998Z</time></trkpt><trkpt lat="45.06599700731456" lon="5.532468555919727"><ele>1133.25</ele><time>2026-05-02T12:45:19.998Z</time></trkpt><trkpt lat="45.065869630964706" lon="5.5324271417202775"><ele>1134.0</ele><time>2026-05-02T12:45:20.998Z</time></trkpt><trkpt lat="45.06576268802268" lon="5.532381492922335"><ele>1134.8333333333333</ele><time>2026-05-02T12:45:21.998Z</time></trkpt><trkpt lat="45.06567731433545" lon="5.5323296450067865"><ele>1135.6666666666667</ele><time>2026-05-02T12:45:22.998Z</time></trkpt><trkpt lat="45.06560471322651" lon="5.532276258673"><ele>1136.5</ele><time>2026-05-02T12:45:23.998Z</time></trkpt><trkpt lat="45.06555827652044" lon="5.532199858228968"><ele>1137.3333333333335</ele><time>2026-05-02T12:45:24.998Z</time></trkpt><trkpt lat="45.06553138461404" lon="5.532102179565648"><ele>1138.1666666666667</ele><time>2026-05-02T12:45:25.998Z</time></trkpt><trkpt lat="45.06553782981328" lon="5.531991958598599"><ele>1139.0</ele><time>2026-05-02T12:45:26.998Z</time></trkpt><trkpt lat="45.06559065664705" lon="5.531895647421643"><ele>1139.0</ele><time>2026-05-02T12:45:27.998Z</time></trkpt><trkpt lat="45.06563951518108" lon="5.531772715764975"><ele>1139.0</ele><time>2026-05-02T12:45:28.998Z</time></trkpt><trkpt lat="45.06569472283424" lon="5.531634904287072"><ele>1139.0</ele><time>2026-05-02T12:45:29.998Z</time></trkpt><trkpt lat="45.06576068348112" lon="5.5314544334216365"><ele>1139.0</ele><time>2026-05-02T12:45:30.998Z</time></trkpt><trkpt lat="45.06583325970349" lon="5.531218267845376"><ele>1137.0</ele><time>2026-05-02T12:45:31.998Z</time></trkpt><trkpt lat="45.065858248929544" lon="5.530976468738459"><ele>1135.0</ele><time>2026-05-02T12:45:32.998Z</time></trkpt><trkpt lat="45.065893823753925" lon="5.530720928666698"><ele>1133.0</ele><time>2026-05-02T12:45:33.998Z</time></trkpt><trkpt lat="45.0659249633541" lon="5.530427603652876"><ele>1132.6666666666667</ele><time>2026-05-02T12:45:34.998Z</time></trkpt><trkpt lat="45.06594779844267" lon="5.530121660779691"><ele>1132.3333333333333</ele><time>2026-05-02T12:45:36Z</time></trkpt><trkpt lat="45.06597265799351" lon="5.529832221015824"><ele>1132.0</ele><time>2026-05-02T12:45:37Z</time></trkpt><trkpt lat="45.06599408986294" lon="5.529560675544267"><ele>1133.0</ele><time>2026-05-02T12:45:38Z</time></trkpt><trkpt lat="45.06601326613107" lon="5.529288414751777"><ele>1134.0</ele><time>2026-05-02T12:45:39Z</time></trkpt><trkpt lat="45.066034458700976" lon="5.529023681942526"><ele>1135.0</ele><time>2026-05-02T12:45:40Z</time></trkpt><trkpt lat="45.066055461416596" lon="5.528755837817893"><ele>1135.6666666666665</ele><time>2026-05-02T12:45:41Z</time></trkpt><trkpt lat="45.066076210529005" lon="5.528491772756333"><ele>1136.3333333333333</ele><time>2026-05-02T12:45:42Z</time></trkpt><trkpt lat="45.06609609695528" lon="5.528241247578311"><ele>1137.0</ele><time>2026-05-02T12:45:43Z</time></trkpt><trkpt lat="45.066110206863264" lon="5.528020880733499"><ele>1137.25</ele><time>2026-05-02T12:45:44Z</time></trkpt><trkpt lat="45.066117111214965" lon="5.527816600026283"><ele>1137.5</ele><time>2026-05-02T12:45:45Z</time></trkpt><trkpt lat="45.06609954543172" lon="5.52761841937775"><ele>1137.75</ele><time>2026-05-02T12:45:46Z</time></trkpt><trkpt lat="45.06604407092133" lon="5.527407806960133"><ele>1138.0</ele><time>2026-05-02T12:45:47Z</time></trkpt><trkpt lat="45.06594046425125" lon="5.527187257897338"><ele>1136.6666666666665</ele><time>2026-05-02T12:45:48Z</time></trkpt><trkpt lat="45.06582403646876" lon="5.526936120919426"><ele>1135.3333333333333</ele><time>2026-05-02T12:45:49Z</time></trkpt><trkpt lat="45.0657012889366" lon="5.526689739853115"><ele>1134.0</ele><time>2026-05-02T12:45:50Z</time></trkpt><trkpt lat="45.06558209338761" lon="5.526460145050587"><ele>1136.6666666666667</ele><time>2026-05-02T12:45:51Z</time></trkpt><trkpt lat="45.06545665196055" lon="5.526208042120615"><ele>1139.3333333333335</ele><time>2026-05-02T12:45:52Z</time></trkpt><trkpt lat="45.06532625795503" lon="5.525979764799368"><ele>1142.0</ele><time>2026-05-02T12:45:53Z</time></trkpt><trkpt lat="45.065222629772734" lon="5.525762993992954"><ele>1142.0</ele><time>2026-05-02T12:45:54Z</time></trkpt><trkpt lat="45.06515417070776" lon="5.525544859899966"><ele>1142.0</ele><time>2026-05-02T12:45:55Z</time></trkpt><trkpt lat="45.065095929993234" lon="5.525335743547419"><ele>1142.0</ele><time>2026-05-02T12:45:56Z</time></trkpt><trkpt lat="45.06504486159825" lon="5.525125331671252"><ele>1142.3333333333335</ele><time>2026-05-02T12:45:57Z</time></trkpt><trkpt lat="45.06498341032231" lon="5.524921849143652"><ele>1142.6666666666667</ele><time>2026-05-02T12:45:58Z</time></trkpt><trkpt lat="45.06490844342023" lon="5.524729732330397"><ele>1143.0</ele><time>2026-05-02T12:45:59Z</time></trkpt><trkpt lat="45.06480377829065" lon="5.524560590601777"><ele>1141.6666666666667</ele><time>2026-05-02T12:46:00Z</time></trkpt><trkpt lat="45.06466928336737" lon="5.5244230772417335"><ele>1140.3333333333335</ele><time>2026-05-02T12:46:01Z</time></trkpt><trkpt lat="45.0645155647827" lon="5.524341903403218"><ele>1139.0</ele><time>2026-05-02T12:46:02Z</time></trkpt><trkpt lat="45.06434037995855" lon="5.524336236402096"><ele>1139.0</ele><time>2026-05-02T12:46:03Z</time></trkpt><trkpt lat="45.0641491770079" lon="5.524372655251363"><ele>1139.0</ele><time>2026-05-02T12:46:04Z</time></trkpt><trkpt lat="45.06393745194506" lon="5.524457334785145"><ele>1139.0</ele><time>2026-05-02T12:46:05Z</time></trkpt><trkpt lat="45.06371537898698" lon="5.524556528115489"><ele>1139.3333333333335</ele><time>2026-05-02T12:46:06Z</time></trkpt><trkpt lat="45.063512050080874" lon="5.524657512848243"><ele>1139.6666666666667</ele><time>2026-05-02T12:46:07Z</time></trkpt><trkpt lat="45.063304838575135" lon="5.524718300882197"><ele>1140.0</ele><time>2026-05-02T12:46:08Z</time></trkpt><trkpt lat="45.06310152952179" lon="5.524791624953104"><ele>1140.0</ele><time>2026-05-02T12:46:09Z</time></trkpt><trkpt lat="45.06289275651975" lon="5.524831076573391"><ele>1140.0</ele><time>2026-05-02T12:46:10Z</time></trkpt><trkpt lat="45.06268866664117" lon="5.524817489788496"><ele>1140.0</ele><time>2026-05-02T12:46:11Z</time></trkpt><trkpt lat="45.062504093224305" lon="5.524765101553523"><ele>1138.6666666666667</ele><time>2026-05-02T12:46:12Z</time></trkpt><trkpt lat="45.06233519148125" lon="5.524667526711993"><ele>1137.3333333333335</ele><time>2026-05-02T12:46:13Z</time></trkpt><trkpt lat="45.062164339364635" lon="5.524542751949418"><ele>1136.0</ele><time>2026-05-02T12:46:14Z</time></trkpt><trkpt lat="45.06199408222676" lon="5.524408631316293"><ele>1136.0</ele><time>2026-05-02T12:46:15Z</time></trkpt><trkpt lat="45.0618178740516" lon="5.524282919549717"><ele>1136.0</ele><time>2026-05-02T12:46:16Z</time></trkpt><trkpt lat="45.06162932524945" lon="5.524232090159358"><ele>1136.0</ele><time>2026-05-02T12:46:17Z</time></trkpt><trkpt lat="45.06145851391181" lon="5.524203794691753"><ele>1138.0</ele><time>2026-05-02T12:46:18Z</time></trkpt><trkpt lat="45.06130044991057" lon="5.524191070175647"><ele>1140.0</ele><time>2026-05-02T12:46:18.999Z</time></trkpt><trkpt lat="45.06114374973859" lon="5.5241506755161325"><ele>1142.0</ele><time>2026-05-02T12:46:19.999Z</time></trkpt><trkpt lat="45.06099037050995" lon="5.524112420946375"><ele>1142.0</ele><time>2026-05-02T12:46:20.999Z</time></trkpt><trkpt lat="45.06083788031807" lon="5.524075170995196"><ele>1142.0</ele><time>2026-05-02T12:46:21.999Z</time></trkpt><trkpt lat="45.060731324658825" lon="5.52390991488658"><ele>1142.0</ele><time>2026-05-02T12:46:22.999Z</time></trkpt><trkpt lat="45.06066571010786" lon="5.523710598604309"><ele>1142.0</ele><time>2026-05-02T12:46:23.999Z</time></trkpt><trkpt lat="45.060599016824256" lon="5.523529154914234"><ele>1142.0</ele><time>2026-05-02T12:46:24.999Z</time></trkpt><trkpt lat="45.0605655000368" lon="5.523359179474649"><ele>1142.0</ele><time>2026-05-02T12:46:25.999Z</time></trkpt><trkpt lat="45.060537002513136" lon="5.523228551223281"><ele>1142.0</ele><time>2026-05-02T12:46:26.999Z</time></trkpt><trkpt lat="45.06050344280838" lon="5.5231489652287395"><ele>1142.0</ele><time>2026-05-02T12:46:27.999Z</time></trkpt><trkpt lat="45.060402042725606" lon="5.523073448067683"><ele>1142.0</ele><time>2026-05-02T12:46:29.999Z</time></trkpt><trkpt lat="45.06029288540381" lon="5.523028933762682"><ele>1142.0</ele><time>2026-05-02T12:46:31.999Z</time></trkpt><trkpt lat="45.06022188274658" lon="5.523048807684176"><ele>1142.0</ele><time>2026-05-02T12:46:32.999Z</time></trkpt><trkpt lat="45.06014309728104" lon="5.523033141333422"><ele>1142.0</ele><time>2026-05-02T12:46:33.999Z</time></trkpt><trkpt lat="45.060055206350334" lon="5.52301900957755"><ele>1142.0</ele><time>2026-05-02T12:46:34.999Z</time></trkpt><trkpt lat="45.05995686598428" lon="5.523011217705431"><ele>1141.8</ele><time>2026-05-02T12:46:35.999Z</time></trkpt><trkpt lat="45.05985753524138" lon="5.522965061160252"><ele>1141.6</ele><time>2026-05-02T12:46:36.999Z</time></trkpt><trkpt lat="45.05975775650625" lon="5.522953703922678"><ele>1141.3999999999999</ele><time>2026-05-02T12:46:37.999Z</time></trkpt><trkpt lat="45.05965765365757" lon="5.522943958970913"><ele>1141.2</ele><time>2026-05-02T12:46:38.999Z</time></trkpt><trkpt lat="45.05955334991003" lon="5.5229323267518815"><ele>1141.0</ele><time>2026-05-02T12:46:39.999Z</time></trkpt><trkpt lat="45.05944524960987" lon="5.5229167729106745"><ele>1141.75</ele><time>2026-05-02T12:46:40.999Z</time></trkpt><trkpt lat="45.059338603782535" lon="5.522886850649244"><ele>1142.5</ele><time>2026-05-02T12:46:41.999Z</time></trkpt><trkpt lat="45.05923364094152" lon="5.522845890130214"><ele>1143.25</ele><time>2026-05-02T12:46:42.999Z</time></trkpt><trkpt lat="45.05912179800626" lon="5.5227906172259615"><ele>1144.0</ele><time>2026-05-02T12:46:43.999Z</time></trkpt><trkpt lat="45.059002983089314" lon="5.5227229138072165"><ele>1144.0</ele><time>2026-05-02T12:46:44.999Z</time></trkpt><trkpt lat="45.05888226278492" lon="5.522651923120556"><ele>1144.0</ele><time>2026-05-02T12:46:45.999Z</time></trkpt><trkpt lat="45.05874485660896" lon="5.52256846332519"><ele>1144.0</ele><time>2026-05-02T12:46:46.999Z</time></trkpt><trkpt lat="45.05861651355304" lon="5.522488890321952"><ele>1144.0</ele><time>2026-05-02T12:46:47.999Z</time></trkpt><trkpt lat="45.058483827278515" lon="5.522404027125713"><ele>1144.0</ele><time>2026-05-02T12:46:48.999Z</time></trkpt><trkpt lat="45.05835040618791" lon="5.522312361894892"><ele>1144.0</ele><time>2026-05-02T12:46:49.999Z</time></trkpt><trkpt lat="45.058205640245525" lon="5.522255817534333"><ele>1144.0</ele><time>2026-05-02T12:46:50.999Z</time></trkpt><trkpt lat="45.058051371894784" lon="5.52222243617033"><ele>1146.3333333333333</ele><time>2026-05-02T12:46:51.999Z</time></trkpt><trkpt lat="45.057889101170396" lon="5.522210105393842"><ele>1148.6666666666667</ele><time>2026-05-02T12:46:52.999Z</time></trkpt><trkpt lat="45.05771748216496" lon="5.522191583130365"><ele>1151.0</ele><time>2026-05-02T12:46:53.999Z</time></trkpt><trkpt lat="45.057557791670135" lon="5.522126070302516"><ele>1149.3333333333335</ele><time>2026-05-02T12:46:54.999Z</time></trkpt><trkpt lat="45.05739730404895" lon="5.522044555230745"><ele>1147.6666666666667</ele><time>2026-05-02T12:46:55.999Z</time></trkpt><trkpt lat="45.05723405741164" lon="5.521955233178139"><ele>1146.0</ele><time>2026-05-02T12:46:56.999Z</time></trkpt><trkpt lat="45.05707243183888" lon="5.521862162317324"><ele>1146.0</ele><time>2026-05-02T12:46:57.999Z</time></trkpt><trkpt lat="45.05691520984156" lon="5.521775174119927"><ele>1146.0</ele><time>2026-05-02T12:46:58.999Z</time></trkpt><trkpt lat="45.056766959381" lon="5.521692808700074"><ele>1146.0</ele><time>2026-05-02T12:46:59.999Z</time></trkpt><trkpt lat="45.05663659458354" lon="5.5216124844867664"><ele>1148.75</ele><time>2026-05-02T12:47:00.999Z</time></trkpt><trkpt lat="45.05652447411306" lon="5.521527147167477"><ele>1151.5</ele><time>2026-05-02T12:47:01.999Z</time></trkpt><trkpt lat="45.056437693673324" lon="5.521408097965439"><ele>1154.25</ele><time>2026-05-02T12:47:02.999Z</time></trkpt><trkpt lat="45.05637671910358" lon="5.521268022339524"><ele>1157.0</ele><time>2026-05-02T12:47:03.999Z</time></trkpt><trkpt lat="45.056323214155555" lon="5.521114525169906"><ele>1157.0</ele><time>2026-05-02T12:47:04.999Z</time></trkpt><trkpt lat="45.05626150897927" lon="5.5209571011430905"><ele>1157.0</ele><time>2026-05-02T12:47:05.999Z</time></trkpt><trkpt lat="45.05619783968099" lon="5.520796785652738"><ele>1157.0</ele><time>2026-05-02T12:47:06.999Z</time></trkpt><trkpt lat="45.056114146024775" lon="5.520632839131048"><ele>1157.0</ele><time>2026-05-02T12:47:07.999Z</time></trkpt><trkpt lat="45.056054129956564" lon="5.5204407014541435"><ele>1157.5</ele><time>2026-05-02T12:47:08.999Z</time></trkpt><trkpt lat="45.055994762167295" lon="5.520258245841321"><ele>1158.0</ele><time>2026-05-02T12:47:09.999Z</time></trkpt><trkpt lat="45.05597074257877" lon="5.520073255824665"><ele>1158.5</ele><time>2026-05-02T12:47:10.999Z</time></trkpt><trkpt lat="45.05594190186344" lon="5.519861841145415"><ele>1159.0</ele><time>2026-05-02T12:47:11.999Z</time></trkpt><trkpt lat="45.055910747003836" lon="5.519664673501025"><ele>1158.25</ele><time>2026-05-02T12:47:12.999Z</time></trkpt><trkpt lat="45.05587834978499" lon="5.519480993268181"><ele>1157.5</ele><time>2026-05-02T12:47:13.999Z</time></trkpt><trkpt lat="45.05584335621437" lon="5.519302793123144"><ele>1156.75</ele><time>2026-05-02T12:47:14.999Z</time></trkpt><trkpt lat="45.055800753809514" lon="5.519105993551006"><ele>1156.0</ele><time>2026-05-02T12:47:15.999Z</time></trkpt><trkpt lat="45.055748742690014" lon="5.518947165014935"><ele>1160.6</ele><time>2026-05-02T12:47:16.999Z</time></trkpt><trkpt lat="45.055725433004696" lon="5.518803144190935"><ele>1165.1999999999998</ele><time>2026-05-02T12:47:17.999Z</time></trkpt><trkpt lat="45.05566697316508" lon="5.518659991217663"><ele>1169.8000000000002</ele><time>2026-05-02T12:47:18.999Z</time></trkpt><trkpt lat="45.055641675889234" lon="5.51850037759044"><ele>1174.4</ele><time>2026-05-02T12:47:19.999Z</time></trkpt><trkpt lat="45.05566484123176" lon="5.51834451992403"><ele>1179.0</ele><time>2026-05-02T12:47:20.999Z</time></trkpt><trkpt lat="45.055726831157536" lon="5.5181621705689"><ele>1174.0</ele><time>2026-05-02T12:47:21.998Z</time></trkpt><trkpt lat="45.055796718905725" lon="5.518007445450085"><ele>1169.0</ele><time>2026-05-02T12:47:22.998Z</time></trkpt><trkpt lat="45.0558614133865" lon="5.517877378210007"><ele>1164.0</ele><time>2026-05-02T12:47:23.998Z</time></trkpt><trkpt lat="45.05589023943622" lon="5.5177400107532595"><ele>1159.0</ele><time>2026-05-02T12:47:24.998Z</time></trkpt><trkpt lat="45.055880490906915" lon="5.51761485752915"><ele>1154.0</ele><time>2026-05-02T12:47:25.998Z</time></trkpt><trkpt lat="45.05580093249914" lon="5.517528960758955"><ele>1158.25</ele><time>2026-05-02T12:47:26.998Z</time></trkpt><trkpt lat="45.05574602985456" lon="5.51741086774944"><ele>1162.5</ele><time>2026-05-02T12:47:27.998Z</time></trkpt><trkpt lat="45.05569939250168" lon="5.517263034695802"><ele>1166.75</ele><time>2026-05-02T12:47:28.998Z</time></trkpt><trkpt lat="45.05573378002743" lon="5.51708336377038"><ele>1171.0</ele><time>2026-05-02T12:47:29.998Z</time></trkpt><trkpt lat="45.05571818714962" lon="5.516926864298457"><ele>1171.0</ele><time>2026-05-02T12:47:30.998Z</time></trkpt><trkpt lat="45.05571057797549" lon="5.516775625148784"><ele>1171.0</ele><time>2026-05-02T12:47:31.998Z</time></trkpt><trkpt lat="45.05565602527083" lon="5.51664141121504"><ele>1171.0</ele><time>2026-05-02T12:47:32.998Z</time></trkpt><trkpt lat="45.055562395869615" lon="5.516536800899486"><ele>1171.0</ele><time>2026-05-02T12:47:33.998Z</time></trkpt><trkpt lat="45.05549100617743" lon="5.516412195242409"><ele>1171.0</ele><time>2026-05-02T12:47:34.998Z</time></trkpt><trkpt lat="45.05544566859035" lon="5.516278397810586"><ele>1168.6</ele><time>2026-05-02T12:47:35.998Z</time></trkpt><trkpt lat="45.05542684751825" lon="5.516132472015604"><ele>1166.1999999999998</ele><time>2026-05-02T12:47:36.998Z</time></trkpt><trkpt lat="45.0553981893813" lon="5.516010016147987"><ele>1163.8000000000002</ele><time>2026-05-02T12:47:37.998Z</time></trkpt><trkpt lat="45.05536528889506" lon="5.515832042399176"><ele>1161.4</ele><time>2026-05-02T12:47:39.998Z</time></trkpt><trkpt lat="45.05534973019207" lon="5.515673443417891"><ele>1159.0</ele><time>2026-05-02T12:47:42Z</time></trkpt><trkpt lat="45.05535077588871" lon="5.515583007215368"><ele>1159.0</ele><time>2026-05-02T12:47:43Z</time></trkpt><trkpt lat="45.05537245778663" lon="5.515484227938524"><ele>1159.0</ele><time>2026-05-02T12:47:44Z</time></trkpt><trkpt lat="45.05541343245658" lon="5.51538633511997"><ele>1159.0</ele><time>2026-05-02T12:47:45Z</time></trkpt><trkpt lat="45.05548627270013" lon="5.515300566447501"><ele>1159.0</ele><time>2026-05-02T12:47:46Z</time></trkpt><trkpt lat="45.055586720981154" lon="5.515269800441261"><ele>1159.0</ele><time>2026-05-02T12:47:47Z</time></trkpt><trkpt lat="45.055686029381214" lon="5.515224681782765"><ele>1159.0</ele><time>2026-05-02T12:47:48Z</time></trkpt><trkpt lat="45.05579462310323" lon="5.51517866996337"><ele>1159.0</ele><time>2026-05-02T12:47:49Z</time></trkpt><trkpt lat="45.05591524654903" lon="5.515124233706576"><ele>1159.0</ele><time>2026-05-02T12:47:50Z</time></trkpt><trkpt lat="45.05602056691999" lon="5.515034603366627"><ele>1159.0</ele><time>2026-05-02T12:47:51Z</time></trkpt><trkpt lat="45.05609542518769" lon="5.514937319726759"><ele>1159.0</ele><time>2026-05-02T12:47:52Z</time></trkpt><trkpt lat="45.05615149992778" lon="5.514826765896458"><ele>1159.0</ele><time>2026-05-02T12:47:53Z</time></trkpt><trkpt lat="45.05616595407402" lon="5.514679066249976"><ele>1159.0</ele><time>2026-05-02T12:47:54Z</time></trkpt><trkpt lat="45.056122271741906" lon="5.51449350961537"><ele>1159.0</ele><time>2026-05-02T12:47:55Z</time></trkpt><trkpt lat="45.05607290287434" lon="5.51431923145374"><ele>1160.75</ele><time>2026-05-02T12:47:56Z</time></trkpt><trkpt lat="45.05602591517954" lon="5.514153353985213"><ele>1162.5</ele><time>2026-05-02T12:47:57Z</time></trkpt><trkpt lat="45.056026912381476" lon="5.513983826388901"><ele>1164.25</ele><time>2026-05-02T12:47:58Z</time></trkpt><trkpt lat="45.056117720078305" lon="5.51384644370728"><ele>1166.0</ele><time>2026-05-02T12:47:59Z</time></trkpt><trkpt lat="45.056223325476545" lon="5.513721951877864"><ele>1168.5</ele><time>2026-05-02T12:48:00Z</time></trkpt><trkpt lat="45.05631043351183" lon="5.513654538549429"><ele>1171.0</ele><time>2026-05-02T12:48:01Z</time></trkpt><trkpt lat="45.056403593610334" lon="5.513520487100689"><ele>1173.5</ele><time>2026-05-02T12:48:02Z</time></trkpt><trkpt lat="45.05647752505804" lon="5.513382827735024"><ele>1176.0</ele><time>2026-05-02T12:48:03Z</time></trkpt><trkpt lat="45.056489416107254" lon="5.513204227808926"><ele>1176.0</ele><time>2026-05-02T12:48:04Z</time></trkpt><trkpt lat="45.05645110316062" lon="5.512995366304865"><ele>1176.0</ele><time>2026-05-02T12:48:05Z</time></trkpt><trkpt lat="45.05640238843451" lon="5.512777426961424"><ele>1176.0</ele><time>2026-05-02T12:48:06Z</time></trkpt><trkpt lat="45.05633293135554" lon="5.512614865965913"><ele>1176.0</ele><time>2026-05-02T12:48:07Z</time></trkpt><trkpt lat="45.05627024609844" lon="5.5124868958953375"><ele>1176.75</ele><time>2026-05-02T12:48:08Z</time></trkpt><trkpt lat="45.05620539176226" lon="5.512348250232836"><ele>1177.5</ele><time>2026-05-02T12:48:09Z</time></trkpt><trkpt lat="45.05611643600232" lon="5.512227930075845"><ele>1178.25</ele><time>2026-05-02T12:48:10Z</time></trkpt><trkpt lat="45.056023469802675" lon="5.512103358438839"><ele>1179.0</ele><time>2026-05-02T12:48:11Z</time></trkpt><trkpt lat="45.055919786502244" lon="5.51198218222069"><ele>1179.8</ele><time>2026-05-02T12:48:12Z</time></trkpt><trkpt lat="45.05581663319109" lon="5.511843693743199"><ele>1180.6000000000001</ele><time>2026-05-02T12:48:13Z</time></trkpt><trkpt lat="45.055790338174596" lon="5.511686233029685"><ele>1181.4</ele><time>2026-05-02T12:48:14Z</time></trkpt><trkpt lat="45.05577602059369" lon="5.511547378366092"><ele>1182.2</ele><time>2026-05-02T12:48:15Z</time></trkpt><trkpt lat="45.055811115522786" lon="5.511434685199053"><ele>1183.0</ele><time>2026-05-02T12:48:16Z</time></trkpt><trkpt lat="45.05588489420917" lon="5.5113708461591875"><ele>1183.0</ele><time>2026-05-02T12:48:17Z</time></trkpt><trkpt lat="45.055953961476305" lon="5.511354471224786"><ele>1183.0</ele><time>2026-05-02T12:48:18Z</time></trkpt><trkpt lat="45.05602802590398" lon="5.511339987877647"><ele>1183.0</ele><time>2026-05-02T12:48:19Z</time></trkpt><trkpt lat="45.056112810510825" lon="5.511349682424749"><ele>1183.0</ele><time>2026-05-02T12:48:20Z</time></trkpt><trkpt lat="45.05620633628353" lon="5.511355990592158"><ele>1183.0</ele><time>2026-05-02T12:48:21Z</time></trkpt><trkpt lat="45.05634920287967" lon="5.511368455590125"><ele>1183.0</ele><time>2026-05-02T12:48:22Z</time></trkpt><trkpt lat="45.05651115375547" lon="5.511350479640936"><ele>1183.0</ele><time>2026-05-02T12:48:23Z</time></trkpt><trkpt lat="45.056758083570465" lon="5.51138446067616"><ele>1183.0</ele><time>2026-05-02T12:48:24Z</time></trkpt><trkpt lat="45.05691666832045" lon="5.511393232972377"><ele>1181.5</ele><time>2026-05-02T12:48:25Z</time></trkpt><trkpt lat="45.05704432751662" lon="5.511368136153323"><ele>1180.0</ele><time>2026-05-02T12:48:26Z</time></trkpt><trkpt lat="45.05714632947113" lon="5.511288490337416"><ele>1178.5</ele><time>2026-05-02T12:48:27Z</time></trkpt><trkpt lat="45.057227406279196" lon="5.511161462407947"><ele>1177.0</ele><time>2026-05-02T12:48:27.999Z</time></trkpt><trkpt lat="45.0572613205398" lon="5.511002405608396"><ele>1177.75</ele><time>2026-05-02T12:48:28.999Z</time></trkpt><trkpt lat="45.05731991753037" lon="5.510829583765358"><ele>1178.5</ele><time>2026-05-02T12:48:29.999Z</time></trkpt><trkpt lat="45.05739463910123" lon="5.5106992499566605"><ele>1179.25</ele><time>2026-05-02T12:48:30.999Z</time></trkpt><trkpt lat="45.05750736966315" lon="5.510639614494937"><ele>1180.0</ele><time>2026-05-02T12:48:31.999Z</time></trkpt><trkpt lat="45.057649901153006" lon="5.510580238394076"><ele>1180.0</ele><time>2026-05-02T12:48:32.999Z</time></trkpt><trkpt lat="45.05784425611402" lon="5.510477405162095"><ele>1180.0</ele><time>2026-05-02T12:48:33.999Z</time></trkpt><trkpt lat="45.05802230699232" lon="5.510357644236035"><ele>1180.0</ele><time>2026-05-02T12:48:34.999Z</time></trkpt><trkpt lat="45.05819315223837" lon="5.510270445333171"><ele>1181.0</ele><time>2026-05-02T12:48:35.999Z</time></trkpt><trkpt lat="45.058334014919424" lon="5.5101836584025286"><ele>1182.0</ele><time>2026-05-02T12:48:36.999Z</time></trkpt><trkpt lat="45.058467863634554" lon="5.5100404991145435"><ele>1183.0</ele><time>2026-05-02T12:48:37.999Z</time></trkpt><trkpt lat="45.05859422139087" lon="5.5098383860668845"><ele>1183.0</ele><time>2026-05-02T12:48:38.999Z</time></trkpt><trkpt lat="45.05870125497378" lon="5.509625295567482"><ele>1183.0</ele><time>2026-05-02T12:48:39.999Z</time></trkpt><trkpt lat="45.058804518176274" lon="5.509393835620346"><ele>1183.0</ele><time>2026-05-02T12:48:40.999Z</time></trkpt><trkpt lat="45.05893251546393" lon="5.509205134546829"><ele>1180.6666666666665</ele><time>2026-05-02T12:48:41.999Z</time></trkpt><trkpt lat="45.059075336582254" lon="5.50903517491208"><ele>1178.3333333333333</ele><time>2026-05-02T12:48:42.999Z</time></trkpt><trkpt lat="45.05923973662361" lon="5.508859985328916"><ele>1176.0</ele><time>2026-05-02T12:48:43.999Z</time></trkpt><trkpt lat="45.059397787319725" lon="5.508698861154276"><ele>1184.3333333333333</ele><time>2026-05-02T12:48:44.999Z</time></trkpt><trkpt lat="45.059530339718144" lon="5.5085053892622895"><ele>1192.6666666666665</ele><time>2026-05-02T12:48:45.999Z</time></trkpt><trkpt lat="45.05965477392742" lon="5.508317700916557"><ele>1201.0</ele><time>2026-05-02T12:48:46.999Z</time></trkpt><trkpt lat="45.059783396965095" lon="5.508102671496984"><ele>1201.0</ele><time>2026-05-02T12:48:47.999Z</time></trkpt><trkpt lat="45.05992780114586" lon="5.5079273394986386"><ele>1201.0</ele><time>2026-05-02T12:48:48.999Z</time></trkpt><trkpt lat="45.06010292921948" lon="5.50776922962236"><ele>1201.0</ele><time>2026-05-02T12:48:49.999Z</time></trkpt><trkpt lat="45.06029190348959" lon="5.507615423138049"><ele>1204.5</ele><time>2026-05-02T12:48:50.999Z</time></trkpt><trkpt lat="45.060496501187636" lon="5.5074545661629255"><ele>1208.0</ele><time>2026-05-02T12:48:51.999Z</time></trkpt><trkpt lat="45.060702411326176" lon="5.507292622790568"><ele>1207.3333333333335</ele><time>2026-05-02T12:48:52.999Z</time></trkpt><trkpt lat="45.06089175429194" lon="5.507141302097837"><ele>1206.6666666666667</ele><time>2026-05-02T12:48:53.999Z</time></trkpt><trkpt lat="45.061067801208516" lon="5.5070024611549995"><ele>1206.0</ele><time>2026-05-02T12:48:54.999Z</time></trkpt><trkpt lat="45.061226671435236" lon="5.506877166792809"><ele>1206.0</ele><time>2026-05-02T12:48:55.999Z</time></trkpt><trkpt lat="45.06137062696461" lon="5.5067562516086745"><ele>1206.0</ele><time>2026-05-02T12:48:56.999Z</time></trkpt><trkpt lat="45.0614822613489" lon="5.506654310109431"><ele>1206.0</ele><time>2026-05-02T12:48:57.999Z</time></trkpt><trkpt lat="45.06158650021947" lon="5.506539506800026"><ele>1206.0</ele><time>2026-05-02T12:48:58.999Z</time></trkpt><trkpt lat="45.0616544252838" lon="5.506373478320174"><ele>1202.3333333333333</ele><time>2026-05-02T12:48:59.999Z</time></trkpt><trkpt lat="45.061695146040115" lon="5.506164950045782"><ele>1198.6666666666665</ele><time>2026-05-02T12:49:00.999Z</time></trkpt><trkpt lat="45.06173579815065" lon="5.505924975409672"><ele>1195.0</ele><time>2026-05-02T12:49:01.999Z</time></trkpt><trkpt lat="45.061833422501174" lon="5.5057119722565595"><ele>1195.0</ele><time>2026-05-02T12:49:02.999Z</time></trkpt><trkpt lat="45.061935361848185" lon="5.505523999529313"><ele>1195.0</ele><time>2026-05-02T12:49:03.999Z</time></trkpt><trkpt lat="45.06206790987084" lon="5.505366441954701"><ele>1195.0</ele><time>2026-05-02T12:49:04.999Z</time></trkpt><trkpt lat="45.06224362734759" lon="5.505212542251623"><ele>1195.3333333333333</ele><time>2026-05-02T12:49:05.999Z</time></trkpt><trkpt lat="45.06242416978008" lon="5.505047695202616"><ele>1195.6666666666667</ele><time>2026-05-02T12:49:06.999Z</time></trkpt><trkpt lat="45.0625643635442" lon="5.504872136405098"><ele>1196.0</ele><time>2026-05-02T12:49:07.999Z</time></trkpt><trkpt lat="45.062662680260416" lon="5.504686465089707"><ele>1201.25</ele><time>2026-05-02T12:49:08.999Z</time></trkpt><trkpt lat="45.06277067794844" lon="5.504531041848595"><ele>1206.5</ele><time>2026-05-02T12:49:09.999Z</time></trkpt><trkpt lat="45.062869396680874" lon="5.504390644057614"><ele>1211.75</ele><time>2026-05-02T12:49:10.999Z</time></trkpt><trkpt lat="45.06297505053408" lon="5.504240914713714"><ele>1217.0</ele><time>2026-05-02T12:49:11.999Z</time></trkpt><trkpt lat="45.0630671514836" lon="5.504089926146632"><ele>1217.0</ele><time>2026-05-02T12:49:12.999Z</time></trkpt><trkpt lat="45.06313603547575" lon="5.503894666707257"><ele>1217.0</ele><time>2026-05-02T12:49:13.999Z</time></trkpt><trkpt lat="45.06320291611378" lon="5.5036477920766185"><ele>1217.0</ele><time>2026-05-02T12:49:14.999Z</time></trkpt><trkpt lat="45.06329015162009" lon="5.503387863915016"><ele>1214.6666666666667</ele><time>2026-05-02T12:49:15.999Z</time></trkpt><trkpt lat="45.06338820162185" lon="5.503122368913656"><ele>1212.3333333333333</ele><time>2026-05-02T12:49:16.999Z</time></trkpt><trkpt lat="45.06350170404007" lon="5.502852952501343"><ele>1210.0</ele><time>2026-05-02T12:49:17.999Z</time></trkpt><trkpt lat="45.06363882925899" lon="5.50255011938673"><ele>1210.0</ele><time>2026-05-02T12:49:18.999Z</time></trkpt><trkpt lat="45.063797390855534" lon="5.502227000835975"><ele>1210.0</ele><time>2026-05-02T12:49:19.999Z</time></trkpt><trkpt lat="45.063934640808036" lon="5.501921472250833"><ele>1211.6666666666665</ele><time>2026-05-02T12:49:20.999Z</time></trkpt><trkpt lat="45.0640649287084" lon="5.501668880015545"><ele>1213.3333333333333</ele><time>2026-05-02T12:49:21.999Z</time></trkpt><trkpt lat="45.0641878923523" lon="5.501447715630662"><ele>1215.0</ele><time>2026-05-02T12:49:22.999Z</time></trkpt><trkpt lat="45.06431364729456" lon="5.501261350235292"><ele>1215.3333333333333</ele><time>2026-05-02T12:49:23.999Z</time></trkpt><trkpt lat="45.064459954765624" lon="5.501103923696465"><ele>1215.6666666666665</ele><time>2026-05-02T12:49:24.999Z</time></trkpt><trkpt lat="45.06461381664655" lon="5.500977415216126"><ele>1216.0</ele><time>2026-05-02T12:49:25.999Z</time></trkpt><trkpt lat="45.064789585707715" lon="5.500871477045671"><ele>1205.0</ele><time>2026-05-02T12:49:26.999Z</time></trkpt><trkpt lat="45.064985344800775" lon="5.500764082775381"><ele>1194.0</ele><time>2026-05-02T12:49:27.999Z</time></trkpt><trkpt lat="45.065229883594824" lon="5.500656511890213"><ele>1194.0</ele><time>2026-05-02T12:49:28.999Z</time></trkpt><trkpt lat="45.06546415969798" lon="5.500524712221149"><ele>1194.0</ele><time>2026-05-02T12:49:29.999Z</time></trkpt><trkpt lat="45.06566881463435" lon="5.5003976570462525"><ele>1196.6666666666667</ele><time>2026-05-02T12:49:30.999Z</time></trkpt><trkpt lat="45.065858509935865" lon="5.500260469033727"><ele>1199.3333333333335</ele><time>2026-05-02T12:49:31.999Z</time></trkpt><trkpt lat="45.066019510930126" lon="5.500179571729659"><ele>1202.0</ele><time>2026-05-02T12:49:32.998Z</time></trkpt><trkpt lat="45.06614310451743" lon="5.500105598960726"><ele>1202.0</ele><time>2026-05-02T12:49:33.998Z</time></trkpt><trkpt lat="45.066239731101525" lon="5.500029436498843"><ele>1202.0</ele><time>2026-05-02T12:49:34.998Z</time></trkpt><trkpt lat="45.06630329059795" lon="5.499957262053186"><ele>1202.0</ele><time>2026-05-02T12:49:35.998Z</time></trkpt><trkpt lat="45.066353860682746" lon="5.499842114210043"><ele>1202.0</ele><time>2026-05-02T12:49:36.998Z</time></trkpt><trkpt lat="45.0663625508134" lon="5.499704311732179"><ele>1202.0</ele><time>2026-05-02T12:49:37.998Z</time></trkpt><trkpt lat="45.06630498240179" lon="5.499561691056001"><ele>1204.0</ele><time>2026-05-02T12:49:38.998Z</time></trkpt><trkpt lat="45.066196577541085" lon="5.499464076110436"><ele>1206.0</ele><time>2026-05-02T12:49:39.998Z</time></trkpt><trkpt lat="45.06610705184648" lon="5.499322647179614"><ele>1208.0</ele><time>2026-05-02T12:49:40.998Z</time></trkpt><trkpt lat="45.0660139918663" lon="5.49919210549181"><ele>1210.0</ele><time>2026-05-02T12:49:41.998Z</time></trkpt><trkpt lat="45.06597108846236" lon="5.499055093186181"><ele>1210.0</ele><time>2026-05-02T12:49:42.998Z</time></trkpt><trkpt lat="45.065990452479355" lon="5.49887145499443"><ele>1210.0</ele><time>2026-05-02T12:49:43.998Z</time></trkpt><trkpt lat="45.06605589208845" lon="5.498686720060044"><ele>1210.0</ele><time>2026-05-02T12:49:44.998Z</time></trkpt><trkpt lat="45.06619126882211" lon="5.498583633330521"><ele>1210.0</ele><time>2026-05-02T12:49:45.998Z</time></trkpt><trkpt lat="45.066245939631436" lon="5.498447013686294"><ele>1210.0</ele><time>2026-05-02T12:49:46.998Z</time></trkpt><trkpt lat="45.06629032064356" lon="5.49832873141404"><ele>1210.0</ele><time>2026-05-02T12:49:48Z</time></trkpt><trkpt lat="45.066276914066826" lon="5.498192031638496"><ele>1210.0</ele><time>2026-05-02T12:49:49Z</time></trkpt><trkpt lat="45.06622485376586" lon="5.498050160800395"><ele>1210.0</ele><time>2026-05-02T12:49:50Z</time></trkpt><trkpt lat="45.0661294324705" lon="5.497884515002815"><ele>1208.3333333333333</ele><time>2026-05-02T12:49:51Z</time></trkpt><trkpt lat="45.06602731308335" lon="5.497682809902988"><ele>1206.6666666666667</ele><time>2026-05-02T12:49:52Z</time></trkpt><trkpt lat="45.065968801188525" lon="5.4974604930767805"><ele>1205.0</ele><time>2026-05-02T12:49:53Z</time></trkpt><trkpt lat="45.06590148797569" lon="5.497251233070435"><ele>1208.75</ele><time>2026-05-02T12:49:54Z</time></trkpt><trkpt lat="45.06584115611054" lon="5.497054986898645"><ele>1212.5</ele><time>2026-05-02T12:49:55Z</time></trkpt><trkpt lat="45.06578952594743" lon="5.4968831343734506"><ele>1216.25</ele><time>2026-05-02T12:49:56Z</time></trkpt><trkpt lat="45.0657627998672" lon="5.496728000155785"><ele>1220.0</ele><time>2026-05-02T12:49:57Z</time></trkpt><trkpt lat="45.0656892514791" lon="5.4966198810180575"><ele>1220.0</ele><time>2026-05-02T12:49:58Z</time></trkpt><trkpt lat="45.06562763475003" lon="5.496530669426358"><ele>1220.0</ele><time>2026-05-02T12:49:59Z</time></trkpt><trkpt lat="45.06553509805667" lon="5.496518318288068"><ele>1220.0</ele><time>2026-05-02T12:50:00Z</time></trkpt><trkpt lat="45.06543363464039" lon="5.4965081873886685"><ele>1220.0</ele><time>2026-05-02T12:50:01Z</time></trkpt><trkpt lat="45.06534889433699" lon="5.496440136826087"><ele>1220.0</ele><time>2026-05-02T12:50:02Z</time></trkpt><trkpt lat="45.065259102379514" lon="5.4963571720700894"><ele>1220.0</ele><time>2026-05-02T12:50:03Z</time></trkpt><trkpt lat="45.06516681821182" lon="5.49629873157362"><ele>1220.0</ele><time>2026-05-02T12:50:04Z</time></trkpt><trkpt lat="45.06510555329506" lon="5.49621242049862"><ele>1220.0</ele><time>2026-05-02T12:50:05Z</time></trkpt><trkpt lat="45.065050117612564" lon="5.496156541482328"><ele>1220.0</ele><time>2026-05-02T12:50:06Z</time></trkpt><trkpt lat="45.06495922856163" lon="5.496048747379116"><ele>1220.0</ele><time>2026-05-02T12:50:08Z</time></trkpt><trkpt lat="45.064914287674135" lon="5.495982757276079"><ele>1220.0</ele><time>2026-05-02T12:50:09Z</time></trkpt><trkpt lat="45.06486712829127" lon="5.495901832171623"><ele>1222.1666666666667</ele><time>2026-05-02T12:50:10Z</time></trkpt><trkpt lat="45.06481090164521" lon="5.495824578422933"><ele>1224.3333333333335</ele><time>2026-05-02T12:50:11Z</time></trkpt><trkpt lat="45.064745536998885" lon="5.4957329800110415"><ele>1226.5</ele><time>2026-05-02T12:50:12Z</time></trkpt><trkpt lat="45.06467998849209" lon="5.495635270560639"><ele>1228.6666666666667</ele><time>2026-05-02T12:50:13Z</time></trkpt><trkpt lat="45.0646235418913" lon="5.495547253944062"><ele>1230.8333333333333</ele><time>2026-05-02T12:50:14Z</time></trkpt><trkpt lat="45.064578709417916" lon="5.495463679310537"><ele>1233.0</ele><time>2026-05-02T12:50:15Z</time></trkpt><trkpt lat="45.064553708831326" lon="5.495374049571617"><ele>1226.5714285714287</ele><time>2026-05-02T12:50:16Z</time></trkpt><trkpt lat="45.064546935122706" lon="5.4952503595490025"><ele>1220.142857142857</ele><time>2026-05-02T12:50:18Z</time></trkpt><trkpt lat="45.06452601568245" lon="5.495153313896646"><ele>1213.7142857142858</ele><time>2026-05-02T12:50:21Z</time></trkpt><trkpt lat="45.064472429671305" lon="5.49520325936041"><ele>1207.2857142857142</ele><time>2026-05-02T13:11:11Z</time></trkpt><trkpt lat="45.06443899316779" lon="5.49510893805676"><ele>1200.857142857143</ele><time>2026-05-02T13:11:13Z</time></trkpt><trkpt lat="45.06438346412124" lon="5.495048097677711"><ele>1194.4285714285716</ele><time>2026-05-02T13:11:16Z</time></trkpt><trkpt lat="45.06432235904614" lon="5.495019011285823"><ele>1188.0</ele><time>2026-05-02T13:11:18Z</time></trkpt><trkpt lat="45.064256896734236" lon="5.494991395286183"><ele>1188.0</ele><time>2026-05-02T13:11:19Z</time></trkpt><trkpt lat="45.064187274482585" lon="5.4949739020943555"><ele>1188.0</ele><time>2026-05-02T13:11:20Z</time></trkpt><trkpt lat="45.064106580468895" lon="5.494961595699662"><ele>1188.0</ele><time>2026-05-02T13:11:21Z</time></trkpt><trkpt lat="45.06402365073192" lon="5.494859800199922"><ele>1188.0</ele><time>2026-05-02T13:11:22Z</time></trkpt><trkpt lat="45.06394797880421" lon="5.494841257139127"><ele>1188.0</ele><time>2026-05-02T13:11:23Z</time></trkpt><trkpt lat="45.06386532266341" lon="5.4948168879431885"><ele>1188.0</ele><time>2026-05-02T13:11:24Z</time></trkpt><trkpt lat="45.06377325632867" lon="5.494766257084654"><ele>1190.0</ele><time>2026-05-02T13:11:25Z</time></trkpt><trkpt lat="45.06368099949498" lon="5.494701025306837"><ele>1192.0</ele><time>2026-05-02T13:11:26Z</time></trkpt><trkpt lat="45.063620152003196" lon="5.494560442436284"><ele>1194.0</ele><time>2026-05-02T13:11:27Z</time></trkpt><trkpt lat="45.06352047762402" lon="5.494441097631235"><ele>1196.0</ele><time>2026-05-02T13:11:28Z</time></trkpt><trkpt lat="45.06345190694021" lon="5.494289647541158"><ele>1196.0</ele><time>2026-05-02T13:11:29Z</time></trkpt><trkpt lat="45.06335055602602" lon="5.494149333256187"><ele>1196.0</ele><time>2026-05-02T13:11:30Z</time></trkpt><trkpt lat="45.06323820943287" lon="5.493986431356334"><ele>1196.0</ele><time>2026-05-02T13:11:30.999Z</time></trkpt><trkpt lat="45.063138576156014" lon="5.493813412765281"><ele>1203.0</ele><time>2026-05-02T13:11:31.999Z</time></trkpt><trkpt lat="45.063033257713" lon="5.493643947375792"><ele>1210.0</ele><time>2026-05-02T13:11:32.999Z</time></trkpt><trkpt lat="45.06291770077334" lon="5.493489401906694"><ele>1217.0</ele><time>2026-05-02T13:11:33.999Z</time></trkpt><trkpt lat="45.06282206086341" lon="5.493323601273376"><ele>1217.0</ele><time>2026-05-02T13:11:34.999Z</time></trkpt><trkpt lat="45.06274286302893" lon="5.493172470347523"><ele>1217.0</ele><time>2026-05-02T13:11:35.999Z</time></trkpt><trkpt lat="45.06265202308154" lon="5.493063837983126"><ele>1217.0</ele><time>2026-05-02T13:11:36.999Z</time></trkpt><trkpt lat="45.06257348515634" lon="5.4929779024563965"><ele>1217.0</ele><time>2026-05-02T13:11:37.999Z</time></trkpt><trkpt lat="45.06249652335941" lon="5.492908430728358"><ele>1217.0</ele><time>2026-05-02T13:11:38.999Z</time></trkpt><trkpt lat="45.06244902944783" lon="5.492821281765208"><ele>1217.8</ele><time>2026-05-02T13:11:39.999Z</time></trkpt><trkpt lat="45.06238929070492" lon="5.492736958882436"><ele>1218.6</ele><time>2026-05-02T13:11:40.999Z</time></trkpt><trkpt lat="45.06234314484419" lon="5.492665872532441"><ele>1219.3999999999999</ele><time>2026-05-02T13:11:41.999Z</time></trkpt><trkpt lat="45.062422514762154" lon="5.49248534175176"><ele>1220.2</ele><time>2026-05-02T13:11:42.999Z</time></trkpt><trkpt lat="45.0625039306826" lon="5.492393909426791"><ele>1221.0</ele><time>2026-05-02T13:11:43.999Z</time></trkpt><trkpt lat="45.06259780684365" lon="5.492244867659544"><ele>1225.5</ele><time>2026-05-02T13:11:44.999Z</time></trkpt><trkpt lat="45.06267484517283" lon="5.492073596459711"><ele>1230.0</ele><time>2026-05-02T13:11:45.999Z</time></trkpt><trkpt lat="45.06273608429523" lon="5.491940321389813"><ele>1234.5</ele><time>2026-05-02T13:11:46.999Z</time></trkpt><trkpt lat="45.06277275037221" lon="5.491804242217899"><ele>1239.0</ele><time>2026-05-02T13:11:47.999Z</time></trkpt><trkpt lat="45.062812233267145" lon="5.491619942662172"><ele>1239.0</ele><time>2026-05-02T13:11:48.999Z</time></trkpt><trkpt lat="45.06282780609403" lon="5.491421890850519"><ele>1239.0</ele><time>2026-05-02T13:11:49.999Z</time></trkpt><trkpt lat="45.06288551008086" lon="5.491200279595177"><ele>1239.0</ele><time>2026-05-02T13:11:50.999Z</time></trkpt><trkpt lat="45.06295827355879" lon="5.490996900093963"><ele>1247.6666666666667</ele><time>2026-05-02T13:11:51.999Z</time></trkpt><trkpt lat="45.06303027320935" lon="5.490781442484821"><ele>1256.3333333333335</ele><time>2026-05-02T13:11:52.999Z</time></trkpt><trkpt lat="45.06307639136123" lon="5.490558481982771"><ele>1265.0</ele><time>2026-05-02T13:11:53.999Z</time></trkpt><trkpt lat="45.06311438496255" lon="5.490356041391876"><ele>1265.5</ele><time>2026-05-02T13:11:54.999Z</time></trkpt><trkpt lat="45.06314178126503" lon="5.490169549236678"><ele>1266.0</ele><time>2026-05-02T13:11:55.999Z</time></trkpt><trkpt lat="45.06314036417771" lon="5.489965870510023"><ele>1266.5</ele><time>2026-05-02T13:11:56.999Z</time></trkpt><trkpt lat="45.06311922305785" lon="5.48975610891573"><ele>1267.0</ele><time>2026-05-02T13:11:57.999Z</time></trkpt><trkpt lat="45.06306819138131" lon="5.48952195072362"><ele>1262.6666666666665</ele><time>2026-05-02T13:11:58.999Z</time></trkpt><trkpt lat="45.06299994386142" lon="5.489320407254956"><ele>1258.3333333333333</ele><time>2026-05-02T13:11:59.999Z</time></trkpt><trkpt lat="45.06294164015627" lon="5.489105935005207"><ele>1254.0</ele><time>2026-05-02T13:12:00.999Z</time></trkpt><trkpt lat="45.062848790222" lon="5.48891959562697"><ele>1244.3333333333333</ele><time>2026-05-02T13:12:01.999Z</time></trkpt><trkpt lat="45.0627528950778" lon="5.488704224231663"><ele>1234.6666666666665</ele><time>2026-05-02T13:12:02.999Z</time></trkpt><trkpt lat="45.06266058550689" lon="5.488510134339846"><ele>1225.0</ele><time>2026-05-02T13:12:03.999Z</time></trkpt><trkpt lat="45.06254310173799" lon="5.488326095396674"><ele>1229.6666666666665</ele><time>2026-05-02T13:12:04.999Z</time></trkpt><trkpt lat="45.06243391199012" lon="5.488149632410384"><ele>1234.3333333333333</ele><time>2026-05-02T13:12:05.999Z</time></trkpt><trkpt lat="45.06232680707103" lon="5.487977687133787"><ele>1239.0</ele><time>2026-05-02T13:12:06.999Z</time></trkpt><trkpt lat="45.062198794182095" lon="5.487787867763632"><ele>1239.0</ele><time>2026-05-02T13:12:07.999Z</time></trkpt><trkpt lat="45.06204973279639" lon="5.487630494260429"><ele>1239.0</ele><time>2026-05-02T13:12:08.999Z</time></trkpt><trkpt lat="45.06190331220121" lon="5.487497539663135"><ele>1239.0</ele><time>2026-05-02T13:12:09.999Z</time></trkpt><trkpt lat="45.06176622865541" lon="5.487357687977877"><ele>1239.0</ele><time>2026-05-02T13:12:10.999Z</time></trkpt><trkpt lat="45.06162809445817" lon="5.487239829552674"><ele>1239.0</ele><time>2026-05-02T13:12:11.999Z</time></trkpt><trkpt lat="45.06149720797062" lon="5.487125663931952"><ele>1239.0</ele><time>2026-05-02T13:12:12.999Z</time></trkpt><trkpt lat="45.06135950594799" lon="5.487029865237386"><ele>1238.0</ele><time>2026-05-02T13:12:13.999Z</time></trkpt><trkpt lat="45.061217053410516" lon="5.4869641959095174"><ele>1237.0</ele><time>2026-05-02T13:12:14.999Z</time></trkpt><trkpt lat="45.06108919413397" lon="5.4868263295222945"><ele>1236.0</ele><time>2026-05-02T13:12:15.999Z</time></trkpt><trkpt lat="45.060965574254055" lon="5.486684305358644"><ele>1236.0</ele><time>2026-05-02T13:12:16.999Z</time></trkpt><trkpt lat="45.060851811575105" lon="5.486489736277432"><ele>1236.0</ele><time>2026-05-02T13:12:17.999Z</time></trkpt><trkpt lat="45.06075292139459" lon="5.486269426481659"><ele>1236.0</ele><time>2026-05-02T13:12:18.999Z</time></trkpt><trkpt lat="45.06064483750676" lon="5.486072036729023"><ele>1243.3333333333333</ele><time>2026-05-02T13:12:19.999Z</time></trkpt><trkpt lat="45.06053627725409" lon="5.48589826312979"><ele>1250.6666666666665</ele><time>2026-05-02T13:12:20.999Z</time></trkpt><trkpt lat="45.060427210168925" lon="5.485698872342753"><ele>1258.0</ele><time>2026-05-02T13:12:21.999Z</time></trkpt><trkpt lat="45.060324285453426" lon="5.485493309246424"><ele>1250.0</ele><time>2026-05-02T13:12:22.999Z</time></trkpt><trkpt lat="45.0602183656411" lon="5.485289044252618"><ele>1242.0</ele><time>2026-05-02T13:12:23.999Z</time></trkpt><trkpt lat="45.06009744386576" lon="5.485100922795296"><ele>1234.0</ele><time>2026-05-02T13:12:24.999Z</time></trkpt><trkpt lat="45.05998956220608" lon="5.4848994535175235"><ele>1241.3333333333333</ele><time>2026-05-02T13:12:25.999Z</time></trkpt><trkpt lat="45.05987746556866" lon="5.484691477068773"><ele>1248.6666666666667</ele><time>2026-05-02T13:12:26.999Z</time></trkpt><trkpt lat="45.059768899359774" lon="5.48447815305073"><ele>1256.0</ele><time>2026-05-02T13:12:27.999Z</time></trkpt><trkpt lat="45.05965875953708" lon="5.484276733107849"><ele>1256.0</ele><time>2026-05-02T13:12:28.999Z</time></trkpt><trkpt lat="45.0595295994991" lon="5.484074038075051"><ele>1256.0</ele><time>2026-05-02T13:12:29.999Z</time></trkpt><trkpt lat="45.059414792716886" lon="5.483856633262411"><ele>1256.0</ele><time>2026-05-02T13:12:30.998Z</time></trkpt><trkpt lat="45.059302842660095" lon="5.483644571214656"><ele>1261.0</ele><time>2026-05-02T13:12:31.998Z</time></trkpt><trkpt lat="45.059196731870685" lon="5.4834237631895375"><ele>1266.0</ele><time>2026-05-02T13:12:32.998Z</time></trkpt><trkpt lat="45.05908222611294" lon="5.483233994634437"><ele>1271.0</ele><time>2026-05-02T13:12:33.998Z</time></trkpt><trkpt lat="45.058979220853175" lon="5.483068155642851"><ele>1265.0</ele><time>2026-05-02T13:12:34.998Z</time></trkpt><trkpt lat="45.05885144548251" lon="5.482898504937483"><ele>1259.0</ele><time>2026-05-02T13:12:35.998Z</time></trkpt><trkpt lat="45.05874436637526" lon="5.482712859480165"><ele>1253.0</ele><time>2026-05-02T13:12:36.998Z</time></trkpt><trkpt lat="45.05863067873469" lon="5.4825307428332115"><ele>1253.0</ele><time>2026-05-02T13:12:37.998Z</time></trkpt><trkpt lat="45.058520275786606" lon="5.482352046574946"><ele>1253.0</ele><time>2026-05-02T13:12:38.998Z</time></trkpt><trkpt lat="45.05839492246288" lon="5.482142941995359"><ele>1253.0</ele><time>2026-05-02T13:12:39.998Z</time></trkpt><trkpt lat="45.058278430377776" lon="5.48195226555621"><ele>1257.0</ele><time>2026-05-02T13:12:40.998Z</time></trkpt><trkpt lat="45.05817545071011" lon="5.481734479045353"><ele>1261.0</ele><time>2026-05-02T13:12:41.998Z</time></trkpt><trkpt lat="45.05808705368104" lon="5.481510230608158"><ele>1265.0</ele><time>2026-05-02T13:12:42.998Z</time></trkpt><trkpt lat="45.05800117955534" lon="5.481270209768409"><ele>1262.3333333333335</ele><time>2026-05-02T13:12:43.998Z</time></trkpt><trkpt lat="45.05791284475132" lon="5.481062554229935"><ele>1259.6666666666667</ele><time>2026-05-02T13:12:44.998Z</time></trkpt><trkpt lat="45.05784777407709" lon="5.480826419513473"><ele>1257.0</ele><time>2026-05-02T13:12:45.998Z</time></trkpt><trkpt lat="45.05778336454843" lon="5.4806402906481875"><ele>1257.0</ele><time>2026-05-02T13:12:46.998Z</time></trkpt><trkpt lat="45.05772875138157" lon="5.4804660834294"><ele>1257.0</ele><time>2026-05-02T13:12:47.998Z</time></trkpt><trkpt lat="45.0576727158951" lon="5.480273583708345"><ele>1257.0</ele><time>2026-05-02T13:12:48.998Z</time></trkpt><trkpt lat="45.05762758998964" lon="5.480106102813808"><ele>1257.0</ele><time>2026-05-02T13:12:49.998Z</time></trkpt><trkpt lat="45.05756521647349" lon="5.479937717356172"><ele>1256.5</ele><time>2026-05-02T13:12:50.998Z</time></trkpt><trkpt lat="45.0575447947096" lon="5.479771955377617"><ele>1256.0</ele><time>2026-05-02T13:12:51.998Z</time></trkpt><trkpt lat="45.05750665698178" lon="5.479590147934751"><ele>1255.5</ele><time>2026-05-02T13:12:52.998Z</time></trkpt><trkpt lat="45.057456748367834" lon="5.479398222013787"><ele>1255.0</ele><time>2026-05-02T13:12:54Z</time></trkpt><trkpt lat="45.05738367885618" lon="5.479238547343558"><ele>1256.75</ele><time>2026-05-02T13:12:55Z</time></trkpt><trkpt lat="45.05729830474285" lon="5.4790809167839365"><ele>1258.5</ele><time>2026-05-02T13:12:56Z</time></trkpt><trkpt lat="45.057219520591886" lon="5.4789217813707145"><ele>1260.25</ele><time>2026-05-02T13:12:57Z</time></trkpt><trkpt lat="45.057145998709125" lon="5.478755104159696"><ele>1262.0</ele><time>2026-05-02T13:12:58Z</time></trkpt><trkpt lat="45.05709158507652" lon="5.478586132887711"><ele>1262.0</ele><time>2026-05-02T13:12:59Z</time></trkpt><trkpt lat="45.05700123417956" lon="5.478431512197114"><ele>1262.0</ele><time>2026-05-02T13:13:00Z</time></trkpt><trkpt lat="45.05689649365179" lon="5.478294382522032"><ele>1262.0</ele><time>2026-05-02T13:13:01Z</time></trkpt><trkpt lat="45.056786179072766" lon="5.478147293627603"><ele>1262.0</ele><time>2026-05-02T13:13:02Z</time></trkpt><trkpt lat="45.05667909687859" lon="5.477973337113762"><ele>1265.0</ele><time>2026-05-02T13:13:03Z</time></trkpt><trkpt lat="45.056556453423234" lon="5.477809430956015"><ele>1268.0</ele><time>2026-05-02T13:13:04Z</time></trkpt><trkpt lat="45.0564375745911" lon="5.477636042631372"><ele>1271.0</ele><time>2026-05-02T13:13:05Z</time></trkpt><trkpt lat="45.056305333876445" lon="5.47747546535522"><ele>1271.0</ele><time>2026-05-02T13:13:06Z</time></trkpt><trkpt lat="45.05616256290911" lon="5.477339505549321"><ele>1271.0</ele><time>2026-05-02T13:13:07Z</time></trkpt><trkpt lat="45.05601963218052" lon="5.477203126930685"><ele>1271.0</ele><time>2026-05-02T13:13:08Z</time></trkpt><trkpt lat="45.05587660942334" lon="5.477069851057394"><ele>1274.0</ele><time>2026-05-02T13:13:09Z</time></trkpt><trkpt lat="45.05574019295949" lon="5.476934032490489"><ele>1277.0</ele><time>2026-05-02T13:13:10Z</time></trkpt><trkpt lat="45.05561610739755" lon="5.47677154135536"><ele>1280.0</ele><time>2026-05-02T13:13:11Z</time></trkpt><trkpt lat="45.05551567043014" lon="5.476619159711813"><ele>1280.0</ele><time>2026-05-02T13:13:12Z</time></trkpt><trkpt lat="45.05542175599983" lon="5.476506399799315"><ele>1280.0</ele><time>2026-05-02T13:13:13Z</time></trkpt><trkpt lat="45.05529253745311" lon="5.476443992697522"><ele>1280.0</ele><time>2026-05-02T13:13:14Z</time></trkpt><trkpt lat="45.05513274313792" lon="5.4764167232447445"><ele>1280.0</ele><time>2026-05-02T13:13:15Z</time></trkpt><trkpt lat="45.054967126194754" lon="5.476366794562516"><ele>1281.6666666666667</ele><time>2026-05-02T13:13:16Z</time></trkpt><trkpt lat="45.054794068194006" lon="5.476324725387111"><ele>1283.3333333333333</ele><time>2026-05-02T13:13:17Z</time></trkpt><trkpt lat="45.05461493393516" lon="5.476275662721158"><ele>1285.0</ele><time>2026-05-02T13:13:18Z</time></trkpt><trkpt lat="45.05444937770966" lon="5.476214367078774"><ele>1285.0</ele><time>2026-05-02T13:13:19Z</time></trkpt><trkpt lat="45.0542899116269" lon="5.476161507337551"><ele>1285.0</ele><time>2026-05-02T13:13:20Z</time></trkpt><trkpt lat="45.054112534136344" lon="5.476098314563542"><ele>1285.0</ele><time>2026-05-02T13:13:21Z</time></trkpt><trkpt lat="45.05392740639525" lon="5.476036353523511"><ele>1289.0</ele><time>2026-05-02T13:13:22Z</time></trkpt><trkpt lat="45.05373830047784" lon="5.475962383017755"><ele>1293.0</ele><time>2026-05-02T13:13:23Z</time></trkpt><trkpt lat="45.053560565037465" lon="5.475870630474864"><ele>1297.0</ele><time>2026-05-02T13:13:24Z</time></trkpt><trkpt lat="45.05340240485621" lon="5.475729535848405"><ele>1299.6666666666665</ele><time>2026-05-02T13:13:25Z</time></trkpt><trkpt lat="45.05324707854366" lon="5.475583082646105"><ele>1302.3333333333333</ele><time>2026-05-02T13:13:26Z</time></trkpt><trkpt lat="45.05307487488041" lon="5.475441075466108"><ele>1305.0</ele><time>2026-05-02T13:13:27Z</time></trkpt><trkpt lat="45.05289217076891" lon="5.475357187377966"><ele>1305.0</ele><time>2026-05-02T13:13:28Z</time></trkpt><trkpt lat="45.05272568738626" lon="5.475278186241788"><ele>1305.0</ele><time>2026-05-02T13:13:29Z</time></trkpt><trkpt lat="45.0525603662138" lon="5.475194312741956"><ele>1305.0</ele><time>2026-05-02T13:13:30Z</time></trkpt><trkpt lat="45.0523819028682" lon="5.475097935224088"><ele>1308.3333333333333</ele><time>2026-05-02T13:13:31Z</time></trkpt><trkpt lat="45.0522053875526" lon="5.474997334640707"><ele>1311.6666666666665</ele><time>2026-05-02T13:13:31.999Z</time></trkpt><trkpt lat="45.05202539068735" lon="5.474888415996567"><ele>1315.0</ele><time>2026-05-02T13:13:32.999Z</time></trkpt><trkpt lat="45.05185712830786" lon="5.474785001238847"><ele>1315.0</ele><time>2026-05-02T13:13:33.999Z</time></trkpt><trkpt lat="45.05168764866292" lon="5.474681102166514"><ele>1315.0</ele><time>2026-05-02T13:13:34.999Z</time></trkpt><trkpt lat="45.05152601825849" lon="5.474563653356538"><ele>1315.0</ele><time>2026-05-02T13:13:35.999Z</time></trkpt><trkpt lat="45.05139014110757" lon="5.474429572526398"><ele>1317.6666666666665</ele><time>2026-05-02T13:13:36.999Z</time></trkpt><trkpt lat="45.051258611286094" lon="5.474318664631829"><ele>1320.3333333333333</ele><time>2026-05-02T13:13:37.999Z</time></trkpt><trkpt lat="45.051129249234044" lon="5.474249402894737"><ele>1323.0</ele><time>2026-05-02T13:13:38.999Z</time></trkpt><trkpt lat="45.05096865038194" lon="5.474226348729176"><ele>1325.6666666666667</ele><time>2026-05-02T13:13:39.999Z</time></trkpt><trkpt lat="45.05078989635977" lon="5.474256695197783"><ele>1328.3333333333335</ele><time>2026-05-02T13:13:40.999Z</time></trkpt><trkpt lat="45.05059174557664" lon="5.474285110244552"><ele>1331.0</ele><time>2026-05-02T13:13:41.999Z</time></trkpt><trkpt lat="45.050407466609464" lon="5.474346380208019"><ele>1331.0</ele><time>2026-05-02T13:13:42.999Z</time></trkpt><trkpt lat="45.050217424609194" lon="5.474358785149159"><ele>1331.0</ele><time>2026-05-02T13:13:43.999Z</time></trkpt><trkpt lat="45.050026821488096" lon="5.474319972696269"><ele>1331.0</ele><time>2026-05-02T13:13:44.999Z</time></trkpt><trkpt lat="45.04985925331733" lon="5.474250860398749"><ele>1334.3333333333335</ele><time>2026-05-02T13:13:45.999Z</time></trkpt><trkpt lat="45.04970983531645" lon="5.474153259784749"><ele>1337.6666666666667</ele><time>2026-05-02T13:13:46.999Z</time></trkpt><trkpt lat="45.04954811254511" lon="5.474111678300382"><ele>1341.0</ele><time>2026-05-02T13:13:47.999Z</time></trkpt><trkpt lat="45.04938857763717" lon="5.474057090366114"><ele>1341.0</ele><time>2026-05-02T13:13:48.999Z</time></trkpt><trkpt lat="45.04922946954179" lon="5.4740132060552105"><ele>1341.0</ele><time>2026-05-02T13:13:49.999Z</time></trkpt><trkpt lat="45.04906760525771" lon="5.47400375017964"><ele>1341.0</ele><time>2026-05-02T13:13:50.999Z</time></trkpt><trkpt lat="45.048877366728064" lon="5.4740613762105665"><ele>1344.3333333333333</ele><time>2026-05-02T13:13:51.999Z</time></trkpt><trkpt lat="45.0486665937646" lon="5.474130775949922"><ele>1347.6666666666665</ele><time>2026-05-02T13:13:52.999Z</time></trkpt><trkpt lat="45.0484607819254" lon="5.474210261673744"><ele>1351.0</ele><time>2026-05-02T13:13:53.999Z</time></trkpt><trkpt lat="45.048252248631094" lon="5.474291719730901"><ele>1359.0</ele><time>2026-05-02T13:13:54.999Z</time></trkpt><trkpt lat="45.04802383974022" lon="5.4744432782380175"><ele>1367.0</ele><time>2026-05-02T13:13:55.999Z</time></trkpt><trkpt lat="45.047801144590146" lon="5.474599002553175"><ele>1367.6666666666667</ele><time>2026-05-02T13:13:56.999Z</time></trkpt><trkpt lat="45.04760691328055" lon="5.474713030810926"><ele>1368.3333333333333</ele><time>2026-05-02T13:13:57.999Z</time></trkpt><trkpt lat="45.047442282009875" lon="5.474795810083183"><ele>1369.0</ele><time>2026-05-02T13:13:58.999Z</time></trkpt><trkpt lat="45.047274500726445" lon="5.474870847349952"><ele>1369.0</ele><time>2026-05-02T13:13:59.999Z</time></trkpt><trkpt lat="45.047103900094854" lon="5.474944323430071"><ele>1369.0</ele><time>2026-05-02T13:14:00.999Z</time></trkpt><trkpt lat="45.046918340499595" lon="5.4750531635205535"><ele>1369.0</ele><time>2026-05-02T13:14:01.999Z</time></trkpt><trkpt lat="45.04674507404515" lon="5.475136272253586"><ele>1372.3333333333333</ele><time>2026-05-02T13:14:02.999Z</time></trkpt><trkpt lat="45.046568291359286" lon="5.475227545491414"><ele>1375.6666666666667</ele><time>2026-05-02T13:14:03.999Z</time></trkpt><trkpt lat="45.04639327257978" lon="5.4753051805918025"><ele>1379.0</ele><time>2026-05-02T13:14:04.999Z</time></trkpt><trkpt lat="45.04620000348535" lon="5.475344991339551"><ele>1379.0</ele><time>2026-05-02T13:14:05.999Z</time></trkpt><trkpt lat="45.046012282097486" lon="5.475363344758664"><ele>1379.0</ele><time>2026-05-02T13:14:06.999Z</time></trkpt><trkpt lat="45.04582249241029" lon="5.475384008617357"><ele>1379.0</ele><time>2026-05-02T13:14:07.999Z</time></trkpt><trkpt lat="45.04564350910184" lon="5.475393618791497"><ele>1377.6666666666667</ele><time>2026-05-02T13:14:08.999Z</time></trkpt><trkpt lat="45.04546988830743" lon="5.475466975568406"><ele>1376.3333333333333</ele><time>2026-05-02T13:14:09.999Z</time></trkpt><trkpt lat="45.04531416604426" lon="5.475571263623875"><ele>1375.0</ele><time>2026-05-02T13:14:10.999Z</time></trkpt><trkpt lat="45.04515974126738" lon="5.4756595699879265"><ele>1375.0</ele><time>2026-05-02T13:14:11.999Z</time></trkpt><trkpt lat="45.04498225082175" lon="5.475701379929452"><ele>1375.0</ele><time>2026-05-02T13:14:12.999Z</time></trkpt><trkpt lat="45.0448123108409" lon="5.475729397651561"><ele>1375.0</ele><time>2026-05-02T13:14:13.999Z</time></trkpt><trkpt lat="45.04465537759042" lon="5.4757694667320935"><ele>1376.5</ele><time>2026-05-02T13:14:14.999Z</time></trkpt><trkpt lat="45.04451538844028" lon="5.475764564428058"><ele>1378.0</ele><time>2026-05-02T13:14:15.999Z</time></trkpt><trkpt lat="45.04436302147835" lon="5.47575312328748"><ele>1379.5</ele><time>2026-05-02T13:14:16.999Z</time></trkpt><trkpt lat="45.044211842521115" lon="5.475768478290866"><ele>1381.0</ele><time>2026-05-02T13:14:17.999Z</time></trkpt><trkpt lat="45.04403970000486" lon="5.4758239023265105"><ele>1381.0</ele><time>2026-05-02T13:14:18.999Z</time></trkpt><trkpt lat="45.04387280095919" lon="5.475897255648904"><ele>1381.0</ele><time>2026-05-02T13:14:19.999Z</time></trkpt><trkpt lat="45.04372590064153" lon="5.4759466495092965"><ele>1381.0</ele><time>2026-05-02T13:14:20.999Z</time></trkpt><trkpt lat="45.04359152204171" lon="5.47594167514163"><ele>1381.0</ele><time>2026-05-02T13:14:21.999Z</time></trkpt><trkpt lat="45.04344706136006" lon="5.475884357619685"><ele>1381.0</ele><time>2026-05-02T13:14:22.999Z</time></trkpt><trkpt lat="45.04328722101544" lon="5.475826837609991"><ele>1381.0</ele><time>2026-05-02T13:14:23.999Z</time></trkpt><trkpt lat="45.04312239843426" lon="5.475802484270751"><ele>1381.3333333333333</ele><time>2026-05-02T13:14:24.999Z</time></trkpt><trkpt lat="45.042954059576324" lon="5.4757849773560325"><ele>1381.6666666666667</ele><time>2026-05-02T13:14:25.999Z</time></trkpt><trkpt lat="45.042803703147975" lon="5.475767749060297"><ele>1382.0</ele><time>2026-05-02T13:14:26.999Z</time></trkpt><trkpt lat="45.04267168446125" lon="5.47575428683781"><ele>1382.0</ele><time>2026-05-02T13:14:27.999Z</time></trkpt><trkpt lat="45.042547651664655" lon="5.4757133407941945"><ele>1382.0</ele><time>2026-05-02T13:14:28.999Z</time></trkpt><trkpt lat="45.04243332930368" lon="5.475682519691663"><ele>1382.0</ele><time>2026-05-02T13:14:29.999Z</time></trkpt><trkpt lat="45.042319782356756" lon="5.475643490364411"><ele>1382.0</ele><time>2026-05-02T13:14:30.999Z</time></trkpt><trkpt lat="45.04219534079945" lon="5.475666198817381"><ele>1382.0</ele><time>2026-05-02T13:14:31.999Z</time></trkpt><trkpt lat="45.04204050819093" lon="5.475798045242591"><ele>1382.0</ele><time>2026-05-02T13:14:32.999Z</time></trkpt><trkpt lat="45.0418795407046" lon="5.475918122737531"><ele>1382.0</ele><time>2026-05-02T13:14:33.999Z</time></trkpt><trkpt lat="45.04172639326186" lon="5.476041550596006"><ele>1383.0</ele><time>2026-05-02T13:14:34.998Z</time></trkpt><trkpt lat="45.04158138286115" lon="5.4761626858761785"><ele>1384.0</ele><time>2026-05-02T13:14:35.998Z</time></trkpt><trkpt lat="45.04145031065023" lon="5.476268530564011"><ele>1385.0</ele><time>2026-05-02T13:14:36.998Z</time></trkpt><trkpt lat="45.04132990715657" lon="5.47636284201752"><ele>1380.0</ele><time>2026-05-02T13:14:37.998Z</time></trkpt><trkpt lat="45.041195461331434" lon="5.47640442317292"><ele>1375.0</ele><time>2026-05-02T13:14:38.998Z</time></trkpt><trkpt lat="45.04103583171194" lon="5.476416028530796"><ele>1370.0</ele><time>2026-05-02T13:14:39.998Z</time></trkpt><trkpt lat="45.04086253185587" lon="5.476432377370212"><ele>1370.0</ele><time>2026-05-02T13:14:40.998Z</time></trkpt><trkpt lat="45.04068799621928" lon="5.4764434354752405"><ele>1370.0</ele><time>2026-05-02T13:14:41.998Z</time></trkpt><trkpt lat="45.040511768238694" lon="5.4764298268235825"><ele>1370.0</ele><time>2026-05-02T13:14:42.998Z</time></trkpt><trkpt lat="45.040336086915325" lon="5.476419218102916"><ele>1370.0</ele><time>2026-05-02T13:14:43.998Z</time></trkpt><trkpt lat="45.04016606893813" lon="5.476397143394837"><ele>1370.0</ele><time>2026-05-02T13:14:44.998Z</time></trkpt><trkpt lat="45.03998776063734" lon="5.476388968228764"><ele>1370.0</ele><time>2026-05-02T13:14:45.998Z</time></trkpt><trkpt lat="45.03982072785059" lon="5.476351717829823"><ele>1368.6666666666667</ele><time>2026-05-02T13:14:46.998Z</time></trkpt><trkpt lat="45.039654723059535" lon="5.476323330161158"><ele>1367.3333333333333</ele><time>2026-05-02T13:14:47.998Z</time></trkpt><trkpt lat="45.03947604436487" lon="5.476305519282261"><ele>1366.0</ele><time>2026-05-02T13:14:48.998Z</time></trkpt><trkpt lat="45.03929841855125" lon="5.476292482158289"><ele>1366.6666666666665</ele><time>2026-05-02T13:14:49.998Z</time></trkpt><trkpt lat="45.039125180445744" lon="5.476280879476435"><ele>1367.3333333333333</ele><time>2026-05-02T13:14:50.998Z</time></trkpt><trkpt lat="45.038956993524216" lon="5.476242224490583"><ele>1368.0</ele><time>2026-05-02T13:14:51.998Z</time></trkpt><trkpt lat="45.038769593757124" lon="5.476217001930696"><ele>1374.3333333333333</ele><time>2026-05-02T13:14:52.998Z</time></trkpt><trkpt lat="45.0385882503913" lon="5.476192894936429"><ele>1380.6666666666665</ele><time>2026-05-02T13:14:53.998Z</time></trkpt><trkpt lat="45.03840770732299" lon="5.47615060530198"><ele>1387.0</ele><time>2026-05-02T13:14:54.998Z</time></trkpt><trkpt lat="45.038237811706466" lon="5.476147070617806"><ele>1387.3333333333333</ele><time>2026-05-02T13:14:55.998Z</time></trkpt><trkpt lat="45.03806927703531" lon="5.476216158117763"><ele>1387.6666666666667</ele><time>2026-05-02T13:14:56.998Z</time></trkpt><trkpt lat="45.037876393217125" lon="5.476314646510407"><ele>1388.0</ele><time>2026-05-02T13:14:57.998Z</time></trkpt><trkpt lat="45.03767410043737" lon="5.47641882544734"><ele>1382.0</ele><time>2026-05-02T13:14:58.998Z</time></trkpt><trkpt lat="45.03746647306536" lon="5.476480295012345"><ele>1376.0</ele><time>2026-05-02T13:15:00Z</time></trkpt><trkpt lat="45.03727255404254" lon="5.476525771902825"><ele>1370.0</ele><time>2026-05-02T13:15:01Z</time></trkpt><trkpt lat="45.03709525218165" lon="5.47652506253606"><ele>1370.0</ele><time>2026-05-02T13:15:02Z</time></trkpt><trkpt lat="45.03692877018053" lon="5.476554732076851"><ele>1370.0</ele><time>2026-05-02T13:15:03Z</time></trkpt><trkpt lat="45.03676640849801" lon="5.4765494299989115"><ele>1370.0</ele><time>2026-05-02T13:15:04Z</time></trkpt><trkpt lat="45.036611580723445" lon="5.476557412018499"><ele>1371.0</ele><time>2026-05-02T13:15:05Z</time></trkpt><trkpt lat="45.03644749924734" lon="5.476632830762573"><ele>1372.0</ele><time>2026-05-02T13:15:06Z</time></trkpt><trkpt lat="45.036266975464166" lon="5.476684533348831"><ele>1373.0</ele><time>2026-05-02T13:15:07Z</time></trkpt><trkpt lat="45.03607048861381" lon="5.476720681726623"><ele>1373.0</ele><time>2026-05-02T13:15:08Z</time></trkpt><trkpt lat="45.03588810669582" lon="5.476758005280956"><ele>1373.0</ele><time>2026-05-02T13:15:09Z</time></trkpt><trkpt lat="45.03570140220298" lon="5.4768264344699515"><ele>1373.0</ele><time>2026-05-02T13:15:10Z</time></trkpt><trkpt lat="45.03550790694822" lon="5.476891669339997"><ele>1372.3333333333335</ele><time>2026-05-02T13:15:11Z</time></trkpt><trkpt lat="45.03532317113786" lon="5.476957866902475"><ele>1371.6666666666667</ele><time>2026-05-02T13:15:12Z</time></trkpt><trkpt lat="45.035147881447486" lon="5.477011161887924"><ele>1371.0</ele><time>2026-05-02T13:15:13Z</time></trkpt><trkpt lat="45.03498183107541" lon="5.477064370136868"><ele>1365.6</ele><time>2026-05-02T13:15:14Z</time></trkpt><trkpt lat="45.034849270879285" lon="5.477100065454603"><ele>1360.1999999999998</ele><time>2026-05-02T13:15:15Z</time></trkpt><trkpt lat="45.03472970811373" lon="5.477131920877896"><ele>1354.8000000000002</ele><time>2026-05-02T13:15:16Z</time></trkpt><trkpt lat="45.03463083039502" lon="5.477146827578737"><ele>1349.4</ele><time>2026-05-02T13:15:17Z</time></trkpt><trkpt lat="45.03454014638336" lon="5.477115517093399"><ele>1344.0</ele><time>2026-05-02T13:15:18Z</time></trkpt><trkpt lat="45.03444553618581" lon="5.477022566090107"><ele>1344.0</ele><time>2026-05-02T13:15:19Z</time></trkpt><trkpt lat="45.03437047486352" lon="5.4768984684322435"><ele>1344.0</ele><time>2026-05-02T13:15:20Z</time></trkpt><trkpt lat="45.034316601558295" lon="5.476743168222304"><ele>1344.0</ele><time>2026-05-02T13:15:21Z</time></trkpt><trkpt lat="45.034289830026786" lon="5.476561110438788"><ele>1344.0</ele><time>2026-05-02T13:15:22Z</time></trkpt><trkpt lat="45.03427963668899" lon="5.476351657099693"><ele>1342.0</ele><time>2026-05-02T13:15:23Z</time></trkpt><trkpt lat="45.03426331447681" lon="5.476143684647561"><ele>1340.0</ele><time>2026-05-02T13:15:24Z</time></trkpt><trkpt lat="45.03425491447796" lon="5.475951437169531"><ele>1338.0</ele><time>2026-05-02T13:15:25Z</time></trkpt><trkpt lat="45.03421725889091" lon="5.475784458726013"><ele>1336.0</ele><time>2026-05-02T13:15:26Z</time></trkpt><trkpt lat="45.03413661981332" lon="5.475652174647915"><ele>1336.0</ele><time>2026-05-02T13:15:27Z</time></trkpt><trkpt lat="45.03403162576592" lon="5.47559661943611"><ele>1336.0</ele><time>2026-05-02T13:15:28Z</time></trkpt><trkpt lat="45.033912813785534" lon="5.475609442713327"><ele>1336.0</ele><time>2026-05-02T13:15:29Z</time></trkpt><trkpt lat="45.03380624897457" lon="5.475583132292779"><ele>1336.0</ele><time>2026-05-02T13:15:30Z</time></trkpt><trkpt lat="45.0337103870794" lon="5.475490213455098"><ele>1338.75</ele><time>2026-05-02T13:15:31Z</time></trkpt><trkpt lat="45.03361498142705" lon="5.475334821608005"><ele>1341.5</ele><time>2026-05-02T13:15:32Z</time></trkpt><trkpt lat="45.03353016931429" lon="5.4751628911631665"><ele>1344.25</ele><time>2026-05-02T13:15:33Z</time></trkpt><trkpt lat="45.033460352336085" lon="5.474980199545033"><ele>1347.0</ele><time>2026-05-02T13:15:34Z</time></trkpt><trkpt lat="45.03340000985157" lon="5.474767839127039"><ele>1345.3333333333333</ele><time>2026-05-02T13:15:35Z</time></trkpt><trkpt lat="45.03333807088721" lon="5.4745503131917195"><ele>1343.6666666666665</ele><time>2026-05-02T13:15:36Z</time></trkpt><trkpt lat="45.03325757477099" lon="5.4743389036815016"><ele>1342.0</ele><time>2026-05-02T13:15:37Z</time></trkpt><trkpt lat="45.033155035009045" lon="5.474130545770324"><ele>1342.0</ele><time>2026-05-02T13:15:38Z</time></trkpt><trkpt lat="45.033032634459886" lon="5.473956008133018"><ele>1342.0</ele><time>2026-05-02T13:15:39Z</time></trkpt><trkpt lat="45.03287233583758" lon="5.4738336896848585"><ele>1342.0</ele><time>2026-05-02T13:15:39.999Z</time></trkpt><trkpt lat="45.032700138610586" lon="5.473749963189136"><ele>1340.0</ele><time>2026-05-02T13:15:40.999Z</time></trkpt><trkpt lat="45.03253517162076" lon="5.473663023225674"><ele>1338.0</ele><time>2026-05-02T13:15:41.999Z</time></trkpt><trkpt lat="45.032367067993164" lon="5.4735797775398245"><ele>1336.0</ele><time>2026-05-02T13:15:42.999Z</time></trkpt><trkpt lat="45.032210359856464" lon="5.473512204198742"><ele>1336.0</ele><time>2026-05-02T13:15:43.999Z</time></trkpt><trkpt lat="45.032060388733434" lon="5.47343692829685"><ele>1336.0</ele><time>2026-05-02T13:15:44.999Z</time></trkpt><trkpt lat="45.03188497718025" lon="5.473364535318883"><ele>1336.0</ele><time>2026-05-02T13:15:45.999Z</time></trkpt><trkpt lat="45.031709651564434" lon="5.4732717102754105"><ele>1333.0</ele><time>2026-05-02T13:15:46.999Z</time></trkpt><trkpt lat="45.03154280763446" lon="5.473178422189158"><ele>1330.0</ele><time>2026-05-02T13:15:47.999Z</time></trkpt><trkpt lat="45.03137515614748" lon="5.473061671413329"><ele>1327.0</ele><time>2026-05-02T13:15:48.999Z</time></trkpt><trkpt lat="45.03120187343202" lon="5.472952135637766"><ele>1329.6666666666665</ele><time>2026-05-02T13:15:49.999Z</time></trkpt><trkpt lat="45.03106765581899" lon="5.472812941929186"><ele>1332.3333333333333</ele><time>2026-05-02T13:15:50.999Z</time></trkpt><trkpt lat="45.0309006757953" lon="5.472764501312339"><ele>1335.0</ele><time>2026-05-02T13:15:51.999Z</time></trkpt><trkpt lat="45.030689080458785" lon="5.472754101625276"><ele>1335.0</ele><time>2026-05-02T13:15:52.999Z</time></trkpt><trkpt lat="45.03051145054863" lon="5.472764873761364"><ele>1335.0</ele><time>2026-05-02T13:15:53.999Z</time></trkpt><trkpt lat="45.030339276371606" lon="5.472773428822842"><ele>1335.0</ele><time>2026-05-02T13:15:54.999Z</time></trkpt><trkpt lat="45.03018229801054" lon="5.4727538252104395"><ele>1335.0</ele><time>2026-05-02T13:15:55.999Z</time></trkpt><trkpt lat="45.03003246142358" lon="5.47270369046924"><ele>1335.0</ele><time>2026-05-02T13:15:56.999Z</time></trkpt><trkpt lat="45.02987706753113" lon="5.4726471361569375"><ele>1335.0</ele><time>2026-05-02T13:15:57.999Z</time></trkpt><trkpt lat="45.02972645485722" lon="5.47258636991131"><ele>1332.75</ele><time>2026-05-02T13:15:58.999Z</time></trkpt><trkpt lat="45.029581020963015" lon="5.472578626432887"><ele>1330.5</ele><time>2026-05-02T13:15:59.999Z</time></trkpt><trkpt lat="45.029440346731796" lon="5.472585319017208"><ele>1328.25</ele><time>2026-05-02T13:16:00.999Z</time></trkpt><trkpt lat="45.029293904106225" lon="5.472637149707201"><ele>1326.0</ele><time>2026-05-02T13:16:01.999Z</time></trkpt><trkpt lat="45.02913903186532" lon="5.47264705904716"><ele>1324.0</ele><time>2026-05-02T13:16:02.999Z</time></trkpt><trkpt lat="45.02898416513208" lon="5.472594353063027"><ele>1322.0</ele><time>2026-05-02T13:16:03.999Z</time></trkpt><trkpt lat="45.028818109957946" lon="5.472519685351167"><ele>1320.0</ele><time>2026-05-02T13:16:04.999Z</time></trkpt><trkpt lat="45.02865295080434" lon="5.472444747555873"><ele>1320.0</ele><time>2026-05-02T13:16:05.999Z</time></trkpt><trkpt lat="45.0284861905497" lon="5.47238044611185"><ele>1320.0</ele><time>2026-05-02T13:16:06.999Z</time></trkpt><trkpt lat="45.028320753903806" lon="5.472355660805413"><ele>1320.0</ele><time>2026-05-02T13:16:07.999Z</time></trkpt><trkpt lat="45.02816839251247" lon="5.472345480753402"><ele>1319.0</ele><time>2026-05-02T13:16:08.999Z</time></trkpt><trkpt lat="45.0280098870524" lon="5.472372413617917"><ele>1318.0</ele><time>2026-05-02T13:16:09.999Z</time></trkpt><trkpt lat="45.02784093531618" lon="5.472439042125632"><ele>1317.0</ele><time>2026-05-02T13:16:10.999Z</time></trkpt><trkpt lat="45.02765831818234" lon="5.47249761122517"><ele>1314.0</ele><time>2026-05-02T13:16:11.999Z</time></trkpt><trkpt lat="45.02745205045028" lon="5.472537101728653"><ele>1311.0</ele><time>2026-05-02T13:16:12.999Z</time></trkpt><trkpt lat="45.02724239541153" lon="5.472559473421563"><ele>1308.0</ele><time>2026-05-02T13:16:13.999Z</time></trkpt><trkpt lat="45.02704645602113" lon="5.4725474852574605"><ele>1308.0</ele><time>2026-05-02T13:16:14.999Z</time></trkpt><trkpt lat="45.02686185028144" lon="5.4725347324757445"><ele>1308.0</ele><time>2026-05-02T13:16:15.999Z</time></trkpt><trkpt lat="45.02668191927945" lon="5.472515687369874"><ele>1308.0</ele><time>2026-05-02T13:16:16.999Z</time></trkpt><trkpt lat="45.02650181486701" lon="5.472529957507809"><ele>1306.3333333333333</ele><time>2026-05-02T13:16:17.999Z</time></trkpt><trkpt lat="45.02633011556955" lon="5.472521423153582"><ele>1304.6666666666665</ele><time>2026-05-02T13:16:18.999Z</time></trkpt><trkpt lat="45.02614342106761" lon="5.47225416782882"><ele>1303.0</ele><time>2026-05-02T13:16:19.999Z</time></trkpt><trkpt lat="45.025954944042894" lon="5.472155209860807"><ele>1307.6666666666665</ele><time>2026-05-02T13:16:20.999Z</time></trkpt><trkpt lat="45.025754403979356" lon="5.472061392218257"><ele>1312.3333333333333</ele><time>2026-05-02T13:16:21.999Z</time></trkpt><trkpt lat="45.025530215123645" lon="5.472049032265643"><ele>1317.0</ele><time>2026-05-02T13:16:22.999Z</time></trkpt><trkpt lat="45.02532132555974" lon="5.472009652289067"><ele>1317.0</ele><time>2026-05-02T13:16:23.999Z</time></trkpt><trkpt lat="45.02510424290646" lon="5.471974373453618"><ele>1317.0</ele><time>2026-05-02T13:16:24.999Z</time></trkpt><trkpt lat="45.02488819074779" lon="5.471960329074818"><ele>1317.0</ele><time>2026-05-02T13:16:25.999Z</time></trkpt><trkpt lat="45.02466881296822" lon="5.471964915870204"><ele>1315.6666666666667</ele><time>2026-05-02T13:16:26.999Z</time></trkpt><trkpt lat="45.02445445757589" lon="5.471973486254281"><ele>1314.3333333333335</ele><time>2026-05-02T13:16:27.999Z</time></trkpt><trkpt lat="45.02424147565016" lon="5.471992439316024"><ele>1313.0</ele><time>2026-05-02T13:16:28.999Z</time></trkpt><trkpt lat="45.024035296093366" lon="5.471981401274826"><ele>1311.3333333333335</ele><time>2026-05-02T13:16:29.999Z</time></trkpt><trkpt lat="45.023827880828215" lon="5.471947192160964"><ele>1309.6666666666667</ele><time>2026-05-02T13:16:30.999Z</time></trkpt><trkpt lat="45.023624229657166" lon="5.471911437815639"><ele>1308.0</ele><time>2026-05-02T13:16:31.999Z</time></trkpt><trkpt lat="45.02341571293293" lon="5.471898530420188"><ele>1307.3333333333333</ele><time>2026-05-02T13:16:32.999Z</time></trkpt><trkpt lat="45.02322073716867" lon="5.471888996338395"><ele>1306.6666666666665</ele><time>2026-05-02T13:16:33.999Z</time></trkpt><trkpt lat="45.02304173625283" lon="5.47184090508603"><ele>1306.0</ele><time>2026-05-02T13:16:34.999Z</time></trkpt><trkpt lat="45.02287903200803" lon="5.471780759462485"><ele>1306.0</ele><time>2026-05-02T13:16:35.999Z</time></trkpt><trkpt lat="45.02271480094122" lon="5.471729674500969"><ele>1306.0</ele><time>2026-05-02T13:16:36.999Z</time></trkpt><trkpt lat="45.02254634162634" lon="5.471722196982655"><ele>1306.0</ele><time>2026-05-02T13:16:37.999Z</time></trkpt><trkpt lat="45.02237449171945" lon="5.471779391101361"><ele>1310.6666666666665</ele><time>2026-05-02T13:16:38.999Z</time></trkpt><trkpt lat="45.02220068179256" lon="5.4718863759426934"><ele>1315.3333333333333</ele><time>2026-05-02T13:16:39.999Z</time></trkpt><trkpt lat="45.022022331145685" lon="5.472003006407166"><ele>1320.0</ele><time>2026-05-02T13:16:40.999Z</time></trkpt><trkpt lat="45.02182428785941" lon="5.472087556887684"><ele>1316.6666666666667</ele><time>2026-05-02T13:16:41.999Z</time></trkpt><trkpt lat="45.021624200551464" lon="5.472152146078486"><ele>1313.3333333333335</ele><time>2026-05-02T13:16:42.999Z</time></trkpt><trkpt lat="45.02142973713949" lon="5.472205744545848"><ele>1310.0</ele><time>2026-05-02T13:16:43.998Z</time></trkpt><trkpt lat="45.02123888113824" lon="5.472240484438399"><ele>1310.0</ele><time>2026-05-02T13:16:44.998Z</time></trkpt><trkpt lat="45.02105329749879" lon="5.472270615640912"><ele>1310.0</ele><time>2026-05-02T13:16:45.998Z</time></trkpt><trkpt lat="45.02088652410415" lon="5.472327683239953"><ele>1310.0</ele><time>2026-05-02T13:16:46.998Z</time></trkpt><trkpt lat="45.02073373294428" lon="5.472408580212818"><ele>1311.3333333333335</ele><time>2026-05-02T13:16:47.998Z</time></trkpt><trkpt lat="45.02059206626392" lon="5.4725581731036215"><ele>1312.6666666666667</ele><time>2026-05-02T13:16:48.998Z</time></trkpt><trkpt lat="45.0204736630101" lon="5.472767551349908"><ele>1314.0</ele><time>2026-05-02T13:16:49.998Z</time></trkpt><trkpt lat="45.02035823043706" lon="5.4729643400219565"><ele>1314.0</ele><time>2026-05-02T13:16:50.998Z</time></trkpt><trkpt lat="45.02024567074856" lon="5.473097048598109"><ele>1314.0</ele><time>2026-05-02T13:16:51.998Z</time></trkpt><trkpt lat="45.02013489564522" lon="5.4731981641640255"><ele>1314.0</ele><time>2026-05-02T13:16:52.998Z</time></trkpt><trkpt lat="45.020021598488" lon="5.473277624637168"><ele>1314.0</ele><time>2026-05-02T13:16:53.998Z</time></trkpt><trkpt lat="45.0199059357451" lon="5.473311720219589"><ele>1314.5</ele><time>2026-05-02T13:16:54.998Z</time></trkpt><trkpt lat="45.019791779059354" lon="5.473323612324149"><ele>1315.0</ele><time>2026-05-02T13:16:55.998Z</time></trkpt><trkpt lat="45.0196684434984" lon="5.473268159360625"><ele>1315.5</ele><time>2026-05-02T13:16:56.998Z</time></trkpt><trkpt lat="45.019532436891424" lon="5.473188770501599"><ele>1316.0</ele><time>2026-05-02T13:16:57.998Z</time></trkpt><trkpt lat="45.01937795820637" lon="5.473132443355729"><ele>1316.0</ele><time>2026-05-02T13:16:58.998Z</time></trkpt><trkpt lat="45.019206131485795" lon="5.473082537408875"><ele>1316.0</ele><time>2026-05-02T13:16:59.998Z</time></trkpt><trkpt lat="45.019023432695356" lon="5.473007924794687"><ele>1316.0</ele><time>2026-05-02T13:17:00.998Z</time></trkpt><trkpt lat="45.01882800509076" lon="5.472894567342344"><ele>1319.0</ele><time>2026-05-02T13:17:01.998Z</time></trkpt><trkpt lat="45.01861727012949" lon="5.472737220412893"><ele>1322.0</ele><time>2026-05-02T13:17:02.998Z</time></trkpt><trkpt lat="45.01842312043077" lon="5.472583962147935"><ele>1321.6666666666667</ele><time>2026-05-02T13:17:03.998Z</time></trkpt><trkpt lat="45.018249351956456" lon="5.47247465818854"><ele>1321.3333333333333</ele><time>2026-05-02T13:17:04.998Z</time></trkpt><trkpt lat="45.01806827681875" lon="5.472410646101216"><ele>1321.0</ele><time>2026-05-02T13:17:06Z</time></trkpt><trkpt lat="45.017865202301216" lon="5.472374909304472"><ele>1321.0</ele><time>2026-05-02T13:17:07Z</time></trkpt><trkpt lat="45.01761350782355" lon="5.472357440041736"><ele>1321.0</ele><time>2026-05-02T13:17:08Z</time></trkpt><trkpt lat="45.01742128800092" lon="5.472331848722436"><ele>1321.0</ele><time>2026-05-02T13:17:09Z</time></trkpt><trkpt lat="45.01726382611114" lon="5.472303183767955"><ele>1321.25</ele><time>2026-05-02T13:17:10Z</time></trkpt><trkpt lat="45.017126579583596" lon="5.472282693314206"><ele>1321.5</ele><time>2026-05-02T13:17:11Z</time></trkpt><trkpt lat="45.01700614840784" lon="5.472297823808748"><ele>1321.75</ele><time>2026-05-02T13:17:12Z</time></trkpt><trkpt lat="45.01690435231124" lon="5.472406675455224"><ele>1322.0</ele><time>2026-05-02T13:17:13Z</time></trkpt><trkpt lat="45.01682802285155" lon="5.472598075003359"><ele>1322.0</ele><time>2026-05-02T13:17:14Z</time></trkpt><trkpt lat="45.01675467021057" lon="5.472773974243929"><ele>1322.0</ele><time>2026-05-02T13:17:15Z</time></trkpt><trkpt lat="45.01662497614852" lon="5.47291150825658"><ele>1322.0</ele><time>2026-05-02T13:17:16Z</time></trkpt><trkpt lat="45.01644161639156" lon="5.473020536218656"><ele>1320.3333333333335</ele><time>2026-05-02T13:17:17Z</time></trkpt><trkpt lat="45.01630160593178" lon="5.47316985739119"><ele>1318.6666666666667</ele><time>2026-05-02T13:17:18Z</time></trkpt><trkpt lat="45.01618393538927" lon="5.473309944893302"><ele>1317.0</ele><time>2026-05-02T13:17:19Z</time></trkpt><trkpt lat="45.01604479925243" lon="5.473392096442133"><ele>1317.0</ele><time>2026-05-02T13:17:20Z</time></trkpt><trkpt lat="45.015887036440624" lon="5.47342852103004"><ele>1317.0</ele><time>2026-05-02T13:17:21Z</time></trkpt><trkpt lat="45.01573032905891" lon="5.473402846331029"><ele>1317.0</ele><time>2026-05-02T13:17:22Z</time></trkpt><trkpt lat="45.01557481959217" lon="5.473366580731742"><ele>1316.25</ele><time>2026-05-02T13:17:23Z</time></trkpt><trkpt lat="45.01545631711171" lon="5.473273895335395"><ele>1315.5</ele><time>2026-05-02T13:17:24Z</time></trkpt><trkpt lat="45.015340094600006" lon="5.4731858774266495"><ele>1314.75</ele><time>2026-05-02T13:17:25Z</time></trkpt><trkpt lat="45.015221727306184" lon="5.473160001234587"><ele>1314.0</ele><time>2026-05-02T13:17:26Z</time></trkpt><trkpt lat="45.01508822293157" lon="5.473225645072524"><ele>1313.75</ele><time>2026-05-02T13:17:27Z</time></trkpt><trkpt lat="45.01496337181504" lon="5.473353399748898"><ele>1313.5</ele><time>2026-05-02T13:17:28Z</time></trkpt><trkpt lat="45.014838684135874" lon="5.473482883444554"><ele>1313.25</ele><time>2026-05-02T13:17:29Z</time></trkpt><trkpt lat="45.01474132599502" lon="5.473553569252805"><ele>1313.0</ele><time>2026-05-02T13:17:30Z</time></trkpt><trkpt lat="45.01463418150651" lon="5.4735820599179466"><ele>1313.0</ele><time>2026-05-02T13:17:31Z</time></trkpt><trkpt lat="45.01454211732624" lon="5.473573501925585"><ele>1313.0</ele><time>2026-05-02T13:17:32Z</time></trkpt><trkpt lat="45.01449312742519" lon="5.4735125207695745"><ele>1313.0</ele><time>2026-05-02T13:17:33Z</time></trkpt><trkpt lat="45.01445444943172" lon="5.4734063794931815"><ele>1313.0</ele><time>2026-05-02T13:17:34Z</time></trkpt><trkpt lat="45.014470089532175" lon="5.473247950161292"><ele>1313.0</ele><time>2026-05-02T13:17:35Z</time></trkpt><trkpt lat="45.01449204173136" lon="5.473087598968789"><ele>1311.6666666666667</ele><time>2026-05-02T13:17:36Z</time></trkpt><trkpt lat="45.01443642229118" lon="5.472923393903694"><ele>1310.3333333333333</ele><time>2026-05-02T13:17:37Z</time></trkpt><trkpt lat="45.01434693512101" lon="5.472768569999464"><ele>1309.0</ele><time>2026-05-02T13:17:38Z</time></trkpt><trkpt lat="45.014218738062176" lon="5.472578564792917"><ele>1307.6666666666665</ele><time>2026-05-02T13:17:39Z</time></trkpt><trkpt lat="45.01408096609323" lon="5.472370331446265"><ele>1306.3333333333333</ele><time>2026-05-02T13:17:40Z</time></trkpt><trkpt lat="45.0139688064841" lon="5.47215139409919"><ele>1305.0</ele><time>2026-05-02T13:17:41Z</time></trkpt><trkpt lat="45.013826112745974" lon="5.472011373048362"><ele>1303.0</ele><time>2026-05-02T13:17:42Z</time></trkpt><trkpt lat="45.013701729310746" lon="5.471830839188576"><ele>1301.0</ele><time>2026-05-02T13:17:43Z</time></trkpt><trkpt lat="45.013600786417" lon="5.471638601371429"><ele>1299.0</ele><time>2026-05-02T13:17:44Z</time></trkpt><trkpt lat="45.013516057489184" lon="5.471441549719523"><ele>1299.3333333333333</ele><time>2026-05-02T13:17:45Z</time></trkpt><trkpt lat="45.01345421570645" lon="5.471244103287514"><ele>1299.6666666666665</ele><time>2026-05-02T13:17:46Z</time></trkpt><trkpt lat="45.01341773447237" lon="5.471025369240389"><ele>1300.0</ele><time>2026-05-02T13:17:47Z</time></trkpt><trkpt lat="45.01340574783102" lon="5.470789894731171"><ele>1300.0</ele><time>2026-05-02T13:17:48Z</time></trkpt><trkpt lat="45.01339242874862" lon="5.470595657245298"><ele>1300.0</ele><time>2026-05-02T13:17:49Z</time></trkpt><trkpt lat="45.013343192238345" lon="5.470430681144256"><ele>1300.0</ele><time>2026-05-02T13:17:50Z</time></trkpt><trkpt lat="45.013256268688046" lon="5.470314867576082"><ele>1300.0</ele><time>2026-05-02T13:17:51Z</time></trkpt><trkpt lat="45.01313553813533" lon="5.470220219068831"><ele>1296.3333333333333</ele><time>2026-05-02T13:17:51.999Z</time></trkpt><trkpt lat="45.012983578254556" lon="5.470112317178299"><ele>1292.6666666666667</ele><time>2026-05-02T13:17:52.999Z</time></trkpt><trkpt lat="45.01284685150196" lon="5.470002362119855"><ele>1289.0</ele><time>2026-05-02T13:17:53.999Z</time></trkpt><trkpt lat="45.012706558899254" lon="5.469936975885367"><ele>1289.0</ele><time>2026-05-02T13:17:54.999Z</time></trkpt><trkpt lat="45.01253792950632" lon="5.469932034050521"><ele>1289.0</ele><time>2026-05-02T13:17:55.999Z</time></trkpt><trkpt lat="45.01233216824654" lon="5.469961824080173"><ele>1289.0</ele><time>2026-05-02T13:17:56.999Z</time></trkpt><trkpt lat="45.012118709831036" lon="5.469964277765942"><ele>1287.3333333333335</ele><time>2026-05-02T13:17:57.999Z</time></trkpt><trkpt lat="45.011907448033064" lon="5.469933034078842"><ele>1285.6666666666667</ele><time>2026-05-02T13:17:58.999Z</time></trkpt><trkpt lat="45.01170160329457" lon="5.46988339109828"><ele>1284.0</ele><time>2026-05-02T13:17:59.999Z</time></trkpt><trkpt lat="45.011513310554285" lon="5.469817733047583"><ele>1281.0</ele><time>2026-05-02T13:18:00.999Z</time></trkpt><trkpt lat="45.01133331070785" lon="5.469787476248591"><ele>1278.0</ele><time>2026-05-02T13:18:01.999Z</time></trkpt><trkpt lat="45.01114582563505" lon="5.469799835595289"><ele>1275.0</ele><time>2026-05-02T13:18:02.999Z</time></trkpt><trkpt lat="45.01095205274487" lon="5.469828989993917"><ele>1270.3333333333333</ele><time>2026-05-02T13:18:03.999Z</time></trkpt><trkpt lat="45.01075779461117" lon="5.469862825671072"><ele>1265.6666666666665</ele><time>2026-05-02T13:18:04.999Z</time></trkpt><trkpt lat="45.01056094607949" lon="5.469892259312842"><ele>1261.0</ele><time>2026-05-02T13:18:05.999Z</time></trkpt><trkpt lat="45.01036453285898" lon="5.469936493800394"><ele>1261.0</ele><time>2026-05-02T13:18:06.999Z</time></trkpt><trkpt lat="45.01017820235011" lon="5.470031893717684"><ele>1261.0</ele><time>2026-05-02T13:18:07.999Z</time></trkpt><trkpt lat="45.01000180584168" lon="5.470161119593176"><ele>1261.0</ele><time>2026-05-02T13:18:08.999Z</time></trkpt><trkpt lat="45.009829877009956" lon="5.470297944584337"><ele>1259.6666666666665</ele><time>2026-05-02T13:18:09.999Z</time></trkpt><trkpt lat="45.00966369968841" lon="5.4704260010637205"><ele>1258.3333333333333</ele><time>2026-05-02T13:18:10.999Z</time></trkpt><trkpt lat="45.00950009485984" lon="5.4705454738000405"><ele>1257.0</ele><time>2026-05-02T13:18:11.999Z</time></trkpt><trkpt lat="45.0093478360894" lon="5.470668142487037"><ele>1257.0</ele><time>2026-05-02T13:18:12.999Z</time></trkpt><trkpt lat="45.00924020095069" lon="5.470845463956473"><ele>1257.0</ele><time>2026-05-02T13:18:13.999Z</time></trkpt><trkpt lat="45.0091221640412" lon="5.471003943359143"><ele>1257.0</ele><time>2026-05-02T13:18:14.999Z</time></trkpt><trkpt lat="45.00902641394353" lon="5.471156560993812"><ele>1259.0</ele><time>2026-05-02T13:18:15.999Z</time></trkpt><trkpt lat="45.008922313938164" lon="5.471267071858013"><ele>1261.0</ele><time>2026-05-02T13:18:16.999Z</time></trkpt><trkpt lat="45.008807614845395" lon="5.4713393658526615"><ele>1263.0</ele><time>2026-05-02T13:18:17.999Z</time></trkpt><trkpt lat="45.00869510949409" lon="5.47128759649784"><ele>1265.0</ele><time>2026-05-02T13:18:18.999Z</time></trkpt><trkpt lat="45.00858159966987" lon="5.471199527694084"><ele>1259.75</ele><time>2026-05-02T13:18:19.999Z</time></trkpt><trkpt lat="45.00846855292476" lon="5.471061537645385"><ele>1254.5</ele><time>2026-05-02T13:18:20.999Z</time></trkpt><trkpt lat="45.0083533473472" lon="5.470983682700988"><ele>1249.25</ele><time>2026-05-02T13:18:21.999Z</time></trkpt><trkpt lat="45.00821549414249" lon="5.471010500467963"><ele>1244.0</ele><time>2026-05-02T13:18:22.999Z</time></trkpt><trkpt lat="45.00807524537964" lon="5.4710459932442825"><ele>1241.8</ele><time>2026-05-02T13:18:23.999Z</time></trkpt><trkpt lat="45.007964830483296" lon="5.471081706747335"><ele>1239.6000000000001</ele><time>2026-05-02T13:18:24.999Z</time></trkpt><trkpt lat="45.00786466681182" lon="5.4711250455974865"><ele>1237.4</ele><time>2026-05-02T13:18:25.999Z</time></trkpt><trkpt lat="45.00778636701272" lon="5.47116527388066"><ele>1235.2</ele><time>2026-05-02T13:18:26.999Z</time></trkpt><trkpt lat="45.00768851955906" lon="5.471169609550761"><ele>1233.0</ele><time>2026-05-02T13:18:28.999Z</time></trkpt><trkpt lat="45.007689060601514" lon="5.471043975521397"><ele>1233.0</ele><time>2026-05-02T13:18:29.999Z</time></trkpt><trkpt lat="45.007738823847596" lon="5.470937670222305"><ele>1233.0</ele><time>2026-05-02T13:18:30.999Z</time></trkpt><trkpt lat="45.00787656572492" lon="5.470899912610493"><ele>1233.0</ele><time>2026-05-02T13:18:31.999Z</time></trkpt><trkpt lat="45.00800215013688" lon="5.470839408515907"><ele>1233.0</ele><time>2026-05-02T13:18:32.999Z</time></trkpt><trkpt lat="45.00812226374808" lon="5.470681985506165"><ele>1233.0</ele><time>2026-05-02T13:18:33.999Z</time></trkpt><trkpt lat="45.00821591788411" lon="5.470518139177704"><ele>1233.0</ele><time>2026-05-02T13:18:34.999Z</time></trkpt><trkpt lat="45.00829440140383" lon="5.47035694442282"><ele>1233.0</ele><time>2026-05-02T13:18:35.999Z</time></trkpt><trkpt lat="45.00831435959478" lon="5.470166431458959"><ele>1233.0</ele><time>2026-05-02T13:18:36.999Z</time></trkpt><trkpt lat="45.0082874117388" lon="5.4699601678526495"><ele>1230.0</ele><time>2026-05-02T13:18:37.999Z</time></trkpt><trkpt lat="45.00820408344832" lon="5.469764834211746"><ele>1227.0</ele><time>2026-05-02T13:18:38.999Z</time></trkpt><trkpt lat="45.00812909219327" lon="5.469617810812513"><ele>1224.0</ele><time>2026-05-02T13:18:39.999Z</time></trkpt><trkpt lat="45.00804311636765" lon="5.469520947311398"><ele>1221.0</ele><time>2026-05-02T13:18:40.999Z</time></trkpt><trkpt lat="45.007921139405866" lon="5.469528182816009"><ele>1221.0</ele><time>2026-05-02T13:18:41.999Z</time></trkpt><trkpt lat="45.00779418716969" lon="5.469630400179926"><ele>1221.0</ele><time>2026-05-02T13:18:42.999Z</time></trkpt><trkpt lat="45.00766319317618" lon="5.46973777507098"><ele>1221.0</ele><time>2026-05-02T13:18:43.999Z</time></trkpt><trkpt lat="45.00750426580843" lon="5.469722036677915"><ele>1218.6666666666667</ele><time>2026-05-02T13:18:44.999Z</time></trkpt><trkpt lat="45.00733906163549" lon="5.469680195016651"><ele>1216.3333333333335</ele><time>2026-05-02T13:18:45.999Z</time></trkpt><trkpt lat="45.007196172734886" lon="5.469625987421036"><ele>1214.0</ele><time>2026-05-02T13:18:46.999Z</time></trkpt><trkpt lat="45.007082618879" lon="5.469514575214816"><ele>1212.0</ele><time>2026-05-02T13:18:47.999Z</time></trkpt><trkpt lat="45.00697945326287" lon="5.469367803509281"><ele>1210.0</ele><time>2026-05-02T13:18:48.999Z</time></trkpt><trkpt lat="45.006847159847545" lon="5.469291745047544"><ele>1208.0</ele><time>2026-05-02T13:18:49.999Z</time></trkpt><trkpt lat="45.006698622205654" lon="5.469242650221133"><ele>1206.0</ele><time>2026-05-02T13:18:50.999Z</time></trkpt><trkpt lat="45.00653822851439" lon="5.469284137240284"><ele>1207.6666666666667</ele><time>2026-05-02T13:18:51.999Z</time></trkpt><trkpt lat="45.00638869391935" lon="5.469422697575285"><ele>1209.3333333333335</ele><time>2026-05-02T13:18:52.999Z</time></trkpt><trkpt lat="45.006256783850134" lon="5.4695295852519035"><ele>1211.0</ele><time>2026-05-02T13:18:53.998Z</time></trkpt><trkpt lat="45.00614958942517" lon="5.469659361927314"><ele>1211.0</ele><time>2026-05-02T13:18:54.998Z</time></trkpt><trkpt lat="45.00604966398707" lon="5.469758087587397"><ele>1211.0</ele><time>2026-05-02T13:18:55.998Z</time></trkpt><trkpt lat="45.00593449865316" lon="5.469830652212714"><ele>1211.0</ele><time>2026-05-02T13:18:56.998Z</time></trkpt><trkpt lat="45.00580890048722" lon="5.469811030923494"><ele>1211.0</ele><time>2026-05-02T13:18:57.998Z</time></trkpt><trkpt lat="45.005684529098" lon="5.469710489039231"><ele>1208.0</ele><time>2026-05-02T13:18:58.998Z</time></trkpt><trkpt lat="45.005571588833895" lon="5.469534612241445"><ele>1205.0</ele><time>2026-05-02T13:18:59.998Z</time></trkpt><trkpt lat="45.005420422949555" lon="5.469397365383079"><ele>1202.0</ele><time>2026-05-02T13:19:00.998Z</time></trkpt><trkpt lat="45.005251887348145" lon="5.469307541413233"><ele>1202.0</ele><time>2026-05-02T13:19:01.998Z</time></trkpt><trkpt lat="45.005082262510506" lon="5.469194494946577"><ele>1202.0</ele><time>2026-05-02T13:19:02.998Z</time></trkpt><trkpt lat="45.0049009412218" lon="5.469072490451483"><ele>1202.0</ele><time>2026-05-02T13:19:03.998Z</time></trkpt><trkpt lat="45.004738225120875" lon="5.468856305875931"><ele>1201.0</ele><time>2026-05-02T13:19:04.998Z</time></trkpt><trkpt lat="45.0046193491453" lon="5.468652088444541"><ele>1200.0</ele><time>2026-05-02T13:19:05.998Z</time></trkpt><trkpt lat="45.00448206457141" lon="5.468474439909757"><ele>1199.0</ele><time>2026-05-02T13:19:06.998Z</time></trkpt><trkpt lat="45.00435567127935" lon="5.4683104600664105"><ele>1199.0</ele><time>2026-05-02T13:19:07.998Z</time></trkpt><trkpt lat="45.00420922939958" lon="5.468188211992573"><ele>1199.0</ele><time>2026-05-02T13:19:08.998Z</time></trkpt><trkpt lat="45.004065822343115" lon="5.468050436424951"><ele>1199.0</ele><time>2026-05-02T13:19:09.998Z</time></trkpt><trkpt lat="45.003927050647796" lon="5.467958719908883"><ele>1195.5</ele><time>2026-05-02T13:19:10.998Z</time></trkpt><trkpt lat="45.003809881649545" lon="5.467876774537106"><ele>1192.0</ele><time>2026-05-02T13:19:12Z</time></trkpt><trkpt lat="45.00371945451629" lon="5.467778393456064"><ele>1188.5</ele><time>2026-05-02T13:19:13Z</time></trkpt><trkpt lat="45.003627690014774" lon="5.4676918552875975"><ele>1185.0</ele><time>2026-05-02T13:19:14Z</time></trkpt><trkpt lat="45.00354290978409" lon="5.467626665596021"><ele>1185.0</ele><time>2026-05-02T13:19:15Z</time></trkpt><trkpt lat="45.00349479529173" lon="5.467525709479973"><ele>1185.0</ele><time>2026-05-02T13:19:17Z</time></trkpt><trkpt lat="45.003532139555844" lon="5.467447073811665"><ele>1185.0</ele><time>2026-05-02T13:19:18Z</time></trkpt><trkpt lat="45.003656411726865" lon="5.467481890071485"><ele>1185.0</ele><time>2026-05-02T13:19:19Z</time></trkpt><trkpt lat="45.00377015597244" lon="5.46759135057551"><ele>1185.0</ele><time>2026-05-02T13:19:20Z</time></trkpt><trkpt lat="45.00390963870228" lon="5.4676869363439975"><ele>1185.0</ele><time>2026-05-02T13:19:21Z</time></trkpt><trkpt lat="45.004089888987224" lon="5.4677216951172145"><ele>1185.0</ele><time>2026-05-02T13:19:22Z</time></trkpt><trkpt lat="45.004313406706885" lon="5.467755837067173"><ele>1185.0</ele><time>2026-05-02T13:19:23Z</time></trkpt><trkpt lat="45.00452238506755" lon="5.4678427118737805"><ele>1189.6666666666667</ele><time>2026-05-02T13:19:24Z</time></trkpt><trkpt lat="45.004712593909915" lon="5.467899965731694"><ele>1194.3333333333335</ele><time>2026-05-02T13:19:25Z</time></trkpt><trkpt lat="45.00489711684712" lon="5.467953217348512"><ele>1199.0</ele><time>2026-05-02T13:19:26Z</time></trkpt><trkpt lat="45.00507203218241" lon="5.46790982629181"><ele>1182.6666666666667</ele><time>2026-05-02T13:19:27Z</time></trkpt><trkpt lat="45.005269242798974" lon="5.467845972842238"><ele>1166.3333333333333</ele><time>2026-05-02T13:19:28Z</time></trkpt><trkpt lat="45.00545562507301" lon="5.46787168811917"><ele>1150.0</ele><time>2026-05-02T13:19:29Z</time></trkpt><trkpt lat="45.005631912585905" lon="5.467925608781936"><ele>1160.6666666666665</ele><time>2026-05-02T13:19:30Z</time></trkpt><trkpt lat="45.005814845744496" lon="5.4680095821019"><ele>1171.3333333333333</ele><time>2026-05-02T13:19:31Z</time></trkpt><trkpt lat="45.006003377631124" lon="5.468039125487125"><ele>1182.0</ele><time>2026-05-02T13:19:32Z</time></trkpt><trkpt lat="45.006164875789274" lon="5.467999021548984"><ele>1167.3333333333333</ele><time>2026-05-02T13:19:33Z</time></trkpt><trkpt lat="45.006328591058264" lon="5.467925280583672"><ele>1152.6666666666665</ele><time>2026-05-02T13:19:34Z</time></trkpt><trkpt lat="45.00649588013336" lon="5.4678732168758994"><ele>1138.0</ele><time>2026-05-02T13:19:35Z</time></trkpt><trkpt lat="45.006665926680135" lon="5.467859180287899"><ele>1135.6666666666665</ele><time>2026-05-02T13:19:36Z</time></trkpt><trkpt lat="45.006845669948255" lon="5.467892484083802"><ele>1133.3333333333333</ele><time>2026-05-02T13:19:37Z</time></trkpt><trkpt lat="45.00704757939005" lon="5.467918843963585"><ele>1131.0</ele><time>2026-05-02T13:19:38Z</time></trkpt><trkpt lat="45.0072501955206" lon="5.467934836565258"><ele>1129.3333333333333</ele><time>2026-05-02T13:19:39Z</time></trkpt><trkpt lat="45.00745885784411" lon="5.467958766069624"><ele>1127.6666666666665</ele><time>2026-05-02T13:19:40Z</time></trkpt><trkpt lat="45.00766653812736" lon="5.467954697867465"><ele>1126.0</ele><time>2026-05-02T13:19:41Z</time></trkpt><trkpt lat="45.00787732707139" lon="5.467905291006234"><ele>1126.0</ele><time>2026-05-02T13:19:42Z</time></trkpt><trkpt lat="45.00807465554756" lon="5.467875763927961"><ele>1126.0</ele><time>2026-05-02T13:19:43Z</time></trkpt><trkpt lat="45.00825558797817" lon="5.467826872862475"><ele>1126.0</ele><time>2026-05-02T13:19:44Z</time></trkpt><trkpt lat="45.00843235026346" lon="5.4677998237203465"><ele>1124.0</ele><time>2026-05-02T13:19:45Z</time></trkpt><trkpt lat="45.008608733221315" lon="5.467782594565231"><ele>1122.0</ele><time>2026-05-02T13:19:46Z</time></trkpt><trkpt lat="45.00879583199562" lon="5.467781186767234"><ele>1120.0</ele><time>2026-05-02T13:19:47Z</time></trkpt><trkpt lat="45.008996807970796" lon="5.467792225180001"><ele>1120.0</ele><time>2026-05-02T13:19:48Z</time></trkpt><trkpt lat="45.009195619117165" lon="5.4677813578001"><ele>1120.0</ele><time>2026-05-02T13:19:49Z</time></trkpt><trkpt lat="45.009405371755705" lon="5.467776220788762"><ele>1120.0</ele><time>2026-05-02T13:19:50Z</time></trkpt><trkpt lat="45.00961349061531" lon="5.467755116519445"><ele>1120.0</ele><time>2026-05-02T13:19:51Z</time></trkpt><trkpt lat="45.00981790474158" lon="5.46772165351283"><ele>1120.0</ele><time>2026-05-02T13:19:52Z</time></trkpt><trkpt lat="45.01001087970252" lon="5.467699294227531"><ele>1120.0</ele><time>2026-05-02T13:19:53Z</time></trkpt><trkpt lat="45.010201375378436" lon="5.467652585188636"><ele>1121.3333333333333</ele><time>2026-05-02T13:19:54Z</time></trkpt><trkpt lat="45.010375372629284" lon="5.46753722860559"><ele>1122.6666666666667</ele><time>2026-05-02T13:19:55Z</time></trkpt><trkpt lat="45.010564804314356" lon="5.467466588010887"><ele>1124.0</ele><time>2026-05-02T13:19:56Z</time></trkpt><trkpt lat="45.01074815817033" lon="5.46736874503257"><ele>1126.0</ele><time>2026-05-02T13:19:57Z</time></trkpt><trkpt lat="45.01093944917243" lon="5.4673046781252825"><ele>1128.0</ele><time>2026-05-02T13:19:58Z</time></trkpt><trkpt lat="45.01113964986489" lon="5.467252947362996"><ele>1130.0</ele><time>2026-05-02T13:19:58.999Z</time></trkpt><trkpt lat="45.01133528418264" lon="5.467206878976385"><ele>1130.0</ele><time>2026-05-02T13:19:59.999Z</time></trkpt><trkpt lat="45.011535784899024" lon="5.467155816530939"><ele>1130.0</ele><time>2026-05-02T13:20:00.999Z</time></trkpt><trkpt lat="45.01173436745367" lon="5.46708990543911"><ele>1130.0</ele><time>2026-05-02T13:20:01.999Z</time></trkpt><trkpt lat="45.011935379657615" lon="5.467031422661152"><ele>1121.6666666666667</ele><time>2026-05-02T13:20:02.999Z</time></trkpt><trkpt lat="45.012139343441525" lon="5.466971204714562"><ele>1113.3333333333333</ele><time>2026-05-02T13:20:03.999Z</time></trkpt><trkpt lat="45.01233538610529" lon="5.466918800908994"><ele>1105.0</ele><time>2026-05-02T13:20:04.999Z</time></trkpt><trkpt lat="45.01252375808241" lon="5.466851422816666"><ele>1105.0</ele><time>2026-05-02T13:20:05.999Z</time></trkpt><trkpt lat="45.01270041740553" lon="5.466764738026538"><ele>1105.0</ele><time>2026-05-02T13:20:06.999Z</time></trkpt><trkpt lat="45.01286434706893" lon="5.466689228202908"><ele>1105.0</ele><time>2026-05-02T13:20:07.999Z</time></trkpt><trkpt lat="45.01302241523389" lon="5.466552620101577"><ele>1105.0</ele><time>2026-05-02T13:20:08.999Z</time></trkpt><trkpt lat="45.01318366659167" lon="5.466386465258161"><ele>1105.0</ele><time>2026-05-02T13:20:09.999Z</time></trkpt><trkpt lat="45.01334805719714" lon="5.466230448532357"><ele>1105.0</ele><time>2026-05-02T13:20:10.999Z</time></trkpt><trkpt lat="45.013520112770955" lon="5.466067870198004"><ele>1100.3333333333333</ele><time>2026-05-02T13:20:11.999Z</time></trkpt><trkpt lat="45.01367964929562" lon="5.465908734156285"><ele>1095.6666666666667</ele><time>2026-05-02T13:20:12.999Z</time></trkpt><trkpt lat="45.013815721400505" lon="5.4657679338608"><ele>1091.0</ele><time>2026-05-02T13:20:13.999Z</time></trkpt><trkpt lat="45.01390535919696" lon="5.465594290822311"><ele>1086.5</ele><time>2026-05-02T13:20:14.999Z</time></trkpt><trkpt lat="45.01398236772586" lon="5.4654415424003036"><ele>1082.0</ele><time>2026-05-02T13:20:15.999Z</time></trkpt><trkpt lat="45.014031761054845" lon="5.465289480754073"><ele>1077.5</ele><time>2026-05-02T13:20:16.999Z</time></trkpt><trkpt lat="45.01406000292646" lon="5.465128814623562"><ele>1073.0</ele><time>2026-05-02T13:20:17.999Z</time></trkpt><trkpt lat="45.0140043155773" lon="5.464950348717737"><ele>1073.0</ele><time>2026-05-02T13:20:18.999Z</time></trkpt><trkpt lat="45.013891625385135" lon="5.464798057990129"><ele>1073.0</ele><time>2026-05-02T13:20:19.999Z</time></trkpt><trkpt lat="45.01374203000124" lon="5.464653611325315"><ele>1073.0</ele><time>2026-05-02T13:20:20.999Z</time></trkpt><trkpt lat="45.013560024951225" lon="5.4645038550153435"><ele>1077.3333333333335</ele><time>2026-05-02T13:20:21.999Z</time></trkpt><trkpt lat="45.01337914866572" lon="5.46435742935628"><ele>1081.6666666666667</ele><time>2026-05-02T13:20:22.999Z</time></trkpt><trkpt lat="45.01319659614406" lon="5.464215877235577"><ele>1086.0</ele><time>2026-05-02T13:20:23.999Z</time></trkpt><trkpt lat="45.0130234096777" lon="5.464131677678288"><ele>1079.25</ele><time>2026-05-02T13:20:24.999Z</time></trkpt><trkpt lat="45.01287574770714" lon="5.464013464709307"><ele>1072.5</ele><time>2026-05-02T13:20:25.999Z</time></trkpt><trkpt lat="45.01275764321784" lon="5.463933521122038"><ele>1065.75</ele><time>2026-05-02T13:20:26.999Z</time></trkpt><trkpt lat="45.01263951436901" lon="5.463857884164669"><ele>1059.0</ele><time>2026-05-02T13:20:27.999Z</time></trkpt><trkpt lat="45.012538056307065" lon="5.46380464041252"><ele>1059.0</ele><time>2026-05-02T13:20:28.999Z</time></trkpt><trkpt lat="45.01245894423845" lon="5.463763607751996"><ele>1059.0</ele><time>2026-05-02T13:20:29.999Z</time></trkpt><trkpt lat="45.012446178700515" lon="5.463621103180357"><ele>1059.0</ele><time>2026-05-02T13:20:31.999Z</time></trkpt><trkpt lat="45.01252893305294" lon="5.463567188508491"><ele>1059.0</ele><time>2026-05-02T13:20:32.999Z</time></trkpt><trkpt lat="45.01266295530746" lon="5.463605246795174"><ele>1059.0</ele><time>2026-05-02T13:20:33.999Z</time></trkpt><trkpt lat="45.0128291261053" lon="5.463603387012502"><ele>1059.6666666666667</ele><time>2026-05-02T13:20:34.999Z</time></trkpt><trkpt lat="45.013005656864905" lon="5.463540706537689"><ele>1060.3333333333335</ele><time>2026-05-02T13:20:35.999Z</time></trkpt><trkpt lat="45.013211806498745" lon="5.463436033640045"><ele>1061.0</ele><time>2026-05-02T13:20:36.999Z</time></trkpt><trkpt lat="45.01344313930306" lon="5.463280545996718"><ele>1065.0</ele><time>2026-05-02T13:20:37.999Z</time></trkpt><trkpt lat="45.01369705553273" lon="5.463112080377465"><ele>1069.0</ele><time>2026-05-02T13:20:38.999Z</time></trkpt><trkpt lat="45.013932680589704" lon="5.462997977162166"><ele>1060.5</ele><time>2026-05-02T13:20:39.999Z</time></trkpt><trkpt lat="45.014147165746245" lon="5.462884872230096"><ele>1052.0</ele><time>2026-05-02T13:20:40.999Z</time></trkpt><trkpt lat="45.01435845620512" lon="5.462760111524953"><ele>1052.0</ele><time>2026-05-02T13:20:41.999Z</time></trkpt><trkpt lat="45.014527011845246" lon="5.462573190248811"><ele>1052.0</ele><time>2026-05-02T13:20:42.999Z</time></trkpt><trkpt lat="45.01467564467578" lon="5.4623740876356885"><ele>1052.0</ele><time>2026-05-02T13:20:43.999Z</time></trkpt><trkpt lat="45.01481408992993" lon="5.4621766616314"><ele>1047.3333333333335</ele><time>2026-05-02T13:20:44.999Z</time></trkpt><trkpt lat="45.01496284199293" lon="5.462020048128411"><ele>1042.6666666666667</ele><time>2026-05-02T13:20:45.999Z</time></trkpt><trkpt lat="45.015141315266675" lon="5.461917731194094"><ele>1038.0</ele><time>2026-05-02T13:20:46.999Z</time></trkpt><trkpt lat="45.015340499937835" lon="5.461846942236667"><ele>1038.0</ele><time>2026-05-02T13:20:47.999Z</time></trkpt><trkpt lat="45.01554982100631" lon="5.461809605252265"><ele>1038.0</ele><time>2026-05-02T13:20:48.999Z</time></trkpt><trkpt lat="45.01579564169634" lon="5.461803571263688"><ele>1044.5</ele><time>2026-05-02T13:20:49.999Z</time></trkpt><trkpt lat="45.016033513280156" lon="5.4617577187454645"><ele>1051.0</ele><time>2026-05-02T13:20:50.999Z</time></trkpt><trkpt lat="45.01629906806998" lon="5.461676949937282"><ele>1051.0</ele><time>2026-05-02T13:20:51.999Z</time></trkpt><trkpt lat="45.016576928026296" lon="5.461563968239092"><ele>1051.0</ele><time>2026-05-02T13:20:52.999Z</time></trkpt><trkpt lat="45.01684685006011" lon="5.461497759481616"><ele>1053.0</ele><time>2026-05-02T13:20:53.999Z</time></trkpt><trkpt lat="45.017099196864855" lon="5.4614475202235395"><ele>1055.0</ele><time>2026-05-02T13:20:54.999Z</time></trkpt><trkpt lat="45.017337818299936" lon="5.461410198220953"><ele>1056.5</ele><time>2026-05-02T13:20:55.999Z</time></trkpt><trkpt lat="45.01756770837395" lon="5.461371699139292"><ele>1058.0</ele><time>2026-05-02T13:20:56.999Z</time></trkpt><trkpt lat="45.017793042254105" lon="5.461347562249291"><ele>1058.0</ele><time>2026-05-02T13:20:57.999Z</time></trkpt><trkpt lat="45.01801204288279" lon="5.461344484739019"><ele>1058.0</ele><time>2026-05-02T13:20:58.999Z</time></trkpt><trkpt lat="45.01822424998519" lon="5.461341795860234"><ele>1058.0</ele><time>2026-05-02T13:20:59.998Z</time></trkpt><trkpt lat="45.01843763716806" lon="5.461311124790703"><ele>1039.6666666666667</ele><time>2026-05-02T13:21:00.998Z</time></trkpt><trkpt lat="45.018657672494655" lon="5.461267857527723"><ele>1021.3333333333333</ele><time>2026-05-02T13:21:01.998Z</time></trkpt><trkpt lat="45.01888331746968" lon="5.461231310069025"><ele>1003.0</ele><time>2026-05-02T13:21:02.998Z</time></trkpt><trkpt lat="45.01910796822933" lon="5.461197240261318"><ele>1002.3333333333333</ele><time>2026-05-02T13:21:03.998Z</time></trkpt><trkpt lat="45.019313344973654" lon="5.461174164082154"><ele>1001.6666666666667</ele><time>2026-05-02T13:21:04.998Z</time></trkpt><trkpt lat="45.01950985982034" lon="5.461173922371966"><ele>1001.0</ele><time>2026-05-02T13:21:05.998Z</time></trkpt><trkpt lat="45.01969868073509" lon="5.46121621419056"><ele>1001.0</ele><time>2026-05-02T13:21:06.998Z</time></trkpt><trkpt lat="45.019879852901745" lon="5.461262599136878"><ele>1001.0</ele><time>2026-05-02T13:21:07.998Z</time></trkpt><trkpt lat="45.02007339364978" lon="5.46122067839272"><ele>1001.0</ele><time>2026-05-02T13:21:08.998Z</time></trkpt><trkpt lat="45.020276914860986" lon="5.461197596531807"><ele>1001.6666666666667</ele><time>2026-05-02T13:21:09.998Z</time></trkpt><trkpt lat="45.02048951956836" lon="5.461174793106437"><ele>1002.3333333333333</ele><time>2026-05-02T13:21:10.998Z</time></trkpt><trkpt lat="45.020684349871686" lon="5.461174419842731"><ele>1003.0</ele><time>2026-05-02T13:21:11.998Z</time></trkpt><trkpt lat="45.02091491165392" lon="5.461167587516168"><ele>1003.0</ele><time>2026-05-02T13:21:12.998Z</time></trkpt><trkpt lat="45.021148534740966" lon="5.461143634395864"><ele>1003.0</ele><time>2026-05-02T13:21:13.998Z</time></trkpt><trkpt lat="45.02137951089181" lon="5.4610810401129"><ele>1003.0</ele><time>2026-05-02T13:21:14.998Z</time></trkpt><trkpt lat="45.021624191174446" lon="5.461048337183961"><ele>1003.0</ele><time>2026-05-02T13:21:15.998Z</time></trkpt><trkpt lat="45.021865871397836" lon="5.461021610234414"><ele>1001.3333333333333</ele><time>2026-05-02T13:21:16.998Z</time></trkpt><trkpt lat="45.02209325504314" lon="5.460982292376593"><ele>999.6666666666667</ele><time>2026-05-02T13:21:18Z</time></trkpt><trkpt lat="45.022308746904024" lon="5.460928229010324"><ele>998.0</ele><time>2026-05-02T13:21:19Z</time></trkpt><trkpt lat="45.02250185951539" lon="5.460844465252185"><ele>1001.6666666666667</ele><time>2026-05-02T13:21:20Z</time></trkpt><trkpt lat="45.02267429510951" lon="5.460747457501663"><ele>1005.3333333333333</ele><time>2026-05-02T13:21:21Z</time></trkpt><trkpt lat="45.02282477481818" lon="5.460619152031596"><ele>1009.0</ele><time>2026-05-02T13:21:22Z</time></trkpt><trkpt lat="45.02295553847818" lon="5.460459218384802"><ele>1002.3333333333333</ele><time>2026-05-02T13:21:23Z</time></trkpt><trkpt lat="45.02306647863372" lon="5.460286839882271"><ele>995.6666666666667</ele><time>2026-05-02T13:21:24Z</time></trkpt><trkpt lat="45.023190127014225" lon="5.460155463644626"><ele>989.0</ele><time>2026-05-02T13:21:25Z</time></trkpt><trkpt lat="45.02335847663093" lon="5.460135292417584"><ele>989.0</ele><time>2026-05-02T13:21:26Z</time></trkpt><trkpt lat="45.02354288761954" lon="5.460076693582573"><ele>989.0</ele><time>2026-05-02T13:21:27Z</time></trkpt><trkpt lat="45.02371604977564" lon="5.460020890065774"><ele>989.0</ele><time>2026-05-02T13:21:28Z</time></trkpt><trkpt lat="45.023875889134835" lon="5.4599524821643035"><ele>989.0</ele><time>2026-05-02T13:21:29Z</time></trkpt><trkpt lat="45.02397727870874" lon="5.459822234733745"><ele>989.0</ele><time>2026-05-02T13:21:30Z</time></trkpt><trkpt lat="45.024094061439676" lon="5.459649689431039"><ele>989.0</ele><time>2026-05-02T13:21:31Z</time></trkpt><trkpt lat="45.02417443221091" lon="5.459489564890296"><ele>989.0</ele><time>2026-05-02T13:21:32Z</time></trkpt><trkpt lat="45.02431618989461" lon="5.459413113973877"><ele>983.3333333333334</ele><time>2026-05-02T13:21:33Z</time></trkpt><trkpt lat="45.02444067059065" lon="5.459302302064424"><ele>977.6666666666667</ele><time>2026-05-02T13:21:34Z</time></trkpt><trkpt lat="45.024516991880674" lon="5.459105504751403"><ele>972.0</ele><time>2026-05-02T13:21:35Z</time></trkpt><trkpt lat="45.024544954585316" lon="5.458859907745756"><ele>968.0</ele><time>2026-05-02T13:21:36Z</time></trkpt><trkpt lat="45.02458348188381" lon="5.458610143240954"><ele>964.0</ele><time>2026-05-02T13:21:37Z</time></trkpt><trkpt lat="45.02464169285541" lon="5.45832848859543"><ele>960.0</ele><time>2026-05-02T13:21:38Z</time></trkpt><trkpt lat="45.024705092793425" lon="5.458063153688127"><ele>962.3333333333333</ele><time>2026-05-02T13:21:39Z</time></trkpt><trkpt lat="45.02478091501008" lon="5.457823731617038"><ele>964.6666666666666</ele><time>2026-05-02T13:21:40Z</time></trkpt><trkpt lat="45.02489091923572" lon="5.457606100701914"><ele>967.0</ele><time>2026-05-02T13:21:41Z</time></trkpt><trkpt lat="45.02498215538826" lon="5.457454293007279"><ele>967.0</ele><time>2026-05-02T13:21:42Z</time></trkpt><trkpt lat="45.0250141990484" lon="5.457310363805878"><ele>967.0</ele><time>2026-05-02T13:21:43Z</time></trkpt><trkpt lat="45.02505539251384" lon="5.457146632917522"><ele>967.0</ele><time>2026-05-02T13:21:44Z</time></trkpt><trkpt lat="45.02515611016844" lon="5.456661027104635"><ele>962.0</ele><time>2026-05-02T13:21:45Z</time></trkpt><trkpt lat="45.025272181086045" lon="5.456477587111587"><ele>957.0</ele><time>2026-05-02T13:21:46Z</time></trkpt><trkpt lat="45.025375489581585" lon="5.456260996177971"><ele>952.0</ele><time>2026-05-02T13:21:47Z</time></trkpt><trkpt lat="45.0254812811655" lon="5.4560447071476315"><ele>951.3333333333333</ele><time>2026-05-02T13:21:48Z</time></trkpt><trkpt lat="45.025569108333805" lon="5.455822067405981"><ele>950.6666666666667</ele><time>2026-05-02T13:21:49Z</time></trkpt><trkpt lat="45.02567860293434" lon="5.455648748762173"><ele>950.0</ele><time>2026-05-02T13:21:50Z</time></trkpt><trkpt lat="45.02582971523534" lon="5.4555116898355855"><ele>945.3333333333334</ele><time>2026-05-02T13:21:51Z</time></trkpt><trkpt lat="45.025980295588155" lon="5.455348595693072"><ele>940.6666666666667</ele><time>2026-05-02T13:21:52Z</time></trkpt><trkpt lat="45.02611792315224" lon="5.4551582449351885"><ele>936.0</ele><time>2026-05-02T13:21:53Z</time></trkpt><trkpt lat="45.02623366143442" lon="5.4549680352553125"><ele>936.0</ele><time>2026-05-02T13:21:54Z</time></trkpt><trkpt lat="45.02631643364884" lon="5.454786795187826"><ele>936.0</ele><time>2026-05-02T13:21:55Z</time></trkpt><trkpt lat="45.02638666306487" lon="5.45464717012529"><ele>936.0</ele><time>2026-05-02T13:21:56Z</time></trkpt><trkpt lat="45.02649427096892" lon="5.454576201141146"><ele>936.0</ele><time>2026-05-02T13:21:57Z</time></trkpt><trkpt lat="45.02660737799065" lon="5.454600927299718"><ele>934.0</ele><time>2026-05-02T13:21:58Z</time></trkpt><trkpt lat="45.026737448162955" lon="5.454528745975319"><ele>932.0</ele><time>2026-05-02T13:21:59Z</time></trkpt><trkpt lat="45.02685195527433" lon="5.45434277083905"><ele>930.0</ele><time>2026-05-02T13:22:00Z</time></trkpt><trkpt lat="45.026977910986794" lon="5.454158181082366"><ele>930.0</ele><time>2026-05-02T13:22:01Z</time></trkpt><trkpt lat="45.02710581555613" lon="5.453934021119225"><ele>930.0</ele><time>2026-05-02T13:22:02Z</time></trkpt><trkpt lat="45.02727244799491" lon="5.453729419440246"><ele>930.0</ele><time>2026-05-02T13:22:03Z</time></trkpt><trkpt lat="45.027402226414466" lon="5.453508772971618"><ele>928.6666666666667</ele><time>2026-05-02T13:22:03.999Z</time></trkpt><trkpt lat="45.02753367962014" lon="5.453301945790247"><ele>927.3333333333334</ele><time>2026-05-02T13:22:04.999Z</time></trkpt><trkpt lat="45.02766932068966" lon="5.453121244573217"><ele>926.0</ele><time>2026-05-02T13:22:05.999Z</time></trkpt><trkpt lat="45.027809439891236" lon="5.452967351823251"><ele>918.3333333333334</ele><time>2026-05-02T13:22:06.999Z</time></trkpt><trkpt lat="45.0279680695174" lon="5.45283331930879"><ele>910.6666666666667</ele><time>2026-05-02T13:22:07.999Z</time></trkpt><trkpt lat="45.028122667182764" lon="5.452692428311043"><ele>903.0</ele><time>2026-05-02T13:22:08.999Z</time></trkpt><trkpt lat="45.028258139895975" lon="5.452519378145385"><ele>902.6666666666667</ele><time>2026-05-02T13:22:09.999Z</time></trkpt><trkpt lat="45.028366966884654" lon="5.45233096786065"><ele>902.3333333333334</ele><time>2026-05-02T13:22:10.999Z</time></trkpt><trkpt lat="45.02845296726308" lon="5.452129495198982"><ele>902.0</ele><time>2026-05-02T13:22:11.999Z</time></trkpt><trkpt lat="45.028502851432634" lon="5.451938497948663"><ele>902.0</ele><time>2026-05-02T13:22:12.999Z</time></trkpt><trkpt lat="45.02855826460753" lon="5.451799509635487"><ele>902.0</ele><time>2026-05-02T13:22:13.999Z</time></trkpt><trkpt lat="45.02865077066679" lon="5.451763560769974"><ele>902.0</ele><time>2026-05-02T13:22:14.999Z</time></trkpt><trkpt lat="45.028799174633576" lon="5.451723753548352"><ele>902.0</ele><time>2026-05-02T13:22:15.999Z</time></trkpt><trkpt lat="45.02897273732958" lon="5.451634043660153"><ele>907.0</ele><time>2026-05-02T13:22:16.999Z</time></trkpt><trkpt lat="45.02915741047213" lon="5.451524887559317"><ele>912.0</ele><time>2026-05-02T13:22:17.999Z</time></trkpt><trkpt lat="45.02932708036652" lon="5.451385392030302"><ele>917.0</ele><time>2026-05-02T13:22:18.999Z</time></trkpt><trkpt lat="45.02948462411984" lon="5.451275720204445"><ele>910.6666666666667</ele><time>2026-05-02T13:22:19.999Z</time></trkpt><trkpt lat="45.029654056845324" lon="5.451139415185679"><ele>904.3333333333333</ele><time>2026-05-02T13:22:20.999Z</time></trkpt><trkpt lat="45.029824465018784" lon="5.451012807037403"><ele>898.0</ele><time>2026-05-02T13:22:21.999Z</time></trkpt><trkpt lat="45.03000742523305" lon="5.450923354014034"><ele>898.0</ele><time>2026-05-02T13:22:22.999Z</time></trkpt><trkpt lat="45.03019216635858" lon="5.450845010983507"><ele>898.0</ele><time>2026-05-02T13:22:23.999Z</time></trkpt><trkpt lat="45.03038713900365" lon="5.4507628418135585"><ele>898.0</ele><time>2026-05-02T13:22:24.999Z</time></trkpt><trkpt lat="45.03057651084266" lon="5.450652391920292"><ele>898.0</ele><time>2026-05-02T13:22:25.999Z</time></trkpt><trkpt lat="45.03076741637574" lon="5.450518795628723"><ele>898.0</ele><time>2026-05-02T13:22:26.999Z</time></trkpt><trkpt lat="45.03093154698846" lon="5.4503430585403185"><ele>898.0</ele><time>2026-05-02T13:22:27.999Z</time></trkpt><trkpt lat="45.03110914290102" lon="5.450176923212604"><ele>891.3333333333333</ele><time>2026-05-02T13:22:28.999Z</time></trkpt><trkpt lat="45.031283377277454" lon="5.450014565149573"><ele>884.6666666666667</ele><time>2026-05-02T13:22:29.999Z</time></trkpt><trkpt lat="45.03145051562246" lon="5.449862028808485"><ele>878.0</ele><time>2026-05-02T13:22:30.999Z</time></trkpt><trkpt lat="45.03160589525899" lon="5.449677452763288"><ele>874.0</ele><time>2026-05-02T13:22:31.999Z</time></trkpt><trkpt lat="45.0317470390028" lon="5.449461153484262"><ele>870.0</ele><time>2026-05-02T13:22:32.999Z</time></trkpt><trkpt lat="45.031879768991324" lon="5.449241733953848"><ele>866.0</ele><time>2026-05-02T13:22:33.999Z</time></trkpt><trkpt lat="45.03201609140762" lon="5.449082414112901"><ele>866.0</ele><time>2026-05-02T13:22:34.999Z</time></trkpt><trkpt lat="45.03216698724854" lon="5.448912548735067"><ele>866.0</ele><time>2026-05-02T13:22:35.999Z</time></trkpt><trkpt lat="45.03233504009268" lon="5.448759593501407"><ele>866.0</ele><time>2026-05-02T13:22:36.999Z</time></trkpt><trkpt lat="45.032505158617234" lon="5.448618182359524"><ele>863.6666666666667</ele><time>2026-05-02T13:22:37.999Z</time></trkpt><trkpt lat="45.03268458514879" lon="5.448513187278495"><ele>861.3333333333333</ele><time>2026-05-02T13:22:38.999Z</time></trkpt><trkpt lat="45.03286740908444" lon="5.448448355947849"><ele>859.0</ele><time>2026-05-02T13:22:39.999Z</time></trkpt><trkpt lat="45.03303767665795" lon="5.448432181992799"><ele>859.0</ele><time>2026-05-02T13:22:40.999Z</time></trkpt><trkpt lat="45.033198706482445" lon="5.448465462969635"><ele>859.0</ele><time>2026-05-02T13:22:41.999Z</time></trkpt><trkpt lat="45.03333788324223" lon="5.4484823695746964"><ele>859.0</ele><time>2026-05-02T13:22:42.999Z</time></trkpt><trkpt lat="45.03346391826701" lon="5.448411056910754"><ele>859.0</ele><time>2026-05-02T13:22:43.999Z</time></trkpt><trkpt lat="45.03356971084146" lon="5.448270024515342"><ele>859.75</ele><time>2026-05-02T13:22:44.999Z</time></trkpt><trkpt lat="45.03365498352622" lon="5.448104709082778"><ele>860.5</ele><time>2026-05-02T13:22:45.999Z</time></trkpt><trkpt lat="45.03371026109847" lon="5.447947181061687"><ele>861.25</ele><time>2026-05-02T13:22:46.999Z</time></trkpt><trkpt lat="45.03377290573943" lon="5.447761637359682"><ele>862.0</ele><time>2026-05-02T13:22:47.999Z</time></trkpt><trkpt lat="45.03386288768374" lon="5.447605479989562"><ele>857.0</ele><time>2026-05-02T13:22:48.999Z</time></trkpt><trkpt lat="45.03395161040521" lon="5.447386044355899"><ele>852.0</ele><time>2026-05-02T13:22:49.999Z</time></trkpt><trkpt lat="45.034042898498114" lon="5.447174121228452"><ele>847.0</ele><time>2026-05-02T13:22:50.999Z</time></trkpt><trkpt lat="45.03412991992659" lon="5.446942155907704"><ele>846.6666666666666</ele><time>2026-05-02T13:22:51.999Z</time></trkpt><trkpt lat="45.03422760129066" lon="5.44671008686249"><ele>846.3333333333333</ele><time>2026-05-02T13:22:52.999Z</time></trkpt><trkpt lat="45.0343391152359" lon="5.446482855985969"><ele>846.0</ele><time>2026-05-02T13:22:53.999Z</time></trkpt><trkpt lat="45.03445323199361" lon="5.446274506420181"><ele>842.0</ele><time>2026-05-02T13:22:54.999Z</time></trkpt><trkpt lat="45.03455780464029" lon="5.446080940771856"><ele>838.0</ele><time>2026-05-02T13:22:55.999Z</time></trkpt><trkpt lat="45.03465476001716" lon="5.445893032150668"><ele>834.0</ele><time>2026-05-02T13:22:56.999Z</time></trkpt><trkpt lat="45.03475393260897" lon="5.445694507141629"><ele>834.0</ele><time>2026-05-02T13:22:57.999Z</time></trkpt><trkpt lat="45.03485166395711" lon="5.4454924330142385"><ele>834.0</ele><time>2026-05-02T13:22:58.999Z</time></trkpt><trkpt lat="45.03495142386444" lon="5.445305872350582"><ele>834.0</ele><time>2026-05-02T13:22:59.999Z</time></trkpt><trkpt lat="45.03505104202558" lon="5.445139490604106"><ele>832.75</ele><time>2026-05-02T13:23:00.999Z</time></trkpt><trkpt lat="45.03514752760576" lon="5.445001204415763"><ele>831.5</ele><time>2026-05-02T13:23:01.999Z</time></trkpt><trkpt lat="45.03526210685361" lon="5.4449040977607295"><ele>830.25</ele><time>2026-05-02T13:23:02.999Z</time></trkpt><trkpt lat="45.03538179571884" lon="5.444858195500154"><ele>829.0</ele><time>2026-05-02T13:23:03.998Z</time></trkpt><trkpt lat="45.03550021828733" lon="5.444858366490125"><ele>829.0</ele><time>2026-05-02T13:23:04.998Z</time></trkpt><trkpt lat="45.03559893534517" lon="5.444856258833806"><ele>829.0</ele><time>2026-05-02T13:23:05.998Z</time></trkpt><trkpt lat="45.035676728091175" lon="5.444790797549724"><ele>829.0</ele><time>2026-05-02T13:23:06.998Z</time></trkpt><trkpt lat="45.03572075769205" lon="5.444685817732993"><ele>829.0</ele><time>2026-05-02T13:23:07.998Z</time></trkpt><trkpt lat="45.03574573464434" lon="5.444581437603739"><ele>829.0</ele><time>2026-05-02T13:23:08.998Z</time></trkpt><trkpt lat="45.03574327551991" lon="5.444439640260776"><ele>829.0</ele><time>2026-05-02T13:23:10.998Z</time></trkpt><trkpt lat="45.03558981322085" lon="5.444304172164365"><ele>829.0</ele><time>2026-05-02T13:23:36Z</time></trkpt><trkpt lat="45.03546648573209" lon="5.444274456897923"><ele>829.0</ele><time>2026-05-02T13:23:37Z</time></trkpt><trkpt lat="45.03531950591236" lon="5.444235792620813"><ele>829.0</ele><time>2026-05-02T13:23:38Z</time></trkpt><trkpt lat="45.03515878920152" lon="5.444192767065403"><ele>829.0</ele><time>2026-05-02T13:23:39Z</time></trkpt><trkpt lat="45.03500152333883" lon="5.444150665231039"><ele>829.0</ele><time>2026-05-02T13:23:40Z</time></trkpt><trkpt lat="45.034816177214815" lon="5.444101045994069"><ele>826.0</ele><time>2026-05-02T13:23:41Z</time></trkpt><trkpt lat="45.03461739892004" lon="5.444048491250306"><ele>823.0</ele><time>2026-05-02T13:23:42Z</time></trkpt><trkpt lat="45.034429486559816" lon="5.444001030412208"><ele>820.0</ele><time>2026-05-02T13:23:43Z</time></trkpt><trkpt lat="45.034247829627304" lon="5.443960124967121"><ele>818.6666666666666</ele><time>2026-05-02T13:23:44Z</time></trkpt><trkpt lat="45.03405747019014" lon="5.443935341787658"><ele>817.3333333333333</ele><time>2026-05-02T13:23:45Z</time></trkpt><trkpt lat="45.0338582325596" lon="5.443918761059455"><ele>816.0</ele><time>2026-05-02T13:23:46Z</time></trkpt><trkpt lat="45.0336409957482" lon="5.443901889303369"><ele>816.0</ele><time>2026-05-02T13:23:47Z</time></trkpt><trkpt lat="45.03341221283419" lon="5.443887273897295"><ele>816.0</ele><time>2026-05-02T13:23:48Z</time></trkpt><trkpt lat="45.033172148936515" lon="5.443872863074346"><ele>814.0</ele><time>2026-05-02T13:23:49Z</time></trkpt><trkpt lat="45.03293126702608" lon="5.443854723227947"><ele>812.0</ele><time>2026-05-02T13:23:50Z</time></trkpt><trkpt lat="45.03267022178997" lon="5.443873336391483"><ele>808.5</ele><time>2026-05-02T13:23:51Z</time></trkpt><trkpt lat="45.032423780275465" lon="5.443928133980771"><ele>805.0</ele><time>2026-05-02T13:23:52Z</time></trkpt><trkpt lat="45.03218042334391" lon="5.443969561348947"><ele>805.0</ele><time>2026-05-02T13:23:53Z</time></trkpt><trkpt lat="45.03193866337766" lon="5.443981306427157"><ele>805.0</ele><time>2026-05-02T13:23:54Z</time></trkpt><trkpt lat="45.03169349893075" lon="5.443968980318932"><ele>802.0</ele><time>2026-05-02T13:23:55Z</time></trkpt><trkpt lat="45.031454549876166" lon="5.443948565560882"><ele>799.0</ele><time>2026-05-02T13:23:56Z</time></trkpt><trkpt lat="45.031209863679486" lon="5.443926887332423"><ele>799.0</ele><time>2026-05-02T13:23:57Z</time></trkpt><trkpt lat="45.03099213092099" lon="5.443924038068221"><ele>799.0</ele><time>2026-05-02T13:23:58Z</time></trkpt><trkpt lat="45.03077458410321" lon="5.443992919807092"><ele>799.0</ele><time>2026-05-02T13:23:59Z</time></trkpt><trkpt lat="45.03058764546264" lon="5.444083876061813"><ele>796.3333333333333</ele><time>2026-05-02T13:24:00Z</time></trkpt><trkpt lat="45.03037937516929" lon="5.444085994593038"><ele>793.6666666666667</ele><time>2026-05-02T13:24:01Z</time></trkpt><trkpt lat="45.03016266312065" lon="5.444073517836081"><ele>791.0</ele><time>2026-05-02T13:24:02Z</time></trkpt><trkpt lat="45.02993929083411" lon="5.444058953132884"><ele>786.5</ele><time>2026-05-02T13:24:03Z</time></trkpt><trkpt lat="45.02971023936362" lon="5.444044611995233"><ele>782.0</ele><time>2026-05-02T13:24:04Z</time></trkpt><trkpt lat="45.029483909845084" lon="5.444030382473048"><ele>782.0</ele><time>2026-05-02T13:24:05Z</time></trkpt><trkpt lat="45.02927484686743" lon="5.443979487664291"><ele>782.0</ele><time>2026-05-02T13:24:06Z</time></trkpt><trkpt lat="45.029075675671976" lon="5.443888912860028"><ele>782.0</ele><time>2026-05-02T13:24:07Z</time></trkpt><trkpt lat="45.02889301337246" lon="5.443796746997625"><ele>788.0</ele><time>2026-05-02T13:24:08Z</time></trkpt><trkpt lat="45.02870516017669" lon="5.443684789021852"><ele>794.0</ele><time>2026-05-02T13:24:09Z</time></trkpt><trkpt lat="45.02853633222827" lon="5.443584327254968"><ele>800.0</ele><time>2026-05-02T13:24:09.999Z</time></trkpt><trkpt lat="45.028358895683326" lon="5.4435403186028095"><ele>796.3333333333334</ele><time>2026-05-02T13:24:10.999Z</time></trkpt><trkpt lat="45.02817235732454" lon="5.443583773410713"><ele>792.6666666666667</ele><time>2026-05-02T13:24:11.999Z</time></trkpt><trkpt lat="45.027975340490784" lon="5.443636805233408"><ele>789.0</ele><time>2026-05-02T13:24:12.999Z</time></trkpt><trkpt lat="45.02778496543061" lon="5.443646563496199"><ele>789.0</ele><time>2026-05-02T13:24:13.999Z</time></trkpt><trkpt lat="45.027592408108454" lon="5.443722126785421"><ele>789.0</ele><time>2026-05-02T13:24:14.999Z</time></trkpt><trkpt lat="45.02741758065334" lon="5.443842282658785"><ele>789.0</ele><time>2026-05-02T13:24:15.999Z</time></trkpt><trkpt lat="45.02725946911552" lon="5.4439342108861934"><ele>780.0</ele><time>2026-05-02T13:24:16.999Z</time></trkpt><trkpt lat="45.02710260777796" lon="5.443981734492588"><ele>771.0</ele><time>2026-05-02T13:24:17.999Z</time></trkpt><trkpt lat="45.02693593286577" lon="5.443980015308002"><ele>762.0</ele><time>2026-05-02T13:24:18.999Z</time></trkpt><trkpt lat="45.02674853926247" lon="5.443969216136621"><ele>760.0</ele><time>2026-05-02T13:24:19.999Z</time></trkpt><trkpt lat="45.026557868668085" lon="5.443955846688956"><ele>758.0</ele><time>2026-05-02T13:24:20.999Z</time></trkpt><trkpt lat="45.0263729553089" lon="5.443941844597608"><ele>756.0</ele><time>2026-05-02T13:24:21.999Z</time></trkpt><trkpt lat="45.02621065555826" lon="5.443930825137284"><ele>756.0</ele><time>2026-05-02T13:24:22.999Z</time></trkpt><trkpt lat="45.02606373051578" lon="5.443922695460258"><ele>756.0</ele><time>2026-05-02T13:24:23.999Z</time></trkpt><trkpt lat="45.025916250793635" lon="5.443938223440032"><ele>756.0</ele><time>2026-05-02T13:24:24.999Z</time></trkpt><trkpt lat="45.02577953284767" lon="5.443937324712918"><ele>756.0</ele><time>2026-05-02T13:24:25.999Z</time></trkpt><trkpt lat="45.025643497135185" lon="5.443940926525391"><ele>756.0</ele><time>2026-05-02T13:24:26.999Z</time></trkpt><trkpt lat="45.02551836105302" lon="5.443916395902528"><ele>756.0</ele><time>2026-05-02T13:24:27.999Z</time></trkpt><trkpt lat="45.02540410124752" lon="5.443912789847515"><ele>756.0</ele><time>2026-05-02T13:24:28.999Z</time></trkpt><trkpt lat="45.02528511837072" lon="5.443910729066413"><ele>756.0</ele><time>2026-05-02T13:24:29.999Z</time></trkpt><trkpt lat="45.02516828669903" lon="5.443908066510998"><ele>756.0</ele><time>2026-05-02T13:24:30.999Z</time></trkpt><trkpt lat="45.02504822745372" lon="5.443900936589109"><ele>756.0</ele><time>2026-05-02T13:24:31.999Z</time></trkpt><trkpt lat="45.024917081491374" lon="5.443872365022071"><ele>756.0</ele><time>2026-05-02T13:24:32.999Z</time></trkpt><trkpt lat="45.02479903285031" lon="5.443825597432848"><ele>756.0</ele><time>2026-05-02T13:24:33.999Z</time></trkpt><trkpt lat="45.02467867238246" lon="5.443776193883006"><ele>757.5</ele><time>2026-05-02T13:24:34.999Z</time></trkpt><trkpt lat="45.02455224727783" lon="5.443738369700387"><ele>759.0</ele><time>2026-05-02T13:24:35.999Z</time></trkpt><trkpt lat="45.02442754436223" lon="5.443703285921494"><ele>760.5</ele><time>2026-05-02T13:24:36.999Z</time></trkpt><trkpt lat="45.02430493835443" lon="5.443686785580878"><ele>762.0</ele><time>2026-05-02T13:24:37.999Z</time></trkpt><trkpt lat="45.02417697480747" lon="5.443646100247409"><ele>760.25</ele><time>2026-05-02T13:24:38.999Z</time></trkpt><trkpt lat="45.02404387889379" lon="5.443588999779844"><ele>758.5</ele><time>2026-05-02T13:24:39.999Z</time></trkpt><trkpt lat="45.023942144436774" lon="5.443557740858074"><ele>756.75</ele><time>2026-05-02T13:24:40.999Z</time></trkpt><trkpt lat="45.02383556112254" lon="5.443524598648949"><ele>755.0</ele><time>2026-05-02T13:24:41.999Z</time></trkpt><trkpt lat="45.023728108410715" lon="5.443488041291516"><ele>755.0</ele><time>2026-05-02T13:24:42.999Z</time></trkpt><trkpt lat="45.02361188821618" lon="5.443442970862766"><ele>755.0</ele><time>2026-05-02T13:24:43.999Z</time></trkpt><trkpt lat="45.02349009801261" lon="5.443395764594921"><ele>755.0</ele><time>2026-05-02T13:24:44.999Z</time></trkpt><trkpt lat="45.02336675772835" lon="5.443377696544352"><ele>755.0</ele><time>2026-05-02T13:24:45.999Z</time></trkpt><trkpt lat="45.02324886670115" lon="5.4433281009500485"><ele>754.0</ele><time>2026-05-02T13:24:46.999Z</time></trkpt><trkpt lat="45.02312792991892" lon="5.443296969764509"><ele>753.0</ele><time>2026-05-02T13:24:47.999Z</time></trkpt><trkpt lat="45.02301134727083" lon="5.443240862806063"><ele>752.0</ele><time>2026-05-02T13:24:48.999Z</time></trkpt><trkpt lat="45.02289086760397" lon="5.443207084108688"><ele>751.0</ele><time>2026-05-02T13:24:49.999Z</time></trkpt><trkpt lat="45.022779424060204" lon="5.4432166938196325"><ele>751.0</ele><time>2026-05-02T13:24:50.999Z</time></trkpt><trkpt lat="45.022688028684875" lon="5.443188025338084"><ele>751.0</ele><time>2026-05-02T13:24:51.999Z</time></trkpt><trkpt lat="45.02261183210398" lon="5.443138152301642"><ele>751.0</ele><time>2026-05-02T13:24:52.999Z</time></trkpt><trkpt lat="45.02252789175489" lon="5.44311857601995"><ele>751.0</ele><time>2026-05-02T13:24:53.999Z</time></trkpt><trkpt lat="45.02244203656884" lon="5.443098692296631"><ele>751.0</ele><time>2026-05-02T13:24:54.999Z</time></trkpt><trkpt lat="45.022358322564294" lon="5.4430642147410575"><ele>751.0</ele><time>2026-05-02T13:24:55.999Z</time></trkpt><trkpt lat="45.02227643564174" lon="5.443030203565138"><ele>751.6666666666667</ele><time>2026-05-02T13:24:56.999Z</time></trkpt><trkpt lat="45.02218793501188" lon="5.443001444068266"><ele>752.3333333333334</ele><time>2026-05-02T13:24:57.999Z</time></trkpt><trkpt lat="45.02210109186201" lon="5.442974146230069"><ele>753.0</ele><time>2026-05-02T13:24:58.999Z</time></trkpt><trkpt lat="45.02201373337397" lon="5.442953554590856"><ele>753.6666666666666</ele><time>2026-05-02T13:24:59.999Z</time></trkpt><trkpt lat="45.021931919104716" lon="5.442932579877278"><ele>754.3333333333333</ele><time>2026-05-02T13:25:00.999Z</time></trkpt><trkpt lat="45.02185483996985" lon="5.4429027263030205"><ele>755.0</ele><time>2026-05-02T13:25:01.999Z</time></trkpt><trkpt lat="45.02175621112104" lon="5.4428679002510645"><ele>755.2</ele><time>2026-05-02T13:25:03.999Z</time></trkpt><trkpt lat="45.02166208032056" lon="5.442803143641168"><ele>755.4</ele><time>2026-05-02T13:25:05.999Z</time></trkpt><trkpt lat="45.021545220681666" lon="5.442770113263888"><ele>755.5999999999999</ele><time>2026-05-02T13:25:07.999Z</time></trkpt><trkpt lat="45.02148087324607" lon="5.442718695122842"><ele>755.8</ele><time>2026-05-02T13:25:08.999Z</time></trkpt><trkpt lat="45.02140635284973" lon="5.442652019635224"><ele>756.0</ele><time>2026-05-02T13:25:09.999Z</time></trkpt><trkpt lat="45.0213204886402" lon="5.442601446180284"><ele>756.0</ele><time>2026-05-02T13:25:10.998Z</time></trkpt><trkpt lat="45.02123424516681" lon="5.442559993561537"><ele>756.0</ele><time>2026-05-02T13:25:11.998Z</time></trkpt><trkpt lat="45.02114665628693" lon="5.4425180559594155"><ele>756.0</ele><time>2026-05-02T13:25:12.998Z</time></trkpt><trkpt lat="45.0210602593284" lon="5.442487531206683"><ele>756.0</ele><time>2026-05-02T13:25:13.998Z</time></trkpt><trkpt lat="45.02096891075101" lon="5.442444130355777"><ele>756.0</ele><time>2026-05-02T13:25:14.998Z</time></trkpt><trkpt lat="45.02087238727519" lon="5.442388666868732"><ele>754.8</ele><time>2026-05-02T13:25:15.998Z</time></trkpt><trkpt lat="45.02076406151698" lon="5.442370379107372"><ele>753.5999999999999</ele><time>2026-05-02T13:25:16.998Z</time></trkpt><trkpt lat="45.020656087325456" lon="5.44236291310456"><ele>752.4</ele><time>2026-05-02T13:25:17.998Z</time></trkpt><trkpt lat="45.02054635828361" lon="5.442397828206412"><ele>751.2</ele><time>2026-05-02T13:25:18.998Z</time></trkpt><trkpt lat="45.02042929309618" lon="5.442404450552495"><ele>750.0</ele><time>2026-05-02T13:25:19.998Z</time></trkpt><trkpt lat="45.020312484217094" lon="5.44242874153336"><ele>750.0</ele><time>2026-05-02T13:25:20.998Z</time></trkpt><trkpt lat="45.02019464231014" lon="5.442464878561122"><ele>750.0</ele><time>2026-05-02T13:25:21.998Z</time></trkpt><trkpt lat="45.02007711976669" lon="5.44247848834527"><ele>750.0</ele><time>2026-05-02T13:25:22.998Z</time></trkpt><trkpt lat="45.019974571926625" lon="5.442528306807567"><ele>750.0</ele><time>2026-05-02T13:25:23.998Z</time></trkpt><trkpt lat="45.01988070514722" lon="5.442587830281233"><ele>750.0</ele><time>2026-05-02T13:25:24.998Z</time></trkpt><trkpt lat="45.0197993023345" lon="5.442648850372338"><ele>750.0</ele><time>2026-05-02T13:25:25.998Z</time></trkpt><trkpt lat="45.019719680385016" lon="5.442704702173559"><ele>750.0</ele><time>2026-05-02T13:25:26.998Z</time></trkpt><trkpt lat="45.01963016309186" lon="5.442727269303608"><ele>750.0</ele><time>2026-05-02T13:25:27.998Z</time></trkpt><trkpt lat="45.01954285136578" lon="5.442771600358253"><ele>750.0</ele><time>2026-05-02T13:25:28.998Z</time></trkpt><trkpt lat="45.01945801605396" lon="5.442804097488573"><ele>750.0</ele><time>2026-05-02T13:25:30Z</time></trkpt><trkpt lat="45.01937985990809" lon="5.442822020249808"><ele>750.0</ele><time>2026-05-02T13:25:31Z</time></trkpt><trkpt lat="45.019278319511166" lon="5.442821775841766"><ele>750.0</ele><time>2026-05-02T13:25:32Z</time></trkpt><trkpt lat="45.01916990704027" lon="5.442822993854454"><ele>750.0</ele><time>2026-05-02T13:25:33Z</time></trkpt><trkpt lat="45.01905507149958" lon="5.4428161233812595"><ele>750.0</ele><time>2026-05-02T13:25:34Z</time></trkpt><trkpt lat="45.01893311655976" lon="5.442805471894663"><ele>748.5</ele><time>2026-05-02T13:25:35Z</time></trkpt><trkpt lat="45.018804528612826" lon="5.442798112769674"><ele>747.0</ele><time>2026-05-02T13:25:36Z</time></trkpt><trkpt lat="45.01867015303452" lon="5.442801158877374"><ele>745.5</ele><time>2026-05-02T13:25:37Z</time></trkpt><trkpt lat="45.01851875805384" lon="5.442803006549497"><ele>744.0</ele><time>2026-05-02T13:25:38Z</time></trkpt><trkpt lat="45.018353092046866" lon="5.442775596950477"><ele>742.6666666666666</ele><time>2026-05-02T13:25:39Z</time></trkpt><trkpt lat="45.01816691450551" lon="5.442769155033729"><ele>741.3333333333333</ele><time>2026-05-02T13:25:40Z</time></trkpt><trkpt lat="45.01796426256065" lon="5.442762827205539"><ele>740.0</ele><time>2026-05-02T13:25:41Z</time></trkpt><trkpt lat="45.01774918226405" lon="5.4427573613766675"><ele>740.0</ele><time>2026-05-02T13:25:42Z</time></trkpt><trkpt lat="45.017661255059345" lon="5.4427552929588785"><ele>740.0</ele><time>2026-05-02T13:25:43Z</time></trkpt><trkpt lat="45.01745566181969" lon="5.442750479935722"><ele>740.0</ele><time>2026-05-02T13:25:44Z</time></trkpt><trkpt lat="45.017267591997125" lon="5.442743301866678"><ele>738.6666666666666</ele><time>2026-05-02T13:25:45Z</time></trkpt><trkpt lat="45.01708478073019" lon="5.442726253393979"><ele>737.3333333333334</ele><time>2026-05-02T13:25:46Z</time></trkpt><trkpt lat="45.01690193878616" lon="5.442690406038141"><ele>736.0</ele><time>2026-05-02T13:25:47Z</time></trkpt><trkpt lat="45.01672160247827" lon="5.442628804760482"><ele>734.6666666666667</ele><time>2026-05-02T13:25:48Z</time></trkpt><trkpt lat="45.016536312689475" lon="5.442559502387763"><ele>733.3333333333334</ele><time>2026-05-02T13:25:49Z</time></trkpt><trkpt lat="45.01635033270966" lon="5.44248790781128"><ele>732.0</ele><time>2026-05-02T13:25:50Z</time></trkpt><trkpt lat="45.016163957208796" lon="5.442418812689532"><ele>732.0</ele><time>2026-05-02T13:25:51Z</time></trkpt><trkpt lat="45.0159663658113" lon="5.442360210791437"><ele>732.0</ele><time>2026-05-02T13:25:52Z</time></trkpt><trkpt lat="45.01576909829948" lon="5.442343330316312"><ele>732.0</ele><time>2026-05-02T13:25:53Z</time></trkpt><trkpt lat="45.01556786025116" lon="5.442318854980148"><ele>731.3333333333334</ele><time>2026-05-02T13:25:54Z</time></trkpt><trkpt lat="45.01536715574822" lon="5.442318171075411"><ele>730.6666666666667</ele><time>2026-05-02T13:25:55Z</time></trkpt><trkpt lat="45.01516340528312" lon="5.442342117901156"><ele>730.0</ele><time>2026-05-02T13:25:56Z</time></trkpt><trkpt lat="45.01496062640417" lon="5.442370353506056"><ele>728.0</ele><time>2026-05-02T13:25:57Z</time></trkpt><trkpt lat="45.01476014655992" lon="5.442401693726667"><ele>726.0</ele><time>2026-05-02T13:25:58Z</time></trkpt><trkpt lat="45.01455827889382" lon="5.442427648080938"><ele>724.0</ele><time>2026-05-02T13:25:59Z</time></trkpt><trkpt lat="45.01435792065921" lon="5.442458072651348"><ele>724.0</ele><time>2026-05-02T13:26:00Z</time></trkpt><trkpt lat="45.01415556544312" lon="5.442480950643505"><ele>724.0</ele><time>2026-05-02T13:26:01Z</time></trkpt><trkpt lat="45.01394960659101" lon="5.442505073959652"><ele>724.0</ele><time>2026-05-02T13:26:02Z</time></trkpt><trkpt lat="45.013742747813765" lon="5.442532956295863"><ele>724.6666666666667</ele><time>2026-05-02T13:26:03Z</time></trkpt><trkpt lat="45.01353572781412" lon="5.442574744693367"><ele>725.3333333333334</ele><time>2026-05-02T13:26:04Z</time></trkpt><trkpt lat="45.013325377698486" lon="5.442632151259357"><ele>726.0</ele><time>2026-05-02T13:26:05Z</time></trkpt><trkpt lat="45.013125397278216" lon="5.44270081344789"><ele>726.0</ele><time>2026-05-02T13:26:06Z</time></trkpt><trkpt lat="45.01292707206979" lon="5.442743343698687"><ele>726.0</ele><time>2026-05-02T13:26:07Z</time></trkpt><trkpt lat="45.01272957247965" lon="5.442801190691966"><ele>726.0</ele><time>2026-05-02T13:26:08Z</time></trkpt><trkpt lat="45.01251545299783" lon="5.4428302998803195"><ele>727.0</ele><time>2026-05-02T13:26:09Z</time></trkpt><trkpt lat="45.01231130523116" lon="5.442820044303305"><ele>728.0</ele><time>2026-05-02T13:26:10Z</time></trkpt><trkpt lat="45.012095775368266" lon="5.442796553191762"><ele>729.0</ele><time>2026-05-02T13:26:11Z</time></trkpt><trkpt lat="45.01190008443446" lon="5.442699967299444"><ele>729.0</ele><time>2026-05-02T13:26:12Z</time></trkpt><trkpt lat="45.011684649327925" lon="5.442638944602362"><ele>729.0</ele><time>2026-05-02T13:26:13Z</time></trkpt><trkpt lat="45.0114237107104" lon="5.442725119035943"><ele>726.5</ele><time>2026-05-02T13:26:13.999Z</time></trkpt><trkpt lat="45.01119543841433" lon="5.442720596703627"><ele>724.0</ele><time>2026-05-02T13:26:14.999Z</time></trkpt><trkpt lat="45.010963879252294" lon="5.4427071691977895"><ele>722.5</ele><time>2026-05-02T13:26:15.999Z</time></trkpt><trkpt lat="45.010730636077795" lon="5.442710896117143"><ele>721.0</ele><time>2026-05-02T13:26:16.999Z</time></trkpt><trkpt lat="45.010497588856985" lon="5.442714619904518"><ele>721.0</ele><time>2026-05-02T13:26:17.999Z</time></trkpt><trkpt lat="45.010261163396876" lon="5.442716388801609"><ele>721.0</ele><time>2026-05-02T13:26:18.999Z</time></trkpt><trkpt lat="45.01003301160683" lon="5.442715029553674"><ele>719.6666666666667</ele><time>2026-05-02T13:26:19.999Z</time></trkpt><trkpt lat="45.00982014078898" lon="5.442708042352168"><ele>718.3333333333334</ele><time>2026-05-02T13:26:20.999Z</time></trkpt><trkpt lat="45.00962761367075" lon="5.442667698571537"><ele>717.0</ele><time>2026-05-02T13:26:21.999Z</time></trkpt><trkpt lat="45.009461865423496" lon="5.442559998613825"><ele>717.0</ele><time>2026-05-02T13:26:22.999Z</time></trkpt><trkpt lat="45.00931227215044" lon="5.442431584971171"><ele>717.0</ele><time>2026-05-02T13:26:23.999Z</time></trkpt><trkpt lat="45.00917166118767" lon="5.442296828545"><ele>717.0</ele><time>2026-05-02T13:26:24.999Z</time></trkpt><trkpt lat="45.00904153137102" lon="5.442165523911129"><ele>716.75</ele><time>2026-05-02T13:26:25.999Z</time></trkpt><trkpt lat="45.00890556080041" lon="5.442085069520175"><ele>716.5</ele><time>2026-05-02T13:26:26.999Z</time></trkpt><trkpt lat="45.00877091001285" lon="5.442032150297851"><ele>716.25</ele><time>2026-05-02T13:26:27.999Z</time></trkpt><trkpt lat="45.00861848444923" lon="5.442086691504941"><ele>716.0</ele><time>2026-05-02T13:26:28.999Z</time></trkpt><trkpt lat="45.0084619469126" lon="5.442172094939367"><ele>715.6666666666666</ele><time>2026-05-02T13:26:29.999Z</time></trkpt><trkpt lat="45.008298352416304" lon="5.442290098935414"><ele>715.3333333333334</ele><time>2026-05-02T13:26:30.999Z</time></trkpt><trkpt lat="45.008159689162355" lon="5.442434894931204"><ele>715.0</ele><time>2026-05-02T13:26:31.999Z</time></trkpt><trkpt lat="45.008030660713224" lon="5.442561439903495"><ele>715.0</ele><time>2026-05-02T13:26:32.999Z</time></trkpt><trkpt lat="45.007898743846596" lon="5.442609117367722"><ele>715.0</ele><time>2026-05-02T13:26:33.999Z</time></trkpt><trkpt lat="45.00776347367331" lon="5.442603969884199"><ele>715.0</ele><time>2026-05-02T13:26:34.999Z</time></trkpt><trkpt lat="45.007637059474554" lon="5.442511660429743"><ele>715.0</ele><time>2026-05-02T13:26:35.999Z</time></trkpt><trkpt lat="45.00753261895781" lon="5.44234963415266"><ele>718.0</ele><time>2026-05-02T13:26:36.999Z</time></trkpt><trkpt lat="45.00746971583571" lon="5.4421440286084755"><ele>721.0</ele><time>2026-05-02T13:26:37.999Z</time></trkpt><trkpt lat="45.00745057169864" lon="5.441890296797455"><ele>724.0</ele><time>2026-05-02T13:26:38.999Z</time></trkpt><trkpt lat="45.00742126266229" lon="5.441598876249434"><ele>724.0</ele><time>2026-05-02T13:26:39.999Z</time></trkpt><trkpt lat="45.007424132900866" lon="5.441311752362113"><ele>724.0</ele><time>2026-05-02T13:26:40.999Z</time></trkpt><trkpt lat="45.007390792897176" lon="5.441076231313527"><ele>724.0</ele><time>2026-05-02T13:26:41.999Z</time></trkpt><trkpt lat="45.00731435280642" lon="5.44092712698357"><ele>723.6</ele><time>2026-05-02T13:26:42.999Z</time></trkpt><trkpt lat="45.007234080381565" lon="5.4408406117774355"><ele>723.2</ele><time>2026-05-02T13:26:43.999Z</time></trkpt><trkpt lat="45.00713866209326" lon="5.440811020198616"><ele>722.8000000000001</ele><time>2026-05-02T13:26:44.999Z</time></trkpt><trkpt lat="45.00703687527237" lon="5.440810227558622"><ele>722.4000000000001</ele><time>2026-05-02T13:26:45.999Z</time></trkpt><trkpt lat="45.00691426516875" lon="5.440826998486828"><ele>722.0</ele><time>2026-05-02T13:26:46.999Z</time></trkpt><trkpt lat="45.00676104626968" lon="5.440869488166661"><ele>722.0</ele><time>2026-05-02T13:26:47.999Z</time></trkpt><trkpt lat="45.00657516695203" lon="5.440935717460896"><ele>722.0</ele><time>2026-05-02T13:26:48.999Z</time></trkpt><trkpt lat="45.00636398664223" lon="5.440987272593719"><ele>722.0</ele><time>2026-05-02T13:26:49.999Z</time></trkpt><trkpt lat="45.006157556106864" lon="5.441033002473568"><ele>722.0</ele><time>2026-05-02T13:26:50.999Z</time></trkpt><trkpt lat="45.00596731023857" lon="5.441077285601195"><ele>722.0</ele><time>2026-05-02T13:26:51.999Z</time></trkpt><trkpt lat="45.00576537842712" lon="5.441118373852839"><ele>722.0</ele><time>2026-05-02T13:26:52.999Z</time></trkpt><trkpt lat="45.005558878424836" lon="5.441145174895439"><ele>721.3333333333333</ele><time>2026-05-02T13:26:53.999Z</time></trkpt><trkpt lat="45.00534852877475" lon="5.441134347362198"><ele>720.6666666666666</ele><time>2026-05-02T13:26:54.999Z</time></trkpt><trkpt lat="45.00514479554792" lon="5.441118948848984"><ele>720.0</ele><time>2026-05-02T13:26:55.999Z</time></trkpt><trkpt lat="45.00496351603332" lon="5.441110535178028"><ele>717.3333333333334</ele><time>2026-05-02T13:26:56.999Z</time></trkpt><trkpt lat="45.00479059247633" lon="5.441166633587633"><ele>714.6666666666667</ele><time>2026-05-02T13:26:57.999Z</time></trkpt><trkpt lat="45.004632400724844" lon="5.441321517178351"><ele>712.0</ele><time>2026-05-02T13:26:58.999Z</time></trkpt><trkpt lat="45.00445801148438" lon="5.441418540306429"><ele>710.6666666666667</ele><time>2026-05-02T13:26:59.999Z</time></trkpt><trkpt lat="45.00430557126751" lon="5.441421835567169"><ele>709.3333333333334</ele><time>2026-05-02T13:27:00.999Z</time></trkpt><trkpt lat="45.00413668353511" lon="5.4413847935401325"><ele>708.0</ele><time>2026-05-02T13:27:01.999Z</time></trkpt><trkpt lat="45.003954191532195" lon="5.441343662585365"><ele>708.0</ele><time>2026-05-02T13:27:02.999Z</time></trkpt><trkpt lat="45.00380397071581" lon="5.44129960321478"><ele>708.0</ele><time>2026-05-02T13:27:03.999Z</time></trkpt><trkpt lat="45.0036537506619" lon="5.441252076136458"><ele>708.0</ele><time>2026-05-02T13:27:04.999Z</time></trkpt><trkpt lat="45.00355292971505" lon="5.441095550450282"><ele>707.0</ele><time>2026-05-02T13:27:05.999Z</time></trkpt><trkpt lat="45.003415425748315" lon="5.4408988486823056"><ele>706.0</ele><time>2026-05-02T13:27:06.999Z</time></trkpt><trkpt lat="45.00327555707827" lon="5.440697726861853"><ele>705.0</ele><time>2026-05-02T13:27:07.999Z</time></trkpt><trkpt lat="45.00315667399108" lon="5.440531021573087"><ele>710.5</ele><time>2026-05-02T13:27:08.999Z</time></trkpt><trkpt lat="45.00307260170949" lon="5.44036360622386"><ele>716.0</ele><time>2026-05-02T13:27:09.999Z</time></trkpt><trkpt lat="45.00304217776884" lon="5.440178966347853"><ele>721.5</ele><time>2026-05-02T13:27:10.999Z</time></trkpt><trkpt lat="45.00306550319204" lon="5.439973279120033"><ele>727.0</ele><time>2026-05-02T13:27:11.999Z</time></trkpt><trkpt lat="45.00309524082203" lon="5.439696232519451"><ele>729.0</ele><time>2026-05-02T13:27:12.999Z</time></trkpt><trkpt lat="45.003122109489" lon="5.439391755027912"><ele>731.0</ele><time>2026-05-02T13:27:13.999Z</time></trkpt><trkpt lat="45.00316246910467" lon="5.43910791826147"><ele>733.0</ele><time>2026-05-02T13:27:14.998Z</time></trkpt><trkpt lat="45.00319120810029" lon="5.438823262684147"><ele>728.6666666666667</ele><time>2026-05-02T13:27:15.998Z</time></trkpt><trkpt lat="45.00321704887965" lon="5.438528912698914"><ele>724.3333333333334</ele><time>2026-05-02T13:27:16.998Z</time></trkpt><trkpt lat="45.00324915439313" lon="5.438231992682786"><ele>720.0</ele><time>2026-05-02T13:27:17.998Z</time></trkpt><trkpt lat="45.003279804063716" lon="5.437938624380446"><ele>712.3333333333334</ele><time>2026-05-02T13:27:18.998Z</time></trkpt><trkpt lat="45.00330743086928" lon="5.4376830154415"><ele>704.6666666666667</ele><time>2026-05-02T13:27:19.998Z</time></trkpt><trkpt lat="45.003324172979546" lon="5.437442272083996"><ele>697.0</ele><time>2026-05-02T13:27:20.998Z</time></trkpt><trkpt lat="45.00331124328912" lon="5.437220306151298"><ele>696.3333333333334</ele><time>2026-05-02T13:27:21.998Z</time></trkpt><trkpt lat="45.003244031124574" lon="5.437020495572428"><ele>695.6666666666666</ele><time>2026-05-02T13:27:22.998Z</time></trkpt><trkpt lat="45.00311169766861" lon="5.43686275759168"><ele>695.0</ele><time>2026-05-02T13:27:23.998Z</time></trkpt><trkpt lat="45.00292948197679" lon="5.436743378355787"><ele>695.0</ele><time>2026-05-02T13:27:24.998Z</time></trkpt><trkpt lat="45.002727140181854" lon="5.436659200582415"><ele>695.0</ele><time>2026-05-02T13:27:25.998Z</time></trkpt><trkpt lat="45.00252852397644" lon="5.436578635106733"><ele>695.0</ele><time>2026-05-02T13:27:26.998Z</time></trkpt><trkpt lat="45.00234591894516" lon="5.436509387802262"><ele>695.6666666666666</ele><time>2026-05-02T13:27:27.998Z</time></trkpt><trkpt lat="45.00215081484968" lon="5.436415226059689"><ele>696.3333333333334</ele><time>2026-05-02T13:27:28.998Z</time></trkpt><trkpt lat="45.001962551138924" lon="5.436314678072574"><ele>697.0</ele><time>2026-05-02T13:27:29.998Z</time></trkpt><trkpt lat="45.00179730649979" lon="5.436198548846138"><ele>695.6666666666667</ele><time>2026-05-02T13:27:30.998Z</time></trkpt><trkpt lat="45.00164686238719" lon="5.436086855321055"><ele>694.3333333333334</ele><time>2026-05-02T13:27:31.998Z</time></trkpt><trkpt lat="45.00157443393848" lon="5.435877628172772"><ele>693.0</ele><time>2026-05-02T13:27:32.998Z</time></trkpt><trkpt lat="45.00152675112105" lon="5.435659077640098"><ele>691.3333333333334</ele><time>2026-05-02T13:27:33.998Z</time></trkpt><trkpt lat="45.00156332666248" lon="5.435390539108848"><ele>689.6666666666667</ele><time>2026-05-02T13:27:34.998Z</time></trkpt><trkpt lat="45.00159135952973" lon="5.435089540438748"><ele>688.0</ele><time>2026-05-02T13:27:36Z</time></trkpt><trkpt lat="45.00161381580978" lon="5.4347867471379"><ele>688.3333333333334</ele><time>2026-05-02T13:27:37Z</time></trkpt><trkpt lat="45.001639001387666" lon="5.434487791403684"><ele>688.6666666666666</ele><time>2026-05-02T13:27:38Z</time></trkpt><trkpt lat="45.001646310970074" lon="5.43419677625559"><ele>689.0</ele><time>2026-05-02T13:27:39Z</time></trkpt><trkpt lat="45.00160217360554" lon="5.4338989535546816"><ele>688.0</ele><time>2026-05-02T13:27:40Z</time></trkpt><trkpt lat="45.00152065164132" lon="5.433587951226507"><ele>687.0</ele><time>2026-05-02T13:27:41Z</time></trkpt><trkpt lat="45.00147512059535" lon="5.4332582715706215"><ele>687.0</ele><time>2026-05-02T13:27:42Z</time></trkpt><trkpt lat="45.00144511362592" lon="5.4329261820393535"><ele>687.0</ele><time>2026-05-02T13:27:43Z</time></trkpt><trkpt lat="45.0014010567983" lon="5.4325583414196625"><ele>687.0</ele><time>2026-05-02T13:27:44Z</time></trkpt><trkpt lat="45.00129324281726" lon="5.43219916889132"><ele>687.0</ele><time>2026-05-02T13:27:45Z</time></trkpt><trkpt lat="45.00122221539196" lon="5.431848662278736"><ele>690.5</ele><time>2026-05-02T13:27:46Z</time></trkpt><trkpt lat="45.001139006762905" lon="5.431518099026343"><ele>694.0</ele><time>2026-05-02T13:27:47Z</time></trkpt><trkpt lat="45.00103689144354" lon="5.431226102140219"><ele>688.5</ele><time>2026-05-02T13:27:48Z</time></trkpt><trkpt lat="45.00090779541311" lon="5.430944824504846"><ele>683.0</ele><time>2026-05-02T13:27:49Z</time></trkpt><trkpt lat="45.000820542244206" lon="5.43066197606357"><ele>686.0</ele><time>2026-05-02T13:27:50Z</time></trkpt><trkpt lat="45.00075295364507" lon="5.430329482279748"><ele>689.0</ele><time>2026-05-02T13:27:51Z</time></trkpt><trkpt lat="45.00068833098152" lon="5.4299680632760685"><ele>691.5</ele><time>2026-05-02T13:27:52Z</time></trkpt><trkpt lat="45.000624727154744" lon="5.4296377729624075"><ele>694.0</ele><time>2026-05-02T13:27:53Z</time></trkpt><trkpt lat="45.000530958942484" lon="5.429361875441692"><ele>694.0</ele><time>2026-05-02T13:27:54Z</time></trkpt><trkpt lat="45.00045237513027" lon="5.429091892568915"><ele>694.0</ele><time>2026-05-02T13:27:55Z</time></trkpt><trkpt lat="45.000427855697374" lon="5.428816370235872"><ele>694.0</ele><time>2026-05-02T13:27:56Z</time></trkpt><trkpt lat="45.000396712304685" lon="5.428538603370391"><ele>698.0</ele><time>2026-05-02T13:27:57Z</time></trkpt><trkpt lat="45.000372384286" lon="5.428274087695517"><ele>702.0</ele><time>2026-05-02T13:27:58Z</time></trkpt><trkpt lat="45.000326760307146" lon="5.4280492453894045"><ele>706.0</ele><time>2026-05-02T13:27:59Z</time></trkpt><trkpt lat="45.00026477397798" lon="5.427852462784459"><ele>707.0</ele><time>2026-05-02T13:28:00Z</time></trkpt><trkpt lat="45.00016189861996" lon="5.427702703159956"><ele>708.0</ele><time>2026-05-02T13:28:01Z</time></trkpt><trkpt lat="45.00002452619955" lon="5.427625958178187"><ele>709.0</ele><time>2026-05-02T13:28:02Z</time></trkpt><trkpt lat="44.99988578244513" lon="5.427571360662345"><ele>710.0</ele><time>2026-05-02T13:28:03Z</time></trkpt><trkpt lat="44.99977035745547" lon="5.427477095944813"><ele>710.0</ele><time>2026-05-02T13:28:04Z</time></trkpt><trkpt lat="44.99972743960228" lon="5.427319907944948"><ele>710.0</ele><time>2026-05-02T13:28:05Z</time></trkpt><trkpt lat="44.99976368623064" lon="5.427155201745693"><ele>710.0</ele><time>2026-05-02T13:28:06Z</time></trkpt><trkpt lat="44.99988283691594" lon="5.427047545741256"><ele>710.0</ele><time>2026-05-02T13:28:07Z</time></trkpt><trkpt lat="45.00001406727799" lon="5.427028505551948"><ele>704.3333333333333</ele><time>2026-05-02T13:28:08Z</time></trkpt><trkpt lat="45.00018011227592" lon="5.427037147978629"><ele>698.6666666666666</ele><time>2026-05-02T13:28:09Z</time></trkpt><trkpt lat="45.0003651634789" lon="5.427016347523629"><ele>693.0</ele><time>2026-05-02T13:28:10Z</time></trkpt><trkpt lat="45.00055974761859" lon="5.426974751237645"><ele>693.0</ele><time>2026-05-02T13:28:11Z</time></trkpt><trkpt lat="45.00074227948121" lon="5.426840358487753"><ele>693.0</ele><time>2026-05-02T13:28:12Z</time></trkpt><trkpt lat="45.000882590196404" lon="5.426611300919256"><ele>693.0</ele><time>2026-05-02T13:28:13Z</time></trkpt><trkpt lat="45.00105911645266" lon="5.426373489468171"><ele>690.6666666666666</ele><time>2026-05-02T13:28:14Z</time></trkpt><trkpt lat="45.001208780854" lon="5.426124272509401"><ele>688.3333333333333</ele><time>2026-05-02T13:28:15Z</time></trkpt><trkpt lat="45.00134111210231" lon="5.425914514996902"><ele>686.0</ele><time>2026-05-02T13:28:16Z</time></trkpt><trkpt lat="45.00143956049746" lon="5.425684467762388"><ele>683.0</ele><time>2026-05-02T13:28:17Z</time></trkpt><trkpt lat="45.001529504225914" lon="5.42546800221883"><ele>680.0</ele><time>2026-05-02T13:28:18Z</time></trkpt><trkpt lat="45.00160535302331" lon="5.425254856097995"><ele>677.0</ele><time>2026-05-02T13:28:19Z</time></trkpt><trkpt lat="45.00167425694368" lon="5.425046360471268"><ele>680.25</ele><time>2026-05-02T13:28:19.999Z</time></trkpt><trkpt lat="45.001705619646806" lon="5.424869544558111"><ele>683.5</ele><time>2026-05-02T13:28:20.999Z</time></trkpt><trkpt lat="45.001695721105875" lon="5.424699875642272"><ele>686.75</ele><time>2026-05-02T13:28:21.999Z</time></trkpt><trkpt lat="45.00167428982342" lon="5.424528730420603"><ele>690.0</ele><time>2026-05-02T13:28:22.999Z</time></trkpt><trkpt lat="45.00169574819736" lon="5.42437250064431"><ele>690.0</ele><time>2026-05-02T13:28:23.999Z</time></trkpt><trkpt lat="45.00175621567352" lon="5.424254948726552"><ele>690.0</ele><time>2026-05-02T13:28:24.999Z</time></trkpt><trkpt lat="45.00178650410619" lon="5.42414068097495"><ele>690.0</ele><time>2026-05-02T13:28:25.999Z</time></trkpt><trkpt lat="45.001782919203954" lon="5.423993579934843"><ele>690.0</ele><time>2026-05-02T13:28:26.999Z</time></trkpt><trkpt lat="45.00179732870535" lon="5.423830322951588"><ele>690.0</ele><time>2026-05-02T13:28:27.999Z</time></trkpt><trkpt lat="45.00183659452442" lon="5.423672639865783"><ele>687.75</ele><time>2026-05-02T13:28:28.999Z</time></trkpt><trkpt lat="45.00186711763195" lon="5.423516411957032"><ele>685.5</ele><time>2026-05-02T13:28:29.999Z</time></trkpt><trkpt lat="45.0018712681906" lon="5.423356827968428"><ele>683.25</ele><time>2026-05-02T13:28:30.999Z</time></trkpt><trkpt lat="45.00187738562979" lon="5.423195230228241"><ele>681.0</ele><time>2026-05-02T13:28:31.999Z</time></trkpt><trkpt lat="45.001896058530114" lon="5.423023078918654"><ele>680.75</ele><time>2026-05-02T13:28:32.999Z</time></trkpt><trkpt lat="45.00192594300548" lon="5.42287085065383"><ele>680.5</ele><time>2026-05-02T13:28:33.999Z</time></trkpt><trkpt lat="45.00195840255036" lon="5.422716220251384"><ele>680.25</ele><time>2026-05-02T13:28:34.999Z</time></trkpt><trkpt lat="45.00199081442164" lon="5.4225563137646775"><ele>680.0</ele><time>2026-05-02T13:28:35.999Z</time></trkpt><trkpt lat="45.00202321005244" lon="5.422397037725287"><ele>680.0</ele><time>2026-05-02T13:28:36.999Z</time></trkpt><trkpt lat="45.00205873628944" lon="5.422238362376857"><ele>680.0</ele><time>2026-05-02T13:28:37.999Z</time></trkpt><trkpt lat="45.00208708623332" lon="5.422073945759633"><ele>680.0</ele><time>2026-05-02T13:28:38.999Z</time></trkpt><trkpt lat="45.00210879339655" lon="5.421911474293895"><ele>680.0</ele><time>2026-05-02T13:28:39.999Z</time></trkpt><trkpt lat="45.00213721697557" lon="5.421754950190635"><ele>681.8</ele><time>2026-05-02T13:28:40.999Z</time></trkpt><trkpt lat="45.00213868589794" lon="5.421620309237546"><ele>683.6</ele><time>2026-05-02T13:28:41.999Z</time></trkpt><trkpt lat="45.00208499213697" lon="5.421501075562461"><ele>685.4000000000001</ele><time>2026-05-02T13:28:42.999Z</time></trkpt><trkpt lat="45.001987441510785" lon="5.4214372667430215"><ele>687.2</ele><time>2026-05-02T13:28:43.999Z</time></trkpt><trkpt lat="45.00188325483794" lon="5.421452185468578"><ele>689.0</ele><time>2026-05-02T13:28:44.999Z</time></trkpt><trkpt lat="45.00175454334049" lon="5.421514592866682"><ele>693.25</ele><time>2026-05-02T13:28:45.999Z</time></trkpt><trkpt lat="45.001621710679004" lon="5.4216169971535395"><ele>697.5</ele><time>2026-05-02T13:28:46.999Z</time></trkpt><trkpt lat="45.00149961959741" lon="5.421725187387796"><ele>701.75</ele><time>2026-05-02T13:28:47.999Z</time></trkpt><trkpt lat="45.00139094240971" lon="5.421858337056449"><ele>706.0</ele><time>2026-05-02T13:28:48.999Z</time></trkpt><trkpt lat="45.00128776673259" lon="5.422010714750098"><ele>702.0</ele><time>2026-05-02T13:28:49.999Z</time></trkpt><trkpt lat="45.00118296370932" lon="5.422168925914983"><ele>698.0</ele><time>2026-05-02T13:28:50.999Z</time></trkpt><trkpt lat="45.001094410149875" lon="5.422351871626517"><ele>694.0</ele><time>2026-05-02T13:28:51.999Z</time></trkpt><trkpt lat="45.001002469774996" lon="5.422539838652383"><ele>694.0</ele><time>2026-05-02T13:28:52.999Z</time></trkpt><trkpt lat="45.0009085512779" lon="5.422701700756048"><ele>694.0</ele><time>2026-05-02T13:28:53.999Z</time></trkpt><trkpt lat="45.00083354529067" lon="5.422845727233212"><ele>694.0</ele><time>2026-05-02T13:28:54.999Z</time></trkpt><trkpt lat="45.000742572023384" lon="5.422953354278274"><ele>694.0</ele><time>2026-05-02T13:28:55.999Z</time></trkpt><trkpt lat="45.000610320619074" lon="5.422961655641867"><ele>695.0</ele><time>2026-05-02T13:28:56.999Z</time></trkpt><trkpt lat="45.00045694022004" lon="5.422891235351061"><ele>696.0</ele><time>2026-05-02T13:28:57.999Z</time></trkpt><trkpt lat="45.00026485118567" lon="5.422828446781517"><ele>697.0</ele><time>2026-05-02T13:28:58.999Z</time></trkpt><trkpt lat="45.000052229943265" lon="5.422774034363563"><ele>697.0</ele><time>2026-05-02T13:28:59.999Z</time></trkpt><trkpt lat="44.99984351988042" lon="5.422707305318164"><ele>697.0</ele><time>2026-05-02T13:29:00.999Z</time></trkpt><trkpt lat="44.99964934462768" lon="5.422663098334219"><ele>697.0</ele><time>2026-05-02T13:29:01.999Z</time></trkpt><trkpt lat="44.999449329059054" lon="5.422654612020404"><ele>697.0</ele><time>2026-05-02T13:29:02.999Z</time></trkpt><trkpt lat="44.99923178209119" lon="5.422696995964197"><ele>697.0</ele><time>2026-05-02T13:29:03.999Z</time></trkpt><trkpt lat="44.99900364919466" lon="5.422736612176895"><ele>697.0</ele><time>2026-05-02T13:29:04.999Z</time></trkpt><trkpt lat="44.99878342743326" lon="5.422780556822965"><ele>698.6666666666667</ele><time>2026-05-02T13:29:05.999Z</time></trkpt><trkpt lat="44.99857173349669" lon="5.422801367781071"><ele>700.3333333333334</ele><time>2026-05-02T13:29:06.999Z</time></trkpt><trkpt lat="44.99836962366478" lon="5.422746070732438"><ele>702.0</ele><time>2026-05-02T13:29:07.999Z</time></trkpt><trkpt lat="44.998157334428456" lon="5.422630801870973"><ele>707.5</ele><time>2026-05-02T13:29:08.999Z</time></trkpt><trkpt lat="44.997950694592205" lon="5.422460852496858"><ele>713.0</ele><time>2026-05-02T13:29:09.999Z</time></trkpt><trkpt lat="44.99775457304311" lon="5.422246670395079"><ele>715.0</ele><time>2026-05-02T13:29:10.999Z</time></trkpt><trkpt lat="44.997588650568176" lon="5.422003036273119"><ele>717.0</ele><time>2026-05-02T13:29:11.999Z</time></trkpt><trkpt lat="44.99743998924045" lon="5.421719717295582"><ele>717.0</ele><time>2026-05-02T13:29:12.999Z</time></trkpt><trkpt lat="44.99728953797371" lon="5.421450082367621"><ele>717.0</ele><time>2026-05-02T13:29:13.999Z</time></trkpt><trkpt lat="44.99714596381297" lon="5.421206277993461"><ele>723.5</ele><time>2026-05-02T13:29:14.999Z</time></trkpt><trkpt lat="44.99694577057936" lon="5.421049163597543"><ele>730.0</ele><time>2026-05-02T13:29:15.999Z</time></trkpt><trkpt lat="44.99672028920961" lon="5.420949755854505"><ele>723.5</ele><time>2026-05-02T13:29:16.999Z</time></trkpt><trkpt lat="44.99648743014887" lon="5.420861776386784"><ele>717.0</ele><time>2026-05-02T13:29:17.999Z</time></trkpt><trkpt lat="44.9962784337063" lon="5.420694087769566"><ele>717.0</ele><time>2026-05-02T13:29:18.999Z</time></trkpt><trkpt lat="44.99606965207448" lon="5.420524112424574"><ele>717.0</ele><time>2026-05-02T13:29:19.999Z</time></trkpt><trkpt lat="44.995882204549524" lon="5.420272394265815"><ele>721.0</ele><time>2026-05-02T13:29:20.998Z</time></trkpt><trkpt lat="44.99570303836178" lon="5.420023366619256"><ele>725.0</ele><time>2026-05-02T13:29:21.998Z</time></trkpt><trkpt lat="44.99553402668679" lon="5.419789241821264"><ele>729.5</ele><time>2026-05-02T13:29:22.998Z</time></trkpt><trkpt lat="44.99536147558819" lon="5.419573650478778"><ele>734.0</ele><time>2026-05-02T13:29:23.998Z</time></trkpt><trkpt lat="44.99519873892957" lon="5.419344939247271"><ele>734.0</ele><time>2026-05-02T13:29:24.998Z</time></trkpt><trkpt lat="44.99503731750352" lon="5.419120255331071"><ele>734.0</ele><time>2026-05-02T13:29:25.998Z</time></trkpt><trkpt lat="44.994875508049425" lon="5.418896496190512"><ele>734.6666666666666</ele><time>2026-05-02T13:29:26.998Z</time></trkpt><trkpt lat="44.9947172795615" lon="5.418673782992268"><ele>735.3333333333334</ele><time>2026-05-02T13:29:27.998Z</time></trkpt><trkpt lat="44.99455952768814" lon="5.41845629431819"><ele>736.0</ele><time>2026-05-02T13:29:28.998Z</time></trkpt><trkpt lat="44.99440035711424" lon="5.418241035287368"><ele>736.0</ele><time>2026-05-02T13:29:29.998Z</time></trkpt><trkpt lat="44.994241745586784" lon="5.418020457192283"><ele>736.0</ele><time>2026-05-02T13:29:30.998Z</time></trkpt><trkpt lat="44.99408924948646" lon="5.417799942025173"><ele>736.0</ele><time>2026-05-02T13:29:31.998Z</time></trkpt><trkpt lat="44.99393924576725" lon="5.417583371015025"><ele>738.6666666666667</ele><time>2026-05-02T13:29:32.998Z</time></trkpt><trkpt lat="44.99378597788426" lon="5.417365381772036"><ele>741.3333333333334</ele><time>2026-05-02T13:29:33.998Z</time></trkpt><trkpt lat="44.993632640377015" lon="5.41714846747343"><ele>744.0</ele><time>2026-05-02T13:29:34.998Z</time></trkpt><trkpt lat="44.993477485646686" lon="5.416933981939573"><ele>745.3333333333334</ele><time>2026-05-02T13:29:35.998Z</time></trkpt><trkpt lat="44.99332622482789" lon="5.416709920349313"><ele>746.6666666666667</ele><time>2026-05-02T13:29:36.998Z</time></trkpt><trkpt lat="44.99318856368137" lon="5.416462523341659"><ele>748.0</ele><time>2026-05-02T13:29:37.998Z</time></trkpt><trkpt lat="44.99308797575035" lon="5.416180104228621"><ele>751.0</ele><time>2026-05-02T13:29:38.998Z</time></trkpt><trkpt lat="44.99299542746058" lon="5.415885598360833"><ele>754.0</ele><time>2026-05-02T13:29:39.998Z</time></trkpt><trkpt lat="44.99289081942562" lon="5.4155926253976885"><ele>759.5</ele><time>2026-05-02T13:29:40.998Z</time></trkpt><trkpt lat="44.992800502734184" lon="5.415286210582083"><ele>765.0</ele><time>2026-05-02T13:29:42Z</time></trkpt><trkpt lat="44.99270450399936" lon="5.414981563555916"><ele>765.0</ele><time>2026-05-02T13:29:43Z</time></trkpt><trkpt lat="44.992604743705705" lon="5.4146748716668665"><ele>765.0</ele><time>2026-05-02T13:29:44Z</time></trkpt><trkpt lat="44.99250509217832" lon="5.4143676563674665"><ele>766.5</ele><time>2026-05-02T13:29:45Z</time></trkpt><trkpt lat="44.99240632409018" lon="5.414061972708638"><ele>768.0</ele><time>2026-05-02T13:29:46Z</time></trkpt><trkpt lat="44.99230748498871" lon="5.413760365816769"><ele>768.0</ele><time>2026-05-02T13:29:47Z</time></trkpt><trkpt lat="44.992214969904424" lon="5.413453756951342"><ele>768.0</ele><time>2026-05-02T13:29:48Z</time></trkpt><trkpt lat="44.992124707068754" lon="5.413156951702977"><ele>773.6666666666667</ele><time>2026-05-02T13:29:49Z</time></trkpt><trkpt lat="44.99204618694549" lon="5.412883565818957"><ele>779.3333333333334</ele><time>2026-05-02T13:29:50Z</time></trkpt><trkpt lat="44.9919655138779" lon="5.412645406037625"><ele>785.0</ele><time>2026-05-02T13:29:51Z</time></trkpt><trkpt lat="44.99185774063166" lon="5.412428891463206"><ele>785.0</ele><time>2026-05-02T13:29:52Z</time></trkpt><trkpt lat="44.9916995620703" lon="5.412258316173638"><ele>785.0</ele><time>2026-05-02T13:29:53Z</time></trkpt><trkpt lat="44.991504755775836" lon="5.41215407859816"><ele>785.0</ele><time>2026-05-02T13:29:54Z</time></trkpt><trkpt lat="44.99128850081355" lon="5.412165121966665"><ele>784.3333333333334</ele><time>2026-05-02T13:29:55Z</time></trkpt><trkpt lat="44.99109359560802" lon="5.41211556981667"><ele>783.6666666666667</ele><time>2026-05-02T13:29:56Z</time></trkpt><trkpt lat="44.99090784854575" lon="5.412034994943832"><ele>783.0</ele><time>2026-05-02T13:29:57Z</time></trkpt><trkpt lat="44.990738835691666" lon="5.4118700597959934"><ele>780.5</ele><time>2026-05-02T13:29:58Z</time></trkpt><trkpt lat="44.990560307850586" lon="5.41166257319715"><ele>778.0</ele><time>2026-05-02T13:29:59Z</time></trkpt><trkpt lat="44.990397469804236" lon="5.411411488614997"><ele>789.5</ele><time>2026-05-02T13:30:00Z</time></trkpt><trkpt lat="44.99022671556164" lon="5.411152148199951"><ele>801.0</ele><time>2026-05-02T13:30:01Z</time></trkpt><trkpt lat="44.990061132898205" lon="5.410877216187315"><ele>800.5</ele><time>2026-05-02T13:30:02Z</time></trkpt><trkpt lat="44.989897772471316" lon="5.410586448027782"><ele>800.0</ele><time>2026-05-02T13:30:03Z</time></trkpt><trkpt lat="44.98974788364242" lon="5.410313918532497"><ele>800.0</ele><time>2026-05-02T13:30:04Z</time></trkpt><trkpt lat="44.98959813015662" lon="5.410040396586551"><ele>800.0</ele><time>2026-05-02T13:30:05Z</time></trkpt><trkpt lat="44.98945250815623" lon="5.409780244074574"><ele>797.6666666666667</ele><time>2026-05-02T13:30:06Z</time></trkpt><trkpt lat="44.98930702623543" lon="5.40954525482073"><ele>795.3333333333333</ele><time>2026-05-02T13:30:07Z</time></trkpt><trkpt lat="44.989164300083175" lon="5.409346771519865"><ele>793.0</ele><time>2026-05-02T13:30:08Z</time></trkpt><trkpt lat="44.989027893579554" lon="5.409183391963423"><ele>793.0</ele><time>2026-05-02T13:30:09Z</time></trkpt><trkpt lat="44.98888416077593" lon="5.409070855697538"><ele>793.0</ele><time>2026-05-02T13:30:10Z</time></trkpt><trkpt lat="44.98873190920154" lon="5.408974879999627"><ele>793.0</ele><time>2026-05-02T13:30:11Z</time></trkpt><trkpt lat="44.98859128752048" lon="5.408851593522641"><ele>795.0</ele><time>2026-05-02T13:30:12Z</time></trkpt><trkpt lat="44.988449506003604" lon="5.408751128006628"><ele>797.0</ele><time>2026-05-02T13:30:13Z</time></trkpt><trkpt lat="44.98831159306666" lon="5.4086529129041905"><ele>799.0</ele><time>2026-05-02T13:30:14Z</time></trkpt><trkpt lat="44.9881767887054" lon="5.408556159977715"><ele>799.0</ele><time>2026-05-02T13:30:15Z</time></trkpt><trkpt lat="44.9880358961344" lon="5.408478358558736"><ele>799.0</ele><time>2026-05-02T13:30:16Z</time></trkpt><trkpt lat="44.98790938665718" lon="5.408370727787987"><ele>799.0</ele><time>2026-05-02T13:30:17Z</time></trkpt><trkpt lat="44.98778043918655" lon="5.4082734042392815"><ele>799.0</ele><time>2026-05-02T13:30:18Z</time></trkpt><trkpt lat="44.987670396072915" lon="5.408194657132835"><ele>799.0</ele><time>2026-05-02T13:30:19Z</time></trkpt><trkpt lat="44.987569710188644" lon="5.408111164851153"><ele>799.0</ele><time>2026-05-02T13:30:20Z</time></trkpt><trkpt lat="44.987451710727164" lon="5.40799207711146"><ele>799.0</ele><time>2026-05-02T13:30:21Z</time></trkpt><trkpt lat="44.987323320511344" lon="5.407863911727072"><ele>799.0</ele><time>2026-05-02T13:30:22Z</time></trkpt><trkpt lat="44.98719481433799" lon="5.407721077439329"><ele>802.3333333333333</ele><time>2026-05-02T13:30:23Z</time></trkpt><trkpt lat="44.987060120854586" lon="5.407557203927986"><ele>805.6666666666667</ele><time>2026-05-02T13:30:24Z</time></trkpt><trkpt lat="44.98690314845945" lon="5.40736682467403"><ele>809.0</ele><time>2026-05-02T13:30:24.999Z</time></trkpt><trkpt lat="44.98673957330383" lon="5.407151956406719"><ele>809.5</ele><time>2026-05-02T13:30:25.999Z</time></trkpt><trkpt lat="44.98657861363932" lon="5.406918290071791"><ele>810.0</ele><time>2026-05-02T13:30:26.999Z</time></trkpt><trkpt lat="44.98642011603711" lon="5.406686709441092"><ele>810.0</ele><time>2026-05-02T13:30:27.999Z</time></trkpt><trkpt lat="44.98626239010416" lon="5.406461213635314"><ele>810.0</ele><time>2026-05-02T13:30:28.999Z</time></trkpt><trkpt lat="44.986122778683246" lon="5.406258548672507"><ele>810.0</ele><time>2026-05-02T13:30:29.999Z</time></trkpt><trkpt lat="44.98598525437227" lon="5.4060567277069485"><ele>808.6666666666667</ele><time>2026-05-02T13:30:30.999Z</time></trkpt><trkpt lat="44.98587500925959" lon="5.405812170739038"><ele>807.3333333333334</ele><time>2026-05-02T13:30:31.999Z</time></trkpt><trkpt lat="44.985797752413625" lon="5.405528034177202"><ele>806.0</ele><time>2026-05-02T13:30:32.999Z</time></trkpt><trkpt lat="44.9857697810886" lon="5.4052077310384"><ele>803.5</ele><time>2026-05-02T13:30:33.999Z</time></trkpt><trkpt lat="44.98578133396181" lon="5.404867400041071"><ele>801.0</ele><time>2026-05-02T13:30:34.999Z</time></trkpt><trkpt lat="44.985803971251656" lon="5.404534205883787"><ele>799.5</ele><time>2026-05-02T13:30:35.999Z</time></trkpt><trkpt lat="44.985818513875195" lon="5.404212193889555"><ele>798.0</ele><time>2026-05-02T13:30:36.999Z</time></trkpt><trkpt lat="44.98583042075716" lon="5.403895330884561"><ele>797.6666666666667</ele><time>2026-05-02T13:30:37.999Z</time></trkpt><trkpt lat="44.985840093636014" lon="5.403579552038612"><ele>797.3333333333334</ele><time>2026-05-02T13:30:38.999Z</time></trkpt><trkpt lat="44.98585207754777" lon="5.403264758914577"><ele>797.0</ele><time>2026-05-02T13:30:39.999Z</time></trkpt><trkpt lat="44.985857275011014" lon="5.402958522237505"><ele>798.3333333333334</ele><time>2026-05-02T13:30:40.999Z</time></trkpt><trkpt lat="44.98581290476252" lon="5.4026596789450565"><ele>799.6666666666667</ele><time>2026-05-02T13:30:41.999Z</time></trkpt><trkpt lat="44.98571846657778" lon="5.402381586625015"><ele>801.0</ele><time>2026-05-02T13:30:42.999Z</time></trkpt><trkpt lat="44.98558474482542" lon="5.402145843389203"><ele>801.6666666666667</ele><time>2026-05-02T13:30:43.999Z</time></trkpt><trkpt lat="44.985410983745176" lon="5.401968771298791"><ele>802.3333333333334</ele><time>2026-05-02T13:30:44.999Z</time></trkpt><trkpt lat="44.98521539276733" lon="5.401846852446586"><ele>803.0</ele><time>2026-05-02T13:30:45.999Z</time></trkpt><trkpt lat="44.985000024814205" lon="5.4017892430896595"><ele>803.0</ele><time>2026-05-02T13:30:46.999Z</time></trkpt><trkpt lat="44.98478140445056" lon="5.401766145897432"><ele>803.0</ele><time>2026-05-02T13:30:47.999Z</time></trkpt><trkpt lat="44.98456552963724" lon="5.401713413758901"><ele>803.0</ele><time>2026-05-02T13:30:48.999Z</time></trkpt><trkpt lat="44.984351198772735" lon="5.401605912031985"><ele>801.5</ele><time>2026-05-02T13:30:49.999Z</time></trkpt><trkpt lat="44.9841429369429" lon="5.401453362262152"><ele>800.0</ele><time>2026-05-02T13:30:50.999Z</time></trkpt><trkpt lat="44.98395137237486" lon="5.401254452284757"><ele>805.5</ele><time>2026-05-02T13:30:51.999Z</time></trkpt><trkpt lat="44.98376459374858" lon="5.401044550438056"><ele>811.0</ele><time>2026-05-02T13:30:52.999Z</time></trkpt><trkpt lat="44.98356878877362" lon="5.400841731535242"><ele>811.0</ele><time>2026-05-02T13:30:53.999Z</time></trkpt><trkpt lat="44.983372295954744" lon="5.400644247369345"><ele>811.0</ele><time>2026-05-02T13:30:54.999Z</time></trkpt><trkpt lat="44.98318511831297" lon="5.4004605699319645"><ele>813.3333333333333</ele><time>2026-05-02T13:30:55.999Z</time></trkpt><trkpt lat="44.983012271782925" lon="5.40029929270561"><ele>815.6666666666667</ele><time>2026-05-02T13:30:56.999Z</time></trkpt><trkpt lat="44.98284017371839" lon="5.400160971066138"><ele>818.0</ele><time>2026-05-02T13:30:57.999Z</time></trkpt><trkpt lat="44.982662312317586" lon="5.400039132785616"><ele>816.3333333333334</ele><time>2026-05-02T13:30:58.999Z</time></trkpt><trkpt lat="44.98247317447889" lon="5.399948593163658"><ele>814.6666666666667</ele><time>2026-05-02T13:30:59.999Z</time></trkpt><trkpt lat="44.9822762795335" lon="5.399860361715993"><ele>813.0</ele><time>2026-05-02T13:31:00.999Z</time></trkpt><trkpt lat="44.98207962614131" lon="5.39977540673635"><ele>813.0</ele><time>2026-05-02T13:31:01.999Z</time></trkpt><trkpt lat="44.981883851082465" lon="5.399687075983815"><ele>813.0</ele><time>2026-05-02T13:31:02.999Z</time></trkpt><trkpt lat="44.98168672466343" lon="5.399616268044616"><ele>813.0</ele><time>2026-05-02T13:31:03.999Z</time></trkpt><trkpt lat="44.98148198263953" lon="5.399580261717381"><ele>812.6666666666667</ele><time>2026-05-02T13:31:04.999Z</time></trkpt><trkpt lat="44.98127913128926" lon="5.399601546996"><ele>812.3333333333334</ele><time>2026-05-02T13:31:05.999Z</time></trkpt><trkpt lat="44.98107792955525" lon="5.399657997950173"><ele>812.0</ele><time>2026-05-02T13:31:06.999Z</time></trkpt><trkpt lat="44.980874375968114" lon="5.399695532517702"><ele>812.6666666666667</ele><time>2026-05-02T13:31:07.999Z</time></trkpt><trkpt lat="44.98066462611013" lon="5.399676640740117"><ele>813.3333333333333</ele><time>2026-05-02T13:31:08.999Z</time></trkpt><trkpt lat="44.98045797362044" lon="5.399622970184018"><ele>814.0</ele><time>2026-05-02T13:31:09.999Z</time></trkpt><trkpt lat="44.980254454075684" lon="5.399544286473833"><ele>815.6666666666666</ele><time>2026-05-02T13:31:10.999Z</time></trkpt><trkpt lat="44.980059156464954" lon="5.399425552509439"><ele>817.3333333333333</ele><time>2026-05-02T13:31:11.999Z</time></trkpt><trkpt lat="44.97986770502174" lon="5.399284122666448"><ele>819.0</ele><time>2026-05-02T13:31:12.999Z</time></trkpt><trkpt lat="44.979666629339825" lon="5.399130591215756"><ele>819.0</ele><time>2026-05-02T13:31:13.999Z</time></trkpt><trkpt lat="44.97945594949162" lon="5.398990509285918"><ele>819.0</ele><time>2026-05-02T13:31:14.999Z</time></trkpt><trkpt lat="44.97921907246386" lon="5.398902558484867"><ele>816.5</ele><time>2026-05-02T13:31:15.999Z</time></trkpt><trkpt lat="44.978973113660516" lon="5.398906872506228"><ele>814.0</ele><time>2026-05-02T13:31:16.999Z</time></trkpt><trkpt lat="44.9787210427157" lon="5.398940060387542"><ele>814.0</ele><time>2026-05-02T13:31:17.999Z</time></trkpt><trkpt lat="44.9784802309461" lon="5.39899791811215"><ele>814.0</ele><time>2026-05-02T13:31:18.999Z</time></trkpt><trkpt lat="44.978235479940096" lon="5.399044371232454"><ele>818.5</ele><time>2026-05-02T13:31:19.999Z</time></trkpt><trkpt lat="44.97800106855049" lon="5.39906377641551"><ele>823.0</ele><time>2026-05-02T13:31:20.999Z</time></trkpt><trkpt lat="44.977770209823106" lon="5.399013358803893"><ele>823.0</ele><time>2026-05-02T13:31:21.999Z</time></trkpt><trkpt lat="44.97755602161695" lon="5.399030717609089"><ele>823.0</ele><time>2026-05-02T13:31:22.999Z</time></trkpt><trkpt lat="44.97736411529407" lon="5.399064002597443"><ele>823.0</ele><time>2026-05-02T13:31:23.999Z</time></trkpt><trkpt lat="44.9771938222179" lon="5.399149414435641"><ele>824.0</ele><time>2026-05-02T13:31:24.999Z</time></trkpt><trkpt lat="44.97704974970884" lon="5.399285162520973"><ele>825.0</ele><time>2026-05-02T13:31:25.999Z</time></trkpt><trkpt lat="44.976910227457694" lon="5.39943677665363"><ele>826.0</ele><time>2026-05-02T13:31:26.998Z</time></trkpt><trkpt lat="44.976765903190326" lon="5.399568029023665"><ele>826.0</ele><time>2026-05-02T13:31:27.998Z</time></trkpt><trkpt lat="44.97662541238196" lon="5.399715578762917"><ele>826.0</ele><time>2026-05-02T13:31:28.998Z</time></trkpt><trkpt lat="44.9764822671653" lon="5.399866244789767"><ele>826.0</ele><time>2026-05-02T13:31:29.998Z</time></trkpt><trkpt lat="44.97633447603549" lon="5.400019477281221"><ele>826.0</ele><time>2026-05-02T13:31:30.998Z</time></trkpt><trkpt lat="44.9761888956351" lon="5.400168410173123"><ele>826.0</ele><time>2026-05-02T13:31:31.998Z</time></trkpt><trkpt lat="44.97604127156557" lon="5.400317670836184"><ele>826.0</ele><time>2026-05-02T13:31:32.998Z</time></trkpt><trkpt lat="44.975893345963165" lon="5.4004709614237845"><ele>827.3333333333333</ele><time>2026-05-02T13:31:33.998Z</time></trkpt><trkpt lat="44.97575000934811" lon="5.4006194965615215"><ele>828.6666666666667</ele><time>2026-05-02T13:31:34.998Z</time></trkpt><trkpt lat="44.97561566941214" lon="5.400757454451535"><ele>830.0</ele><time>2026-05-02T13:31:35.998Z</time></trkpt><trkpt lat="44.97549423226057" lon="5.400881198458208"><ele>830.0</ele><time>2026-05-02T13:31:36.998Z</time></trkpt><trkpt lat="44.97538545896703" lon="5.400995175267994"><ele>830.0</ele><time>2026-05-02T13:31:37.998Z</time></trkpt><trkpt lat="44.97526187137239" lon="5.401122546159446"><ele>830.0</ele><time>2026-05-02T13:31:38.998Z</time></trkpt><trkpt lat="44.97510925324703" lon="5.401277847891581"><ele>829.3333333333334</ele><time>2026-05-02T13:31:39.998Z</time></trkpt><trkpt lat="44.97493744044096" lon="5.401449235076368"><ele>828.6666666666667</ele><time>2026-05-02T13:31:40.998Z</time></trkpt><trkpt lat="44.97475829525721" lon="5.4016335171567125"><ele>828.0</ele><time>2026-05-02T13:31:41.998Z</time></trkpt><trkpt lat="44.97458856716116" lon="5.401806347570738"><ele>828.0</ele><time>2026-05-02T13:31:42.998Z</time></trkpt><trkpt lat="44.97440850145065" lon="5.401990290513124"><ele>828.0</ele><time>2026-05-02T13:31:43.998Z</time></trkpt><trkpt lat="44.97421615901841" lon="5.402185793383882"><ele>826.0</ele><time>2026-05-02T13:31:44.998Z</time></trkpt><trkpt lat="44.97403108867269" lon="5.402376414924163"><ele>824.0</ele><time>2026-05-02T13:31:45.998Z</time></trkpt><trkpt lat="44.973851915650066" lon="5.402574780343308"><ele>824.0</ele><time>2026-05-02T13:31:46.998Z</time></trkpt><trkpt lat="44.97367366610418" lon="5.402749794505923"><ele>824.0</ele><time>2026-05-02T13:31:48Z</time></trkpt><trkpt lat="44.97350472914382" lon="5.4029238340944"><ele>824.0</ele><time>2026-05-02T13:31:49Z</time></trkpt><trkpt lat="44.97334005458623" lon="5.403097862274682"><ele>824.6666666666667</ele><time>2026-05-02T13:31:50Z</time></trkpt><trkpt lat="44.973179750283656" lon="5.403261397529483"><ele>825.3333333333333</ele><time>2026-05-02T13:31:51Z</time></trkpt><trkpt lat="44.973021486279634" lon="5.403419731795632"><ele>826.0</ele><time>2026-05-02T13:31:52Z</time></trkpt><trkpt lat="44.972869502582206" lon="5.403570542185906"><ele>826.0</ele><time>2026-05-02T13:31:53Z</time></trkpt><trkpt lat="44.97272169886828" lon="5.403724719860515"><ele>826.0</ele><time>2026-05-02T13:31:54Z</time></trkpt><trkpt lat="44.97258407252975" lon="5.4038887704425775"><ele>826.0</ele><time>2026-05-02T13:31:55Z</time></trkpt><trkpt lat="44.97245734772511" lon="5.4040699771323135"><ele>828.3333333333333</ele><time>2026-05-02T13:31:56Z</time></trkpt><trkpt lat="44.9723288149474" lon="5.40425854444078"><ele>830.6666666666667</ele><time>2026-05-02T13:31:57Z</time></trkpt><trkpt lat="44.972197252186795" lon="5.404446993575538"><ele>833.0</ele><time>2026-05-02T13:31:58Z</time></trkpt><trkpt lat="44.97206580662665" lon="5.404622274038245"><ele>835.3333333333334</ele><time>2026-05-02T13:31:59Z</time></trkpt><trkpt lat="44.97194043419221" lon="5.404798052109707"><ele>837.6666666666667</ele><time>2026-05-02T13:32:00Z</time></trkpt><trkpt lat="44.97183424008906" lon="5.404995805123575"><ele>840.0</ele><time>2026-05-02T13:32:01Z</time></trkpt><trkpt lat="44.97175295864643" lon="5.405214940305314"><ele>840.0</ele><time>2026-05-02T13:32:02Z</time></trkpt><trkpt lat="44.97169154987161" lon="5.4054506405980325"><ele>840.0</ele><time>2026-05-02T13:32:03Z</time></trkpt><trkpt lat="44.971638694181266" lon="5.405690768118195"><ele>840.0</ele><time>2026-05-02T13:32:04Z</time></trkpt><trkpt lat="44.97158461695949" lon="5.4059259835000955"><ele>840.3333333333333</ele><time>2026-05-02T13:32:05Z</time></trkpt><trkpt lat="44.97151929868009" lon="5.4061535679119155"><ele>840.6666666666666</ele><time>2026-05-02T13:32:06Z</time></trkpt><trkpt lat="44.97145933889017" lon="5.406355977563472"><ele>841.0</ele><time>2026-05-02T13:32:07Z</time></trkpt><trkpt lat="44.971376469390535" lon="5.406551826151279"><ele>842.5</ele><time>2026-05-02T13:32:08Z</time></trkpt><trkpt lat="44.97128592082165" lon="5.4066772134095995"><ele>844.0</ele><time>2026-05-02T13:32:09Z</time></trkpt><trkpt lat="44.97118356139876" lon="5.40680234302048"><ele>845.5</ele><time>2026-05-02T13:32:10Z</time></trkpt><trkpt lat="44.97106532906563" lon="5.406912790772729"><ele>847.0</ele><time>2026-05-02T13:32:11Z</time></trkpt><trkpt lat="44.97092333471479" lon="5.407014199332623"><ele>846.0</ele><time>2026-05-02T13:32:12Z</time></trkpt><trkpt lat="44.970784818568944" lon="5.407131806548863"><ele>845.0</ele><time>2026-05-02T13:32:13Z</time></trkpt><trkpt lat="44.970647650102926" lon="5.407246937618884"><ele>844.0</ele><time>2026-05-02T13:32:14Z</time></trkpt><trkpt lat="44.97051312448522" lon="5.407357461098216"><ele>848.3333333333333</ele><time>2026-05-02T13:32:15Z</time></trkpt><trkpt lat="44.97037888137748" lon="5.4074722873428644"><ele>852.6666666666667</ele><time>2026-05-02T13:32:16Z</time></trkpt><trkpt lat="44.97024916466531" lon="5.4075819467010815"><ele>857.0</ele><time>2026-05-02T13:32:17Z</time></trkpt><trkpt lat="44.97011887799417" lon="5.407685665372214"><ele>857.75</ele><time>2026-05-02T13:32:18Z</time></trkpt><trkpt lat="44.96999352137914" lon="5.407795547562565"><ele>858.5</ele><time>2026-05-02T13:32:19Z</time></trkpt><trkpt lat="44.96987620275635" lon="5.407922262291995"><ele>859.25</ele><time>2026-05-02T13:32:20Z</time></trkpt><trkpt lat="44.96977514851696" lon="5.4080701297952"><ele>860.0</ele><time>2026-05-02T13:32:21Z</time></trkpt><trkpt lat="44.969651269029406" lon="5.408186026884083"><ele>860.0</ele><time>2026-05-02T13:32:22Z</time></trkpt><trkpt lat="44.96955978242456" lon="5.408347270821306"><ele>860.0</ele><time>2026-05-02T13:32:23Z</time></trkpt><trkpt lat="44.96956415693306" lon="5.408603495196318"><ele>860.0</ele><time>2026-05-02T13:32:24Z</time></trkpt><trkpt lat="44.96953433440803" lon="5.408804321133135"><ele>862.0</ele><time>2026-05-02T13:32:25Z</time></trkpt><trkpt lat="44.96952961022864" lon="5.409013854445683"><ele>864.0</ele><time>2026-05-02T13:32:26Z</time></trkpt><trkpt lat="44.96954664590888" lon="5.409217264186054"><ele>866.0</ele><time>2026-05-02T13:32:27Z</time></trkpt><trkpt lat="44.969594604460084" lon="5.409416809752157"><ele>868.0</ele><time>2026-05-02T13:32:28Z</time></trkpt><trkpt lat="44.969651286997866" lon="5.40960783353364"><ele>869.3333333333333</ele><time>2026-05-02T13:32:29Z</time></trkpt><trkpt lat="44.969703724649996" lon="5.409798787245949"><ele>870.6666666666667</ele><time>2026-05-02T13:32:30Z</time></trkpt><trkpt lat="44.969751666980265" lon="5.409995709593561"><ele>872.0</ele><time>2026-05-02T13:32:31Z</time></trkpt><trkpt lat="44.9698131419579" lon="5.410201167675297"><ele>872.0</ele><time>2026-05-02T13:32:32Z</time></trkpt><trkpt lat="44.969857112855316" lon="5.410382199725481"><ele>872.0</ele><time>2026-05-02T13:32:33Z</time></trkpt><trkpt lat="44.96990492143035" lon="5.410562690271319"><ele>872.0</ele><time>2026-05-02T13:32:34Z</time></trkpt><trkpt lat="44.96995041026815" lon="5.410742851627486"><ele>872.0</ele><time>2026-05-02T13:32:35Z</time></trkpt><trkpt lat="44.96996410278862" lon="5.410895568368167"><ele>872.2</ele><time>2026-05-02T13:32:36Z</time></trkpt><trkpt lat="44.9699371602818" lon="5.411024542290115"><ele>872.4000000000001</ele><time>2026-05-02T13:32:37Z</time></trkpt><trkpt lat="44.96987858454033" lon="5.4111218708160935"><ele>872.5999999999999</ele><time>2026-05-02T13:32:38Z</time></trkpt><trkpt lat="44.96978875977816" lon="5.411167428796502"><ele>872.8</ele><time>2026-05-02T13:32:39Z</time></trkpt><trkpt lat="44.9696872869017" lon="5.411189554718092"><ele>873.0</ele><time>2026-05-02T13:32:40Z</time></trkpt><trkpt lat="44.9695905696996" lon="5.41117240177314"><ele>873.0</ele><time>2026-05-02T13:32:40.999Z</time></trkpt><trkpt lat="44.96951195224742" lon="5.411174941489879"><ele>873.0</ele><time>2026-05-02T13:32:41.999Z</time></trkpt><trkpt lat="44.969431516683144" lon="5.411211168164309"><ele>873.0</ele><time>2026-05-02T13:32:42.999Z</time></trkpt><trkpt lat="44.969350351957935" lon="5.4112742875494115"><ele>873.0</ele><time>2026-05-02T13:32:43.999Z</time></trkpt><trkpt lat="44.96926540186056" lon="5.411347300663587"><ele>873.0</ele><time>2026-05-02T13:32:44.999Z</time></trkpt><trkpt lat="44.96917810885651" lon="5.411418159043671"><ele>873.8</ele><time>2026-05-02T13:32:45.999Z</time></trkpt><trkpt lat="44.96908322244564" lon="5.411493881674373"><ele>874.5999999999999</ele><time>2026-05-02T13:32:46.999Z</time></trkpt><trkpt lat="44.96899638199641" lon="5.411577359735378"><ele>875.4000000000001</ele><time>2026-05-02T13:32:47.999Z</time></trkpt><trkpt lat="44.96890780089672" lon="5.411660868494129"><ele>876.2</ele><time>2026-05-02T13:32:48.999Z</time></trkpt><trkpt lat="44.96882554963856" lon="5.411731547069275"><ele>877.0</ele><time>2026-05-02T13:32:49.999Z</time></trkpt><trkpt lat="44.96873586444311" lon="5.41180502939517"><ele>877.0</ele><time>2026-05-02T13:32:50.999Z</time></trkpt><trkpt lat="44.968646763109795" lon="5.411885510542866"><ele>877.0</ele><time>2026-05-02T13:32:51.999Z</time></trkpt><trkpt lat="44.96855792540068" lon="5.411968470751566"><ele>877.0</ele><time>2026-05-02T13:32:52.999Z</time></trkpt><trkpt lat="44.96846085127096" lon="5.412061119435264"><ele>877.0</ele><time>2026-05-02T13:32:53.999Z</time></trkpt><trkpt lat="44.968375219853286" lon="5.412184393816933"><ele>878.0</ele><time>2026-05-02T13:32:54.999Z</time></trkpt><trkpt lat="44.96830836825633" lon="5.41231708771878"><ele>879.0</ele><time>2026-05-02T13:32:55.999Z</time></trkpt><trkpt lat="44.96825783970463" lon="5.412465704772944"><ele>880.0</ele><time>2026-05-02T13:32:56.999Z</time></trkpt><trkpt lat="44.968227632029425" lon="5.412626350951639"><ele>881.0</ele><time>2026-05-02T13:32:57.999Z</time></trkpt><trkpt lat="44.968202403763975" lon="5.412782191806707"><ele>881.0000000000001</ele><time>2026-05-02T13:32:58.999Z</time></trkpt><trkpt lat="44.96818159567541" lon="5.412926832785756"><ele>881.0</ele><time>2026-05-02T13:32:59.999Z</time></trkpt><trkpt lat="44.968167049443025" lon="5.413044120003552"><ele>881.0</ele><time>2026-05-02T13:33:00.999Z</time></trkpt><trkpt lat="44.96814841350395" lon="5.413146756294624"><ele>881.0</ele><time>2026-05-02T13:33:01.999Z</time></trkpt><trkpt lat="44.9681346893088" lon="5.413248205595184"><ele>881.0000000000001</ele><time>2026-05-02T13:33:02.999Z</time></trkpt><trkpt lat="44.96811579455533" lon="5.413341194188491"><ele>881.0</ele><time>2026-05-02T13:33:03.999Z</time></trkpt><trkpt lat="44.968098800897565" lon="5.413433128067065"><ele>882.0000000000001</ele><time>2026-05-02T13:33:04.999Z</time></trkpt><trkpt lat="44.968066428181004" lon="5.413534422130752"><ele>883.0</ele><time>2026-05-02T13:33:05.999Z</time></trkpt><trkpt lat="44.96803425116542" lon="5.413650356512155"><ele>884.0</ele><time>2026-05-02T13:33:06.999Z</time></trkpt><trkpt lat="44.9680053791886" lon="5.413766236358573"><ele>885.0</ele><time>2026-05-02T13:33:07.999Z</time></trkpt><trkpt lat="44.967977272369026" lon="5.413924516988298"><ele>886.0000000000001</ele><time>2026-05-02T13:33:09.999Z</time></trkpt><trkpt lat="44.967951173695354" lon="5.414012948731822"><ele>887.0</ele><time>2026-05-02T13:33:10.999Z</time></trkpt><trkpt lat="44.96792519806346" lon="5.414116908021899"><ele>887.6666666666667</ele><time>2026-05-02T13:33:11.999Z</time></trkpt><trkpt lat="44.96787567670047" lon="5.4142206544577824"><ele>888.3333333333334</ele><time>2026-05-02T13:33:12.999Z</time></trkpt><trkpt lat="44.96784985936465" lon="5.414315241578085"><ele>889.0</ele><time>2026-05-02T13:33:13.999Z</time></trkpt><trkpt lat="44.96783923543923" lon="5.414408542531411"><ele>889.6666666666667</ele><time>2026-05-02T13:33:14.999Z</time></trkpt><trkpt lat="44.967807747180245" lon="5.414505723968188"><ele>890.3333333333334</ele><time>2026-05-02T13:33:15.999Z</time></trkpt><trkpt lat="44.96777110743129" lon="5.414608813579908"><ele>891.0</ele><time>2026-05-02T13:33:16.999Z</time></trkpt><trkpt lat="44.96773802613951" lon="5.414705151113896"><ele>891.5</ele><time>2026-05-02T13:33:17.999Z</time></trkpt><trkpt lat="44.96769182626162" lon="5.414849813789726"><ele>892.0</ele><time>2026-05-02T13:33:19.999Z</time></trkpt><trkpt lat="44.967667720387695" lon="5.41493201792165"><ele>892.5</ele><time>2026-05-02T13:33:20.999Z</time></trkpt><trkpt lat="44.967650405889614" lon="5.415048935468782"><ele>893.0</ele><time>2026-05-02T13:33:21.999Z</time></trkpt><trkpt lat="44.967605284875894" lon="5.415157244836205"><ele>893.5</ele><time>2026-05-02T13:33:22.999Z</time></trkpt><trkpt lat="44.96756394857254" lon="5.415280123067323"><ele>894.0</ele><time>2026-05-02T13:33:23.999Z</time></trkpt><trkpt lat="44.967533612104965" lon="5.4153676570902025"><ele>892.8000000000001</ele><time>2026-05-02T13:33:24.999Z</time></trkpt><trkpt lat="44.967483419928435" lon="5.415440792586039"><ele>891.6000000000001</ele><time>2026-05-02T13:33:25.999Z</time></trkpt><trkpt lat="44.96742365603321" lon="5.415511956798515"><ele>890.4</ele><time>2026-05-02T13:33:26.999Z</time></trkpt><trkpt lat="44.96736679264302" lon="5.415567833675928"><ele>889.2</ele><time>2026-05-02T13:33:27.999Z</time></trkpt><trkpt lat="44.967248939421914" lon="5.415542857230195"><ele>888.0</ele><time>2026-05-02T13:33:28.999Z</time></trkpt><trkpt lat="44.96714211279509" lon="5.415465388725252"><ele>887.0</ele><time>2026-05-02T13:33:29.999Z</time></trkpt><trkpt lat="44.96701990671542" lon="5.41539595518097"><ele>886.0</ele><time>2026-05-02T13:33:30.999Z</time></trkpt><trkpt lat="44.96689679201384" lon="5.415335244839585"><ele>885.0</ele><time>2026-05-02T13:33:31.999Z</time></trkpt><trkpt lat="44.96678413001008" lon="5.415249115539701"><ele>884.0</ele><time>2026-05-02T13:33:32.999Z</time></trkpt><trkpt lat="44.96666663405921" lon="5.415171182108099"><ele>883.0</ele><time>2026-05-02T13:33:33.999Z</time></trkpt><trkpt lat="44.96654627034058" lon="5.415091133914872"><ele>882.0</ele><time>2026-05-02T13:33:34.999Z</time></trkpt><trkpt lat="44.96642576437572" lon="5.415018042186207"><ele>881.0</ele><time>2026-05-02T13:33:35.999Z</time></trkpt><trkpt lat="44.96629745703502" lon="5.414931738013551"><ele>880.0</ele><time>2026-05-02T13:33:36.999Z</time></trkpt><trkpt lat="44.96618122213589" lon="5.414845189023747"><ele>880.0</ele><time>2026-05-02T13:33:37.999Z</time></trkpt><trkpt lat="44.96604373016511" lon="5.41479058235234"><ele>880.0</ele><time>2026-05-02T13:33:38.999Z</time></trkpt><trkpt lat="44.96591245484968" lon="5.414723706849786"><ele>880.0</ele><time>2026-05-02T13:33:39.999Z</time></trkpt><trkpt lat="44.96578345755668" lon="5.414655652032447"><ele>880.0</ele><time>2026-05-02T13:33:40.999Z</time></trkpt><trkpt lat="44.96566694665231" lon="5.414563318312245"><ele>879.5</ele><time>2026-05-02T13:33:41.999Z</time></trkpt><trkpt lat="44.96555273434848" lon="5.414432733182897"><ele>879.0</ele><time>2026-05-02T13:33:42.999Z</time></trkpt><trkpt lat="44.96543065950017" lon="5.414303811388439"><ele>878.5</ele><time>2026-05-02T13:33:43.999Z</time></trkpt><trkpt lat="44.96531635820145" lon="5.414172085835348"><ele>878.0</ele><time>2026-05-02T13:33:44.998Z</time></trkpt><trkpt lat="44.96521480872675" lon="5.4140153811928355"><ele>878.6666666666667</ele><time>2026-05-02T13:33:45.998Z</time></trkpt><trkpt lat="44.96512679727707" lon="5.4138188387463515"><ele>879.3333333333333</ele><time>2026-05-02T13:33:46.998Z</time></trkpt><trkpt lat="44.965073185773164" lon="5.413574134909574"><ele>880.0</ele><time>2026-05-02T13:33:47.998Z</time></trkpt><trkpt lat="44.96501867759277" lon="5.413298894646723"><ele>880.0</ele><time>2026-05-02T13:33:48.998Z</time></trkpt><trkpt lat="44.96502217406661" lon="5.4130092592875005"><ele>880.0</ele><time>2026-05-02T13:33:49.998Z</time></trkpt><trkpt lat="44.96503975619875" lon="5.412756556511877"><ele>880.0</ele><time>2026-05-02T13:33:50.998Z</time></trkpt><trkpt lat="44.96502685607362" lon="5.412546463049054"><ele>878.3333333333333</ele><time>2026-05-02T13:33:51.998Z</time></trkpt><trkpt lat="44.964958819468016" lon="5.412365352029516"><ele>876.6666666666667</ele><time>2026-05-02T13:33:52.998Z</time></trkpt><trkpt lat="44.96483988638522" lon="5.412203889173687"><ele>875.0</ele><time>2026-05-02T13:33:54Z</time></trkpt><trkpt lat="44.9646742140531" lon="5.412072531126963"><ele>874.6666666666667</ele><time>2026-05-02T13:33:55Z</time></trkpt><trkpt lat="44.96448276249853" lon="5.411973137519728"><ele>874.3333333333333</ele><time>2026-05-02T13:33:56Z</time></trkpt><trkpt lat="44.96429996731686" lon="5.411868672582358"><ele>874.0</ele><time>2026-05-02T13:33:57Z</time></trkpt><trkpt lat="44.96412690647981" lon="5.411726783474806"><ele>874.0</ele><time>2026-05-02T13:33:58Z</time></trkpt><trkpt lat="44.96395908226453" lon="5.41158693870332"><ele>874.0</ele><time>2026-05-02T13:33:59Z</time></trkpt><trkpt lat="44.96378469188426" lon="5.411430198048159"><ele>874.0</ele><time>2026-05-02T13:34:00Z</time></trkpt><trkpt lat="44.963618642031925" lon="5.411245433932879"><ele>872.6666666666666</ele><time>2026-05-02T13:34:01Z</time></trkpt><trkpt lat="44.96345841179335" lon="5.411040294383116"><ele>871.3333333333333</ele><time>2026-05-02T13:34:02Z</time></trkpt><trkpt lat="44.96327669129644" lon="5.410869906617043"><ele>870.0</ele><time>2026-05-02T13:34:03Z</time></trkpt><trkpt lat="44.963101981596445" lon="5.410674490069373"><ele>865.5</ele><time>2026-05-02T13:34:04Z</time></trkpt><trkpt lat="44.962925062763624" lon="5.41047850035989"><ele>861.0</ele><time>2026-05-02T13:34:05Z</time></trkpt><trkpt lat="44.96273388934375" lon="5.410308314848173"><ele>861.0</ele><time>2026-05-02T13:34:06Z</time></trkpt><trkpt lat="44.96254197120109" lon="5.410149553294851"><ele>861.0</ele><time>2026-05-02T13:34:07Z</time></trkpt><trkpt lat="44.9623426841747" lon="5.410022619488932"><ele>861.0</ele><time>2026-05-02T13:34:08Z</time></trkpt><trkpt lat="44.96214073638407" lon="5.409910792324227"><ele>860.6666666666667</ele><time>2026-05-02T13:34:09Z</time></trkpt><trkpt lat="44.9619453109833" lon="5.409782229992237"><ele>860.3333333333334</ele><time>2026-05-02T13:34:10Z</time></trkpt><trkpt lat="44.96173880008213" lon="5.409651977887717"><ele>860.0</ele><time>2026-05-02T13:34:11Z</time></trkpt><trkpt lat="44.96153116392689" lon="5.409519315297512"><ele>858.0</ele><time>2026-05-02T13:34:12Z</time></trkpt><trkpt lat="44.96133357994538" lon="5.409389795847198"><ele>856.0</ele><time>2026-05-02T13:34:13Z</time></trkpt><trkpt lat="44.96112228348798" lon="5.40926141120003"><ele>854.0</ele><time>2026-05-02T13:34:14Z</time></trkpt><trkpt lat="44.96090879596768" lon="5.4091600395385395"><ele>855.5</ele><time>2026-05-02T13:34:15Z</time></trkpt><trkpt lat="44.960674896188415" lon="5.409110456803962"><ele>857.0</ele><time>2026-05-02T13:34:16Z</time></trkpt><trkpt lat="44.96043734616533" lon="5.409084277687527"><ele>857.0</ele><time>2026-05-02T13:34:17Z</time></trkpt><trkpt lat="44.96020436269628" lon="5.4090131111687"><ele>857.0</ele><time>2026-05-02T13:34:18Z</time></trkpt><trkpt lat="44.95997723877961" lon="5.408953845466789"><ele>857.0</ele><time>2026-05-02T13:34:19Z</time></trkpt><trkpt lat="44.95976563167862" lon="5.408868692281425"><ele>857.0</ele><time>2026-05-02T13:34:20Z</time></trkpt><trkpt lat="44.95957689679559" lon="5.408724189447038"><ele>857.0</ele><time>2026-05-02T13:34:21Z</time></trkpt><trkpt lat="44.9593900404969" lon="5.408537948904927"><ele>857.5</ele><time>2026-05-02T13:34:22Z</time></trkpt><trkpt lat="44.95920379136412" lon="5.40833819264228"><ele>858.0</ele><time>2026-05-02T13:34:23Z</time></trkpt><trkpt lat="44.95902166529185" lon="5.408136537981732"><ele>857.0</ele><time>2026-05-02T13:34:24Z</time></trkpt><trkpt lat="44.9588259103651" lon="5.407940807436454"><ele>856.0</ele><time>2026-05-02T13:34:25Z</time></trkpt><trkpt lat="44.958642198706116" lon="5.407724005158318"><ele>856.0</ele><time>2026-05-02T13:34:26Z</time></trkpt><trkpt lat="44.95846686677261" lon="5.407498882225459"><ele>856.0</ele><time>2026-05-02T13:34:27Z</time></trkpt><trkpt lat="44.95830948209628" lon="5.407250025127132"><ele>857.3333333333333</ele><time>2026-05-02T13:34:28Z</time></trkpt><trkpt lat="44.95817466769105" lon="5.4069916213753"><ele>858.6666666666667</ele><time>2026-05-02T13:34:29Z</time></trkpt><trkpt lat="44.95800686984499" lon="5.406789540221947"><ele>860.0</ele><time>2026-05-02T13:34:30Z</time></trkpt><trkpt lat="44.957810329809085" lon="5.406603638053871"><ele>860.0</ele><time>2026-05-02T13:34:31Z</time></trkpt><trkpt lat="44.95760135648817" lon="5.406435665714718"><ele>860.0</ele><time>2026-05-02T13:34:32Z</time></trkpt><trkpt lat="44.957383892224556" lon="5.406318591354721"><ele>860.5</ele><time>2026-05-02T13:34:33Z</time></trkpt><trkpt lat="44.957172563020606" lon="5.406200813651694"><ele>861.0</ele><time>2026-05-02T13:34:34Z</time></trkpt><trkpt lat="44.95695751012912" lon="5.406078524686098"><ele>861.0</ele><time>2026-05-02T13:34:35Z</time></trkpt><trkpt lat="44.9567463623605" lon="5.405963653394664"><ele>861.0</ele><time>2026-05-02T13:34:36Z</time></trkpt><trkpt lat="44.9565060179233" lon="5.405969765286811"><ele>863.0</ele><time>2026-05-02T13:34:37Z</time></trkpt><trkpt lat="44.95628986205638" lon="5.405871213486677"><ele>865.0</ele><time>2026-05-02T13:34:38Z</time></trkpt><trkpt lat="44.956094736280725" lon="5.405723711021166"><ele>867.0</ele><time>2026-05-02T13:34:39Z</time></trkpt><trkpt lat="44.95590938374694" lon="5.405511046650829"><ele>866.5</ele><time>2026-05-02T13:34:40Z</time></trkpt><trkpt lat="44.955750670990334" lon="5.40527653684147"><ele>866.0</ele><time>2026-05-02T13:34:41Z</time></trkpt><trkpt lat="44.955585574069744" lon="5.405043257403643"><ele>866.0</ele><time>2026-05-02T13:34:42Z</time></trkpt><trkpt lat="44.955415009835946" lon="5.404850931986572"><ele>866.0</ele><time>2026-05-02T13:34:43Z</time></trkpt><trkpt lat="44.95523405063822" lon="5.404669903036585"><ele>866.0</ele><time>2026-05-02T13:34:43.999Z</time></trkpt><trkpt lat="44.95504507090853" lon="5.404511084917621"><ele>866.5</ele><time>2026-05-02T13:34:44.999Z</time></trkpt><trkpt lat="44.954844011175545" lon="5.40436330904411"><ele>867.0</ele><time>2026-05-02T13:34:45.999Z</time></trkpt><trkpt lat="44.9546398452169" lon="5.404214323765025"><ele>867.0</ele><time>2026-05-02T13:34:46.999Z</time></trkpt><trkpt lat="44.95442980608807" lon="5.40407213257057"><ele>867.0</ele><time>2026-05-02T13:34:47.999Z</time></trkpt><trkpt lat="44.95423295499894" lon="5.4039255983175725"><ele>868.3333333333333</ele><time>2026-05-02T13:34:48.999Z</time></trkpt><trkpt lat="44.954057276168285" lon="5.403741939240878"><ele>869.6666666666666</ele><time>2026-05-02T13:34:49.999Z</time></trkpt><trkpt lat="44.95392499303378" lon="5.403512239173585"><ele>871.0</ele><time>2026-05-02T13:34:50.999Z</time></trkpt><trkpt lat="44.953810087362065" lon="5.403284574368785"><ele>871.0</ele><time>2026-05-02T13:34:51.999Z</time></trkpt><trkpt lat="44.95369759631928" lon="5.403084087166014"><ele>871.0</ele><time>2026-05-02T13:34:52.999Z</time></trkpt><trkpt lat="44.9535858033711" lon="5.402902099036693"><ele>871.0</ele><time>2026-05-02T13:34:53.999Z</time></trkpt><trkpt lat="44.95347339994889" lon="5.402757500610751"><ele>873.6666666666666</ele><time>2026-05-02T13:34:54.999Z</time></trkpt><trkpt lat="44.95332708161638" lon="5.402637966296724"><ele>876.3333333333333</ele><time>2026-05-02T13:34:55.999Z</time></trkpt><trkpt lat="44.95318746305921" lon="5.402493394500697"><ele>879.0</ele><time>2026-05-02T13:34:56.999Z</time></trkpt><trkpt lat="44.953034841729846" lon="5.402324309051416"><ele>875.0</ele><time>2026-05-02T13:34:57.999Z</time></trkpt><trkpt lat="44.952899678317024" lon="5.402132302636573"><ele>871.0</ele><time>2026-05-02T13:34:58.999Z</time></trkpt><trkpt lat="44.95278146160229" lon="5.401964684440186"><ele>867.0</ele><time>2026-05-02T13:34:59.999Z</time></trkpt><trkpt lat="44.952676572104764" lon="5.401798975919822"><ele>867.0</ele><time>2026-05-02T13:35:00.999Z</time></trkpt><trkpt lat="44.952581312959325" lon="5.401675474886878"><ele>867.0</ele><time>2026-05-02T13:35:01.999Z</time></trkpt><trkpt lat="44.95246687731794" lon="5.401558504140922"><ele>867.0</ele><time>2026-05-02T13:35:02.999Z</time></trkpt><trkpt lat="44.952340219597815" lon="5.401466398116301"><ele>867.0</ele><time>2026-05-02T13:35:03.999Z</time></trkpt><trkpt lat="44.95220999393079" lon="5.401398178708531"><ele>868.4000000000001</ele><time>2026-05-02T13:35:04.999Z</time></trkpt><trkpt lat="44.95208438729461" lon="5.401355385036669"><ele>869.8000000000001</ele><time>2026-05-02T13:35:05.999Z</time></trkpt><trkpt lat="44.95197570833198" lon="5.401327389399394"><ele>871.2</ele><time>2026-05-02T13:35:06.999Z</time></trkpt><trkpt lat="44.95187861850073" lon="5.401278858461086"><ele>872.6</ele><time>2026-05-02T13:35:07.999Z</time></trkpt><trkpt lat="44.951787553990904" lon="5.40120040713056"><ele>874.0</ele><time>2026-05-02T13:35:08.999Z</time></trkpt><trkpt lat="44.95170608929075" lon="5.401095773623673"><ele>876.5</ele><time>2026-05-02T13:35:09.999Z</time></trkpt><trkpt lat="44.95162404997041" lon="5.400978168981783"><ele>879.0</ele><time>2026-05-02T13:35:10.999Z</time></trkpt><trkpt lat="44.95154565066458" lon="5.400855592950464"><ele>881.5</ele><time>2026-05-02T13:35:11.999Z</time></trkpt><trkpt lat="44.951468695848085" lon="5.4007350643092105"><ele>884.0</ele><time>2026-05-02T13:35:12.999Z</time></trkpt><trkpt lat="44.95139140796087" lon="5.400611267919762"><ele>882.5</ele><time>2026-05-02T13:35:13.999Z</time></trkpt><trkpt lat="44.95132020309315" lon="5.400496049308062"><ele>881.0</ele><time>2026-05-02T13:35:14.999Z</time></trkpt><trkpt lat="44.9512348292667" lon="5.400394829262856"><ele>879.5</ele><time>2026-05-02T13:35:15.999Z</time></trkpt><trkpt lat="44.951130143113396" lon="5.400302156917325"><ele>878.0</ele><time>2026-05-02T13:35:16.999Z</time></trkpt><trkpt lat="44.95101445916579" lon="5.400227544992041"><ele>878.0</ele><time>2026-05-02T13:35:17.999Z</time></trkpt><trkpt lat="44.950902717211555" lon="5.400188433136328"><ele>878.0</ele><time>2026-05-02T13:35:18.999Z</time></trkpt><trkpt lat="44.95078581934303" lon="5.400153346561321"><ele>878.0</ele><time>2026-05-02T13:35:19.999Z</time></trkpt><trkpt lat="44.95067163131732" lon="5.400122508610646"><ele>878.0</ele><time>2026-05-02T13:35:20.999Z</time></trkpt><trkpt lat="44.95056250462295" lon="5.4000919179336995"><ele>879.8</ele><time>2026-05-02T13:35:21.999Z</time></trkpt><trkpt lat="44.95046173056333" lon="5.4000379281302635"><ele>881.5999999999999</ele><time>2026-05-02T13:35:22.999Z</time></trkpt><trkpt lat="44.950374652911826" lon="5.399961181206236"><ele>883.4000000000001</ele><time>2026-05-02T13:35:23.999Z</time></trkpt><trkpt lat="44.95030460082103" lon="5.399862520634567"><ele>885.2</ele><time>2026-05-02T13:35:24.999Z</time></trkpt><trkpt lat="44.95024641613864" lon="5.399773389036723"><ele>887.0</ele><time>2026-05-02T13:35:25.999Z</time></trkpt><trkpt lat="44.950201204432624" lon="5.399701428090688"><ele>887.2</ele><time>2026-05-02T13:35:26.999Z</time></trkpt><trkpt lat="44.950153304579935" lon="5.399639429149761"><ele>887.4000000000001</ele><time>2026-05-02T13:35:27.999Z</time></trkpt><trkpt lat="44.95008865089353" lon="5.399549385052812"><ele>887.5999999999999</ele><time>2026-05-02T13:35:28.999Z</time></trkpt><trkpt lat="44.95003160253948" lon="5.3994160365501385"><ele>887.8</ele><time>2026-05-02T13:35:29.999Z</time></trkpt><trkpt lat="44.94999977531729" lon="5.399240923410061"><ele>888.0</ele><time>2026-05-02T13:35:30.999Z</time></trkpt><trkpt lat="44.95002831096915" lon="5.399062474117662"><ele>888.0</ele><time>2026-05-02T13:35:31.999Z</time></trkpt><trkpt lat="44.95011606330514" lon="5.398913940124931"><ele>888.0</ele><time>2026-05-02T13:35:32.999Z</time></trkpt><trkpt lat="44.95025480913169" lon="5.398773122024547"><ele>888.0</ele><time>2026-05-02T13:35:33.999Z</time></trkpt><trkpt lat="44.95040646662253" lon="5.398643895162771"><ele>890.75</ele><time>2026-05-02T13:35:34.999Z</time></trkpt><trkpt lat="44.95050515160502" lon="5.398529374720503"><ele>893.5</ele><time>2026-05-02T13:35:35.999Z</time></trkpt><trkpt lat="44.950555467119976" lon="5.398391232193865"><ele>896.25</ele><time>2026-05-02T13:35:36.999Z</time></trkpt><trkpt lat="44.95057368451767" lon="5.398230236435979"><ele>899.0</ele><time>2026-05-02T13:35:37.999Z</time></trkpt><trkpt lat="44.95052960992643" lon="5.398073156769328"><ele>901.2</ele><time>2026-05-02T13:35:38.999Z</time></trkpt><trkpt lat="44.95044028187063" lon="5.397975090681562"><ele>903.4000000000001</ele><time>2026-05-02T13:35:39.999Z</time></trkpt><trkpt lat="44.950331086946086" lon="5.3979278225510114"><ele>905.6</ele><time>2026-05-02T13:35:40.999Z</time></trkpt><trkpt lat="44.95023996643733" lon="5.397885853303"><ele>907.8</ele><time>2026-05-02T13:35:41.999Z</time></trkpt><trkpt lat="44.95016805336247" lon="5.397788182421602"><ele>910.0</ele><time>2026-05-02T13:35:42.999Z</time></trkpt><trkpt lat="44.950124748453106" lon="5.3976227347687695"><ele>910.0</ele><time>2026-05-02T13:35:43.999Z</time></trkpt><trkpt lat="44.95015344468412" lon="5.397412508034833"><ele>910.0</ele><time>2026-05-02T13:35:44.998Z</time></trkpt><trkpt lat="44.95018707138925" lon="5.397206136602749"><ele>910.0</ele><time>2026-05-02T13:35:45.998Z</time></trkpt><trkpt lat="44.95019807415293" lon="5.396992870807612"><ele>913.3333333333333</ele><time>2026-05-02T13:35:46.998Z</time></trkpt><trkpt lat="44.95021185380658" lon="5.396735455140863"><ele>916.6666666666667</ele><time>2026-05-02T13:35:47.998Z</time></trkpt><trkpt lat="44.950216145950236" lon="5.396448188622132"><ele>920.0</ele><time>2026-05-02T13:35:48.998Z</time></trkpt><trkpt lat="44.95021156345348" lon="5.396147165672313"><ele>922.0</ele><time>2026-05-02T13:35:49.998Z</time></trkpt><trkpt lat="44.95019802975899" lon="5.3958543078829235"><ele>924.0</ele><time>2026-05-02T13:35:50.998Z</time></trkpt><trkpt lat="44.95018106316343" lon="5.395585620322191"><ele>926.0</ele><time>2026-05-02T13:35:51.998Z</time></trkpt><trkpt lat="44.95023744712091" lon="5.395314995486634"><ele>926.0</ele><time>2026-05-02T13:35:52.998Z</time></trkpt><trkpt lat="44.95031739299" lon="5.395051684944075"><ele>926.0</ele><time>2026-05-02T13:35:53.998Z</time></trkpt><trkpt lat="44.9504372865025" lon="5.394749041446113"><ele>926.0</ele><time>2026-05-02T13:35:54.998Z</time></trkpt><trkpt lat="44.950550478535625" lon="5.394474766122331"><ele>926.0</ele><time>2026-05-02T13:35:55.998Z</time></trkpt><trkpt lat="44.95064971820639" lon="5.394219904738568"><ele>926.0</ele><time>2026-05-02T13:35:56.998Z</time></trkpt><trkpt lat="44.95069893511838" lon="5.393946280526152"><ele>926.0</ele><time>2026-05-02T13:35:57.998Z</time></trkpt><trkpt lat="44.95071757919039" lon="5.393695109386361"><ele>926.0</ele><time>2026-05-02T13:35:58.998Z</time></trkpt><trkpt lat="44.95077646312191" lon="5.393502785010744"><ele>926.0</ele><time>2026-05-02T13:36:00Z</time></trkpt><trkpt lat="44.950895248241075" lon="5.393338348518855"><ele>926.0</ele><time>2026-05-02T13:36:01Z</time></trkpt><trkpt lat="44.95104057487619" lon="5.393140819160352"><ele>928.6666666666667</ele><time>2026-05-02T13:36:02Z</time></trkpt><trkpt lat="44.951172690220666" lon="5.392906570685111"><ele>931.3333333333333</ele><time>2026-05-02T13:36:03Z</time></trkpt><trkpt lat="44.95124320134941" lon="5.392624975621871"><ele>934.0</ele><time>2026-05-02T13:36:04Z</time></trkpt><trkpt lat="44.95126821374315" lon="5.392313430391285"><ele>933.3333333333333</ele><time>2026-05-02T13:36:05Z</time></trkpt><trkpt lat="44.95129627593153" lon="5.392046170741797"><ele>932.6666666666667</ele><time>2026-05-02T13:36:06Z</time></trkpt><trkpt lat="44.951363672513715" lon="5.391844257450771"><ele>932.0</ele><time>2026-05-02T13:36:07Z</time></trkpt><trkpt lat="44.951461188876806" lon="5.391721312525122"><ele>932.0</ele><time>2026-05-02T13:36:08Z</time></trkpt><trkpt lat="44.95160264430326" lon="5.391669092533172"><ele>932.0</ele><time>2026-05-02T13:36:09Z</time></trkpt><trkpt lat="44.95177617789816" lon="5.391658127103523"><ele>932.0</ele><time>2026-05-02T13:36:10Z</time></trkpt><trkpt lat="44.95198119512417" lon="5.3916715119072"><ele>933.6666666666667</ele><time>2026-05-02T13:36:11Z</time></trkpt><trkpt lat="44.95220658036191" lon="5.391716241120753"><ele>935.3333333333333</ele><time>2026-05-02T13:36:12Z</time></trkpt><trkpt lat="44.952388097252246" lon="5.391717332288933"><ele>937.0</ele><time>2026-05-02T13:36:13Z</time></trkpt><trkpt lat="44.95255133202886" lon="5.3916364779460455"><ele>940.0</ele><time>2026-05-02T13:36:14Z</time></trkpt><trkpt lat="44.95271075988448" lon="5.391470322592026"><ele>943.0</ele><time>2026-05-02T13:36:15Z</time></trkpt><trkpt lat="44.952844024410304" lon="5.3912278248473"><ele>946.0</ele><time>2026-05-02T13:36:16Z</time></trkpt><trkpt lat="44.95296708650697" lon="5.390957527016642"><ele>946.0</ele><time>2026-05-02T13:36:17Z</time></trkpt><trkpt lat="44.95310083087447" lon="5.390707283011892"><ele>946.0</ele><time>2026-05-02T13:36:18Z</time></trkpt><trkpt lat="44.95327186345235" lon="5.390510858106401"><ele>946.0</ele><time>2026-05-02T13:36:19Z</time></trkpt><trkpt lat="44.95343668463199" lon="5.390326889554205"><ele>951.3333333333333</ele><time>2026-05-02T13:36:20Z</time></trkpt><trkpt lat="44.95359481893885" lon="5.390204358237306"><ele>956.6666666666667</ele><time>2026-05-02T13:36:21Z</time></trkpt><trkpt lat="44.95369864288886" lon="5.3900535557921945"><ele>962.0</ele><time>2026-05-02T13:36:22Z</time></trkpt><trkpt lat="44.953745538458804" lon="5.389839954053736"><ele>966.0</ele><time>2026-05-02T13:36:23Z</time></trkpt><trkpt lat="44.95374782044233" lon="5.389586154042756"><ele>970.0</ele><time>2026-05-02T13:36:24Z</time></trkpt><trkpt lat="44.95368140014342" lon="5.389331834198288"><ele>974.0</ele><time>2026-05-02T13:36:25Z</time></trkpt><trkpt lat="44.95355891517265" lon="5.3890940351715235"><ele>974.0</ele><time>2026-05-02T13:36:26Z</time></trkpt><trkpt lat="44.953374222991776" lon="5.388881116520629"><ele>974.0</ele><time>2026-05-02T13:36:27Z</time></trkpt><trkpt lat="44.95320113013371" lon="5.388611425554131"><ele>973.5</ele><time>2026-05-02T13:36:28Z</time></trkpt><trkpt lat="44.95301679503833" lon="5.388328325327115"><ele>973.0</ele><time>2026-05-02T13:36:29Z</time></trkpt><trkpt lat="44.9528254157486" lon="5.388067259216974"><ele>973.6666666666666</ele><time>2026-05-02T13:36:30Z</time></trkpt><trkpt lat="44.95268344146285" lon="5.3878343771555794"><ele>974.3333333333333</ele><time>2026-05-02T13:36:31Z</time></trkpt><trkpt lat="44.952560483697326" lon="5.387637359016688"><ele>975.0</ele><time>2026-05-02T13:36:32Z</time></trkpt><trkpt lat="44.95244162081597" lon="5.387467730919299"><ele>975.0</ele><time>2026-05-02T13:36:33Z</time></trkpt><trkpt lat="44.95231799989991" lon="5.387330407767025"><ele>975.0</ele><time>2026-05-02T13:36:34Z</time></trkpt><trkpt lat="44.95219505362823" lon="5.387249584972581"><ele>975.0</ele><time>2026-05-02T13:36:35Z</time></trkpt><trkpt lat="44.95212664187112" lon="5.387164706473813"><ele>975.0</ele><time>2026-05-02T13:36:36Z</time></trkpt><trkpt lat="44.952088528962435" lon="5.387085020621243"><ele>975.0</ele><time>2026-05-02T13:36:37Z</time></trkpt><trkpt lat="44.9521741134669" lon="5.386948503765458"><ele>975.0</ele><time>2026-05-02T13:36:39Z</time></trkpt><trkpt lat="44.952270006902346" lon="5.386993003068072"><ele>975.0</ele><time>2026-05-02T13:36:40Z</time></trkpt><trkpt lat="44.95237468529482" lon="5.387127938536807"><ele>975.0</ele><time>2026-05-02T13:36:41Z</time></trkpt><trkpt lat="44.95251711265814" lon="5.387250687008689"><ele>982.0</ele><time>2026-05-02T13:36:42Z</time></trkpt><trkpt lat="44.95270478967574" lon="5.387366598810376"><ele>989.0</ele><time>2026-05-02T13:36:43Z</time></trkpt><trkpt lat="44.95292320131521" lon="5.387476006228256"><ele>996.0</ele><time>2026-05-02T13:36:44Z</time></trkpt><trkpt lat="44.95316896916042" lon="5.387607571614783"><ele>1006.0</ele><time>2026-05-02T13:36:45Z</time></trkpt><trkpt lat="44.953420531792766" lon="5.387766234716423"><ele>1016.0</ele><time>2026-05-02T13:36:46Z</time></trkpt><trkpt lat="44.953678782900184" lon="5.387962034996444"><ele>1005.5</ele><time>2026-05-02T13:36:47Z</time></trkpt><trkpt lat="44.95391179042299" lon="5.3881383908956995"><ele>995.0</ele><time>2026-05-02T13:36:47.999Z</time></trkpt><trkpt lat="44.9541203751096" lon="5.388293752274125"><ele>1003.6666666666667</ele><time>2026-05-02T13:36:48.999Z</time></trkpt><trkpt lat="44.954290194339826" lon="5.388435938887814"><ele>1012.3333333333333</ele><time>2026-05-02T13:36:49.999Z</time></trkpt><trkpt lat="44.95444700503569" lon="5.388560179872661"><ele>1021.0</ele><time>2026-05-02T13:36:50.999Z</time></trkpt><trkpt lat="44.95457741361994" lon="5.388673543755331"><ele>1021.0</ele><time>2026-05-02T13:36:51.999Z</time></trkpt><trkpt lat="44.95468023512421" lon="5.3887867783881545"><ele>1020.9999999999999</ele><time>2026-05-02T13:36:52.999Z</time></trkpt><trkpt lat="44.954769677086006" lon="5.388866684092827"><ele>1020.9999999999999</ele><time>2026-05-02T13:36:53.999Z</time></trkpt><trkpt lat="44.95485599971335" lon="5.388869666045404"><ele>1021.0</ele><time>2026-05-02T13:36:54.999Z</time></trkpt><trkpt lat="44.95491658135358" lon="5.388777587135923"><ele>1021.0</ele><time>2026-05-02T13:36:55.999Z</time></trkpt><trkpt lat="44.954927956231096" lon="5.388640166740614"><ele>1021.0</ele><time>2026-05-02T13:36:56.999Z</time></trkpt><trkpt lat="44.95485891348711" lon="5.388501174406957"><ele>1021.0</ele><time>2026-05-02T13:36:57.999Z</time></trkpt><trkpt lat="44.95473065619364" lon="5.38837272983431"><ele>1021.0</ele><time>2026-05-02T13:36:58.999Z</time></trkpt><trkpt lat="44.95458909749697" lon="5.388180237570657"><ele>1019.3333333333333</ele><time>2026-05-02T13:36:59.999Z</time></trkpt><trkpt lat="44.95444512841982" lon="5.387960806699835"><ele>1017.6666666666667</ele><time>2026-05-02T13:37:00.999Z</time></trkpt><trkpt lat="44.95427901349466" lon="5.387727020792004"><ele>1016.0</ele><time>2026-05-02T13:37:01.999Z</time></trkpt><trkpt lat="44.9541208611121" lon="5.387440016613826"><ele>1030.5</ele><time>2026-05-02T13:37:02.999Z</time></trkpt><trkpt lat="44.95394009731956" lon="5.3871661091738074"><ele>1045.0</ele><time>2026-05-02T13:37:03.999Z</time></trkpt><trkpt lat="44.953735137080486" lon="5.386901628568059"><ele>1045.0</ele><time>2026-05-02T13:37:04.999Z</time></trkpt><trkpt lat="44.95353947965676" lon="5.386732823336545"><ele>1045.0</ele><time>2026-05-02T13:37:05.999Z</time></trkpt><trkpt lat="44.95338399050682" lon="5.386558065477922"><ele>1045.0</ele><time>2026-05-02T13:37:06.999Z</time></trkpt><trkpt lat="44.95323133198371" lon="5.386410073584016"><ele>1049.0</ele><time>2026-05-02T13:37:07.999Z</time></trkpt><trkpt lat="44.95305946850347" lon="5.386242760706081"><ele>1053.0</ele><time>2026-05-02T13:37:08.999Z</time></trkpt><trkpt lat="44.95286564914142" lon="5.386063032719842"><ele>1057.0</ele><time>2026-05-02T13:37:09.999Z</time></trkpt><trkpt lat="44.95265320323193" lon="5.385895579521482"><ele>1047.5</ele><time>2026-05-02T13:37:10.999Z</time></trkpt><trkpt lat="44.95243050876059" lon="5.385722574138977"><ele>1038.0</ele><time>2026-05-02T13:37:11.999Z</time></trkpt><trkpt lat="44.952207419958434" lon="5.385525534066856"><ele>1055.0</ele><time>2026-05-02T13:37:12.999Z</time></trkpt><trkpt lat="44.9519634001412" lon="5.385321359387562"><ele>1072.0</ele><time>2026-05-02T13:37:13.999Z</time></trkpt><trkpt lat="44.95171832889604" lon="5.385095814025237"><ele>1060.5</ele><time>2026-05-02T13:37:14.999Z</time></trkpt><trkpt lat="44.95147822825779" lon="5.384874192743692"><ele>1049.0</ele><time>2026-05-02T13:37:15.999Z</time></trkpt><trkpt lat="44.951265028269745" lon="5.384696206847937"><ele>1058.0</ele><time>2026-05-02T13:37:16.999Z</time></trkpt><trkpt lat="44.9510703420571" lon="5.384535630420153"><ele>1067.0</ele><time>2026-05-02T13:37:17.999Z</time></trkpt><trkpt lat="44.950838370191434" lon="5.38439367832778"><ele>1067.0</ele><time>2026-05-02T13:37:18.999Z</time></trkpt><trkpt lat="44.950594238976514" lon="5.384255028961294"><ele>1067.0</ele><time>2026-05-02T13:37:19.999Z</time></trkpt><trkpt lat="44.95036062434259" lon="5.384133588925253"><ele>1067.0</ele><time>2026-05-02T13:37:20.999Z</time></trkpt><trkpt lat="44.950130151877865" lon="5.384071432502169"><ele>1067.0</ele><time>2026-05-02T13:37:21.999Z</time></trkpt><trkpt lat="44.94992140901731" lon="5.3840016887504785"><ele>1067.0</ele><time>2026-05-02T13:37:22.999Z</time></trkpt><trkpt lat="44.94972349466143" lon="5.383948005099133"><ele>1070.3333333333335</ele><time>2026-05-02T13:37:23.999Z</time></trkpt><trkpt lat="44.949535716337046" lon="5.38381998686561"><ele>1073.6666666666667</ele><time>2026-05-02T13:37:24.999Z</time></trkpt><trkpt lat="44.94935870875022" lon="5.383709700599343"><ele>1077.0</ele><time>2026-05-02T13:37:25.999Z</time></trkpt><trkpt lat="44.94920244495528" lon="5.383606080431089"><ele>1077.0</ele><time>2026-05-02T13:37:26.999Z</time></trkpt><trkpt lat="44.94906561527092" lon="5.3835180633156305"><ele>1077.0</ele><time>2026-05-02T13:37:27.999Z</time></trkpt><trkpt lat="44.948949000117196" lon="5.383434106194106"><ele>1077.0</ele><time>2026-05-02T13:37:28.999Z</time></trkpt><trkpt lat="44.94885569949376" lon="5.383313875270484"><ele>1077.0</ele><time>2026-05-02T13:37:29.999Z</time></trkpt><trkpt lat="44.94880578397022" lon="5.383141646813845"><ele>1078.25</ele><time>2026-05-02T13:37:30.999Z</time></trkpt><trkpt lat="44.948819744242016" lon="5.3829578050984885"><ele>1079.5</ele><time>2026-05-02T13:37:31.999Z</time></trkpt><trkpt lat="44.94884530115793" lon="5.382764414304753"><ele>1080.75</ele><time>2026-05-02T13:37:32.999Z</time></trkpt><trkpt lat="44.9488847966048" lon="5.382613036272996"><ele>1082.0</ele><time>2026-05-02T13:37:33.999Z</time></trkpt><trkpt lat="44.94885359788892" lon="5.38249325879788"><ele>1082.0</ele><time>2026-05-02T13:37:34.999Z</time></trkpt><trkpt lat="44.948783158875024" lon="5.382361765199667"><ele>1082.0</ele><time>2026-05-02T13:37:35.999Z</time></trkpt><trkpt lat="44.94861354132048" lon="5.382281495090609"><ele>1082.0</ele><time>2026-05-02T13:37:36.999Z</time></trkpt><trkpt lat="44.948418946975" lon="5.382170382532075"><ele>1080.6666666666667</ele><time>2026-05-02T13:37:37.999Z</time></trkpt><trkpt lat="44.948222358163925" lon="5.38203658450932"><ele>1079.3333333333333</ele><time>2026-05-02T13:37:38.999Z</time></trkpt><trkpt lat="44.94801372315598" lon="5.381899242625392"><ele>1078.0</ele><time>2026-05-02T13:37:39.999Z</time></trkpt><trkpt lat="44.947766975496556" lon="5.381807189417945"><ele>1088.5</ele><time>2026-05-02T13:37:40.999Z</time></trkpt><trkpt lat="44.94751423848992" lon="5.381704768605416"><ele>1099.0</ele><time>2026-05-02T13:37:41.999Z</time></trkpt><trkpt lat="44.94725352961984" lon="5.38156664847171"><ele>1099.0</ele><time>2026-05-02T13:37:42.999Z</time></trkpt><trkpt lat="44.94701991441779" lon="5.381436981971289"><ele>1099.0</ele><time>2026-05-02T13:37:43.999Z</time></trkpt><trkpt lat="44.94681933477498" lon="5.381303673370753"><ele>1101.5</ele><time>2026-05-02T13:37:44.999Z</time></trkpt><trkpt lat="44.94661766553437" lon="5.381122351671465"><ele>1104.0</ele><time>2026-05-02T13:37:45.999Z</time></trkpt><trkpt lat="44.94641028580359" lon="5.380921163228227"><ele>1104.0</ele><time>2026-05-02T13:37:46.999Z</time></trkpt><trkpt lat="44.946196130832426" lon="5.380716340993768"><ele>1104.0</ele><time>2026-05-02T13:37:47.998Z</time></trkpt><trkpt lat="44.94598039352433" lon="5.380475431300853"><ele>1110.5</ele><time>2026-05-02T13:37:48.998Z</time></trkpt><trkpt lat="44.94578643168111" lon="5.380247626357203"><ele>1117.0</ele><time>2026-05-02T13:37:49.998Z</time></trkpt><trkpt lat="44.94563637460468" lon="5.380035680832596"><ele>1117.0</ele><time>2026-05-02T13:37:50.998Z</time></trkpt><trkpt lat="44.94550694627969" lon="5.379798413786035"><ele>1117.0</ele><time>2026-05-02T13:37:51.998Z</time></trkpt><trkpt lat="44.94540458207501" lon="5.379515948872806"><ele>1117.0</ele><time>2026-05-02T13:37:52.998Z</time></trkpt><trkpt lat="44.94529791993895" lon="5.379189493690167"><ele>1112.0</ele><time>2026-05-02T13:37:53.998Z</time></trkpt><trkpt lat="44.945190780306575" lon="5.37885259882878"><ele>1107.0</ele><time>2026-05-02T13:37:54.998Z</time></trkpt><trkpt lat="44.945120504560926" lon="5.378532172548325"><ele>1104.0</ele><time>2026-05-02T13:37:55.998Z</time></trkpt><trkpt lat="44.945071576242235" lon="5.378156334731491"><ele>1101.0</ele><time>2026-05-02T13:37:56.998Z</time></trkpt><trkpt lat="44.94502311007764" lon="5.377756768293406"><ele>1117.0</ele><time>2026-05-02T13:37:57.998Z</time></trkpt><trkpt lat="44.9450295919477" lon="5.377343226509655"><ele>1133.0</ele><time>2026-05-02T13:37:58.998Z</time></trkpt><trkpt lat="44.944985655906954" lon="5.376944922856232"><ele>1134.5</ele><time>2026-05-02T13:37:59.998Z</time></trkpt><trkpt lat="44.94493463466575" lon="5.376549446301587"><ele>1136.0</ele><time>2026-05-02T13:38:00.998Z</time></trkpt><trkpt lat="44.94491650112184" lon="5.376150504782599"><ele>1137.5</ele><time>2026-05-02T13:38:01.998Z</time></trkpt><trkpt lat="44.94492235304368" lon="5.3757289663865935"><ele>1139.0</ele><time>2026-05-02T13:38:02.998Z</time></trkpt><trkpt lat="44.94491799807938" lon="5.3753009101419424"><ele>1142.0</ele><time>2026-05-02T13:38:03.998Z</time></trkpt><trkpt lat="44.94490077085491" lon="5.374869239300636"><ele>1145.0</ele><time>2026-05-02T13:38:04.998Z</time></trkpt><trkpt lat="44.94486572678373" lon="5.374447471019629"><ele>1146.0</ele><time>2026-05-02T13:38:06Z</time></trkpt><trkpt lat="44.944828921255485" lon="5.374070846142202"><ele>1147.0</ele><time>2026-05-02T13:38:07Z</time></trkpt><trkpt lat="44.94478143092857" lon="5.37374949507238"><ele>1147.0</ele><time>2026-05-02T13:38:08Z</time></trkpt><trkpt lat="44.94471202965317" lon="5.373433127814288"><ele>1147.0</ele><time>2026-05-02T13:38:09Z</time></trkpt><trkpt lat="44.944607284000334" lon="5.373106981342349"><ele>1144.5</ele><time>2026-05-02T13:38:10Z</time></trkpt><trkpt lat="44.94449538856882" lon="5.372768343435742"><ele>1142.0</ele><time>2026-05-02T13:38:11Z</time></trkpt><trkpt lat="44.944384164514965" lon="5.372412979991711"><ele>1140.0</ele><time>2026-05-02T13:38:12Z</time></trkpt><trkpt lat="44.944280821964384" lon="5.372049253545375"><ele>1138.0</ele><time>2026-05-02T13:38:13Z</time></trkpt><trkpt lat="44.94416602858727" lon="5.371698001359468"><ele>1154.0</ele><time>2026-05-02T13:38:14Z</time></trkpt><trkpt lat="44.94406937512896" lon="5.3713756019653225"><ele>1170.0</ele><time>2026-05-02T13:38:15Z</time></trkpt><trkpt lat="44.943947925672724" lon="5.371112645974958"><ele>1170.0</ele><time>2026-05-02T13:38:16Z</time></trkpt><trkpt lat="44.94387426680527" lon="5.370827397204006"><ele>1170.0</ele><time>2026-05-02T13:38:17Z</time></trkpt><trkpt lat="44.943865166530244" lon="5.370525551447927"><ele>1170.0</ele><time>2026-05-02T13:38:18Z</time></trkpt><trkpt lat="44.94386601225582" lon="5.370206687317833"><ele>1172.0</ele><time>2026-05-02T13:38:19Z</time></trkpt><trkpt lat="44.94392416498702" lon="5.369882097729083"><ele>1174.0</ele><time>2026-05-02T13:38:20Z</time></trkpt><trkpt lat="44.9439757953999" lon="5.369601926110759"><ele>1176.0</ele><time>2026-05-02T13:38:21Z</time></trkpt><trkpt lat="44.9440193678621" lon="5.369356398170632"><ele>1178.6666666666667</ele><time>2026-05-02T13:38:22Z</time></trkpt><trkpt lat="44.944032216615575" lon="5.369128528843577"><ele>1181.3333333333335</ele><time>2026-05-02T13:38:23Z</time></trkpt><trkpt lat="44.943993675048915" lon="5.368893518696575"><ele>1184.0</ele><time>2026-05-02T13:38:24Z</time></trkpt><trkpt lat="44.94390166660528" lon="5.368624224520877"><ele>1191.5</ele><time>2026-05-02T13:38:25Z</time></trkpt><trkpt lat="44.94382902662797" lon="5.368327925227058"><ele>1199.0</ele><time>2026-05-02T13:38:26Z</time></trkpt><trkpt lat="44.94378749623324" lon="5.3680052484672425"><ele>1204.0</ele><time>2026-05-02T13:38:27Z</time></trkpt><trkpt lat="44.94374725784342" lon="5.367686569516732"><ele>1209.0</ele><time>2026-05-02T13:38:28Z</time></trkpt><trkpt lat="44.943661449098705" lon="5.367395259639676"><ele>1210.0</ele><time>2026-05-02T13:38:29Z</time></trkpt><trkpt lat="44.943586863943004" lon="5.367153526491688"><ele>1211.0</ele><time>2026-05-02T13:38:30Z</time></trkpt><trkpt lat="44.943528845423806" lon="5.366935541030828"><ele>1212.0</ele><time>2026-05-02T13:38:31Z</time></trkpt><trkpt lat="44.943502290805824" lon="5.366716510240844"><ele>1212.0</ele><time>2026-05-02T13:38:32Z</time></trkpt><trkpt lat="44.943519438812565" lon="5.3665077406496815"><ele>1212.0</ele><time>2026-05-02T13:38:33Z</time></trkpt><trkpt lat="44.943601306813164" lon="5.3663199131622665"><ele>1212.0</ele><time>2026-05-02T13:38:34Z</time></trkpt><trkpt lat="44.943721623418966" lon="5.366148063366688"><ele>1212.3333333333333</ele><time>2026-05-02T13:38:35Z</time></trkpt><trkpt lat="44.9438340335488" lon="5.365944378961757"><ele>1212.6666666666665</ele><time>2026-05-02T13:38:36Z</time></trkpt><trkpt lat="44.943885968922935" lon="5.365687793907658"><ele>1213.0</ele><time>2026-05-02T13:38:37Z</time></trkpt><trkpt lat="44.9438879312638" lon="5.365358097721959"><ele>1214.5</ele><time>2026-05-02T13:38:38Z</time></trkpt><trkpt lat="44.94386194694026" lon="5.3650169727418735"><ele>1216.0</ele><time>2026-05-02T13:38:39Z</time></trkpt><trkpt lat="44.94382542501701" lon="5.3647246710246375"><ele>1217.0</ele><time>2026-05-02T13:38:40Z</time></trkpt><trkpt lat="44.94377523550669" lon="5.364475121066565"><ele>1218.0</ele><time>2026-05-02T13:38:41Z</time></trkpt><trkpt lat="44.943703690880085" lon="5.364285783404561"><ele>1219.0</ele><time>2026-05-02T13:38:42Z</time></trkpt><trkpt lat="44.94364201443891" lon="5.364106467557145"><ele>1219.0</ele><time>2026-05-02T13:38:43Z</time></trkpt><trkpt lat="44.943591327439584" lon="5.3639396396960475"><ele>1219.0</ele><time>2026-05-02T13:38:44Z</time></trkpt><trkpt lat="44.943572048799815" lon="5.363796555533368"><ele>1219.0</ele><time>2026-05-02T13:38:45Z</time></trkpt><trkpt lat="44.94357457555955" lon="5.363624086918295"><ele>1219.0</ele><time>2026-05-02T13:38:46Z</time></trkpt><trkpt lat="44.94361962328246" lon="5.363459632952264"><ele>1219.0</ele><time>2026-05-02T13:38:47Z</time></trkpt><trkpt lat="44.94370880303816" lon="5.363292933188701"><ele>1219.0</ele><time>2026-05-02T13:38:48Z</time></trkpt><trkpt lat="44.9437957715929" lon="5.363129183695084"><ele>1219.0</ele><time>2026-05-02T13:38:49Z</time></trkpt><trkpt lat="44.94389221081519" lon="5.362960649631174"><ele>1219.0</ele><time>2026-05-02T13:38:50Z</time></trkpt><trkpt lat="44.94398653692149" lon="5.362801031300677"><ele>1217.0</ele><time>2026-05-02T13:38:51Z</time></trkpt><trkpt lat="44.94407395015618" lon="5.36262467922623"><ele>1215.0</ele><time>2026-05-02T13:38:51.999Z</time></trkpt><trkpt lat="44.94416649590116" lon="5.3624507346918655"><ele>1213.0</ele><time>2026-05-02T13:38:52.999Z</time></trkpt><trkpt lat="44.94426519271311" lon="5.362299631309438"><ele>1212.6666666666665</ele><time>2026-05-02T13:38:53.999Z</time></trkpt><trkpt lat="44.944393437687715" lon="5.3621275454806465"><ele>1212.3333333333333</ele><time>2026-05-02T13:38:54.999Z</time></trkpt><trkpt lat="44.944529159661904" lon="5.361999449991182"><ele>1212.0</ele><time>2026-05-02T13:38:55.999Z</time></trkpt><trkpt lat="44.944686407073846" lon="5.361899338773867"><ele>1212.0</ele><time>2026-05-02T13:38:56.999Z</time></trkpt><trkpt lat="44.94486564942921" lon="5.36183173399099"><ele>1212.0</ele><time>2026-05-02T13:38:57.999Z</time></trkpt><trkpt lat="44.94504915167415" lon="5.361798151406596"><ele>1212.0</ele><time>2026-05-02T13:38:58.999Z</time></trkpt><trkpt lat="44.94523501776475" lon="5.361737620656251"><ele>1213.0</ele><time>2026-05-02T13:38:59.999Z</time></trkpt><trkpt lat="44.945420294379566" lon="5.36161506623687"><ele>1214.0</ele><time>2026-05-02T13:39:00.999Z</time></trkpt><trkpt lat="44.945611331031735" lon="5.361461516447024"><ele>1215.0</ele><time>2026-05-02T13:39:01.999Z</time></trkpt><trkpt lat="44.94579776218942" lon="5.361302818312405"><ele>1215.6666666666667</ele><time>2026-05-02T13:39:02.999Z</time></trkpt><trkpt lat="44.94597846017301" lon="5.361173010318092"><ele>1216.3333333333335</ele><time>2026-05-02T13:39:03.999Z</time></trkpt><trkpt lat="44.946162303874026" lon="5.361081909074273"><ele>1217.0</ele><time>2026-05-02T13:39:04.999Z</time></trkpt><trkpt lat="44.946334655556626" lon="5.360998598483095"><ele>1217.0</ele><time>2026-05-02T13:39:05.999Z</time></trkpt><trkpt lat="44.94649220250215" lon="5.360914236194337"><ele>1217.0</ele><time>2026-05-02T13:39:06.999Z</time></trkpt><trkpt lat="44.94662501648857" lon="5.360806698595968"><ele>1217.0</ele><time>2026-05-02T13:39:07.999Z</time></trkpt><trkpt lat="44.94672365588736" lon="5.3606259545315975"><ele>1215.3333333333335</ele><time>2026-05-02T13:39:08.999Z</time></trkpt><trkpt lat="44.94677438387021" lon="5.360430412515818"><ele>1213.6666666666667</ele><time>2026-05-02T13:39:09.999Z</time></trkpt><trkpt lat="44.946761201668856" lon="5.360197897774718"><ele>1212.0</ele><time>2026-05-02T13:39:10.999Z</time></trkpt><trkpt lat="44.94670431925353" lon="5.359944913804792"><ele>1213.0</ele><time>2026-05-02T13:39:11.999Z</time></trkpt><trkpt lat="44.94665464293614" lon="5.359677791124306"><ele>1214.0</ele><time>2026-05-02T13:39:12.999Z</time></trkpt><trkpt lat="44.94663509147714" lon="5.359402167903212"><ele>1215.0</ele><time>2026-05-02T13:39:13.999Z</time></trkpt><trkpt lat="44.946677186583145" lon="5.359111349945714"><ele>1214.3333333333333</ele><time>2026-05-02T13:39:14.999Z</time></trkpt><trkpt lat="44.94676452919645" lon="5.3588220357400695"><ele>1213.6666666666665</ele><time>2026-05-02T13:39:15.999Z</time></trkpt><trkpt lat="44.946858095486604" lon="5.358542223311422"><ele>1213.0</ele><time>2026-05-02T13:39:16.999Z</time></trkpt><trkpt lat="44.946965037490024" lon="5.35827140364717"><ele>1213.0</ele><time>2026-05-02T13:39:17.999Z</time></trkpt><trkpt lat="44.947116133565935" lon="5.358045200985726"><ele>1213.0</ele><time>2026-05-02T13:39:18.999Z</time></trkpt><trkpt lat="44.94727816458186" lon="5.3578358135709685"><ele>1213.0</ele><time>2026-05-02T13:39:19.999Z</time></trkpt><trkpt lat="44.94742769345216" lon="5.357628440743104"><ele>1212.6666666666665</ele><time>2026-05-02T13:39:20.999Z</time></trkpt><trkpt lat="44.947582479972326" lon="5.357487841212857"><ele>1212.3333333333333</ele><time>2026-05-02T13:39:21.999Z</time></trkpt><trkpt lat="44.94777069863273" lon="5.357390618771356"><ele>1212.0</ele><time>2026-05-02T13:39:22.999Z</time></trkpt><trkpt lat="44.94793354312604" lon="5.357301289288414"><ele>1212.3333333333333</ele><time>2026-05-02T13:39:23.999Z</time></trkpt><trkpt lat="44.94809395361332" lon="5.357110726732158"><ele>1212.6666666666665</ele><time>2026-05-02T13:39:24.999Z</time></trkpt><trkpt lat="44.9482739540104" lon="5.356913212126457"><ele>1213.0</ele><time>2026-05-02T13:39:25.999Z</time></trkpt><trkpt lat="44.948471715734364" lon="5.356761912828212"><ele>1213.0</ele><time>2026-05-02T13:39:26.999Z</time></trkpt><trkpt lat="44.94869118095719" lon="5.356647996377247"><ele>1213.0</ele><time>2026-05-02T13:39:27.999Z</time></trkpt><trkpt lat="44.94890275181207" lon="5.356512395773252"><ele>1212.5</ele><time>2026-05-02T13:39:28.999Z</time></trkpt><trkpt lat="44.949107043573484" lon="5.3563317722142445"><ele>1212.0</ele><time>2026-05-02T13:39:29.999Z</time></trkpt><trkpt lat="44.94930788375259" lon="5.356113187581763"><ele>1212.0</ele><time>2026-05-02T13:39:30.999Z</time></trkpt><trkpt lat="44.9494880891306" lon="5.355910222899421"><ele>1212.0</ele><time>2026-05-02T13:39:31.999Z</time></trkpt><trkpt lat="44.949655951374105" lon="5.355718604483589"><ele>1212.0</ele><time>2026-05-02T13:39:32.999Z</time></trkpt><trkpt lat="44.94981158461293" lon="5.355566932093723"><ele>1212.6666666666667</ele><time>2026-05-02T13:39:33.999Z</time></trkpt><trkpt lat="44.949990154213545" lon="5.355475604930559"><ele>1213.3333333333335</ele><time>2026-05-02T13:39:34.999Z</time></trkpt><trkpt lat="44.95016978364613" lon="5.355502800911144"><ele>1214.0</ele><time>2026-05-02T13:39:35.999Z</time></trkpt><trkpt lat="44.95033988177041" lon="5.3556106454784524"><ele>1212.6666666666667</ele><time>2026-05-02T13:39:36.999Z</time></trkpt><trkpt lat="44.95051072634421" lon="5.355685846089842"><ele>1211.3333333333333</ele><time>2026-05-02T13:39:37.999Z</time></trkpt><trkpt lat="44.950652884083205" lon="5.355727497436011"><ele>1210.0</ele><time>2026-05-02T13:39:38.999Z</time></trkpt><trkpt lat="44.950772002739356" lon="5.355825988666178"><ele>1210.0</ele><time>2026-05-02T13:39:39.999Z</time></trkpt><trkpt lat="44.950846966873954" lon="5.355986744926926"><ele>1210.0</ele><time>2026-05-02T13:39:40.999Z</time></trkpt><trkpt lat="44.95091214405352" lon="5.356150694803326"><ele>1210.0</ele><time>2026-05-02T13:39:41.999Z</time></trkpt><trkpt lat="44.95101415172202" lon="5.3562474251925565"><ele>1210.0</ele><time>2026-05-02T13:39:42.999Z</time></trkpt><trkpt lat="44.95115811536709" lon="5.356269538460477"><ele>1209.3333333333333</ele><time>2026-05-02T13:39:43.999Z</time></trkpt><trkpt lat="44.95132972965019" lon="5.356206655219244"><ele>1208.6666666666667</ele><time>2026-05-02T13:39:44.999Z</time></trkpt><trkpt lat="44.95150424387532" lon="5.356078830048816"><ele>1208.0</ele><time>2026-05-02T13:39:45.999Z</time></trkpt><trkpt lat="44.951670103410606" lon="5.355948640973028"><ele>1207.0</ele><time>2026-05-02T13:39:46.999Z</time></trkpt><trkpt lat="44.951884747962254" lon="5.355823602527766"><ele>1206.0</ele><time>2026-05-02T13:39:47.999Z</time></trkpt><trkpt lat="44.952083621411454" lon="5.355767960690447"><ele>1205.0</ele><time>2026-05-02T13:39:48.999Z</time></trkpt><trkpt lat="44.95229151406515" lon="5.3557506472941405"><ele>1205.0</ele><time>2026-05-02T13:39:49.999Z</time></trkpt><trkpt lat="44.952537501334795" lon="5.355742410978802"><ele>1205.0</ele><time>2026-05-02T13:39:50.998Z</time></trkpt><trkpt lat="44.95275546633627" lon="5.3557336489495855"><ele>1201.5</ele><time>2026-05-02T13:39:51.998Z</time></trkpt><trkpt lat="44.95298494889444" lon="5.355711476010277"><ele>1198.0</ele><time>2026-05-02T13:39:52.998Z</time></trkpt><trkpt lat="44.95320587611663" lon="5.355679049535524"><ele>1193.0</ele><time>2026-05-02T13:39:53.998Z</time></trkpt><trkpt lat="44.953432080346424" lon="5.355623942863612"><ele>1188.0</ele><time>2026-05-02T13:39:54.998Z</time></trkpt><trkpt lat="44.953653700948834" lon="5.3555567373665385"><ele>1197.0</ele><time>2026-05-02T13:39:55.998Z</time></trkpt><trkpt lat="44.953874628638424" lon="5.355468572658265"><ele>1206.0</ele><time>2026-05-02T13:39:56.998Z</time></trkpt><trkpt lat="44.95409626963722" lon="5.3553653478082675"><ele>1199.3333333333333</ele><time>2026-05-02T13:39:57.998Z</time></trkpt><trkpt lat="44.95431587624043" lon="5.355264387292283"><ele>1192.6666666666665</ele><time>2026-05-02T13:39:58.998Z</time></trkpt><trkpt lat="44.95452012091841" lon="5.355156241390077"><ele>1186.0</ele><time>2026-05-02T13:39:59.998Z</time></trkpt><trkpt lat="44.954704990407535" lon="5.355026336939121"><ele>1186.0</ele><time>2026-05-02T13:40:00.998Z</time></trkpt><trkpt lat="44.95484621370691" lon="5.35483850254093"><ele>1186.0</ele><time>2026-05-02T13:40:01.998Z</time></trkpt><trkpt lat="44.95498734699044" lon="5.354655482485947"><ele>1186.0</ele><time>2026-05-02T13:40:02.998Z</time></trkpt><trkpt lat="44.95517704608869" lon="5.3544922218111655"><ele>1188.0</ele><time>2026-05-02T13:40:03.998Z</time></trkpt><trkpt lat="44.955368008146436" lon="5.354489131452968"><ele>1190.0</ele><time>2026-05-02T13:40:04.998Z</time></trkpt><trkpt lat="44.95553004474767" lon="5.35449302253704"><ele>1192.0</ele><time>2026-05-02T13:40:05.998Z</time></trkpt><trkpt lat="44.95572138336343" lon="5.3544812433318345"><ele>1188.6666666666665</ele><time>2026-05-02T13:40:06.998Z</time></trkpt><trkpt lat="44.95590801179978" lon="5.354486259542263"><ele>1185.3333333333333</ele><time>2026-05-02T13:40:07.998Z</time></trkpt><trkpt lat="44.9560683031734" lon="5.354477325516953"><ele>1182.0</ele><time>2026-05-02T13:40:08.998Z</time></trkpt><trkpt lat="44.95620242287048" lon="5.354471561630649"><ele>1182.0</ele><time>2026-05-02T13:40:09.998Z</time></trkpt><trkpt lat="44.956299022776946" lon="5.354426629879433"><ele>1182.0</ele><time>2026-05-02T13:40:10.998Z</time></trkpt><trkpt lat="44.9563678546572" lon="5.354320743086924"><ele>1182.0</ele><time>2026-05-02T13:40:12Z</time></trkpt><trkpt lat="44.95639860613186" lon="5.354176223033636"><ele>1182.0</ele><time>2026-05-02T13:40:13Z</time></trkpt><trkpt lat="44.956378098805054" lon="5.354006571807432"><ele>1182.0</ele><time>2026-05-02T13:40:14Z</time></trkpt><trkpt lat="44.95630402832305" lon="5.353842151020939"><ele>1182.6666666666667</ele><time>2026-05-02T13:40:15Z</time></trkpt><trkpt lat="44.956176703946035" lon="5.353684443526368"><ele>1183.3333333333335</ele><time>2026-05-02T13:40:16Z</time></trkpt><trkpt lat="44.956013535535256" lon="5.353539595201222"><ele>1184.0</ele><time>2026-05-02T13:40:17Z</time></trkpt><trkpt lat="44.95583538869588" lon="5.353387328741532"><ele>1184.0</ele><time>2026-05-02T13:40:18Z</time></trkpt><trkpt lat="44.955637757633184" lon="5.35326325058511"><ele>1184.0</ele><time>2026-05-02T13:40:19Z</time></trkpt><trkpt lat="44.95543128311921" lon="5.353123597529033"><ele>1184.0</ele><time>2026-05-02T13:40:20Z</time></trkpt><trkpt lat="44.955238091204095" lon="5.353013368185714"><ele>1184.3333333333335</ele><time>2026-05-02T13:40:21Z</time></trkpt><trkpt lat="44.95506803244913" lon="5.352917267268747"><ele>1184.6666666666667</ele><time>2026-05-02T13:40:22Z</time></trkpt><trkpt lat="44.95492543072931" lon="5.352815132720543"><ele>1185.0</ele><time>2026-05-02T13:40:23Z</time></trkpt><trkpt lat="44.95481254832317" lon="5.3526506427015486"><ele>1185.0</ele><time>2026-05-02T13:40:24Z</time></trkpt><trkpt lat="44.95475551628866" lon="5.352436002290658"><ele>1185.0</ele><time>2026-05-02T13:40:25Z</time></trkpt><trkpt lat="44.95469673365061" lon="5.352192381584504"><ele>1185.0</ele><time>2026-05-02T13:40:26Z</time></trkpt><trkpt lat="44.95460188665903" lon="5.351991227539092"><ele>1186.0</ele><time>2026-05-02T13:40:27Z</time></trkpt><trkpt lat="44.9544900022957" lon="5.351834106580713"><ele>1187.0</ele><time>2026-05-02T13:40:28Z</time></trkpt><trkpt lat="44.95441529157418" lon="5.351682063824429"><ele>1188.0</ele><time>2026-05-02T13:40:29Z</time></trkpt><trkpt lat="44.95442206829479" lon="5.351511861095269"><ele>1189.0</ele><time>2026-05-02T13:40:30Z</time></trkpt><trkpt lat="44.954500063400204" lon="5.351350952049786"><ele>1189.0</ele><time>2026-05-02T13:40:31Z</time></trkpt><trkpt lat="44.954626801788876" lon="5.351221675830172"><ele>1189.0</ele><time>2026-05-02T13:40:32Z</time></trkpt><trkpt lat="44.95478340285237" lon="5.351136143452626"><ele>1189.0</ele><time>2026-05-02T13:40:33Z</time></trkpt><trkpt lat="44.95496996839229" lon="5.351084662431389"><ele>1190.3333333333333</ele><time>2026-05-02T13:40:34Z</time></trkpt><trkpt lat="44.95518352612449" lon="5.351160476190423"><ele>1191.6666666666667</ele><time>2026-05-02T13:40:35Z</time></trkpt><trkpt lat="44.955385720882845" lon="5.3512881336106295"><ele>1193.0</ele><time>2026-05-02T13:40:36Z</time></trkpt><trkpt lat="44.95560131715118" lon="5.35141522430143"><ele>1186.6666666666667</ele><time>2026-05-02T13:40:37Z</time></trkpt><trkpt lat="44.95582041609494" lon="5.351480842599361"><ele>1180.3333333333333</ele><time>2026-05-02T13:40:38Z</time></trkpt><trkpt lat="44.956043296464216" lon="5.3514881885706185"><ele>1174.0</ele><time>2026-05-02T13:40:39Z</time></trkpt><trkpt lat="44.95626595041946" lon="5.351513062616142"><ele>1173.5</ele><time>2026-05-02T13:40:40Z</time></trkpt><trkpt lat="44.9564856285033" lon="5.351599897360602"><ele>1173.0</ele><time>2026-05-02T13:40:41Z</time></trkpt><trkpt lat="44.95671314754426" lon="5.351749170474446"><ele>1178.0</ele><time>2026-05-02T13:40:42Z</time></trkpt><trkpt lat="44.95693899006033" lon="5.351899160605874"><ele>1183.0</ele><time>2026-05-02T13:40:43Z</time></trkpt><trkpt lat="44.95715393038621" lon="5.352037242635696"><ele>1183.0</ele><time>2026-05-02T13:40:44Z</time></trkpt><trkpt lat="44.95735773922333" lon="5.352151074981629"><ele>1183.0</ele><time>2026-05-02T13:40:45Z</time></trkpt><trkpt lat="44.957559269586746" lon="5.3522337346023345"><ele>1183.0</ele><time>2026-05-02T13:40:46Z</time></trkpt><trkpt lat="44.9577687154337" lon="5.352282304029421"><ele>1178.0</ele><time>2026-05-02T13:40:47Z</time></trkpt><trkpt lat="44.957974009842495" lon="5.352304745425614"><ele>1173.0</ele><time>2026-05-02T13:40:48Z</time></trkpt><trkpt lat="44.9581619920587" lon="5.352330015121352"><ele>1168.0</ele><time>2026-05-02T13:40:49Z</time></trkpt><trkpt lat="44.95831531191656" lon="5.352407417943789"><ele>1168.0</ele><time>2026-05-02T13:40:50Z</time></trkpt><trkpt lat="44.958471374734344" lon="5.35247661800256"><ele>1168.0</ele><time>2026-05-02T13:40:51Z</time></trkpt><trkpt lat="44.95864541577869" lon="5.352486660429053"><ele>1168.0</ele><time>2026-05-02T13:40:52Z</time></trkpt><trkpt lat="44.95882294258518" lon="5.352437765415727"><ele>1168.0</ele><time>2026-05-02T13:40:53Z</time></trkpt><trkpt lat="44.95898932093812" lon="5.3523187761064905"><ele>1168.0</ele><time>2026-05-02T13:40:54Z</time></trkpt><trkpt lat="44.95917181934367" lon="5.352204896343469"><ele>1168.0</ele><time>2026-05-02T13:40:55Z</time></trkpt><trkpt lat="44.95935055642539" lon="5.3521658454243335"><ele>1169.3333333333333</ele><time>2026-05-02T13:40:56Z</time></trkpt><trkpt lat="44.95955546058987" lon="5.352196472204076"><ele>1170.6666666666667</ele><time>2026-05-02T13:40:57Z</time></trkpt><trkpt lat="44.95976709856501" lon="5.352305218415821"><ele>1172.0</ele><time>2026-05-02T13:40:57.999Z</time></trkpt><trkpt lat="44.95997410336746" lon="5.352445397387288"><ele>1179.5</ele><time>2026-05-02T13:40:58.999Z</time></trkpt><trkpt lat="44.96018157067876" lon="5.352594297079058"><ele>1187.0</ele><time>2026-05-02T13:40:59.999Z</time></trkpt><trkpt lat="44.960378364319425" lon="5.352772594267201"><ele>1187.0</ele><time>2026-05-02T13:41:00.999Z</time></trkpt><trkpt lat="44.96054581991625" lon="5.352967590452855"><ele>1187.0</ele><time>2026-05-02T13:41:01.999Z</time></trkpt><trkpt lat="44.9606929493188" lon="5.353175576022793"><ele>1187.0</ele><time>2026-05-02T13:41:02.999Z</time></trkpt><trkpt lat="44.960848099202316" lon="5.353363861491769"><ele>1188.3333333333335</ele><time>2026-05-02T13:41:03.999Z</time></trkpt><trkpt lat="44.96103127845104" lon="5.353500339147588"><ele>1189.6666666666667</ele><time>2026-05-02T13:41:04.999Z</time></trkpt><trkpt lat="44.961232831430195" lon="5.353578098611697"><ele>1191.0</ele><time>2026-05-02T13:41:05.999Z</time></trkpt><trkpt lat="44.9614360139367" lon="5.353673708351415"><ele>1191.0</ele><time>2026-05-02T13:41:06.999Z</time></trkpt><trkpt lat="44.96161507615805" lon="5.353859080366376"><ele>1191.0</ele><time>2026-05-02T13:41:07.999Z</time></trkpt><trkpt lat="44.96177848337293" lon="5.354069854868305"><ele>1191.0</ele><time>2026-05-02T13:41:08.999Z</time></trkpt><trkpt lat="44.961933971667015" lon="5.354225895051383"><ele>1190.3333333333333</ele><time>2026-05-02T13:41:09.999Z</time></trkpt><trkpt lat="44.962118567583175" lon="5.354284218220488"><ele>1189.6666666666665</ele><time>2026-05-02T13:41:10.999Z</time></trkpt><trkpt lat="44.96229535388769" lon="5.354374323223701"><ele>1189.0</ele><time>2026-05-02T13:41:11.999Z</time></trkpt><trkpt lat="44.962454462770744" lon="5.354569488129152"><ele>1193.5</ele><time>2026-05-02T13:41:12.999Z</time></trkpt><trkpt lat="44.962604457950725" lon="5.35481127492535"><ele>1198.0</ele><time>2026-05-02T13:41:13.999Z</time></trkpt><trkpt lat="44.96275173561064" lon="5.355060805089959"><ele>1198.0</ele><time>2026-05-02T13:41:14.999Z</time></trkpt><trkpt lat="44.962872304288844" lon="5.355320084742356"><ele>1198.0</ele><time>2026-05-02T13:41:15.999Z</time></trkpt><trkpt lat="44.96297584309971" lon="5.35557229142795"><ele>1198.0</ele><time>2026-05-02T13:41:16.999Z</time></trkpt><trkpt lat="44.96309066184415" lon="5.355778880964352"><ele>1194.3333333333333</ele><time>2026-05-02T13:41:17.999Z</time></trkpt><trkpt lat="44.96325014214903" lon="5.355931383626132"><ele>1190.6666666666667</ele><time>2026-05-02T13:41:18.999Z</time></trkpt><trkpt lat="44.96342943019739" lon="5.35605045501255"><ele>1187.0</ele><time>2026-05-02T13:41:19.999Z</time></trkpt><trkpt lat="44.96359493443799" lon="5.356170920791243"><ele>1187.0</ele><time>2026-05-02T13:41:20.999Z</time></trkpt><trkpt lat="44.9637371945248" lon="5.356274089748445"><ele>1187.0</ele><time>2026-05-02T13:41:21.999Z</time></trkpt><trkpt lat="44.963855425646145" lon="5.356354858667846"><ele>1187.0</ele><time>2026-05-02T13:41:22.999Z</time></trkpt><trkpt lat="44.96398672973253" lon="5.356354483991255"><ele>1187.0</ele><time>2026-05-02T13:41:23.999Z</time></trkpt><trkpt lat="44.964096458495746" lon="5.356259304904102"><ele>1183.3333333333335</ele><time>2026-05-02T13:41:24.999Z</time></trkpt><trkpt lat="44.96422726503731" lon="5.356117597444715"><ele>1179.6666666666667</ele><time>2026-05-02T13:41:25.999Z</time></trkpt><trkpt lat="44.96434382422461" lon="5.3559267308712775"><ele>1176.0</ele><time>2026-05-02T13:41:26.999Z</time></trkpt><trkpt lat="44.96444319763141" lon="5.355683331405488"><ele>1176.6666666666667</ele><time>2026-05-02T13:41:27.999Z</time></trkpt><trkpt lat="44.96453852809003" lon="5.355430523755867"><ele>1177.3333333333335</ele><time>2026-05-02T13:41:28.999Z</time></trkpt><trkpt lat="44.964616141239276" lon="5.355170100228177"><ele>1178.0</ele><time>2026-05-02T13:41:29.999Z</time></trkpt><trkpt lat="44.96465222530548" lon="5.354879282707945"><ele>1178.6666666666667</ele><time>2026-05-02T13:41:30.999Z</time></trkpt><trkpt lat="44.964642789953444" lon="5.354592716894842"><ele>1179.3333333333333</ele><time>2026-05-02T13:41:31.999Z</time></trkpt><trkpt lat="44.964640158354726" lon="5.354343098039897"><ele>1180.0</ele><time>2026-05-02T13:41:32.999Z</time></trkpt><trkpt lat="44.96465549882385" lon="5.354149405052643"><ele>1180.0</ele><time>2026-05-02T13:41:33.999Z</time></trkpt><trkpt lat="44.96470405281631" lon="5.353964647870389"><ele>1180.0</ele><time>2026-05-02T13:41:34.999Z</time></trkpt><trkpt lat="44.96481650392756" lon="5.353860687019294"><ele>1180.0</ele><time>2026-05-02T13:41:35.999Z</time></trkpt><trkpt lat="44.96497711889013" lon="5.353813054136844"><ele>1180.0</ele><time>2026-05-02T13:41:36.999Z</time></trkpt><trkpt lat="44.96514175503621" lon="5.3538573466877795"><ele>1179.3333333333333</ele><time>2026-05-02T13:41:37.999Z</time></trkpt><trkpt lat="44.965300371567224" lon="5.353906119937679"><ele>1178.6666666666667</ele><time>2026-05-02T13:41:38.999Z</time></trkpt><trkpt lat="44.96545930779539" lon="5.353881426063551"><ele>1178.0</ele><time>2026-05-02T13:41:39.999Z</time></trkpt><trkpt lat="44.96560311013613" lon="5.353790820228325"><ele>1178.0</ele><time>2026-05-02T13:41:40.999Z</time></trkpt><trkpt lat="44.96572687986604" lon="5.353665592983039"><ele>1178.0</ele><time>2026-05-02T13:41:41.999Z</time></trkpt><trkpt lat="44.965825423304686" lon="5.353521437830328"><ele>1178.0</ele><time>2026-05-02T13:41:42.999Z</time></trkpt><trkpt lat="44.9659142460159" lon="5.3533410211288075"><ele>1177.3333333333335</ele><time>2026-05-02T13:41:43.999Z</time></trkpt><trkpt lat="44.96597453486981" lon="5.353104191058496"><ele>1176.6666666666667</ele><time>2026-05-02T13:41:44.999Z</time></trkpt><trkpt lat="44.96602466166447" lon="5.35285548534533"><ele>1176.0</ele><time>2026-05-02T13:41:45.999Z</time></trkpt><trkpt lat="44.966082400164794" lon="5.352580509123011"><ele>1174.0</ele><time>2026-05-02T13:41:46.999Z</time></trkpt><trkpt lat="44.96614634734168" lon="5.3523400800917456"><ele>1172.0</ele><time>2026-05-02T13:41:47.999Z</time></trkpt><trkpt lat="44.966199991837335" lon="5.352104315578988"><ele>1170.0</ele><time>2026-05-02T13:41:48.999Z</time></trkpt><trkpt lat="44.96621101714105" lon="5.351862653420205"><ele>1169.0</ele><time>2026-05-02T13:41:49.999Z</time></trkpt><trkpt lat="44.96616189851378" lon="5.35161398462971"><ele>1168.0</ele><time>2026-05-02T13:41:50.999Z</time></trkpt><trkpt lat="44.966072782287156" lon="5.351366616624898"><ele>1167.0</ele><time>2026-05-02T13:41:51.999Z</time></trkpt><trkpt lat="44.96593231462165" lon="5.351148744736107"><ele>1166.3333333333333</ele><time>2026-05-02T13:41:52.999Z</time></trkpt><trkpt lat="44.96580380633794" lon="5.350957922202579"><ele>1165.6666666666665</ele><time>2026-05-02T13:41:53.999Z</time></trkpt><trkpt lat="44.96568702242612" lon="5.350800423233927"><ele>1165.0</ele><time>2026-05-02T13:41:54.999Z</time></trkpt><trkpt lat="44.96557130395121" lon="5.350661934606646"><ele>1165.0</ele><time>2026-05-02T13:41:55.999Z</time></trkpt><trkpt lat="44.96543598895079" lon="5.350608784676088"><ele>1165.0</ele><time>2026-05-02T13:41:56.998Z</time></trkpt><trkpt lat="44.96527528430621" lon="5.350616115442875"><ele>1165.0</ele><time>2026-05-02T13:41:57.998Z</time></trkpt><trkpt lat="44.96511785530781" lon="5.350683537818076"><ele>1164.0</ele><time>2026-05-02T13:41:58.998Z</time></trkpt><trkpt lat="44.965002161456354" lon="5.350807934105736"><ele>1163.0</ele><time>2026-05-02T13:41:59.998Z</time></trkpt><trkpt lat="44.96488222781768" lon="5.35089515432396"><ele>1162.0</ele><time>2026-05-02T13:42:00.998Z</time></trkpt><trkpt lat="44.96477842639474" lon="5.35094584853646"><ele>1161.0</ele><time>2026-05-02T13:42:01.998Z</time></trkpt><trkpt lat="44.96466473680853" lon="5.350899961652454"><ele>1161.0</ele><time>2026-05-02T13:42:02.998Z</time></trkpt><trkpt lat="44.964578809479285" lon="5.350790884544452"><ele>1161.0</ele><time>2026-05-02T13:42:03.998Z</time></trkpt><trkpt lat="44.964516955542074" lon="5.350600032326535"><ele>1161.0</ele><time>2026-05-02T13:42:04.998Z</time></trkpt><trkpt lat="44.964426995872564" lon="5.350354831213751"><ele>1159.3333333333333</ele><time>2026-05-02T13:42:05.998Z</time></trkpt><trkpt lat="44.96429596366255" lon="5.350156387308882"><ele>1157.6666666666665</ele><time>2026-05-02T13:42:06.998Z</time></trkpt><trkpt lat="44.964146957715926" lon="5.349981513804173"><ele>1156.0</ele><time>2026-05-02T13:42:07.998Z</time></trkpt><trkpt lat="44.96402942925834" lon="5.349810900476774"><ele>1154.5</ele><time>2026-05-02T13:42:08.998Z</time></trkpt><trkpt lat="44.96395215665232" lon="5.349636453208589"><ele>1153.0</ele><time>2026-05-02T13:42:09.998Z</time></trkpt><trkpt lat="44.96394553840622" lon="5.349440436768189"><ele>1151.5</ele><time>2026-05-02T13:42:10.998Z</time></trkpt><trkpt lat="44.96399962827908" lon="5.349224608270344"><ele>1150.0</ele><time>2026-05-02T13:42:11.998Z</time></trkpt><trkpt lat="44.964076352764835" lon="5.348964078314778"><ele>1141.0</ele><time>2026-05-02T13:42:12.998Z</time></trkpt><trkpt lat="44.96419676320781" lon="5.348683270086819"><ele>1132.0</ele><time>2026-05-02T13:42:13.998Z</time></trkpt><trkpt lat="44.964309510120984" lon="5.348395534476564"><ele>1132.0</ele><time>2026-05-02T13:42:14.998Z</time></trkpt><trkpt lat="44.964407722192504" lon="5.348149305358206"><ele>1132.0</ele><time>2026-05-02T13:42:15.998Z</time></trkpt><trkpt lat="44.96446556433667" lon="5.347910196513365"><ele>1132.0</ele><time>2026-05-02T13:42:16.998Z</time></trkpt><trkpt lat="44.96447379643824" lon="5.347690229112465"><ele>1132.3333333333333</ele><time>2026-05-02T13:42:18Z</time></trkpt><trkpt lat="44.96440654728242" lon="5.347479952663017"><ele>1132.6666666666667</ele><time>2026-05-02T13:42:19Z</time></trkpt><trkpt lat="44.964290741097315" lon="5.347295644772835"><ele>1133.0</ele><time>2026-05-02T13:42:20Z</time></trkpt><trkpt lat="44.96413560700945" lon="5.347144519141293"><ele>1133.0</ele><time>2026-05-02T13:42:21Z</time></trkpt><trkpt lat="44.963949367333996" lon="5.347029356927315"><ele>1133.0</ele><time>2026-05-02T13:42:22Z</time></trkpt><trkpt lat="44.9637280590473" lon="5.346929249346684"><ele>1133.0</ele><time>2026-05-02T13:42:23Z</time></trkpt><trkpt lat="44.96350593779202" lon="5.346816143217939"><ele>1135.5</ele><time>2026-05-02T13:42:24Z</time></trkpt><trkpt lat="44.96329294092068" lon="5.346698912293788"><ele>1138.0</ele><time>2026-05-02T13:42:25Z</time></trkpt><trkpt lat="44.96306640969957" lon="5.346599556425539"><ele>1138.0</ele><time>2026-05-02T13:42:26Z</time></trkpt><trkpt lat="44.962816107687686" lon="5.346544631872978"><ele>1138.0</ele><time>2026-05-02T13:42:27Z</time></trkpt><trkpt lat="44.96254707430538" lon="5.34647027937011"><ele>1139.0</ele><time>2026-05-02T13:42:28Z</time></trkpt><trkpt lat="44.962288216287504" lon="5.34643347431558"><ele>1140.0</ele><time>2026-05-02T13:42:29Z</time></trkpt><trkpt lat="44.96206050341046" lon="5.346327453699157"><ele>1135.0</ele><time>2026-05-02T13:42:30Z</time></trkpt><trkpt lat="44.96185524875927" lon="5.3462089150484156"><ele>1130.0</ele><time>2026-05-02T13:42:31Z</time></trkpt><trkpt lat="44.96165967523891" lon="5.3461033313949"><ele>1125.0</ele><time>2026-05-02T13:42:32Z</time></trkpt><trkpt lat="44.961459938963" lon="5.346032794571795"><ele>1125.0</ele><time>2026-05-02T13:42:33Z</time></trkpt><trkpt lat="44.961275672636226" lon="5.345990937942145"><ele>1125.0</ele><time>2026-05-02T13:42:34Z</time></trkpt><trkpt lat="44.96109361694468" lon="5.345979180146153"><ele>1125.0</ele><time>2026-05-02T13:42:35Z</time></trkpt><trkpt lat="44.96092793119958" lon="5.345921891663942"><ele>1125.3333333333333</ele><time>2026-05-02T13:42:36Z</time></trkpt><trkpt lat="44.960774345157425" lon="5.345835681960828"><ele>1125.6666666666665</ele><time>2026-05-02T13:42:37Z</time></trkpt><trkpt lat="44.960657976889195" lon="5.345662271897873"><ele>1126.0</ele><time>2026-05-02T13:42:38Z</time></trkpt><trkpt lat="44.96055920581009" lon="5.3454438160608975"><ele>1122.3333333333333</ele><time>2026-05-02T13:42:39Z</time></trkpt><trkpt lat="44.96043035623718" lon="5.345268423205711"><ele>1118.6666666666667</ele><time>2026-05-02T13:42:40Z</time></trkpt><trkpt lat="44.96025956563588" lon="5.345105356714501"><ele>1115.0</ele><time>2026-05-02T13:42:41Z</time></trkpt><trkpt lat="44.960040823109786" lon="5.344952310375517"><ele>1115.3333333333335</ele><time>2026-05-02T13:42:42Z</time></trkpt><trkpt lat="44.959847556903554" lon="5.344813979965523"><ele>1115.6666666666667</ele><time>2026-05-02T13:42:43Z</time></trkpt><trkpt lat="44.95969169966941" lon="5.344679983140822"><ele>1116.0</ele><time>2026-05-02T13:42:44Z</time></trkpt><trkpt lat="44.959574897247045" lon="5.344545153202824"><ele>1116.0</ele><time>2026-05-02T13:42:45Z</time></trkpt><trkpt lat="44.95952640498696" lon="5.344395471488404"><ele>1116.0</ele><time>2026-05-02T13:42:46Z</time></trkpt><trkpt lat="44.959494788671066" lon="5.3442285513270456"><ele>1116.0</ele><time>2026-05-02T13:42:47Z</time></trkpt><trkpt lat="44.959582939676324" lon="5.344040400186242"><ele>1116.0</ele><time>2026-05-02T13:42:48Z</time></trkpt><trkpt lat="44.95968608492796" lon="5.343825080678176"><ele>1116.6666666666667</ele><time>2026-05-02T13:42:49Z</time></trkpt><trkpt lat="44.959806857597826" lon="5.3436386750399745"><ele>1117.3333333333335</ele><time>2026-05-02T13:42:50Z</time></trkpt><trkpt lat="44.95999265285283" lon="5.343564373641893"><ele>1118.0</ele><time>2026-05-02T13:42:51Z</time></trkpt><trkpt lat="44.96019900994415" lon="5.343480880032314"><ele>1118.0</ele><time>2026-05-02T13:42:52Z</time></trkpt><trkpt lat="44.96041551095481" lon="5.343386454622222"><ele>1118.0</ele><time>2026-05-02T13:42:53Z</time></trkpt><trkpt lat="44.96063691342728" lon="5.343309656895974"><ele>1110.5</ele><time>2026-05-02T13:42:54Z</time></trkpt><trkpt lat="44.96089234523075" lon="5.3432054063035785"><ele>1103.0</ele><time>2026-05-02T13:42:55Z</time></trkpt><trkpt lat="44.96114148887501" lon="5.343121280190162"><ele>1114.0</ele><time>2026-05-02T13:42:56Z</time></trkpt><trkpt lat="44.96136016204809" lon="5.343029411993955"><ele>1125.0</ele><time>2026-05-02T13:42:57Z</time></trkpt><trkpt lat="44.96160290172699" lon="5.342943850945242"><ele>1122.3333333333333</ele><time>2026-05-02T13:42:58Z</time></trkpt><trkpt lat="44.961827989098445" lon="5.342859739573061"><ele>1119.6666666666665</ele><time>2026-05-02T13:42:59Z</time></trkpt><trkpt lat="44.96203683532786" lon="5.342808286277866"><ele>1117.0</ele><time>2026-05-02T13:43:00Z</time></trkpt><trkpt lat="44.96226239105" lon="5.342792234897339"><ele>1117.0</ele><time>2026-05-02T13:43:01Z</time></trkpt><trkpt lat="44.96249815362597" lon="5.342811439181009"><ele>1117.0</ele><time>2026-05-02T13:43:02Z</time></trkpt><trkpt lat="44.96274605571104" lon="5.342817606566453"><ele>1113.5</ele><time>2026-05-02T13:43:02.999Z</time></trkpt><trkpt lat="44.962991403025654" lon="5.342818807693652"><ele>1110.0</ele><time>2026-05-02T13:43:03.999Z</time></trkpt><trkpt lat="44.96324071636724" lon="5.3428116803420345"><ele>1105.5</ele><time>2026-05-02T13:43:04.999Z</time></trkpt><trkpt lat="44.96348184766735" lon="5.342804573810878"><ele>1101.0</ele><time>2026-05-02T13:43:05.999Z</time></trkpt><trkpt lat="44.963717711994605" lon="5.342785594249527"><ele>1101.0</ele><time>2026-05-02T13:43:06.999Z</time></trkpt><trkpt lat="44.96393106051225" lon="5.3427958924439185"><ele>1101.0</ele><time>2026-05-02T13:43:07.999Z</time></trkpt><trkpt lat="44.96413475131008" lon="5.342813966695931"><ele>1101.0</ele><time>2026-05-02T13:43:08.999Z</time></trkpt><trkpt lat="44.964331869005825" lon="5.342821119261267"><ele>1097.0</ele><time>2026-05-02T13:43:09.999Z</time></trkpt><trkpt lat="44.96453667102056" lon="5.34279302981593"><ele>1093.0</ele><time>2026-05-02T13:43:10.999Z</time></trkpt><trkpt lat="44.964751429253326" lon="5.342730917054036"><ele>1089.0</ele><time>2026-05-02T13:43:11.999Z</time></trkpt><trkpt lat="44.964959767156294" lon="5.342643565225955"><ele>1084.5</ele><time>2026-05-02T13:43:12.999Z</time></trkpt><trkpt lat="44.965171017640294" lon="5.342525530090823"><ele>1080.0</ele><time>2026-05-02T13:43:13.999Z</time></trkpt><trkpt lat="44.96539499008503" lon="5.342466519789396"><ele>1080.0</ele><time>2026-05-02T13:43:14.999Z</time></trkpt><trkpt lat="44.96560817757673" lon="5.342443347097082"><ele>1080.0</ele><time>2026-05-02T13:43:15.999Z</time></trkpt><trkpt lat="44.96581056241832" lon="5.342440613795487"><ele>1080.0</ele><time>2026-05-02T13:43:16.999Z</time></trkpt><trkpt lat="44.96598883348952" lon="5.342430840874419"><ele>1081.0</ele><time>2026-05-02T13:43:17.999Z</time></trkpt><trkpt lat="44.966160384088425" lon="5.342422587025004"><ele>1082.0</ele><time>2026-05-02T13:43:18.999Z</time></trkpt><trkpt lat="44.966312424042854" lon="5.342353014720041"><ele>1083.0</ele><time>2026-05-02T13:43:19.999Z</time></trkpt><trkpt lat="44.96643477238363" lon="5.342226989794224"><ele>1083.25</ele><time>2026-05-02T13:43:20.999Z</time></trkpt><trkpt lat="44.96654383644267" lon="5.342109290489253"><ele>1083.5</ele><time>2026-05-02T13:43:21.999Z</time></trkpt><trkpt lat="44.966645455366844" lon="5.3420176736627845"><ele>1083.75</ele><time>2026-05-02T13:43:22.999Z</time></trkpt><trkpt lat="44.966727845272004" lon="5.341928239702882"><ele>1084.0</ele><time>2026-05-02T13:43:23.999Z</time></trkpt><trkpt lat="44.966538149077294" lon="5.341231525991083"><ele>1081.6666666666665</ele><time>2026-05-02T13:43:24.999Z</time></trkpt><trkpt lat="44.96650704789627" lon="5.340922619955818"><ele>1079.3333333333333</ele><time>2026-05-02T13:43:25.999Z</time></trkpt><trkpt lat="44.96649980159724" lon="5.3406550636817345"><ele>1077.0</ele><time>2026-05-02T13:43:26.999Z</time></trkpt><trkpt lat="44.96645416454636" lon="5.34044159347744"><ele>1073.3333333333333</ele><time>2026-05-02T13:43:27.999Z</time></trkpt><trkpt lat="44.96635172189137" lon="5.3402549612347"><ele>1069.6666666666665</ele><time>2026-05-02T13:43:28.999Z</time></trkpt><trkpt lat="44.9661802655413" lon="5.3401539314499775"><ele>1066.0</ele><time>2026-05-02T13:43:29.999Z</time></trkpt><trkpt lat="44.96598697595054" lon="5.340056443560099"><ele>1063.6666666666665</ele><time>2026-05-02T13:43:30.999Z</time></trkpt><trkpt lat="44.965800882194735" lon="5.339917051750649"><ele>1061.3333333333333</ele><time>2026-05-02T13:43:31.999Z</time></trkpt><trkpt lat="44.965661116680295" lon="5.339696438459813"><ele>1059.0</ele><time>2026-05-02T13:43:32.999Z</time></trkpt><trkpt lat="44.96555637516192" lon="5.339453885443956"><ele>1059.0</ele><time>2026-05-02T13:43:33.999Z</time></trkpt><trkpt lat="44.96544675511436" lon="5.339248462559618"><ele>1059.0</ele><time>2026-05-02T13:43:34.999Z</time></trkpt><trkpt lat="44.96533754907578" lon="5.339055496076989"><ele>1059.0</ele><time>2026-05-02T13:43:35.999Z</time></trkpt><trkpt lat="44.96525795724977" lon="5.338828404450054"><ele>1056.6666666666667</ele><time>2026-05-02T13:43:36.999Z</time></trkpt><trkpt lat="44.965222777109176" lon="5.338545365621298"><ele>1054.3333333333335</ele><time>2026-05-02T13:43:37.999Z</time></trkpt><trkpt lat="44.96520146756312" lon="5.338231567874622"><ele>1052.0</ele><time>2026-05-02T13:43:38.999Z</time></trkpt><trkpt lat="44.96511884311565" lon="5.337954854182548"><ele>1053.5</ele><time>2026-05-02T13:43:39.999Z</time></trkpt><trkpt lat="44.964980968566834" lon="5.337698618851397"><ele>1055.0</ele><time>2026-05-02T13:43:40.999Z</time></trkpt><trkpt lat="44.964827661540845" lon="5.337430352804229"><ele>1054.5</ele><time>2026-05-02T13:43:41.999Z</time></trkpt><trkpt lat="44.96471096203745" lon="5.337126950379397"><ele>1054.0</ele><time>2026-05-02T13:43:42.999Z</time></trkpt><trkpt lat="44.96462207282923" lon="5.336822925162933"><ele>1054.0</ele><time>2026-05-02T13:43:43.999Z</time></trkpt><trkpt lat="44.964514354472215" lon="5.336581033267556"><ele>1054.0</ele><time>2026-05-02T13:43:44.999Z</time></trkpt><trkpt lat="44.96439181491714" lon="5.336375424735665"><ele>1054.0</ele><time>2026-05-02T13:43:45.999Z</time></trkpt><trkpt lat="44.96431240420883" lon="5.336173792819191"><ele>1053.0</ele><time>2026-05-02T13:43:46.999Z</time></trkpt><trkpt lat="44.96428514149017" lon="5.335934561563377"><ele>1052.0</ele><time>2026-05-02T13:43:47.999Z</time></trkpt><trkpt lat="44.964322771802635" lon="5.335690696154444"><ele>1051.0</ele><time>2026-05-02T13:43:48.999Z</time></trkpt><trkpt lat="44.96443022757646" lon="5.335463506577829"><ele>1051.0</ele><time>2026-05-02T13:43:49.999Z</time></trkpt><trkpt lat="44.96455534686152" lon="5.3352360834512496"><ele>1051.0</ele><time>2026-05-02T13:43:50.999Z</time></trkpt><trkpt lat="44.9646605691771" lon="5.335008927846819"><ele>1051.0</ele><time>2026-05-02T13:43:51.999Z</time></trkpt><trkpt lat="44.96474856615082" lon="5.334814576088763"><ele>1054.0</ele><time>2026-05-02T13:43:52.999Z</time></trkpt><trkpt lat="44.96483087852801" lon="5.3346659979887505"><ele>1057.0</ele><time>2026-05-02T13:43:53.999Z</time></trkpt><trkpt lat="44.96491273900004" lon="5.33455696913221"><ele>1060.0</ele><time>2026-05-02T13:43:54.999Z</time></trkpt><trkpt lat="44.96498980828559" lon="5.334471834251131"><ele>1063.0</ele><time>2026-05-02T13:43:55.999Z</time></trkpt><trkpt lat="44.9650561110084" lon="5.334419881455939"><ele>1066.0</ele><time>2026-05-02T13:43:56.999Z</time></trkpt><trkpt lat="44.96514170532216" lon="5.334375581920613"><ele>1069.5</ele><time>2026-05-02T13:43:58.999Z</time></trkpt><trkpt lat="44.96519772486053" lon="5.334316370338695"><ele>1073.0</ele><time>2026-05-02T13:44:48Z</time></trkpt><trkpt lat="44.96539348816468" lon="5.334497187781213"><ele>1076.5</ele><time>2026-05-02T13:44:50Z</time></trkpt><trkpt lat="44.96552172292064" lon="5.3345680531553406"><ele>1080.0</ele><time>2026-05-02T13:44:51Z</time></trkpt><trkpt lat="44.96565784112465" lon="5.334640891291848"><ele>1080.0</ele><time>2026-05-02T13:44:52Z</time></trkpt><trkpt lat="44.965796678372215" lon="5.33469973550468"><ele>1080.0</ele><time>2026-05-02T13:44:53Z</time></trkpt><trkpt lat="44.96594329662196" lon="5.334747107515391"><ele>1080.0</ele><time>2026-05-02T13:44:54Z</time></trkpt><trkpt lat="44.966103918727576" lon="5.334776309095247"><ele>1074.3333333333333</ele><time>2026-05-02T13:44:55Z</time></trkpt><trkpt lat="44.96627321600157" lon="5.33480374110496"><ele>1068.6666666666665</ele><time>2026-05-02T13:44:56Z</time></trkpt><trkpt lat="44.96643710416346" lon="5.334836415889215"><ele>1063.0</ele><time>2026-05-02T13:44:57Z</time></trkpt><trkpt lat="44.96660775844895" lon="5.334914484539772"><ele>1067.6666666666665</ele><time>2026-05-02T13:44:58Z</time></trkpt><trkpt lat="44.96679296273331" lon="5.33506014519837"><ele>1072.3333333333333</ele><time>2026-05-02T13:44:59Z</time></trkpt><trkpt lat="44.96697351555063" lon="5.335254103065133"><ele>1077.0</ele><time>2026-05-02T13:45:00Z</time></trkpt><trkpt lat="44.96713318539972" lon="5.335478798301857"><ele>1072.6666666666667</ele><time>2026-05-02T13:45:01Z</time></trkpt><trkpt lat="44.96726506024879" lon="5.335687488705954"><ele>1068.3333333333335</ele><time>2026-05-02T13:45:02Z</time></trkpt><trkpt lat="44.96739188635291" lon="5.3358727961244155"><ele>1064.0</ele><time>2026-05-02T13:45:03Z</time></trkpt><trkpt lat="44.96753717413623" lon="5.336015644710537"><ele>1064.0</ele><time>2026-05-02T13:45:04Z</time></trkpt><trkpt lat="44.96769052662584" lon="5.3361407233518845"><ele>1064.0</ele><time>2026-05-02T13:45:05Z</time></trkpt><trkpt lat="44.967867567674666" lon="5.336212927563103"><ele>1064.0</ele><time>2026-05-02T13:45:06Z</time></trkpt><trkpt lat="44.968052396265406" lon="5.336215659890435"><ele>1064.0</ele><time>2026-05-02T13:45:07Z</time></trkpt><trkpt lat="44.968250999192755" lon="5.336169612016468"><ele>1064.0</ele><time>2026-05-02T13:45:07.999Z</time></trkpt><trkpt lat="44.96845868038308" lon="5.336132937312661"><ele>1064.0</ele><time>2026-05-02T13:45:08.999Z</time></trkpt><trkpt lat="44.96868990320168" lon="5.336164464475931"><ele>1061.5</ele><time>2026-05-02T13:45:09.999Z</time></trkpt><trkpt lat="44.96893482519911" lon="5.336259058136565"><ele>1059.0</ele><time>2026-05-02T13:45:10.999Z</time></trkpt><trkpt lat="44.96915255728902" lon="5.336368894846462"><ele>1056.6666666666667</ele><time>2026-05-02T13:45:11.999Z</time></trkpt><trkpt lat="44.969348130908536" lon="5.336456916892101"><ele>1054.3333333333335</ele><time>2026-05-02T13:45:12.999Z</time></trkpt><trkpt lat="44.96956176588217" lon="5.336510863424762"><ele>1052.0</ele><time>2026-05-02T13:45:13.999Z</time></trkpt><trkpt lat="44.96977629534488" lon="5.336537501472938"><ele>1052.0</ele><time>2026-05-02T13:45:14.999Z</time></trkpt><trkpt lat="44.96999875358195" lon="5.33652590010093"><ele>1052.0</ele><time>2026-05-02T13:45:15.999Z</time></trkpt><trkpt lat="44.970197532313" lon="5.33649061690212"><ele>1052.0</ele><time>2026-05-02T13:45:16.999Z</time></trkpt><trkpt lat="44.97036643524493" lon="5.336425933881228"><ele>1051.3333333333335</ele><time>2026-05-02T13:45:17.999Z</time></trkpt><trkpt lat="44.97050075052652" lon="5.336330116134261"><ele>1050.6666666666667</ele><time>2026-05-02T13:45:18.999Z</time></trkpt><trkpt lat="44.97061002660616" lon="5.336141628651703"><ele>1050.0</ele><time>2026-05-02T13:45:19.999Z</time></trkpt><trkpt lat="44.97068607201013" lon="5.335880797665616"><ele>1050.0</ele><time>2026-05-02T13:45:20.999Z</time></trkpt><trkpt lat="44.970771113606645" lon="5.335609550889865"><ele>1050.0</ele><time>2026-05-02T13:45:21.999Z</time></trkpt><trkpt lat="44.97089514032522" lon="5.335361297473022"><ele>1050.0</ele><time>2026-05-02T13:45:22.999Z</time></trkpt><trkpt lat="44.97105765446823" lon="5.33518540616473"><ele>1050.0</ele><time>2026-05-02T13:45:23.999Z</time></trkpt><trkpt lat="44.97123263664166" lon="5.33508577048743"><ele>1050.0</ele><time>2026-05-02T13:45:24.999Z</time></trkpt><trkpt lat="44.971430488998706" lon="5.335030906218978"><ele>1050.0</ele><time>2026-05-02T13:45:25.999Z</time></trkpt><trkpt lat="44.97164356658583" lon="5.334968109486511"><ele>1047.6666666666667</ele><time>2026-05-02T13:45:26.999Z</time></trkpt><trkpt lat="44.971835351906684" lon="5.334922174017445"><ele>1045.3333333333335</ele><time>2026-05-02T13:45:27.999Z</time></trkpt><trkpt lat="44.97204308080864" lon="5.334849565687184"><ele>1043.0</ele><time>2026-05-02T13:45:28.999Z</time></trkpt><trkpt lat="44.97225717748919" lon="5.334759926370169"><ele>1044.3333333333335</ele><time>2026-05-02T13:45:29.999Z</time></trkpt><trkpt lat="44.97247200829138" lon="5.334672390506503"><ele>1045.6666666666667</ele><time>2026-05-02T13:45:30.999Z</time></trkpt><trkpt lat="44.97268276051181" lon="5.334605558432558"><ele>1047.0</ele><time>2026-05-02T13:45:31.999Z</time></trkpt><trkpt lat="44.97289952595264" lon="5.334560905372484"><ele>1047.0</ele><time>2026-05-02T13:45:32.999Z</time></trkpt><trkpt lat="44.973115538147546" lon="5.334532482544368"><ele>1047.0</ele><time>2026-05-02T13:45:33.999Z</time></trkpt><trkpt lat="44.973311881214116" lon="5.334500506904109"><ele>1047.0</ele><time>2026-05-02T13:45:34.999Z</time></trkpt><trkpt lat="44.97349512825777" lon="5.334474063837826"><ele>1041.6666666666667</ele><time>2026-05-02T13:45:35.999Z</time></trkpt><trkpt lat="44.97367458433734" lon="5.334458463232696"><ele>1036.3333333333335</ele><time>2026-05-02T13:45:36.999Z</time></trkpt><trkpt lat="44.973865763268186" lon="5.33451643206407"><ele>1031.0</ele><time>2026-05-02T13:45:37.999Z</time></trkpt><trkpt lat="44.974058663252464" lon="5.334573142553619"><ele>1033.0</ele><time>2026-05-02T13:45:38.999Z</time></trkpt><trkpt lat="44.97423429411401" lon="5.334644727014629"><ele>1035.0</ele><time>2026-05-02T13:45:39.999Z</time></trkpt><trkpt lat="44.97439864105872" lon="5.334698424913829"><ele>1037.0</ele><time>2026-05-02T13:45:40.999Z</time></trkpt><trkpt lat="44.97456034012591" lon="5.334745743466684"><ele>1037.0</ele><time>2026-05-02T13:45:41.999Z</time></trkpt><trkpt lat="44.97472067021582" lon="5.334798608600534"><ele>1037.0</ele><time>2026-05-02T13:45:42.999Z</time></trkpt><trkpt lat="44.97484955348849" lon="5.334820281930568"><ele>1037.0</ele><time>2026-05-02T13:45:43.999Z</time></trkpt><trkpt lat="44.97495431897112" lon="5.334789576332689"><ele>1037.0</ele><time>2026-05-02T13:45:44.999Z</time></trkpt><trkpt lat="44.97506039822728" lon="5.334738721599365"><ele>1033.75</ele><time>2026-05-02T13:45:45.999Z</time></trkpt><trkpt lat="44.975168654885" lon="5.334654732803546"><ele>1030.5</ele><time>2026-05-02T13:45:46.999Z</time></trkpt><trkpt lat="44.97528734800343" lon="5.334564894833011"><ele>1027.25</ele><time>2026-05-02T13:45:47.999Z</time></trkpt><trkpt lat="44.9754229162503" lon="5.334489703677135"><ele>1024.0</ele><time>2026-05-02T13:45:48.999Z</time></trkpt><trkpt lat="44.975561337115295" lon="5.334405403222744"><ele>1024.0</ele><time>2026-05-02T13:45:49.999Z</time></trkpt><trkpt lat="44.975709853507425" lon="5.334306942603428"><ele>1024.0</ele><time>2026-05-02T13:45:50.999Z</time></trkpt><trkpt lat="44.975848147375125" lon="5.334201405769859"><ele>1024.0</ele><time>2026-05-02T13:45:51.999Z</time></trkpt><trkpt lat="44.97598761682074" lon="5.334091748394409"><ele>1024.0</ele><time>2026-05-02T13:45:52.999Z</time></trkpt><trkpt lat="44.976124387093044" lon="5.333975865867879"><ele>1024.0</ele><time>2026-05-02T13:45:53.999Z</time></trkpt><trkpt lat="44.976256252118155" lon="5.333875060385619"><ele>1024.0</ele><time>2026-05-02T13:45:54.999Z</time></trkpt><trkpt lat="44.97638064693292" lon="5.333777776132547"><ele>1021.0</ele><time>2026-05-02T13:45:55.999Z</time></trkpt><trkpt lat="44.976500914371044" lon="5.33370440008755"><ele>1018.0</ele><time>2026-05-02T13:45:56.999Z</time></trkpt><trkpt lat="44.97662076919042" lon="5.333632064314583"><ele>1015.0</ele><time>2026-05-02T13:45:57.999Z</time></trkpt><trkpt lat="44.97673227800618" lon="5.333577925726452"><ele>1012.0</ele><time>2026-05-02T13:45:58.999Z</time></trkpt><trkpt lat="44.97681634958705" lon="5.3335478141523565"><ele>1012.0</ele><time>2026-05-02T13:45:59.999Z</time></trkpt><trkpt lat="44.976901594302575" lon="5.333525733656435"><ele>1012.0</ele><time>2026-05-02T13:46:01.999Z</time></trkpt><trkpt lat="44.976982770225995" lon="5.333486715457953"><ele>1012.0</ele><time>2026-05-02T13:46:03.999Z</time></trkpt><trkpt lat="44.9770824563461" lon="5.333468750473978"><ele>1012.0</ele><time>2026-05-02T13:46:05.998Z</time></trkpt><trkpt lat="44.97720891180908" lon="5.333472711695298"><ele>1012.0</ele><time>2026-05-02T13:46:07.998Z</time></trkpt><trkpt lat="44.97728316928465" lon="5.333482862406466"><ele>1012.0</ele><time>2026-05-02T13:46:08.998Z</time></trkpt><trkpt lat="44.977354283644836" lon="5.33348314641559"><ele>1012.0</ele><time>2026-05-02T13:46:09.998Z</time></trkpt><trkpt lat="44.9774416556684" lon="5.333517734415855"><ele>1012.0</ele><time>2026-05-02T13:46:11.998Z</time></trkpt></trkseg><trkseg><trkpt lat="44.97754466313731" lon="5.333460561407474"><ele>1004.0</ele><time>2026-05-02T14:08:33.999Z</time></trkpt><trkpt lat="44.9776594628474" lon="5.33340118195841"><ele>1004.0000000000001</ele><time>2026-05-02T14:08:35.999Z</time></trkpt><trkpt lat="44.977718272599475" lon="5.333362558100736"><ele>1004.0000000000001</ele><time>2026-05-02T14:08:36.999Z</time></trkpt><trkpt lat="44.9778141327185" lon="5.333261768044533"><ele>1004.0</ele><time>2026-05-02T14:08:38.999Z</time></trkpt><trkpt lat="44.97790741744933" lon="5.333172678895556"><ele>1004.0</ele><time>2026-05-02T14:08:40.999Z</time></trkpt><trkpt lat="44.97799796922459" lon="5.3330925364905895"><ele>1012.8000000000001</ele><time>2026-05-02T14:08:42.999Z</time></trkpt><trkpt lat="44.97809027335508" lon="5.333016019312855"><ele>1021.6000000000001</ele><time>2026-05-02T14:08:45.021Z</time></trkpt><trkpt lat="44.97818284571642" lon="5.332955039285574"><ele>1030.4</ele><time>2026-05-02T14:08:47.019Z</time></trkpt><trkpt lat="44.97824764258291" lon="5.33282544882199"><ele>1039.2</ele><time>2026-05-02T14:08:48.999Z</time></trkpt><trkpt lat="44.97835933439955" lon="5.332777935232348"><ele>1048.0</ele><time>2026-05-02T14:08:49.999Z</time></trkpt><trkpt lat="44.9784184092837" lon="5.332721891594682"><ele>1048.0</ele><time>2026-05-02T14:08:51.019Z</time></trkpt><trkpt lat="44.97849355853711" lon="5.332652459190504"><ele>1048.0</ele><time>2026-05-02T14:08:52.019Z</time></trkpt><trkpt lat="44.97860012854579" lon="5.33255854766471"><ele>1048.0</ele><time>2026-05-02T14:08:53.021Z</time></trkpt><trkpt lat="44.97868252764924" lon="5.33248397456714"><ele>1048.0</ele><time>2026-05-02T14:08:54.018Z</time></trkpt><trkpt lat="44.97969048101918" lon="5.332613820215065"><ele>1048.75</ele><time>2026-05-02T14:09:01.999Z</time></trkpt><trkpt lat="44.97982074399219" lon="5.332656219204764"><ele>1049.5</ele><time>2026-05-02T14:09:02.999Z</time></trkpt><trkpt lat="44.979973868225024" lon="5.332677749501892"><ele>1050.25</ele><time>2026-05-02T14:09:03.999Z</time></trkpt><trkpt lat="44.98009652751579" lon="5.332731819498532"><ele>1051.0</ele><time>2026-05-02T14:09:04.999Z</time></trkpt><trkpt lat="44.980184588060325" lon="5.332867463144517"><ele>1046.75</ele><time>2026-05-02T14:09:05.999Z</time></trkpt><trkpt lat="44.980228427897295" lon="5.3330010612777645"><ele>1042.5</ele><time>2026-05-02T14:09:06.999Z</time></trkpt><trkpt lat="44.9803747118129" lon="5.332978810455486"><ele>1038.25</ele><time>2026-05-02T14:09:07.999Z</time></trkpt><trkpt lat="44.980463750413186" lon="5.333019264897929"><ele>1034.0</ele><time>2026-05-02T14:09:08.998Z</time></trkpt><trkpt lat="44.98059342989215" lon="5.332995895477915"><ele>1034.0</ele><time>2026-05-02T14:09:09.998Z</time></trkpt><trkpt lat="44.980723327150805" lon="5.3329724225563195"><ele>1034.0</ele><time>2026-05-02T14:09:10.998Z</time></trkpt><trkpt lat="44.980856402525696" lon="5.332976022768089"><ele>1034.0</ele><time>2026-05-02T14:09:11.998Z</time></trkpt><trkpt lat="44.980989759689145" lon="5.333035895171396"><ele>1034.0</ele><time>2026-05-02T14:09:12.998Z</time></trkpt><trkpt lat="44.981134534551536" lon="5.333104847796419"><ele>1031.75</ele><time>2026-05-02T14:09:13.998Z</time></trkpt><trkpt lat="44.98127860356924" lon="5.3331406638643495"><ele>1029.5</ele><time>2026-05-02T14:09:14.998Z</time></trkpt><trkpt lat="44.981410650190945" lon="5.333127877327814"><ele>1027.25</ele><time>2026-05-02T14:09:15.998Z</time></trkpt><trkpt lat="44.98156143372286" lon="5.333084778666216"><ele>1025.0</ele><time>2026-05-02T14:09:16.998Z</time></trkpt><trkpt lat="44.981744486282" lon="5.333052976449003"><ele>1012.0</ele><time>2026-05-02T14:09:17.998Z</time></trkpt><trkpt lat="44.981946626777045" lon="5.333077654643151"><ele>999.0</ele><time>2026-05-02T14:09:18.998Z</time></trkpt><trkpt lat="44.98215357079059" lon="5.333109145857698"><ele>986.0</ele><time>2026-05-02T14:09:19.998Z</time></trkpt><trkpt lat="44.982346023678936" lon="5.333159205057201"><ele>986.0</ele><time>2026-05-02T14:09:20.998Z</time></trkpt><trkpt lat="44.982514596431976" lon="5.3332148330187845"><ele>986.0</ele><time>2026-05-02T14:09:21.998Z</time></trkpt><trkpt lat="44.982668253213085" lon="5.333243349225825"><ele>986.0</ele><time>2026-05-02T14:09:22.998Z</time></trkpt><trkpt lat="44.98281253169582" lon="5.333221695144899"><ele>981.0</ele><time>2026-05-02T14:09:23.998Z</time></trkpt><trkpt lat="44.98295667705196" lon="5.333149636217927"><ele>976.0</ele><time>2026-05-02T14:09:24.998Z</time></trkpt><trkpt lat="44.98311244387403" lon="5.33307173702884"><ele>971.0</ele><time>2026-05-02T14:09:25.998Z</time></trkpt><trkpt lat="44.98328172261143" lon="5.333046526489487"><ele>980.0</ele><time>2026-05-02T14:09:26.998Z</time></trkpt><trkpt lat="44.983455830904184" lon="5.333054004750289"><ele>989.0</ele><time>2026-05-02T14:09:27.998Z</time></trkpt><trkpt lat="44.983623618666826" lon="5.3329967878111315"><ele>998.0</ele><time>2026-05-02T14:09:28.998Z</time></trkpt><trkpt lat="44.98378557621399" lon="5.3328950313589685"><ele>998.0</ele><time>2026-05-02T14:09:29.998Z</time></trkpt><trkpt lat="44.98393607776184" lon="5.332784194987087"><ele>998.0</ele><time>2026-05-02T14:09:30.998Z</time></trkpt><trkpt lat="44.98408888764741" lon="5.332683144278642"><ele>998.0</ele><time>2026-05-02T14:09:31.998Z</time></trkpt><trkpt lat="44.984255628290484" lon="5.332624197346288"><ele>997.3333333333334</ele><time>2026-05-02T14:09:32.998Z</time></trkpt><trkpt lat="44.98442778325414" lon="5.332602780865371"><ele>996.6666666666667</ele><time>2026-05-02T14:09:33.998Z</time></trkpt><trkpt lat="44.984605411289316" lon="5.332582389444274"><ele>996.0</ele><time>2026-05-02T14:09:35Z</time></trkpt><trkpt lat="44.98478986790693" lon="5.3325801573100975"><ele>996.0</ele><time>2026-05-02T14:09:36Z</time></trkpt><trkpt lat="44.98497873614519" lon="5.332589859169021"><ele>996.0</ele><time>2026-05-02T14:09:37Z</time></trkpt><trkpt lat="44.985170785561905" lon="5.3326131801811805"><ele>996.0</ele><time>2026-05-02T14:09:38Z</time></trkpt><trkpt lat="44.98535662604019" lon="5.332618035372396"><ele>995.0</ele><time>2026-05-02T14:09:39Z</time></trkpt><trkpt lat="44.985523528432346" lon="5.332596631908181"><ele>994.0</ele><time>2026-05-02T14:09:40Z</time></trkpt><trkpt lat="44.985682743854596" lon="5.332630339944864"><ele>993.0</ele><time>2026-05-02T14:09:41Z</time></trkpt><trkpt lat="44.98584347679985" lon="5.33272597906671"><ele>997.3333333333333</ele><time>2026-05-02T14:09:42Z</time></trkpt><trkpt lat="44.98600823102376" lon="5.332847602187369"><ele>1001.6666666666666</ele><time>2026-05-02T14:09:43Z</time></trkpt><trkpt lat="44.9861884137644" lon="5.332929180746441"><ele>1006.0</ele><time>2026-05-02T14:09:44Z</time></trkpt><trkpt lat="44.986384455243034" lon="5.332969741597714"><ele>1006.0</ele><time>2026-05-02T14:09:45Z</time></trkpt><trkpt lat="44.986591198358916" lon="5.333018434705636"><ele>1006.0</ele><time>2026-05-02T14:09:46Z</time></trkpt><trkpt lat="44.9867966390866" lon="5.3330690731377715"><ele>1006.0</ele><time>2026-05-02T14:09:47Z</time></trkpt><trkpt lat="44.98699858480939" lon="5.333126333588265"><ele>998.0</ele><time>2026-05-02T14:09:48Z</time></trkpt><trkpt lat="44.987176085273326" lon="5.33319364187979"><ele>990.0</ele><time>2026-05-02T14:09:49Z</time></trkpt><trkpt lat="44.98733816279158" lon="5.333274194856211"><ele>982.0</ele><time>2026-05-02T14:09:50Z</time></trkpt><trkpt lat="44.987484312850384" lon="5.333373786806903"><ele>985.5</ele><time>2026-05-02T14:09:51Z</time></trkpt><trkpt lat="44.98762132912855" lon="5.333475203183353"><ele>989.0</ele><time>2026-05-02T14:09:52Z</time></trkpt><trkpt lat="44.987745899581036" lon="5.33358416291766"><ele>992.5</ele><time>2026-05-02T14:09:53Z</time></trkpt><trkpt lat="44.98786511475036" lon="5.3336749672495465"><ele>996.0</ele><time>2026-05-02T14:09:54Z</time></trkpt><trkpt lat="44.987995841144695" lon="5.3336995865307415"><ele>996.0</ele><time>2026-05-02T14:09:55Z</time></trkpt><trkpt lat="44.98812619148896" lon="5.333645475826437"><ele>996.0</ele><time>2026-05-02T14:09:56Z</time></trkpt><trkpt lat="44.98824614806368" lon="5.333531531162871"><ele>996.0</ele><time>2026-05-02T14:09:57Z</time></trkpt><trkpt lat="44.988346550526686" lon="5.333375582281542"><ele>996.0</ele><time>2026-05-02T14:09:58Z</time></trkpt><trkpt lat="44.98844670764424" lon="5.333175478026488"><ele>1038.3333333333333</ele><time>2026-05-02T14:09:59Z</time></trkpt><trkpt lat="44.98856552973573" lon="5.332976930107428"><ele>1080.6666666666665</ele><time>2026-05-02T14:10:00Z</time></trkpt><trkpt lat="44.98865556281066" lon="5.33279275929451"><ele>1123.0</ele><time>2026-05-02T14:10:01Z</time></trkpt><trkpt lat="44.98873238336046" lon="5.332656517843946"><ele>1123.0</ele><time>2026-05-02T14:10:02Z</time></trkpt><trkpt lat="44.98883957340011" lon="5.332614072005578"><ele>1123.0</ele><time>2026-05-02T14:10:03Z</time></trkpt><trkpt lat="44.9889480579244" lon="5.332618207160259"><ele>1123.0</ele><time>2026-05-02T14:10:04Z</time></trkpt><trkpt lat="44.989053353846266" lon="5.332675435344481"><ele>1123.0</ele><time>2026-05-02T14:10:05Z</time></trkpt><trkpt lat="44.98914090444272" lon="5.332805203741913"><ele>1120.3333333333333</ele><time>2026-05-02T14:10:06Z</time></trkpt><trkpt lat="44.98923117341646" lon="5.332968727795471"><ele>1117.6666666666667</ele><time>2026-05-02T14:10:07Z</time></trkpt><trkpt lat="44.9893170839511" lon="5.333172485861574"><ele>1115.0</ele><time>2026-05-02T14:10:08Z</time></trkpt><trkpt lat="44.98941239460073" lon="5.3333478337265"><ele>1115.0</ele><time>2026-05-02T14:10:09Z</time></trkpt><trkpt lat="44.98952783190131" lon="5.333476644436996"><ele>1115.0</ele><time>2026-05-02T14:10:10Z</time></trkpt><trkpt lat="44.98967513017829" lon="5.333582022035743"><ele>1115.0</ele><time>2026-05-02T14:10:11Z</time></trkpt><trkpt lat="44.98984748071938" lon="5.333666472942467"><ele>1100.0</ele><time>2026-05-02T14:10:12Z</time></trkpt><trkpt lat="44.99002445239923" lon="5.33372669667047"><ele>1085.0</ele><time>2026-05-02T14:10:13Z</time></trkpt><trkpt lat="44.9901728247301" lon="5.333808685373987"><ele>1070.0</ele><time>2026-05-02T14:10:14Z</time></trkpt><trkpt lat="44.99032477835592" lon="5.33387285680086"><ele>1070.0</ele><time>2026-05-02T14:10:15Z</time></trkpt><trkpt lat="44.9905009844609" lon="5.33387482485796"><ele>1070.0</ele><time>2026-05-02T14:10:16Z</time></trkpt><trkpt lat="44.99068577267328" lon="5.333846598034384"><ele>1070.0</ele><time>2026-05-02T14:10:17Z</time></trkpt><trkpt lat="44.99086733258478" lon="5.3338077960381245"><ele>1069.0</ele><time>2026-05-02T14:10:17.999Z</time></trkpt><trkpt lat="44.99105659684217" lon="5.333763812858143"><ele>1068.0</ele><time>2026-05-02T14:10:18.999Z</time></trkpt><trkpt lat="44.99125441784756" lon="5.333733119611543"><ele>1067.0</ele><time>2026-05-02T14:10:19.999Z</time></trkpt><trkpt lat="44.99145781809678" lon="5.333735832767439"><ele>1067.0</ele><time>2026-05-02T14:10:20.999Z</time></trkpt><trkpt lat="44.991663365467474" lon="5.333737585806489"><ele>1067.0</ele><time>2026-05-02T14:10:21.999Z</time></trkpt><trkpt lat="44.99185480757619" lon="5.333749952215599"><ele>1067.0</ele><time>2026-05-02T14:10:22.999Z</time></trkpt><trkpt lat="44.992039254333385" lon="5.333798772053563"><ele>1072.3333333333335</ele><time>2026-05-02T14:10:23.999Z</time></trkpt><trkpt lat="44.992221903965365" lon="5.333867284697957"><ele>1077.6666666666667</ele><time>2026-05-02T14:10:24.999Z</time></trkpt><trkpt lat="44.992395642765324" lon="5.333938702364669"><ele>1083.0</ele><time>2026-05-02T14:10:25.999Z</time></trkpt><trkpt lat="44.99256007733624" lon="5.333999608549655"><ele>1083.0</ele><time>2026-05-02T14:10:26.999Z</time></trkpt><trkpt lat="44.992712710410586" lon="5.33402383234795"><ele>1083.0</ele><time>2026-05-02T14:10:27.999Z</time></trkpt><trkpt lat="44.99287556760693" lon="5.333996633209594"><ele>1083.0</ele><time>2026-05-02T14:10:28.999Z</time></trkpt><trkpt lat="44.99304263552081" lon="5.333994957102607"><ele>1083.0</ele><time>2026-05-02T14:10:29.999Z</time></trkpt><trkpt lat="44.99321010808114" lon="5.334059302102626"><ele>1083.0</ele><time>2026-05-02T14:10:30.999Z</time></trkpt><trkpt lat="44.993379852070795" lon="5.334122599029261"><ele>1083.0</ele><time>2026-05-02T14:10:31.999Z</time></trkpt><trkpt lat="44.99355968960977" lon="5.334101011050229"><ele>1074.3333333333333</ele><time>2026-05-02T14:10:32.999Z</time></trkpt><trkpt lat="44.99374840978834" lon="5.334021832799437"><ele>1065.6666666666665</ele><time>2026-05-02T14:10:33.999Z</time></trkpt><trkpt lat="44.99393666565347" lon="5.333939591052004"><ele>1057.0</ele><time>2026-05-02T14:10:34.999Z</time></trkpt><trkpt lat="44.99413216714799" lon="5.333867675844928"><ele>1047.0</ele><time>2026-05-02T14:10:35.999Z</time></trkpt><trkpt lat="44.99431025372827" lon="5.333923385203334"><ele>1037.0</ele><time>2026-05-02T14:10:36.999Z</time></trkpt><trkpt lat="44.99447904241422" lon="5.3339795972164294"><ele>1027.0</ele><time>2026-05-02T14:10:37.999Z</time></trkpt><trkpt lat="44.99465441956218" lon="5.333995513200725"><ele>1027.0</ele><time>2026-05-02T14:10:38.999Z</time></trkpt><trkpt lat="44.99483162296627" lon="5.333936830417486"><ele>1027.0</ele><time>2026-05-02T14:10:39.999Z</time></trkpt><trkpt lat="44.99503293626912" lon="5.333895377527341"><ele>1027.0</ele><time>2026-05-02T14:10:40.999Z</time></trkpt><trkpt lat="44.99523433504748" lon="5.333943802533004"><ele>1025.6666666666665</ele><time>2026-05-02T14:10:41.999Z</time></trkpt><trkpt lat="44.99542433201173" lon="5.334038097925177"><ele>1024.3333333333333</ele><time>2026-05-02T14:10:42.999Z</time></trkpt><trkpt lat="44.99563143584191" lon="5.334117209639437"><ele>1023.0</ele><time>2026-05-02T14:10:43.999Z</time></trkpt><trkpt lat="44.995836923416995" lon="5.334206423461507"><ele>1020.0</ele><time>2026-05-02T14:10:44.999Z</time></trkpt><trkpt lat="44.996036372312965" lon="5.334294448548477"><ele>1017.0</ele><time>2026-05-02T14:10:45.999Z</time></trkpt><trkpt lat="44.99622943887736" lon="5.334377478961059"><ele>1014.0</ele><time>2026-05-02T14:10:46.999Z</time></trkpt><trkpt lat="44.996408433944886" lon="5.334458888703254"><ele>1014.0</ele><time>2026-05-02T14:10:47.999Z</time></trkpt><trkpt lat="44.996568940069125" lon="5.334543732698282"><ele>1014.0</ele><time>2026-05-02T14:10:48.999Z</time></trkpt><trkpt lat="44.99671067864935" lon="5.334640221197084"><ele>1014.0</ele><time>2026-05-02T14:10:49.999Z</time></trkpt><trkpt lat="44.99683187976259" lon="5.334724566286061"><ele>1012.5</ele><time>2026-05-02T14:10:50.999Z</time></trkpt><trkpt lat="44.99695539090328" lon="5.334760680117707"><ele>1011.0</ele><time>2026-05-02T14:10:51.999Z</time></trkpt><trkpt lat="44.99707768241583" lon="5.334744568687272"><ele>1009.5</ele><time>2026-05-02T14:10:52.999Z</time></trkpt><trkpt lat="44.997205257862284" lon="5.334707967557661"><ele>1008.0</ele><time>2026-05-02T14:10:53.999Z</time></trkpt><trkpt lat="44.997334329736304" lon="5.33468201571691"><ele>1008.0</ele><time>2026-05-02T14:10:54.999Z</time></trkpt><trkpt lat="44.9974696385329" lon="5.334660244016378"><ele>1008.0</ele><time>2026-05-02T14:10:55.999Z</time></trkpt><trkpt lat="44.997604306508116" lon="5.334634555649093"><ele>1008.0</ele><time>2026-05-02T14:10:56.999Z</time></trkpt><trkpt lat="44.99773614494533" lon="5.334621108449356"><ele>1008.0</ele><time>2026-05-02T14:10:57.999Z</time></trkpt><trkpt lat="44.99786696385015" lon="5.334595616007273"><ele>1006.5</ele><time>2026-05-02T14:10:58.999Z</time></trkpt><trkpt lat="44.99800382191917" lon="5.334552340770682"><ele>1005.0</ele><time>2026-05-02T14:10:59.999Z</time></trkpt><trkpt lat="44.99813972243253" lon="5.334504397517029"><ele>1003.5</ele><time>2026-05-02T14:11:00.999Z</time></trkpt><trkpt lat="44.998274072444936" lon="5.334443669071146"><ele>1002.0</ele><time>2026-05-02T14:11:01.999Z</time></trkpt><trkpt lat="44.99839623519977" lon="5.334394156851935"><ele>999.5</ele><time>2026-05-02T14:11:02.999Z</time></trkpt><trkpt lat="44.99849713500734" lon="5.334337838242561"><ele>997.0</ele><time>2026-05-02T14:11:03.999Z</time></trkpt><trkpt lat="44.99860126844491" lon="5.334245864409007"><ele>994.5</ele><time>2026-05-02T14:11:04.999Z</time></trkpt><trkpt lat="44.99870409244935" lon="5.334135560433258"><ele>992.0</ele><time>2026-05-02T14:11:05.999Z</time></trkpt><trkpt lat="44.99882537212957" lon="5.334049897275559"><ele>992.0</ele><time>2026-05-02T14:11:06.999Z</time></trkpt><trkpt lat="44.99892755837798" lon="5.333994903954107"><ele>992.0</ele><time>2026-05-02T14:11:07.999Z</time></trkpt><trkpt lat="44.999042796605636" lon="5.3339413933507585"><ele>992.0</ele><time>2026-05-02T14:11:08.999Z</time></trkpt><trkpt lat="44.99914794832979" lon="5.334009311691764"><ele>992.0</ele><time>2026-05-02T14:11:09.999Z</time></trkpt><trkpt lat="44.99924231848543" lon="5.334058408544208"><ele>992.0</ele><time>2026-05-02T14:11:10.999Z</time></trkpt><trkpt lat="44.99930586521742" lon="5.334117748705869"><ele>990.6666666666667</ele><time>2026-05-02T14:11:11.999Z</time></trkpt><trkpt lat="44.999370303007765" lon="5.334119989072669"><ele>989.3333333333334</ele><time>2026-05-02T14:11:12.998Z</time></trkpt><trkpt lat="44.99944231365878" lon="5.334072324177494"><ele>988.0</ele><time>2026-05-02T14:11:13.998Z</time></trkpt><trkpt lat="44.99951332799052" lon="5.334020651283558"><ele>986.6666666666667</ele><time>2026-05-02T14:11:14.998Z</time></trkpt><trkpt lat="44.9995761754676" lon="5.333963236337303"><ele>985.3333333333334</ele><time>2026-05-02T14:11:15.998Z</time></trkpt><trkpt lat="44.99963297606258" lon="5.333882255820869"><ele>984.0</ele><time>2026-05-02T14:11:16.998Z</time></trkpt><trkpt lat="44.99968273567643" lon="5.333743504217154"><ele>984.0</ele><time>2026-05-02T14:11:17.998Z</time></trkpt><trkpt lat="44.99974609743924" lon="5.333644596662122"><ele>984.0000000000001</ele><time>2026-05-02T14:11:18.998Z</time></trkpt><trkpt lat="44.9998258758813" lon="5.333583786914007"><ele>984.0000000000001</ele><time>2026-05-02T14:11:19.998Z</time></trkpt><trkpt lat="44.99989844872642" lon="5.333533719144867"><ele>984.0</ele><time>2026-05-02T14:11:20.998Z</time></trkpt><trkpt lat="44.99999936293756" lon="5.333468295296138"><ele>984.0</ele><time>2026-05-02T14:11:21.998Z</time></trkpt><trkpt lat="45.00007872200203" lon="5.333420139939564"><ele>984.0</ele><time>2026-05-02T14:11:22.998Z</time></trkpt><trkpt lat="45.000203563376814" lon="5.333317998128268"><ele>984.0</ele><time>2026-05-02T14:11:24.998Z</time></trkpt><trkpt lat="45.000247286795215" lon="5.333231888229633"><ele>984.0</ele><time>2026-05-02T14:11:25.998Z</time></trkpt><trkpt lat="45.00028121680155" lon="5.3330781390038915"><ele>984.0</ele><time>2026-05-02T14:11:26.998Z</time></trkpt><trkpt lat="45.00033258557444" lon="5.332916122879609"><ele>986.75</ele><time>2026-05-02T14:11:27.998Z</time></trkpt><trkpt lat="45.00040923601297" lon="5.332777210363772"><ele>989.5</ele><time>2026-05-02T14:11:28.998Z</time></trkpt><trkpt lat="45.00050692629186" lon="5.332669693394222"><ele>992.25</ele><time>2026-05-02T14:11:29.998Z</time></trkpt><trkpt lat="45.00063381789711" lon="5.33260306549819"><ele>995.0</ele><time>2026-05-02T14:11:30.998Z</time></trkpt><trkpt lat="45.000756894599036" lon="5.332525479515334"><ele>986.0</ele><time>2026-05-02T14:11:31.998Z</time></trkpt><trkpt lat="45.00086800000341" lon="5.3324136543612"><ele>977.0</ele><time>2026-05-02T14:11:32.998Z</time></trkpt><trkpt lat="45.000961789400634" lon="5.332311012047254"><ele>968.0</ele><time>2026-05-02T14:11:33.998Z</time></trkpt><trkpt lat="45.001073849776695" lon="5.33229849440591"><ele>959.0</ele><time>2026-05-02T14:11:34.998Z</time></trkpt><trkpt lat="45.0011498933182" lon="5.332363861336672"><ele>959.0</ele><time>2026-05-02T14:11:35.998Z</time></trkpt><trkpt lat="45.001242615975976" lon="5.332377748544032"><ele>959.0000000000001</ele><time>2026-05-02T14:11:36.998Z</time></trkpt><trkpt lat="45.00131310180007" lon="5.332413013374483"><ele>959.0000000000001</ele><time>2026-05-02T14:11:37.998Z</time></trkpt><trkpt lat="45.001412101092775" lon="5.332422401785274"><ele>959.0</ele><time>2026-05-02T14:11:39.998Z</time></trkpt><trkpt lat="45.00147802601828" lon="5.332347792890699"><ele>959.0</ele><time>2026-05-02T14:11:41Z</time></trkpt><trkpt lat="45.00156536726751" lon="5.3322647381934045"><ele>960.6</ele><time>2026-05-02T14:11:42Z</time></trkpt><trkpt lat="45.00165640216272" lon="5.332179021135728"><ele>962.2</ele><time>2026-05-02T14:11:43Z</time></trkpt><trkpt lat="45.0017409398746" lon="5.332081384234051"><ele>963.8000000000001</ele><time>2026-05-02T14:11:44Z</time></trkpt><trkpt lat="45.00180822504106" lon="5.331964887910384"><ele>965.4000000000001</ele><time>2026-05-02T14:11:45Z</time></trkpt><trkpt lat="45.001877296283574" lon="5.331853502326042"><ele>967.0</ele><time>2026-05-02T14:11:46Z</time></trkpt><trkpt lat="45.0019034640801" lon="5.331716952604048"><ele>957.0</ele><time>2026-05-02T14:11:47Z</time></trkpt><trkpt lat="45.00191562676049" lon="5.331570921533944"><ele>947.0</ele><time>2026-05-02T14:11:48Z</time></trkpt><trkpt lat="45.001910989358414" lon="5.3314192406601855"><ele>937.0</ele><time>2026-05-02T14:11:49Z</time></trkpt><trkpt lat="45.00187850315459" lon="5.331253760489717"><ele>927.0</ele><time>2026-05-02T14:11:50Z</time></trkpt><trkpt lat="45.00186377212734" lon="5.331072495680387"><ele>927.0</ele><time>2026-05-02T14:11:51Z</time></trkpt><trkpt lat="45.00185042201502" lon="5.330894465306555"><ele>927.0</ele><time>2026-05-02T14:11:52Z</time></trkpt><trkpt lat="45.00183801226708" lon="5.330711374082366"><ele>927.0</ele><time>2026-05-02T14:11:53Z</time></trkpt><trkpt lat="45.00181242706721" lon="5.330534681137097"><ele>927.0</ele><time>2026-05-02T14:11:54Z</time></trkpt><trkpt lat="45.00181586226148" lon="5.330379298133566"><ele>928.0</ele><time>2026-05-02T14:11:55Z</time></trkpt><trkpt lat="45.00186935218097" lon="5.330239927844873"><ele>929.0</ele><time>2026-05-02T14:11:56Z</time></trkpt><trkpt lat="45.00198312741106" lon="5.330162135152707"><ele>930.0</ele><time>2026-05-02T14:11:57Z</time></trkpt><trkpt lat="45.002122953904006" lon="5.330097713450277"><ele>931.0</ele><time>2026-05-02T14:11:58Z</time></trkpt><trkpt lat="45.002285167970385" lon="5.330038489363379"><ele>931.0</ele><time>2026-05-02T14:11:59Z</time></trkpt><trkpt lat="45.00245808912529" lon="5.330023594606584"><ele>931.0</ele><time>2026-05-02T14:12:00Z</time></trkpt><trkpt lat="45.002615163114655" lon="5.330035442900076"><ele>931.0</ele><time>2026-05-02T14:12:01Z</time></trkpt><trkpt lat="45.00277642615723" lon="5.330048828954186"><ele>926.75</ele><time>2026-05-02T14:12:02Z</time></trkpt><trkpt lat="45.00292437875041" lon="5.3300602860080115"><ele>922.5</ele><time>2026-05-02T14:12:03Z</time></trkpt><trkpt lat="45.00305826167536" lon="5.3300552670018755"><ele>918.25</ele><time>2026-05-02T14:12:04Z</time></trkpt><trkpt lat="45.003177895568925" lon="5.330044952795252"><ele>914.0</ele><time>2026-05-02T14:12:05Z</time></trkpt><trkpt lat="45.00330339177037" lon="5.330069160050112"><ele>913.0</ele><time>2026-05-02T14:12:06Z</time></trkpt><trkpt lat="45.00345157463288" lon="5.330064436829379"><ele>912.0</ele><time>2026-05-02T14:12:07Z</time></trkpt><trkpt lat="45.003603940667304" lon="5.330035382274452"><ele>911.0</ele><time>2026-05-02T14:12:08Z</time></trkpt><trkpt lat="45.00379621734809" lon="5.3300279045895165"><ele>911.0</ele><time>2026-05-02T14:12:09Z</time></trkpt><trkpt lat="45.00402592214778" lon="5.330006891378196"><ele>911.0</ele><time>2026-05-02T14:12:10Z</time></trkpt><trkpt lat="45.004259024223266" lon="5.329978645598746"><ele>907.0</ele><time>2026-05-02T14:12:11Z</time></trkpt><trkpt lat="45.00446658618265" lon="5.3299475218377905"><ele>903.0</ele><time>2026-05-02T14:12:12Z</time></trkpt><trkpt lat="45.00465662113251" lon="5.3299118978534485"><ele>899.0</ele><time>2026-05-02T14:12:13Z</time></trkpt><trkpt lat="45.00483386528044" lon="5.32986347201669"><ele>898.3333333333334</ele><time>2026-05-02T14:12:14Z</time></trkpt><trkpt lat="45.00500027102587" lon="5.329766173567045"><ele>897.6666666666667</ele><time>2026-05-02T14:12:15Z</time></trkpt><trkpt lat="45.00515996424865" lon="5.32961471468865"><ele>897.0</ele><time>2026-05-02T14:12:16Z</time></trkpt><trkpt lat="45.00529608148803" lon="5.32941084682997"><ele>897.0</ele><time>2026-05-02T14:12:17Z</time></trkpt><trkpt lat="45.005421362247404" lon="5.3291951067282435"><ele>897.0</ele><time>2026-05-02T14:12:18Z</time></trkpt><trkpt lat="45.00556047485745" lon="5.328980913503997"><ele>897.0</ele><time>2026-05-02T14:12:19Z</time></trkpt><trkpt lat="45.00569832630488" lon="5.328784760190515"><ele>895.3333333333333</ele><time>2026-05-02T14:12:20Z</time></trkpt><trkpt lat="45.005816509943514" lon="5.32861298655004"><ele>893.6666666666666</ele><time>2026-05-02T14:12:21Z</time></trkpt><trkpt lat="45.005921487752595" lon="5.328434941067645"><ele>892.0</ele><time>2026-05-02T14:12:21.999Z</time></trkpt><trkpt lat="45.005987888051365" lon="5.328236490501819"><ele>891.3333333333333</ele><time>2026-05-02T14:12:22.999Z</time></trkpt><trkpt lat="45.00601065746608" lon="5.327985207940817"><ele>890.6666666666667</ele><time>2026-05-02T14:12:23.999Z</time></trkpt><trkpt lat="45.00599273474897" lon="5.327738638272274"><ele>890.0</ele><time>2026-05-02T14:12:24.999Z</time></trkpt><trkpt lat="45.005929307638105" lon="5.327510109380068"><ele>886.6666666666667</ele><time>2026-05-02T14:12:25.999Z</time></trkpt><trkpt lat="45.00581761750359" lon="5.327329266245167"><ele>883.3333333333333</ele><time>2026-05-02T14:12:26.999Z</time></trkpt><trkpt lat="45.005684206754985" lon="5.327168837491005"><ele>880.0</ele><time>2026-05-02T14:12:27.999Z</time></trkpt><trkpt lat="45.00559429869821" lon="5.326972742610957"><ele>878.25</ele><time>2026-05-02T14:12:28.999Z</time></trkpt><trkpt lat="45.00552693960504" lon="5.326781472796144"><ele>876.5</ele><time>2026-05-02T14:12:29.999Z</time></trkpt><trkpt lat="45.00550267695495" lon="5.326599515641969"><ele>874.75</ele><time>2026-05-02T14:12:30.999Z</time></trkpt><trkpt lat="45.00553380746362" lon="5.326408025188234"><ele>873.0</ele><time>2026-05-02T14:12:31.999Z</time></trkpt><trkpt lat="45.005604034467915" lon="5.3262194162738234"><ele>871.6666666666667</ele><time>2026-05-02T14:12:32.999Z</time></trkpt><trkpt lat="45.005658151509294" lon="5.326013467342918"><ele>870.3333333333334</ele><time>2026-05-02T14:12:33.999Z</time></trkpt><trkpt lat="45.0057062761401" lon="5.325808547173786"><ele>869.0</ele><time>2026-05-02T14:12:34.999Z</time></trkpt><trkpt lat="45.00569446874295" lon="5.325590691674812"><ele>868.6666666666667</ele><time>2026-05-02T14:12:35.999Z</time></trkpt><trkpt lat="45.00563247251399" lon="5.325367340626357"><ele>868.3333333333333</ele><time>2026-05-02T14:12:36.999Z</time></trkpt><trkpt lat="45.00550936730683" lon="5.325172482150317"><ele>868.0</ele><time>2026-05-02T14:12:37.999Z</time></trkpt><trkpt lat="45.005355899052105" lon="5.324985500918851"><ele>868.0</ele><time>2026-05-02T14:12:38.999Z</time></trkpt><trkpt lat="45.00520350357076" lon="5.324793190365197"><ele>868.0</ele><time>2026-05-02T14:12:39.999Z</time></trkpt><trkpt lat="45.00506532017619" lon="5.3246027088721375"><ele>868.0</ele><time>2026-05-02T14:12:40.999Z</time></trkpt><trkpt lat="45.00493570744839" lon="5.324401112900366"><ele>868.0</ele><time>2026-05-02T14:12:41.999Z</time></trkpt><trkpt lat="45.00479199796401" lon="5.324196505212827"><ele>868.0</ele><time>2026-05-02T14:12:42.999Z</time></trkpt><trkpt lat="45.00464492933361" lon="5.324000827079891"><ele>868.0</ele><time>2026-05-02T14:12:43.999Z</time></trkpt><trkpt lat="45.004495786365915" lon="5.323792309705417"><ele>867.6666666666666</ele><time>2026-05-02T14:12:44.999Z</time></trkpt><trkpt lat="45.00435031876727" lon="5.323572823458516"><ele>867.3333333333333</ele><time>2026-05-02T14:12:45.999Z</time></trkpt><trkpt lat="45.0042056453866" lon="5.323346590921061"><ele>867.0</ele><time>2026-05-02T14:12:46.999Z</time></trkpt><trkpt lat="45.00405091285043" lon="5.32312245457166"><ele>865.0</ele><time>2026-05-02T14:12:47.999Z</time></trkpt><trkpt lat="45.00389668239895" lon="5.322908827281858"><ele>863.0</ele><time>2026-05-02T14:12:48.999Z</time></trkpt><trkpt lat="45.00374311891171" lon="5.322737505080473"><ele>861.0</ele><time>2026-05-02T14:12:49.999Z</time></trkpt><trkpt lat="45.00358011554447" lon="5.322592151914994"><ele>861.0</ele><time>2026-05-02T14:12:50.999Z</time></trkpt><trkpt lat="45.00342786022131" lon="5.322452279969326"><ele>861.0</ele><time>2026-05-02T14:12:51.999Z</time></trkpt><trkpt lat="45.003287168949754" lon="5.322321579073003"><ele>861.0</ele><time>2026-05-02T14:12:52.999Z</time></trkpt><trkpt lat="45.00315545838001" lon="5.322169058243253"><ele>861.3333333333333</ele><time>2026-05-02T14:12:53.999Z</time></trkpt><trkpt lat="45.003083498888564" lon="5.321974775807077"><ele>861.6666666666666</ele><time>2026-05-02T14:12:54.999Z</time></trkpt><trkpt lat="45.00303761796405" lon="5.321741889212394"><ele>862.0</ele><time>2026-05-02T14:12:55.999Z</time></trkpt><trkpt lat="45.00302842539784" lon="5.321497880710233"><ele>861.0</ele><time>2026-05-02T14:12:56.999Z</time></trkpt><trkpt lat="45.00305419186334" lon="5.321267243689547"><ele>860.0</ele><time>2026-05-02T14:12:57.999Z</time></trkpt><trkpt lat="45.003067585851014" lon="5.321075823042872"><ele>859.0</ele><time>2026-05-02T14:12:58.999Z</time></trkpt><trkpt lat="45.0031015575863" lon="5.320931492827483"><ele>858.0</ele><time>2026-05-02T14:12:59.999Z</time></trkpt><trkpt lat="45.003121912103786" lon="5.320793802248422"><ele>858.0</ele><time>2026-05-02T14:13:00.999Z</time></trkpt><trkpt lat="45.00313845879061" lon="5.320670493502593"><ele>858.0</ele><time>2026-05-02T14:13:01.999Z</time></trkpt><trkpt lat="45.00318354702264" lon="5.320550682751183"><ele>858.0</ele><time>2026-05-02T14:13:02.999Z</time></trkpt><trkpt lat="45.003217738549104" lon="5.3204067458220115"><ele>858.0</ele><time>2026-05-02T14:13:03.999Z</time></trkpt><trkpt lat="45.00330040021668" lon="5.320274513194481"><ele>858.0</ele><time>2026-05-02T14:13:04.999Z</time></trkpt><trkpt lat="45.00340215394517" lon="5.320156673436373"><ele>856.75</ele><time>2026-05-02T14:13:05.999Z</time></trkpt><trkpt lat="45.00350100447629" lon="5.320032911680745"><ele>855.5</ele><time>2026-05-02T14:13:06.999Z</time></trkpt><trkpt lat="45.00360044411084" lon="5.319914235836921"><ele>854.25</ele><time>2026-05-02T14:13:07.999Z</time></trkpt><trkpt lat="45.003707170511184" lon="5.319810424220835"><ele>853.0</ele><time>2026-05-02T14:13:08.999Z</time></trkpt><trkpt lat="45.003836865175096" lon="5.319728471223628"><ele>853.0</ele><time>2026-05-02T14:13:09.999Z</time></trkpt><trkpt lat="45.00398443229887" lon="5.319677007766218"><ele>853.0</ele><time>2026-05-02T14:13:10.999Z</time></trkpt><trkpt lat="45.004143267979494" lon="5.319649266538111"><ele>853.0</ele><time>2026-05-02T14:13:11.999Z</time></trkpt><trkpt lat="45.004336947699606" lon="5.319631707938462"><ele>849.5</ele><time>2026-05-02T14:13:12.999Z</time></trkpt><trkpt lat="45.00455470434882" lon="5.3196013180582495"><ele>846.0</ele><time>2026-05-02T14:13:13.999Z</time></trkpt><trkpt lat="45.00478713944229" lon="5.319567745311522"><ele>845.0</ele><time>2026-05-02T14:13:14.999Z</time></trkpt><trkpt lat="45.005021681319256" lon="5.3195261907665685"><ele>844.0</ele><time>2026-05-02T14:13:15.999Z</time></trkpt><trkpt lat="45.0052446123212" lon="5.319503810510939"><ele>844.0</ele><time>2026-05-02T14:13:16.999Z</time></trkpt><trkpt lat="45.00545466747938" lon="5.319489764401785"><ele>844.0</ele><time>2026-05-02T14:13:17.998Z</time></trkpt><trkpt lat="45.005663803201884" lon="5.319501086979962"><ele>844.0</ele><time>2026-05-02T14:13:18.998Z</time></trkpt><trkpt lat="45.00586665834457" lon="5.319552010501446"><ele>841.6666666666666</ele><time>2026-05-02T14:13:19.998Z</time></trkpt><trkpt lat="45.006067850118974" lon="5.319605394061263"><ele>839.3333333333333</ele><time>2026-05-02T14:13:20.998Z</time></trkpt><trkpt lat="45.00627792478747" lon="5.319653784643599"><ele>837.0</ele><time>2026-05-02T14:13:21.998Z</time></trkpt><trkpt lat="45.00649335211089" lon="5.319717451996756"><ele>836.6666666666667</ele><time>2026-05-02T14:13:22.998Z</time></trkpt><trkpt lat="45.006714084236194" lon="5.31973563779268"><ele>836.3333333333334</ele><time>2026-05-02T14:13:23.998Z</time></trkpt><trkpt lat="45.00692947757389" lon="5.319687233137896"><ele>836.0</ele><time>2026-05-02T14:13:24.998Z</time></trkpt><trkpt lat="45.00714250347288" lon="5.3195931223731865"><ele>836.0</ele><time>2026-05-02T14:13:25.998Z</time></trkpt><trkpt lat="45.007366231338295" lon="5.319466195157848"><ele>836.0</ele><time>2026-05-02T14:13:26.998Z</time></trkpt><trkpt lat="45.0075918982799" lon="5.319383017502381"><ele>831.6666666666667</ele><time>2026-05-02T14:13:27.998Z</time></trkpt><trkpt lat="45.00780181261995" lon="5.3193315224118605"><ele>827.3333333333333</ele><time>2026-05-02T14:13:28.998Z</time></trkpt><trkpt lat="45.00800496080738" lon="5.319281055923417"><ele>823.0</ele><time>2026-05-02T14:13:29.998Z</time></trkpt><trkpt lat="45.008198988824695" lon="5.319231202277094"><ele>815.6666666666666</ele><time>2026-05-02T14:13:30.998Z</time></trkpt><trkpt lat="45.00838331329973" lon="5.319181898177814"><ele>808.3333333333333</ele><time>2026-05-02T14:13:31.998Z</time></trkpt><trkpt lat="45.00855119811837" lon="5.319134572418399"><ele>801.0</ele><time>2026-05-02T14:13:32.998Z</time></trkpt><trkpt lat="45.00868939717673" lon="5.319102968958328"><ele>801.0</ele><time>2026-05-02T14:13:33.998Z</time></trkpt><trkpt lat="45.00880385695387" lon="5.3190842425905815"><ele>801.0</ele><time>2026-05-02T14:13:34.998Z</time></trkpt><trkpt lat="45.00887381791532" lon="5.319019943853731"><ele>801.0</ele><time>2026-05-02T14:13:35.998Z</time></trkpt><trkpt lat="45.0088997170767" lon="5.318907150969388"><ele>801.0</ele><time>2026-05-02T14:13:36.998Z</time></trkpt><trkpt lat="45.00887280911573" lon="5.318772121692883"><ele>801.0</ele><time>2026-05-02T14:13:37.998Z</time></trkpt><trkpt lat="45.00879525079335" lon="5.3186282071105895"><ele>801.3333333333333</ele><time>2026-05-02T14:13:38.998Z</time></trkpt><trkpt lat="45.00869712380491" lon="5.318464635679366"><ele>801.6666666666666</ele><time>2026-05-02T14:13:39.998Z</time></trkpt><trkpt lat="45.008595611020844" lon="5.318268099027013"><ele>802.0</ele><time>2026-05-02T14:13:40.998Z</time></trkpt><trkpt lat="45.008485904474" lon="5.3180556988805066"><ele>807.3333333333333</ele><time>2026-05-02T14:13:41.998Z</time></trkpt><trkpt lat="45.00827507241424" lon="5.31795246826168"><ele>812.6666666666667</ele><time>2026-05-02T14:13:42.998Z</time></trkpt><trkpt lat="45.00813793254647" lon="5.317739542832917"><ele>818.0</ele><time>2026-05-02T14:13:43.998Z</time></trkpt><trkpt lat="45.008009866919444" lon="5.317455830186115"><ele>803.5</ele><time>2026-05-02T14:13:44.998Z</time></trkpt><trkpt lat="45.00787561455967" lon="5.317160028266788"><ele>789.0</ele><time>2026-05-02T14:13:45.998Z</time></trkpt><trkpt lat="45.007730793498375" lon="5.316876931619535"><ele>789.0</ele><time>2026-05-02T14:13:47Z</time></trkpt><trkpt lat="45.00758595168078" lon="5.316593622751395"><ele>789.0</ele><time>2026-05-02T14:13:48Z</time></trkpt><trkpt lat="45.00745213664951" lon="5.316313319675811"><ele>802.0</ele><time>2026-05-02T14:13:49Z</time></trkpt><trkpt lat="45.00731280473332" lon="5.316030705687842"><ele>815.0</ele><time>2026-05-02T14:13:50Z</time></trkpt><trkpt lat="45.00718478211332" lon="5.315744601239511"><ele>800.0</ele><time>2026-05-02T14:13:51Z</time></trkpt><trkpt lat="45.0070691626591" lon="5.315460385315539"><ele>785.0</ele><time>2026-05-02T14:13:52Z</time></trkpt><trkpt lat="45.006979654284" lon="5.315171496819749"><ele>785.0</ele><time>2026-05-02T14:13:53Z</time></trkpt><trkpt lat="45.00689024038392" lon="5.314894100051582"><ele>785.0</ele><time>2026-05-02T14:13:54Z</time></trkpt><trkpt lat="45.00680105171845" lon="5.314617993457549"><ele>785.0</ele><time>2026-05-02T14:13:55Z</time></trkpt><trkpt lat="45.0067154450031" lon="5.314351062773334"><ele>787.6666666666667</ele><time>2026-05-02T14:13:56Z</time></trkpt><trkpt lat="45.00663468638903" lon="5.3140922362138925"><ele>790.3333333333333</ele><time>2026-05-02T14:13:57Z</time></trkpt><trkpt lat="45.00655300400908" lon="5.313822710003141"><ele>793.0</ele><time>2026-05-02T14:13:58Z</time></trkpt><trkpt lat="45.00645769277948" lon="5.313559634842034"><ele>793.0</ele><time>2026-05-02T14:13:59Z</time></trkpt><trkpt lat="45.00634772628681" lon="5.313283296968616"><ele>793.0</ele><time>2026-05-02T14:14:00Z</time></trkpt><trkpt lat="45.00625941348832" lon="5.313051047378919"><ele>793.0</ele><time>2026-05-02T14:14:01Z</time></trkpt><trkpt lat="45.0062079608689" lon="5.312806024244604"><ele>785.0</ele><time>2026-05-02T14:14:02Z</time></trkpt><trkpt lat="45.00612826229544" lon="5.312554496003714"><ele>777.0</ele><time>2026-05-02T14:14:03Z</time></trkpt><trkpt lat="45.00607625082315" lon="5.3123194051644695"><ele>769.0</ele><time>2026-05-02T14:14:04Z</time></trkpt><trkpt lat="45.006015700135904" lon="5.312104147563775"><ele>765.5</ele><time>2026-05-02T14:14:05Z</time></trkpt><trkpt lat="45.00596905306158" lon="5.311922837879601"><ele>762.0</ele><time>2026-05-02T14:14:06Z</time></trkpt><trkpt lat="45.00592446488335" lon="5.31177128376178"><ele>758.5</ele><time>2026-05-02T14:14:07Z</time></trkpt><trkpt lat="45.00583832268756" lon="5.3116749970917825"><ele>755.0</ele><time>2026-05-02T14:14:08Z</time></trkpt><trkpt lat="45.00572188224598" lon="5.311664552850598"><ele>755.0</ele><time>2026-05-02T14:14:09Z</time></trkpt><trkpt lat="45.00557150538786" lon="5.311730024956148"><ele>755.0</ele><time>2026-05-02T14:14:10Z</time></trkpt><trkpt lat="45.00540596157757" lon="5.311735840807162"><ele>755.0</ele><time>2026-05-02T14:14:11Z</time></trkpt><trkpt lat="45.00526386263619" lon="5.311678009250045"><ele>755.0</ele><time>2026-05-02T14:14:12Z</time></trkpt><trkpt lat="45.00508723618267" lon="5.3114758995760925"><ele>755.0</ele><time>2026-05-02T14:14:13Z</time></trkpt><trkpt lat="45.004955057798206" lon="5.3113114375908035"><ele>755.0</ele><time>2026-05-02T14:14:14Z</time></trkpt><trkpt lat="45.004804776045454" lon="5.31115601757687"><ele>750.3333333333333</ele><time>2026-05-02T14:14:15Z</time></trkpt><trkpt lat="45.004653545193165" lon="5.311004083265293"><ele>745.6666666666666</ele><time>2026-05-02T14:14:16Z</time></trkpt><trkpt lat="45.0045096433027" lon="5.31087005101533"><ele>741.0</ele><time>2026-05-02T14:14:17Z</time></trkpt><trkpt lat="45.00437053215405" lon="5.310725509048673"><ele>741.0</ele><time>2026-05-02T14:14:18Z</time></trkpt><trkpt lat="45.00422732883932" lon="5.3106016175680555"><ele>741.0</ele><time>2026-05-02T14:14:19Z</time></trkpt><trkpt lat="45.00407778115557" lon="5.310487563988261"><ele>741.0</ele><time>2026-05-02T14:14:20Z</time></trkpt><trkpt lat="45.00394633041868" lon="5.310375994769521"><ele>736.6666666666666</ele><time>2026-05-02T14:14:21Z</time></trkpt><trkpt lat="45.00379866309453" lon="5.310269422295678"><ele>732.3333333333333</ele><time>2026-05-02T14:14:22Z</time></trkpt><trkpt lat="45.00364787890636" lon="5.3101317892261894"><ele>728.0</ele><time>2026-05-02T14:14:23Z</time></trkpt><trkpt lat="45.00348670960874" lon="5.309986188708573"><ele>730.6666666666666</ele><time>2026-05-02T14:14:24Z</time></trkpt><trkpt lat="45.003315133143936" lon="5.309829221111117"><ele>733.3333333333334</ele><time>2026-05-02T14:14:24.999Z</time></trkpt><trkpt lat="45.00314070313721" lon="5.309609130276331"><ele>736.0</ele><time>2026-05-02T14:14:25.999Z</time></trkpt><trkpt lat="45.002994744233284" lon="5.309363187359887"><ele>736.0</ele><time>2026-05-02T14:14:26.999Z</time></trkpt><trkpt lat="45.00287997593003" lon="5.30913348461357"><ele>736.0</ele><time>2026-05-02T14:14:27.999Z</time></trkpt><trkpt lat="45.002737598224414" lon="5.308954395261836"><ele>736.0</ele><time>2026-05-02T14:14:28.999Z</time></trkpt><trkpt lat="45.002622290893115" lon="5.3087651317564495"><ele>729.3333333333334</ele><time>2026-05-02T14:14:29.999Z</time></trkpt><trkpt lat="45.00253027887663" lon="5.3085451328512425"><ele>722.6666666666666</ele><time>2026-05-02T14:14:30.999Z</time></trkpt><trkpt lat="45.00245735505095" lon="5.308284844138524"><ele>716.0</ele><time>2026-05-02T14:14:31.999Z</time></trkpt><trkpt lat="45.0024226329499" lon="5.307949584264865"><ele>738.0</ele><time>2026-05-02T14:14:32.999Z</time></trkpt><trkpt lat="45.002334263262945" lon="5.307621568706315"><ele>760.0</ele><time>2026-05-02T14:14:33.999Z</time></trkpt><trkpt lat="45.00227902945409" lon="5.307303368083459"><ele>747.3333333333334</ele><time>2026-05-02T14:14:34.999Z</time></trkpt><trkpt lat="45.0022142775039" lon="5.306995916641134"><ele>734.6666666666666</ele><time>2026-05-02T14:14:35.999Z</time></trkpt><trkpt lat="45.00213983811165" lon="5.306711952704881"><ele>722.0</ele><time>2026-05-02T14:14:36.999Z</time></trkpt><trkpt lat="45.002050204590105" lon="5.306454742442695"><ele>728.6666666666666</ele><time>2026-05-02T14:14:37.999Z</time></trkpt><trkpt lat="45.001917657373944" lon="5.306219067818133"><ele>735.3333333333334</ele><time>2026-05-02T14:14:38.999Z</time></trkpt><trkpt lat="45.001754300874644" lon="5.306022366812883"><ele>742.0</ele><time>2026-05-02T14:14:39.999Z</time></trkpt><trkpt lat="45.00158532373426" lon="5.305816793036758"><ele>742.0</ele><time>2026-05-02T14:14:40.999Z</time></trkpt><trkpt lat="45.00145603982158" lon="5.305627989182213"><ele>742.0</ele><time>2026-05-02T14:14:41.999Z</time></trkpt><trkpt lat="45.00135605118127" lon="5.305435974936707"><ele>742.0</ele><time>2026-05-02T14:14:42.999Z</time></trkpt><trkpt lat="45.00130792121244" lon="5.3052024031848335"><ele>731.6666666666667</ele><time>2026-05-02T14:14:43.999Z</time></trkpt><trkpt lat="45.00126379627476" lon="5.304907599227824"><ele>721.3333333333334</ele><time>2026-05-02T14:14:44.999Z</time></trkpt><trkpt lat="45.00124462667413" lon="5.304643674126212"><ele>711.0</ele><time>2026-05-02T14:14:45.999Z</time></trkpt><trkpt lat="45.001168455389525" lon="5.304414527859259"><ele>700.3333333333334</ele><time>2026-05-02T14:14:46.999Z</time></trkpt><trkpt lat="45.00106113439422" lon="5.30419082200619"><ele>689.6666666666667</ele><time>2026-05-02T14:14:47.999Z</time></trkpt><trkpt lat="45.00091799183152" lon="5.303970190369375"><ele>679.0</ele><time>2026-05-02T14:14:48.999Z</time></trkpt><trkpt lat="45.00072021524611" lon="5.303768829651532"><ele>679.0</ele><time>2026-05-02T14:14:49.999Z</time></trkpt><trkpt lat="45.00052151797558" lon="5.3035303705288595"><ele>679.0</ele><time>2026-05-02T14:14:50.999Z</time></trkpt><trkpt lat="45.00034498850637" lon="5.303308597428731"><ele>679.0</ele><time>2026-05-02T14:14:51.999Z</time></trkpt><trkpt lat="45.00017211258553" lon="5.30311985372846"><ele>679.0</ele><time>2026-05-02T14:14:52.999Z</time></trkpt><trkpt lat="45.000006684949774" lon="5.302932676164344"><ele>679.0</ele><time>2026-05-02T14:14:53.999Z</time></trkpt><trkpt lat="44.99983143682921" lon="5.302758464699621"><ele>670.0</ele><time>2026-05-02T14:14:54.999Z</time></trkpt><trkpt lat="44.99964970985527" lon="5.302591187894045"><ele>661.0</ele><time>2026-05-02T14:14:55.999Z</time></trkpt><trkpt lat="44.99946643377276" lon="5.302418245819708"><ele>652.0</ele><time>2026-05-02T14:14:56.999Z</time></trkpt><trkpt lat="44.99927033001333" lon="5.302274979417004"><ele>646.0</ele><time>2026-05-02T14:14:57.999Z</time></trkpt><trkpt lat="44.99907390835723" lon="5.3021350702275205"><ele>640.0</ele><time>2026-05-02T14:14:58.999Z</time></trkpt><trkpt lat="44.99889918076114" lon="5.301966822704446"><ele>634.0</ele><time>2026-05-02T14:14:59.999Z</time></trkpt><trkpt lat="44.99873162911987" lon="5.30180946619681"><ele>634.0</ele><time>2026-05-02T14:15:00.999Z</time></trkpt><trkpt lat="44.998565446560164" lon="5.301686214537256"><ele>634.0</ele><time>2026-05-02T14:15:01.999Z</time></trkpt><trkpt lat="44.99840138103867" lon="5.301563512283995"><ele>634.0</ele><time>2026-05-02T14:15:02.999Z</time></trkpt><trkpt lat="44.99825550896574" lon="5.301450872434864"><ele>629.3333333333334</ele><time>2026-05-02T14:15:03.999Z</time></trkpt><trkpt lat="44.99810214761253" lon="5.301377041234442"><ele>624.6666666666666</ele><time>2026-05-02T14:15:04.999Z</time></trkpt><trkpt lat="44.997932452322345" lon="5.301356321225946"><ele>620.0</ele><time>2026-05-02T14:15:05.999Z</time></trkpt><trkpt lat="44.997732335706075" lon="5.301363442517515"><ele>620.0</ele><time>2026-05-02T14:15:06.999Z</time></trkpt><trkpt lat="44.99753171218188" lon="5.301312681631316"><ele>620.0</ele><time>2026-05-02T14:15:07.999Z</time></trkpt><trkpt lat="44.9973582607486" lon="5.301229032866737"><ele>620.0</ele><time>2026-05-02T14:15:08.999Z</time></trkpt><trkpt lat="44.9972048351859" lon="5.301115214484542"><ele>620.6666666666666</ele><time>2026-05-02T14:15:09.999Z</time></trkpt><trkpt lat="44.997068376610855" lon="5.3009764008157925"><ele>621.3333333333334</ele><time>2026-05-02T14:15:10.999Z</time></trkpt><trkpt lat="44.99691678376144" lon="5.300809782277069"><ele>622.0</ele><time>2026-05-02T14:15:11.999Z</time></trkpt><trkpt lat="44.9967610459269" lon="5.300693143042755"><ele>625.75</ele><time>2026-05-02T14:15:12.999Z</time></trkpt><trkpt lat="44.99662426710166" lon="5.300595620941395"><ele>629.5</ele><time>2026-05-02T14:15:13.999Z</time></trkpt><trkpt lat="44.996518138378036" lon="5.300507164037872"><ele>633.25</ele><time>2026-05-02T14:15:14.999Z</time></trkpt><trkpt lat="44.99641351766973" lon="5.300455765436946"><ele>637.0</ele><time>2026-05-02T14:15:15.999Z</time></trkpt><trkpt lat="44.996308621668724" lon="5.300415761487824"><ele>628.5</ele><time>2026-05-02T14:15:16.999Z</time></trkpt><trkpt lat="44.99620547418582" lon="5.300384399468995"><ele>620.0</ele><time>2026-05-02T14:15:17.999Z</time></trkpt><trkpt lat="44.99610705455282" lon="5.300352516452283"><ele>611.5</ele><time>2026-05-02T14:15:18.999Z</time></trkpt><trkpt lat="44.99600062247154" lon="5.300303861970443"><ele>603.0</ele><time>2026-05-02T14:15:19.999Z</time></trkpt><trkpt lat="44.995880372338924" lon="5.3002097595436215"><ele>606.0</ele><time>2026-05-02T14:15:20.999Z</time></trkpt><trkpt lat="44.995733673253916" lon="5.300074566207223"><ele>609.0</ele><time>2026-05-02T14:15:21.998Z</time></trkpt><trkpt lat="44.99556818182821" lon="5.299907422867773"><ele>612.0</ele><time>2026-05-02T14:15:22.998Z</time></trkpt><trkpt lat="44.995417960787265" lon="5.299701565150252"><ele>611.6666666666666</ele><time>2026-05-02T14:15:23.998Z</time></trkpt><trkpt lat="44.99526546838599" lon="5.299571394929663"><ele>611.3333333333333</ele><time>2026-05-02T14:15:24.998Z</time></trkpt><trkpt lat="44.995108303336664" lon="5.299459838679481"><ele>611.0</ele><time>2026-05-02T14:15:25.998Z</time></trkpt><trkpt lat="44.99497324628192" lon="5.2993434286265915"><ele>611.0</ele><time>2026-05-02T14:15:26.998Z</time></trkpt><trkpt lat="44.994847309083056" lon="5.299234570353047"><ele>611.0</ele><time>2026-05-02T14:15:27.998Z</time></trkpt><trkpt lat="44.994748055507635" lon="5.299125070559712"><ele>611.0</ele><time>2026-05-02T14:15:28.998Z</time></trkpt><trkpt lat="44.99472046187124" lon="5.298927511198657"><ele>611.0</ele><time>2026-05-02T14:15:29.998Z</time></trkpt><trkpt lat="44.99471365439053" lon="5.29871544040288"><ele>605.0</ele><time>2026-05-02T14:15:30.998Z</time></trkpt><trkpt lat="44.994669737445506" lon="5.298421515652324"><ele>599.0</ele><time>2026-05-02T14:15:31.998Z</time></trkpt><trkpt lat="44.99460833176686" lon="5.298149232869326"><ele>593.0</ele><time>2026-05-02T14:15:32.998Z</time></trkpt><trkpt lat="44.994542243533296" lon="5.297892815214592"><ele>586.0</ele><time>2026-05-02T14:15:33.998Z</time></trkpt><trkpt lat="44.99449378396312" lon="5.297615103365965"><ele>579.0</ele><time>2026-05-02T14:15:34.998Z</time></trkpt><trkpt lat="44.994406787100324" lon="5.297350927573987"><ele>572.0</ele><time>2026-05-02T14:15:35.998Z</time></trkpt><trkpt lat="44.99427505294823" lon="5.2970965850832945"><ele>577.3333333333333</ele><time>2026-05-02T14:15:36.998Z</time></trkpt><trkpt lat="44.99418499459357" lon="5.296798266273643"><ele>582.6666666666666</ele><time>2026-05-02T14:15:37.998Z</time></trkpt><trkpt lat="44.99413124668966" lon="5.2965150705135216"><ele>588.0</ele><time>2026-05-02T14:15:38.998Z</time></trkpt><trkpt lat="44.99405086298326" lon="5.296264758416561"><ele>588.0</ele><time>2026-05-02T14:15:39.998Z</time></trkpt><trkpt lat="44.99397188523185" lon="5.296045048888265"><ele>588.0</ele><time>2026-05-02T14:15:40.998Z</time></trkpt><trkpt lat="44.99397790472599" lon="5.295796639363506"><ele>588.0</ele><time>2026-05-02T14:15:41.998Z</time></trkpt><trkpt lat="44.99399793957944" lon="5.29554681070099"><ele>588.6666666666666</ele><time>2026-05-02T14:15:42.998Z</time></trkpt><trkpt lat="44.99401530844562" lon="5.29529404953445"><ele>589.3333333333333</ele><time>2026-05-02T14:15:43.998Z</time></trkpt><trkpt lat="44.994085203254635" lon="5.2951290642508635"><ele>590.0</ele><time>2026-05-02T14:15:44.998Z</time></trkpt><trkpt lat="44.99419920897727" lon="5.295009302348101"><ele>590.0</ele><time>2026-05-02T14:15:45.998Z</time></trkpt><trkpt lat="44.99438208074334" lon="5.29492606101397"><ele>590.0</ele><time>2026-05-02T14:15:46.998Z</time></trkpt><trkpt lat="44.99454668271596" lon="5.294779975396376"><ele>590.0</ele><time>2026-05-02T14:15:47.998Z</time></trkpt><trkpt lat="44.994694484020634" lon="5.294564035467225"><ele>590.0</ele><time>2026-05-02T14:15:48.998Z</time></trkpt><trkpt lat="44.994856957573894" lon="5.2944159964732265"><ele>590.0</ele><time>2026-05-02T14:15:49.998Z</time></trkpt><trkpt lat="44.99503254904513" lon="5.294348285993537"><ele>590.0</ele><time>2026-05-02T14:15:50.998Z</time></trkpt><trkpt lat="44.99523053989412" lon="5.294324624777155"><ele>583.3333333333333</ele><time>2026-05-02T14:15:51.998Z</time></trkpt><trkpt lat="44.99544305966558" lon="5.294266544952873"><ele>576.6666666666666</ele><time>2026-05-02T14:15:53Z</time></trkpt><trkpt lat="44.995649595914244" lon="5.294165933579256"><ele>570.0</ele><time>2026-05-02T14:15:54Z</time></trkpt><trkpt lat="44.99587670753547" lon="5.294082124931405"><ele>558.0</ele><time>2026-05-02T14:15:55Z</time></trkpt><trkpt lat="44.99610597963559" lon="5.294041526056969"><ele>546.0</ele><time>2026-05-02T14:15:56Z</time></trkpt><trkpt lat="44.99632022959616" lon="5.293981110796914"><ele>545.6666666666666</ele><time>2026-05-02T14:15:57Z</time></trkpt><trkpt lat="44.99648617596892" lon="5.293893117496623"><ele>545.3333333333333</ele><time>2026-05-02T14:15:58Z</time></trkpt><trkpt lat="44.99665024168927" lon="5.293830388630423"><ele>545.0</ele><time>2026-05-02T14:15:59Z</time></trkpt><trkpt lat="44.99680245222581" lon="5.293881072374275"><ele>545.0</ele><time>2026-05-02T14:16:00Z</time></trkpt><trkpt lat="44.99696760606748" lon="5.293911198279064"><ele>545.0</ele><time>2026-05-02T14:16:01Z</time></trkpt><trkpt lat="44.99711913884631" lon="5.293942274977041"><ele>545.0</ele><time>2026-05-02T14:16:02Z</time></trkpt><trkpt lat="44.99729111611327" lon="5.293930840411093"><ele>545.0</ele><time>2026-05-02T14:16:03Z</time></trkpt><trkpt lat="44.997452459600446" lon="5.293882011831136"><ele>545.0</ele><time>2026-05-02T14:16:04Z</time></trkpt><trkpt lat="44.997592124352565" lon="5.293773693609372"><ele>545.0</ele><time>2026-05-02T14:16:05Z</time></trkpt><trkpt lat="44.99770290143765" lon="5.293637742945391"><ele>535.25</ele><time>2026-05-02T14:16:06Z</time></trkpt><trkpt lat="44.997758172967565" lon="5.293495538803838"><ele>525.5</ele><time>2026-05-02T14:16:07Z</time></trkpt><trkpt lat="44.99774106961507" lon="5.293318070679317"><ele>515.75</ele><time>2026-05-02T14:16:08Z</time></trkpt><trkpt lat="44.99769301116524" lon="5.293108489922117"><ele>506.0</ele><time>2026-05-02T14:16:09Z</time></trkpt><trkpt lat="44.997597902709586" lon="5.292876267163261"><ele>502.0</ele><time>2026-05-02T14:16:10Z</time></trkpt><trkpt lat="44.99750929720059" lon="5.292652054526988"><ele>498.0</ele><time>2026-05-02T14:16:11Z</time></trkpt><trkpt lat="44.99737881955466" lon="5.292478781536045"><ele>494.0</ele><time>2026-05-02T14:16:12Z</time></trkpt><trkpt lat="44.99723040746056" lon="5.292327472527326"><ele>498.66666666666663</ele><time>2026-05-02T14:16:13Z</time></trkpt><trkpt lat="44.99711548698691" lon="5.292110595281855"><ele>503.33333333333337</ele><time>2026-05-02T14:16:14Z</time></trkpt><trkpt lat="44.99702052550975" lon="5.291885478543923"><ele>508.0</ele><time>2026-05-02T14:16:15Z</time></trkpt><trkpt lat="44.99695448666278" lon="5.29168681489696"><ele>508.0</ele><time>2026-05-02T14:16:16Z</time></trkpt><trkpt lat="44.99690664641799" lon="5.291493674861688"><ele>508.0</ele><time>2026-05-02T14:16:17Z</time></trkpt><trkpt lat="44.996853902784224" lon="5.29135409286228"><ele>508.0</ele><time>2026-05-02T14:16:18Z</time></trkpt><trkpt lat="44.996790429849085" lon="5.291228790206044"><ele>508.0</ele><time>2026-05-02T14:16:19Z</time></trkpt><trkpt lat="44.996715178560876" lon="5.291125774447897"><ele>511.59999999999997</ele><time>2026-05-02T14:16:20Z</time></trkpt><trkpt lat="44.996660466021076" lon="5.2910317899308055"><ele>515.1999999999999</ele><time>2026-05-02T14:16:21Z</time></trkpt><trkpt lat="44.996682481919315" lon="5.2908860157510675"><ele>518.8</ele><time>2026-05-02T14:16:23Z</time></trkpt><trkpt lat="44.99677570410528" lon="5.290890882511212"><ele>522.4</ele><time>2026-05-02T14:16:24Z</time></trkpt><trkpt lat="44.99685074743946" lon="5.2910351575893095"><ele>526.0</ele><time>2026-05-02T14:16:25Z</time></trkpt><trkpt lat="44.99693576743493" lon="5.2912082115107815"><ele>520.0</ele><time>2026-05-02T14:16:26Z</time></trkpt><trkpt lat="44.99702584150866" lon="5.29144669519301"><ele>514.0</ele><time>2026-05-02T14:16:27Z</time></trkpt><trkpt lat="44.99716538072326" lon="5.2917002064477145"><ele>508.0</ele><time>2026-05-02T14:16:28Z</time></trkpt><trkpt lat="44.997354672503796" lon="5.2919450210879"><ele>501.0</ele><time>2026-05-02T14:16:29Z</time></trkpt><trkpt lat="44.99759677880487" lon="5.2921509519818475"><ele>494.0</ele><time>2026-05-02T14:16:30Z</time></trkpt><trkpt lat="44.99782271381437" lon="5.292336192894144"><ele>494.0</ele><time>2026-05-02T14:16:31Z</time></trkpt><trkpt lat="44.99801065758397" lon="5.292522876738732"><ele>494.0</ele><time>2026-05-02T14:16:32Z</time></trkpt><trkpt lat="44.99814262435031" lon="5.2927287569510755"><ele>494.0</ele><time>2026-05-02T14:16:32.999Z</time></trkpt><trkpt lat="44.99824337200922" lon="5.292950185062256"><ele>498.0</ele><time>2026-05-02T14:16:33.999Z</time></trkpt><trkpt lat="44.9983189745852" lon="5.293199886619238"><ele>502.0</ele><time>2026-05-02T14:16:34.999Z</time></trkpt><trkpt lat="44.998370248307985" lon="5.293431547385022"><ele>506.0</ele><time>2026-05-02T14:16:35.999Z</time></trkpt><trkpt lat="44.99838173238716" lon="5.293622209064142"><ele>504.0</ele><time>2026-05-02T14:16:36.999Z</time></trkpt><trkpt lat="44.99834949997403" lon="5.293819227426773"><ele>502.0</ele><time>2026-05-02T14:16:37.999Z</time></trkpt><trkpt lat="44.99832330409296" lon="5.294067868437061"><ele>500.0</ele><time>2026-05-02T14:16:38.999Z</time></trkpt><trkpt lat="44.99825107458388" lon="5.2942771641305315"><ele>500.0</ele><time>2026-05-02T14:16:39.999Z</time></trkpt><trkpt lat="44.99819035876002" lon="5.294460587147168"><ele>500.0</ele><time>2026-05-02T14:16:40.999Z</time></trkpt><trkpt lat="44.99804451979305" lon="5.294535766272872"><ele>500.0</ele><time>2026-05-02T14:16:41.999Z</time></trkpt><trkpt lat="44.9978970703376" lon="5.294678987933703"><ele>492.66666666666663</ele><time>2026-05-02T14:16:42.999Z</time></trkpt><trkpt lat="44.997764966206184" lon="5.294858787654729"><ele>485.33333333333337</ele><time>2026-05-02T14:16:43.999Z</time></trkpt><trkpt lat="44.99762823023488" lon="5.295018152214879"><ele>478.0</ele><time>2026-05-02T14:16:44.999Z</time></trkpt><trkpt lat="44.997508848933684" lon="5.295161034116308"><ele>478.75</ele><time>2026-05-02T14:16:45.999Z</time></trkpt><trkpt lat="44.9974099812307" lon="5.29531796202447"><ele>479.5</ele><time>2026-05-02T14:16:46.999Z</time></trkpt><trkpt lat="44.997313986922904" lon="5.295452341865877"><ele>480.25</ele><time>2026-05-02T14:16:47.999Z</time></trkpt><trkpt lat="44.99726549215091" lon="5.2956399887361645"><ele>481.0</ele><time>2026-05-02T14:16:48.999Z</time></trkpt><trkpt lat="44.99725628400989" lon="5.295846966351977"><ele>481.0</ele><time>2026-05-02T14:16:49.999Z</time></trkpt><trkpt lat="44.99730752957034" lon="5.296043864332958"><ele>481.0</ele><time>2026-05-02T14:16:50.999Z</time></trkpt><trkpt lat="44.9974041001965" lon="5.296207999612146"><ele>481.0</ele><time>2026-05-02T14:16:51.999Z</time></trkpt><trkpt lat="44.997511930163654" lon="5.29637731489678"><ele>474.6666666666667</ele><time>2026-05-02T14:16:52.999Z</time></trkpt><trkpt lat="44.997623816266135" lon="5.296564529139591"><ele>468.33333333333337</ele><time>2026-05-02T14:16:53.999Z</time></trkpt><trkpt lat="44.99772599512855" lon="5.296758364412354"><ele>462.0</ele><time>2026-05-02T14:16:54.999Z</time></trkpt><trkpt lat="44.99783008671601" lon="5.296945357196397"><ele>462.0</ele><time>2026-05-02T14:16:55.999Z</time></trkpt><trkpt lat="44.997955612537076" lon="5.2970979918265435"><ele>462.0</ele><time>2026-05-02T14:16:56.999Z</time></trkpt><trkpt lat="44.998121971166555" lon="5.297181028784873"><ele>462.0</ele><time>2026-05-02T14:16:57.999Z</time></trkpt><trkpt lat="44.9983003103956" lon="5.297234369852964"><ele>464.66666666666663</ele><time>2026-05-02T14:16:58.999Z</time></trkpt><trkpt lat="44.99847462027977" lon="5.297322074332342"><ele>467.3333333333333</ele><time>2026-05-02T14:16:59.999Z</time></trkpt><trkpt lat="44.998625741576994" lon="5.297473381659993"><ele>470.0</ele><time>2026-05-02T14:17:00.999Z</time></trkpt><trkpt lat="44.998809652548594" lon="5.297534775933801"><ele>470.0</ele><time>2026-05-02T14:17:01.999Z</time></trkpt><trkpt lat="44.99900855816716" lon="5.297556810763384"><ele>470.0</ele><time>2026-05-02T14:17:02.999Z</time></trkpt><trkpt lat="44.99920845846235" lon="5.297564057260609"><ele>470.0</ele><time>2026-05-02T14:17:03.999Z</time></trkpt><trkpt lat="44.9994012396637" lon="5.297688696910989"><ele>466.3333333333333</ele><time>2026-05-02T14:17:04.999Z</time></trkpt><trkpt lat="44.99959724810238" lon="5.297748464579873"><ele>462.66666666666663</ele><time>2026-05-02T14:17:05.999Z</time></trkpt><trkpt lat="44.99978200228907" lon="5.297830404968333"><ele>459.0</ele><time>2026-05-02T14:17:06.999Z</time></trkpt><trkpt lat="44.999954641268246" lon="5.297860865902427"><ele>459.0</ele><time>2026-05-02T14:17:07.999Z</time></trkpt><trkpt lat="45.000120871141014" lon="5.297830211837737"><ele>459.0</ele><time>2026-05-02T14:17:08.999Z</time></trkpt><trkpt lat="45.00026029238977" lon="5.297721741436005"><ele>459.0</ele><time>2026-05-02T14:17:09.999Z</time></trkpt><trkpt lat="45.000370616277664" lon="5.297570842582127"><ele>459.0</ele><time>2026-05-02T14:17:10.999Z</time></trkpt><trkpt lat="45.00044840741682" lon="5.2973920638984096"><ele>459.0</ele><time>2026-05-02T14:17:11.999Z</time></trkpt><trkpt lat="45.000572114070884" lon="5.297287275317818"><ele>459.0</ele><time>2026-05-02T14:17:12.999Z</time></trkpt><trkpt lat="45.00074718848729" lon="5.297264558854747"><ele>451.0</ele><time>2026-05-02T14:17:13.999Z</time></trkpt><trkpt lat="45.00094732400306" lon="5.297218702200819"><ele>443.0</ele><time>2026-05-02T14:17:14.999Z</time></trkpt><trkpt lat="45.00113450129729" lon="5.297161837765623"><ele>435.0</ele><time>2026-05-02T14:17:15.999Z</time></trkpt><trkpt lat="45.00132016996926" lon="5.29709683176026"><ele>435.0</ele><time>2026-05-02T14:17:16.999Z</time></trkpt><trkpt lat="45.00150783257315" lon="5.297031205160015"><ele>435.0</ele><time>2026-05-02T14:17:17.999Z</time></trkpt><trkpt lat="45.00171039955497" lon="5.29695763847896"><ele>435.0</ele><time>2026-05-02T14:17:18.999Z</time></trkpt><trkpt lat="45.00190926080299" lon="5.2968620099657935"><ele>435.33333333333337</ele><time>2026-05-02T14:17:19.999Z</time></trkpt><trkpt lat="45.00210859066492" lon="5.296785453523778"><ele>435.6666666666667</ele><time>2026-05-02T14:17:20.999Z</time></trkpt><trkpt lat="45.00230799533798" lon="5.296703427520991"><ele>436.0</ele><time>2026-05-02T14:17:21.999Z</time></trkpt><trkpt lat="45.00251750521882" lon="5.296649381129435"><ele>436.0</ele><time>2026-05-02T14:17:22.999Z</time></trkpt><trkpt lat="45.00273029518228" lon="5.296610321231829"><ele>436.0</ele><time>2026-05-02T14:17:23.999Z</time></trkpt><trkpt lat="45.00294622961281" lon="5.296587188050137"><ele>436.0</ele><time>2026-05-02T14:17:24.999Z</time></trkpt><trkpt lat="45.0031660021543" lon="5.2965720196072175"><ele>435.0</ele><time>2026-05-02T14:17:25.999Z</time></trkpt><trkpt lat="45.0033798414176" lon="5.296559925480757"><ele>434.0</ele><time>2026-05-02T14:17:26.999Z</time></trkpt><trkpt lat="45.00357217722574" lon="5.296524907220144"><ele>433.0</ele><time>2026-05-02T14:17:27.999Z</time></trkpt><trkpt lat="45.0037527877426" lon="5.296570804317375"><ele>433.0</ele><time>2026-05-02T14:17:28.999Z</time></trkpt><trkpt lat="45.00392664577512" lon="5.296653003319037"><ele>433.0</ele><time>2026-05-02T14:17:29.999Z</time></trkpt><trkpt lat="45.004116694284235" lon="5.296779791376431"><ele>433.0</ele><time>2026-05-02T14:17:30.998Z</time></trkpt><trkpt lat="45.00432264159886" lon="5.296938648011695"><ele>437.6666666666667</ele><time>2026-05-02T14:17:31.998Z</time></trkpt><trkpt lat="45.004515567477625" lon="5.2971092229818515"><ele>442.33333333333337</ele><time>2026-05-02T14:17:32.998Z</time></trkpt><trkpt lat="45.004688183867245" lon="5.29726271232871"><ele>447.0</ele><time>2026-05-02T14:17:33.998Z</time></trkpt><trkpt lat="45.00488081539448" lon="5.29743885278242"><ele>435.66666666666663</ele><time>2026-05-02T14:17:34.998Z</time></trkpt><trkpt lat="45.00506487577621" lon="5.29760135011426"><ele>424.3333333333333</ele><time>2026-05-02T14:17:35.998Z</time></trkpt><trkpt lat="45.00524604865206" lon="5.29774558585007"><ele>413.0</ele><time>2026-05-02T14:17:36.998Z</time></trkpt><trkpt lat="45.005432536763315" lon="5.297880373152153"><ele>413.0</ele><time>2026-05-02T14:17:37.998Z</time></trkpt><trkpt lat="45.00561227816326" lon="5.297998526025373"><ele>413.0</ele><time>2026-05-02T14:17:38.998Z</time></trkpt><trkpt lat="45.005790373822755" lon="5.298099782383309"><ele>413.0</ele><time>2026-05-02T14:17:39.998Z</time></trkpt><trkpt lat="45.00595934783437" lon="5.298199301917142"><ele>410.66666666666663</ele><time>2026-05-02T14:17:40.998Z</time></trkpt><trkpt lat="45.00607719416988" lon="5.298412800216066"><ele>408.33333333333337</ele><time>2026-05-02T14:17:41.998Z</time></trkpt><trkpt lat="45.00622146249676" lon="5.29857732179956"><ele>406.0</ele><time>2026-05-02T14:17:42.998Z</time></trkpt><trkpt lat="45.00636364982127" lon="5.298717591100386"><ele>406.0</ele><time>2026-05-02T14:17:43.998Z</time></trkpt><trkpt lat="45.0065061124259" lon="5.298851678698674"><ele>406.0</ele><time>2026-05-02T14:17:44.998Z</time></trkpt><trkpt lat="45.00662323638505" lon="5.299009037325487"><ele>406.0</ele><time>2026-05-02T14:17:45.998Z</time></trkpt><trkpt lat="45.00670937314646" lon="5.299247632862909"><ele>408.33333333333337</ele><time>2026-05-02T14:17:46.998Z</time></trkpt><trkpt lat="45.0068363724255" lon="5.299451064036468"><ele>410.66666666666663</ele><time>2026-05-02T14:17:47.998Z</time></trkpt><trkpt lat="45.00696794628461" lon="5.299650538955205"><ele>413.0</ele><time>2026-05-02T14:17:48.998Z</time></trkpt><trkpt lat="45.00708001890217" lon="5.299872453832569"><ele>413.0</ele><time>2026-05-02T14:17:49.998Z</time></trkpt><trkpt lat="45.00717305578447" lon="5.300098553089398"><ele>413.0</ele><time>2026-05-02T14:17:50.998Z</time></trkpt><trkpt lat="45.00726023767122" lon="5.300299065128184"><ele>413.0</ele><time>2026-05-02T14:17:51.998Z</time></trkpt><trkpt lat="45.0073295706021" lon="5.300488196810122"><ele>415.79999999999995</ele><time>2026-05-02T14:17:52.998Z</time></trkpt><trkpt lat="45.00737536044642" lon="5.300658677398185"><ele>418.6</ele><time>2026-05-02T14:17:53.998Z</time></trkpt><trkpt lat="45.00736406961856" lon="5.300812294085589"><ele>421.40000000000003</ele><time>2026-05-02T14:17:54.998Z</time></trkpt><trkpt lat="45.00735543677565" lon="5.300943921606876"><ele>424.20000000000005</ele><time>2026-05-02T14:17:55.998Z</time></trkpt><trkpt lat="45.0073991183763" lon="5.301036026644449"><ele>427.0</ele><time>2026-05-02T14:17:56.998Z</time></trkpt><trkpt lat="45.00749872263697" lon="5.30099996464382"><ele>415.5</ele><time>2026-05-02T14:17:57.998Z</time></trkpt><trkpt lat="45.00755795534221" lon="5.300910131609232"><ele>404.0</ele><time>2026-05-02T14:17:59Z</time></trkpt><trkpt lat="45.00760577346094" lon="5.3007824441554"><ele>392.5</ele><time>2026-05-02T14:18:00Z</time></trkpt><trkpt lat="45.00757472873283" lon="5.3005968743199885"><ele>381.0</ele><time>2026-05-02T14:18:01Z</time></trkpt><trkpt lat="45.007533323026195" lon="5.300356143666606"><ele>377.6666666666667</ele><time>2026-05-02T14:18:02Z</time></trkpt><trkpt lat="45.00751585294151" lon="5.300100070391725"><ele>374.33333333333337</ele><time>2026-05-02T14:18:03Z</time></trkpt><trkpt lat="45.00745580296267" lon="5.299843609445889"><ele>371.0</ele><time>2026-05-02T14:18:04Z</time></trkpt><trkpt lat="45.00739773740047" lon="5.299582506024855"><ele>370.33333333333337</ele><time>2026-05-02T14:18:05Z</time></trkpt><trkpt lat="45.007325225960216" lon="5.299334827094678"><ele>369.6666666666667</ele><time>2026-05-02T14:18:06Z</time></trkpt><trkpt lat="45.00725388746719" lon="5.299078413613435"><ele>369.0</ele><time>2026-05-02T14:18:07Z</time></trkpt><trkpt lat="45.007180443564295" lon="5.298812653642789"><ele>369.0</ele><time>2026-05-02T14:18:08Z</time></trkpt><trkpt lat="45.00709024339569" lon="5.298555942329938"><ele>369.0</ele><time>2026-05-02T14:18:09Z</time></trkpt><trkpt lat="45.00697492511818" lon="5.298313282089345"><ele>369.0</ele><time>2026-05-02T14:18:10Z</time></trkpt><trkpt lat="45.00686447940384" lon="5.29807180600235"><ele>372.6666666666667</ele><time>2026-05-02T14:18:11Z</time></trkpt><trkpt lat="45.00676105853611" lon="5.297831780548341"><ele>376.33333333333337</ele><time>2026-05-02T14:18:12Z</time></trkpt><trkpt lat="45.006664914671255" lon="5.297607240155711"><ele>380.0</ele><time>2026-05-02T14:18:13Z</time></trkpt><trkpt lat="45.00657258830679" lon="5.29739633326959"><ele>371.6666666666667</ele><time>2026-05-02T14:18:14Z</time></trkpt><trkpt lat="45.00648096799814" lon="5.297191431137214"><ele>363.3333333333333</ele><time>2026-05-02T14:18:15Z</time></trkpt><trkpt lat="45.00639633054572" lon="5.296992289344174"><ele>355.0</ele><time>2026-05-02T14:18:16Z</time></trkpt><trkpt lat="45.006313034890184" lon="5.296790081439356"><ele>355.0</ele><time>2026-05-02T14:18:17Z</time></trkpt><trkpt lat="45.00622791880135" lon="5.296577374276908"><ele>355.0</ele><time>2026-05-02T14:18:18Z</time></trkpt><trkpt lat="45.006147945468456" lon="5.2963533242870815"><ele>355.0</ele><time>2026-05-02T14:18:19Z</time></trkpt><trkpt lat="45.00610839549967" lon="5.296109055244971"><ele>351.3333333333333</ele><time>2026-05-02T14:18:20Z</time></trkpt><trkpt lat="45.00606484381904" lon="5.29586279016935"><ele>347.6666666666667</ele><time>2026-05-02T14:18:21Z</time></trkpt><trkpt lat="45.00604908890856" lon="5.295605731021773"><ele>344.0</ele><time>2026-05-02T14:18:22Z</time></trkpt><trkpt lat="45.00607436050066" lon="5.295351459134925"><ele>342.0</ele><time>2026-05-02T14:18:23Z</time></trkpt><trkpt lat="45.00614101422867" lon="5.295107108894034"><ele>340.0</ele><time>2026-05-02T14:18:24Z</time></trkpt><trkpt lat="45.00622381703225" lon="5.294857449043053"><ele>338.0</ele><time>2026-05-02T14:18:25Z</time></trkpt><trkpt lat="45.006304969176604" lon="5.294595984832922"><ele>336.6666666666667</ele><time>2026-05-02T14:18:26Z</time></trkpt><trkpt lat="45.00640036347084" lon="5.294346279518309"><ele>335.3333333333333</ele><time>2026-05-02T14:18:27Z</time></trkpt><trkpt lat="45.0064952744607" lon="5.294087170060479"><ele>334.0</ele><time>2026-05-02T14:18:28Z</time></trkpt><trkpt lat="45.006583235038825" lon="5.293841563300856"><ele>330.3333333333333</ele><time>2026-05-02T14:18:29Z</time></trkpt><trkpt lat="45.00667294774024" lon="5.293608018828856"><ele>326.6666666666667</ele><time>2026-05-02T14:18:30Z</time></trkpt><trkpt lat="45.006778022639935" lon="5.293405509947587"><ele>323.0</ele><time>2026-05-02T14:18:31Z</time></trkpt><trkpt lat="45.00690662025392" lon="5.293240003424933"><ele>323.0</ele><time>2026-05-02T14:18:32Z</time></trkpt><trkpt lat="45.00706713668984" lon="5.2931320987081145"><ele>323.0</ele><time>2026-05-02T14:18:33Z</time></trkpt><trkpt lat="45.00722542468953" lon="5.292993412759158"><ele>323.0</ele><time>2026-05-02T14:18:34Z</time></trkpt><trkpt lat="45.007389017685455" lon="5.292891236481915"><ele>319.33333333333337</ele><time>2026-05-02T14:18:35Z</time></trkpt><trkpt lat="45.00754273042578" lon="5.2927900398773"><ele>315.6666666666667</ele><time>2026-05-02T14:18:36Z</time></trkpt><trkpt lat="45.00768996156575" lon="5.292686941651271"><ele>312.0</ele><time>2026-05-02T14:18:37Z</time></trkpt><trkpt lat="45.0078369957242" lon="5.292582148905948"><ele>312.0</ele><time>2026-05-02T14:18:38Z</time></trkpt><trkpt lat="45.00798865853618" lon="5.292470253847028"><ele>312.0</ele><time>2026-05-02T14:18:38.999Z</time></trkpt><trkpt lat="45.00812755681066" lon="5.292367203936855"><ele>312.0</ele><time>2026-05-02T14:18:39.999Z</time></trkpt><trkpt lat="45.00826672691846" lon="5.292273276754997"><ele>309.25</ele><time>2026-05-02T14:18:40.999Z</time></trkpt><trkpt lat="45.008397162004556" lon="5.292183582016278"><ele>306.5</ele><time>2026-05-02T14:18:41.999Z</time></trkpt><trkpt lat="45.00852237880565" lon="5.292097341573868"><ele>303.75</ele><time>2026-05-02T14:18:42.999Z</time></trkpt><trkpt lat="45.0086438414059" lon="5.292012521103623"><ele>301.0</ele><time>2026-05-02T14:18:43.999Z</time></trkpt><trkpt lat="45.008754025023585" lon="5.291933614216864"><ele>301.0</ele><time>2026-05-02T14:18:44.999Z</time></trkpt><trkpt lat="45.008844006008694" lon="5.291876815638447"><ele>301.0</ele><time>2026-05-02T14:18:45.999Z</time></trkpt><trkpt lat="45.00891866226823" lon="5.291824421266575"><ele>301.0</ele><time>2026-05-02T14:18:46.999Z</time></trkpt><trkpt lat="45.00899170784111" lon="5.291771624343974"><ele>301.0</ele><time>2026-05-02T14:18:47.999Z</time></trkpt><trkpt lat="45.0090588248432" lon="5.291720391902476"><ele>301.0</ele><time>2026-05-02T14:18:48.999Z</time></trkpt><trkpt lat="45.0091225507043" lon="5.291669706182255"><ele>301.0</ele><time>2026-05-02T14:18:49.999Z</time></trkpt><trkpt lat="45.00919561819575" lon="5.291613503530504"><ele>300.25</ele><time>2026-05-02T14:18:50.999Z</time></trkpt><trkpt lat="45.009281776277895" lon="5.291549512223046"><ele>299.5</ele><time>2026-05-02T14:18:51.999Z</time></trkpt><trkpt lat="45.00938680380247" lon="5.29146685444916"><ele>298.75</ele><time>2026-05-02T14:18:52.999Z</time></trkpt><trkpt lat="45.00950814540787" lon="5.291384256790088"><ele>298.0</ele><time>2026-05-02T14:18:53.999Z</time></trkpt><trkpt lat="45.00963013447603" lon="5.291297563321624"><ele>297.25</ele><time>2026-05-02T14:18:54.999Z</time></trkpt><trkpt lat="45.00974914630895" lon="5.291211829234404"><ele>296.5</ele><time>2026-05-02T14:18:55.999Z</time></trkpt><trkpt lat="45.00985407267306" lon="5.291132819054127"><ele>295.75</ele><time>2026-05-02T14:18:56.999Z</time></trkpt><trkpt lat="45.00995332608789" lon="5.291055874470198"><ele>295.0</ele><time>2026-05-02T14:18:57.999Z</time></trkpt><trkpt lat="45.010048699121015" lon="5.290988099179174"><ele>294.0</ele><time>2026-05-02T14:18:58.999Z</time></trkpt><trkpt lat="45.010147562968044" lon="5.290919236298407"><ele>293.0</ele><time>2026-05-02T14:18:59.999Z</time></trkpt><trkpt lat="45.010252652113785" lon="5.290843812107962"><ele>292.0</ele><time>2026-05-02T14:19:00.999Z</time></trkpt><trkpt lat="45.01036656304582" lon="5.290766116241887"><ele>291.0</ele><time>2026-05-02T14:19:01.999Z</time></trkpt><trkpt lat="45.010487447032496" lon="5.290692100327731"><ele>291.0</ele><time>2026-05-02T14:19:02.999Z</time></trkpt><trkpt lat="45.0105913517633" lon="5.290631808130044"><ele>291.0</ele><time>2026-05-02T14:19:03.999Z</time></trkpt><trkpt lat="45.01069607476067" lon="5.290541372969732"><ele>291.0</ele><time>2026-05-02T14:19:05.999Z</time></trkpt><trkpt lat="45.01079887743219" lon="5.290487835405948"><ele>291.0</ele><time>2026-05-02T14:19:07.999Z</time></trkpt><trkpt lat="45.01094482591889" lon="5.290435157301732"><ele>288.25</ele><time>2026-05-02T14:19:09.999Z</time></trkpt><trkpt lat="45.01106563555471" lon="5.290437232297012"><ele>285.5</ele><time>2026-05-02T14:19:10.999Z</time></trkpt><trkpt lat="45.01118820882471" lon="5.2904134140423595"><ele>282.75</ele><time>2026-05-02T14:19:11.999Z</time></trkpt><trkpt lat="45.011303903957725" lon="5.290401425864034"><ele>280.0</ele><time>2026-05-02T14:19:12.999Z</time></trkpt><trkpt lat="45.011414418159625" lon="5.290392431345094"><ele>280.0</ele><time>2026-05-02T14:19:13.999Z</time></trkpt><trkpt lat="45.01153350055301" lon="5.290406328799771"><ele>280.0</ele><time>2026-05-02T14:19:14.999Z</time></trkpt><trkpt lat="45.011650331800624" lon="5.29045481230668"><ele>280.0</ele><time>2026-05-02T14:19:15.999Z</time></trkpt><trkpt lat="45.01176751383205" lon="5.290507170234468"><ele>280.0</ele><time>2026-05-02T14:19:16.999Z</time></trkpt><trkpt lat="45.01189536891279" lon="5.290550634364027"><ele>279.0</ele><time>2026-05-02T14:19:17.999Z</time></trkpt><trkpt lat="45.012028083904426" lon="5.290570133712133"><ele>278.0</ele><time>2026-05-02T14:19:18.999Z</time></trkpt><trkpt lat="45.012137680806866" lon="5.2905809187191135"><ele>277.0</ele><time>2026-05-02T14:19:19.999Z</time></trkpt><trkpt lat="45.01224652959496" lon="5.2906367893519874"><ele>276.0</ele><time>2026-05-02T14:19:20.999Z</time></trkpt><trkpt lat="45.01235441308466" lon="5.290654227052676"><ele>276.0</ele><time>2026-05-02T14:19:21.999Z</time></trkpt><trkpt lat="45.01244822401197" lon="5.290687101673124"><ele>276.0</ele><time>2026-05-02T14:19:22.999Z</time></trkpt><trkpt lat="45.01255911498145" lon="5.290719505022593"><ele>276.0</ele><time>2026-05-02T14:19:23.999Z</time></trkpt><trkpt lat="45.01267769219828" lon="5.290755892368477"><ele>276.0</ele><time>2026-05-02T14:19:24.999Z</time></trkpt><trkpt lat="45.012794622665176" lon="5.290799430604897"><ele>274.8333333333333</ele><time>2026-05-02T14:19:25.999Z</time></trkpt><trkpt lat="45.012904370722595" lon="5.290831684785485"><ele>273.6666666666667</ele><time>2026-05-02T14:19:26.999Z</time></trkpt><trkpt lat="45.01301192825078" lon="5.290855691790308"><ele>272.5</ele><time>2026-05-02T14:19:27.999Z</time></trkpt><trkpt lat="45.0131033160644" lon="5.290882188566912"><ele>271.33333333333337</ele><time>2026-05-02T14:19:28.999Z</time></trkpt><trkpt lat="45.01316980100047" lon="5.290905913039294"><ele>270.1666666666667</ele><time>2026-05-02T14:19:29.999Z</time></trkpt><trkpt lat="45.013233268141356" lon="5.290933970028809"><ele>269.0</ele><time>2026-05-02T14:19:30.999Z</time></trkpt><trkpt lat="45.013293926458" lon="5.290958276185641"><ele>267.83333333333337</ele><time>2026-05-02T14:19:31.999Z</time></trkpt><trkpt lat="45.01336367830841" lon="5.290965911062595"><ele>266.6666666666667</ele><time>2026-05-02T14:19:32.999Z</time></trkpt><trkpt lat="45.01345162736985" lon="5.290988758038483"><ele>265.5</ele><time>2026-05-02T14:19:34.999Z</time></trkpt><trkpt lat="45.013522522575656" lon="5.2910101257838456"><ele>264.3333333333333</ele><time>2026-05-02T14:19:38.998Z</time></trkpt><trkpt lat="45.01361417672533" lon="5.291020238775349"><ele>263.16666666666663</ele><time>2026-05-02T14:19:40.998Z</time></trkpt><trkpt lat="45.01371944446817" lon="5.291053177179478"><ele>262.0</ele><time>2026-05-02T14:19:42.998Z</time></trkpt><trkpt lat="45.013783318203416" lon="5.291091940426799"><ele>262.0</ele><time>2026-05-02T14:19:43.998Z</time></trkpt><trkpt lat="45.0138549836024" lon="5.291094871971952"><ele>262.0</ele><time>2026-05-02T14:19:44.998Z</time></trkpt><trkpt lat="45.013925230177946" lon="5.291135393809791"><ele>262.0</ele><time>2026-05-02T14:19:45.998Z</time></trkpt><trkpt lat="45.01398995080092" lon="5.291153594973659"><ele>262.0</ele><time>2026-05-02T14:19:46.998Z</time></trkpt><trkpt lat="45.01405457273116" lon="5.291171480663345"><ele>262.0</ele><time>2026-05-02T14:19:47.998Z</time></trkpt><trkpt lat="45.01415653172425" lon="5.291191280067916"><ele>262.0</ele><time>2026-05-02T14:19:49.998Z</time></trkpt><trkpt lat="45.01426229402779" lon="5.291220843365381"><ele>261.4</ele><time>2026-05-02T14:19:51.998Z</time></trkpt><trkpt lat="45.01433228553018" lon="5.291238938891607"><ele>260.79999999999995</ele><time>2026-05-02T14:19:52.998Z</time></trkpt><trkpt lat="45.01439887297922" lon="5.2912620221574915"><ele>260.2</ele><time>2026-05-02T14:19:53.998Z</time></trkpt><trkpt lat="45.01446461637939" lon="5.291285939361819"><ele>259.59999999999997</ele><time>2026-05-02T14:19:54.998Z</time></trkpt><trkpt lat="45.01457867345814" lon="5.291254787362577"><ele>259.0</ele><time>2026-05-02T14:19:56.998Z</time></trkpt><trkpt lat="45.01471104624924" lon="5.291290051011348"><ele>259.0</ele><time>2026-05-02T14:19:58.998Z</time></trkpt><trkpt lat="45.014787329305975" lon="5.291322139628205"><ele>259.0</ele><time>2026-05-02T14:19:59.998Z</time></trkpt><trkpt lat="45.01485113186607" lon="5.2913518176288"><ele>259.0</ele><time>2026-05-02T14:20:00.998Z</time></trkpt><trkpt lat="45.01491492766803" lon="5.291366076308451"><ele>259.0</ele><time>2026-05-02T14:20:01.998Z</time></trkpt><trkpt lat="45.01498175457915" lon="5.291386430877501"><ele>259.0</ele><time>2026-05-02T14:20:02.998Z</time></trkpt><trkpt lat="45.01509864711432" lon="5.291418925944401"><ele>259.0</ele><time>2026-05-02T14:20:05Z</time></trkpt><trkpt lat="45.01516394725756" lon="5.29143592493867"><ele>259.2</ele><time>2026-05-02T14:20:06Z</time></trkpt><trkpt lat="45.015261596482986" lon="5.291469406370486"><ele>259.4</ele><time>2026-05-02T14:20:08Z</time></trkpt><trkpt lat="45.01535851148679" lon="5.291513684687367"><ele>259.6</ele><time>2026-05-02T14:20:10Z</time></trkpt><trkpt lat="45.015459340188855" lon="5.29154575831452"><ele>259.8</ele><time>2026-05-02T14:20:12Z</time></trkpt><trkpt lat="45.01556100061514" lon="5.291598626966197"><ele>260.0</ele><time>2026-05-02T14:20:14Z</time></trkpt><trkpt lat="45.01566607697885" lon="5.2916396723671735"><ele>260.0</ele><time>2026-05-02T14:20:16Z</time></trkpt><trkpt lat="45.01576196228916" lon="5.291680317645696"><ele>260.0</ele><time>2026-05-02T14:20:18Z</time></trkpt><trkpt lat="45.01585919472437" lon="5.291753575730445"><ele>260.0</ele><time>2026-05-02T14:20:20Z</time></trkpt><trkpt lat="45.01594326883215" lon="5.291787864067934"><ele>260.0</ele><time>2026-05-02T14:20:22Z</time></trkpt><trkpt lat="45.016012796451975" lon="5.291793519522045"><ele>260.0</ele><time>2026-05-02T14:20:23Z</time></trkpt><trkpt lat="45.016120557546984" lon="5.291847175721855"><ele>259.83333333333337</ele><time>2026-05-02T14:20:25Z</time></trkpt><trkpt lat="45.01618577451007" lon="5.291850375964764"><ele>259.6666666666667</ele><time>2026-05-02T14:20:26Z</time></trkpt><trkpt lat="45.01625763519727" lon="5.291851370538043"><ele>259.5</ele><time>2026-05-02T14:20:27Z</time></trkpt><trkpt lat="45.01634163139736" lon="5.291872371147302"><ele>259.3333333333333</ele><time>2026-05-02T14:20:28Z</time></trkpt><trkpt lat="45.01640287906163" lon="5.291906694130604"><ele>259.16666666666663</ele><time>2026-05-02T14:20:29Z</time></trkpt><trkpt lat="45.01647505314321" lon="5.291933131975978"><ele>259.0</ele><time>2026-05-02T14:20:30Z</time></trkpt><trkpt lat="45.016586072040106" lon="5.291963542969187"><ele>258.0</ele><time>2026-05-02T14:20:32Z</time></trkpt><trkpt lat="45.0166627577029" lon="5.291975878988129"><ele>257.0</ele><time>2026-05-02T14:20:34Z</time></trkpt><trkpt lat="45.016773915128304" lon="5.2920215842262275"><ele>255.99999999999997</ele><time>2026-05-02T14:20:36Z</time></trkpt><trkpt lat="45.016907450367185" lon="5.292075905810814"><ele>255.0</ele><time>2026-05-02T14:20:38Z</time></trkpt><trkpt lat="45.0169897031659" lon="5.292114222857753"><ele>254.0</ele><time>2026-05-02T14:20:40Z</time></trkpt><trkpt lat="45.01708514940256" lon="5.292167673882224"><ele>254.0</ele><time>2026-05-02T14:20:42Z</time></trkpt><trkpt lat="45.01716814216695" lon="5.292205992920166"><ele>253.99999999999997</ele><time>2026-05-02T14:20:44Z</time></trkpt><trkpt lat="45.017232688112834" lon="5.292184786978017"><ele>253.99999999999997</ele><time>2026-05-02T14:20:45Z</time></trkpt><trkpt lat="45.01733276725764" lon="5.292226375138646"><ele>254.0</ele><time>2026-05-02T14:20:46.999Z</time></trkpt><trkpt lat="45.01740319429043" lon="5.292323935521181"><ele>254.0</ele><time>2026-05-02T14:20:48.999Z</time></trkpt><trkpt lat="45.01749819833198" lon="5.29238694261262"><ele>254.79999999999998</ele><time>2026-05-02T14:20:50.999Z</time></trkpt><trkpt lat="45.01758218509828" lon="5.292475385361746"><ele>255.59999999999997</ele><time>2026-05-02T14:20:52.999Z</time></trkpt><trkpt lat="45.0176273748395" lon="5.292606083759511"><ele>256.4</ele><time>2026-05-02T14:20:54.999Z</time></trkpt><trkpt lat="45.017681143613245" lon="5.292689494430511"><ele>257.2</ele><time>2026-05-02T14:20:56.999Z</time></trkpt><trkpt lat="45.01774945491133" lon="5.292764979436481"><ele>258.0</ele><time>2026-05-02T14:20:59.999Z</time></trkpt><trkpt lat="45.017803844248704" lon="5.292863725082903"><ele>258.0</ele><time>2026-05-02T14:21:01.999Z</time></trkpt><trkpt lat="45.01781988994857" lon="5.292960926288607"><ele>258.0</ele><time>2026-05-02T14:21:03.999Z</time></trkpt><trkpt lat="45.01777360969839" lon="5.2930891999080645"><ele>258.0</ele><time>2026-05-02T14:21:05.999Z</time></trkpt><trkpt lat="45.01772483831419" lon="5.293205719771386"><ele>258.0</ele><time>2026-05-02T14:21:07.999Z</time></trkpt><trkpt lat="45.017681231923504" lon="5.293282199272716"><ele>258.0</ele><time>2026-05-02T14:21:09.999Z</time></trkpt><trkpt lat="45.01755770383997" lon="5.293261108408983"><ele>259.6</ele><time>2026-05-02T14:21:13.999Z</time></trkpt><trkpt lat="45.017459631923096" lon="5.29324431184044"><ele>261.20000000000005</ele><time>2026-05-02T14:21:14.999Z</time></trkpt><trkpt lat="45.017382754015955" lon="5.293213093520847"><ele>262.8</ele><time>2026-05-02T14:21:15.999Z</time></trkpt><trkpt lat="45.017290938417624" lon="5.293187768943685"><ele>264.40000000000003</ele><time>2026-05-02T14:21:16.999Z</time></trkpt><trkpt lat="45.01719868944055" lon="5.293159896926812"><ele>266.0</ele><time>2026-05-02T14:21:17.999Z</time></trkpt><trkpt lat="45.017088650750416" lon="5.293145670897386"><ele>266.0</ele><time>2026-05-02T14:21:18.999Z</time></trkpt><trkpt lat="45.016982440579355" lon="5.293110132097651"><ele>266.0</ele><time>2026-05-02T14:21:19.999Z</time></trkpt><trkpt lat="45.01687792666378" lon="5.293084441293859"><ele>266.0</ele><time>2026-05-02T14:21:20.999Z</time></trkpt><trkpt lat="45.01678626658569" lon="5.293062748158942"><ele>266.0</ele><time>2026-05-02T14:21:21.999Z</time></trkpt><trkpt lat="45.01672466029046" lon="5.293040015427485"><ele>266.0</ele><time>2026-05-02T14:21:22.999Z</time></trkpt><trkpt lat="45.01665867505284" lon="5.293011967229659"><ele>266.0</ele><time>2026-05-02T14:21:24.999Z</time></trkpt><trkpt lat="45.0165342096785" lon="5.2929833858616355"><ele>265.0</ele><time>2026-05-02T14:21:26.999Z</time></trkpt><trkpt lat="45.016433654461494" lon="5.292953274606401"><ele>264.0</ele><time>2026-05-02T14:21:27.999Z</time></trkpt><trkpt lat="45.01633477199012" lon="5.2929216286412295"><ele>263.0</ele><time>2026-05-02T14:21:28.999Z</time></trkpt><trkpt lat="45.01623912420123" lon="5.2928988992325126"><ele>262.0</ele><time>2026-05-02T14:21:29.999Z</time></trkpt><trkpt lat="45.01613444050309" lon="5.292876128089737"><ele>261.0</ele><time>2026-05-02T14:21:30.999Z</time></trkpt><trkpt lat="45.01606276917241" lon="5.2928516021270156"><ele>261.0</ele><time>2026-05-02T14:21:31.999Z</time></trkpt><trkpt lat="45.01598825829388" lon="5.292836173911984"><ele>261.0</ele><time>2026-05-02T14:21:32.999Z</time></trkpt><trkpt lat="45.015913405018175" lon="5.2928195693546325"><ele>261.0</ele><time>2026-05-02T14:21:33.999Z</time></trkpt><trkpt lat="45.01584903014957" lon="5.29280871528829"><ele>261.0</ele><time>2026-05-02T14:21:34.999Z</time></trkpt><trkpt lat="45.015767169196536" lon="5.292787115832599"><ele>261.0</ele><time>2026-05-02T14:21:36.999Z</time></trkpt><trkpt lat="45.0156882107025" lon="5.2927804631871656"><ele>261.0</ele><time>2026-05-02T14:21:38.999Z</time></trkpt><trkpt lat="45.01561397603517" lon="5.292756405493359"><ele>261.8</ele><time>2026-05-02T14:21:39.999Z</time></trkpt><trkpt lat="45.01552245098651" lon="5.2927165350725085"><ele>262.6</ele><time>2026-05-02T14:21:40.999Z</time></trkpt><trkpt lat="45.01541961317764" lon="5.292674983940283"><ele>263.4</ele><time>2026-05-02T14:21:41.999Z</time></trkpt><trkpt lat="45.01533225864521" lon="5.292631433173576"><ele>264.2</ele><time>2026-05-02T14:21:42.999Z</time></trkpt><trkpt lat="45.01526287182408" lon="5.292600945514316"><ele>265.0</ele><time>2026-05-02T14:21:43.999Z</time></trkpt><trkpt lat="45.0151821047579" lon="5.292490202437495"><ele>265.0</ele><time>2026-05-02T14:21:45.998Z</time></trkpt><trkpt lat="45.01519736376061" lon="5.292389074970181"><ele>265.0</ele><time>2026-05-02T14:21:46.998Z</time></trkpt><trkpt lat="45.015230928473855" lon="5.292284396849955"><ele>265.0</ele><time>2026-05-02T14:21:47.998Z</time></trkpt><trkpt lat="45.01526158920394" lon="5.292162813262088"><ele>265.0</ele><time>2026-05-02T14:21:48.998Z</time></trkpt><trkpt lat="45.01529121945647" lon="5.292025271275318"><ele>265.0</ele><time>2026-05-02T14:21:49.998Z</time></trkpt><trkpt lat="45.01532249138994" lon="5.29191550159536"><ele>265.0</ele><time>2026-05-02T14:21:50.998Z</time></trkpt><trkpt lat="45.01535245934105" lon="5.29182077603382"><ele>264.16666666666663</ele><time>2026-05-02T14:21:51.998Z</time></trkpt><trkpt lat="45.01536382155493" lon="5.2917298093828995"><ele>263.3333333333333</ele><time>2026-05-02T14:21:52.998Z</time></trkpt><trkpt lat="45.01538378721353" lon="5.291600670655937"><ele>262.5</ele><time>2026-05-02T14:21:54.998Z</time></trkpt><trkpt lat="45.01545234655109" lon="5.291538300116924"><ele>261.6666666666667</ele><time>2026-05-02T14:21:57.998Z</time></trkpt><trkpt lat="45.01552544244683" lon="5.291573683477056"><ele>260.83333333333337</ele><time>2026-05-02T14:21:58.998Z</time></trkpt><trkpt lat="45.01558585078227" lon="5.291625241498221"><ele>260.0</ele><time>2026-05-02T14:21:59.998Z</time></trkpt><trkpt lat="45.01569608858383" lon="5.291668454185178"><ele>260.0</ele><time>2026-05-02T14:22:01.998Z</time></trkpt><trkpt lat="45.01576675982602" lon="5.291680185430518"><ele>260.0</ele><time>2026-05-02T14:22:03.998Z</time></trkpt><trkpt lat="45.015787686694125" lon="5.2915878186312"><ele>260.0</ele><time>2026-05-02T14:22:05.998Z</time></trkpt><trkpt lat="45.015768837817035" lon="5.2914738603776295"><ele>260.0</ele><time>2026-05-02T14:22:06.998Z</time></trkpt><trkpt lat="45.015754817998996" lon="5.291336436624068"><ele>260.0</ele><time>2026-05-02T14:22:07.998Z</time></trkpt><trkpt lat="45.015744997767584" lon="5.291222125595393"><ele>260.0</ele><time>2026-05-02T14:22:08.998Z</time></trkpt><trkpt lat="45.01572525522063" lon="5.291099275721982"><ele>259.0</ele><time>2026-05-02T14:22:09.998Z</time></trkpt><trkpt lat="45.01567943048594" lon="5.290987842132798"><ele>258.0</ele><time>2026-05-02T14:22:11Z</time></trkpt><trkpt lat="45.01565336207637" lon="5.290885742020322"><ele>257.0</ele><time>2026-05-02T14:22:12Z</time></trkpt><trkpt lat="45.01571713469937" lon="5.290772874846019"><ele>256.0</ele><time>2026-05-02T14:22:14Z</time></trkpt><trkpt lat="45.01578757163344" lon="5.29077442910541"><ele>255.00000000000003</ele><time>2026-05-02T14:22:15Z</time></trkpt><trkpt lat="45.01586716127025" lon="5.290812493052643"><ele>254.0</ele><time>2026-05-02T14:22:16Z</time></trkpt><trkpt lat="45.01593358615259" lon="5.29083172996271"><ele>253.39999999999998</ele><time>2026-05-02T14:22:17Z</time></trkpt><trkpt lat="45.01603161388384" lon="5.2907388640693105"><ele>252.79999999999998</ele><time>2026-05-02T14:22:19Z</time></trkpt><trkpt lat="45.01614487018359" lon="5.290794957461491"><ele>252.20000000000002</ele><time>2026-05-02T14:22:21Z</time></trkpt><trkpt lat="45.01626727531979" lon="5.290845580095493"><ele>251.60000000000002</ele><time>2026-05-02T14:22:23Z</time></trkpt><trkpt lat="45.01632809815892" lon="5.29086864301135"><ele>251.0</ele><time>2026-05-02T14:22:24Z</time></trkpt><trkpt lat="45.016448766717964" lon="5.290929137625994"><ele>251.00000000000003</ele><time>2026-05-02T14:22:26Z</time></trkpt><trkpt lat="45.01651132460623" lon="5.2909474724745165"><ele>251.0</ele><time>2026-05-02T14:22:27Z</time></trkpt><trkpt lat="45.01657243506083" lon="5.290989931595501"><ele>251.0</ele><time>2026-05-02T14:22:28Z</time></trkpt><trkpt lat="45.016654009958486" lon="5.291016957974822"><ele>251.0</ele><time>2026-05-02T14:22:29Z</time></trkpt><trkpt lat="45.016734085893646" lon="5.291036959927908"><ele>251.00000000000003</ele><time>2026-05-02T14:22:30Z</time></trkpt><trkpt lat="45.01677799611256" lon="5.291182845942695"><ele>251.0</ele><time>2026-05-02T14:22:32Z</time></trkpt><trkpt lat="45.01669111890833" lon="5.291269755484421"><ele>251.00000000000003</ele><time>2026-05-02T14:22:34Z</time></trkpt><trkpt lat="45.01658186712905" lon="5.291171189205066"><ele>251.0</ele><time>2026-05-02T14:22:36Z</time></trkpt><trkpt lat="45.01649971958721" lon="5.291154431192764"><ele>251.0</ele><time>2026-05-02T14:22:37Z</time></trkpt><trkpt lat="45.01642910841654" lon="5.291127497807629"><ele>251.0</ele><time>2026-05-02T14:22:38Z</time></trkpt><trkpt lat="45.01636250415999" lon="5.291080786220721"><ele>251.00000000000003</ele><time>2026-05-02T14:22:39Z</time></trkpt><trkpt lat="45.01629690595464" lon="5.291053752169794"><ele>251.0</ele><time>2026-05-02T14:22:40Z</time></trkpt><trkpt lat="45.0162694982097" lon="5.290938421055797"><ele>251.0</ele><time>2026-05-02T14:22:42Z</time></trkpt><trkpt lat="45.01626936713786" lon="5.290831473001858"><ele>251.00000000000003</ele><time>2026-05-02T14:22:44Z</time></trkpt><trkpt lat="45.01620828424928" lon="5.290782853040589"><ele>251.00000000000003</ele><time>2026-05-02T14:22:45Z</time></trkpt><trkpt lat="45.01614034742024" lon="5.2907510449087125"><ele>251.0</ele><time>2026-05-02T14:22:46Z</time></trkpt><trkpt lat="45.0160395420854" lon="5.290696097510973"><ele>251.0</ele><time>2026-05-02T14:22:47.999Z</time></trkpt><trkpt lat="45.01604457335515" lon="5.290438916479296"><ele>250.4</ele><time>2026-05-02T14:22:50.999Z</time></trkpt><trkpt lat="45.016070209274915" lon="5.290353226355959"><ele>249.8</ele><time>2026-05-02T14:22:51.999Z</time></trkpt><trkpt lat="45.01609725643745" lon="5.290181165010871"><ele>249.20000000000002</ele><time>2026-05-02T14:22:53.999Z</time></trkpt><trkpt lat="45.01611494138271" lon="5.290007615537966"><ele>248.60000000000002</ele><time>2026-05-02T14:22:55.999Z</time></trkpt><trkpt lat="45.01613318830676" lon="5.289898776417724"><ele>248.0</ele><time>2026-05-02T14:22:56.999Z</time></trkpt><trkpt lat="45.016168621720254" lon="5.289779277193534"><ele>247.8</ele><time>2026-05-02T14:22:57.999Z</time></trkpt><trkpt lat="45.01620700732149" lon="5.289657221655646"><ele>247.60000000000002</ele><time>2026-05-02T14:22:58.999Z</time></trkpt><trkpt lat="45.01624329746121" lon="5.289529960935973"><ele>247.39999999999998</ele><time>2026-05-02T14:22:59.999Z</time></trkpt><trkpt lat="45.01628040026043" lon="5.28940369847059"><ele>247.2</ele><time>2026-05-02T14:23:00.999Z</time></trkpt><trkpt lat="45.016314300649746" lon="5.2892714860864505"><ele>247.0</ele><time>2026-05-02T14:23:01.999Z</time></trkpt><trkpt lat="45.01635203093943" lon="5.289150417479089"><ele>247.0</ele><time>2026-05-02T14:23:02.999Z</time></trkpt><trkpt lat="45.01637988873775" lon="5.289053129026492"><ele>247.0</ele><time>2026-05-02T14:23:03.999Z</time></trkpt><trkpt lat="45.016419496828654" lon="5.2889241131671225"><ele>247.0</ele><time>2026-05-02T14:23:05.999Z</time></trkpt><trkpt lat="45.01645684775184" lon="5.288809490852052"><ele>247.0</ele><time>2026-05-02T14:23:08.999Z</time></trkpt><trkpt lat="45.01656636506224" lon="5.288838484932736"><ele>247.0</ele><time>2026-05-02T14:23:10.999Z</time></trkpt><trkpt lat="45.016654024817605" lon="5.2888908133186705"><ele>246.6</ele><time>2026-05-02T14:23:11.999Z</time></trkpt><trkpt lat="45.01674138934584" lon="5.288925672022608"><ele>246.2</ele><time>2026-05-02T14:23:12.999Z</time></trkpt><trkpt lat="45.01683141129365" lon="5.288962391181441"><ele>245.8</ele><time>2026-05-02T14:23:13.999Z</time></trkpt><trkpt lat="45.016926935319134" lon="5.288999799968538"><ele>245.4</ele><time>2026-05-02T14:23:14.999Z</time></trkpt><trkpt lat="45.017011023105816" lon="5.289038496295497"><ele>245.0</ele><time>2026-05-02T14:23:15.999Z</time></trkpt><trkpt lat="45.01710162613355" lon="5.289082564462023"><ele>245.00000000000003</ele><time>2026-05-02T14:23:17.999Z</time></trkpt><trkpt lat="45.01716965225179" lon="5.289108643477389"><ele>245.0</ele><time>2026-05-02T14:23:19.999Z</time></trkpt><trkpt lat="45.017243469244036" lon="5.2891398083035055"><ele>245.0</ele><time>2026-05-02T14:23:21.999Z</time></trkpt><trkpt lat="45.01731194923621" lon="5.289157826509829"><ele>245.0</ele><time>2026-05-02T14:23:22.999Z</time></trkpt><trkpt lat="45.01738560532875" lon="5.289189720485569"><ele>245.00000000000003</ele><time>2026-05-02T14:23:23.999Z</time></trkpt><trkpt lat="45.01745441023627" lon="5.2892224543905915"><ele>245.0</ele><time>2026-05-02T14:23:24.999Z</time></trkpt><trkpt lat="45.01753390401803" lon="5.289259008649159"><ele>244.83333333333334</ele><time>2026-05-02T14:23:25.999Z</time></trkpt><trkpt lat="45.017621005137606" lon="5.289294064611982"><ele>244.66666666666669</ele><time>2026-05-02T14:23:26.999Z</time></trkpt><trkpt lat="45.01771179349667" lon="5.289333462546853"><ele>244.5</ele><time>2026-05-02T14:23:27.999Z</time></trkpt><trkpt lat="45.01779182741492" lon="5.289368982721192"><ele>244.33333333333331</ele><time>2026-05-02T14:23:28.999Z</time></trkpt><trkpt lat="45.01786781111902" lon="5.289403342906776"><ele>244.16666666666666</ele><time>2026-05-02T14:23:29.999Z</time></trkpt><trkpt lat="45.01794282886689" lon="5.28944194001402"><ele>244.0</ele><time>2026-05-02T14:23:30.999Z</time></trkpt><trkpt lat="45.01801364185505" lon="5.289470219334582"><ele>243.99999999999997</ele><time>2026-05-02T14:23:31.999Z</time></trkpt><trkpt lat="45.01808317434463" lon="5.289514128575075"><ele>244.0</ele><time>2026-05-02T14:23:32.999Z</time></trkpt><trkpt lat="45.01813029229442" lon="5.289587955779991"><ele>244.0</ele><time>2026-05-02T14:23:33.999Z</time></trkpt><trkpt lat="45.01813911342324" lon="5.289697188368851"><ele>244.0</ele><time>2026-05-02T14:23:34.999Z</time></trkpt><trkpt lat="45.018164756850716" lon="5.289810702185121"><ele>243.99999999999997</ele><time>2026-05-02T14:23:35.999Z</time></trkpt><trkpt lat="45.01819524929658" lon="5.289916316307401"><ele>244.0</ele><time>2026-05-02T14:23:36.999Z</time></trkpt><trkpt lat="45.01824072123596" lon="5.289995886775244"><ele>244.2</ele><time>2026-05-02T14:23:37.999Z</time></trkpt><trkpt lat="45.01827993827937" lon="5.290098913161483"><ele>244.39999999999998</ele><time>2026-05-02T14:23:38.999Z</time></trkpt><trkpt lat="45.018370229099894" lon="5.290181173812582"><ele>244.6</ele><time>2026-05-02T14:23:39.999Z</time></trkpt><trkpt lat="45.0184673136284" lon="5.2902735990685725"><ele>244.8</ele><time>2026-05-02T14:23:40.999Z</time></trkpt><trkpt lat="45.01857232355761" lon="5.29033268726682"><ele>245.0</ele><time>2026-05-02T14:23:41.999Z</time></trkpt><trkpt lat="45.01867486352186" lon="5.29037696822853"><ele>244.5</ele><time>2026-05-02T14:23:42.999Z</time></trkpt><trkpt lat="45.018782013615905" lon="5.290425476247861"><ele>244.0</ele><time>2026-05-02T14:23:43.999Z</time></trkpt><trkpt lat="45.01889584709116" lon="5.290479788814998"><ele>243.5</ele><time>2026-05-02T14:23:44.999Z</time></trkpt><trkpt lat="45.01901274922593" lon="5.290538470238279"><ele>243.0</ele><time>2026-05-02T14:23:45.999Z</time></trkpt><trkpt lat="45.019128451354725" lon="5.2905996544642315"><ele>243.25</ele><time>2026-05-02T14:23:46.999Z</time></trkpt><trkpt lat="45.01924040272777" lon="5.290655472086458"><ele>243.5</ele><time>2026-05-02T14:23:47.999Z</time></trkpt><trkpt lat="45.01935073013397" lon="5.290706607813389"><ele>243.75</ele><time>2026-05-02T14:23:48.999Z</time></trkpt><trkpt lat="45.01945864738472" lon="5.290768667554523"><ele>244.0</ele><time>2026-05-02T14:23:49.999Z</time></trkpt><trkpt lat="45.019569094753656" lon="5.290818076135322"><ele>244.0</ele><time>2026-05-02T14:23:50.999Z</time></trkpt><trkpt lat="45.01967946480781" lon="5.290871502958108"><ele>243.99999999999997</ele><time>2026-05-02T14:23:51.998Z</time></trkpt><trkpt lat="45.01978667517853" lon="5.290924018176128"><ele>243.99999999999997</ele><time>2026-05-02T14:23:52.998Z</time></trkpt><trkpt lat="45.01988953701358" lon="5.290975310880963"><ele>244.0</ele><time>2026-05-02T14:23:53.998Z</time></trkpt><trkpt lat="45.019975456984156" lon="5.29102599685881"><ele>244.0</ele><time>2026-05-02T14:23:54.998Z</time></trkpt><trkpt lat="45.02005522483268" lon="5.291058399631835"><ele>243.6</ele><time>2026-05-02T14:23:55.998Z</time></trkpt><trkpt lat="45.020137270179234" lon="5.291104874189287"><ele>243.2</ele><time>2026-05-02T14:23:56.998Z</time></trkpt><trkpt lat="45.02022550979218" lon="5.291143643677563"><ele>242.79999999999998</ele><time>2026-05-02T14:23:57.998Z</time></trkpt><trkpt lat="45.02031874488611" lon="5.2911864290644655"><ele>242.39999999999998</ele><time>2026-05-02T14:23:58.998Z</time></trkpt><trkpt lat="45.02040574969913" lon="5.291240543827529"><ele>242.0</ele><time>2026-05-02T14:23:59.998Z</time></trkpt><trkpt lat="45.020477969704096" lon="5.291276026484254"><ele>242.00000000000003</ele><time>2026-05-02T14:24:00.998Z</time></trkpt><trkpt lat="45.02053581788506" lon="5.291314647709088"><ele>242.0</ele><time>2026-05-02T14:24:01.998Z</time></trkpt><trkpt lat="45.02059697444292" lon="5.2913590019981465"><ele>242.0</ele><time>2026-05-02T14:24:02.998Z</time></trkpt><trkpt lat="45.020718320860624" lon="5.291454544726955"><ele>242.0</ele><time>2026-05-02T14:24:04.998Z</time></trkpt><trkpt lat="45.020795485437226" lon="5.29152986757118"><ele>242.00000000000003</ele><time>2026-05-02T14:24:05.998Z</time></trkpt><trkpt lat="45.020855474912594" lon="5.291605773872628"><ele>242.0</ele><time>2026-05-02T14:24:06.998Z</time></trkpt><trkpt lat="45.020932045476826" lon="5.291720635784045"><ele>242.39999999999998</ele><time>2026-05-02T14:24:08.998Z</time></trkpt><trkpt lat="45.02102034903461" lon="5.2918273412524925"><ele>242.79999999999998</ele><time>2026-05-02T14:24:10.998Z</time></trkpt><trkpt lat="45.02108289972009" lon="5.29190195196935"><ele>243.2</ele><time>2026-05-02T14:24:11.998Z</time></trkpt><trkpt lat="45.02115061920817" lon="5.291982729084877"><ele>243.6</ele><time>2026-05-02T14:24:12.998Z</time></trkpt><trkpt lat="45.02123038376286" lon="5.292048654571567"><ele>244.0</ele><time>2026-05-02T14:24:13.998Z</time></trkpt><trkpt lat="45.02129472670348" lon="5.292145042042691"><ele>244.0</ele><time>2026-05-02T14:24:14.998Z</time></trkpt><trkpt lat="45.02136811129848" lon="5.292237624727507"><ele>243.99999999999997</ele><time>2026-05-02T14:24:15.998Z</time></trkpt><trkpt lat="45.021431810343145" lon="5.2923473235615175"><ele>243.99999999999997</ele><time>2026-05-02T14:24:17Z</time></trkpt><trkpt lat="45.02147767564263" lon="5.2924799340631274"><ele>244.0</ele><time>2026-05-02T14:24:18Z</time></trkpt><trkpt lat="45.02152042110205" lon="5.292617311226042"><ele>244.0</ele><time>2026-05-02T14:24:19Z</time></trkpt><trkpt lat="45.021558447811366" lon="5.292754773284428"><ele>244.39999999999998</ele><time>2026-05-02T14:24:20Z</time></trkpt><trkpt lat="45.02156516979156" lon="5.292915478971709"><ele>244.79999999999998</ele><time>2026-05-02T14:24:21Z</time></trkpt><trkpt lat="45.02158634444228" lon="5.293069745712986"><ele>245.20000000000002</ele><time>2026-05-02T14:24:22Z</time></trkpt><trkpt lat="45.02161813310857" lon="5.293219518140295"><ele>245.60000000000002</ele><time>2026-05-02T14:24:23Z</time></trkpt><trkpt lat="45.02163682022431" lon="5.293357968214522"><ele>246.0</ele><time>2026-05-02T14:24:24Z</time></trkpt><trkpt lat="45.02165207172808" lon="5.293460995161699"><ele>246.4</ele><time>2026-05-02T14:24:25Z</time></trkpt><trkpt lat="45.02164998577382" lon="5.293620514314369"><ele>246.8</ele><time>2026-05-02T14:24:27Z</time></trkpt><trkpt lat="45.02166420515483" lon="5.293722601550652"><ele>247.20000000000002</ele><time>2026-05-02T14:24:28Z</time></trkpt><trkpt lat="45.021675293999955" lon="5.293835747729396"><ele>247.60000000000002</ele><time>2026-05-02T14:24:29Z</time></trkpt><trkpt lat="45.0217045327009" lon="5.293970883918908"><ele>248.0</ele><time>2026-05-02T14:24:30Z</time></trkpt><trkpt lat="45.021729181564766" lon="5.29415767180336"><ele>248.5</ele><time>2026-05-02T14:24:31Z</time></trkpt><trkpt lat="45.021768766996516" lon="5.294332477811004"><ele>249.0</ele><time>2026-05-02T14:24:32Z</time></trkpt><trkpt lat="45.02182191370213" lon="5.294486782679886"><ele>249.5</ele><time>2026-05-02T14:24:33Z</time></trkpt><trkpt lat="45.02189422060563" lon="5.294628623384266"><ele>250.0</ele><time>2026-05-02T14:24:34Z</time></trkpt><trkpt lat="45.02197230356934" lon="5.294773650746642"><ele>251.75</ele><time>2026-05-02T14:24:35Z</time></trkpt><trkpt lat="45.022053304801425" lon="5.294918551253168"><ele>253.5</ele><time>2026-05-02T14:24:36Z</time></trkpt><trkpt lat="45.02215514581107" lon="5.295025523208225"><ele>255.25</ele><time>2026-05-02T14:24:37Z</time></trkpt><trkpt lat="45.02226309081785" lon="5.295112941498889"><ele>257.0</ele><time>2026-05-02T14:24:38Z</time></trkpt><trkpt lat="45.02238847935633" lon="5.295190480661016"><ele>255.75</ele><time>2026-05-02T14:24:39Z</time></trkpt><trkpt lat="45.02252072862966" lon="5.295282938869982"><ele>254.5</ele><time>2026-05-02T14:24:40Z</time></trkpt><trkpt lat="45.02264989897626" lon="5.295368912606861"><ele>253.25</ele><time>2026-05-02T14:24:41Z</time></trkpt><trkpt lat="45.0227749289625" lon="5.295467258067641"><ele>252.0</ele><time>2026-05-02T14:24:42Z</time></trkpt><trkpt lat="45.02290366646856" lon="5.295560341475431"><ele>252.25</ele><time>2026-05-02T14:24:43Z</time></trkpt><trkpt lat="45.02303264075709" lon="5.295652246224867"><ele>252.5</ele><time>2026-05-02T14:24:44Z</time></trkpt><trkpt lat="45.02316599653617" lon="5.295746505347538"><ele>252.75</ele><time>2026-05-02T14:24:45Z</time></trkpt><trkpt lat="45.02329673942277" lon="5.295843162757783"><ele>253.0</ele><time>2026-05-02T14:24:46Z</time></trkpt><trkpt lat="45.023434372576865" lon="5.295938946996707"><ele>253.0</ele><time>2026-05-02T14:24:47Z</time></trkpt><trkpt lat="45.02357069659206" lon="5.296038138353225"><ele>253.0</ele><time>2026-05-02T14:24:48Z</time></trkpt><trkpt lat="45.02370725039599" lon="5.296141675178431"><ele>253.0</ele><time>2026-05-02T14:24:49Z</time></trkpt><trkpt lat="45.02384566512024" lon="5.296247591058521"><ele>253.0</ele><time>2026-05-02T14:24:50Z</time></trkpt><trkpt lat="45.023991991181894" lon="5.296347657462478"><ele>253.0</ele><time>2026-05-02T14:24:51Z</time></trkpt><trkpt lat="45.02414457986832" lon="5.296449379893237"><ele>253.0</ele><time>2026-05-02T14:24:51.999Z</time></trkpt><trkpt lat="45.024298750441154" lon="5.2965809842284814"><ele>251.66666666666666</ele><time>2026-05-02T14:24:52.999Z</time></trkpt><trkpt lat="45.02446912154385" lon="5.296683916271265"><ele>250.33333333333331</ele><time>2026-05-02T14:24:53.999Z</time></trkpt><trkpt lat="45.02462638773651" lon="5.296804917625584"><ele>249.0</ele><time>2026-05-02T14:24:54.999Z</time></trkpt><trkpt lat="45.02479406201137" lon="5.29692509374316"><ele>249.0</ele><time>2026-05-02T14:24:55.999Z</time></trkpt><trkpt lat="45.024965776592" lon="5.297047250745784"><ele>249.0</ele><time>2026-05-02T14:24:56.999Z</time></trkpt><trkpt lat="45.025134520807875" lon="5.297170943975535"><ele>249.0</ele><time>2026-05-02T14:24:57.999Z</time></trkpt><trkpt lat="45.02530051528809" lon="5.297292580884873"><ele>248.0</ele><time>2026-05-02T14:24:58.999Z</time></trkpt><trkpt lat="45.025464239346526" lon="5.297417223860603"><ele>247.0</ele><time>2026-05-02T14:24:59.999Z</time></trkpt><trkpt lat="45.02563020560352" lon="5.297543121961742"><ele>246.0</ele><time>2026-05-02T14:25:00.999Z</time></trkpt><trkpt lat="45.02580099007746" lon="5.2976570612024325"><ele>245.66666666666669</ele><time>2026-05-02T14:25:01.999Z</time></trkpt><trkpt lat="45.02596184785322" lon="5.297763635931119"><ele>245.33333333333334</ele><time>2026-05-02T14:25:02.999Z</time></trkpt><trkpt lat="45.02613394338406" lon="5.297877562845427"><ele>245.0</ele><time>2026-05-02T14:25:03.999Z</time></trkpt><trkpt lat="45.026300804529214" lon="5.2980004964786955"><ele>245.66666666666669</ele><time>2026-05-02T14:25:04.999Z</time></trkpt><trkpt lat="45.026471128252034" lon="5.298143483729444"><ele>246.33333333333331</ele><time>2026-05-02T14:25:05.999Z</time></trkpt><trkpt lat="45.02664779192362" lon="5.2982516152680255"><ele>247.0</ele><time>2026-05-02T14:25:06.999Z</time></trkpt><trkpt lat="45.026816133466035" lon="5.29837652028918"><ele>247.0</ele><time>2026-05-02T14:25:07.999Z</time></trkpt><trkpt lat="45.0269920263225" lon="5.298500312363005"><ele>247.0</ele><time>2026-05-02T14:25:08.999Z</time></trkpt><trkpt lat="45.02716771916226" lon="5.298623682709803"><ele>247.0</ele><time>2026-05-02T14:25:09.999Z</time></trkpt><trkpt lat="45.027342941256585" lon="5.298748890092125"><ele>247.0</ele><time>2026-05-02T14:25:10.999Z</time></trkpt><trkpt lat="45.02751930743396" lon="5.298872123394143"><ele>247.0</ele><time>2026-05-02T14:25:11.999Z</time></trkpt><trkpt lat="45.02769616642859" lon="5.299002629830522"><ele>247.0</ele><time>2026-05-02T14:25:12.999Z</time></trkpt><trkpt lat="45.02786796483539" lon="5.299147158997328"><ele>247.0</ele><time>2026-05-02T14:25:13.999Z</time></trkpt><trkpt lat="45.02805143879485" lon="5.299253984789674"><ele>247.0</ele><time>2026-05-02T14:25:14.999Z</time></trkpt><trkpt lat="45.02822079831144" lon="5.299399493078057"><ele>247.0</ele><time>2026-05-02T14:25:15.999Z</time></trkpt><trkpt lat="45.02839360383122" lon="5.299525224737387"><ele>247.66666666666666</ele><time>2026-05-02T14:25:16.999Z</time></trkpt><trkpt lat="45.028576512391595" lon="5.299638198901267"><ele>248.33333333333331</ele><time>2026-05-02T14:25:17.999Z</time></trkpt><trkpt lat="45.02875010865631" lon="5.299764620055851"><ele>249.0</ele><time>2026-05-02T14:25:18.999Z</time></trkpt><trkpt lat="45.028922389106356" lon="5.299893854541296"><ele>249.0</ele><time>2026-05-02T14:25:19.999Z</time></trkpt><trkpt lat="45.02909496024731" lon="5.300019476723351"><ele>249.0</ele><time>2026-05-02T14:25:20.999Z</time></trkpt><trkpt lat="45.02926601556947" lon="5.300152846611327"><ele>249.0</ele><time>2026-05-02T14:25:21.999Z</time></trkpt><trkpt lat="45.029432529909194" lon="5.3002951785942685"><ele>248.0</ele><time>2026-05-02T14:25:22.999Z</time></trkpt><trkpt lat="45.029593866312084" lon="5.300448031784575"><ele>247.0</ele><time>2026-05-02T14:25:23.999Z</time></trkpt><trkpt lat="45.029755931307875" lon="5.300590328497666"><ele>246.0</ele><time>2026-05-02T14:25:24.999Z</time></trkpt><trkpt lat="45.02991834058856" lon="5.300728364264401"><ele>246.33333333333331</ele><time>2026-05-02T14:25:25.999Z</time></trkpt><trkpt lat="45.03008487768129" lon="5.300867851994514"><ele>246.66666666666666</ele><time>2026-05-02T14:25:26.999Z</time></trkpt><trkpt lat="45.03024811154543" lon="5.301005020526785"><ele>247.0</ele><time>2026-05-02T14:25:27.999Z</time></trkpt><trkpt lat="45.03040955514084" lon="5.301147953289725"><ele>247.0</ele><time>2026-05-02T14:25:28.999Z</time></trkpt><trkpt lat="45.03056968353521" lon="5.301295329290702"><ele>247.0</ele><time>2026-05-02T14:25:29.999Z</time></trkpt><trkpt lat="45.03070291474937" lon="5.301461279626337"><ele>247.0</ele><time>2026-05-02T14:25:30.999Z</time></trkpt><trkpt lat="45.03077525520261" lon="5.30167641604254"><ele>247.66666666666666</ele><time>2026-05-02T14:25:31.999Z</time></trkpt><trkpt lat="45.03081206949507" lon="5.301893978760571"><ele>248.33333333333331</ele><time>2026-05-02T14:25:32.999Z</time></trkpt><trkpt lat="45.03079227716494" lon="5.3021206456980945"><ele>249.0</ele><time>2026-05-02T14:25:33.999Z</time></trkpt><trkpt lat="45.03076427026324" lon="5.30237629318441"><ele>250.66666666666669</ele><time>2026-05-02T14:25:34.999Z</time></trkpt><trkpt lat="45.030735949836725" lon="5.302627861069997"><ele>252.33333333333334</ele><time>2026-05-02T14:25:35.999Z</time></trkpt><trkpt lat="45.030706645689534" lon="5.302882212083443"><ele>254.0</ele><time>2026-05-02T14:25:36.999Z</time></trkpt><trkpt lat="45.03068680768214" lon="5.303133211313446"><ele>254.0</ele><time>2026-05-02T14:25:37.999Z</time></trkpt><trkpt lat="45.03066231771918" lon="5.303364642790081"><ele>254.0</ele><time>2026-05-02T14:25:38.999Z</time></trkpt><trkpt lat="45.03064401408244" lon="5.303582041360633"><ele>254.0</ele><time>2026-05-02T14:25:39.999Z</time></trkpt><trkpt lat="45.030621023891015" lon="5.3038010381401826"><ele>252.66666666666669</ele><time>2026-05-02T14:25:40.999Z</time></trkpt><trkpt lat="45.03059295005397" lon="5.304030330585025"><ele>251.33333333333331</ele><time>2026-05-02T14:25:41.999Z</time></trkpt><trkpt lat="45.03056439491039" lon="5.304258231595249"><ele>250.0</ele><time>2026-05-02T14:25:42.999Z</time></trkpt><trkpt lat="45.03054495767586" lon="5.3044622865259585"><ele>250.0</ele><time>2026-05-02T14:25:43.999Z</time></trkpt><trkpt lat="45.03052262336103" lon="5.3046532696355895"><ele>250.0</ele><time>2026-05-02T14:25:44.999Z</time></trkpt><trkpt lat="45.03049815695237" lon="5.304864298395723"><ele>250.0</ele><time>2026-05-02T14:25:45.999Z</time></trkpt><trkpt lat="45.0304685115322" lon="5.305106731292328"><ele>250.33333333333331</ele><time>2026-05-02T14:25:46.999Z</time></trkpt><trkpt lat="45.03043865056953" lon="5.3053515035965875"><ele>250.66666666666669</ele><time>2026-05-02T14:25:47.999Z</time></trkpt><trkpt lat="45.03041352654514" lon="5.305588484132714"><ele>251.0</ele><time>2026-05-02T14:25:48.999Z</time></trkpt><trkpt lat="45.03039112872397" lon="5.305824091355849"><ele>251.33333333333334</ele><time>2026-05-02T14:25:49.999Z</time></trkpt><trkpt lat="45.030327582735204" lon="5.30606128283143"><ele>251.66666666666669</ele><time>2026-05-02T14:25:50.999Z</time></trkpt><trkpt lat="45.03023529329124" lon="5.3062836288980515"><ele>252.0</ele><time>2026-05-02T14:25:51.999Z</time></trkpt><trkpt lat="45.03010155052344" lon="5.306491943331002"><ele>251.66666666666669</ele><time>2026-05-02T14:25:52.999Z</time></trkpt><trkpt lat="45.029943074518386" lon="5.3067011762324645"><ele>251.33333333333334</ele><time>2026-05-02T14:25:53.999Z</time></trkpt><trkpt lat="45.02980024442317" lon="5.306920318729866"><ele>251.0</ele><time>2026-05-02T14:25:54.999Z</time></trkpt><trkpt lat="45.02965072226168" lon="5.307124074964345"><ele>250.0</ele><time>2026-05-02T14:25:55.999Z</time></trkpt><trkpt lat="45.02949549389552" lon="5.307330058499892"><ele>249.0</ele><time>2026-05-02T14:25:56.999Z</time></trkpt><trkpt lat="45.02935030074081" lon="5.307559052030807"><ele>248.0</ele><time>2026-05-02T14:25:57.999Z</time></trkpt><trkpt lat="45.029212587905704" lon="5.307800355914109"><ele>250.5</ele><time>2026-05-02T14:25:58.999Z</time></trkpt><trkpt lat="45.02909062708557" lon="5.308067360030879"><ele>253.0</ele><time>2026-05-02T14:25:59.998Z</time></trkpt><trkpt lat="45.02896988836785" lon="5.308337559077793"><ele>253.0</ele><time>2026-05-02T14:26:00.998Z</time></trkpt><trkpt lat="45.02885080187973" lon="5.30859127875028"><ele>253.0</ele><time>2026-05-02T14:26:01.998Z</time></trkpt><trkpt lat="45.028748578260064" lon="5.308841245013851"><ele>253.0</ele><time>2026-05-02T14:26:02.998Z</time></trkpt><trkpt lat="45.02865888673363" lon="5.309074067461057"><ele>250.0</ele><time>2026-05-02T14:26:03.998Z</time></trkpt><trkpt lat="45.02860931081204" lon="5.309284501482236"><ele>247.0</ele><time>2026-05-02T14:26:04.998Z</time></trkpt><trkpt lat="45.02860394700604" lon="5.309531233991794"><ele>244.0</ele><time>2026-05-02T14:26:05.998Z</time></trkpt><trkpt lat="45.028657237079535" lon="5.309772757710115"><ele>241.0</ele><time>2026-05-02T14:26:06.998Z</time></trkpt><trkpt lat="45.02876015416376" lon="5.310014205374718"><ele>238.0</ele><time>2026-05-02T14:26:07.998Z</time></trkpt><trkpt lat="45.028865005121574" lon="5.310233403213311"><ele>235.0</ele><time>2026-05-02T14:26:08.998Z</time></trkpt><trkpt lat="45.028935600853956" lon="5.310438144240148"><ele>233.0</ele><time>2026-05-02T14:26:09.998Z</time></trkpt><trkpt lat="45.02900681300636" lon="5.310634268640485"><ele>231.0</ele><time>2026-05-02T14:26:10.998Z</time></trkpt><trkpt lat="45.02909444535753" lon="5.310768869233699"><ele>229.0</ele><time>2026-05-02T14:26:11.998Z</time></trkpt><trkpt lat="45.029185617475626" lon="5.310827062981491"><ele>227.0</ele><time>2026-05-02T14:26:12.998Z</time></trkpt><trkpt lat="45.02929872211137" lon="5.310812189591276"><ele>227.0</ele><time>2026-05-02T14:26:13.998Z</time></trkpt><trkpt lat="45.02942904154503" lon="5.310669048522736"><ele>227.0</ele><time>2026-05-02T14:26:14.998Z</time></trkpt><trkpt lat="45.02955255093898" lon="5.310510032885361"><ele>227.0</ele><time>2026-05-02T14:26:15.998Z</time></trkpt><trkpt lat="45.02971004181805" lon="5.310360929491784"><ele>226.66666666666669</ele><time>2026-05-02T14:26:16.998Z</time></trkpt><trkpt lat="45.02988768300035" lon="5.310239553976923"><ele>226.33333333333331</ele><time>2026-05-02T14:26:17.998Z</time></trkpt><trkpt lat="45.030094104855706" lon="5.310165299350089"><ele>226.0</ele><time>2026-05-02T14:26:18.998Z</time></trkpt><trkpt lat="45.030330838641454" lon="5.3100920306118375"><ele>226.0</ele><time>2026-05-02T14:26:19.998Z</time></trkpt><trkpt lat="45.03057846083082" lon="5.3099920060370085"><ele>226.0</ele><time>2026-05-02T14:26:20.998Z</time></trkpt><trkpt lat="45.030806607807804" lon="5.30991912811498"><ele>229.33333333333331</ele><time>2026-05-02T14:26:21.998Z</time></trkpt><trkpt lat="45.03101792932452" lon="5.309856660098452"><ele>232.66666666666669</ele><time>2026-05-02T14:26:23Z</time></trkpt><trkpt lat="45.03118731838078" lon="5.309791608750409"><ele>236.0</ele><time>2026-05-02T14:26:24Z</time></trkpt><trkpt lat="45.031346079523516" lon="5.309771884853517"><ele>236.0</ele><time>2026-05-02T14:26:25Z</time></trkpt><trkpt lat="45.03147944399413" lon="5.309816714685661"><ele>236.0</ele><time>2026-05-02T14:26:26Z</time></trkpt><trkpt lat="45.031599901351214" lon="5.3098509407633285"><ele>236.0</ele><time>2026-05-02T14:26:27Z</time></trkpt><trkpt lat="45.03170149439075" lon="5.309893836093558"><ele>236.0</ele><time>2026-05-02T14:26:28Z</time></trkpt><trkpt lat="45.03179400525879" lon="5.3099296859578695"><ele>236.4</ele><time>2026-05-02T14:26:29Z</time></trkpt><trkpt lat="45.03187254435125" lon="5.309964378022176"><ele>236.8</ele><time>2026-05-02T14:26:30Z</time></trkpt><trkpt lat="45.03193669115815" lon="5.3099989308565805"><ele>237.20000000000002</ele><time>2026-05-02T14:26:31Z</time></trkpt><trkpt lat="45.03203760263429" lon="5.310048396359669"><ele>237.60000000000002</ele><time>2026-05-02T14:26:33Z</time></trkpt><trkpt lat="45.03212219318105" lon="5.310083300859568"><ele>238.0</ele><time>2026-05-02T14:26:35Z</time></trkpt><trkpt lat="45.03224068454685" lon="5.310142237346919"><ele>237.99999999999997</ele><time>2026-05-02T14:26:37Z</time></trkpt><trkpt lat="45.03231234353565" lon="5.310199395676312"><ele>238.0</ele><time>2026-05-02T14:26:38Z</time></trkpt><trkpt lat="45.03236709401094" lon="5.310256273306767"><ele>238.0</ele><time>2026-05-02T14:26:39Z</time></trkpt><trkpt lat="45.032413454288175" lon="5.310337229732831"><ele>238.0</ele><time>2026-05-02T14:26:40Z</time></trkpt><trkpt lat="45.03247058856796" lon="5.310451326806661"><ele>237.99999999999997</ele><time>2026-05-02T14:26:41Z</time></trkpt><trkpt lat="45.032550010835685" lon="5.310526172033132"><ele>238.0</ele><time>2026-05-02T14:26:42Z</time></trkpt><trkpt lat="45.032633382758426" lon="5.310547323926631"><ele>238.66666666666666</ele><time>2026-05-02T14:26:43Z</time></trkpt><trkpt lat="45.03269740846547" lon="5.310470101900101"><ele>239.33333333333331</ele><time>2026-05-02T14:26:44Z</time></trkpt><trkpt lat="45.0326916811906" lon="5.310333227610461"><ele>240.0</ele><time>2026-05-02T14:26:45Z</time></trkpt><trkpt lat="45.03266804854926" lon="5.3102231078193505"><ele>240.66666666666669</ele><time>2026-05-02T14:26:46Z</time></trkpt><trkpt lat="45.032628817600845" lon="5.310137821852752"><ele>241.33333333333334</ele><time>2026-05-02T14:26:47Z</time></trkpt><trkpt lat="45.032567769091266" lon="5.310007901736737"><ele>242.0</ele><time>2026-05-02T14:26:49Z</time></trkpt><trkpt lat="45.03253691092308" lon="5.309907037542506"><ele>242.0</ele><time>2026-05-02T14:26:51Z</time></trkpt><trkpt lat="45.032523334510465" lon="5.309816011707006"><ele>242.0</ele><time>2026-05-02T14:26:53Z</time></trkpt><trkpt lat="45.032550555395915" lon="5.309729975782218"><ele>242.0</ele><time>2026-05-02T14:26:55Z</time></trkpt><trkpt lat="45.032433987003074" lon="5.309890247029093"><ele>242.0</ele><time>2026-05-02T14:26:56Z</time></trkpt><trkpt lat="45.03257166771814" lon="5.309779957225764"><ele>242.0</ele><time>2026-05-02T14:26:59.999Z</time></trkpt><trkpt lat="45.03251245212436" lon="5.309951410390065"><ele>242.0</ele><time>2026-05-02T14:27:00.999Z</time></trkpt><trkpt lat="45.03251551590394" lon="5.310058312682742"><ele>242.0</ele><time>2026-05-02T14:33:08Z</time></trkpt><trkpt lat="45.0325024315612" lon="5.310166780729832"><ele>242.0</ele><time>2026-05-02T14:33:12Z</time></trkpt><trkpt lat="45.032464134515635" lon="5.310253292864743"><ele>242.0</ele><time>2026-05-02T14:33:14Z</time></trkpt><trkpt lat="45.03248427850998" lon="5.310438601100044"><ele>242.0</ele><time>2026-05-02T14:33:16Z</time></trkpt><trkpt lat="45.03252792403888" lon="5.310511752748004"><ele>242.0</ele><time>2026-05-02T14:33:17Z</time></trkpt><trkpt lat="45.032588929105124" lon="5.310581706124914"><ele>242.0</ele><time>2026-05-02T14:33:18Z</time></trkpt><trkpt lat="45.03265824948194" lon="5.310682370517364"><ele>242.0</ele><time>2026-05-02T14:33:19Z</time></trkpt><trkpt lat="45.03271096938105" lon="5.310823962854166"><ele>242.0</ele><time>2026-05-02T14:33:20Z</time></trkpt><trkpt lat="45.032754909315756" lon="5.310988924408242"><ele>243.66666666666669</ele><time>2026-05-02T14:33:21Z</time></trkpt><trkpt lat="45.03277593543093" lon="5.31120096264565"><ele>245.33333333333331</ele><time>2026-05-02T14:33:22Z</time></trkpt><trkpt lat="45.032745173839885" lon="5.311395886368016"><ele>247.0</ele><time>2026-05-02T14:33:23Z</time></trkpt><trkpt lat="45.03270691652242" lon="5.311615410779659"><ele>248.66666666666666</ele><time>2026-05-02T14:33:24Z</time></trkpt><trkpt lat="45.032657311018944" lon="5.311836228943877"><ele>250.33333333333331</ele><time>2026-05-02T14:33:25Z</time></trkpt><trkpt lat="45.03260565504913" lon="5.312063090120589"><ele>252.0</ele><time>2026-05-02T14:33:26Z</time></trkpt><trkpt lat="45.03255289896733" lon="5.312294782722006"><ele>252.0</ele><time>2026-05-02T14:33:27Z</time></trkpt><trkpt lat="45.03249867810212" lon="5.312532908325466"><ele>252.0</ele><time>2026-05-02T14:33:28Z</time></trkpt><trkpt lat="45.03244237218413" lon="5.312780191055091"><ele>252.0</ele><time>2026-05-02T14:33:29Z</time></trkpt><trkpt lat="45.03238632964495" lon="5.313026317017301"><ele>253.33333333333331</ele><time>2026-05-02T14:33:30Z</time></trkpt><trkpt lat="45.03233640208393" lon="5.313248880282923"><ele>254.66666666666666</ele><time>2026-05-02T14:33:31Z</time></trkpt><trkpt lat="45.032287466760714" lon="5.313470760937041"><ele>256.0</ele><time>2026-05-02T14:33:32Z</time></trkpt><trkpt lat="45.0322379426897" lon="5.313693887321089"><ele>256.0</ele><time>2026-05-02T14:33:33Z</time></trkpt><trkpt lat="45.032190950724484" lon="5.313899428868719"><ele>256.0</ele><time>2026-05-02T14:33:33.999Z</time></trkpt><trkpt lat="45.032125678778534" lon="5.314184926490879"><ele>256.0</ele><time>2026-05-02T14:33:34.999Z</time></trkpt><trkpt lat="45.03207704975999" lon="5.3144031122334345"><ele>257.0</ele><time>2026-05-02T14:33:35.999Z</time></trkpt><trkpt lat="45.03202977814469" lon="5.314615296868126"><ele>258.0</ele><time>2026-05-02T14:33:36.999Z</time></trkpt><trkpt lat="45.03198262604813" lon="5.314820630231989"><ele>259.0</ele><time>2026-05-02T14:33:37.999Z</time></trkpt><trkpt lat="45.03193283711259" lon="5.315001578624948"><ele>260.0</ele><time>2026-05-02T14:33:38.999Z</time></trkpt><trkpt lat="45.03187165574978" lon="5.315166546390973"><ele>261.2</ele><time>2026-05-02T14:33:39.999Z</time></trkpt><trkpt lat="45.0318080523668" lon="5.315322967667308"><ele>262.4</ele><time>2026-05-02T14:33:40.999Z</time></trkpt><trkpt lat="45.03175159088249" lon="5.315465848483037"><ele>263.6</ele><time>2026-05-02T14:33:41.999Z</time></trkpt><trkpt lat="45.03172105374526" lon="5.3155958134119565"><ele>264.8</ele><time>2026-05-02T14:33:42.999Z</time></trkpt><trkpt lat="45.031694567017865" lon="5.315722852230713"><ele>266.0</ele><time>2026-05-02T14:33:43.999Z</time></trkpt><trkpt lat="45.03169053930353" lon="5.315860937318697"><ele>267.75</ele><time>2026-05-02T14:33:44.999Z</time></trkpt><trkpt lat="45.03172517716092" lon="5.316001521272803"><ele>269.5</ele><time>2026-05-02T14:33:45.999Z</time></trkpt><trkpt lat="45.031804354291516" lon="5.316122492795722"><ele>271.25</ele><time>2026-05-02T14:33:46.999Z</time></trkpt><trkpt lat="45.031910581565214" lon="5.316224559597549"><ele>273.0</ele><time>2026-05-02T14:33:47.999Z</time></trkpt><trkpt lat="45.03202000618495" lon="5.3163083077363416"><ele>273.0</ele><time>2026-05-02T14:33:48.999Z</time></trkpt><trkpt lat="45.03211756093783" lon="5.316384706118892"><ele>273.0</ele><time>2026-05-02T14:33:49.999Z</time></trkpt><trkpt lat="45.03218885067825" lon="5.316462661192285"><ele>273.0</ele><time>2026-05-02T14:33:50.999Z</time></trkpt><trkpt lat="45.032225805825334" lon="5.316568738793529"><ele>273.0</ele><time>2026-05-02T14:33:51.999Z</time></trkpt><trkpt lat="45.032219084512036" lon="5.3167159423540165"><ele>273.0</ele><time>2026-05-02T14:33:52.999Z</time></trkpt><trkpt lat="45.0321843549139" lon="5.316869408929511"><ele>274.25</ele><time>2026-05-02T14:33:53.999Z</time></trkpt><trkpt lat="45.032074404830745" lon="5.316944388974357"><ele>275.5</ele><time>2026-05-02T14:33:54.999Z</time></trkpt><trkpt lat="45.031950750798565" lon="5.316989529185336"><ele>276.75</ele><time>2026-05-02T14:33:55.999Z</time></trkpt><trkpt lat="45.031820442361074" lon="5.317031164734988"><ele>278.0</ele><time>2026-05-02T14:33:56.999Z</time></trkpt><trkpt lat="45.031694797343846" lon="5.317069975999791"><ele>276.25</ele><time>2026-05-02T14:33:57.999Z</time></trkpt><trkpt lat="45.03157189323646" lon="5.317110640758065"><ele>274.5</ele><time>2026-05-02T14:33:58.999Z</time></trkpt><trkpt lat="45.031455970776854" lon="5.3171508974169575"><ele>272.75</ele><time>2026-05-02T14:33:59.999Z</time></trkpt><trkpt lat="45.031338601275316" lon="5.31719403005117"><ele>271.0</ele><time>2026-05-02T14:34:00.999Z</time></trkpt><trkpt lat="45.03122092639753" lon="5.317246649171398"><ele>275.66666666666663</ele><time>2026-05-02T14:34:01.999Z</time></trkpt><trkpt lat="45.03111245501502" lon="5.317348078936085"><ele>280.3333333333333</ele><time>2026-05-02T14:34:02.999Z</time></trkpt><trkpt lat="45.03099646140306" lon="5.317496708092528"><ele>285.0</ele><time>2026-05-02T14:34:03.999Z</time></trkpt><trkpt lat="45.03084370199071" lon="5.317694692641398"><ele>283.5</ele><time>2026-05-02T14:34:04.999Z</time></trkpt><trkpt lat="45.030669828387275" lon="5.317948254260858"><ele>282.0</ele><time>2026-05-02T14:34:05.999Z</time></trkpt><trkpt lat="45.03048736459539" lon="5.31822163860258"><ele>282.0</ele><time>2026-05-02T14:34:06.999Z</time></trkpt><trkpt lat="45.030284215359245" lon="5.31851264631712"><ele>282.0</ele><time>2026-05-02T14:34:07.999Z</time></trkpt><trkpt lat="45.03008907806838" lon="5.318760672948184"><ele>282.0</ele><time>2026-05-02T14:34:08.999Z</time></trkpt><trkpt lat="45.029919833210954" lon="5.318972693387289"><ele>282.0</ele><time>2026-05-02T14:34:09.999Z</time></trkpt><trkpt lat="45.02975950598705" lon="5.31917059998703"><ele>282.0</ele><time>2026-05-02T14:34:10.999Z</time></trkpt><trkpt lat="45.029602987328715" lon="5.319363805362102"><ele>282.0</ele><time>2026-05-02T14:34:11.999Z</time></trkpt><trkpt lat="45.02944032731355" lon="5.319564591549723"><ele>282.0</ele><time>2026-05-02T14:34:12.999Z</time></trkpt><trkpt lat="45.02926994060585" lon="5.3197749155210134"><ele>282.0</ele><time>2026-05-02T14:34:13.999Z</time></trkpt><trkpt lat="45.029103212941465" lon="5.319977265610003"><ele>284.6666666666667</ele><time>2026-05-02T14:34:14.999Z</time></trkpt><trkpt lat="45.028934428607606" lon="5.320178513432614"><ele>287.33333333333337</ele><time>2026-05-02T14:34:15.999Z</time></trkpt><trkpt lat="45.02876823716974" lon="5.320372977776416"><ele>290.0</ele><time>2026-05-02T14:34:16.999Z</time></trkpt><trkpt lat="45.02861127336498" lon="5.320545695597412"><ele>291.6666666666667</ele><time>2026-05-02T14:34:17.999Z</time></trkpt><trkpt lat="45.028479099689235" lon="5.320713296289521"><ele>293.3333333333333</ele><time>2026-05-02T14:34:18.999Z</time></trkpt><trkpt lat="45.02835207021542" lon="5.3208427793189825"><ele>295.0</ele><time>2026-05-02T14:34:19.999Z</time></trkpt><trkpt lat="45.02823738303774" lon="5.320990399373986"><ele>295.0</ele><time>2026-05-02T14:34:20.999Z</time></trkpt><trkpt lat="45.028147057378426" lon="5.321161212512661"><ele>295.0</ele><time>2026-05-02T14:34:21.999Z</time></trkpt><trkpt lat="45.02807497650095" lon="5.321341019449236"><ele>295.0</ele><time>2026-05-02T14:34:22.999Z</time></trkpt><trkpt lat="45.02802819311621" lon="5.321518087453458"><ele>295.0</ele><time>2026-05-02T14:34:23.999Z</time></trkpt><trkpt lat="45.02800807852264" lon="5.321674752462041"><ele>297.6</ele><time>2026-05-02T14:34:24.999Z</time></trkpt><trkpt lat="45.02797683821212" lon="5.321823150627408"><ele>300.2</ele><time>2026-05-02T14:34:25.999Z</time></trkpt><trkpt lat="45.02790841033852" lon="5.321940979129502"><ele>302.8</ele><time>2026-05-02T14:34:26.999Z</time></trkpt><trkpt lat="45.02786580702282" lon="5.322048445548077"><ele>305.4</ele><time>2026-05-02T14:34:27.999Z</time></trkpt><trkpt lat="45.027888950319124" lon="5.322195933093416"><ele>308.0</ele><time>2026-05-02T14:34:28.999Z</time></trkpt><trkpt lat="45.027923912348044" lon="5.322367161647948"><ele>309.0</ele><time>2026-05-02T14:34:29.999Z</time></trkpt><trkpt lat="45.02792420914303" lon="5.322567600059879"><ele>310.0</ele><time>2026-05-02T14:34:30.999Z</time></trkpt><trkpt lat="45.02785526789194" lon="5.322775653929797"><ele>311.0</ele><time>2026-05-02T14:34:31.999Z</time></trkpt><trkpt lat="45.02783195279688" lon="5.322975030939218"><ele>312.0</ele><time>2026-05-02T14:34:32.999Z</time></trkpt><trkpt lat="45.027809406161666" lon="5.323167836557097"><ele>312.0</ele><time>2026-05-02T14:34:33.999Z</time></trkpt><trkpt lat="45.02778694297504" lon="5.32335992858138"><ele>312.0</ele><time>2026-05-02T14:34:34.999Z</time></trkpt><trkpt lat="45.0277666958306" lon="5.323556287049198"><ele>312.0</ele><time>2026-05-02T14:34:35.999Z</time></trkpt><trkpt lat="45.02774744225373" lon="5.3237512461008905"><ele>312.0</ele><time>2026-05-02T14:34:36.999Z</time></trkpt><trkpt lat="45.02773156990423" lon="5.323935681556802"><ele>312.25</ele><time>2026-05-02T14:34:37.999Z</time></trkpt><trkpt lat="45.02773554526202" lon="5.324126716561268"><ele>312.5</ele><time>2026-05-02T14:34:38.999Z</time></trkpt><trkpt lat="45.02772755181572" lon="5.324315198770602"><ele>312.75</ele><time>2026-05-02T14:34:39.999Z</time></trkpt><trkpt lat="45.02773297265301" lon="5.324490987378312"><ele>313.0</ele><time>2026-05-02T14:34:40.999Z</time></trkpt><trkpt lat="45.027758683281924" lon="5.324672486131406"><ele>313.25</ele><time>2026-05-02T14:34:41.999Z</time></trkpt><trkpt lat="45.02779410748073" lon="5.324867258072361"><ele>313.5</ele><time>2026-05-02T14:34:42.999Z</time></trkpt><trkpt lat="45.0278423445026" lon="5.3250379763835465"><ele>313.75</ele><time>2026-05-02T14:34:43.999Z</time></trkpt><trkpt lat="45.027881988920605" lon="5.325220274110658"><ele>314.0</ele><time>2026-05-02T14:34:44.999Z</time></trkpt><trkpt lat="45.02793003253947" lon="5.325395131855219"><ele>314.0</ele><time>2026-05-02T14:34:45.999Z</time></trkpt><trkpt lat="45.02797465368312" lon="5.325556455411511"><ele>314.0</ele><time>2026-05-02T14:34:47Z</time></trkpt><trkpt lat="45.02801582796407" lon="5.325696459714607"><ele>314.0</ele><time>2026-05-02T14:34:48Z</time></trkpt><trkpt lat="45.028062389941326" lon="5.325810379264119"><ele>314.0</ele><time>2026-05-02T14:34:49Z</time></trkpt><trkpt lat="45.028078505167414" lon="5.325914180970424"><ele>314.0</ele><time>2026-05-02T14:34:50Z</time></trkpt><trkpt lat="45.02806487885718" lon="5.326005914836909"><ele>314.1666666666667</ele><time>2026-05-02T14:34:51Z</time></trkpt><trkpt lat="45.028009318132035" lon="5.326078500952182"><ele>314.33333333333337</ele><time>2026-05-02T14:34:52Z</time></trkpt><trkpt lat="45.02798428188822" lon="5.3261624539942245"><ele>314.5</ele><time>2026-05-02T14:34:53Z</time></trkpt><trkpt lat="45.02797069627689" lon="5.326254565225064"><ele>314.6666666666667</ele><time>2026-05-02T14:34:54Z</time></trkpt><trkpt lat="45.027999570553014" lon="5.326372699070766"><ele>314.8333333333333</ele><time>2026-05-02T14:34:55Z</time></trkpt><trkpt lat="45.028100198450694" lon="5.326440571749583"><ele>315.0</ele><time>2026-05-02T14:34:56Z</time></trkpt><trkpt lat="45.02816494069209" lon="5.326518414315965"><ele>315.4</ele><time>2026-05-02T14:34:57Z</time></trkpt><trkpt lat="45.0282034975105" lon="5.326642137680393"><ele>315.8</ele><time>2026-05-02T14:34:58Z</time></trkpt><trkpt lat="45.0282785445675" lon="5.326747530889202"><ele>316.2</ele><time>2026-05-02T14:34:59Z</time></trkpt><trkpt lat="45.02837281643808" lon="5.326831989056197"><ele>316.6</ele><time>2026-05-02T14:35:00Z</time></trkpt><trkpt lat="45.02846015059963" lon="5.326952915196961"><ele>317.0</ele><time>2026-05-02T14:35:01Z</time></trkpt><trkpt lat="45.02855230320612" lon="5.327053178800382"><ele>316.0</ele><time>2026-05-02T14:35:02Z</time></trkpt><trkpt lat="45.02864201111268" lon="5.32715287749054"><ele>315.0</ele><time>2026-05-02T14:35:03Z</time></trkpt><trkpt lat="45.02873126458498" lon="5.327255413867568"><ele>314.0</ele><time>2026-05-02T14:35:04Z</time></trkpt><trkpt lat="45.02882083183627" lon="5.327355597795003"><ele>313.0</ele><time>2026-05-02T14:35:05Z</time></trkpt><trkpt lat="45.02892114443265" lon="5.32743655421606"><ele>313.0</ele><time>2026-05-02T14:35:06Z</time></trkpt><trkpt lat="45.029003353074025" lon="5.327551180214766"><ele>313.0</ele><time>2026-05-02T14:35:07Z</time></trkpt><trkpt lat="45.029082067816354" lon="5.3276776012893645"><ele>313.0</ele><time>2026-05-02T14:35:08Z</time></trkpt><trkpt lat="45.02915260559581" lon="5.327814274849686"><ele>313.0</ele><time>2026-05-02T14:35:09Z</time></trkpt><trkpt lat="45.02921267847329" lon="5.32796285822782"><ele>312.5</ele><time>2026-05-02T14:35:10Z</time></trkpt><trkpt lat="45.0292782355976" lon="5.328095170378312"><ele>312.0</ele><time>2026-05-02T14:35:11Z</time></trkpt><trkpt lat="45.02935905902213" lon="5.3282254655994095"><ele>311.5</ele><time>2026-05-02T14:35:12Z</time></trkpt><trkpt lat="45.02943417913771" lon="5.328376907825112"><ele>311.0</ele><time>2026-05-02T14:35:13Z</time></trkpt><trkpt lat="45.029508165038905" lon="5.328530869572939"><ele>311.0</ele><time>2026-05-02T14:35:14Z</time></trkpt><trkpt lat="45.02959429054652" lon="5.328686110483863"><ele>311.0</ele><time>2026-05-02T14:35:15Z</time></trkpt><trkpt lat="45.029668168150884" lon="5.32884660131531"><ele>311.0</ele><time>2026-05-02T14:35:16Z</time></trkpt><trkpt lat="45.02975231484223" lon="5.329005841031436"><ele>311.0</ele><time>2026-05-02T14:35:17Z</time></trkpt><trkpt lat="45.02983646293811" lon="5.329171215822339"><ele>311.25</ele><time>2026-05-02T14:35:18Z</time></trkpt><trkpt lat="45.029924687427844" lon="5.3293379417548"><ele>311.5</ele><time>2026-05-02T14:35:19Z</time></trkpt><trkpt lat="45.0299972061196" lon="5.329523358327404"><ele>311.75</ele><time>2026-05-02T14:35:20Z</time></trkpt><trkpt lat="45.030092180880885" lon="5.329686389149377"><ele>312.0</ele><time>2026-05-02T14:35:21Z</time></trkpt><trkpt lat="45.03017198465009" lon="5.329869697801056"><ele>310.6666666666667</ele><time>2026-05-02T14:35:22Z</time></trkpt><trkpt lat="45.03025196484168" lon="5.330054964852365"><ele>309.33333333333337</ele><time>2026-05-02T14:35:23Z</time></trkpt><trkpt lat="45.03033316863613" lon="5.330246317111732"><ele>308.0</ele><time>2026-05-02T14:35:24Z</time></trkpt><trkpt lat="45.03040681425537" lon="5.330444172449114"><ele>308.33333333333337</ele><time>2026-05-02T14:35:25Z</time></trkpt><trkpt lat="45.0304781950685" lon="5.330644716384369"><ele>308.6666666666667</ele><time>2026-05-02T14:35:26Z</time></trkpt><trkpt lat="45.03055069163134" lon="5.330844733030206"><ele>309.0</ele><time>2026-05-02T14:35:27Z</time></trkpt><trkpt lat="45.03063354551073" lon="5.331043027812398"><ele>309.0</ele><time>2026-05-02T14:35:28Z</time></trkpt><trkpt lat="45.0307298322041" lon="5.331229498132785"><ele>309.0</ele><time>2026-05-02T14:35:29Z</time></trkpt><trkpt lat="45.03084834911489" lon="5.331392823082063"><ele>309.0</ele><time>2026-05-02T14:35:30Z</time></trkpt><trkpt lat="45.03098350267095" lon="5.33153472509288"><ele>308.6666666666667</ele><time>2026-05-02T14:35:31Z</time></trkpt><trkpt lat="45.03113094676304" lon="5.331657483334136"><ele>308.33333333333337</ele><time>2026-05-02T14:35:32Z</time></trkpt><trkpt lat="45.03128171656853" lon="5.331767022402406"><ele>308.0</ele><time>2026-05-02T14:35:33Z</time></trkpt><trkpt lat="45.03144263755197" lon="5.331859471651523"><ele>308.0</ele><time>2026-05-02T14:35:34Z</time></trkpt><trkpt lat="45.03160142995393" lon="5.3319310883131905"><ele>308.0</ele><time>2026-05-02T14:35:34.999Z</time></trkpt><trkpt lat="45.031765951824646" lon="5.331992680903637"><ele>308.0</ele><time>2026-05-02T14:35:35.999Z</time></trkpt><trkpt lat="45.0319312015323" lon="5.332052756593057"><ele>306.33333333333337</ele><time>2026-05-02T14:35:36.999Z</time></trkpt><trkpt lat="45.032094830924514" lon="5.33210709490731"><ele>304.6666666666667</ele><time>2026-05-02T14:35:37.999Z</time></trkpt><trkpt lat="45.0322627967062" lon="5.332147252780176"><ele>303.0</ele><time>2026-05-02T14:35:38.999Z</time></trkpt><trkpt lat="45.03243574536371" lon="5.332169082550598"><ele>301.6666666666667</ele><time>2026-05-02T14:35:39.999Z</time></trkpt><trkpt lat="45.032608969367296" lon="5.332167516432125"><ele>300.33333333333337</ele><time>2026-05-02T14:35:40.999Z</time></trkpt><trkpt lat="45.03278454802427" lon="5.3321615611207935"><ele>299.0</ele><time>2026-05-02T14:35:41.999Z</time></trkpt><trkpt lat="45.03296333184983" lon="5.332155679437938"><ele>299.0</ele><time>2026-05-02T14:35:42.999Z</time></trkpt><trkpt lat="45.033150586829315" lon="5.332161166584752"><ele>299.0</ele><time>2026-05-02T14:35:43.999Z</time></trkpt><trkpt lat="45.0333342443438" lon="5.332170474154617"><ele>299.0</ele><time>2026-05-02T14:35:44.999Z</time></trkpt><trkpt lat="45.03352737497343" lon="5.332181406418246"><ele>299.0</ele><time>2026-05-02T14:35:45.999Z</time></trkpt><trkpt lat="45.03373184391018" lon="5.332169402546934"><ele>299.0</ele><time>2026-05-02T14:35:46.999Z</time></trkpt><trkpt lat="45.03395336927181" lon="5.332129612911688"><ele>299.0</ele><time>2026-05-02T14:35:47.999Z</time></trkpt><trkpt lat="45.034191902288846" lon="5.332069897733408"><ele>298.5</ele><time>2026-05-02T14:35:48.999Z</time></trkpt><trkpt lat="45.03442940637682" lon="5.3320503268183765"><ele>298.0</ele><time>2026-05-02T14:35:49.999Z</time></trkpt><trkpt lat="45.034659110617696" lon="5.332103749440324"><ele>298.0</ele><time>2026-05-02T14:35:50.999Z</time></trkpt><trkpt lat="45.03489515926418" lon="5.332154862954079"><ele>298.0</ele><time>2026-05-02T14:35:51.999Z</time></trkpt><trkpt lat="45.035136549304305" lon="5.332190124622939"><ele>297.0</ele><time>2026-05-02T14:35:52.999Z</time></trkpt><trkpt lat="45.03537642419127" lon="5.33224006402545"><ele>296.0</ele><time>2026-05-02T14:35:53.999Z</time></trkpt><trkpt lat="45.03562006878989" lon="5.3322862644153215"><ele>295.5</ele><time>2026-05-02T14:35:54.999Z</time></trkpt><trkpt lat="45.03585692195606" lon="5.332354214486929"><ele>295.0</ele><time>2026-05-02T14:35:55.999Z</time></trkpt><trkpt lat="45.03608127686958" lon="5.3324742829237115"><ele>295.0</ele><time>2026-05-02T14:35:56.999Z</time></trkpt><trkpt lat="45.036292362935995" lon="5.332619614297423"><ele>295.0</ele><time>2026-05-02T14:35:57.999Z</time></trkpt><trkpt lat="45.036498694568344" lon="5.332804303119412"><ele>294.0</ele><time>2026-05-02T14:35:58.999Z</time></trkpt><trkpt lat="45.03670048289026" lon="5.3329962940944355"><ele>293.0</ele><time>2026-05-02T14:35:59.999Z</time></trkpt><trkpt lat="45.03691284282941" lon="5.333184378744494"><ele>292.5</ele><time>2026-05-02T14:36:00.999Z</time></trkpt><trkpt lat="45.03710571793076" lon="5.333379648890812"><ele>292.0</ele><time>2026-05-02T14:36:01.999Z</time></trkpt><trkpt lat="45.03729974499029" lon="5.333574293457242"><ele>292.0</ele><time>2026-05-02T14:36:02.999Z</time></trkpt><trkpt lat="45.037492290734725" lon="5.333781326177348"><ele>292.0</ele><time>2026-05-02T14:36:03.999Z</time></trkpt><trkpt lat="45.037680069123155" lon="5.334006472927225"><ele>291.0</ele><time>2026-05-02T14:36:04.999Z</time></trkpt><trkpt lat="45.03786191231587" lon="5.334232648733466"><ele>290.0</ele><time>2026-05-02T14:36:05.999Z</time></trkpt><trkpt lat="45.03804567097036" lon="5.334456623551729"><ele>290.0</ele><time>2026-05-02T14:36:06.999Z</time></trkpt><trkpt lat="45.03820260364967" lon="5.3347090250186895"><ele>290.0</ele><time>2026-05-02T14:36:07.999Z</time></trkpt><trkpt lat="45.038337218627326" lon="5.334978342967219"><ele>290.5</ele><time>2026-05-02T14:36:08.999Z</time></trkpt><trkpt lat="45.03844885296786" lon="5.335267913013649"><ele>291.0</ele><time>2026-05-02T14:36:09.999Z</time></trkpt><trkpt lat="45.03853335182748" lon="5.335573131584356"><ele>290.0</ele><time>2026-05-02T14:36:10.999Z</time></trkpt><trkpt lat="45.03863808487952" lon="5.3358625271149025"><ele>289.0</ele><time>2026-05-02T14:36:11.999Z</time></trkpt><trkpt lat="45.03876015442116" lon="5.336129731791005"><ele>289.0</ele><time>2026-05-02T14:36:12.999Z</time></trkpt><trkpt lat="45.03892755566953" lon="5.336348659340628"><ele>289.0</ele><time>2026-05-02T14:36:13.999Z</time></trkpt><trkpt lat="45.039117043355006" lon="5.336543991187325"><ele>289.0</ele><time>2026-05-02T14:36:14.999Z</time></trkpt><trkpt lat="45.039312364031765" lon="5.336730670864274"><ele>289.0</ele><time>2026-05-02T14:36:15.999Z</time></trkpt><trkpt lat="45.039520431882984" lon="5.3368882852248465"><ele>289.0</ele><time>2026-05-02T14:36:16.999Z</time></trkpt><trkpt lat="45.03974737780161" lon="5.337002916198717"><ele>289.0</ele><time>2026-05-02T14:36:17.999Z</time></trkpt><trkpt lat="45.03998806600527" lon="5.337078577045505"><ele>287.5</ele><time>2026-05-02T14:36:18.999Z</time></trkpt><trkpt lat="45.04023499920174" lon="5.337135841550704"><ele>286.0</ele><time>2026-05-02T14:36:19.999Z</time></trkpt><trkpt lat="45.04048036901629" lon="5.337194898499805"><ele>287.0</ele><time>2026-05-02T14:36:20.999Z</time></trkpt><trkpt lat="45.040724917010856" lon="5.337258132198554"><ele>288.0</ele><time>2026-05-02T14:36:21.999Z</time></trkpt><trkpt lat="45.04096734812417" lon="5.3373185430424686"><ele>289.0</ele><time>2026-05-02T14:36:22.999Z</time></trkpt><trkpt lat="45.04120880116426" lon="5.337376498284373"><ele>290.0</ele><time>2026-05-02T14:36:23.999Z</time></trkpt><trkpt lat="45.0414486205853" lon="5.3374440680543485"><ele>290.0</ele><time>2026-05-02T14:36:24.999Z</time></trkpt><trkpt lat="45.04168464657553" lon="5.337539428456593"><ele>290.0</ele><time>2026-05-02T14:36:25.999Z</time></trkpt><trkpt lat="45.041914485744826" lon="5.337655440267368"><ele>290.0</ele><time>2026-05-02T14:36:26.999Z</time></trkpt><trkpt lat="45.04214079397423" lon="5.337790050513561"><ele>290.0</ele><time>2026-05-02T14:36:27.999Z</time></trkpt><trkpt lat="45.0423615575845" lon="5.337938362817896"><ele>291.0</ele><time>2026-05-02T14:36:28.999Z</time></trkpt><trkpt lat="45.042583003885305" lon="5.338084567297638"><ele>292.0</ele><time>2026-05-02T14:36:29.999Z</time></trkpt><trkpt lat="45.04280896953109" lon="5.338217860262292"><ele>292.0</ele><time>2026-05-02T14:36:30.999Z</time></trkpt><trkpt lat="45.04303534345881" lon="5.338338910400519"><ele>292.0</ele><time>2026-05-02T14:36:31.999Z</time></trkpt><trkpt lat="45.04326100109344" lon="5.338447342256186"><ele>291.5</ele><time>2026-05-02T14:36:32.999Z</time></trkpt><trkpt lat="45.043488573048585" lon="5.338542778843459"><ele>291.0</ele><time>2026-05-02T14:36:33.999Z</time></trkpt><trkpt lat="45.04370523603693" lon="5.338624018011945"><ele>291.0</ele><time>2026-05-02T14:36:34.999Z</time></trkpt><trkpt lat="45.043906384745284" lon="5.33870121964027"><ele>291.0</ele><time>2026-05-02T14:36:35.999Z</time></trkpt><trkpt lat="45.04409254797359" lon="5.338770079065757"><ele>291.0</ele><time>2026-05-02T14:36:36.999Z</time></trkpt><trkpt lat="45.04426146321649" lon="5.338839202643509"><ele>291.6666666666667</ele><time>2026-05-02T14:36:37.999Z</time></trkpt><trkpt lat="45.044413473369055" lon="5.338904502531349"><ele>292.33333333333337</ele><time>2026-05-02T14:36:38.999Z</time></trkpt><trkpt lat="45.0445567249832" lon="5.338960601511331"><ele>293.0</ele><time>2026-05-02T14:36:39.999Z</time></trkpt><trkpt lat="45.044701018239685" lon="5.339003847159895"><ele>293.0</ele><time>2026-05-02T14:36:40.999Z</time></trkpt><trkpt lat="45.044839437579206" lon="5.33904901498498"><ele>293.0</ele><time>2026-05-02T14:36:41.999Z</time></trkpt><trkpt lat="45.044970070709134" lon="5.339098610590886"><ele>293.0</ele><time>2026-05-02T14:36:42.999Z</time></trkpt><trkpt lat="45.04508775885314" lon="5.339186730440613"><ele>293.0</ele><time>2026-05-02T14:36:43.999Z</time></trkpt><trkpt lat="45.04520537957489" lon="5.3392914326136935"><ele>293.5</ele><time>2026-05-02T14:36:44.999Z</time></trkpt><trkpt lat="45.04533465951941" lon="5.339375087101553"><ele>294.0</ele><time>2026-05-02T14:36:45.999Z</time></trkpt><trkpt lat="45.045465577587336" lon="5.3394498558685175"><ele>294.5</ele><time>2026-05-02T14:36:46.999Z</time></trkpt><trkpt lat="45.04559016942849" lon="5.339534053151812"><ele>295.0</ele><time>2026-05-02T14:36:47.999Z</time></trkpt><trkpt lat="45.04571838307706" lon="5.33961379583626"><ele>295.5</ele><time>2026-05-02T14:36:48.999Z</time></trkpt><trkpt lat="45.04584352335621" lon="5.339692461432791"><ele>296.0</ele><time>2026-05-02T14:36:49.999Z</time></trkpt><trkpt lat="45.045968591363746" lon="5.339768622765885"><ele>296.5</ele><time>2026-05-02T14:36:50.999Z</time></trkpt><trkpt lat="45.04609461443242" lon="5.339842568010777"><ele>297.0</ele><time>2026-05-02T14:36:51.999Z</time></trkpt><trkpt lat="45.04621979263553" lon="5.339916582206071"><ele>297.0</ele><time>2026-05-02T14:36:53Z</time></trkpt><trkpt lat="45.04634477191426" lon="5.339989482441552"><ele>297.0</ele><time>2026-05-02T14:36:54Z</time></trkpt><trkpt lat="45.04646987894414" lon="5.340063646066495"><ele>297.0</ele><time>2026-05-02T14:36:55Z</time></trkpt><trkpt lat="45.04659392628998" lon="5.340140286550432"><ele>297.0</ele><time>2026-05-02T14:36:56Z</time></trkpt><trkpt lat="45.046714535892015" lon="5.340221699164604"><ele>297.2</ele><time>2026-05-02T14:36:57Z</time></trkpt><trkpt lat="45.04681989492013" lon="5.340291434614105"><ele>297.4</ele><time>2026-05-02T14:36:58Z</time></trkpt><trkpt lat="45.046916655871385" lon="5.3403533829406005"><ele>297.6</ele><time>2026-05-02T14:36:59Z</time></trkpt><trkpt lat="45.047008168081184" lon="5.340409583746079"><ele>297.8</ele><time>2026-05-02T14:37:00Z</time></trkpt><trkpt lat="45.04708988480734" lon="5.340461033443489"><ele>298.0</ele><time>2026-05-02T14:37:01Z</time></trkpt><trkpt lat="45.04717020048787" lon="5.340511915457318"><ele>298.0</ele><time>2026-05-02T14:37:02Z</time></trkpt><trkpt lat="45.047258123187035" lon="5.340576748473789"><ele>298.0</ele><time>2026-05-02T14:37:03Z</time></trkpt><trkpt lat="45.047352012168645" lon="5.340656656198512"><ele>298.0</ele><time>2026-05-02T14:37:04Z</time></trkpt><trkpt lat="45.047437864463305" lon="5.340753599519704"><ele>298.0</ele><time>2026-05-02T14:37:05Z</time></trkpt><trkpt lat="45.04753682758296" lon="5.340853017436263"><ele>298.0</ele><time>2026-05-02T14:37:06Z</time></trkpt><trkpt lat="45.04763785661717" lon="5.340936400651963"><ele>297.75</ele><time>2026-05-02T14:37:07Z</time></trkpt><trkpt lat="45.04773941652928" lon="5.341002607006149"><ele>297.5</ele><time>2026-05-02T14:37:08Z</time></trkpt><trkpt lat="45.047853654858415" lon="5.341055381403643"><ele>297.25</ele><time>2026-05-02T14:37:09Z</time></trkpt><trkpt lat="45.04796629202346" lon="5.341095346284253"><ele>297.0</ele><time>2026-05-02T14:37:10Z</time></trkpt><trkpt lat="45.04808083344581" lon="5.341067490203386"><ele>297.0</ele><time>2026-05-02T14:37:11Z</time></trkpt><trkpt lat="45.04818376898489" lon="5.340971752239232"><ele>297.0</ele><time>2026-05-02T14:37:12Z</time></trkpt><trkpt lat="45.048289188509926" lon="5.34083126793743"><ele>297.0</ele><time>2026-05-02T14:37:13Z</time></trkpt><trkpt lat="45.04839966121864" lon="5.340696232431008"><ele>297.0</ele><time>2026-05-02T14:37:14Z</time></trkpt><trkpt lat="45.04851812362408" lon="5.340569963007203"><ele>296.75</ele><time>2026-05-02T14:37:15Z</time></trkpt><trkpt lat="45.04863929610751" lon="5.340442677293836"><ele>296.5</ele><time>2026-05-02T14:37:16Z</time></trkpt><trkpt lat="45.04875466489562" lon="5.340320712644361"><ele>296.25</ele><time>2026-05-02T14:37:17Z</time></trkpt><trkpt lat="45.04886111748465" lon="5.340205594544193"><ele>296.0</ele><time>2026-05-02T14:37:18Z</time></trkpt><trkpt lat="45.04896273865942" lon="5.340093137381246"><ele>296.0</ele><time>2026-05-02T14:37:19Z</time></trkpt><trkpt lat="45.04906821004192" lon="5.339993759212125"><ele>296.0</ele><time>2026-05-02T14:37:20Z</time></trkpt><trkpt lat="45.049184785187975" lon="5.3399325289295"><ele>296.0</ele><time>2026-05-02T14:37:21Z</time></trkpt><trkpt lat="45.04930357619636" lon="5.339922658714057"><ele>296.0</ele><time>2026-05-02T14:37:22Z</time></trkpt><trkpt lat="45.04948521201216" lon="5.339928684084554"><ele>292.33333333333337</ele><time>2026-05-02T14:37:23Z</time></trkpt><trkpt lat="45.04964273247338" lon="5.33996278579018"><ele>288.6666666666667</ele><time>2026-05-02T14:37:24Z</time></trkpt><trkpt lat="45.049798172969886" lon="5.340039895856612"><ele>285.0</ele><time>2026-05-02T14:37:25Z</time></trkpt><trkpt lat="45.049929382873174" lon="5.3401999693861235"><ele>282.3333333333333</ele><time>2026-05-02T14:37:26Z</time></trkpt><trkpt lat="45.05005511395389" lon="5.340389719441496"><ele>279.66666666666663</ele><time>2026-05-02T14:37:27Z</time></trkpt><trkpt lat="45.05018499747589" lon="5.340580264106116"><ele>277.0</ele><time>2026-05-02T14:37:28Z</time></trkpt><trkpt lat="45.05030399716486" lon="5.3407871740202255"><ele>276.66666666666663</ele><time>2026-05-02T14:37:29Z</time></trkpt><trkpt lat="45.050433562823805" lon="5.340964635989925"><ele>276.3333333333333</ele><time>2026-05-02T14:37:30Z</time></trkpt><trkpt lat="45.05055386212748" lon="5.341136382159835"><ele>276.0</ele><time>2026-05-02T14:37:31Z</time></trkpt><trkpt lat="45.05066974056822" lon="5.341300368300626"><ele>275.0</ele><time>2026-05-02T14:37:32Z</time></trkpt><trkpt lat="45.05079338805716" lon="5.341439161396866"><ele>274.0</ele><time>2026-05-02T14:37:33Z</time></trkpt><trkpt lat="45.0508995922722" lon="5.341615144403807"><ele>273.0</ele><time>2026-05-02T14:37:34Z</time></trkpt><trkpt lat="45.05100512649391" lon="5.341804193909531"><ele>273.0</ele><time>2026-05-02T14:37:35Z</time></trkpt><trkpt lat="45.05112970404722" lon="5.341964268884433"><ele>273.0</ele><time>2026-05-02T14:37:36Z</time></trkpt><trkpt lat="45.05126944753396" lon="5.342112629906379"><ele>273.0</ele><time>2026-05-02T14:37:37Z</time></trkpt><trkpt lat="45.051430437952845" lon="5.342245488029887"><ele>271.0</ele><time>2026-05-02T14:37:38Z</time></trkpt><trkpt lat="45.051572392556785" lon="5.342416073565928"><ele>269.0</ele><time>2026-05-02T14:37:39Z</time></trkpt><trkpt lat="45.05169632852088" lon="5.342606294906708"><ele>267.0</ele><time>2026-05-02T14:37:40Z</time></trkpt><trkpt lat="45.05181412514617" lon="5.342772676156596"><ele>267.0</ele><time>2026-05-02T14:37:41Z</time></trkpt><trkpt lat="45.0519379655518" lon="5.342912430331738"><ele>267.0</ele><time>2026-05-02T14:37:42Z</time></trkpt><trkpt lat="45.052081232462015" lon="5.342991945589308"><ele>267.0</ele><time>2026-05-02T14:37:43Z</time></trkpt><trkpt lat="45.05224550495117" lon="5.343025183773527"><ele>267.0</ele><time>2026-05-02T14:37:43.999Z</time></trkpt><trkpt lat="45.05242221084792" lon="5.343043477168907"><ele>267.0</ele><time>2026-05-02T14:37:44.999Z</time></trkpt><trkpt lat="45.052598959286776" lon="5.343012665509509"><ele>267.0</ele><time>2026-05-02T14:37:45.999Z</time></trkpt><trkpt lat="45.05276963632406" lon="5.342924215126397"><ele>266.6666666666667</ele><time>2026-05-02T14:37:46.999Z</time></trkpt><trkpt lat="45.05293836383512" lon="5.342823299762928"><ele>266.33333333333337</ele><time>2026-05-02T14:37:47.999Z</time></trkpt><trkpt lat="45.05310458569236" lon="5.342699888047063"><ele>266.0</ele><time>2026-05-02T14:37:48.999Z</time></trkpt><trkpt lat="45.053272376537045" lon="5.342593687693716"><ele>261.33333333333337</ele><time>2026-05-02T14:37:49.999Z</time></trkpt><trkpt lat="45.05343029040939" lon="5.342494528007157"><ele>256.6666666666667</ele><time>2026-05-02T14:37:50.999Z</time></trkpt><trkpt lat="45.05357369171118" lon="5.342405563913452"><ele>252.0</ele><time>2026-05-02T14:37:51.999Z</time></trkpt><trkpt lat="45.05371955931669" lon="5.34232828402082"><ele>252.0</ele><time>2026-05-02T14:37:52.999Z</time></trkpt><trkpt lat="45.05386560693825" lon="5.342274653162472"><ele>252.0</ele><time>2026-05-02T14:37:53.999Z</time></trkpt><trkpt lat="45.05402550863043" lon="5.342256753729847"><ele>252.0</ele><time>2026-05-02T14:37:54.999Z</time></trkpt><trkpt lat="45.054190922864755" lon="5.342242497878928"><ele>250.0</ele><time>2026-05-02T14:37:55.999Z</time></trkpt><trkpt lat="45.05435715099109" lon="5.342255667231803"><ele>248.0</ele><time>2026-05-02T14:37:56.999Z</time></trkpt><trkpt lat="45.054531800371706" lon="5.342276714832515"><ele>246.0</ele><time>2026-05-02T14:37:57.999Z</time></trkpt><trkpt lat="45.05471686050565" lon="5.342306582999742"><ele>246.0</ele><time>2026-05-02T14:37:58.999Z</time></trkpt><trkpt lat="45.05489788784322" lon="5.342321381669131"><ele>246.0</ele><time>2026-05-02T14:37:59.999Z</time></trkpt><trkpt lat="45.055074154241844" lon="5.342329831045456"><ele>246.0</ele><time>2026-05-02T14:38:00.999Z</time></trkpt><trkpt lat="45.05524987409008" lon="5.342339684378823"><ele>244.33333333333331</ele><time>2026-05-02T14:38:01.999Z</time></trkpt><trkpt lat="45.055415309687255" lon="5.342349986404547"><ele>242.66666666666666</ele><time>2026-05-02T14:38:02.999Z</time></trkpt><trkpt lat="45.055581733762565" lon="5.342335518563904"><ele>241.0</ele><time>2026-05-02T14:38:03.999Z</time></trkpt><trkpt lat="45.055740706881515" lon="5.342291517921222"><ele>242.33333333333331</ele><time>2026-05-02T14:38:04.999Z</time></trkpt><trkpt lat="45.05589263390821" lon="5.342190479403409"><ele>243.66666666666669</ele><time>2026-05-02T14:38:05.999Z</time></trkpt><trkpt lat="45.05604311784012" lon="5.3420797703653395"><ele>245.0</ele><time>2026-05-02T14:38:06.999Z</time></trkpt><trkpt lat="45.05617626017092" lon="5.341945490983345"><ele>245.0</ele><time>2026-05-02T14:38:07.999Z</time></trkpt><trkpt lat="45.0563024287021" lon="5.341807798777768"><ele>245.0</ele><time>2026-05-02T14:38:08.999Z</time></trkpt><trkpt lat="45.05640568583286" lon="5.341650862525703"><ele>245.0</ele><time>2026-05-02T14:38:09.999Z</time></trkpt><trkpt lat="45.0564931600402" lon="5.34148097724294"><ele>245.0</ele><time>2026-05-02T14:38:10.999Z</time></trkpt><trkpt lat="45.05658684527221" lon="5.341293111491392"><ele>245.0</ele><time>2026-05-02T14:38:11.999Z</time></trkpt><trkpt lat="45.056679690415486" lon="5.341107877598204"><ele>245.0</ele><time>2026-05-02T14:38:12.999Z</time></trkpt><trkpt lat="45.05676931062883" lon="5.340949291222857"><ele>245.0</ele><time>2026-05-02T14:38:13.999Z</time></trkpt><trkpt lat="45.05687525371433" lon="5.340835990972412"><ele>245.0</ele><time>2026-05-02T14:38:14.999Z</time></trkpt><trkpt lat="45.05696729306461" lon="5.340730235951045"><ele>245.0</ele><time>2026-05-02T14:38:15.999Z</time></trkpt><trkpt lat="45.05704956980521" lon="5.340633601829845"><ele>245.0</ele><time>2026-05-02T14:38:16.999Z</time></trkpt><trkpt lat="45.05708783376069" lon="5.340560948007985"><ele>245.0</ele><time>2026-05-02T14:38:17.999Z</time></trkpt><trkpt lat="45.057194102699285" lon="5.340470156944363"><ele>245.0</ele><time>2026-05-02T14:38:19.999Z</time></trkpt><trkpt lat="45.05725394449633" lon="5.340437811685203"><ele>245.0</ele><time>2026-05-02T14:38:20.999Z</time></trkpt><trkpt lat="45.05731304166852" lon="5.340601153261078"><ele>245.0</ele><time>2026-05-02T14:38:22.999Z</time></trkpt><trkpt lat="45.05725517823018" lon="5.340714870689943"><ele>245.0</ele><time>2026-05-02T14:38:23.999Z</time></trkpt><trkpt lat="45.05717517558487" lon="5.340747674952988"><ele>245.0</ele><time>2026-05-02T14:38:24.999Z</time></trkpt><trkpt lat="45.057088480714675" lon="5.340826114691208"><ele>245.0</ele><time>2026-05-02T14:38:25.999Z</time></trkpt><trkpt lat="45.056999972644924" lon="5.340894082104882"><ele>245.0</ele><time>2026-05-02T14:38:26.999Z</time></trkpt><trkpt lat="45.056914838207824" lon="5.340993976655933"><ele>245.0</ele><time>2026-05-02T14:38:27.999Z</time></trkpt><trkpt lat="45.05683422588274" lon="5.341079162104341"><ele>245.0</ele><time>2026-05-02T14:38:28.999Z</time></trkpt><trkpt lat="45.05677137270259" lon="5.3412227573118845"><ele>245.0</ele><time>2026-05-02T14:38:29.999Z</time></trkpt><trkpt lat="45.05669299976593" lon="5.341347561112295"><ele>245.0</ele><time>2026-05-02T14:38:30.999Z</time></trkpt><trkpt lat="45.05663295044535" lon="5.3415086901289275"><ele>245.0</ele><time>2026-05-02T14:38:31.999Z</time></trkpt><trkpt lat="45.056582804585936" lon="5.341671374999792"><ele>245.0</ele><time>2026-05-02T14:38:32.999Z</time></trkpt><trkpt lat="45.05654041657718" lon="5.341836767100359"><ele>245.0</ele><time>2026-05-02T14:38:33.999Z</time></trkpt><trkpt lat="45.056491285019106" lon="5.341988975160826"><ele>245.0</ele><time>2026-05-02T14:38:34.999Z</time></trkpt><trkpt lat="45.056442833851854" lon="5.342126332988878"><ele>245.0</ele><time>2026-05-02T14:38:35.999Z</time></trkpt><trkpt lat="45.056382067062835" lon="5.342263925478005"><ele>245.0</ele><time>2026-05-02T14:38:36.999Z</time></trkpt><trkpt lat="45.05630298164291" lon="5.342398157491456"><ele>245.0</ele><time>2026-05-02T14:38:37.999Z</time></trkpt><trkpt lat="45.056201770050365" lon="5.342495423055605"><ele>244.2</ele><time>2026-05-02T14:38:38.999Z</time></trkpt><trkpt lat="45.056089431193996" lon="5.34257126127074"><ele>243.4</ele><time>2026-05-02T14:38:39.999Z</time></trkpt><trkpt lat="45.05596225114527" lon="5.34260614357047"><ele>242.60000000000002</ele><time>2026-05-02T14:38:40.999Z</time></trkpt><trkpt lat="45.05585289814924" lon="5.342644828541158"><ele>241.8</ele><time>2026-05-02T14:38:41.999Z</time></trkpt><trkpt lat="45.055780480979195" lon="5.342696509981524"><ele>241.0</ele><time>2026-05-02T14:38:42.999Z</time></trkpt><trkpt lat="45.05570229221814" lon="5.342746672006261"><ele>240.99999999999997</ele><time>2026-05-02T14:38:43.999Z</time></trkpt><trkpt lat="45.055633120581575" lon="5.3428164399093125"><ele>241.0</ele><time>2026-05-02T14:38:44.999Z</time></trkpt><trkpt lat="45.05557118893577" lon="5.342875449258389"><ele>241.0</ele><time>2026-05-02T14:38:45.999Z</time></trkpt><trkpt lat="45.055542717580586" lon="5.342959423407855"><ele>241.0</ele><time>2026-05-02T14:38:46.999Z</time></trkpt><trkpt lat="45.055509875376934" lon="5.343045903997683"><ele>240.99999999999997</ele><time>2026-05-02T14:38:49.999Z</time></trkpt><trkpt lat="45.05551814285259" lon="5.343159981592707"><ele>241.0</ele><time>2026-05-02T14:39:00Z</time></trkpt><trkpt lat="45.05555654356546" lon="5.343253206213675"><ele>238.99999999999997</ele><time>2026-05-02T14:39:01Z</time></trkpt><trkpt lat="45.05559659052947" lon="5.34333050460965"><ele>237.0</ele><time>2026-05-02T14:39:02Z</time></trkpt><trkpt lat="45.05565803512866" lon="5.343403152297966"><ele>235.0</ele><time>2026-05-02T14:39:03Z</time></trkpt><trkpt lat="45.055735429713806" lon="5.34346118363915"><ele>233.0</ele><time>2026-05-02T14:39:04Z</time></trkpt><trkpt lat="45.05581599996089" lon="5.343519103824308"><ele>230.99999999999997</ele><time>2026-05-02T14:39:05Z</time></trkpt><trkpt lat="45.05589766228304" lon="5.34357757740033"><ele>229.0</ele><time>2026-05-02T14:39:06Z</time></trkpt><trkpt lat="45.05599238713314" lon="5.343647883544731"><ele>231.25</ele><time>2026-05-02T14:39:07Z</time></trkpt><trkpt lat="45.05608944308661" lon="5.34372000894709"><ele>233.5</ele><time>2026-05-02T14:39:08Z</time></trkpt><trkpt lat="45.0561938305285" lon="5.343795581328894"><ele>235.75</ele><time>2026-05-02T14:39:09Z</time></trkpt><trkpt lat="45.056305903587656" lon="5.34387462143888"><ele>238.0</ele><time>2026-05-02T14:39:10Z</time></trkpt><trkpt lat="45.05642187524647" lon="5.343947985817434"><ele>238.0</ele><time>2026-05-02T14:39:11Z</time></trkpt><trkpt lat="45.056534941749064" lon="5.34398950987462"><ele>238.0</ele><time>2026-05-02T14:39:12Z</time></trkpt><trkpt lat="45.056659270491295" lon="5.343988252648359"><ele>238.0</ele><time>2026-05-02T14:39:13Z</time></trkpt><trkpt lat="45.056785618012476" lon="5.343938993269798"><ele>238.0</ele><time>2026-05-02T14:39:14Z</time></trkpt><trkpt lat="45.05688071454453" lon="5.3438846155987765"><ele>233.99999999999997</ele><time>2026-05-02T14:39:15Z</time></trkpt><trkpt lat="45.05695605437705" lon="5.343844770100669"><ele>230.0</ele><time>2026-05-02T14:39:16Z</time></trkpt><trkpt lat="45.05703473084592" lon="5.343817174969381"><ele>226.0</ele><time>2026-05-02T14:39:17Z</time></trkpt><trkpt lat="45.05712405356252" lon="5.343799476250738"><ele>222.0</ele><time>2026-05-02T14:39:18Z</time></trkpt><trkpt lat="45.0572007016464" lon="5.3437783719075975"><ele>217.99999999999997</ele><time>2026-05-02T14:39:19Z</time></trkpt><trkpt lat="45.05726936245475" lon="5.343750813930832"><ele>214.0</ele><time>2026-05-02T14:39:20Z</time></trkpt><trkpt lat="45.057341443891254" lon="5.343713210999633"><ele>213.99999999999997</ele><time>2026-05-02T14:39:21Z</time></trkpt><trkpt lat="45.057403132240516" lon="5.343648506292603"><ele>214.0</ele><time>2026-05-02T14:39:22Z</time></trkpt><trkpt lat="45.05748338782568" lon="5.343605829903025"><ele>214.0</ele><time>2026-05-02T14:39:23Z</time></trkpt><trkpt lat="45.057578543665684" lon="5.343588514427789"><ele>214.0</ele><time>2026-05-02T14:39:24Z</time></trkpt><trkpt lat="45.05766884585479" lon="5.343584104219853"><ele>213.99999999999997</ele><time>2026-05-02T14:39:25Z</time></trkpt><trkpt lat="45.05775999503927" lon="5.343606785762849"><ele>214.0</ele><time>2026-05-02T14:39:26Z</time></trkpt><trkpt lat="45.05785017197506" lon="5.343659174139176"><ele>213.6</ele><time>2026-05-02T14:39:27Z</time></trkpt><trkpt lat="45.057942059249925" lon="5.343713462164716"><ele>213.2</ele><time>2026-05-02T14:39:28Z</time></trkpt><trkpt lat="45.05802359573772" lon="5.343816764248456"><ele>212.79999999999998</ele><time>2026-05-02T14:39:29Z</time></trkpt><trkpt lat="45.05810896285547" lon="5.343881552157922"><ele>212.39999999999998</ele><time>2026-05-02T14:39:30Z</time></trkpt><trkpt lat="45.05819812381115" lon="5.343930512141017"><ele>212.0</ele><time>2026-05-02T14:39:31Z</time></trkpt><trkpt lat="45.058270416507725" lon="5.343964682091286"><ele>214.50000000000003</ele><time>2026-05-02T14:39:32Z</time></trkpt><trkpt lat="45.0583420489276" lon="5.343983482014154"><ele>217.0</ele><time>2026-05-02T14:39:33Z</time></trkpt><trkpt lat="45.058417498667765" lon="5.343990492578509"><ele>219.5</ele><time>2026-05-02T14:39:34Z</time></trkpt><trkpt lat="45.058484423056775" lon="5.344014731445608"><ele>222.0</ele><time>2026-05-02T14:39:35Z</time></trkpt><trkpt lat="45.05861017303207" lon="5.3440743074749655"><ele>224.50000000000003</ele><time>2026-05-02T14:39:37Z</time></trkpt><trkpt lat="45.05869390754862" lon="5.344115679883607"><ele>227.0</ele><time>2026-05-02T14:39:38Z</time></trkpt><trkpt lat="45.05878930679191" lon="5.344146502310164"><ele>227.0</ele><time>2026-05-02T14:39:39Z</time></trkpt><trkpt lat="45.05890435169181" lon="5.344177325903464"><ele>227.0</ele><time>2026-05-02T14:39:40Z</time></trkpt><trkpt lat="45.059008748908056" lon="5.3442303088178615"><ele>227.0</ele><time>2026-05-02T14:39:41Z</time></trkpt><trkpt lat="45.05911500734385" lon="5.344242430375572"><ele>227.0</ele><time>2026-05-02T14:39:42Z</time></trkpt><trkpt lat="45.05921359721883" lon="5.344149190057574"><ele>225.16666666666669</ele><time>2026-05-02T14:39:43Z</time></trkpt><trkpt lat="45.05930365672951" lon="5.34413228785212"><ele>223.33333333333334</ele><time>2026-05-02T14:39:44Z</time></trkpt><trkpt lat="45.05940182001001" lon="5.344125401946974"><ele>221.5</ele><time>2026-05-02T14:39:45Z</time></trkpt><trkpt lat="45.05948566857519" lon="5.344144071996485"><ele>219.66666666666669</ele><time>2026-05-02T14:39:46Z</time></trkpt><trkpt lat="45.0595508741328" lon="5.344191605360808"><ele>217.83333333333334</ele><time>2026-05-02T14:39:47Z</time></trkpt><trkpt lat="45.0596216657437" lon="5.344249043075415"><ele>216.0</ele><time>2026-05-02T14:39:48Z</time></trkpt><trkpt lat="45.059693401376435" lon="5.344294330618989"><ele>216.0</ele><time>2026-05-02T14:39:49Z</time></trkpt><trkpt lat="45.05977093834306" lon="5.344339400856302"><ele>216.0</ele><time>2026-05-02T14:39:50Z</time></trkpt><trkpt lat="45.059876551654256" lon="5.344415301885498"><ele>216.0</ele><time>2026-05-02T14:39:52Z</time></trkpt><trkpt lat="45.05991744689106" lon="5.344498505524345"><ele>216.0</ele><time>2026-05-02T14:39:53Z</time></trkpt><trkpt lat="45.05993644266418" lon="5.344603231749943"><ele>216.0</ele><time>2026-05-02T14:39:54Z</time></trkpt><trkpt lat="45.05995342379136" lon="5.344711214722882"><ele>216.0</ele><time>2026-05-02T14:39:54.999Z</time></trkpt><trkpt lat="45.059990030105745" lon="5.344831128661432"><ele>216.5</ele><time>2026-05-02T14:39:55.999Z</time></trkpt><trkpt lat="45.060025916915286" lon="5.344953111256017"><ele>217.0</ele><time>2026-05-02T14:39:56.999Z</time></trkpt><trkpt lat="45.06004274862987" lon="5.345080046296174"><ele>217.5</ele><time>2026-05-02T14:39:57.999Z</time></trkpt><trkpt lat="45.06005133718987" lon="5.345205847183391"><ele>218.0</ele><time>2026-05-02T14:39:58.999Z</time></trkpt><trkpt lat="45.060076593264846" lon="5.345302682479481"><ele>218.5</ele><time>2026-05-02T14:39:59.999Z</time></trkpt><trkpt lat="45.06009444152163" lon="5.345396023045494"><ele>219.0</ele><time>2026-05-02T14:40:00.999Z</time></trkpt><trkpt lat="45.06014022303083" lon="5.3454795914982"><ele>221.6</ele><time>2026-05-02T14:40:01.999Z</time></trkpt><trkpt lat="45.060136132353094" lon="5.3455791778614765"><ele>224.2</ele><time>2026-05-02T14:40:02.999Z</time></trkpt><trkpt lat="45.06012178634074" lon="5.345751256520709"><ele>226.79999999999998</ele><time>2026-05-02T14:40:04.999Z</time></trkpt><trkpt lat="45.0601126798375" lon="5.345936500434194"><ele>229.39999999999998</ele><time>2026-05-02T14:40:06.999Z</time></trkpt><trkpt lat="45.060113638260574" lon="5.34605549964719"><ele>232.0</ele><time>2026-05-02T14:40:07.999Z</time></trkpt><trkpt lat="45.06014343437697" lon="5.346167478567198"><ele>231.99999999999997</ele><time>2026-05-02T14:40:08.999Z</time></trkpt><trkpt lat="45.06017858370436" lon="5.346271208557308"><ele>232.0</ele><time>2026-05-02T14:40:09.999Z</time></trkpt><trkpt lat="45.06021032941715" lon="5.346350480380625"><ele>232.0</ele><time>2026-05-02T14:40:10.999Z</time></trkpt><trkpt lat="45.06028288693004" lon="5.34647255365857"><ele>232.0</ele><time>2026-05-02T14:40:12.999Z</time></trkpt><trkpt lat="45.06031431128698" lon="5.346605793257226"><ele>231.99999999999997</ele><time>2026-05-02T14:40:14.999Z</time></trkpt><trkpt lat="45.0603372989562" lon="5.346695873281459"><ele>232.0</ele><time>2026-05-02T14:40:17.999Z</time></trkpt><trkpt lat="45.06037960184127" lon="5.3468366186798715"><ele>234.33333333333331</ele><time>2026-05-02T14:40:20.999Z</time></trkpt><trkpt lat="45.060375936324874" lon="5.3469657153337495"><ele>236.66666666666666</ele><time>2026-05-02T14:40:22.999Z</time></trkpt><trkpt lat="45.06038249886425" lon="5.347060616575384"><ele>239.0</ele><time>2026-05-02T14:40:23.999Z</time></trkpt><trkpt lat="45.060396424091365" lon="5.347164781000871"><ele>241.33333333333331</ele><time>2026-05-02T14:40:24.999Z</time></trkpt><trkpt lat="45.060415132142246" lon="5.347255231334086"><ele>243.66666666666666</ele><time>2026-05-02T14:40:25.999Z</time></trkpt><trkpt lat="45.06045810010102" lon="5.347351222838116"><ele>246.0</ele><time>2026-05-02T14:40:26.999Z</time></trkpt><trkpt lat="45.060540401925444" lon="5.347412736634846"><ele>248.20000000000002</ele><time>2026-05-02T14:40:27.999Z</time></trkpt><trkpt lat="45.060609251572515" lon="5.347497066548711"><ele>250.40000000000003</ele><time>2026-05-02T14:40:28.999Z</time></trkpt><trkpt lat="45.060677144412075" lon="5.347583408023594"><ele>252.6</ele><time>2026-05-02T14:40:29.999Z</time></trkpt><trkpt lat="45.0607501032354" lon="5.347677842507349"><ele>254.8</ele><time>2026-05-02T14:40:30.999Z</time></trkpt><trkpt lat="45.060838423643474" lon="5.347763832694626"><ele>257.0</ele><time>2026-05-02T14:40:31.999Z</time></trkpt><trkpt lat="45.06090961486607" lon="5.347882806636409"><ele>257.0</ele><time>2026-05-02T14:40:32.999Z</time></trkpt><trkpt lat="45.06099808359521" lon="5.347989068108315"><ele>257.0</ele><time>2026-05-02T14:40:33.999Z</time></trkpt><trkpt lat="45.06107856140637" lon="5.348108571557129"><ele>257.0</ele><time>2026-05-02T14:40:34.999Z</time></trkpt><trkpt lat="45.06116210591319" lon="5.3481859002335135"><ele>257.0</ele><time>2026-05-02T14:40:35.999Z</time></trkpt><trkpt lat="45.061229333207656" lon="5.348250132096576"><ele>257.0</ele><time>2026-05-02T14:40:36.999Z</time></trkpt><trkpt lat="45.06128771384647" lon="5.348323494773055"><ele>257.0</ele><time>2026-05-02T14:40:37.999Z</time></trkpt><trkpt lat="45.06135442990964" lon="5.3483982704605575"><ele>257.0</ele><time>2026-05-02T14:40:38.999Z</time></trkpt><trkpt lat="45.0614210094141" lon="5.3484944653137205"><ele>257.0</ele><time>2026-05-02T14:40:39.999Z</time></trkpt><trkpt lat="45.0615110222389" lon="5.348599148980624"><ele>257.0</ele><time>2026-05-02T14:40:40.999Z</time></trkpt><trkpt lat="45.0616201683353" lon="5.3487063676802915"><ele>257.0</ele><time>2026-05-02T14:40:41.999Z</time></trkpt><trkpt lat="45.06171870725283" lon="5.348828768917011"><ele>257.0</ele><time>2026-05-02T14:40:42.999Z</time></trkpt><trkpt lat="45.061820000575835" lon="5.348939849394309"><ele>257.0</ele><time>2026-05-02T14:40:43.999Z</time></trkpt><trkpt lat="45.06192654064536" lon="5.3490396792324635"><ele>257.0</ele><time>2026-05-02T14:40:44.999Z</time></trkpt><trkpt lat="45.06204150950726" lon="5.349090180250937"><ele>257.0</ele><time>2026-05-02T14:40:45.999Z</time></trkpt><trkpt lat="45.062162785924436" lon="5.3491223125922085"><ele>257.0</ele><time>2026-05-02T14:40:46.999Z</time></trkpt><trkpt lat="45.06228417684757" lon="5.349161761256456"><ele>257.0</ele><time>2026-05-02T14:40:47.999Z</time></trkpt><trkpt lat="45.06240135477918" lon="5.349222537250926"><ele>257.0</ele><time>2026-05-02T14:40:48.999Z</time></trkpt><trkpt lat="45.0625162264856" lon="5.349284276419754"><ele>257.0</ele><time>2026-05-02T14:40:49.999Z</time></trkpt><trkpt lat="45.06262297867732" lon="5.349331869287746"><ele>257.0</ele><time>2026-05-02T14:40:50.999Z</time></trkpt><trkpt lat="45.0627289519382" lon="5.349377863922827"><ele>257.0</ele><time>2026-05-02T14:40:51.999Z</time></trkpt><trkpt lat="45.06283455221281" lon="5.349424154254478"><ele>257.0</ele><time>2026-05-02T14:40:52.999Z</time></trkpt><trkpt lat="45.06294061739277" lon="5.3494860794339925"><ele>257.0</ele><time>2026-05-02T14:40:53.999Z</time></trkpt><trkpt lat="45.06303952516819" lon="5.349558197271696"><ele>257.0</ele><time>2026-05-02T14:40:54.999Z</time></trkpt><trkpt lat="45.06313132456429" lon="5.349632582563204"><ele>257.0</ele><time>2026-05-02T14:40:55.999Z</time></trkpt><trkpt lat="45.063219528185364" lon="5.349714978734463"><ele>257.0</ele><time>2026-05-02T14:40:56.999Z</time></trkpt><trkpt lat="45.06332116514002" lon="5.349790296358447"><ele>257.0</ele><time>2026-05-02T14:40:57.999Z</time></trkpt><trkpt lat="45.06341821005251" lon="5.3498571549642175"><ele>257.0</ele><time>2026-05-02T14:40:58.999Z</time></trkpt><trkpt lat="45.06351002232319" lon="5.349925421640176"><ele>257.0</ele><time>2026-05-02T14:40:59.999Z</time></trkpt><trkpt lat="45.06360407987538" lon="5.350015371708724"><ele>257.0</ele><time>2026-05-02T14:41:00.999Z</time></trkpt><trkpt lat="45.063685636587344" lon="5.350125784036474"><ele>257.0</ele><time>2026-05-02T14:41:01.999Z</time></trkpt><trkpt lat="45.06376313481549" lon="5.350240918203293"><ele>257.0</ele><time>2026-05-02T14:41:02.999Z</time></trkpt><trkpt lat="45.06383251695152" lon="5.350369025756781"><ele>257.0</ele><time>2026-05-02T14:41:03.999Z</time></trkpt><trkpt lat="45.063895182007016" lon="5.350515930664459"><ele>257.0</ele><time>2026-05-02T14:41:05Z</time></trkpt><trkpt lat="45.06396407010748" lon="5.3506768122420505"><ele>257.0</ele><time>2026-05-02T14:41:06Z</time></trkpt><trkpt lat="45.06405756993819" lon="5.350876772174732"><ele>257.0</ele><time>2026-05-02T14:41:07Z</time></trkpt><trkpt lat="45.06414447036359" lon="5.351109855523283"><ele>257.0</ele><time>2026-05-02T14:41:08Z</time></trkpt><trkpt lat="45.06424441549034" lon="5.3513807411739736"><ele>257.0</ele><time>2026-05-02T14:41:09Z</time></trkpt><trkpt lat="45.06435875070762" lon="5.351682075362072"><ele>257.0</ele><time>2026-05-02T14:41:10Z</time></trkpt><trkpt lat="45.06447346755142" lon="5.352019044207843"><ele>257.0</ele><time>2026-05-02T14:41:11Z</time></trkpt><trkpt lat="45.06455947334399" lon="5.352357576454521"><ele>257.0</ele><time>2026-05-02T14:41:12Z</time></trkpt><trkpt lat="45.064626619609705" lon="5.352689587473322"><ele>257.0</ele><time>2026-05-02T14:41:13Z</time></trkpt><trkpt lat="45.06469925729908" lon="5.352990232690041"><ele>265.33333333333337</ele><time>2026-05-02T14:41:14Z</time></trkpt><trkpt lat="45.064774666634285" lon="5.353255974708387"><ele>273.6666666666667</ele><time>2026-05-02T14:41:15Z</time></trkpt><trkpt lat="45.064840123620556" lon="5.353497741308549"><ele>282.0</ele><time>2026-05-02T14:41:16Z</time></trkpt><trkpt lat="45.064859347683075" lon="5.353722619955907"><ele>281.75</ele><time>2026-05-02T14:41:17Z</time></trkpt><trkpt lat="45.064876272366995" lon="5.353898380551002"><ele>281.5</ele><time>2026-05-02T14:41:18Z</time></trkpt><trkpt lat="45.064938443695105" lon="5.354047227517889"><ele>281.25</ele><time>2026-05-02T14:41:19Z</time></trkpt><trkpt lat="45.06506066643612" lon="5.354140627712982"><ele>281.0</ele><time>2026-05-02T14:41:20Z</time></trkpt><trkpt lat="45.065195016880686" lon="5.354174712264268"><ele>269.25</ele><time>2026-05-02T14:41:21Z</time></trkpt><trkpt lat="45.06530335299669" lon="5.35420513090427"><ele>257.5</ele><time>2026-05-02T14:41:22Z</time></trkpt><trkpt lat="45.06537385475096" lon="5.354301780764146"><ele>245.75</ele><time>2026-05-02T14:41:23Z</time></trkpt><trkpt lat="45.06540607440892" lon="5.354467457851698"><ele>234.0</ele><time>2026-05-02T14:41:24Z</time></trkpt><trkpt lat="45.065394611987806" lon="5.3546610157873555"><ele>233.0</ele><time>2026-05-02T14:41:25Z</time></trkpt><trkpt lat="45.065350351203996" lon="5.354853865339808"><ele>232.0</ele><time>2026-05-02T14:41:26Z</time></trkpt><trkpt lat="45.0652948397645" lon="5.355050633208466"><ele>231.0</ele><time>2026-05-02T14:41:27Z</time></trkpt><trkpt lat="45.065247571458656" lon="5.355244276095182"><ele>230.0</ele><time>2026-05-02T14:41:28Z</time></trkpt><trkpt lat="45.06520354723644" lon="5.3554392511805435"><ele>231.75</ele><time>2026-05-02T14:41:29Z</time></trkpt><trkpt lat="45.065168983467274" lon="5.355639642614087"><ele>233.5</ele><time>2026-05-02T14:41:30Z</time></trkpt><trkpt lat="45.0651517272277" lon="5.355830504016109"><ele>235.25</ele><time>2026-05-02T14:41:31Z</time></trkpt><trkpt lat="45.06512711325436" lon="5.356029302655369"><ele>237.0</ele><time>2026-05-02T14:41:32Z</time></trkpt><trkpt lat="45.06509000171299" lon="5.356247104330282"><ele>239.0</ele><time>2026-05-02T14:41:33Z</time></trkpt><trkpt lat="45.06503675388518" lon="5.356489364513531"><ele>241.0</ele><time>2026-05-02T14:41:34Z</time></trkpt><trkpt lat="45.0650086773957" lon="5.356754709299331"><ele>243.0</ele><time>2026-05-02T14:41:35Z</time></trkpt><trkpt lat="45.06504460760361" lon="5.35702120222679"><ele>242.66666666666669</ele><time>2026-05-02T14:41:36Z</time></trkpt><trkpt lat="45.06510881270265" lon="5.3572348394523095"><ele>242.33333333333334</ele><time>2026-05-02T14:41:37Z</time></trkpt><trkpt lat="45.065215070698414" lon="5.357417896836365"><ele>242.0</ele><time>2026-05-02T14:41:38Z</time></trkpt><trkpt lat="45.06535558311828" lon="5.357559238279393"><ele>242.0</ele><time>2026-05-02T14:41:39Z</time></trkpt><trkpt lat="45.065515121171536" lon="5.35764121248944"><ele>242.0</ele><time>2026-05-02T14:41:40Z</time></trkpt><trkpt lat="45.06569088478086" lon="5.357695305528773"><ele>242.0</ele><time>2026-05-02T14:41:41Z</time></trkpt><trkpt lat="45.06586703964424" lon="5.357761257904879"><ele>243.5</ele><time>2026-05-02T14:41:42Z</time></trkpt><trkpt lat="45.06601646677115" lon="5.357825461463377"><ele>245.0</ele><time>2026-05-02T14:41:43Z</time></trkpt><trkpt lat="45.066134643991596" lon="5.357912565223812"><ele>246.5</ele><time>2026-05-02T14:41:44Z</time></trkpt><trkpt lat="45.06623533178696" lon="5.358029818119449"><ele>248.0</ele><time>2026-05-02T14:41:45Z</time></trkpt><trkpt lat="45.06628728680137" lon="5.358162678696663"><ele>244.75</ele><time>2026-05-02T14:41:46Z</time></trkpt><trkpt lat="45.06632931717142" lon="5.35828041907577"><ele>241.5</ele><time>2026-05-02T14:41:47Z</time></trkpt><trkpt lat="45.06636531838723" lon="5.35839135116583"><ele>238.25</ele><time>2026-05-02T14:41:48Z</time></trkpt><trkpt lat="45.06641109738776" lon="5.358532412002866"><ele>235.0</ele><time>2026-05-02T14:41:49Z</time></trkpt><trkpt lat="45.06657539099781" lon="5.358660582308815"><ele>238.0</ele><time>2026-05-02T14:41:50Z</time></trkpt><trkpt lat="45.06662606660452" lon="5.358792019788654"><ele>241.0</ele><time>2026-05-02T14:41:51Z</time></trkpt><trkpt lat="45.06664119732145" lon="5.3590275217652845"><ele>244.0</ele><time>2026-05-02T14:41:52Z</time></trkpt><trkpt lat="45.06662862774613" lon="5.359240074863219"><ele>247.0</ele><time>2026-05-02T14:41:53Z</time></trkpt><trkpt lat="45.06663504573885" lon="5.3594360652810815"><ele>247.0</ele><time>2026-05-02T14:41:54Z</time></trkpt><trkpt lat="45.06666944274399" lon="5.359617415434366"><ele>247.0</ele><time>2026-05-02T14:41:55Z</time></trkpt><trkpt lat="45.0667383955152" lon="5.35979306586023"><ele>247.0</ele><time>2026-05-02T14:41:56Z</time></trkpt><trkpt lat="45.066846041106146" lon="5.359961495901586"><ele>247.0</ele><time>2026-05-02T14:41:57Z</time></trkpt><trkpt lat="45.066952459423575" lon="5.360081247858378"><ele>245.8</ele><time>2026-05-02T14:41:58Z</time></trkpt><trkpt lat="45.06704955346455" lon="5.360159525545583"><ele>244.6</ele><time>2026-05-02T14:41:59Z</time></trkpt><trkpt lat="45.06714772221098" lon="5.360174780849367"><ele>243.40000000000003</ele><time>2026-05-02T14:42:00Z</time></trkpt><trkpt lat="45.06723818685241" lon="5.36016451531189"><ele>242.20000000000002</ele><time>2026-05-02T14:42:00.999Z</time></trkpt><trkpt lat="45.0673056924025" lon="5.360222473773896"><ele>241.0</ele><time>2026-05-02T14:42:01.999Z</time></trkpt><trkpt lat="45.067334272646555" lon="5.3603681368672484"><ele>240.66666666666666</ele><time>2026-05-02T14:42:02.999Z</time></trkpt><trkpt lat="45.0673447642567" lon="5.360564635412487"><ele>240.33333333333331</ele><time>2026-05-02T14:42:03.999Z</time></trkpt><trkpt lat="45.0673869321235" lon="5.360768676824589"><ele>240.0</ele><time>2026-05-02T14:42:04.999Z</time></trkpt><trkpt lat="45.06744963367108" lon="5.360977906142831"><ele>245.75</ele><time>2026-05-02T14:42:05.999Z</time></trkpt><trkpt lat="45.06749569188252" lon="5.361181557100943"><ele>251.5</ele><time>2026-05-02T14:42:06.999Z</time></trkpt><trkpt lat="45.06750650726998" lon="5.36137056633653"><ele>257.25</ele><time>2026-05-02T14:42:07.999Z</time></trkpt><trkpt lat="45.06750293764211" lon="5.361563936042405"><ele>263.0</ele><time>2026-05-02T14:42:08.999Z</time></trkpt><trkpt lat="45.067483566767734" lon="5.361761470571634"><ele>264.5</ele><time>2026-05-02T14:42:09.999Z</time></trkpt><trkpt lat="45.06744710045699" lon="5.361951558899223"><ele>266.0</ele><time>2026-05-02T14:42:10.999Z</time></trkpt><trkpt lat="45.06739067944774" lon="5.362119695051749"><ele>267.5</ele><time>2026-05-02T14:42:11.999Z</time></trkpt><trkpt lat="45.067303523047194" lon="5.362243506974342"><ele>269.0</ele><time>2026-05-02T14:42:12.999Z</time></trkpt><trkpt lat="45.0671556620846" lon="5.362313791371776"><ele>265.5</ele><time>2026-05-02T14:42:13.999Z</time></trkpt><trkpt lat="45.06703954695765" lon="5.362438261799415"><ele>262.0</ele><time>2026-05-02T14:42:14.999Z</time></trkpt><trkpt lat="45.066920117248415" lon="5.362569657010635"><ele>258.5</ele><time>2026-05-02T14:42:15.999Z</time></trkpt><trkpt lat="45.066816193577836" lon="5.3626924541909755"><ele>255.0</ele><time>2026-05-02T14:42:16.999Z</time></trkpt><trkpt lat="45.06674635290305" lon="5.362825746542583"><ele>255.0</ele><time>2026-05-02T14:42:17.999Z</time></trkpt><trkpt lat="45.066697261964435" lon="5.362977569619611"><ele>255.0</ele><time>2026-05-02T14:42:18.999Z</time></trkpt><trkpt lat="45.06665007728688" lon="5.3631236658663255"><ele>255.0</ele><time>2026-05-02T14:42:19.999Z</time></trkpt><trkpt lat="45.066617228557064" lon="5.363234554978563"><ele>255.0</ele><time>2026-05-02T14:42:20.999Z</time></trkpt><trkpt lat="45.06662010494573" lon="5.363349087582016"><ele>255.0</ele><time>2026-05-02T14:42:21.999Z</time></trkpt><trkpt lat="45.06666875044346" lon="5.363481918794681"><ele>257.5</ele><time>2026-05-02T14:42:22.999Z</time></trkpt><trkpt lat="45.066726381797174" lon="5.363652582392797"><ele>260.0</ele><time>2026-05-02T14:42:23.999Z</time></trkpt><trkpt lat="45.0667474012182" lon="5.363824793299892"><ele>262.5</ele><time>2026-05-02T14:42:24.999Z</time></trkpt><trkpt lat="45.066739889411146" lon="5.363973472384135"><ele>265.0</ele><time>2026-05-02T14:42:25.999Z</time></trkpt><trkpt lat="45.066738520072" lon="5.364104109442471"><ele>265.0</ele><time>2026-05-02T14:42:26.999Z</time></trkpt><trkpt lat="45.066772745746384" lon="5.364204945106136"><ele>265.0</ele><time>2026-05-02T14:42:27.999Z</time></trkpt><trkpt lat="45.06689716831549" lon="5.36421116573687"><ele>265.0</ele><time>2026-05-02T14:42:29.999Z</time></trkpt><trkpt lat="45.06697681009683" lon="5.364248580464041"><ele>265.0</ele><time>2026-05-02T14:42:30.999Z</time></trkpt><trkpt lat="45.06707129089133" lon="5.364283174793172"><ele>265.0</ele><time>2026-05-02T14:42:31.999Z</time></trkpt><trkpt lat="45.06715742727614" lon="5.3643615668512"><ele>265.0</ele><time>2026-05-02T14:42:32.999Z</time></trkpt><trkpt lat="45.06723771818831" lon="5.364486096978963"><ele>265.0</ele><time>2026-05-02T14:42:33.999Z</time></trkpt><trkpt lat="45.06730649700831" lon="5.364644080418016"><ele>265.0</ele><time>2026-05-02T14:42:34.999Z</time></trkpt><trkpt lat="45.067396740855564" lon="5.364743877369459"><ele>265.0</ele><time>2026-05-02T14:42:35.999Z</time></trkpt><trkpt lat="45.0675202001781" lon="5.3647799794644815"><ele>267.66666666666663</ele><time>2026-05-02T14:42:36.999Z</time></trkpt><trkpt lat="45.06767365352042" lon="5.364788980527333"><ele>270.3333333333333</ele><time>2026-05-02T14:42:37.999Z</time></trkpt><trkpt lat="45.06783528889829" lon="5.364808573647269"><ele>273.0</ele><time>2026-05-02T14:42:38.999Z</time></trkpt><trkpt lat="45.06797265440105" lon="5.364856238152826"><ele>273.0</ele><time>2026-05-02T14:42:39.999Z</time></trkpt><trkpt lat="45.06810687887713" lon="5.364927192784014"><ele>273.0</ele><time>2026-05-02T14:42:40.999Z</time></trkpt><trkpt lat="45.06822249424811" lon="5.364980232391937"><ele>273.0</ele><time>2026-05-02T14:42:41.999Z</time></trkpt><trkpt lat="45.06831896784528" lon="5.364980118777805"><ele>273.0</ele><time>2026-05-02T14:42:42.999Z</time></trkpt><trkpt lat="45.068395406560036" lon="5.36491258741248"><ele>278.0</ele><time>2026-05-02T14:42:43.999Z</time></trkpt><trkpt lat="45.06845379932571" lon="5.364780389818598"><ele>283.0</ele><time>2026-05-02T14:42:44.999Z</time></trkpt><trkpt lat="45.06851275986166" lon="5.3646546190913345"><ele>288.0</ele><time>2026-05-02T14:42:45.999Z</time></trkpt><trkpt lat="45.06862380066669" lon="5.36455799353947"><ele>293.0</ele><time>2026-05-02T14:42:46.999Z</time></trkpt><trkpt lat="45.068742858687415" lon="5.364521301535383"><ele>293.0</ele><time>2026-05-02T14:42:47.999Z</time></trkpt><trkpt lat="45.068855211371876" lon="5.364505980888485"><ele>293.0</ele><time>2026-05-02T14:42:48.999Z</time></trkpt><trkpt lat="45.06894092263449" lon="5.364527755204693"><ele>293.0</ele><time>2026-05-02T14:42:49.999Z</time></trkpt><trkpt lat="45.06900028482836" lon="5.364595562819263"><ele>293.0</ele><time>2026-05-02T14:42:50.999Z</time></trkpt><trkpt lat="45.06901571538178" lon="5.36469961237802"><ele>293.0</ele><time>2026-05-02T14:42:51.999Z</time></trkpt><trkpt lat="45.06899587743204" lon="5.3648650946460394"><ele>293.0</ele><time>2026-05-02T14:42:52.999Z</time></trkpt><trkpt lat="45.06897563970419" lon="5.365050767877307"><ele>293.0</ele><time>2026-05-02T14:42:53.999Z</time></trkpt><trkpt lat="45.06896409112457" lon="5.365268237713047"><ele>293.0</ele><time>2026-05-02T14:42:54.999Z</time></trkpt><trkpt lat="45.06895113211271" lon="5.365473458452432"><ele>293.0</ele><time>2026-05-02T14:42:55.999Z</time></trkpt><trkpt lat="45.068960528704366" lon="5.3656810717731025"><ele>291.5</ele><time>2026-05-02T14:42:56.999Z</time></trkpt><trkpt lat="45.06898824653675" lon="5.365897993205893"><ele>290.0</ele><time>2026-05-02T14:42:57.999Z</time></trkpt><trkpt lat="45.069021215259546" lon="5.366091541791473"><ele>288.5</ele><time>2026-05-02T14:42:58.999Z</time></trkpt><trkpt lat="45.069038106292076" lon="5.366233176122492"><ele>287.0</ele><time>2026-05-02T14:42:59.999Z</time></trkpt><trkpt lat="45.06900974232314" lon="5.366385781217014"><ele>289.8</ele><time>2026-05-02T14:43:00.999Z</time></trkpt><trkpt lat="45.06893109817824" lon="5.366487113514388"><ele>292.6</ele><time>2026-05-02T14:43:01.999Z</time></trkpt><trkpt lat="45.06880714637602" lon="5.366548582915831"><ele>295.40000000000003</ele><time>2026-05-02T14:43:02.999Z</time></trkpt><trkpt lat="45.068705750416555" lon="5.366584698524848"><ele>298.2</ele><time>2026-05-02T14:43:03.999Z</time></trkpt><trkpt lat="45.06863726519855" lon="5.366686741936428"><ele>301.0</ele><time>2026-05-02T14:43:04.999Z</time></trkpt><trkpt lat="45.06860825258509" lon="5.366826465410629"><ele>301.0</ele><time>2026-05-02T14:43:05.999Z</time></trkpt><trkpt lat="45.06861197630296" lon="5.3669858737817835"><ele>301.0</ele><time>2026-05-02T14:43:06.999Z</time></trkpt><trkpt lat="45.06865605309771" lon="5.36715687554398"><ele>301.0</ele><time>2026-05-02T14:43:07.999Z</time></trkpt><trkpt lat="45.06869695916854" lon="5.367321032813912"><ele>301.0</ele><time>2026-05-02T14:43:08.999Z</time></trkpt><trkpt lat="45.068681032300326" lon="5.367519837436206"><ele>302.25</ele><time>2026-05-02T14:43:09.999Z</time></trkpt><trkpt lat="45.06861855127327" lon="5.367719094304835"><ele>303.5</ele><time>2026-05-02T14:43:11Z</time></trkpt><trkpt lat="45.06856824702437" lon="5.367919434051191"><ele>304.75</ele><time>2026-05-02T14:43:12Z</time></trkpt><trkpt lat="45.06854993053523" lon="5.368123094830646"><ele>306.0</ele><time>2026-05-02T14:43:13Z</time></trkpt><trkpt lat="45.06856683325927" lon="5.3683450523043525"><ele>308.3333333333333</ele><time>2026-05-02T14:43:14Z</time></trkpt><trkpt lat="45.06859192290857" lon="5.36854790816795"><ele>310.66666666666663</ele><time>2026-05-02T14:43:15Z</time></trkpt><trkpt lat="45.06862273713073" lon="5.368745249515095"><ele>313.0</ele><time>2026-05-02T14:43:16Z</time></trkpt><trkpt lat="45.068656011434115" lon="5.3689815496070805"><ele>313.3333333333333</ele><time>2026-05-02T14:43:17Z</time></trkpt><trkpt lat="45.068684736202634" lon="5.369245394577285"><ele>313.6666666666667</ele><time>2026-05-02T14:43:18Z</time></trkpt><trkpt lat="45.06870532763386" lon="5.3695365759983344"><ele>314.0</ele><time>2026-05-02T14:43:19Z</time></trkpt><trkpt lat="45.06874850899957" lon="5.369842775076932"><ele>315.6666666666667</ele><time>2026-05-02T14:43:20Z</time></trkpt><trkpt lat="45.06876423518327" lon="5.370110060613279"><ele>317.3333333333333</ele><time>2026-05-02T14:43:21Z</time></trkpt><trkpt lat="45.06879661517016" lon="5.370332345584979"><ele>319.0</ele><time>2026-05-02T14:43:22Z</time></trkpt><trkpt lat="45.06880819705425" lon="5.370522785079874"><ele>320.75</ele><time>2026-05-02T14:43:23Z</time></trkpt><trkpt lat="45.068796566772505" lon="5.370717425911637"><ele>322.5</ele><time>2026-05-02T14:43:24Z</time></trkpt><trkpt lat="45.0687777285709" lon="5.370898648838318"><ele>324.25</ele><time>2026-05-02T14:43:25Z</time></trkpt><trkpt lat="45.06877891743823" lon="5.371057126778475"><ele>326.0</ele><time>2026-05-02T14:43:26Z</time></trkpt><trkpt lat="45.06881813966808" lon="5.371203078994893"><ele>326.0</ele><time>2026-05-02T14:43:27Z</time></trkpt><trkpt lat="45.06888520816653" lon="5.371350893690881"><ele>326.0</ele><time>2026-05-02T14:43:28Z</time></trkpt><trkpt lat="45.06898385585163" lon="5.371486194745462"><ele>326.0</ele><time>2026-05-02T14:43:29Z</time></trkpt><trkpt lat="45.06907865996896" lon="5.3716072608287515"><ele>326.0</ele><time>2026-05-02T14:43:30Z</time></trkpt><trkpt lat="45.069157556605695" lon="5.37170331316491"><ele>330.20000000000005</ele><time>2026-05-02T14:43:31Z</time></trkpt><trkpt lat="45.069227231030894" lon="5.371772687406814"><ele>334.40000000000003</ele><time>2026-05-02T14:43:32Z</time></trkpt><trkpt lat="45.069305962249985" lon="5.371839456370837"><ele>338.6</ele><time>2026-05-02T14:43:33Z</time></trkpt><trkpt lat="45.06939843160527" lon="5.37191944120252"><ele>342.8</ele><time>2026-05-02T14:43:34Z</time></trkpt><trkpt lat="45.0694903324498" lon="5.372009050098326"><ele>347.0</ele><time>2026-05-02T14:43:35Z</time></trkpt><trkpt lat="45.06959766596527" lon="5.372058356050538"><ele>347.0</ele><time>2026-05-02T14:43:36Z</time></trkpt><trkpt lat="45.069741190759025" lon="5.3720710217304815"><ele>347.0</ele><time>2026-05-02T14:43:37Z</time></trkpt><trkpt lat="45.06990208134401" lon="5.372088114761102"><ele>347.0</ele><time>2026-05-02T14:43:38Z</time></trkpt><trkpt lat="45.07005675989715" lon="5.372188367426341"><ele>348.0</ele><time>2026-05-02T14:43:39Z</time></trkpt><trkpt lat="45.070229739328326" lon="5.37225646539695"><ele>349.0</ele><time>2026-05-02T14:43:40Z</time></trkpt><trkpt lat="45.07037382491577" lon="5.372345540095867"><ele>350.0</ele><time>2026-05-02T14:43:41Z</time></trkpt><trkpt lat="45.07047365378138" lon="5.37241728375674"><ele>351.0</ele><time>2026-05-02T14:43:42Z</time></trkpt><trkpt lat="45.070557044545794" lon="5.3724946635262185"><ele>351.0</ele><time>2026-05-02T14:43:43Z</time></trkpt><trkpt lat="45.07062903208743" lon="5.372535971530855"><ele>351.0</ele><time>2026-05-02T14:43:44Z</time></trkpt><trkpt lat="45.07074159522842" lon="5.372520911895101"><ele>351.0</ele><time>2026-05-02T14:43:46Z</time></trkpt><trkpt lat="45.07073150174178" lon="5.372274288282346"><ele>351.0</ele><time>2026-05-02T14:43:48Z</time></trkpt><trkpt lat="45.07060113513148" lon="5.372177061609682"><ele>358.0</ele><time>2026-05-02T14:43:49Z</time></trkpt><trkpt lat="45.0704579106735" lon="5.372081822343423"><ele>365.0</ele><time>2026-05-02T14:43:50Z</time></trkpt><trkpt lat="45.07031310333484" lon="5.3719681082340065"><ele>372.0</ele><time>2026-05-02T14:43:51Z</time></trkpt><trkpt lat="45.07017919806282" lon="5.371856345871739"><ele>372.0</ele><time>2026-05-02T14:43:52Z</time></trkpt><trkpt lat="45.0700511467271" lon="5.371741930968945"><ele>372.0</ele><time>2026-05-02T14:43:53Z</time></trkpt><trkpt lat="45.06995537818288" lon="5.371614283644625"><ele>372.0</ele><time>2026-05-02T14:43:54Z</time></trkpt><trkpt lat="45.06988032603255" lon="5.371501904208045"><ele>372.0</ele><time>2026-05-02T14:43:55Z</time></trkpt><trkpt lat="45.06984817349183" lon="5.371342990741063"><ele>367.5</ele><time>2026-05-02T14:43:56Z</time></trkpt><trkpt lat="45.06979033749178" lon="5.371172484731129"><ele>363.0</ele><time>2026-05-02T14:43:57Z</time></trkpt><trkpt lat="45.06976328589585" lon="5.370990080699751"><ele>358.5</ele><time>2026-05-02T14:43:58Z</time></trkpt><trkpt lat="45.06975133014175" lon="5.370807498148298"><ele>354.0</ele><time>2026-05-02T14:43:59Z</time></trkpt><trkpt lat="45.06976680546758" lon="5.370629329266994"><ele>353.5</ele><time>2026-05-02T14:44:00Z</time></trkpt><trkpt lat="45.06976532598371" lon="5.3704586977685"><ele>353.0</ele><time>2026-05-02T14:44:01Z</time></trkpt><trkpt lat="45.06978730618948" lon="5.370299088070045"><ele>352.5</ele><time>2026-05-02T14:44:01.999Z</time></trkpt><trkpt lat="45.0698313240941" lon="5.370130004192155"><ele>352.0</ele><time>2026-05-02T14:44:02.999Z</time></trkpt><trkpt lat="45.0698966342663" lon="5.369945689500565"><ele>358.0</ele><time>2026-05-02T14:44:03.999Z</time></trkpt><trkpt lat="45.0699734383152" lon="5.369784677154818"><ele>364.0</ele><time>2026-05-02T14:44:04.999Z</time></trkpt><trkpt lat="45.07005508793023" lon="5.369635450537037"><ele>370.0</ele><time>2026-05-02T14:44:05.999Z</time></trkpt><trkpt lat="45.07018395171586" lon="5.369513491319609"><ele>376.0</ele><time>2026-05-02T14:44:06.999Z</time></trkpt><trkpt lat="45.07032540664333" lon="5.3693632859143445"><ele>376.0</ele><time>2026-05-02T14:44:07.999Z</time></trkpt><trkpt lat="45.07049737390388" lon="5.369239924623634"><ele>376.0</ele><time>2026-05-02T14:44:08.999Z</time></trkpt><trkpt lat="45.07065175903547" lon="5.369110412509408"><ele>376.0</ele><time>2026-05-02T14:44:09.999Z</time></trkpt><trkpt lat="45.070767105796946" lon="5.368952855054539"><ele>382.0</ele><time>2026-05-02T14:44:10.999Z</time></trkpt><trkpt lat="45.07084093344785" lon="5.368748940263865"><ele>388.0</ele><time>2026-05-02T14:44:11.999Z</time></trkpt><trkpt lat="45.07088560714249" lon="5.368547115526239"><ele>394.0</ele><time>2026-05-02T14:44:12.999Z</time></trkpt><trkpt lat="45.07092076076479" lon="5.368358413968028"><ele>400.0</ele><time>2026-05-02T14:44:13.999Z</time></trkpt><trkpt lat="45.07093798887958" lon="5.36812651871388"><ele>402.0</ele><time>2026-05-02T14:44:14.999Z</time></trkpt><trkpt lat="45.07092393189947" lon="5.3678506098957515"><ele>404.0</ele><time>2026-05-02T14:44:15.999Z</time></trkpt><trkpt lat="45.07092012665094" lon="5.367544670893497"><ele>406.0</ele><time>2026-05-02T14:44:16.999Z</time></trkpt><trkpt lat="45.07095871259387" lon="5.367224326516174"><ele>405.33333333333337</ele><time>2026-05-02T14:44:17.999Z</time></trkpt><trkpt lat="45.07095046478324" lon="5.366908230253698"><ele>404.66666666666663</ele><time>2026-05-02T14:44:18.999Z</time></trkpt><trkpt lat="45.07095245716934" lon="5.366645341724863"><ele>404.0</ele><time>2026-05-02T14:44:19.999Z</time></trkpt><trkpt lat="45.07098552438289" lon="5.366411736652271"><ele>401.75</ele><time>2026-05-02T14:44:20.999Z</time></trkpt><trkpt lat="45.07102094385227" lon="5.366181237803793"><ele>399.5</ele><time>2026-05-02T14:44:21.999Z</time></trkpt><trkpt lat="45.07105894259582" lon="5.366003299061796"><ele>397.25</ele><time>2026-05-02T14:44:22.999Z</time></trkpt><trkpt lat="45.07110009576855" lon="5.365878951291417"><ele>395.0</ele><time>2026-05-02T14:44:23.999Z</time></trkpt><trkpt lat="45.07118792562244" lon="5.36578532920008"><ele>395.0</ele><time>2026-05-02T14:44:24.999Z</time></trkpt><trkpt lat="45.071304230625984" lon="5.36572111744656"><ele>395.0</ele><time>2026-05-02T14:44:25.999Z</time></trkpt><trkpt lat="45.07143310208678" lon="5.365637306925439"><ele>395.0</ele><time>2026-05-02T14:44:26.999Z</time></trkpt><trkpt lat="45.071587172188444" lon="5.365588746699438"><ele>395.0</ele><time>2026-05-02T14:44:27.999Z</time></trkpt><trkpt lat="45.07177142426776" lon="5.365557494476831"><ele>405.66666666666663</ele><time>2026-05-02T14:44:28.999Z</time></trkpt><trkpt lat="45.071976907044345" lon="5.3655568273873655"><ele>416.33333333333337</ele><time>2026-05-02T14:44:29.999Z</time></trkpt><trkpt lat="45.07218809205163" lon="5.36557854951561"><ele>427.0</ele><time>2026-05-02T14:44:30.999Z</time></trkpt><trkpt lat="45.07241700780518" lon="5.365606267134022"><ele>427.6666666666667</ele><time>2026-05-02T14:44:31.999Z</time></trkpt><trkpt lat="45.07263214847189" lon="5.365647641302517"><ele>428.33333333333337</ele><time>2026-05-02T14:44:32.999Z</time></trkpt><trkpt lat="45.072835274097024" lon="5.3656701062882055"><ele>429.0</ele><time>2026-05-02T14:44:33.999Z</time></trkpt><trkpt lat="45.073025193910865" lon="5.365706157391687"><ele>429.0</ele><time>2026-05-02T14:44:34.999Z</time></trkpt><trkpt lat="45.07319590716461" lon="5.365726821460661"><ele>429.0</ele><time>2026-05-02T14:44:35.999Z</time></trkpt><trkpt lat="45.07336621491692" lon="5.365716109851718"><ele>429.0</ele><time>2026-05-02T14:44:36.999Z</time></trkpt><trkpt lat="45.07354195633767" lon="5.365663475318271"><ele>430.0</ele><time>2026-05-02T14:44:37.999Z</time></trkpt><trkpt lat="45.07372010627405" lon="5.365634878738179"><ele>431.0</ele><time>2026-05-02T14:44:38.999Z</time></trkpt><trkpt lat="45.07389978793758" lon="5.365625252928732"><ele>432.0</ele><time>2026-05-02T14:44:39.999Z</time></trkpt><trkpt lat="45.07407318321782" lon="5.365618267179911"><ele>436.0</ele><time>2026-05-02T14:44:40.999Z</time></trkpt><trkpt lat="45.0742420089291" lon="5.365623102469112"><ele>440.0</ele><time>2026-05-02T14:44:41.999Z</time></trkpt><trkpt lat="45.07440272225038" lon="5.365663877213447"><ele>444.0</ele><time>2026-05-02T14:44:42.999Z</time></trkpt><trkpt lat="45.07456170114244" lon="5.3657328471708405"><ele>444.0</ele><time>2026-05-02T14:44:43.999Z</time></trkpt><trkpt lat="45.07473013889348" lon="5.365823130048032"><ele>444.0</ele><time>2026-05-02T14:44:44.999Z</time></trkpt><trkpt lat="45.07488448141773" lon="5.365899718023964"><ele>444.0</ele><time>2026-05-02T14:44:45.999Z</time></trkpt><trkpt lat="45.07499857245754" lon="5.365972083687437"><ele>444.0</ele><time>2026-05-02T14:44:46.999Z</time></trkpt><trkpt lat="45.07507875672029" lon="5.366002994099486"><ele>444.0</ele><time>2026-05-02T14:44:47.999Z</time></trkpt><trkpt lat="45.07515635839351" lon="5.365978993443204"><ele>444.0</ele><time>2026-05-02T14:44:48.999Z</time></trkpt><trkpt lat="45.07521948942416" lon="5.365861969164989"><ele>444.0</ele><time>2026-05-02T14:44:49.999Z</time></trkpt><trkpt lat="45.075211023866544" lon="5.365703621906793"><ele>444.0</ele><time>2026-05-02T14:44:50.999Z</time></trkpt><trkpt lat="45.07518848827856" lon="5.365508978473969"><ele>444.0</ele><time>2026-05-02T14:44:51.999Z</time></trkpt><trkpt lat="45.075166740971724" lon="5.365324415572606"><ele>444.0</ele><time>2026-05-02T14:44:52.999Z</time></trkpt><trkpt lat="45.075138485732765" lon="5.365201945310396"><ele>444.0</ele><time>2026-05-02T14:44:53.999Z</time></trkpt><trkpt lat="45.07517661608802" lon="5.365108838574294"><ele>444.0</ele><time>2026-05-02T14:44:54.999Z</time></trkpt><trkpt lat="45.07527732792548" lon="5.365027390749234"><ele>444.0</ele><time>2026-05-02T14:44:55.999Z</time></trkpt><trkpt lat="45.07539348239827" lon="5.364907254095702"><ele>444.0</ele><time>2026-05-02T14:44:56.999Z</time></trkpt><trkpt lat="45.07549682060739" lon="5.364755616946962"><ele>444.0</ele><time>2026-05-02T14:44:57.999Z</time></trkpt><trkpt lat="45.07559065616899" lon="5.364596446532731"><ele>444.0</ele><time>2026-05-02T14:44:58.999Z</time></trkpt><trkpt lat="45.07566846907007" lon="5.364415023949234"><ele>444.0</ele><time>2026-05-02T14:44:59.999Z</time></trkpt><trkpt lat="45.07574898969175" lon="5.364234247950614"><ele>448.5</ele><time>2026-05-02T14:45:00.999Z</time></trkpt><trkpt lat="45.07581332936145" lon="5.364054852609961"><ele>453.0</ele><time>2026-05-02T14:45:01.999Z</time></trkpt><trkpt lat="45.07590963026383" lon="5.363928114826781"><ele>457.5</ele><time>2026-05-02T14:45:02.999Z</time></trkpt><trkpt lat="45.07600155381692" lon="5.3638121900112035"><ele>462.0</ele><time>2026-05-02T14:45:03.999Z</time></trkpt><trkpt lat="45.07610099948762" lon="5.363698865390475"><ele>462.0</ele><time>2026-05-02T14:45:04.999Z</time></trkpt><trkpt lat="45.07618672369286" lon="5.363572523612262"><ele>462.00000000000006</ele><time>2026-05-02T14:45:05.999Z</time></trkpt><trkpt lat="45.076277641312366" lon="5.3634943905169665"><ele>462.00000000000006</ele><time>2026-05-02T14:45:06.999Z</time></trkpt><trkpt lat="45.07633657753935" lon="5.363420776526581"><ele>462.0</ele><time>2026-05-02T14:45:07.999Z</time></trkpt><trkpt lat="45.0764005114688" lon="5.36336559724647"><ele>462.0</ele><time>2026-05-02T14:45:08.999Z</time></trkpt><trkpt lat="45.076468936319706" lon="5.363290944807467"><ele>462.0</ele><time>2026-05-02T14:45:09.999Z</time></trkpt><trkpt lat="45.07651937111474" lon="5.363197939268014"><ele>462.00000000000006</ele><time>2026-05-02T14:45:10.999Z</time></trkpt><trkpt lat="45.076558936706185" lon="5.363111844897313"><ele>462.00000000000006</ele><time>2026-05-02T14:45:11.999Z</time></trkpt><trkpt lat="45.07655118255097" lon="5.363011006432087"><ele>462.0</ele><time>2026-05-02T14:45:12.999Z</time></trkpt><trkpt lat="45.076452489351006" lon="5.362956796672914"><ele>462.0</ele><time>2026-05-02T14:45:13.999Z</time></trkpt><trkpt lat="45.07633729127998" lon="5.362916665194494"><ele>465.40000000000003</ele><time>2026-05-02T14:45:14.999Z</time></trkpt><trkpt lat="45.0762089052987" lon="5.3629881069024545"><ele>468.80000000000007</ele><time>2026-05-02T14:45:15.999Z</time></trkpt><trkpt lat="45.07612749563607" lon="5.3629591830995205"><ele>472.2</ele><time>2026-05-02T14:45:17Z</time></trkpt><trkpt lat="45.07604880511589" lon="5.362912282439765"><ele>475.6</ele><time>2026-05-02T14:45:18Z</time></trkpt><trkpt lat="45.07597752910278" lon="5.362841326442723"><ele>479.0</ele><time>2026-05-02T14:45:19Z</time></trkpt><trkpt lat="45.075900325600536" lon="5.362760080473471"><ele>479.0</ele><time>2026-05-02T14:45:20Z</time></trkpt><trkpt lat="45.075831939019544" lon="5.362662610639065"><ele>479.0</ele><time>2026-05-02T14:45:21Z</time></trkpt><trkpt lat="45.075775083962725" lon="5.362546698879644"><ele>479.0</ele><time>2026-05-02T14:45:22Z</time></trkpt><trkpt lat="45.07571838559083" lon="5.362434746172375"><ele>479.0</ele><time>2026-05-02T14:45:23Z</time></trkpt><trkpt lat="45.07564455047181" lon="5.362341719073807"><ele>479.0</ele><time>2026-05-02T14:45:24Z</time></trkpt><trkpt lat="45.075544852913936" lon="5.362315230096456"><ele>483.25</ele><time>2026-05-02T14:45:25Z</time></trkpt><trkpt lat="45.075435072086115" lon="5.362306076908355"><ele>487.5</ele><time>2026-05-02T14:45:26Z</time></trkpt><trkpt lat="45.07533861891254" lon="5.3624317599889215"><ele>491.75</ele><time>2026-05-02T14:45:27Z</time></trkpt><trkpt lat="45.075226454964394" lon="5.36254571811273"><ele>496.0</ele><time>2026-05-02T14:45:28Z</time></trkpt><trkpt lat="45.07510986651975" lon="5.362689058966949"><ele>496.0</ele><time>2026-05-02T14:45:29Z</time></trkpt><trkpt lat="45.075004284346775" lon="5.3627947741450726"><ele>496.0</ele><time>2026-05-02T14:45:30Z</time></trkpt><trkpt lat="45.074906268130746" lon="5.362866133754869"><ele>496.0</ele><time>2026-05-02T14:45:31Z</time></trkpt><trkpt lat="45.07479841865691" lon="5.362906461971101"><ele>496.0</ele><time>2026-05-02T14:45:32Z</time></trkpt><trkpt lat="45.07468478708657" lon="5.362915851172506"><ele>495.0</ele><time>2026-05-02T14:45:33Z</time></trkpt><trkpt lat="45.0745626084383" lon="5.362880080065159"><ele>494.0</ele><time>2026-05-02T14:45:34Z</time></trkpt><trkpt lat="45.074449412357666" lon="5.362842354174455"><ele>493.0</ele><time>2026-05-02T14:45:35Z</time></trkpt><trkpt lat="45.07434652363979" lon="5.362784955635453"><ele>492.0</ele><time>2026-05-02T14:45:36Z</time></trkpt><trkpt lat="45.074256352712744" lon="5.362712553343826"><ele>492.0</ele><time>2026-05-02T14:45:37Z</time></trkpt><trkpt lat="45.07417851596452" lon="5.3626188484246375"><ele>492.00000000000006</ele><time>2026-05-02T14:45:38Z</time></trkpt><trkpt lat="45.07415468909906" lon="5.362441025172869"><ele>492.00000000000006</ele><time>2026-05-02T14:45:39Z</time></trkpt><trkpt lat="45.07411003242826" lon="5.362283682482751"><ele>492.0</ele><time>2026-05-02T14:45:40Z</time></trkpt><trkpt lat="45.07410996877387" lon="5.362146178012395"><ele>492.0</ele><time>2026-05-02T14:45:41Z</time></trkpt><trkpt lat="45.07408281953957" lon="5.362055614539617"><ele>490.8</ele><time>2026-05-02T14:45:42Z</time></trkpt><trkpt lat="45.074045445066" lon="5.361974445839841"><ele>489.6</ele><time>2026-05-02T14:45:43Z</time></trkpt><trkpt lat="45.0740085698171" lon="5.361861443536122"><ele>488.40000000000003</ele><time>2026-05-02T14:45:44Z</time></trkpt><trkpt lat="45.07397854757221" lon="5.36172911396771"><ele>487.20000000000005</ele><time>2026-05-02T14:45:45Z</time></trkpt><trkpt lat="45.07394989666331" lon="5.361579051570791"><ele>486.0</ele><time>2026-05-02T14:45:46Z</time></trkpt><trkpt lat="45.07388229797907" lon="5.361435811181243"><ele>490.25</ele><time>2026-05-02T14:45:47Z</time></trkpt><trkpt lat="45.07376585281152" lon="5.3613233971291825"><ele>494.5</ele><time>2026-05-02T14:45:48Z</time></trkpt><trkpt lat="45.07362459437803" lon="5.361237704429323"><ele>498.75</ele><time>2026-05-02T14:45:49Z</time></trkpt><trkpt lat="45.07349397816309" lon="5.361160348947305"><ele>503.0</ele><time>2026-05-02T14:45:50Z</time></trkpt><trkpt lat="45.0734049925766" lon="5.361055651717293"><ele>503.0</ele><time>2026-05-02T14:45:51Z</time></trkpt><trkpt lat="45.07334887173551" lon="5.360941332064655"><ele>502.99999999999994</ele><time>2026-05-02T14:45:52Z</time></trkpt><trkpt lat="45.07333106573667" lon="5.360831669376232"><ele>502.99999999999994</ele><time>2026-05-02T14:45:53Z</time></trkpt><trkpt lat="45.07334110975664" lon="5.360725176390775"><ele>503.0</ele><time>2026-05-02T14:45:54Z</time></trkpt><trkpt lat="45.07340713373681" lon="5.3606214878516685"><ele>503.0</ele><time>2026-05-02T14:45:55Z</time></trkpt><trkpt lat="45.07350152812477" lon="5.360524202669382"><ele>496.66666666666663</ele><time>2026-05-02T14:45:56Z</time></trkpt><trkpt lat="45.07361915038688" lon="5.3603918546427884"><ele>490.33333333333337</ele><time>2026-05-02T14:45:57Z</time></trkpt><trkpt lat="45.07374276999685" lon="5.36023518260499"><ele>484.0</ele><time>2026-05-02T14:45:58Z</time></trkpt><trkpt lat="45.073835312538804" lon="5.360092693211928"><ele>484.0</ele><time>2026-05-02T14:45:59Z</time></trkpt><trkpt lat="45.073924434137005" lon="5.359972383495807"><ele>484.0</ele><time>2026-05-02T14:46:00Z</time></trkpt><trkpt lat="45.07401315106031" lon="5.359875444650712"><ele>484.0</ele><time>2026-05-02T14:46:01Z</time></trkpt><trkpt lat="45.074122305276866" lon="5.35979351759935"><ele>484.0</ele><time>2026-05-02T14:46:02Z</time></trkpt><trkpt lat="45.07427150008703" lon="5.35975192060834"><ele>485.33333333333337</ele><time>2026-05-02T14:46:03Z</time></trkpt><trkpt lat="45.07445541745621" lon="5.35969673703168"><ele>486.66666666666663</ele><time>2026-05-02T14:46:04Z</time></trkpt><trkpt lat="45.07465372104532" lon="5.359622627409525"><ele>488.0</ele><time>2026-05-02T14:46:05Z</time></trkpt><trkpt lat="45.074819091980025" lon="5.359566267662674"><ele>496.25</ele><time>2026-05-02T14:46:06Z</time></trkpt><trkpt lat="45.07495434814389" lon="5.359496129922491"><ele>504.5</ele><time>2026-05-02T14:46:06.999Z</time></trkpt><trkpt lat="45.075070202364664" lon="5.3594210564640195"><ele>512.75</ele><time>2026-05-02T14:46:07.999Z</time></trkpt><trkpt lat="45.075148147731625" lon="5.359317279676701"><ele>521.0</ele><time>2026-05-02T14:46:08.999Z</time></trkpt><trkpt lat="45.07523246833809" lon="5.35916112025366"><ele>521.0</ele><time>2026-05-02T14:46:09.999Z</time></trkpt><trkpt lat="45.075314739072795" lon="5.358975281317323"><ele>521.0</ele><time>2026-05-02T14:46:10.999Z</time></trkpt><trkpt lat="45.07539530379551" lon="5.358799903251056"><ele>521.0</ele><time>2026-05-02T14:46:11.999Z</time></trkpt><trkpt lat="45.07546332298827" lon="5.358653448449455"><ele>521.0</ele><time>2026-05-02T14:46:12.999Z</time></trkpt><trkpt lat="45.07548650111367" lon="5.358517833031278"><ele>519.0</ele><time>2026-05-02T14:46:13.999Z</time></trkpt><trkpt lat="45.075463549458064" lon="5.358351436038811"><ele>517.0</ele><time>2026-05-02T14:46:14.999Z</time></trkpt><trkpt lat="45.07543536045325" lon="5.358147159460555"><ele>515.0</ele><time>2026-05-02T14:46:15.999Z</time></trkpt><trkpt lat="45.07547696769926" lon="5.357922941361219"><ele>513.0</ele><time>2026-05-02T14:46:16.999Z</time></trkpt><trkpt lat="45.07548300479646" lon="5.357717172104791"><ele>513.0</ele><time>2026-05-02T14:46:17.999Z</time></trkpt><trkpt lat="45.07548976144542" lon="5.357547655048871"><ele>513.0</ele><time>2026-05-02T14:46:18.999Z</time></trkpt><trkpt lat="45.07548568411078" lon="5.357405427203117"><ele>513.0</ele><time>2026-05-02T14:46:19.999Z</time></trkpt><trkpt lat="45.07549050557297" lon="5.357295261824387"><ele>513.0</ele><time>2026-05-02T14:46:20.999Z</time></trkpt><trkpt lat="45.07548128650653" lon="5.357165587985296"><ele>513.0</ele><time>2026-05-02T14:46:21.999Z</time></trkpt><trkpt lat="45.07545339557222" lon="5.357040529765531"><ele>517.5</ele><time>2026-05-02T14:46:22.999Z</time></trkpt><trkpt lat="45.07537876915327" lon="5.356931841700259"><ele>522.0</ele><time>2026-05-02T14:46:23.999Z</time></trkpt><trkpt lat="45.07527982670028" lon="5.3568213026015155"><ele>526.5</ele><time>2026-05-02T14:46:24.999Z</time></trkpt><trkpt lat="45.07519827415877" lon="5.356677823913008"><ele>531.0</ele><time>2026-05-02T14:46:25.999Z</time></trkpt><trkpt lat="45.07514173752715" lon="5.356533709584543"><ele>531.0</ele><time>2026-05-02T14:46:26.999Z</time></trkpt><trkpt lat="45.07508513680673" lon="5.356424235558447"><ele>531.0</ele><time>2026-05-02T14:46:27.999Z</time></trkpt><trkpt lat="45.075068286792934" lon="5.356321744590344"><ele>531.0</ele><time>2026-05-02T14:46:28.999Z</time></trkpt><trkpt lat="45.075079610535774" lon="5.3561865748239645"><ele>531.0</ele><time>2026-05-02T14:46:29.999Z</time></trkpt><trkpt lat="45.075153996784266" lon="5.356023873767295"><ele>531.0</ele><time>2026-05-02T14:46:30.999Z</time></trkpt><trkpt lat="45.07521689736723" lon="5.355847674973873"><ele>533.2</ele><time>2026-05-02T14:46:31.999Z</time></trkpt><trkpt lat="45.07527222721387" lon="5.355691829747377"><ele>535.4000000000001</ele><time>2026-05-02T14:46:32.999Z</time></trkpt><trkpt lat="45.07530096281244" lon="5.355558551492089"><ele>537.6</ele><time>2026-05-02T14:46:33.999Z</time></trkpt><trkpt lat="45.075314400368434" lon="5.3554339936806805"><ele>539.8000000000001</ele><time>2026-05-02T14:46:34.999Z</time></trkpt><trkpt lat="45.07532385502037" lon="5.355322748614335"><ele>542.0</ele><time>2026-05-02T14:46:35.999Z</time></trkpt><trkpt lat="45.07532575851611" lon="5.355209203313038"><ele>542.75</ele><time>2026-05-02T14:46:36.999Z</time></trkpt><trkpt lat="45.0753129423888" lon="5.355047610236552"><ele>543.5</ele><time>2026-05-02T14:46:37.999Z</time></trkpt><trkpt lat="45.07526469220943" lon="5.354834674872615"><ele>544.25</ele><time>2026-05-02T14:46:38.999Z</time></trkpt><trkpt lat="45.07520741298368" lon="5.354601760588743"><ele>545.0</ele><time>2026-05-02T14:46:39.999Z</time></trkpt><trkpt lat="45.07514804956661" lon="5.35443665352435"><ele>545.4</ele><time>2026-05-02T14:46:40.999Z</time></trkpt><trkpt lat="45.07510093420035" lon="5.354310220260024"><ele>545.8</ele><time>2026-05-02T14:46:41.999Z</time></trkpt><trkpt lat="45.07505954028629" lon="5.354217580522175"><ele>546.2</ele><time>2026-05-02T14:46:42.999Z</time></trkpt><trkpt lat="45.075101020629965" lon="5.354089927971861"><ele>546.6</ele><time>2026-05-02T14:46:44.999Z</time></trkpt><trkpt lat="45.075170579565196" lon="5.354112688931231"><ele>547.0</ele><time>2026-05-02T14:46:45.999Z</time></trkpt><trkpt lat="45.07518409305247" lon="5.354257215144705"><ele>547.0</ele><time>2026-05-02T14:46:46.999Z</time></trkpt><trkpt lat="45.07523830916912" lon="5.354401551510079"><ele>547.0</ele><time>2026-05-02T14:46:47.999Z</time></trkpt><trkpt lat="45.07531962671076" lon="5.354569432519099"><ele>547.0</ele><time>2026-05-02T14:46:48.999Z</time></trkpt><trkpt lat="45.075405598391065" lon="5.354760416073138"><ele>547.0</ele><time>2026-05-02T14:46:49.999Z</time></trkpt><trkpt lat="45.075477381863216" lon="5.354957232164149"><ele>546.3333333333334</ele><time>2026-05-02T14:46:50.999Z</time></trkpt><trkpt lat="45.0755292479638" lon="5.355143260695087"><ele>545.6666666666666</ele><time>2026-05-02T14:46:51.999Z</time></trkpt><trkpt lat="45.07557205857916" lon="5.355361229632015"><ele>545.0</ele><time>2026-05-02T14:46:52.999Z</time></trkpt><trkpt lat="45.075602894317235" lon="5.355617666924679"><ele>544.25</ele><time>2026-05-02T14:46:53.999Z</time></trkpt><trkpt lat="45.07562358015107" lon="5.355860118026416"><ele>543.5</ele><time>2026-05-02T14:46:54.999Z</time></trkpt><trkpt lat="45.07563284275645" lon="5.35605196666515"><ele>542.75</ele><time>2026-05-02T14:46:55.999Z</time></trkpt><trkpt lat="45.075656903283" lon="5.356213103182767"><ele>542.0</ele><time>2026-05-02T14:46:56.999Z</time></trkpt><trkpt lat="45.07567251829337" lon="5.3563615853905295"><ele>539.25</ele><time>2026-05-02T14:46:57.999Z</time></trkpt><trkpt lat="45.07573380430222" lon="5.35650748448523"><ele>536.5</ele><time>2026-05-02T14:46:58.999Z</time></trkpt><trkpt lat="45.07584028907141" lon="5.356644550998615"><ele>533.75</ele><time>2026-05-02T14:46:59.999Z</time></trkpt><trkpt lat="45.07593455935573" lon="5.356819643291717"><ele>531.0</ele><time>2026-05-02T14:47:00.999Z</time></trkpt><trkpt lat="45.07599921259959" lon="5.357026593039137"><ele>541.6666666666666</ele><time>2026-05-02T14:47:01.999Z</time></trkpt><trkpt lat="45.076043870541056" lon="5.357236133301859"><ele>552.3333333333333</ele><time>2026-05-02T14:47:02.999Z</time></trkpt><trkpt lat="45.07609184726029" lon="5.357440324263208"><ele>563.0</ele><time>2026-05-02T14:47:03.999Z</time></trkpt><trkpt lat="45.07613780805725" lon="5.357632733370814"><ele>563.0</ele><time>2026-05-02T14:47:04.999Z</time></trkpt><trkpt lat="45.07617835036626" lon="5.3578191751952415"><ele>563.0</ele><time>2026-05-02T14:47:05.999Z</time></trkpt><trkpt lat="45.07621618028998" lon="5.357997970753002"><ele>563.0</ele><time>2026-05-02T14:47:06.999Z</time></trkpt><trkpt lat="45.076255240262206" lon="5.358161738406783"><ele>563.0</ele><time>2026-05-02T14:47:07.999Z</time></trkpt><trkpt lat="45.0762937415371" lon="5.358320238874448"><ele>562.75</ele><time>2026-05-02T14:47:08.999Z</time></trkpt><trkpt lat="45.0763278424569" lon="5.358494677099037"><ele>562.5</ele><time>2026-05-02T14:47:09.999Z</time></trkpt><trkpt lat="45.076348401959784" lon="5.358689289341691"><ele>562.25</ele><time>2026-05-02T14:47:10.999Z</time></trkpt><trkpt lat="45.07634012821242" lon="5.358861689272831"><ele>562.0</ele><time>2026-05-02T14:47:11.999Z</time></trkpt><trkpt lat="45.07632550743809" lon="5.359006807084553"><ele>562.0</ele><time>2026-05-02T14:47:12.999Z</time></trkpt><trkpt lat="45.07631934526506" lon="5.359119996104343"><ele>562.0</ele><time>2026-05-02T14:47:13.999Z</time></trkpt><trkpt lat="45.076349427128825" lon="5.359234908985687"><ele>562.0</ele><time>2026-05-02T14:47:14.999Z</time></trkpt><trkpt lat="45.07644714330191" lon="5.359321118107388"><ele>562.0</ele><time>2026-05-02T14:47:15.999Z</time></trkpt><trkpt lat="45.076572437125165" lon="5.359408570630834"><ele>562.0</ele><time>2026-05-02T14:47:16.999Z</time></trkpt><trkpt lat="45.07668982571606" lon="5.359551366451079"><ele>567.0</ele><time>2026-05-02T14:47:17.999Z</time></trkpt><trkpt lat="45.07683595256775" lon="5.359681101494278"><ele>572.0</ele><time>2026-05-02T14:47:18.999Z</time></trkpt><trkpt lat="45.076946495838904" lon="5.359799621632036"><ele>577.0</ele><time>2026-05-02T14:47:19.999Z</time></trkpt><trkpt lat="45.077055035115805" lon="5.359861430518223"><ele>582.0</ele><time>2026-05-02T14:47:20.999Z</time></trkpt><trkpt lat="45.07718787149798" lon="5.3598729507066025"><ele>582.0</ele><time>2026-05-02T14:47:21.999Z</time></trkpt><trkpt lat="45.07733642780136" lon="5.359845474102289"><ele>582.0</ele><time>2026-05-02T14:47:23Z</time></trkpt><trkpt lat="45.077493088383335" lon="5.359831567324758"><ele>582.0</ele><time>2026-05-02T14:47:24Z</time></trkpt><trkpt lat="45.07762023020977" lon="5.359862796587472"><ele>582.0</ele><time>2026-05-02T14:47:25Z</time></trkpt><trkpt lat="45.07769490629041" lon="5.359973801256605"><ele>590.3333333333334</ele><time>2026-05-02T14:47:26Z</time></trkpt><trkpt lat="45.07779009554911" lon="5.360105786801901"><ele>598.6666666666667</ele><time>2026-05-02T14:47:27Z</time></trkpt><trkpt lat="45.07793014516851" lon="5.360201714480871"><ele>607.0</ele><time>2026-05-02T14:47:28Z</time></trkpt><trkpt lat="45.078057323277434" lon="5.360361619338841"><ele>607.0</ele><time>2026-05-02T14:47:29Z</time></trkpt><trkpt lat="45.078190353499885" lon="5.360522444765517"><ele>607.0</ele><time>2026-05-02T14:47:30Z</time></trkpt><trkpt lat="45.07832008496595" lon="5.360617073574688"><ele>607.0</ele><time>2026-05-02T14:47:31Z</time></trkpt><trkpt lat="45.07845733627784" lon="5.360689091601694"><ele>605.6666666666667</ele><time>2026-05-02T14:47:32Z</time></trkpt><trkpt lat="45.0786324845981" lon="5.360720719044229"><ele>604.3333333333334</ele><time>2026-05-02T14:47:33Z</time></trkpt><trkpt lat="45.07881344950847" lon="5.360772266922301"><ele>603.0</ele><time>2026-05-02T14:47:34Z</time></trkpt><trkpt lat="45.07898788213773" lon="5.360818088698683"><ele>606.6666666666666</ele><time>2026-05-02T14:47:35Z</time></trkpt><trkpt lat="45.079171286834516" lon="5.36080806428676"><ele>610.3333333333333</ele><time>2026-05-02T14:47:36Z</time></trkpt><trkpt lat="45.07938115815276" lon="5.36078481204888"><ele>614.0</ele><time>2026-05-02T14:47:37Z</time></trkpt><trkpt lat="45.07955435710631" lon="5.360843350006935"><ele>614.0</ele><time>2026-05-02T14:47:38Z</time></trkpt><trkpt lat="45.079691498869224" lon="5.3609246375764315"><ele>614.0</ele><time>2026-05-02T14:47:39Z</time></trkpt><trkpt lat="45.07982578051264" lon="5.361038871442542"><ele>614.0</ele><time>2026-05-02T14:47:40Z</time></trkpt><trkpt lat="45.07993930286446" lon="5.361174252949223"><ele>615.0</ele><time>2026-05-02T14:47:41Z</time></trkpt><trkpt lat="45.08004147998063" lon="5.361313249879663"><ele>616.0</ele><time>2026-05-02T14:47:42Z</time></trkpt><trkpt lat="45.08013309961396" lon="5.361449892378236"><ele>617.0</ele><time>2026-05-02T14:47:43Z</time></trkpt><trkpt lat="45.080203895415934" lon="5.361574224975539"><ele>618.0</ele><time>2026-05-02T14:47:44Z</time></trkpt><trkpt lat="45.0802523919147" lon="5.361705300107016"><ele>618.0</ele><time>2026-05-02T14:47:45Z</time></trkpt><trkpt lat="45.080297889022894" lon="5.361837525942702"><ele>618.0</ele><time>2026-05-02T14:47:46Z</time></trkpt><trkpt lat="45.08035410067945" lon="5.361971414883887"><ele>618.0</ele><time>2026-05-02T14:47:47Z</time></trkpt><trkpt lat="45.080431976824954" lon="5.362093940077584"><ele>618.0</ele><time>2026-05-02T14:47:48Z</time></trkpt><trkpt lat="45.080501382268125" lon="5.362261605305219"><ele>616.3333333333334</ele><time>2026-05-02T14:47:49Z</time></trkpt><trkpt lat="45.080532394715114" lon="5.362466006966074"><ele>614.6666666666667</ele><time>2026-05-02T14:47:50Z</time></trkpt><trkpt lat="45.08052822359653" lon="5.362690705737781"><ele>613.0</ele><time>2026-05-02T14:47:51Z</time></trkpt><trkpt lat="45.08048674911521" lon="5.362907057451681"><ele>615.0</ele><time>2026-05-02T14:47:52Z</time></trkpt><trkpt lat="45.0804178810683" lon="5.3631042918631"><ele>617.0</ele><time>2026-05-02T14:47:53Z</time></trkpt><trkpt lat="45.080365421525755" lon="5.363302288365739"><ele>619.0</ele><time>2026-05-02T14:47:54Z</time></trkpt><trkpt lat="45.08031722080009" lon="5.363492571809627"><ele>621.0</ele><time>2026-05-02T14:47:55Z</time></trkpt><trkpt lat="45.080267535837784" lon="5.363687960296429"><ele>623.75</ele><time>2026-05-02T14:47:56Z</time></trkpt><trkpt lat="45.080269723450215" lon="5.363894505472946"><ele>626.5</ele><time>2026-05-02T14:47:57Z</time></trkpt><trkpt lat="45.08029802221443" lon="5.364085832974058"><ele>629.25</ele><time>2026-05-02T14:47:58Z</time></trkpt><trkpt lat="45.08030014123507" lon="5.364254514138466"><ele>632.0</ele><time>2026-05-02T14:47:59Z</time></trkpt><trkpt lat="45.08027239046035" lon="5.364409738723416"><ele>632.0</ele><time>2026-05-02T14:48:00Z</time></trkpt><trkpt lat="45.080221484607044" lon="5.3645769255778575"><ele>632.0</ele><time>2026-05-02T14:48:01Z</time></trkpt><trkpt lat="45.08019770808511" lon="5.36474124251309"><ele>632.0</ele><time>2026-05-02T14:48:02Z</time></trkpt><trkpt lat="45.08022690110599" lon="5.364936735781426"><ele>632.0</ele><time>2026-05-02T14:48:03Z</time></trkpt><trkpt lat="45.08024807017101" lon="5.365141393063915"><ele>633.6</ele><time>2026-05-02T14:48:04Z</time></trkpt><trkpt lat="45.08026555428512" lon="5.365295415456128"><ele>635.2</ele><time>2026-05-02T14:48:05Z</time></trkpt><trkpt lat="45.08027453930599" lon="5.36539332057715"><ele>636.8</ele><time>2026-05-02T14:48:06Z</time></trkpt><trkpt lat="45.08021328276598" lon="5.365544766312982"><ele>638.4</ele><time>2026-05-02T14:48:08Z</time></trkpt><trkpt lat="45.08014831707558" lon="5.365676347994229"><ele>640.0</ele><time>2026-05-02T14:48:09Z</time></trkpt><trkpt lat="45.08006567375814" lon="5.36579885514135"><ele>637.75</ele><time>2026-05-02T14:48:10Z</time></trkpt><trkpt lat="45.07996286151465" lon="5.365910014295191"><ele>635.5</ele><time>2026-05-02T14:48:11Z</time></trkpt><trkpt lat="45.0799022695314" lon="5.366081722127464"><ele>633.25</ele><time>2026-05-02T14:48:12Z</time></trkpt><trkpt lat="45.079812251358625" lon="5.3662092500762055"><ele>631.0</ele><time>2026-05-02T14:48:13Z</time></trkpt><trkpt lat="45.07971451285376" lon="5.3663097898209235"><ele>631.0</ele><time>2026-05-02T14:48:14Z</time></trkpt><trkpt lat="45.07959069155353" lon="5.366357194287308"><ele>631.0</ele><time>2026-05-02T14:48:15Z</time></trkpt><trkpt lat="45.07948426103593" lon="5.36644989895773"><ele>631.0</ele><time>2026-05-02T14:48:16Z</time></trkpt><trkpt lat="45.079391098206855" lon="5.366573688491834"><ele>631.0</ele><time>2026-05-02T14:48:17Z</time></trkpt><trkpt lat="45.07929056319559" lon="5.366758424487764"><ele>635.3333333333334</ele><time>2026-05-02T14:48:18Z</time></trkpt><trkpt lat="45.079191197325734" lon="5.366988662870311"><ele>639.6666666666666</ele><time>2026-05-02T14:48:19Z</time></trkpt><trkpt lat="45.079082985487474" lon="5.367216890186189"><ele>644.0</ele><time>2026-05-02T14:48:19.999Z</time></trkpt><trkpt lat="45.07895870547949" lon="5.36745700473173"><ele>644.0</ele><time>2026-05-02T14:48:20.999Z</time></trkpt><trkpt lat="45.07882963661754" lon="5.367704053103571"><ele>644.0</ele><time>2026-05-02T14:48:21.999Z</time></trkpt><trkpt lat="45.07871967109255" lon="5.367886568897492"><ele>644.0</ele><time>2026-05-02T14:48:22.999Z</time></trkpt><trkpt lat="45.07861425530508" lon="5.368048202659686"><ele>648.0</ele><time>2026-05-02T14:48:23.999Z</time></trkpt><trkpt lat="45.078536700549925" lon="5.368212396829114"><ele>652.0</ele><time>2026-05-02T14:48:24.999Z</time></trkpt><trkpt lat="45.07849034877057" lon="5.368376241825967"><ele>656.0</ele><time>2026-05-02T14:48:25.999Z</time></trkpt><trkpt lat="45.07847668363415" lon="5.368546543016798"><ele>660.0</ele><time>2026-05-02T14:48:26.999Z</time></trkpt><trkpt lat="45.078479622159094" lon="5.368705421334253"><ele>663.0</ele><time>2026-05-02T14:48:27.999Z</time></trkpt><trkpt lat="45.07852927788339" lon="5.368860807864058"><ele>666.0</ele><time>2026-05-02T14:48:28.999Z</time></trkpt><trkpt lat="45.07860455262062" lon="5.369015387959569"><ele>669.0</ele><time>2026-05-02T14:48:29.999Z</time></trkpt><trkpt lat="45.07867312819885" lon="5.369186569154003"><ele>672.0</ele><time>2026-05-02T14:48:30.999Z</time></trkpt><trkpt lat="45.07870256244862" lon="5.369346779264037"><ele>672.0</ele><time>2026-05-02T14:48:31.999Z</time></trkpt><trkpt lat="45.07869771033905" lon="5.369534262299766"><ele>672.0</ele><time>2026-05-02T14:48:32.999Z</time></trkpt><trkpt lat="45.07869616967901" lon="5.369788061578791"><ele>672.0</ele><time>2026-05-02T14:48:33.999Z</time></trkpt><trkpt lat="45.07869801219761" lon="5.369983705208838"><ele>673.0</ele><time>2026-05-02T14:48:34.999Z</time></trkpt><trkpt lat="45.07867885119753" lon="5.370148813001487"><ele>674.0</ele><time>2026-05-02T14:48:35.999Z</time></trkpt><trkpt lat="45.07864401560714" lon="5.370305121277893"><ele>675.0</ele><time>2026-05-02T14:48:36.999Z</time></trkpt><trkpt lat="45.078593321576655" lon="5.370464806146726"><ele>676.0</ele><time>2026-05-02T14:48:37.999Z</time></trkpt><trkpt lat="45.078529539258454" lon="5.370562395304322"><ele>676.8333333333334</ele><time>2026-05-02T14:48:38.999Z</time></trkpt><trkpt lat="45.07845284489724" lon="5.370623459110258"><ele>677.6666666666667</ele><time>2026-05-02T14:48:39.999Z</time></trkpt><trkpt lat="45.07838101575514" lon="5.370690826256711"><ele>678.5</ele><time>2026-05-02T14:48:40.999Z</time></trkpt><trkpt lat="45.078326374186176" lon="5.370769679160824"><ele>679.3333333333334</ele><time>2026-05-02T14:48:41.999Z</time></trkpt><trkpt lat="45.07829889526793" lon="5.370879667568082"><ele>680.1666666666666</ele><time>2026-05-02T14:48:42.999Z</time></trkpt><trkpt lat="45.078305155159555" lon="5.371023884258189"><ele>681.0</ele><time>2026-05-02T14:48:43.999Z</time></trkpt><trkpt lat="45.07839817259808" lon="5.371183529693019"><ele>681.0</ele><time>2026-05-02T14:48:44.999Z</time></trkpt><trkpt lat="45.07851117667517" lon="5.3713519273014665"><ele>681.0</ele><time>2026-05-02T14:48:45.999Z</time></trkpt><trkpt lat="45.07863173661782" lon="5.371569591821356"><ele>681.0</ele><time>2026-05-02T14:48:46.999Z</time></trkpt><trkpt lat="45.078773330061374" lon="5.371806894256859"><ele>680.6666666666666</ele><time>2026-05-02T14:48:47.999Z</time></trkpt><trkpt lat="45.078898504540554" lon="5.372045610044595"><ele>680.3333333333333</ele><time>2026-05-02T14:48:48.999Z</time></trkpt><trkpt lat="45.07898900632354" lon="5.372272139280414"><ele>680.0</ele><time>2026-05-02T14:48:49.999Z</time></trkpt><trkpt lat="45.079072881349724" lon="5.372511118827154"><ele>680.0</ele><time>2026-05-02T14:48:50.999Z</time></trkpt><trkpt lat="45.079143858935126" lon="5.3727392059930725"><ele>680.0</ele><time>2026-05-02T14:48:51.999Z</time></trkpt><trkpt lat="45.07921237629059" lon="5.372960929576012"><ele>680.0</ele><time>2026-05-02T14:48:52.999Z</time></trkpt><trkpt lat="45.07929240935314" lon="5.373186760970287"><ele>680.0</ele><time>2026-05-02T14:48:53.999Z</time></trkpt><trkpt lat="45.07937124201571" lon="5.3734017647883245"><ele>680.0</ele><time>2026-05-02T14:48:54.999Z</time></trkpt><trkpt lat="45.07941909809748" lon="5.373604546740684"><ele>680.0</ele><time>2026-05-02T14:48:55.999Z</time></trkpt><trkpt lat="45.07944088630327" lon="5.373850979194639"><ele>691.0</ele><time>2026-05-02T14:48:56.999Z</time></trkpt><trkpt lat="45.07944913441752" lon="5.374139909051312"><ele>702.0</ele><time>2026-05-02T14:48:57.999Z</time></trkpt><trkpt lat="45.07946123668998" lon="5.374408592097944"><ele>713.0</ele><time>2026-05-02T14:48:58.999Z</time></trkpt><trkpt lat="45.07944760715402" lon="5.3746639724856085"><ele>716.6666666666666</ele><time>2026-05-02T14:48:59.999Z</time></trkpt><trkpt lat="45.07940927394217" lon="5.374916625089016"><ele>720.3333333333334</ele><time>2026-05-02T14:49:00.999Z</time></trkpt><trkpt lat="45.07935363496077" lon="5.375200452100501"><ele>724.0</ele><time>2026-05-02T14:49:01.999Z</time></trkpt><trkpt lat="45.07931186374167" lon="5.375438379844149"><ele>720.5</ele><time>2026-05-02T14:49:02.999Z</time></trkpt><trkpt lat="45.07926956173476" lon="5.375636424429716"><ele>717.0</ele><time>2026-05-02T14:49:03.999Z</time></trkpt><trkpt lat="45.079212458071005" lon="5.375779281413659"><ele>713.5</ele><time>2026-05-02T14:49:04.999Z</time></trkpt><trkpt lat="45.07913475069491" lon="5.375895195761723"><ele>710.0</ele><time>2026-05-02T14:49:05.999Z</time></trkpt><trkpt lat="45.07902438292506" lon="5.376009044952612"><ele>710.0</ele><time>2026-05-02T14:49:06.999Z</time></trkpt><trkpt lat="45.078926177348386" lon="5.376105410351491"><ele>710.0</ele><time>2026-05-02T14:49:07.999Z</time></trkpt><trkpt lat="45.078848459320454" lon="5.376169065801623"><ele>710.0</ele><time>2026-05-02T14:49:08.999Z</time></trkpt><trkpt lat="45.078809368489864" lon="5.376248931249533"><ele>710.0</ele><time>2026-05-02T14:49:09.999Z</time></trkpt><trkpt lat="45.07881256272282" lon="5.376403828255947"><ele>710.0</ele><time>2026-05-02T14:49:11.999Z</time></trkpt><trkpt lat="45.07889059063195" lon="5.376404680294439"><ele>717.25</ele><time>2026-05-02T14:49:12.999Z</time></trkpt><trkpt lat="45.078997752167815" lon="5.376356361502203"><ele>724.5</ele><time>2026-05-02T14:49:13.999Z</time></trkpt><trkpt lat="45.079111974096804" lon="5.3762126023290175"><ele>731.75</ele><time>2026-05-02T14:49:14.999Z</time></trkpt><trkpt lat="45.07923740942552" lon="5.3760700515366615"><ele>739.0</ele><time>2026-05-02T14:49:15.999Z</time></trkpt><trkpt lat="45.079360155815145" lon="5.37590956745101"><ele>739.0</ele><time>2026-05-02T14:49:16.999Z</time></trkpt><trkpt lat="45.0794652466" lon="5.375752873083528"><ele>739.0</ele><time>2026-05-02T14:49:17.999Z</time></trkpt><trkpt lat="45.079567789686116" lon="5.375527422248652"><ele>739.0</ele><time>2026-05-02T14:49:18.999Z</time></trkpt><trkpt lat="45.07966853595456" lon="5.375239634074517"><ele>734.0</ele><time>2026-05-02T14:49:19.999Z</time></trkpt><trkpt lat="45.079767617757916" lon="5.374985891620513"><ele>729.0</ele><time>2026-05-02T14:49:20.999Z</time></trkpt><trkpt lat="45.07983447803154" lon="5.374751524772358"><ele>724.0</ele><time>2026-05-02T14:49:21.999Z</time></trkpt><trkpt lat="45.07988202368071" lon="5.374498282482437"><ele>720.3333333333334</ele><time>2026-05-02T14:49:22.999Z</time></trkpt><trkpt lat="45.07990109725854" lon="5.374202207137722"><ele>716.6666666666666</ele><time>2026-05-02T14:49:23.999Z</time></trkpt><trkpt lat="45.079945508152676" lon="5.37389480305522"><ele>713.0</ele><time>2026-05-02T14:49:24.999Z</time></trkpt><trkpt lat="45.07994621533745" lon="5.373610408994545"><ele>713.0</ele><time>2026-05-02T14:49:25.999Z</time></trkpt><trkpt lat="45.079969771241906" lon="5.373366598861359"><ele>713.0</ele><time>2026-05-02T14:49:26.999Z</time></trkpt><trkpt lat="45.0799738585295" lon="5.373160945503022"><ele>713.0</ele><time>2026-05-02T14:49:27.999Z</time></trkpt><trkpt lat="45.07996272697655" lon="5.372984280690396"><ele>713.0</ele><time>2026-05-02T14:49:29Z</time></trkpt><trkpt lat="45.079927416921365" lon="5.372816029320645"><ele>713.0</ele><time>2026-05-02T14:49:30Z</time></trkpt><trkpt lat="45.07990290922134" lon="5.372629287074115"><ele>713.0</ele><time>2026-05-02T14:49:31Z</time></trkpt><trkpt lat="45.079872802553396" lon="5.372438148458897"><ele>713.0</ele><time>2026-05-02T14:49:32Z</time></trkpt><trkpt lat="45.07985412146911" lon="5.372232911779154"><ele>713.0</ele><time>2026-05-02T14:49:33Z</time></trkpt><trkpt lat="45.0798368917961" lon="5.372019689145228"><ele>713.0</ele><time>2026-05-02T14:49:34Z</time></trkpt><trkpt lat="45.07982290440959" lon="5.371812794022644"><ele>713.0</ele><time>2026-05-02T14:49:35Z</time></trkpt><trkpt lat="45.079795859242054" lon="5.371613009676992"><ele>713.0</ele><time>2026-05-02T14:49:36Z</time></trkpt><trkpt lat="45.07973698629092" lon="5.3714423741990585"><ele>713.0</ele><time>2026-05-02T14:49:37Z</time></trkpt><trkpt lat="45.07966878623196" lon="5.3712944676482355"><ele>713.0</ele><time>2026-05-02T14:49:38Z</time></trkpt><trkpt lat="45.07960465006599" lon="5.371186021252909"><ele>713.0</ele><time>2026-05-02T14:49:39Z</time></trkpt><trkpt lat="45.07957284691924" lon="5.371086830154176"><ele>713.0</ele><time>2026-05-02T14:49:40Z</time></trkpt><trkpt lat="45.079544469790385" lon="5.371004864499543"><ele>713.0</ele><time>2026-05-02T14:49:41Z</time></trkpt><trkpt lat="45.07960493923415" lon="5.370904370465414"><ele>713.0</ele><time>2026-05-02T14:49:43Z</time></trkpt><trkpt lat="45.07966473983571" lon="5.370953582052317"><ele>713.0</ele><time>2026-05-02T14:49:44Z</time></trkpt><trkpt lat="45.07968024472241" lon="5.371092499487032"><ele>713.0</ele><time>2026-05-02T14:49:45Z</time></trkpt><trkpt lat="45.07973283932626" lon="5.371186904392889"><ele>713.0</ele><time>2026-05-02T14:49:46Z</time></trkpt><trkpt lat="45.079778789554574" lon="5.371299110838082"><ele>713.0</ele><time>2026-05-02T14:49:47Z</time></trkpt><trkpt lat="45.07982949357139" lon="5.371412806488698"><ele>713.0</ele><time>2026-05-02T14:49:48Z</time></trkpt><trkpt lat="45.07987605240585" lon="5.3715344034736825"><ele>713.0</ele><time>2026-05-02T14:49:49Z</time></trkpt><trkpt lat="45.0799098439838" lon="5.371673493286877"><ele>713.0</ele><time>2026-05-02T14:49:50Z</time></trkpt><trkpt lat="45.07994080262473" lon="5.371835895224835"><ele>713.0</ele><time>2026-05-02T14:49:51Z</time></trkpt><trkpt lat="45.07997052709306" lon="5.371995979206089"><ele>713.0</ele><time>2026-05-02T14:49:52Z</time></trkpt><trkpt lat="45.08000281653311" lon="5.372150600761847"><ele>713.0</ele><time>2026-05-02T14:49:53Z</time></trkpt><trkpt lat="45.08004350726374" lon="5.372288814049956"><ele>713.0</ele><time>2026-05-02T14:49:54Z</time></trkpt><trkpt lat="45.08008186984005" lon="5.372402886623881"><ele>713.0</ele><time>2026-05-02T14:49:55Z</time></trkpt><trkpt lat="45.08012023499648" lon="5.372513625158809"><ele>713.0</ele><time>2026-05-02T14:49:56Z</time></trkpt><trkpt lat="45.080155139465155" lon="5.372621548767297"><ele>713.0</ele><time>2026-05-02T14:49:57Z</time></trkpt><trkpt lat="45.08018473825116" lon="5.372728394546686"><ele>713.0</ele><time>2026-05-02T14:49:58Z</time></trkpt><trkpt lat="45.080210823859" lon="5.3728463012014585"><ele>713.0</ele><time>2026-05-02T14:49:59Z</time></trkpt><trkpt lat="45.08023012185193" lon="5.372986700002291"><ele>713.0</ele><time>2026-05-02T14:50:00Z</time></trkpt><trkpt lat="45.08023951737366" lon="5.373110261882845"><ele>713.0</ele><time>2026-05-02T14:50:01Z</time></trkpt><trkpt lat="45.08024247071421" lon="5.373218059077172"><ele>713.0</ele><time>2026-05-02T14:50:02Z</time></trkpt><trkpt lat="45.080246322448346" lon="5.373312226751164"><ele>713.0</ele><time>2026-05-02T14:50:03Z</time></trkpt><trkpt lat="45.08026388190088" lon="5.3734231778197685"><ele>713.0</ele><time>2026-05-02T14:50:04Z</time></trkpt><trkpt lat="45.08027209297108" lon="5.373563020586643"><ele>713.0</ele><time>2026-05-02T14:50:05Z</time></trkpt><trkpt lat="45.080315497004555" lon="5.373744645950177"><ele>727.75</ele><time>2026-05-02T14:50:06Z</time></trkpt><trkpt lat="45.080353285140596" lon="5.373922425684891"><ele>742.5</ele><time>2026-05-02T14:50:07Z</time></trkpt><trkpt lat="45.080386314224015" lon="5.374085277951147"><ele>757.25</ele><time>2026-05-02T14:50:08Z</time></trkpt><trkpt lat="45.080358640915414" lon="5.3742475970138575"><ele>772.0</ele><time>2026-05-02T14:50:09Z</time></trkpt><trkpt lat="45.08033978143359" lon="5.374403950510872"><ele>772.0</ele><time>2026-05-02T14:50:10Z</time></trkpt><trkpt lat="45.08031566225619" lon="5.374553701514279"><ele>772.0</ele><time>2026-05-02T14:50:11Z</time></trkpt><trkpt lat="45.080284464345205" lon="5.374705772402895"><ele>772.0</ele><time>2026-05-02T14:50:12Z</time></trkpt><trkpt lat="45.08023560972288" lon="5.374846616085064"><ele>772.0</ele><time>2026-05-02T14:50:13Z</time></trkpt><trkpt lat="45.08019871310666" lon="5.374963551743158"><ele>772.0</ele><time>2026-05-02T14:50:14Z</time></trkpt><trkpt lat="45.08015700262974" lon="5.375059529619659"><ele>772.4999999999999</ele><time>2026-05-02T14:50:15Z</time></trkpt><trkpt lat="45.08013693955254" lon="5.375162384652393"><ele>773.0</ele><time>2026-05-02T14:50:16Z</time></trkpt><trkpt lat="45.08013608782991" lon="5.375276303469482"><ele>773.5</ele><time>2026-05-02T14:50:17Z</time></trkpt><trkpt lat="45.080170835179075" lon="5.375397502593738"><ele>774.0</ele><time>2026-05-02T14:50:18Z</time></trkpt><trkpt lat="45.0801851266496" lon="5.3755203710816994"><ele>774.4999999999999</ele><time>2026-05-02T14:50:19Z</time></trkpt><trkpt lat="45.08026329410918" lon="5.37561246166848"><ele>775.0</ele><time>2026-05-02T14:50:20Z</time></trkpt><trkpt lat="45.08029457626704" lon="5.3757456461959245"><ele>777.6666666666666</ele><time>2026-05-02T14:50:21Z</time></trkpt><trkpt lat="45.080268838277604" lon="5.375847162607706"><ele>780.3333333333333</ele><time>2026-05-02T14:50:22Z</time></trkpt><trkpt lat="45.08029421615481" lon="5.375946921884071"><ele>783.0</ele><time>2026-05-02T14:50:24Z</time></trkpt><trkpt lat="45.080299139124264" lon="5.376042673066116"><ele>785.6666666666667</ele><time>2026-05-02T14:50:25Z</time></trkpt><trkpt lat="45.08026130370378" lon="5.376156949084556"><ele>788.3333333333334</ele><time>2026-05-02T14:50:25.999Z</time></trkpt><trkpt lat="45.080207330002295" lon="5.376256786540939"><ele>791.0</ele><time>2026-05-02T14:50:26.999Z</time></trkpt><trkpt lat="45.08013616865907" lon="5.376346415422661"><ele>791.8333333333334</ele><time>2026-05-02T14:50:27.999Z</time></trkpt><trkpt lat="45.08007387724351" lon="5.376436879840842"><ele>792.6666666666667</ele><time>2026-05-02T14:50:28.999Z</time></trkpt><trkpt lat="45.08001123186278" lon="5.376533697338415"><ele>793.5</ele><time>2026-05-02T14:50:29.999Z</time></trkpt><trkpt lat="45.07996637998042" lon="5.376626862852802"><ele>794.3333333333333</ele><time>2026-05-02T14:50:30.999Z</time></trkpt><trkpt lat="45.079922692551484" lon="5.376697096080758"><ele>795.1666666666666</ele><time>2026-05-02T14:50:31.999Z</time></trkpt><trkpt lat="45.07986045597769" lon="5.3767831584115"><ele>796.0</ele><time>2026-05-02T14:50:33.999Z</time></trkpt><trkpt lat="45.0798492385721" lon="5.376919616148294"><ele>800.25</ele><time>2026-05-02T14:50:36.999Z</time></trkpt><trkpt lat="45.08004388971986" lon="5.377094244725192"><ele>804.5</ele><time>2026-05-02T15:04:02.998Z</time></trkpt><trkpt lat="45.080115696060744" lon="5.377176332574538"><ele>808.75</ele><time>2026-05-02T15:04:03.998Z</time></trkpt><trkpt lat="45.08020464713504" lon="5.377202613199642"><ele>813.0</ele><time>2026-05-02T15:04:04.998Z</time></trkpt><trkpt lat="45.08028802335485" lon="5.377236337361599"><ele>815.2</ele><time>2026-05-02T15:04:05.998Z</time></trkpt><trkpt lat="45.080355986916366" lon="5.377344273776514"><ele>817.4</ele><time>2026-05-02T15:04:06.998Z</time></trkpt><trkpt lat="45.08042689986789" lon="5.377442082259416"><ele>819.6</ele><time>2026-05-02T15:04:07.998Z</time></trkpt><trkpt lat="45.08049977789198" lon="5.377561106133851"><ele>821.8000000000001</ele><time>2026-05-02T15:04:08.998Z</time></trkpt><trkpt lat="45.08054163302491" lon="5.377647725384152"><ele>824.0</ele><time>2026-05-02T15:04:09.998Z</time></trkpt><trkpt lat="45.08059594228813" lon="5.377749756465391"><ele>824.0</ele><time>2026-05-02T15:04:11Z</time></trkpt><trkpt lat="45.080585699969575" lon="5.37789747173903"><ele>824.0</ele><time>2026-05-02T15:04:12Z</time></trkpt><trkpt lat="45.08060309960708" lon="5.3780590117081415"><ele>824.0</ele><time>2026-05-02T15:04:13Z</time></trkpt><trkpt lat="45.08061083680765" lon="5.378215902667959"><ele>824.0</ele><time>2026-05-02T15:04:14Z</time></trkpt><trkpt lat="45.08061960091663" lon="5.378369199303997"><ele>824.0</ele><time>2026-05-02T15:04:15Z</time></trkpt><trkpt lat="45.08063763770008" lon="5.378500437430696"><ele>823.6</ele><time>2026-05-02T15:04:16Z</time></trkpt><trkpt lat="45.08067143463198" lon="5.3786132995069575"><ele>823.2</ele><time>2026-05-02T15:04:17Z</time></trkpt><trkpt lat="45.08073519328444" lon="5.3787193934377795"><ele>822.8000000000001</ele><time>2026-05-02T15:04:18Z</time></trkpt><trkpt lat="45.080832016549046" lon="5.378844824663505"><ele>822.4000000000001</ele><time>2026-05-02T15:04:19Z</time></trkpt><trkpt lat="45.08093036547083" lon="5.378959860987006"><ele>822.0</ele><time>2026-05-02T15:04:20Z</time></trkpt><trkpt lat="45.08101315690594" lon="5.379069796797538"><ele>822.5</ele><time>2026-05-02T15:04:21Z</time></trkpt><trkpt lat="45.08109251803803" lon="5.37919555285323"><ele>823.0</ele><time>2026-05-02T15:04:22Z</time></trkpt><trkpt lat="45.08113646032269" lon="5.379377215716485"><ele>823.5</ele><time>2026-05-02T15:04:23Z</time></trkpt><trkpt lat="45.08118632964352" lon="5.379548804723165"><ele>824.0</ele><time>2026-05-02T15:04:24Z</time></trkpt><trkpt lat="45.081281259057995" lon="5.379693555981469"><ele>824.0</ele><time>2026-05-02T15:04:25Z</time></trkpt><trkpt lat="45.08141811788606" lon="5.379785458975961"><ele>824.0</ele><time>2026-05-02T15:04:26Z</time></trkpt><trkpt lat="45.08159097287302" lon="5.37986446043014"><ele>824.0</ele><time>2026-05-02T15:04:27Z</time></trkpt><trkpt lat="45.08176035919507" lon="5.379948032935327"><ele>822.3333333333334</ele><time>2026-05-02T15:04:28Z</time></trkpt><trkpt lat="45.08189723851997" lon="5.380060401093481"><ele>820.6666666666667</ele><time>2026-05-02T15:04:29Z</time></trkpt><trkpt lat="45.082044747065815" lon="5.380210959537046"><ele>819.0</ele><time>2026-05-02T15:04:30Z</time></trkpt><trkpt lat="45.082137251059514" lon="5.380423473512035"><ele>820.3333333333333</ele><time>2026-05-02T15:04:31Z</time></trkpt><trkpt lat="45.082261754137164" lon="5.380631603967261"><ele>821.6666666666666</ele><time>2026-05-02T15:04:32Z</time></trkpt><trkpt lat="45.08235479326125" lon="5.380742423535348"><ele>823.0</ele><time>2026-05-02T15:04:34Z</time></trkpt><trkpt lat="45.082486429897344" lon="5.380832513239046"><ele>823.3333333333333</ele><time>2026-05-02T15:04:35Z</time></trkpt><trkpt lat="45.08266159306949" lon="5.3808970267164264"><ele>823.6666666666667</ele><time>2026-05-02T15:04:36Z</time></trkpt><trkpt lat="45.082853927365804" lon="5.38096338887475"><ele>824.0</ele><time>2026-05-02T15:04:37Z</time></trkpt><trkpt lat="45.083044162519165" lon="5.381039592962789"><ele>824.0</ele><time>2026-05-02T15:04:38Z</time></trkpt><trkpt lat="45.083221893534095" lon="5.381106683143432"><ele>824.0</ele><time>2026-05-02T15:04:39Z</time></trkpt><trkpt lat="45.0833874400268" lon="5.381171686667156"><ele>824.0</ele><time>2026-05-02T15:04:40Z</time></trkpt><trkpt lat="45.08354710180253" lon="5.38123276279689"><ele>823.3333333333334</ele><time>2026-05-02T15:04:41Z</time></trkpt><trkpt lat="45.08371481247861" lon="5.381303423164719"><ele>822.6666666666667</ele><time>2026-05-02T15:04:42Z</time></trkpt><trkpt lat="45.083892620064134" lon="5.3813775550828895"><ele>822.0</ele><time>2026-05-02T15:04:43Z</time></trkpt><trkpt lat="45.08407084741493" lon="5.381455063579405"><ele>822.0</ele><time>2026-05-02T15:04:44Z</time></trkpt><trkpt lat="45.0842468362352" lon="5.3815382149734186"><ele>822.0</ele><time>2026-05-02T15:04:45Z</time></trkpt><trkpt lat="45.08442748250469" lon="5.381618447169574"><ele>822.0</ele><time>2026-05-02T15:04:46Z</time></trkpt><trkpt lat="45.08461053997008" lon="5.381694013643583"><ele>822.0</ele><time>2026-05-02T15:04:47Z</time></trkpt><trkpt lat="45.08478983721452" lon="5.381769490428829"><ele>822.0</ele><time>2026-05-02T15:04:48Z</time></trkpt><trkpt lat="45.084964597084294" lon="5.381840733399302"><ele>822.0</ele><time>2026-05-02T15:04:49Z</time></trkpt><trkpt lat="45.08513367491417" lon="5.381914576821573"><ele>823.6666666666667</ele><time>2026-05-02T15:04:50Z</time></trkpt><trkpt lat="45.085297499552674" lon="5.381987046989272"><ele>825.3333333333334</ele><time>2026-05-02T15:04:51Z</time></trkpt><trkpt lat="45.08545606236391" lon="5.382057949105682"><ele>827.0</ele><time>2026-05-02T15:04:52Z</time></trkpt><trkpt lat="45.085620512013975" lon="5.3821134426517245"><ele>828.0</ele><time>2026-05-02T15:04:53Z</time></trkpt><trkpt lat="45.085793666665516" lon="5.382163414019161"><ele>829.0</ele><time>2026-05-02T15:04:53.999Z</time></trkpt><trkpt lat="45.085979354181276" lon="5.3822009656442065"><ele>830.0</ele><time>2026-05-02T15:04:54.999Z</time></trkpt><trkpt lat="45.086167971272516" lon="5.382225250688997"><ele>830.0</ele><time>2026-05-02T15:04:55.999Z</time></trkpt><trkpt lat="45.08635798996199" lon="5.382248331013729"><ele>830.0</ele><time>2026-05-02T15:04:56.999Z</time></trkpt><trkpt lat="45.0865500517277" lon="5.382271562871739"><ele>830.0</ele><time>2026-05-02T15:04:57.999Z</time></trkpt><trkpt lat="45.086738881164344" lon="5.382307851398478"><ele>831.3333333333334</ele><time>2026-05-02T15:04:58.999Z</time></trkpt><trkpt lat="45.086927405898145" lon="5.382352071045437"><ele>832.6666666666667</ele><time>2026-05-02T15:04:59.999Z</time></trkpt><trkpt lat="45.08711831910175" lon="5.382393489770257"><ele>834.0</ele><time>2026-05-02T15:05:00.999Z</time></trkpt><trkpt lat="45.087310802704714" lon="5.382429143603805"><ele>834.6666666666667</ele><time>2026-05-02T15:05:01.999Z</time></trkpt><trkpt lat="45.08749924561355" lon="5.38246300974962"><ele>835.3333333333334</ele><time>2026-05-02T15:05:02.999Z</time></trkpt><trkpt lat="45.08768571735829" lon="5.382493953921252"><ele>836.0</ele><time>2026-05-02T15:05:03.999Z</time></trkpt><trkpt lat="45.08787012200245" lon="5.382520071751146"><ele>836.0</ele><time>2026-05-02T15:05:04.999Z</time></trkpt><trkpt lat="45.088052638558985" lon="5.382556110014078"><ele>836.0</ele><time>2026-05-02T15:05:05.999Z</time></trkpt><trkpt lat="45.08822902066194" lon="5.382619923918412"><ele>836.0</ele><time>2026-05-02T15:05:06.999Z</time></trkpt><trkpt lat="45.088402505744" lon="5.382689255276794"><ele>837.6666666666667</ele><time>2026-05-02T15:05:07.999Z</time></trkpt><trkpt lat="45.08858422563226" lon="5.382702893527695"><ele>839.3333333333333</ele><time>2026-05-02T15:05:08.999Z</time></trkpt><trkpt lat="45.088774699565256" lon="5.382667688460576"><ele>841.0</ele><time>2026-05-02T15:05:09.999Z</time></trkpt><trkpt lat="45.08897321731161" lon="5.382632318410093"><ele>842.3333333333333</ele><time>2026-05-02T15:05:10.999Z</time></trkpt><trkpt lat="45.08917655762904" lon="5.382617412263768"><ele>843.6666666666667</ele><time>2026-05-02T15:05:11.999Z</time></trkpt><trkpt lat="45.08938054364977" lon="5.382598744892454"><ele>845.0</ele><time>2026-05-02T15:05:12.999Z</time></trkpt><trkpt lat="45.0895662127154" lon="5.382577607382719"><ele>845.0</ele><time>2026-05-02T15:05:13.999Z</time></trkpt><trkpt lat="45.08972873303209" lon="5.382549103331379"><ele>845.0</ele><time>2026-05-02T15:05:14.999Z</time></trkpt><trkpt lat="45.08987211834621" lon="5.382491154798434"><ele>845.0</ele><time>2026-05-02T15:05:15.999Z</time></trkpt><trkpt lat="45.08999418089541" lon="5.38241424057234"><ele>845.0</ele><time>2026-05-02T15:05:16.999Z</time></trkpt><trkpt lat="45.09009994581308" lon="5.382348787312874"><ele>846.0</ele><time>2026-05-02T15:05:17.999Z</time></trkpt><trkpt lat="45.09020270461422" lon="5.382314621572014"><ele>847.0</ele><time>2026-05-02T15:05:18.999Z</time></trkpt><trkpt lat="45.09030588380706" lon="5.382281471864679"><ele>848.0</ele><time>2026-05-02T15:05:19.999Z</time></trkpt><trkpt lat="45.09040105139553" lon="5.38222989554441"><ele>849.0</ele><time>2026-05-02T15:05:20.999Z</time></trkpt><trkpt lat="45.090505901930584" lon="5.382186479283958"><ele>850.0</ele><time>2026-05-02T15:05:21.999Z</time></trkpt><trkpt lat="45.09060887435053" lon="5.382196199133468"><ele>850.0</ele><time>2026-05-02T15:05:22.999Z</time></trkpt><trkpt lat="45.09071990052521" lon="5.382190892495175"><ele>850.0</ele><time>2026-05-02T15:05:23.999Z</time></trkpt><trkpt lat="45.09082149959341" lon="5.382234707375028"><ele>850.0</ele><time>2026-05-02T15:05:24.999Z</time></trkpt><trkpt lat="45.090892257917105" lon="5.382281996749612"><ele>850.0</ele><time>2026-05-02T15:05:25.999Z</time></trkpt><trkpt lat="45.090960063535285" lon="5.382342787141403"><ele>850.0</ele><time>2026-05-02T15:05:26.999Z</time></trkpt><trkpt lat="45.091020124038735" lon="5.382429436334669"><ele>850.8333333333333</ele><time>2026-05-02T15:05:27.999Z</time></trkpt><trkpt lat="45.091086929717605" lon="5.382494474644122"><ele>851.6666666666666</ele><time>2026-05-02T15:05:28.999Z</time></trkpt><trkpt lat="45.09113364998955" lon="5.3825726949508175"><ele>852.5</ele><time>2026-05-02T15:05:29.999Z</time></trkpt><trkpt lat="45.091201034142735" lon="5.3825849263411545"><ele>853.3333333333333</ele><time>2026-05-02T15:05:30.999Z</time></trkpt><trkpt lat="45.09127571190246" lon="5.38255507783592"><ele>854.1666666666666</ele><time>2026-05-02T15:05:31.999Z</time></trkpt><trkpt lat="45.091355137052204" lon="5.38252014092163"><ele>855.0</ele><time>2026-05-02T15:05:32.999Z</time></trkpt><trkpt lat="45.09143460403363" lon="5.382506325126919"><ele>855.0</ele><time>2026-05-02T15:05:33.999Z</time></trkpt><trkpt lat="45.09151471914218" lon="5.382515621584949"><ele>855.0</ele><time>2026-05-02T15:05:34.999Z</time></trkpt><trkpt lat="45.09159522082493" lon="5.38252508829695"><ele>855.0</ele><time>2026-05-02T15:05:35.999Z</time></trkpt><trkpt lat="45.09168754997019" lon="5.382535909063452"><ele>855.0</ele><time>2026-05-02T15:05:36.999Z</time></trkpt><trkpt lat="45.09177417719385" lon="5.382571220805346"><ele>855.0</ele><time>2026-05-02T15:05:37.999Z</time></trkpt><trkpt lat="45.091862679823365" lon="5.3826202119884785"><ele>855.0</ele><time>2026-05-02T15:05:38.999Z</time></trkpt><trkpt lat="45.09195578368507" lon="5.38267907273113"><ele>856.0</ele><time>2026-05-02T15:05:39.999Z</time></trkpt><trkpt lat="45.09203693875888" lon="5.382776187120194"><ele>857.0</ele><time>2026-05-02T15:05:40.999Z</time></trkpt><trkpt lat="45.09209807067795" lon="5.382931511482708"><ele>858.0</ele><time>2026-05-02T15:05:41.999Z</time></trkpt><trkpt lat="45.09221248832686" lon="5.383042697099156"><ele>859.0</ele><time>2026-05-02T15:05:42.999Z</time></trkpt><trkpt lat="45.092330769901515" lon="5.383163252868195"><ele>863.3333333333333</ele><time>2026-05-02T15:05:43.999Z</time></trkpt><trkpt lat="45.092451998045334" lon="5.383287273333601"><ele>867.6666666666667</ele><time>2026-05-02T15:05:44.999Z</time></trkpt><trkpt lat="45.09256287519348" lon="5.383414520951843"><ele>872.0</ele><time>2026-05-02T15:05:45.999Z</time></trkpt><trkpt lat="45.09268134999998" lon="5.38356482383596"><ele>872.0</ele><time>2026-05-02T15:05:46.999Z</time></trkpt><trkpt lat="45.09281697672118" lon="5.383738105579513"><ele>872.0</ele><time>2026-05-02T15:05:47.999Z</time></trkpt><trkpt lat="45.092937468228676" lon="5.383904502535767"><ele>872.0</ele><time>2026-05-02T15:05:48.999Z</time></trkpt><trkpt lat="45.09303874870842" lon="5.384068352918791"><ele>874.3333333333334</ele><time>2026-05-02T15:05:49.998Z</time></trkpt><trkpt lat="45.093130818172384" lon="5.384278122111502"><ele>876.6666666666667</ele><time>2026-05-02T15:05:50.998Z</time></trkpt><trkpt lat="45.09324879804277" lon="5.38448773977725"><ele>879.0</ele><time>2026-05-02T15:05:51.998Z</time></trkpt><trkpt lat="45.093389163773224" lon="5.384663666409843"><ele>877.6666666666667</ele><time>2026-05-02T15:05:52.998Z</time></trkpt><trkpt lat="45.093539336824385" lon="5.384797092515849"><ele>876.3333333333334</ele><time>2026-05-02T15:05:53.998Z</time></trkpt><trkpt lat="45.09361437877337" lon="5.384992783746231"><ele>875.0</ele><time>2026-05-02T15:05:54.998Z</time></trkpt><trkpt lat="45.09369706630011" lon="5.385206667696806"><ele>875.0</ele><time>2026-05-02T15:05:55.998Z</time></trkpt><trkpt lat="45.09379959812876" lon="5.385391764637622"><ele>875.0</ele><time>2026-05-02T15:05:56.998Z</time></trkpt><trkpt lat="45.09393956264473" lon="5.3855380346088335"><ele>875.0</ele><time>2026-05-02T15:05:57.998Z</time></trkpt><trkpt lat="45.09412220045618" lon="5.385641964822734"><ele>876.0</ele><time>2026-05-02T15:05:58.998Z</time></trkpt><trkpt lat="45.09432935751379" lon="5.385710024204178"><ele>877.0</ele><time>2026-05-02T15:05:59.998Z</time></trkpt><trkpt lat="45.09455693817033" lon="5.385764481829212"><ele>878.0</ele><time>2026-05-02T15:06:00.998Z</time></trkpt><trkpt lat="45.09479012640161" lon="5.385861358676157"><ele>886.0</ele><time>2026-05-02T15:06:01.998Z</time></trkpt><trkpt lat="45.09501005402269" lon="5.386036029993542"><ele>894.0</ele><time>2026-05-02T15:06:02.998Z</time></trkpt><trkpt lat="45.09521546954537" lon="5.386185244553562"><ele>894.0</ele><time>2026-05-02T15:06:03.998Z</time></trkpt><trkpt lat="45.09539800343676" lon="5.386326537288079"><ele>894.0</ele><time>2026-05-02T15:06:04.998Z</time></trkpt><trkpt lat="45.09552656778069" lon="5.386441064402116"><ele>894.0</ele><time>2026-05-02T15:06:05.998Z</time></trkpt><trkpt lat="45.09561864946175" lon="5.3865316426838845"><ele>890.25</ele><time>2026-05-02T15:06:06.998Z</time></trkpt><trkpt lat="45.09564970188741" lon="5.386677576358603"><ele>886.5</ele><time>2026-05-02T15:06:07.998Z</time></trkpt><trkpt lat="45.09560411604768" lon="5.386841898631739"><ele>882.75</ele><time>2026-05-02T15:06:08.998Z</time></trkpt><trkpt lat="45.09551925132402" lon="5.386979496743491"><ele>879.0</ele><time>2026-05-02T15:06:09.998Z</time></trkpt><trkpt lat="45.09546621846338" lon="5.38714116127889"><ele>879.5</ele><time>2026-05-02T15:06:10.998Z</time></trkpt><trkpt lat="45.09543698155212" lon="5.387286574035145"><ele>880.0</ele><time>2026-05-02T15:06:11.998Z</time></trkpt><trkpt lat="45.09547352866426" lon="5.387436347246128"><ele>880.5</ele><time>2026-05-02T15:06:12.998Z</time></trkpt><trkpt lat="45.09557038558164" lon="5.387541845408721"><ele>881.0</ele><time>2026-05-02T15:06:13.998Z</time></trkpt><trkpt lat="45.09569426851166" lon="5.387582260748711"><ele>885.6666666666667</ele><time>2026-05-02T15:06:14.998Z</time></trkpt><trkpt lat="45.09583846364712" lon="5.387539351938907"><ele>890.3333333333333</ele><time>2026-05-02T15:06:15.998Z</time></trkpt><trkpt lat="45.09599510145477" lon="5.3874530591594345"><ele>895.0</ele><time>2026-05-02T15:06:17Z</time></trkpt><trkpt lat="45.09615771447125" lon="5.387412385192313"><ele>895.0</ele><time>2026-05-02T15:06:18Z</time></trkpt><trkpt lat="45.096278960666545" lon="5.387474815458839"><ele>895.0</ele><time>2026-05-02T15:06:19Z</time></trkpt><trkpt lat="45.09638227729392" lon="5.387615214424591"><ele>895.0</ele><time>2026-05-02T15:06:20Z</time></trkpt><trkpt lat="45.096465036900476" lon="5.38781431542837"><ele>895.0</ele><time>2026-05-02T15:06:21Z</time></trkpt><trkpt lat="45.09653323124981" lon="5.388011949813483"><ele>894.2</ele><time>2026-05-02T15:06:22Z</time></trkpt><trkpt lat="45.09655427896767" lon="5.388191091927803"><ele>893.4</ele><time>2026-05-02T15:06:23Z</time></trkpt><trkpt lat="45.096508178080065" lon="5.388329533194524"><ele>892.5999999999999</ele><time>2026-05-02T15:06:24Z</time></trkpt><trkpt lat="45.09640546049829" lon="5.388383692066846"><ele>891.8</ele><time>2026-05-02T15:06:25Z</time></trkpt><trkpt lat="45.096365618668145" lon="5.388478155209855"><ele>891.0</ele><time>2026-05-02T15:06:26Z</time></trkpt><trkpt lat="45.09634113699183" lon="5.388573852583938"><ele>891.0</ele><time>2026-05-02T15:06:27Z</time></trkpt><trkpt lat="45.09639071314551" lon="5.388703542174349"><ele>891.0</ele><time>2026-05-02T15:06:28Z</time></trkpt><trkpt lat="45.09652601071616" lon="5.388778758571804"><ele>891.0</ele><time>2026-05-02T15:06:29Z</time></trkpt><trkpt lat="45.09668074675388" lon="5.388774972020126"><ele>891.0</ele><time>2026-05-02T15:06:30Z</time></trkpt><trkpt lat="45.09686791496297" lon="5.3888060609913175"><ele>892.0</ele><time>2026-05-02T15:06:31Z</time></trkpt><trkpt lat="45.09706137817369" lon="5.3888940863085235"><ele>893.0</ele><time>2026-05-02T15:06:32Z</time></trkpt><trkpt lat="45.097261240726404" lon="5.388973903153871"><ele>894.0</ele><time>2026-05-02T15:06:33Z</time></trkpt><trkpt lat="45.09742213979007" lon="5.389080087671058"><ele>896.75</ele><time>2026-05-02T15:06:34Z</time></trkpt><trkpt lat="45.097539039597095" lon="5.389218877559484"><ele>899.5</ele><time>2026-05-02T15:06:35Z</time></trkpt><trkpt lat="45.09765533570754" lon="5.389357816510638"><ele>902.25</ele><time>2026-05-02T15:06:36Z</time></trkpt><trkpt lat="45.09778414768803" lon="5.389428259169374"><ele>905.0</ele><time>2026-05-02T15:06:37Z</time></trkpt><trkpt lat="45.0979272951607" lon="5.389437684446254"><ele>905.0</ele><time>2026-05-02T15:06:38Z</time></trkpt><trkpt lat="45.09807667874208" lon="5.389382281684027"><ele>905.0</ele><time>2026-05-02T15:06:39Z</time></trkpt><trkpt lat="45.09822844446808" lon="5.389266075298667"><ele>905.0</ele><time>2026-05-02T15:06:40Z</time></trkpt><trkpt lat="45.09837558959659" lon="5.389125945953593"><ele>906.5</ele><time>2026-05-02T15:06:41Z</time></trkpt><trkpt lat="45.098508782398696" lon="5.389039519677409"><ele>908.0</ele><time>2026-05-02T15:06:42Z</time></trkpt><trkpt lat="45.098629840579974" lon="5.389112202318841"><ele>909.5</ele><time>2026-05-02T15:06:43Z</time></trkpt><trkpt lat="45.09874424719142" lon="5.3892357424633595"><ele>911.0</ele><time>2026-05-02T15:06:44Z</time></trkpt><trkpt lat="45.098862376141746" lon="5.389429737641397"><ele>911.0</ele><time>2026-05-02T15:06:45Z</time></trkpt><trkpt lat="45.099022893230014" lon="5.389605717962187"><ele>911.0</ele><time>2026-05-02T15:06:46Z</time></trkpt><trkpt lat="45.099180335745814" lon="5.389807036706265"><ele>911.0</ele><time>2026-05-02T15:06:47Z</time></trkpt><trkpt lat="45.09934523205905" lon="5.389988235139366"><ele>909.0</ele><time>2026-05-02T15:06:48Z</time></trkpt><trkpt lat="45.09949648204706" lon="5.390125602391257"><ele>907.0</ele><time>2026-05-02T15:06:48.999Z</time></trkpt><trkpt lat="45.09963502800876" lon="5.390211354158481"><ele>905.0</ele><time>2026-05-02T15:06:49.999Z</time></trkpt><trkpt lat="45.09977142921452" lon="5.390229930142522"><ele>906.6666666666667</ele><time>2026-05-02T15:06:50.999Z</time></trkpt><trkpt lat="45.09992208037991" lon="5.390200930273704"><ele>908.3333333333333</ele><time>2026-05-02T15:06:51.999Z</time></trkpt><trkpt lat="45.1000686384457" lon="5.390117976252963"><ele>910.0</ele><time>2026-05-02T15:06:52.999Z</time></trkpt><trkpt lat="45.100206384432" lon="5.38996277486114"><ele>910.0</ele><time>2026-05-02T15:06:53.999Z</time></trkpt><trkpt lat="45.10035107800893" lon="5.389753114376539"><ele>910.0</ele><time>2026-05-02T15:06:54.999Z</time></trkpt><trkpt lat="45.10048090829611" lon="5.389566676303925"><ele>910.0</ele><time>2026-05-02T15:06:55.999Z</time></trkpt><trkpt lat="45.10059889315758" lon="5.389452611946433"><ele>910.6666666666666</ele><time>2026-05-02T15:06:56.999Z</time></trkpt><trkpt lat="45.10072295136133" lon="5.389434507161558"><ele>911.3333333333333</ele><time>2026-05-02T15:06:57.999Z</time></trkpt><trkpt lat="45.10083510071563" lon="5.389568184684713"><ele>912.0</ele><time>2026-05-02T15:06:58.999Z</time></trkpt><trkpt lat="45.10098819550846" lon="5.389704924033724"><ele>912.0</ele><time>2026-05-02T15:06:59.999Z</time></trkpt><trkpt lat="45.10116093864936" lon="5.389842051954537"><ele>912.0</ele><time>2026-05-02T15:07:00.999Z</time></trkpt><trkpt lat="45.101351702346896" lon="5.389994885329535"><ele>912.0</ele><time>2026-05-02T15:07:01.999Z</time></trkpt><trkpt lat="45.10156367010777" lon="5.3901632463174485"><ele>912.3333333333333</ele><time>2026-05-02T15:07:02.999Z</time></trkpt><trkpt lat="45.10176470341505" lon="5.390338486763619"><ele>912.6666666666666</ele><time>2026-05-02T15:07:03.999Z</time></trkpt><trkpt lat="45.10194554310596" lon="5.390486313065615"><ele>913.0</ele><time>2026-05-02T15:07:04.999Z</time></trkpt><trkpt lat="45.1021045704365" lon="5.3906114180735"><ele>913.0</ele><time>2026-05-02T15:07:05.999Z</time></trkpt><trkpt lat="45.102211423599954" lon="5.39074751548013"><ele>913.0</ele><time>2026-05-02T15:07:06.999Z</time></trkpt><trkpt lat="45.10228020911093" lon="5.390888431743374"><ele>913.0</ele><time>2026-05-02T15:07:07.999Z</time></trkpt><trkpt lat="45.10225184666547" lon="5.391065405851468"><ele>913.0</ele><time>2026-05-02T15:07:08.999Z</time></trkpt><trkpt lat="45.102257252259136" lon="5.391247778561873"><ele>912.75</ele><time>2026-05-02T15:07:09.999Z</time></trkpt><trkpt lat="45.10228994642533" lon="5.3913811743145645"><ele>912.5</ele><time>2026-05-02T15:07:10.999Z</time></trkpt><trkpt lat="45.10235909489218" lon="5.391503706784241"><ele>912.25</ele><time>2026-05-02T15:07:11.999Z</time></trkpt><trkpt lat="45.102502115921986" lon="5.391598542713913"><ele>912.0</ele><time>2026-05-02T15:07:12.999Z</time></trkpt><trkpt lat="45.10267332340769" lon="5.391680006571289"><ele>914.6666666666667</ele><time>2026-05-02T15:07:13.999Z</time></trkpt><trkpt lat="45.10285306725226" lon="5.391758213239552"><ele>917.3333333333334</ele><time>2026-05-02T15:07:14.999Z</time></trkpt><trkpt lat="45.10302496069749" lon="5.391816135498542"><ele>920.0</ele><time>2026-05-02T15:07:15.999Z</time></trkpt><trkpt lat="45.10320210601523" lon="5.39181649572157"><ele>925.5</ele><time>2026-05-02T15:07:16.999Z</time></trkpt><trkpt lat="45.10340819995316" lon="5.391758527747653"><ele>931.0</ele><time>2026-05-02T15:07:17.999Z</time></trkpt><trkpt lat="45.103644569614524" lon="5.391681063010658"><ele>931.0</ele><time>2026-05-02T15:07:18.999Z</time></trkpt><trkpt lat="45.103854738910044" lon="5.391634480757369"><ele>931.0</ele><time>2026-05-02T15:07:19.999Z</time></trkpt><trkpt lat="45.10402838788401" lon="5.3916602010048935"><ele>931.0</ele><time>2026-05-02T15:07:20.999Z</time></trkpt><trkpt lat="45.104184676098875" lon="5.391696439115364"><ele>933.0</ele><time>2026-05-02T15:07:21.999Z</time></trkpt><trkpt lat="45.10431891911634" lon="5.391754070570163"><ele>935.0</ele><time>2026-05-02T15:07:22.999Z</time></trkpt><trkpt lat="45.10441381779513" lon="5.391900458718903"><ele>937.0</ele><time>2026-05-02T15:07:23.999Z</time></trkpt><trkpt lat="45.10455587071465" lon="5.392078215103802"><ele>937.0</ele><time>2026-05-02T15:07:24.999Z</time></trkpt><trkpt lat="45.10472856040042" lon="5.392230357022856"><ele>937.0</ele><time>2026-05-02T15:07:25.999Z</time></trkpt><trkpt lat="45.10493417740611" lon="5.392394355524202"><ele>937.0</ele><time>2026-05-02T15:07:26.999Z</time></trkpt><trkpt lat="45.1051539535249" lon="5.392576249020511"><ele>937.0</ele><time>2026-05-02T15:07:27.999Z</time></trkpt><trkpt lat="45.105351415024316" lon="5.392754317884067"><ele>937.0</ele><time>2026-05-02T15:07:28.999Z</time></trkpt><trkpt lat="45.1054956517339" lon="5.392940917315967"><ele>937.0</ele><time>2026-05-02T15:07:29.999Z</time></trkpt><trkpt lat="45.10563258889161" lon="5.393085735580788"><ele>939.0</ele><time>2026-05-02T15:07:30.999Z</time></trkpt><trkpt lat="45.10574668572825" lon="5.393251015240856"><ele>941.0</ele><time>2026-05-02T15:07:31.999Z</time></trkpt><trkpt lat="45.10588217939357" lon="5.393366023540636"><ele>943.0</ele><time>2026-05-02T15:07:32.999Z</time></trkpt><trkpt lat="45.106063933785144" lon="5.393419898355716"><ele>943.0</ele><time>2026-05-02T15:07:33.999Z</time></trkpt><trkpt lat="45.10626794669681" lon="5.393448009516325"><ele>943.0</ele><time>2026-05-02T15:07:34.999Z</time></trkpt><trkpt lat="45.106444493553276" lon="5.393553559956475"><ele>943.0</ele><time>2026-05-02T15:07:35.999Z</time></trkpt><trkpt lat="45.106589147176194" lon="5.393709777627446"><ele>944.6666666666666</ele><time>2026-05-02T15:07:36.999Z</time></trkpt><trkpt lat="45.10673096205991" lon="5.393932883919562"><ele>946.3333333333333</ele><time>2026-05-02T15:07:37.999Z</time></trkpt><trkpt lat="45.1068901534371" lon="5.3941664474149915"><ele>948.0</ele><time>2026-05-02T15:07:38.999Z</time></trkpt><trkpt lat="45.10703061529668" lon="5.394373170469232"><ele>948.0</ele><time>2026-05-02T15:07:39.999Z</time></trkpt><trkpt lat="45.10712568677268" lon="5.394563832214589"><ele>948.0</ele><time>2026-05-02T15:07:40.999Z</time></trkpt><trkpt lat="45.10712268708196" lon="5.394793701071284"><ele>948.0</ele><time>2026-05-02T15:07:41.999Z</time></trkpt><trkpt lat="45.107172718627766" lon="5.39495403323112"><ele>947.3333333333333</ele><time>2026-05-02T15:07:42.999Z</time></trkpt><trkpt lat="45.107243713955555" lon="5.395109478407027"><ele>946.6666666666666</ele><time>2026-05-02T15:07:43.999Z</time></trkpt><trkpt lat="45.10737898115033" lon="5.39526854767558"><ele>946.0</ele><time>2026-05-02T15:07:44.999Z</time></trkpt><trkpt lat="45.10755358287187" lon="5.39543362084076"><ele>949.3333333333333</ele><time>2026-05-02T15:07:45.999Z</time></trkpt><trkpt lat="45.10770063643162" lon="5.395626046632833"><ele>952.6666666666667</ele><time>2026-05-02T15:07:46.999Z</time></trkpt><trkpt lat="45.10779593197957" lon="5.395791122172899"><ele>956.0</ele><time>2026-05-02T15:07:47.999Z</time></trkpt><trkpt lat="45.10782646329143" lon="5.395964725126922"><ele>956.0</ele><time>2026-05-02T15:07:48.999Z</time></trkpt><trkpt lat="45.10780548856259" lon="5.396159406403852"><ele>956.0</ele><time>2026-05-02T15:07:49.999Z</time></trkpt><trkpt lat="45.107780285918835" lon="5.3964054260457015"><ele>956.0</ele><time>2026-05-02T15:07:50.998Z</time></trkpt><trkpt lat="45.107785508950236" lon="5.39661802755788"><ele>956.5</ele><time>2026-05-02T15:07:51.998Z</time></trkpt><trkpt lat="45.107811604829486" lon="5.3967881968709905"><ele>957.0</ele><time>2026-05-02T15:07:52.998Z</time></trkpt><trkpt lat="45.10791695888024" lon="5.396912155804962"><ele>957.5</ele><time>2026-05-02T15:07:53.998Z</time></trkpt><trkpt lat="45.10806847590478" lon="5.397000025018017"><ele>958.0</ele><time>2026-05-02T15:07:54.998Z</time></trkpt><trkpt lat="45.108249845312194" lon="5.397063607598132"><ele>961.6666666666666</ele><time>2026-05-02T15:07:55.998Z</time></trkpt><trkpt lat="45.10843647004154" lon="5.397172739280516"><ele>965.3333333333333</ele><time>2026-05-02T15:07:56.998Z</time></trkpt><trkpt lat="45.108623274655734" lon="5.397286414454085"><ele>969.0</ele><time>2026-05-02T15:07:57.998Z</time></trkpt><trkpt lat="45.10878304307381" lon="5.397382882070941"><ele>969.0</ele><time>2026-05-02T15:07:58.998Z</time></trkpt><trkpt lat="45.108966967310764" lon="5.3973683083854125"><ele>969.0</ele><time>2026-05-02T15:07:59.998Z</time></trkpt><trkpt lat="45.109189485128276" lon="5.397335474491966"><ele>969.0</ele><time>2026-05-02T15:08:00.998Z</time></trkpt><trkpt lat="45.10938846528711" lon="5.397290993729647"><ele>970.6666666666667</ele><time>2026-05-02T15:08:01.998Z</time></trkpt><trkpt lat="45.109540904873136" lon="5.397349160024189"><ele>972.3333333333334</ele><time>2026-05-02T15:08:02.998Z</time></trkpt><trkpt lat="45.109648432912664" lon="5.39748664361146"><ele>974.0</ele><time>2026-05-02T15:08:03.998Z</time></trkpt><trkpt lat="45.10975910126486" lon="5.3976639453102475"><ele>974.0</ele><time>2026-05-02T15:08:04.998Z</time></trkpt><trkpt lat="45.10990164725167" lon="5.397867074441298"><ele>974.0</ele><time>2026-05-02T15:08:05.998Z</time></trkpt><trkpt lat="45.110061643611246" lon="5.398042441798914"><ele>974.0</ele><time>2026-05-02T15:08:06.998Z</time></trkpt><trkpt lat="45.110237521509404" lon="5.398189152450939"><ele>974.3333333333334</ele><time>2026-05-02T15:08:07.998Z</time></trkpt><trkpt lat="45.11042042323904" lon="5.398286694085087"><ele>974.6666666666667</ele><time>2026-05-02T15:08:08.998Z</time></trkpt><trkpt lat="45.11062702256654" lon="5.398341242229705"><ele>975.0</ele><time>2026-05-02T15:08:09.998Z</time></trkpt><trkpt lat="45.110873024682014" lon="5.398354931482759"><ele>978.0</ele><time>2026-05-02T15:08:10.998Z</time></trkpt><trkpt lat="45.11111525693685" lon="5.398384369683436"><ele>981.0</ele><time>2026-05-02T15:08:11.998Z</time></trkpt><trkpt lat="45.11128896228319" lon="5.3985229914700765"><ele>984.0</ele><time>2026-05-02T15:08:12.998Z</time></trkpt><trkpt lat="45.11146325125921" lon="5.398662964065352"><ele>984.5</ele><time>2026-05-02T15:08:13.998Z</time></trkpt><trkpt lat="45.11167372058764" lon="5.398774430652868"><ele>985.0</ele><time>2026-05-02T15:08:14.998Z</time></trkpt><trkpt lat="45.1118846015604" lon="5.398887393055908"><ele>985.0</ele><time>2026-05-02T15:08:15.998Z</time></trkpt><trkpt lat="45.11206613503225" lon="5.398966540904738"><ele>985.0</ele><time>2026-05-02T15:08:16.998Z</time></trkpt><trkpt lat="45.112232708340024" lon="5.3989921415001465"><ele>985.0</ele><time>2026-05-02T15:08:17.998Z</time></trkpt><trkpt lat="45.11241942506448" lon="5.398913068820679"><ele>992.0</ele><time>2026-05-02T15:08:18.998Z</time></trkpt><trkpt lat="45.11263091338222" lon="5.398829697147015"><ele>999.0</ele><time>2026-05-02T15:08:19.998Z</time></trkpt><trkpt lat="45.11281697662163" lon="5.398759057211595"><ele>1006.0</ele><time>2026-05-02T15:08:20.998Z</time></trkpt><trkpt lat="45.112940937341556" lon="5.398632007219179"><ele>1006.0</ele><time>2026-05-02T15:08:21.998Z</time></trkpt><trkpt lat="45.11309197567698" lon="5.398484628256487"><ele>1006.0</ele><time>2026-05-02T15:08:23Z</time></trkpt><trkpt lat="45.1132812894498" lon="5.398474704539041"><ele>1006.0</ele><time>2026-05-02T15:08:24Z</time></trkpt><trkpt lat="45.1134880282225" lon="5.398481720419057"><ele>1004.3333333333333</ele><time>2026-05-02T15:08:25Z</time></trkpt><trkpt lat="45.11365934632359" lon="5.398483961330639"><ele>1002.6666666666667</ele><time>2026-05-02T15:08:26Z</time></trkpt><trkpt lat="45.11380352984995" lon="5.398502194822371"><ele>1001.0</ele><time>2026-05-02T15:08:27Z</time></trkpt><trkpt lat="45.113934289096846" lon="5.39857929732164"><ele>1001.0</ele><time>2026-05-02T15:08:28Z</time></trkpt><trkpt lat="45.11405354821469" lon="5.398765100415303"><ele>1001.0</ele><time>2026-05-02T15:08:29Z</time></trkpt><trkpt lat="45.11422031972083" lon="5.39892057980931"><ele>1001.0</ele><time>2026-05-02T15:08:30Z</time></trkpt><trkpt lat="45.114374885398284" lon="5.399057027381381"><ele>1000.6666666666667</ele><time>2026-05-02T15:08:31Z</time></trkpt><trkpt lat="45.1145382847563" lon="5.399136829431088"><ele>1000.3333333333333</ele><time>2026-05-02T15:08:32Z</time></trkpt><trkpt lat="45.11467867969389" lon="5.399193474591237"><ele>1000.0</ele><time>2026-05-02T15:08:33Z</time></trkpt><trkpt lat="45.11480372143765" lon="5.399260157239294"><ele>1000.0</ele><time>2026-05-02T15:08:34Z</time></trkpt><trkpt lat="45.11491924951621" lon="5.3993432634312795"><ele>1000.0</ele><time>2026-05-02T15:08:35Z</time></trkpt><trkpt lat="45.1149902707853" lon="5.399475557929155"><ele>1000.0</ele><time>2026-05-02T15:08:36Z</time></trkpt><trkpt lat="45.11507134433455" lon="5.399594245102722"><ele>1000.0</ele><time>2026-05-02T15:08:37Z</time></trkpt><trkpt lat="45.11514984293523" lon="5.399683933142856"><ele>999.9999999999999</ele><time>2026-05-02T15:08:38Z</time></trkpt><trkpt lat="45.11521616785633" lon="5.399782360798826"><ele>1000.0</ele><time>2026-05-02T15:08:39Z</time></trkpt><trkpt lat="45.11528658512428" lon="5.399853986948173"><ele>1000.0</ele><time>2026-05-02T15:08:40Z</time></trkpt><trkpt lat="45.115350504116" lon="5.399898544297714"><ele>1000.0</ele><time>2026-05-02T15:08:41Z</time></trkpt><trkpt lat="45.11545117781503" lon="5.399894436936449"><ele>999.9999999999999</ele><time>2026-05-02T15:08:43Z</time></trkpt><trkpt lat="45.11552531939142" lon="5.399908979744185"><ele>1000.0</ele><time>2026-05-02T15:08:45Z</time></trkpt><trkpt lat="45.11556345062182" lon="5.399634843960692"><ele>1001.0</ele><time>2026-05-02T15:08:47Z</time></trkpt><trkpt lat="45.11556141860967" lon="5.3994513424048165"><ele>1002.0</ele><time>2026-05-02T15:08:48Z</time></trkpt><trkpt lat="45.11556640535656" lon="5.399240166219384"><ele>1003.0</ele><time>2026-05-02T15:08:49Z</time></trkpt><trkpt lat="45.11557296063906" lon="5.399020629728962"><ele>1004.0</ele><time>2026-05-02T15:08:50Z</time></trkpt><trkpt lat="45.11558886486782" lon="5.398786227951395"><ele>1004.0</ele><time>2026-05-02T15:08:51Z</time></trkpt><trkpt lat="45.1156168410578" lon="5.398594781712018"><ele>1004.0</ele><time>2026-05-02T15:08:52Z</time></trkpt><trkpt lat="45.11567622538949" lon="5.398429053098075"><ele>1004.0</ele><time>2026-05-02T15:08:53Z</time></trkpt><trkpt lat="45.11577930518515" lon="5.39826882135801"><ele>1004.0</ele><time>2026-05-02T15:08:54Z</time></trkpt><trkpt lat="45.11591580541662" lon="5.398099617218059"><ele>1004.6666666666667</ele><time>2026-05-02T15:08:55Z</time></trkpt><trkpt lat="45.11605839013863" lon="5.39790912569276"><ele>1005.3333333333333</ele><time>2026-05-02T15:08:56Z</time></trkpt><trkpt lat="45.116181872029685" lon="5.3977005223916175"><ele>1006.0</ele><time>2026-05-02T15:08:57Z</time></trkpt><trkpt lat="45.116262774268066" lon="5.397464787655738"><ele>1006.0</ele><time>2026-05-02T15:08:57.999Z</time></trkpt><trkpt lat="45.116293739614406" lon="5.397200113023649"><ele>1006.0</ele><time>2026-05-02T15:08:58.999Z</time></trkpt><trkpt lat="45.11628344349951" lon="5.3969312462558445"><ele>1006.0</ele><time>2026-05-02T15:08:59.999Z</time></trkpt><trkpt lat="45.11627318905155" lon="5.396684612653323"><ele>1006.6666666666666</ele><time>2026-05-02T15:09:00.999Z</time></trkpt><trkpt lat="45.116293383999185" lon="5.396453964629643"><ele>1007.3333333333333</ele><time>2026-05-02T15:09:01.999Z</time></trkpt><trkpt lat="45.11633938118063" lon="5.396231482339688"><ele>1008.0</ele><time>2026-05-02T15:09:02.999Z</time></trkpt><trkpt lat="45.11639840303329" lon="5.395964181385193"><ele>1008.6666666666667</ele><time>2026-05-02T15:09:03.999Z</time></trkpt><trkpt lat="45.116419601797105" lon="5.395680460595248"><ele>1009.3333333333334</ele><time>2026-05-02T15:09:04.999Z</time></trkpt><trkpt lat="45.11641075626582" lon="5.395366201312957"><ele>1010.0</ele><time>2026-05-02T15:09:05.999Z</time></trkpt><trkpt lat="45.11638541899509" lon="5.395047547366566"><ele>1010.0</ele><time>2026-05-02T15:09:06.999Z</time></trkpt><trkpt lat="45.11634060649766" lon="5.394731166338862"><ele>1010.0</ele><time>2026-05-02T15:09:07.999Z</time></trkpt><trkpt lat="45.11627735862278" lon="5.394376579095983"><ele>1007.5</ele><time>2026-05-02T15:09:08.999Z</time></trkpt><trkpt lat="45.11621535170001" lon="5.394014723575332"><ele>1005.0</ele><time>2026-05-02T15:09:09.999Z</time></trkpt><trkpt lat="45.11616720278626" lon="5.393690877778839"><ele>1003.3333333333333</ele><time>2026-05-02T15:09:10.999Z</time></trkpt><trkpt lat="45.116124148251174" lon="5.393383428109412"><ele>1001.6666666666666</ele><time>2026-05-02T15:09:11.999Z</time></trkpt><trkpt lat="45.11609016610789" lon="5.3930964382792315"><ele>1000.0</ele><time>2026-05-02T15:09:12.999Z</time></trkpt><trkpt lat="45.11605341979913" lon="5.3928030834390235"><ele>999.0</ele><time>2026-05-02T15:09:13.999Z</time></trkpt><trkpt lat="45.11601431965514" lon="5.39247682834228"><ele>998.0</ele><time>2026-05-02T15:09:14.999Z</time></trkpt><trkpt lat="45.11598761136869" lon="5.392136604628572"><ele>995.5</ele><time>2026-05-02T15:09:15.999Z</time></trkpt><trkpt lat="45.11596483076016" lon="5.3917887431392195"><ele>993.0</ele><time>2026-05-02T15:09:16.999Z</time></trkpt><trkpt lat="45.11594592178481" lon="5.391454204936676"><ele>990.6666666666667</ele><time>2026-05-02T15:09:17.999Z</time></trkpt><trkpt lat="45.115943954300164" lon="5.3911461438861314"><ele>988.3333333333334</ele><time>2026-05-02T15:09:18.999Z</time></trkpt><trkpt lat="45.115959554074344" lon="5.390842700562645"><ele>986.0</ele><time>2026-05-02T15:09:19.999Z</time></trkpt><trkpt lat="45.116002699476105" lon="5.390542534443434"><ele>981.3333333333334</ele><time>2026-05-02T15:09:20.999Z</time></trkpt><trkpt lat="45.11607806819934" lon="5.390249511473493"><ele>976.6666666666667</ele><time>2026-05-02T15:09:21.999Z</time></trkpt><trkpt lat="45.11615920879526" lon="5.389976006145688"><ele>972.0</ele><time>2026-05-02T15:09:22.999Z</time></trkpt><trkpt lat="45.11622279591077" lon="5.389718777693689"><ele>968.3333333333333</ele><time>2026-05-02T15:09:23.999Z</time></trkpt><trkpt lat="45.11626527019395" lon="5.389454570230239"><ele>964.6666666666666</ele><time>2026-05-02T15:09:24.999Z</time></trkpt><trkpt lat="45.116274731300436" lon="5.389202869029645"><ele>961.0</ele><time>2026-05-02T15:09:25.999Z</time></trkpt><trkpt lat="45.11628369319912" lon="5.388968257712294"><ele>958.6666666666666</ele><time>2026-05-02T15:09:26.999Z</time></trkpt><trkpt lat="45.11632962423217" lon="5.38874612635276"><ele>956.3333333333333</ele><time>2026-05-02T15:09:27.999Z</time></trkpt><trkpt lat="45.116459309985835" lon="5.388549832690251"><ele>954.0</ele><time>2026-05-02T15:09:28.999Z</time></trkpt><trkpt lat="45.11659756316805" lon="5.388348859425602"><ele>958.3333333333333</ele><time>2026-05-02T15:09:29.999Z</time></trkpt><trkpt lat="45.116711982265414" lon="5.388126670421425"><ele>962.6666666666666</ele><time>2026-05-02T15:09:30.999Z</time></trkpt><trkpt lat="45.116780620228056" lon="5.38790300648589"><ele>967.0</ele><time>2026-05-02T15:09:31.999Z</time></trkpt><trkpt lat="45.116810315814156" lon="5.387726224667666"><ele>967.0</ele><time>2026-05-02T15:09:32.999Z</time></trkpt><trkpt lat="45.116816995520544" lon="5.387491741510067"><ele>967.0</ele><time>2026-05-02T15:09:33.999Z</time></trkpt><trkpt lat="45.11682132246309" lon="5.3872679018104845"><ele>967.0</ele><time>2026-05-02T15:09:34.999Z</time></trkpt><trkpt lat="45.116810468965916" lon="5.387061315582616"><ele>965.5</ele><time>2026-05-02T15:09:35.999Z</time></trkpt><trkpt lat="45.116808290568606" lon="5.386854332360632"><ele>964.0</ele><time>2026-05-02T15:09:36.999Z</time></trkpt><trkpt lat="45.11673564029337" lon="5.386669335591151"><ele>962.5</ele><time>2026-05-02T15:09:37.999Z</time></trkpt><trkpt lat="45.11670536631035" lon="5.386493943616397"><ele>961.0</ele><time>2026-05-02T15:09:38.999Z</time></trkpt><trkpt lat="45.11667995915672" lon="5.386322497659371"><ele>959.8</ele><time>2026-05-02T15:09:39.999Z</time></trkpt><trkpt lat="45.116656135564405" lon="5.386159221380734"><ele>958.5999999999999</ele><time>2026-05-02T15:09:40.999Z</time></trkpt><trkpt lat="45.116634845417224" lon="5.386019308876249"><ele>957.4</ele><time>2026-05-02T15:09:41.999Z</time></trkpt><trkpt lat="45.11661693377077" lon="5.385897230795217"><ele>956.2</ele><time>2026-05-02T15:09:42.999Z</time></trkpt><trkpt lat="45.11661569584268" lon="5.385791125895379"><ele>955.0</ele><time>2026-05-02T15:09:43.999Z</time></trkpt><trkpt lat="45.11661693074937" lon="5.385629897173927"><ele>948.6</ele><time>2026-05-02T15:09:45.999Z</time></trkpt><trkpt lat="45.11655600734566" lon="5.385541270265086"><ele>942.2</ele><time>2026-05-02T15:09:47.999Z</time></trkpt><trkpt lat="45.116491518233175" lon="5.385538606607982"><ele>935.8</ele><time>2026-05-02T15:09:48.999Z</time></trkpt><trkpt lat="45.11644781856227" lon="5.385680859710267"><ele>929.4</ele><time>2026-05-02T15:09:49.999Z</time></trkpt><trkpt lat="45.11647781118475" lon="5.385865385590701"><ele>923.0</ele><time>2026-05-02T15:09:50.999Z</time></trkpt><trkpt lat="45.11648964716015" lon="5.386069629080662"><ele>923.0</ele><time>2026-05-02T15:09:51.999Z</time></trkpt><trkpt lat="45.116484558733156" lon="5.38628494418088"><ele>923.0</ele><time>2026-05-02T15:09:52.999Z</time></trkpt><trkpt lat="45.116444214284044" lon="5.38649774092982"><ele>923.0</ele><time>2026-05-02T15:09:53.999Z</time></trkpt><trkpt lat="45.11636812819227" lon="5.386711381174044"><ele>925.6666666666667</ele><time>2026-05-02T15:09:54.999Z</time></trkpt><trkpt lat="45.116290864584556" lon="5.386911377177894"><ele>928.3333333333333</ele><time>2026-05-02T15:09:55.999Z</time></trkpt><trkpt lat="45.11620768493366" lon="5.387092185869331"><ele>931.0</ele><time>2026-05-02T15:09:56.999Z</time></trkpt><trkpt lat="45.11610039025625" lon="5.3872233119657995"><ele>928.0</ele><time>2026-05-02T15:09:57.999Z</time></trkpt><trkpt lat="45.11598284411224" lon="5.387323365377862"><ele>925.0</ele><time>2026-05-02T15:09:58.999Z</time></trkpt><trkpt lat="45.115833197125646" lon="5.3872869338089355"><ele>922.0</ele><time>2026-05-02T15:09:59.999Z</time></trkpt><trkpt lat="45.115695712836114" lon="5.38718343166491"><ele>919.0</ele><time>2026-05-02T15:10:00.999Z</time></trkpt><trkpt lat="45.11554222894072" lon="5.387075171842232"><ele>919.0</ele><time>2026-05-02T15:10:01.999Z</time></trkpt><trkpt lat="45.11540625980234" lon="5.386986762798847"><ele>919.0</ele><time>2026-05-02T15:10:02.999Z</time></trkpt><trkpt lat="45.11529042650557" lon="5.3868927912508076"><ele>919.0</ele><time>2026-05-02T15:10:03.998Z</time></trkpt><trkpt lat="45.115186332525674" lon="5.386825400741352"><ele>919.0</ele><time>2026-05-02T15:10:04.998Z</time></trkpt><trkpt lat="45.11508699032276" lon="5.3868300310982065"><ele>919.0</ele><time>2026-05-02T15:10:05.998Z</time></trkpt><trkpt lat="45.115014166821275" lon="5.386899501772558"><ele>919.0</ele><time>2026-05-02T15:10:06.998Z</time></trkpt><trkpt lat="45.11502247135211" lon="5.38710419921317"><ele>919.0</ele><time>2026-05-02T15:10:07.998Z</time></trkpt><trkpt lat="45.1150263316395" lon="5.387285000733135"><ele>919.0</ele><time>2026-05-02T15:10:08.998Z</time></trkpt><trkpt lat="45.115034094946765" lon="5.387524815535997"><ele>918.0</ele><time>2026-05-02T15:10:09.998Z</time></trkpt><trkpt lat="45.11503750425714" lon="5.387776309470242"><ele>917.0</ele><time>2026-05-02T15:10:10.998Z</time></trkpt><trkpt lat="45.11503542086758" lon="5.387987757473999"><ele>916.0</ele><time>2026-05-02T15:10:11.998Z</time></trkpt><trkpt lat="45.11503058686683" lon="5.388191282844531"><ele>916.0</ele><time>2026-05-02T15:10:12.998Z</time></trkpt><trkpt lat="45.11502544356881" lon="5.388389596350241"><ele>916.0</ele><time>2026-05-02T15:10:13.998Z</time></trkpt><trkpt lat="45.11502787755444" lon="5.388574395926069"><ele>916.0</ele><time>2026-05-02T15:10:14.998Z</time></trkpt><trkpt lat="45.11506273322354" lon="5.388710832635385"><ele>916.0</ele><time>2026-05-02T15:10:15.998Z</time></trkpt><trkpt lat="45.11505380244129" lon="5.388828561058504"><ele>916.0</ele><time>2026-05-02T15:10:17.998Z</time></trkpt><trkpt lat="45.114962759042676" lon="5.388648438195708"><ele>916.0</ele><time>2026-05-02T15:10:20.998Z</time></trkpt><trkpt lat="45.1149332651243" lon="5.388465120500715"><ele>916.0</ele><time>2026-05-02T15:10:21.998Z</time></trkpt><trkpt lat="45.114915541724045" lon="5.388238072916217"><ele>901.0</ele><time>2026-05-02T15:10:22.998Z</time></trkpt><trkpt lat="45.11486369087375" lon="5.388001291447017"><ele>886.0</ele><time>2026-05-02T15:10:23.998Z</time></trkpt><trkpt lat="45.11479349926682" lon="5.387737992847964"><ele>871.0</ele><time>2026-05-02T15:10:24.998Z</time></trkpt><trkpt lat="45.114698131793496" lon="5.387430833292586"><ele>876.0</ele><time>2026-05-02T15:10:25.998Z</time></trkpt><trkpt lat="45.11455938113551" lon="5.387097925712114"><ele>881.0</ele><time>2026-05-02T15:10:26.998Z</time></trkpt><trkpt lat="45.11441084345144" lon="5.386752877644807"><ele>881.0</ele><time>2026-05-02T15:10:27.998Z</time></trkpt><trkpt lat="45.1142858369366" lon="5.386445904384701"><ele>881.0</ele><time>2026-05-02T15:10:29Z</time></trkpt><trkpt lat="45.11417081796896" lon="5.386161293572916"><ele>871.6666666666667</ele><time>2026-05-02T15:10:30Z</time></trkpt><trkpt lat="45.114068075741024" lon="5.385890154111282"><ele>862.3333333333333</ele><time>2026-05-02T15:10:31Z</time></trkpt><trkpt lat="45.11397546081203" lon="5.3856209295391295"><ele>853.0</ele><time>2026-05-02T15:10:32Z</time></trkpt><trkpt lat="45.11389383925265" lon="5.385362304005354"><ele>853.0</ele><time>2026-05-02T15:10:33Z</time></trkpt><trkpt lat="45.11381089674145" lon="5.38511617777542"><ele>853.0</ele><time>2026-05-02T15:10:34Z</time></trkpt><trkpt lat="45.11372514607795" lon="5.384888819836332"><ele>853.0</ele><time>2026-05-02T15:10:35Z</time></trkpt><trkpt lat="45.113654396935104" lon="5.3846956420772205"><ele>852.75</ele><time>2026-05-02T15:10:36Z</time></trkpt><trkpt lat="45.11362316977351" lon="5.384510064784052"><ele>852.5</ele><time>2026-05-02T15:10:37Z</time></trkpt><trkpt lat="45.11365066056268" lon="5.384346358426361"><ele>852.25</ele><time>2026-05-02T15:10:38Z</time></trkpt><trkpt lat="45.11372689813327" lon="5.384166863331568"><ele>852.0</ele><time>2026-05-02T15:10:39Z</time></trkpt><trkpt lat="45.11381493441295" lon="5.383927463134272"><ele>846.3333333333333</ele><time>2026-05-02T15:10:40Z</time></trkpt><trkpt lat="45.11388825763752" lon="5.3837087712804506"><ele>840.6666666666666</ele><time>2026-05-02T15:10:41Z</time></trkpt><trkpt lat="45.11393255802954" lon="5.383490491040393"><ele>835.0</ele><time>2026-05-02T15:10:42Z</time></trkpt><trkpt lat="45.113971461842574" lon="5.383306543063995"><ele>835.0</ele><time>2026-05-02T15:10:43Z</time></trkpt><trkpt lat="45.113994495562764" lon="5.38315381767185"><ele>835.0</ele><time>2026-05-02T15:10:44Z</time></trkpt><trkpt lat="45.11403236480688" lon="5.383036972560689"><ele>835.0</ele><time>2026-05-02T15:10:45Z</time></trkpt><trkpt lat="45.114173805628205" lon="5.383026275900108"><ele>835.0</ele><time>2026-05-02T15:10:47Z</time></trkpt><trkpt lat="45.11424231659574" lon="5.383129943982045"><ele>835.0</ele><time>2026-05-02T15:10:48Z</time></trkpt><trkpt lat="45.11429523042877" lon="5.3832524469908645"><ele>838.4</ele><time>2026-05-02T15:10:49Z</time></trkpt><trkpt lat="45.11437086102978" lon="5.383301802676414"><ele>841.8</ele><time>2026-05-02T15:10:50Z</time></trkpt><trkpt lat="45.11445854425934" lon="5.383256875920816"><ele>845.2</ele><time>2026-05-02T15:10:51Z</time></trkpt><trkpt lat="45.11451553107871" lon="5.3830847937379"><ele>848.6</ele><time>2026-05-02T15:10:52Z</time></trkpt><trkpt lat="45.11453671537186" lon="5.382890559131713"><ele>852.0</ele><time>2026-05-02T15:10:53Z</time></trkpt><trkpt lat="45.11454470234068" lon="5.382646192673945"><ele>852.0</ele><time>2026-05-02T15:10:54Z</time></trkpt><trkpt lat="45.11458166409455" lon="5.382362706158995"><ele>852.0</ele><time>2026-05-02T15:10:55Z</time></trkpt><trkpt lat="45.114636794720305" lon="5.382104018024215"><ele>852.0</ele><time>2026-05-02T15:10:56Z</time></trkpt><trkpt lat="45.11467969909588" lon="5.381873408985544"><ele>848.3333333333333</ele><time>2026-05-02T15:10:57Z</time></trkpt><trkpt lat="45.11471920116607" lon="5.381655271777119"><ele>844.6666666666666</ele><time>2026-05-02T15:10:58Z</time></trkpt><trkpt lat="45.114792927424844" lon="5.381453152998214"><ele>841.0</ele><time>2026-05-02T15:10:59Z</time></trkpt><trkpt lat="45.114893234459046" lon="5.381274151981587"><ele>837.0</ele><time>2026-05-02T15:11:00Z</time></trkpt><trkpt lat="45.11503082369817" lon="5.381116648960517"><ele>833.0</ele><time>2026-05-02T15:11:01Z</time></trkpt><trkpt lat="45.11519928105307" lon="5.380960947128421"><ele>829.0</ele><time>2026-05-02T15:11:02Z</time></trkpt><trkpt lat="45.11536868994245" lon="5.380815744560287"><ele>829.0</ele><time>2026-05-02T15:11:03Z</time></trkpt><trkpt lat="45.11554395247888" lon="5.380670861651977"><ele>829.0</ele><time>2026-05-02T15:11:04Z</time></trkpt><trkpt lat="45.11570966385608" lon="5.380528522018494"><ele>829.0</ele><time>2026-05-02T15:11:05Z</time></trkpt><trkpt lat="45.1158606935582" lon="5.380393681409783"><ele>826.3333333333333</ele><time>2026-05-02T15:11:06Z</time></trkpt><trkpt lat="45.116000566006676" lon="5.3802587012554435"><ele>823.6666666666667</ele><time>2026-05-02T15:11:07Z</time></trkpt><trkpt lat="45.11613443898403" lon="5.380126015911303"><ele>821.0</ele><time>2026-05-02T15:11:08Z</time></trkpt><trkpt lat="45.11624796397017" lon="5.379965625236796"><ele>821.0</ele><time>2026-05-02T15:11:09Z</time></trkpt><trkpt lat="45.11633745887778" lon="5.3797756624931505"><ele>821.0</ele><time>2026-05-02T15:11:10Z</time></trkpt><trkpt lat="45.11638848495825" lon="5.379603098741819"><ele>821.0</ele><time>2026-05-02T15:11:11Z</time></trkpt><trkpt lat="45.11645249241518" lon="5.379481056752468"><ele>821.0</ele><time>2026-05-02T15:11:12Z</time></trkpt><trkpt lat="45.11651513669317" lon="5.379404394498728"><ele>818.1999999999999</ele><time>2026-05-02T15:11:13Z</time></trkpt><trkpt lat="45.11654039732847" lon="5.379309606363469"><ele>815.4</ele><time>2026-05-02T15:11:13.999Z</time></trkpt><trkpt lat="45.11650123264682" lon="5.379234913274074"><ele>812.6</ele><time>2026-05-02T15:11:14.999Z</time></trkpt><trkpt lat="45.11642824980254" lon="5.379208476510481"><ele>809.8</ele><time>2026-05-02T15:11:15.999Z</time></trkpt><trkpt lat="45.1163343358492" lon="5.379273044887404"><ele>807.0</ele><time>2026-05-02T15:11:16.999Z</time></trkpt><trkpt lat="45.11622597224322" lon="5.379392952971751"><ele>807.0</ele><time>2026-05-02T15:11:17.999Z</time></trkpt><trkpt lat="45.116092015013194" lon="5.379518839137459"><ele>807.0</ele><time>2026-05-02T15:11:18.999Z</time></trkpt><trkpt lat="45.115956394315305" lon="5.379614781432915"><ele>807.0</ele><time>2026-05-02T15:11:19.999Z</time></trkpt><trkpt lat="45.11582494466931" lon="5.379672262389976"><ele>809.0</ele><time>2026-05-02T15:11:20.999Z</time></trkpt><trkpt lat="45.1157055410459" lon="5.379697600064318"><ele>811.0</ele><time>2026-05-02T15:11:21.999Z</time></trkpt><trkpt lat="45.11559139955849" lon="5.379658936587806"><ele>813.0</ele><time>2026-05-02T15:11:22.999Z</time></trkpt><trkpt lat="45.1154975221198" lon="5.379548243472387"><ele>815.0</ele><time>2026-05-02T15:11:23.999Z</time></trkpt><trkpt lat="45.11546975048245" lon="5.379364266843538"><ele>809.0</ele><time>2026-05-02T15:11:24.999Z</time></trkpt><trkpt lat="45.11550096828038" lon="5.379167768094754"><ele>803.0</ele><time>2026-05-02T15:11:25.999Z</time></trkpt><trkpt lat="45.115583166412904" lon="5.3789590065367205"><ele>797.0</ele><time>2026-05-02T15:11:26.999Z</time></trkpt><trkpt lat="45.11566005852379" lon="5.378774268142733"><ele>791.6</ele><time>2026-05-02T15:11:27.999Z</time></trkpt><trkpt lat="45.11569214683739" lon="5.378631126739889"><ele>786.2</ele><time>2026-05-02T15:11:28.999Z</time></trkpt><trkpt lat="45.11566964307426" lon="5.378508096613738"><ele>780.8</ele><time>2026-05-02T15:11:29.999Z</time></trkpt><trkpt lat="45.11558591390678" lon="5.378437087247094"><ele>775.4</ele><time>2026-05-02T15:11:30.999Z</time></trkpt><trkpt lat="45.11548293818772" lon="5.378451528174004"><ele>770.0</ele><time>2026-05-02T15:11:31.999Z</time></trkpt><trkpt lat="45.11538609706571" lon="5.378553662157856"><ele>770.0</ele><time>2026-05-02T15:11:32.999Z</time></trkpt><trkpt lat="45.1152942219881" lon="5.378731731743555"><ele>770.0</ele><time>2026-05-02T15:11:33.999Z</time></trkpt><trkpt lat="45.11518182156448" lon="5.378935577859707"><ele>770.0</ele><time>2026-05-02T15:11:34.999Z</time></trkpt><trkpt lat="45.11505189760545" lon="5.379085586647156"><ele>772.0</ele><time>2026-05-02T15:11:35.999Z</time></trkpt><trkpt lat="45.11488204985221" lon="5.379187555434606"><ele>774.0</ele><time>2026-05-02T15:11:36.999Z</time></trkpt><trkpt lat="45.114684322736004" lon="5.379263613245771"><ele>776.0</ele><time>2026-05-02T15:11:37.999Z</time></trkpt><trkpt lat="45.11446979667638" lon="5.379317275767281"><ele>776.0</ele><time>2026-05-02T15:11:38.999Z</time></trkpt><trkpt lat="45.11425223627768" lon="5.379344261428293"><ele>776.0</ele><time>2026-05-02T15:11:39.999Z</time></trkpt><trkpt lat="45.114040206903404" lon="5.379404189577656"><ele>776.0</ele><time>2026-05-02T15:11:40.999Z</time></trkpt><trkpt lat="45.11384292900485" lon="5.379473150293503"><ele>769.6666666666667</ele><time>2026-05-02T15:11:41.999Z</time></trkpt><trkpt lat="45.113661882742775" lon="5.379546720373071"><ele>763.3333333333334</ele><time>2026-05-02T15:11:42.999Z</time></trkpt><trkpt lat="45.113505064804826" lon="5.379618896460707"><ele>757.0</ele><time>2026-05-02T15:11:43.999Z</time></trkpt><trkpt lat="45.113373872536904" lon="5.379670972640234"><ele>752.0</ele><time>2026-05-02T15:11:44.999Z</time></trkpt><trkpt lat="45.113283680065884" lon="5.379759173937802"><ele>747.0</ele><time>2026-05-02T15:11:45.999Z</time></trkpt><trkpt lat="45.11322968076327" lon="5.3798935226216384"><ele>742.0</ele><time>2026-05-02T15:11:46.999Z</time></trkpt><trkpt lat="45.11322160960715" lon="5.380070057144265"><ele>737.0</ele><time>2026-05-02T15:11:47.999Z</time></trkpt><trkpt lat="45.11318804902607" lon="5.380255038823809"><ele>737.0</ele><time>2026-05-02T15:11:48.999Z</time></trkpt><trkpt lat="45.113090695241084" lon="5.380407702196464"><ele>737.0</ele><time>2026-05-02T15:11:49.999Z</time></trkpt><trkpt lat="45.11298176578415" lon="5.38053765794601"><ele>737.0</ele><time>2026-05-02T15:11:50.999Z</time></trkpt><trkpt lat="45.11293969415927" lon="5.380704375274493"><ele>737.0</ele><time>2026-05-02T15:11:51.999Z</time></trkpt><trkpt lat="45.11294959639486" lon="5.380906805784654"><ele>740.25</ele><time>2026-05-02T15:11:52.999Z</time></trkpt><trkpt lat="45.11290727952854" lon="5.381092530375178"><ele>743.5</ele><time>2026-05-02T15:11:53.999Z</time></trkpt><trkpt lat="45.11280966398359" lon="5.381214355552562"><ele>746.75</ele><time>2026-05-02T15:11:54.999Z</time></trkpt><trkpt lat="45.11267490078659" lon="5.381268961582869"><ele>750.0</ele><time>2026-05-02T15:11:55.999Z</time></trkpt><trkpt lat="45.112534460547785" lon="5.381319939836513"><ele>756.3333333333333</ele><time>2026-05-02T15:11:56.999Z</time></trkpt><trkpt lat="45.11241338946318" lon="5.381447276830583"><ele>762.6666666666666</ele><time>2026-05-02T15:11:57.999Z</time></trkpt><trkpt lat="45.11233027935325" lon="5.3816508393815745"><ele>769.0</ele><time>2026-05-02T15:11:58.999Z</time></trkpt><trkpt lat="45.11226018617849" lon="5.381889596611339"><ele>760.3333333333333</ele><time>2026-05-02T15:11:59.999Z</time></trkpt><trkpt lat="45.11221439901239" lon="5.3821393558715265"><ele>751.6666666666666</ele><time>2026-05-02T15:12:00.999Z</time></trkpt><trkpt lat="45.112199323289964" lon="5.382369799846657"><ele>743.0</ele><time>2026-05-02T15:12:01.999Z</time></trkpt><trkpt lat="45.11216679675408" lon="5.382565529483953"><ele>743.0</ele><time>2026-05-02T15:12:02.999Z</time></trkpt><trkpt lat="45.11211286292262" lon="5.382722971335656"><ele>743.0</ele><time>2026-05-02T15:12:03.999Z</time></trkpt><trkpt lat="45.11201802524936" lon="5.382823918989133"><ele>743.0</ele><time>2026-05-02T15:12:04.999Z</time></trkpt><trkpt lat="45.11189103840919" lon="5.3828101596512195"><ele>743.0</ele><time>2026-05-02T15:12:05.999Z</time></trkpt><trkpt lat="45.11175268202351" lon="5.382722579282832"><ele>743.0</ele><time>2026-05-02T15:12:06.999Z</time></trkpt><trkpt lat="45.11161401845695" lon="5.382631629236462"><ele>743.0</ele><time>2026-05-02T15:12:07.999Z</time></trkpt><trkpt lat="45.111487503561676" lon="5.3826385624627315"><ele>743.0</ele><time>2026-05-02T15:12:08.999Z</time></trkpt><trkpt lat="45.11136753804919" lon="5.3827485528396775"><ele>743.0</ele><time>2026-05-02T15:12:09.999Z</time></trkpt><trkpt lat="45.11127255147317" lon="5.38291849130162"><ele>741.25</ele><time>2026-05-02T15:12:10.999Z</time></trkpt><trkpt lat="45.111216811031966" lon="5.3830980727236115"><ele>739.5</ele><time>2026-05-02T15:12:11.999Z</time></trkpt><trkpt lat="45.1112192369356" lon="5.383277473977019"><ele>737.75</ele><time>2026-05-02T15:12:12.999Z</time></trkpt><trkpt lat="45.11126470989267" lon="5.383429171419751"><ele>736.0</ele><time>2026-05-02T15:12:13.999Z</time></trkpt><trkpt lat="45.11132260017694" lon="5.383537723100937"><ele>736.0</ele><time>2026-05-02T15:12:14.999Z</time></trkpt><trkpt lat="45.1113220853229" lon="5.383640174014801"><ele>736.0</ele><time>2026-05-02T15:12:15.999Z</time></trkpt><trkpt lat="45.111236597407654" lon="5.383648920034729"><ele>736.0</ele><time>2026-05-02T15:12:16.999Z</time></trkpt><trkpt lat="45.11115356119526" lon="5.383592769808969"><ele>736.0</ele><time>2026-05-02T15:12:17.999Z</time></trkpt><trkpt lat="45.11109310914183" lon="5.383426048522507"><ele>736.0</ele><time>2026-05-02T15:12:18.998Z</time></trkpt><trkpt lat="45.11104879530912" lon="5.383220662453593"><ele>732.5</ele><time>2026-05-02T15:12:19.998Z</time></trkpt><trkpt lat="45.1110209748615" lon="5.383013570042085"><ele>729.0</ele><time>2026-05-02T15:12:20.998Z</time></trkpt><trkpt lat="45.11100947397081" lon="5.382829724767904"><ele>725.5</ele><time>2026-05-02T15:12:21.998Z</time></trkpt><trkpt lat="45.11106127785587" lon="5.382655567790006"><ele>722.0</ele><time>2026-05-02T15:12:22.998Z</time></trkpt><trkpt lat="45.111149903854056" lon="5.382471682751134"><ele>722.0</ele><time>2026-05-02T15:12:23.998Z</time></trkpt><trkpt lat="45.1112382155589" lon="5.3823052764744785"><ele>722.0</ele><time>2026-05-02T15:12:24.998Z</time></trkpt><trkpt lat="45.111341604039076" lon="5.382170785292359"><ele>722.0</ele><time>2026-05-02T15:12:25.998Z</time></trkpt><trkpt lat="45.11148613738866" lon="5.382113040910552"><ele>722.0</ele><time>2026-05-02T15:12:26.998Z</time></trkpt><trkpt lat="45.11161874372093" lon="5.382043458750873"><ele>723.3333333333333</ele><time>2026-05-02T15:12:27.998Z</time></trkpt><trkpt lat="45.111691014225734" lon="5.3818969863319515"><ele>724.6666666666666</ele><time>2026-05-02T15:12:28.998Z</time></trkpt><trkpt lat="45.111703451714455" lon="5.381674883558366"><ele>726.0</ele><time>2026-05-02T15:12:29.998Z</time></trkpt><trkpt lat="45.11172542919059" lon="5.38143587794028"><ele>720.0</ele><time>2026-05-02T15:12:30.998Z</time></trkpt><trkpt lat="45.1117722495824" lon="5.381215004761081"><ele>714.0</ele><time>2026-05-02T15:12:31.998Z</time></trkpt><trkpt lat="45.1118536644601" lon="5.381008066702047"><ele>708.0</ele><time>2026-05-02T15:12:32.998Z</time></trkpt><trkpt lat="45.11195043183264" lon="5.380799368246833"><ele>708.0</ele><time>2026-05-02T15:12:33.998Z</time></trkpt><trkpt lat="45.11206037649199" lon="5.380614817841344"><ele>708.0</ele><time>2026-05-02T15:12:35Z</time></trkpt><trkpt lat="45.112143498979734" lon="5.38045220218206"><ele>708.0</ele><time>2026-05-02T15:12:36Z</time></trkpt><trkpt lat="45.1121705229495" lon="5.380243659427306"><ele>705.3333333333334</ele><time>2026-05-02T15:12:37Z</time></trkpt><trkpt lat="45.11214904513305" lon="5.3800288252194015"><ele>702.6666666666667</ele><time>2026-05-02T15:12:38Z</time></trkpt><trkpt lat="45.11207113069056" lon="5.37983587422623"><ele>700.0</ele><time>2026-05-02T15:12:39Z</time></trkpt><trkpt lat="45.11196075227955" lon="5.379689725174611"><ele>702.0</ele><time>2026-05-02T15:12:40Z</time></trkpt><trkpt lat="45.111803470906786" lon="5.379572142904939"><ele>704.0</ele><time>2026-05-02T15:12:41Z</time></trkpt><trkpt lat="45.11165271556204" lon="5.379481283366111"><ele>706.0</ele><time>2026-05-02T15:12:42Z</time></trkpt><trkpt lat="45.111503538493075" lon="5.379369970541685"><ele>698.5999999999999</ele><time>2026-05-02T15:12:43Z</time></trkpt><trkpt lat="45.11138437195319" lon="5.379257408429296"><ele>691.2</ele><time>2026-05-02T15:12:44Z</time></trkpt><trkpt lat="45.1112777483572" lon="5.379144681683787"><ele>683.8</ele><time>2026-05-02T15:12:45Z</time></trkpt><trkpt lat="45.11119230072867" lon="5.379100162462713"><ele>676.4000000000001</ele><time>2026-05-02T15:12:46Z</time></trkpt><trkpt lat="45.1111805802491" lon="5.378998828407302"><ele>669.0</ele><time>2026-05-02T15:12:47Z</time></trkpt><trkpt lat="45.11120395752004" lon="5.3788995591667685"><ele>664.3333333333334</ele><time>2026-05-02T15:12:48Z</time></trkpt><trkpt lat="45.1112961297914" lon="5.378787175525094"><ele>659.6666666666667</ele><time>2026-05-02T15:12:49Z</time></trkpt><trkpt lat="45.11139040626823" lon="5.3786105319122"><ele>655.0</ele><time>2026-05-02T15:12:50Z</time></trkpt><trkpt lat="45.11144266515069" lon="5.378378299922446"><ele>655.0</ele><time>2026-05-02T15:12:51Z</time></trkpt><trkpt lat="45.11147045455216" lon="5.378144286802849"><ele>655.0</ele><time>2026-05-02T15:12:52Z</time></trkpt><trkpt lat="45.11151543552393" lon="5.37796561197523"><ele>655.0</ele><time>2026-05-02T15:12:53Z</time></trkpt><trkpt lat="45.11161906973971" lon="5.377865371605891"><ele>655.0</ele><time>2026-05-02T15:12:54Z</time></trkpt><trkpt lat="45.111759225737465" lon="5.3777928427741415"><ele>659.6666666666667</ele><time>2026-05-02T15:12:55Z</time></trkpt><trkpt lat="45.11191325867141" lon="5.377713967308155"><ele>664.3333333333334</ele><time>2026-05-02T15:12:56Z</time></trkpt><trkpt lat="45.112100062036355" lon="5.377667100468911"><ele>669.0</ele><time>2026-05-02T15:12:57Z</time></trkpt><trkpt lat="45.11228527928414" lon="5.377645777568638"><ele>671.6666666666666</ele><time>2026-05-02T15:12:58Z</time></trkpt><trkpt lat="45.11248830232973" lon="5.377586970605746"><ele>674.3333333333333</ele><time>2026-05-02T15:12:59Z</time></trkpt><trkpt lat="45.11267908086677" lon="5.377563431882751"><ele>677.0</ele><time>2026-05-02T15:13:00Z</time></trkpt><trkpt lat="45.11286011678889" lon="5.377564047017287"><ele>677.0</ele><time>2026-05-02T15:13:01Z</time></trkpt><trkpt lat="45.11302708178913" lon="5.377574364766008"><ele>677.0</ele><time>2026-05-02T15:13:02Z</time></trkpt><trkpt lat="45.11318532431943" lon="5.377556762124813"><ele>677.0</ele><time>2026-05-02T15:13:03Z</time></trkpt><trkpt lat="45.11333561608595" lon="5.37746391683304"><ele>678.0</ele><time>2026-05-02T15:13:04Z</time></trkpt><trkpt lat="45.113451750189384" lon="5.377295894873744"><ele>679.0</ele><time>2026-05-02T15:13:05Z</time></trkpt><trkpt lat="45.11357125315991" lon="5.377160530322515"><ele>680.0</ele><time>2026-05-02T15:13:06Z</time></trkpt><trkpt lat="45.11370586315395" lon="5.377097358509084"><ele>672.5</ele><time>2026-05-02T15:13:07Z</time></trkpt><trkpt lat="45.11379924751364" lon="5.376985094185104"><ele>665.0</ele><time>2026-05-02T15:13:08Z</time></trkpt><trkpt lat="45.11385288342284" lon="5.37677238308909"><ele>657.5</ele><time>2026-05-02T15:13:09Z</time></trkpt><trkpt lat="45.11388429588164" lon="5.376546051327964"><ele>650.0</ele><time>2026-05-02T15:13:10Z</time></trkpt><trkpt lat="45.113872140965775" lon="5.376316861775962"><ele>647.6666666666666</ele><time>2026-05-02T15:13:11Z</time></trkpt><trkpt lat="45.11380417107494" lon="5.376094757855195"><ele>645.3333333333334</ele><time>2026-05-02T15:13:12Z</time></trkpt><trkpt lat="45.113705656456766" lon="5.375848776588437"><ele>643.0</ele><time>2026-05-02T15:13:13Z</time></trkpt><trkpt lat="45.11359575292518" lon="5.375583880937449"><ele>644.6666666666667</ele><time>2026-05-02T15:13:14Z</time></trkpt><trkpt lat="45.113510315871736" lon="5.375301406980912"><ele>646.3333333333334</ele><time>2026-05-02T15:13:15Z</time></trkpt><trkpt lat="45.11344973614427" lon="5.375035892770126"><ele>648.0</ele><time>2026-05-02T15:13:16Z</time></trkpt><trkpt lat="45.11339069616778" lon="5.374787140334885"><ele>648.6666666666666</ele><time>2026-05-02T15:13:17Z</time></trkpt><trkpt lat="45.11332683062947" lon="5.374540264027198"><ele>649.3333333333333</ele><time>2026-05-02T15:13:18Z</time></trkpt><trkpt lat="45.11330142988444" lon="5.374280863261452"><ele>650.0</ele><time>2026-05-02T15:13:19Z</time></trkpt><trkpt lat="45.11324807030448" lon="5.374042855707464"><ele>633.6666666666666</ele><time>2026-05-02T15:13:20Z</time></trkpt><trkpt lat="45.11314719124922" lon="5.37382180617904"><ele>617.3333333333334</ele><time>2026-05-02T15:13:21Z</time></trkpt><trkpt lat="45.11310354291487" lon="5.3735848386283545"><ele>601.0</ele><time>2026-05-02T15:13:22Z</time></trkpt><trkpt lat="45.11310459840556" lon="5.373331148435118"><ele>601.0</ele><time>2026-05-02T15:13:22.999Z</time></trkpt><trkpt lat="45.11309403064972" lon="5.373057510729658"><ele>601.0</ele><time>2026-05-02T15:13:23.999Z</time></trkpt><trkpt lat="45.11307278703825" lon="5.372780419906175"><ele>601.0</ele><time>2026-05-02T15:13:24.999Z</time></trkpt><trkpt lat="45.1130656893729" lon="5.372527681789687"><ele>597.0</ele><time>2026-05-02T15:13:25.999Z</time></trkpt><trkpt lat="45.11309076231244" lon="5.372279619993154"><ele>593.0</ele><time>2026-05-02T15:13:26.999Z</time></trkpt><trkpt lat="45.11314139293991" lon="5.372045862591741"><ele>589.0</ele><time>2026-05-02T15:13:27.999Z</time></trkpt><trkpt lat="45.113185844698464" lon="5.371818869688018"><ele>601.6666666666667</ele><time>2026-05-02T15:13:28.999Z</time></trkpt><trkpt lat="45.113253125437645" lon="5.3716136225891455"><ele>614.3333333333334</ele><time>2026-05-02T15:13:29.999Z</time></trkpt><trkpt lat="45.11334196297014" lon="5.371443016446996"><ele>627.0</ele><time>2026-05-02T15:13:30.999Z</time></trkpt><trkpt lat="45.11337547326847" lon="5.371234568604673"><ele>627.0</ele><time>2026-05-02T15:13:31.999Z</time></trkpt><trkpt lat="45.11333203846342" lon="5.371009756290098"><ele>627.0</ele><time>2026-05-02T15:13:32.999Z</time></trkpt><trkpt lat="45.11327397474675" lon="5.370814402871505"><ele>627.0</ele><time>2026-05-02T15:13:33.999Z</time></trkpt><trkpt lat="45.113261126624465" lon="5.370597209957298"><ele>624.75</ele><time>2026-05-02T15:13:34.999Z</time></trkpt><trkpt lat="45.11330670282471" lon="5.37039253686615"><ele>622.5</ele><time>2026-05-02T15:13:35.999Z</time></trkpt><trkpt lat="45.11335820792722" lon="5.370213308927593"><ele>620.25</ele><time>2026-05-02T15:13:36.999Z</time></trkpt><trkpt lat="45.113403579380666" lon="5.370057389034386"><ele>618.0</ele><time>2026-05-02T15:13:37.999Z</time></trkpt><trkpt lat="45.113440328914" lon="5.369918737552379"><ele>618.0</ele><time>2026-05-02T15:13:38.999Z</time></trkpt><trkpt lat="45.113434739428754" lon="5.3698004655222"><ele>618.0</ele><time>2026-05-02T15:13:39.999Z</time></trkpt><trkpt lat="45.11337496438059" lon="5.3697405103176195"><ele>618.0</ele><time>2026-05-02T15:13:40.999Z</time></trkpt><trkpt lat="45.1133090159624" lon="5.369781175515561"><ele>618.0</ele><time>2026-05-02T15:13:41.999Z</time></trkpt><trkpt lat="45.11325428736795" lon="5.369911951670063"><ele>618.0</ele><time>2026-05-02T15:13:42.999Z</time></trkpt><trkpt lat="45.113241446222624" lon="5.370081313013477"><ele>600.6666666666666</ele><time>2026-05-02T15:13:43.999Z</time></trkpt><trkpt lat="45.11321365700617" lon="5.3703109422326625"><ele>583.3333333333333</ele><time>2026-05-02T15:13:44.999Z</time></trkpt><trkpt lat="45.113140450166675" lon="5.3705376577428625"><ele>566.0</ele><time>2026-05-02T15:13:45.999Z</time></trkpt><trkpt lat="45.11309469654808" lon="5.370745460520858"><ele>566.0</ele><time>2026-05-02T15:13:46.999Z</time></trkpt><trkpt lat="45.113111851795445" lon="5.370973940528889"><ele>566.0</ele><time>2026-05-02T15:13:47.999Z</time></trkpt><trkpt lat="45.11311131474761" lon="5.371225916810852"><ele>566.0</ele><time>2026-05-02T15:13:48.999Z</time></trkpt><trkpt lat="45.1130307131348" lon="5.371482643438974"><ele>569.3333333333333</ele><time>2026-05-02T15:13:49.999Z</time></trkpt><trkpt lat="45.11291552821794" lon="5.371736458428864"><ele>572.6666666666666</ele><time>2026-05-02T15:13:50.999Z</time></trkpt><trkpt lat="45.11276932407973" lon="5.371968787122868"><ele>576.0</ele><time>2026-05-02T15:13:51.999Z</time></trkpt><trkpt lat="45.11268808916108" lon="5.37221195144367"><ele>579.25</ele><time>2026-05-02T15:13:53.999Z</time></trkpt><trkpt lat="45.11261358560815" lon="5.37241925028582"><ele>582.5</ele><time>2026-05-02T15:13:54.999Z</time></trkpt><trkpt lat="45.112570613774515" lon="5.372618858493752"><ele>585.75</ele><time>2026-05-02T15:13:55.999Z</time></trkpt><trkpt lat="45.11257594689799" lon="5.372797389636812"><ele>589.0</ele><time>2026-05-02T15:13:56.999Z</time></trkpt><trkpt lat="45.11260025616572" lon="5.372942244086999"><ele>589.0</ele><time>2026-05-02T15:13:57.999Z</time></trkpt><trkpt lat="45.11258541875006" lon="5.3730295547727085"><ele>589.0</ele><time>2026-05-02T15:13:58.999Z</time></trkpt><trkpt lat="45.11247387194726" lon="5.37299225459012"><ele>589.0</ele><time>2026-05-02T15:14:00.999Z</time></trkpt><trkpt lat="45.11245418752443" lon="5.372866129219569"><ele>589.0</ele><time>2026-05-02T15:14:01.999Z</time></trkpt><trkpt lat="45.11247623889107" lon="5.372696084088565"><ele>589.0</ele><time>2026-05-02T15:14:02.999Z</time></trkpt><trkpt lat="45.11252392360564" lon="5.372473141510292"><ele>589.0</ele><time>2026-05-02T15:14:03.999Z</time></trkpt><trkpt lat="45.11259083591847" lon="5.372195126369844"><ele>589.0</ele><time>2026-05-02T15:14:04.999Z</time></trkpt><trkpt lat="45.11266474902255" lon="5.371889796256118"><ele>589.0</ele><time>2026-05-02T15:14:05.999Z</time></trkpt><trkpt lat="45.11273031747896" lon="5.371643138363362"><ele>584.6666666666667</ele><time>2026-05-02T15:14:06.999Z</time></trkpt><trkpt lat="45.11279636325143" lon="5.371412322814891"><ele>580.3333333333334</ele><time>2026-05-02T15:14:07.999Z</time></trkpt><trkpt lat="45.11286843913325" lon="5.371186349633078"><ele>576.0</ele><time>2026-05-02T15:14:08.999Z</time></trkpt><trkpt lat="45.112904533937794" lon="5.3709690384451"><ele>572.6666666666666</ele><time>2026-05-02T15:14:09.999Z</time></trkpt><trkpt lat="45.11287701690947" lon="5.370749252477695"><ele>569.3333333333333</ele><time>2026-05-02T15:14:10.999Z</time></trkpt><trkpt lat="45.112801686057125" lon="5.370522813574657"><ele>566.0</ele><time>2026-05-02T15:14:11.999Z</time></trkpt><trkpt lat="45.11279122588496" lon="5.370286674498225"><ele>563.0</ele><time>2026-05-02T15:14:12.999Z</time></trkpt><trkpt lat="45.11282503804264" lon="5.370018441120345"><ele>560.0</ele><time>2026-05-02T15:14:13.999Z</time></trkpt><trkpt lat="45.11285077744883" lon="5.369724429654149"><ele>557.0</ele><time>2026-05-02T15:14:14.999Z</time></trkpt><trkpt lat="45.112839540959705" lon="5.369384492147628"><ele>554.3333333333333</ele><time>2026-05-02T15:14:15.999Z</time></trkpt><trkpt lat="45.11282836739735" lon="5.369068600183517"><ele>551.6666666666666</ele><time>2026-05-02T15:14:16.999Z</time></trkpt><trkpt lat="45.11282523520593" lon="5.368785206344555"><ele>549.0</ele><time>2026-05-02T15:14:17.999Z</time></trkpt><trkpt lat="45.11281605204969" lon="5.368514182473745"><ele>548.0</ele><time>2026-05-02T15:14:18.999Z</time></trkpt><trkpt lat="45.1128104211621" lon="5.368282177181753"><ele>547.0</ele><time>2026-05-02T15:14:19.999Z</time></trkpt><trkpt lat="45.1128101988366" lon="5.368104501565537"><ele>546.0</ele><time>2026-05-02T15:14:20.999Z</time></trkpt><trkpt lat="45.11282270543284" lon="5.367962103587232"><ele>545.0</ele><time>2026-05-02T15:14:21.999Z</time></trkpt><trkpt lat="45.11291575066376" lon="5.367931945640629"><ele>544.3333333333333</ele><time>2026-05-02T15:14:22.999Z</time></trkpt><trkpt lat="45.11302688528007" lon="5.3678999484021075"><ele>543.6666666666666</ele><time>2026-05-02T15:14:23.999Z</time></trkpt><trkpt lat="45.113196696048476" lon="5.36792761639182"><ele>543.0</ele><time>2026-05-02T15:14:24.998Z</time></trkpt><trkpt lat="45.11338585583014" lon="5.367882482174203"><ele>544.6666666666666</ele><time>2026-05-02T15:14:25.998Z</time></trkpt><trkpt lat="45.11358085627808" lon="5.367781367260675"><ele>546.3333333333333</ele><time>2026-05-02T15:14:26.998Z</time></trkpt><trkpt lat="45.11376653813172" lon="5.367686558381422"><ele>548.0</ele><time>2026-05-02T15:14:27.998Z</time></trkpt><trkpt lat="45.113920445641675" lon="5.367563206188653"><ele>548.0</ele><time>2026-05-02T15:14:28.998Z</time></trkpt><trkpt lat="45.114037532223556" lon="5.36739242362552"><ele>548.0</ele><time>2026-05-02T15:14:29.998Z</time></trkpt><trkpt lat="45.11413571249062" lon="5.367199350004673"><ele>548.0</ele><time>2026-05-02T15:14:30.998Z</time></trkpt><trkpt lat="45.11420932384549" lon="5.367013754933155"><ele>540.3333333333333</ele><time>2026-05-02T15:14:31.998Z</time></trkpt><trkpt lat="45.11431440328646" lon="5.366870777109761"><ele>532.6666666666666</ele><time>2026-05-02T15:14:32.998Z</time></trkpt><trkpt lat="45.11445985507234" lon="5.366814222107146"><ele>525.0</ele><time>2026-05-02T15:14:33.998Z</time></trkpt><trkpt lat="45.11461779296581" lon="5.3668226239012125"><ele>525.0</ele><time>2026-05-02T15:14:34.998Z</time></trkpt><trkpt lat="45.11476895102922" lon="5.366795456667842"><ele>525.0</ele><time>2026-05-02T15:14:35.998Z</time></trkpt><trkpt lat="45.11490003824999" lon="5.366702968773382"><ele>525.0</ele><time>2026-05-02T15:14:36.998Z</time></trkpt><trkpt lat="45.115042653803556" lon="5.36664589553482"><ele>525.0</ele><time>2026-05-02T15:14:37.998Z</time></trkpt><trkpt lat="45.11520270451004" lon="5.366632284068085"><ele>528.3333333333334</ele><time>2026-05-02T15:14:38.998Z</time></trkpt><trkpt lat="45.115365218938706" lon="5.366626401585284"><ele>531.6666666666667</ele><time>2026-05-02T15:14:39.998Z</time></trkpt><trkpt lat="45.115513758872346" lon="5.3666525696017064"><ele>535.0</ele><time>2026-05-02T15:14:41Z</time></trkpt><trkpt lat="45.11565236195774" lon="5.366691377918168"><ele>533.5</ele><time>2026-05-02T15:14:42Z</time></trkpt><trkpt lat="45.115792354363165" lon="5.366732311501439"><ele>532.0</ele><time>2026-05-02T15:14:43Z</time></trkpt><trkpt lat="45.11592620414514" lon="5.366762052432561"><ele>530.5</ele><time>2026-05-02T15:14:44Z</time></trkpt><trkpt lat="45.1160563645536" lon="5.366798589960404"><ele>529.0</ele><time>2026-05-02T15:14:45Z</time></trkpt><trkpt lat="45.11618100830899" lon="5.3668489450478205"><ele>529.0</ele><time>2026-05-02T15:14:46Z</time></trkpt><trkpt lat="45.11629428923348" lon="5.3669054750977985"><ele>529.0</ele><time>2026-05-02T15:14:47Z</time></trkpt><trkpt lat="45.11640269268757" lon="5.366961312151009"><ele>529.0</ele><time>2026-05-02T15:14:48Z</time></trkpt><trkpt lat="45.11650637753101" lon="5.367022306364894"><ele>529.0</ele><time>2026-05-02T15:14:49Z</time></trkpt><trkpt lat="45.116584908941384" lon="5.36707743539976"><ele>529.0</ele><time>2026-05-02T15:14:50Z</time></trkpt><trkpt lat="45.11667391852619" lon="5.36713291796317"><ele>529.25</ele><time>2026-05-02T15:14:51Z</time></trkpt><trkpt lat="45.11676090653289" lon="5.367224048793296"><ele>529.5</ele><time>2026-05-02T15:14:52Z</time></trkpt><trkpt lat="45.11683889429388" lon="5.367373922184209"><ele>529.75</ele><time>2026-05-02T15:14:53Z</time></trkpt><trkpt lat="45.11693940695304" lon="5.367519624232843"><ele>530.0</ele><time>2026-05-02T15:14:54Z</time></trkpt><trkpt lat="45.11702082735716" lon="5.367664066126926"><ele>530.0</ele><time>2026-05-02T15:14:55Z</time></trkpt><trkpt lat="45.11707281246503" lon="5.36780903402207"><ele>530.0</ele><time>2026-05-02T15:14:56Z</time></trkpt><trkpt lat="45.117112320610254" lon="5.367940173561168"><ele>530.0</ele><time>2026-05-02T15:14:57Z</time></trkpt><trkpt lat="45.11716770583924" lon="5.368007685217534"><ele>530.0</ele><time>2026-05-02T15:14:58Z</time></trkpt><trkpt lat="45.11723053760418" lon="5.367981554200531"><ele>530.0</ele><time>2026-05-02T15:14:59Z</time></trkpt><trkpt lat="45.117276178103424" lon="5.367864897010589"><ele>530.0</ele><time>2026-05-02T15:15:00Z</time></trkpt><trkpt lat="45.11725357769453" lon="5.367755120027167"><ele>530.0</ele><time>2026-05-02T15:15:01Z</time></trkpt><trkpt lat="45.11718443488559" lon="5.367603015645559"><ele>530.0</ele><time>2026-05-02T15:15:02Z</time></trkpt><trkpt lat="45.11710709005323" lon="5.3673680917395155"><ele>530.0</ele><time>2026-05-02T15:15:03Z</time></trkpt><trkpt lat="45.11705299634234" lon="5.367085308095859"><ele>525.0</ele><time>2026-05-02T15:15:04Z</time></trkpt><trkpt lat="45.117024577256736" lon="5.366840281537844"><ele>520.0</ele><time>2026-05-02T15:15:05Z</time></trkpt><trkpt lat="45.11701573934756" lon="5.366641481862349"><ele>515.0</ele><time>2026-05-02T15:15:06Z</time></trkpt><trkpt lat="45.11696694175071" lon="5.366476278900459"><ele>510.0</ele><time>2026-05-02T15:15:07Z</time></trkpt><trkpt lat="45.11688215508518" lon="5.366349798509068"><ele>504.66666666666663</ele><time>2026-05-02T15:15:08Z</time></trkpt><trkpt lat="45.11675585444536" lon="5.366284554769341"><ele>499.3333333333333</ele><time>2026-05-02T15:15:09Z</time></trkpt><trkpt lat="45.11659441000572" lon="5.366185960851388"><ele>494.0</ele><time>2026-05-02T15:15:10Z</time></trkpt><trkpt lat="45.11642827118234" lon="5.366048281172072"><ele>494.0</ele><time>2026-05-02T15:15:11Z</time></trkpt><trkpt lat="45.11628232046508" lon="5.3658982384853395"><ele>494.0</ele><time>2026-05-02T15:15:12Z</time></trkpt><trkpt lat="45.11617677505791" lon="5.365731961953718"><ele>494.0</ele><time>2026-05-02T15:15:13Z</time></trkpt><trkpt lat="45.116076153055545" lon="5.365569601443267"><ele>484.66666666666663</ele><time>2026-05-02T15:15:14Z</time></trkpt><trkpt lat="45.115948769645414" lon="5.365453770861253"><ele>475.33333333333337</ele><time>2026-05-02T15:15:15Z</time></trkpt><trkpt lat="45.11579152543436" lon="5.365403618903841"><ele>466.0</ele><time>2026-05-02T15:15:16Z</time></trkpt><trkpt lat="45.11564196616387" lon="5.365437763908233"><ele>470.6666666666667</ele><time>2026-05-02T15:15:17Z</time></trkpt><trkpt lat="45.11549699926897" lon="5.36554360216292"><ele>475.33333333333337</ele><time>2026-05-02T15:15:18Z</time></trkpt><trkpt lat="45.11533754871106" lon="5.365697190071095"><ele>480.0</ele><time>2026-05-02T15:15:19Z</time></trkpt><trkpt lat="45.11517528279512" lon="5.3658573276743615"><ele>480.0</ele><time>2026-05-02T15:15:20Z</time></trkpt><trkpt lat="45.11502140489361" lon="5.365968029806274"><ele>480.0</ele><time>2026-05-02T15:15:21Z</time></trkpt><trkpt lat="45.11486260616465" lon="5.366002539361053"><ele>480.0</ele><time>2026-05-02T15:15:22Z</time></trkpt><trkpt lat="45.11468901413317" lon="5.36598089768823"><ele>478.33333333333337</ele><time>2026-05-02T15:15:23Z</time></trkpt><trkpt lat="45.114512242142006" lon="5.365929161347127"><ele>476.6666666666667</ele><time>2026-05-02T15:15:24Z</time></trkpt><trkpt lat="45.114340608045254" lon="5.365908617714006"><ele>475.0</ele><time>2026-05-02T15:15:25Z</time></trkpt><trkpt lat="45.11418690660273" lon="5.3659373956727325"><ele>475.4</ele><time>2026-05-02T15:15:26Z</time></trkpt><trkpt lat="45.11404340280473" lon="5.365933543141337"><ele>475.8</ele><time>2026-05-02T15:15:27Z</time></trkpt><trkpt lat="45.113919679284976" lon="5.365898152346241"><ele>476.20000000000005</ele><time>2026-05-02T15:15:28Z</time></trkpt><trkpt lat="45.11382624059713" lon="5.365854176635191"><ele>476.6</ele><time>2026-05-02T15:15:28.999Z</time></trkpt><trkpt lat="45.11376979528891" lon="5.36578789161166"><ele>477.0</ele><time>2026-05-02T15:15:29.999Z</time></trkpt><trkpt lat="45.113774658645696" lon="5.365679443894496"><ele>477.0</ele><time>2026-05-02T15:15:30.999Z</time></trkpt><trkpt lat="45.11382141561177" lon="5.365601015737161"><ele>477.0</ele><time>2026-05-02T15:15:31.999Z</time></trkpt><trkpt lat="45.113907175213576" lon="5.36559535139505"><ele>477.0</ele><time>2026-05-02T15:15:32.999Z</time></trkpt><trkpt lat="45.114041111407616" lon="5.365644562553975"><ele>477.0</ele><time>2026-05-02T15:15:33.999Z</time></trkpt><trkpt lat="45.114196499993525" lon="5.365666888653245"><ele>476.33333333333337</ele><time>2026-05-02T15:15:34.999Z</time></trkpt><trkpt lat="45.11436180444345" lon="5.365622996507438"><ele>475.6666666666667</ele><time>2026-05-02T15:15:35.999Z</time></trkpt><trkpt lat="45.11454757276706" lon="5.36552608228035"><ele>475.0</ele><time>2026-05-02T15:15:36.999Z</time></trkpt><trkpt lat="45.11473877471732" lon="5.365406317757437"><ele>467.6666666666667</ele><time>2026-05-02T15:15:37.999Z</time></trkpt><trkpt lat="45.11487974992649" lon="5.365237253991303"><ele>460.33333333333337</ele><time>2026-05-02T15:15:38.999Z</time></trkpt><trkpt lat="45.11501012034852" lon="5.365089307261997"><ele>453.0</ele><time>2026-05-02T15:15:39.999Z</time></trkpt><trkpt lat="45.115156899006735" lon="5.365011958703423"><ele>453.0</ele><time>2026-05-02T15:15:40.999Z</time></trkpt><trkpt lat="45.115278700988725" lon="5.364923916078866"><ele>453.0</ele><time>2026-05-02T15:15:41.999Z</time></trkpt><trkpt lat="45.11540765557519" lon="5.364762083627715"><ele>453.0</ele><time>2026-05-02T15:15:42.999Z</time></trkpt><trkpt lat="45.11549178604613" lon="5.36451085557031"><ele>448.66666666666663</ele><time>2026-05-02T15:15:43.999Z</time></trkpt><trkpt lat="45.115627424547405" lon="5.364267060415077"><ele>444.3333333333333</ele><time>2026-05-02T15:15:44.999Z</time></trkpt><trkpt lat="45.11578410794159" lon="5.364082899126397"><ele>440.0</ele><time>2026-05-02T15:15:45.999Z</time></trkpt><trkpt lat="45.115935743971136" lon="5.363913742100572"><ele>431.66666666666663</ele><time>2026-05-02T15:15:46.999Z</time></trkpt><trkpt lat="45.11608388311573" lon="5.363779766082699"><ele>423.33333333333337</ele><time>2026-05-02T15:15:47.999Z</time></trkpt><trkpt lat="45.11623029018782" lon="5.363715973175239"><ele>415.0</ele><time>2026-05-02T15:15:48.999Z</time></trkpt><trkpt lat="45.116391287334864" lon="5.36373545182613"><ele>415.0</ele><time>2026-05-02T15:15:49.999Z</time></trkpt><trkpt lat="45.11656537047973" lon="5.363840653284176"><ele>415.0</ele><time>2026-05-02T15:15:50.999Z</time></trkpt><trkpt lat="45.116778324372866" lon="5.363904282828736"><ele>415.0</ele><time>2026-05-02T15:15:51.999Z</time></trkpt><trkpt lat="45.11699332602692" lon="5.363970583271479"><ele>418.33333333333337</ele><time>2026-05-02T15:15:52.999Z</time></trkpt><trkpt lat="45.11721432728556" lon="5.364000036469471"><ele>421.66666666666663</ele><time>2026-05-02T15:15:53.999Z</time></trkpt><trkpt lat="45.11744023718309" lon="5.364020109230755"><ele>425.0</ele><time>2026-05-02T15:15:54.999Z</time></trkpt><trkpt lat="45.1176489590006" lon="5.364052571819682"><ele>425.0</ele><time>2026-05-02T15:15:55.999Z</time></trkpt><trkpt lat="45.11783903050336" lon="5.364104772547038"><ele>425.0</ele><time>2026-05-02T15:15:56.999Z</time></trkpt><trkpt lat="45.11802954554575" lon="5.364168280142503"><ele>425.0</ele><time>2026-05-02T15:15:57.999Z</time></trkpt><trkpt lat="45.11821970868353" lon="5.364233365671679"><ele>419.3333333333333</ele><time>2026-05-02T15:15:58.999Z</time></trkpt><trkpt lat="45.11840272498519" lon="5.36429600530235"><ele>413.66666666666663</ele><time>2026-05-02T15:15:59.999Z</time></trkpt><trkpt lat="45.11858936699187" lon="5.364362730287241"><ele>408.0</ele><time>2026-05-02T15:16:00.999Z</time></trkpt><trkpt lat="45.11878860650935" lon="5.364409579547577"><ele>408.0</ele><time>2026-05-02T15:16:01.999Z</time></trkpt><trkpt lat="45.11897892713852" lon="5.364476760122192"><ele>408.0</ele><time>2026-05-02T15:16:02.999Z</time></trkpt><trkpt lat="45.11915695537323" lon="5.3645571008975175"><ele>408.0</ele><time>2026-05-02T15:16:03.999Z</time></trkpt><trkpt lat="45.119329071460506" lon="5.36461924805981"><ele>408.0</ele><time>2026-05-02T15:16:04.999Z</time></trkpt><trkpt lat="45.119459945540314" lon="5.36473992401464"><ele>408.0</ele><time>2026-05-02T15:16:05.999Z</time></trkpt><trkpt lat="45.11958173994377" lon="5.364896131476721"><ele>408.0</ele><time>2026-05-02T15:16:06.999Z</time></trkpt><trkpt lat="45.119713866196825" lon="5.365094583180318"><ele>408.0</ele><time>2026-05-02T15:16:07.999Z</time></trkpt><trkpt lat="45.11985730611481" lon="5.365288010299984"><ele>408.0</ele><time>2026-05-02T15:16:08.999Z</time></trkpt><trkpt lat="45.11997509433474" lon="5.365474295137205"><ele>408.0</ele><time>2026-05-02T15:16:09.999Z</time></trkpt><trkpt lat="45.12009217391739" lon="5.365639035011601"><ele>406.2</ele><time>2026-05-02T15:16:10.999Z</time></trkpt><trkpt lat="45.120198918859074" lon="5.365788666528889"><ele>404.4</ele><time>2026-05-02T15:16:11.999Z</time></trkpt><trkpt lat="45.120280138183745" lon="5.365905341388532"><ele>402.59999999999997</ele><time>2026-05-02T15:16:12.999Z</time></trkpt><trkpt lat="45.12034559292254" lon="5.365986002440619"><ele>400.79999999999995</ele><time>2026-05-02T15:16:13.999Z</time></trkpt><trkpt lat="45.1204123535594" lon="5.365988034497776"><ele>399.0</ele><time>2026-05-02T15:16:14.999Z</time></trkpt><trkpt lat="45.120479423823845" lon="5.365923414411585"><ele>399.0</ele><time>2026-05-02T15:16:15.999Z</time></trkpt><trkpt lat="45.12049501658329" lon="5.365788512189203"><ele>399.0</ele><time>2026-05-02T15:16:16.999Z</time></trkpt><trkpt lat="45.1204615617846" lon="5.365624580436759"><ele>399.0</ele><time>2026-05-02T15:16:17.999Z</time></trkpt><trkpt lat="45.12041354670161" lon="5.365412611496182"><ele>399.0</ele><time>2026-05-02T15:16:18.999Z</time></trkpt><trkpt lat="45.12041952644859" lon="5.365166196924558"><ele>397.0</ele><time>2026-05-02T15:16:19.999Z</time></trkpt><trkpt lat="45.1204517170536" lon="5.364962259901337"><ele>395.0</ele><time>2026-05-02T15:16:20.999Z</time></trkpt><trkpt lat="45.12051016769561" lon="5.364800799067384"><ele>393.0</ele><time>2026-05-02T15:16:21.999Z</time></trkpt><trkpt lat="45.12055980558472" lon="5.364630593601222"><ele>391.0</ele><time>2026-05-02T15:16:22.999Z</time></trkpt><trkpt lat="45.12060745470507" lon="5.364448061369191"><ele>390.20000000000005</ele><time>2026-05-02T15:16:23.999Z</time></trkpt><trkpt lat="45.12063317054906" lon="5.3642579739500995"><ele>389.40000000000003</ele><time>2026-05-02T15:16:24.999Z</time></trkpt><trkpt lat="45.12063741358081" lon="5.364088046824353"><ele>388.6</ele><time>2026-05-02T15:16:25.999Z</time></trkpt><trkpt lat="45.120628169948" lon="5.363940817997735"><ele>387.8</ele><time>2026-05-02T15:16:26.999Z</time></trkpt><trkpt lat="45.12061819244872" lon="5.363834000553455"><ele>387.0</ele><time>2026-05-02T15:16:27.999Z</time></trkpt><trkpt lat="45.12062216330512" lon="5.363720042824717"><ele>386.0</ele><time>2026-05-02T15:16:28.998Z</time></trkpt><trkpt lat="45.1206240513929" lon="5.363612330088952"><ele>385.0</ele><time>2026-05-02T15:16:29.998Z</time></trkpt><trkpt lat="45.12061171433134" lon="5.363502764577593"><ele>384.0</ele><time>2026-05-02T15:16:30.998Z</time></trkpt><trkpt lat="45.120609002429354" lon="5.363364961159477"><ele>383.0</ele><time>2026-05-02T15:16:31.998Z</time></trkpt><trkpt lat="45.120591667208295" lon="5.36322649852771"><ele>382.0</ele><time>2026-05-02T15:16:32.998Z</time></trkpt><trkpt lat="45.1205851339506" lon="5.3630792575519415"><ele>380.8</ele><time>2026-05-02T15:16:33.998Z</time></trkpt><trkpt lat="45.120580414230474" lon="5.362928541175891"><ele>379.6</ele><time>2026-05-02T15:16:34.998Z</time></trkpt><trkpt lat="45.12058391256715" lon="5.362798253869566"><ele>378.40000000000003</ele><time>2026-05-02T15:16:35.998Z</time></trkpt><trkpt lat="45.12060014440415" lon="5.362649143209337"><ele>377.20000000000005</ele><time>2026-05-02T15:16:37.998Z</time></trkpt><trkpt lat="45.12072695995727" lon="5.362673671701641"><ele>376.0</ele><time>2026-05-02T15:16:38.998Z</time></trkpt><trkpt lat="45.12081915244465" lon="5.3626631320679605"><ele>375.4</ele><time>2026-05-02T15:16:39.998Z</time></trkpt><trkpt lat="45.120918760983756" lon="5.362643699057159"><ele>374.8</ele><time>2026-05-02T15:16:40.998Z</time></trkpt><trkpt lat="45.12103238494749" lon="5.362653853769906"><ele>374.2</ele><time>2026-05-02T15:16:41.998Z</time></trkpt><trkpt lat="45.12114650405686" lon="5.362651301484642"><ele>373.59999999999997</ele><time>2026-05-02T15:16:42.998Z</time></trkpt><trkpt lat="45.121253660305925" lon="5.362648904924008"><ele>373.0</ele><time>2026-05-02T15:16:43.998Z</time></trkpt><trkpt lat="45.121354815652374" lon="5.3626249497264284"><ele>373.0</ele><time>2026-05-02T15:16:44.998Z</time></trkpt><trkpt lat="45.12143332458493" lon="5.362645440771314"><ele>373.0</ele><time>2026-05-02T15:16:45.998Z</time></trkpt><trkpt lat="45.12151234455867" lon="5.362638560868812"><ele>373.0</ele><time>2026-05-02T15:16:47Z</time></trkpt><trkpt lat="45.12158847669659" lon="5.362649493760876"><ele>373.0</ele><time>2026-05-02T15:16:48Z</time></trkpt><trkpt lat="45.12166375367967" lon="5.362645469258504"><ele>373.0</ele><time>2026-05-02T15:16:49Z</time></trkpt><trkpt lat="45.12172885130269" lon="5.362606626787664"><ele>373.0</ele><time>2026-05-02T15:16:51Z</time></trkpt><trkpt lat="45.121864416116374" lon="5.3627288332161855"><ele>372.0</ele><time>2026-05-02T15:16:54Z</time></trkpt><trkpt lat="45.12192866412074" lon="5.36285011240739"><ele>371.0</ele><time>2026-05-02T15:16:55Z</time></trkpt><trkpt lat="45.1219876079154" lon="5.362934401356987"><ele>370.0</ele><time>2026-05-02T15:16:56Z</time></trkpt><trkpt lat="45.122035063006535" lon="5.363012535625321"><ele>369.0</ele><time>2026-05-02T15:16:57Z</time></trkpt><trkpt lat="45.122073514732335" lon="5.363083576713328"><ele>368.0</ele><time>2026-05-02T15:16:58Z</time></trkpt><trkpt lat="45.12210799333084" lon="5.363171387134591"><ele>367.0</ele><time>2026-05-02T15:16:59Z</time></trkpt><trkpt lat="45.122158253656714" lon="5.363251692817722"><ele>367.0</ele><time>2026-05-02T15:17:00Z</time></trkpt><trkpt lat="45.12221725699707" lon="5.36335348548339"><ele>367.0</ele><time>2026-05-02T15:17:01Z</time></trkpt><trkpt lat="45.12228130331948" lon="5.363470324404922"><ele>367.0</ele><time>2026-05-02T15:17:02Z</time></trkpt><trkpt lat="45.12236015962571" lon="5.363626290066558"><ele>367.0</ele><time>2026-05-02T15:17:03Z</time></trkpt><trkpt lat="45.122447302503886" lon="5.363767509211402"><ele>365.8</ele><time>2026-05-02T15:17:04Z</time></trkpt><trkpt lat="45.12252304898872" lon="5.363862690488697"><ele>364.6</ele><time>2026-05-02T15:17:05Z</time></trkpt><trkpt lat="45.122584267266454" lon="5.363916753579622"><ele>363.40000000000003</ele><time>2026-05-02T15:17:06Z</time></trkpt><trkpt lat="45.12265937353551" lon="5.363974833704718"><ele>362.20000000000005</ele><time>2026-05-02T15:17:08Z</time></trkpt><trkpt lat="45.12277124655737" lon="5.364066200790324"><ele>361.0</ele><time>2026-05-02T15:17:10Z</time></trkpt><trkpt lat="45.12284203652224" lon="5.364131275793685"><ele>361.0</ele><time>2026-05-02T15:17:11Z</time></trkpt><trkpt lat="45.12292268796495" lon="5.364193499925722"><ele>361.0</ele><time>2026-05-02T15:17:12Z</time></trkpt><trkpt lat="45.123064862358135" lon="5.364304067412841"><ele>361.0</ele><time>2026-05-02T15:17:13Z</time></trkpt><trkpt lat="45.12316787342606" lon="5.364509443831029"><ele>361.0</ele><time>2026-05-02T15:17:14Z</time></trkpt><trkpt lat="45.123259840634496" lon="5.364689835674257"><ele>358.66666666666663</ele><time>2026-05-02T15:17:15Z</time></trkpt><trkpt lat="45.12333380449311" lon="5.364894450709293"><ele>356.3333333333333</ele><time>2026-05-02T15:17:16Z</time></trkpt><trkpt lat="45.12340726791657" lon="5.365097842209837"><ele>354.0</ele><time>2026-05-02T15:17:17Z</time></trkpt><trkpt lat="45.123466361300565" lon="5.365285198281725"><ele>354.0</ele><time>2026-05-02T15:17:18Z</time></trkpt><trkpt lat="45.12358480079409" lon="5.365448023050101"><ele>354.0</ele><time>2026-05-02T15:17:19Z</time></trkpt><trkpt lat="45.1237648162132" lon="5.365562616764923"><ele>354.0</ele><time>2026-05-02T15:17:20Z</time></trkpt><trkpt lat="45.12392733962496" lon="5.365660743021063"><ele>352.0</ele><time>2026-05-02T15:17:21Z</time></trkpt><trkpt lat="45.12406464978972" lon="5.365753599163271"><ele>350.0</ele><time>2026-05-02T15:17:22Z</time></trkpt><trkpt lat="45.12419926961548" lon="5.365831769599488"><ele>348.0</ele><time>2026-05-02T15:17:23Z</time></trkpt><trkpt lat="45.124350310052776" lon="5.365856652740748"><ele>348.0</ele><time>2026-05-02T15:17:24Z</time></trkpt><trkpt lat="45.124529763932635" lon="5.365848959336634"><ele>348.0</ele><time>2026-05-02T15:17:25Z</time></trkpt><trkpt lat="45.12472788645191" lon="5.365832244054007"><ele>348.0</ele><time>2026-05-02T15:17:26Z</time></trkpt><trkpt lat="45.12492082164935" lon="5.36584377458657"><ele>345.6666666666667</ele><time>2026-05-02T15:17:27Z</time></trkpt><trkpt lat="45.125121087683205" lon="5.365846871488308"><ele>343.33333333333337</ele><time>2026-05-02T15:17:28Z</time></trkpt><trkpt lat="45.125334073480985" lon="5.365849794228691"><ele>341.0</ele><time>2026-05-02T15:17:29Z</time></trkpt><trkpt lat="45.12554137931956" lon="5.365851613057977"><ele>339.33333333333337</ele><time>2026-05-02T15:17:30Z</time></trkpt><trkpt lat="45.1257314358882" lon="5.365853420702565"><ele>337.6666666666667</ele><time>2026-05-02T15:17:31Z</time></trkpt><trkpt lat="45.125911126599156" lon="5.365875022465372"><ele>336.0</ele><time>2026-05-02T15:17:32Z</time></trkpt><trkpt lat="45.12608940299671" lon="5.3659192911465805"><ele>336.0</ele><time>2026-05-02T15:17:33Z</time></trkpt><trkpt lat="45.12624029089096" lon="5.365985169678726"><ele>336.0</ele><time>2026-05-02T15:17:33.999Z</time></trkpt><trkpt lat="45.12636032760477" lon="5.3660557955796095"><ele>336.0</ele><time>2026-05-02T15:17:34.999Z</time></trkpt><trkpt lat="45.12653283635185" lon="5.365912705150219"><ele>334.6666666666667</ele><time>2026-05-02T15:17:35.999Z</time></trkpt><trkpt lat="45.12670631418388" lon="5.365877352676011"><ele>333.33333333333337</ele><time>2026-05-02T15:17:36.999Z</time></trkpt><trkpt lat="45.1268920301827" lon="5.3658377960079715"><ele>332.0</ele><time>2026-05-02T15:17:37.999Z</time></trkpt><trkpt lat="45.12709177128145" lon="5.365810517752032"><ele>332.0</ele><time>2026-05-02T15:17:38.999Z</time></trkpt><trkpt lat="45.12728698460971" lon="5.3657936023505455"><ele>332.0</ele><time>2026-05-02T15:17:39.999Z</time></trkpt><trkpt lat="45.12749294653749" lon="5.36579665732687"><ele>332.0</ele><time>2026-05-02T15:17:40.999Z</time></trkpt><trkpt lat="45.127701687561796" lon="5.365821000196582"><ele>331.6666666666667</ele><time>2026-05-02T15:17:41.999Z</time></trkpt><trkpt lat="45.12791646726896" lon="5.365858165809854"><ele>331.3333333333333</ele><time>2026-05-02T15:17:42.999Z</time></trkpt><trkpt lat="45.12810668095817" lon="5.365866447305337"><ele>331.0</ele><time>2026-05-02T15:17:43.999Z</time></trkpt><trkpt lat="45.128279742330506" lon="5.365886843189312"><ele>330.5</ele><time>2026-05-02T15:17:44.999Z</time></trkpt><trkpt lat="45.12843719196151" lon="5.365929225400226"><ele>330.0</ele><time>2026-05-02T15:17:45.999Z</time></trkpt><trkpt lat="45.128591531619115" lon="5.36593544519046"><ele>329.5</ele><time>2026-05-02T15:17:46.999Z</time></trkpt><trkpt lat="45.12871559079369" lon="5.365906833946235"><ele>329.0</ele><time>2026-05-02T15:17:47.999Z</time></trkpt><trkpt lat="45.128841764241386" lon="5.365876432653337"><ele>329.0</ele><time>2026-05-02T15:17:48.999Z</time></trkpt><trkpt lat="45.12892629249506" lon="5.365731161691131"><ele>329.0</ele><time>2026-05-02T15:17:49.999Z</time></trkpt><trkpt lat="45.12900296628622" lon="5.365566434393515"><ele>329.0</ele><time>2026-05-02T15:17:50.999Z</time></trkpt><trkpt lat="45.12905389494068" lon="5.365361733910296"><ele>329.0</ele><time>2026-05-02T15:17:51.999Z</time></trkpt><trkpt lat="45.12909516259286" lon="5.365180635501544"><ele>325.5</ele><time>2026-05-02T15:17:52.999Z</time></trkpt><trkpt lat="45.12913277224807" lon="5.3650174694537265"><ele>322.0</ele><time>2026-05-02T15:17:53.999Z</time></trkpt><trkpt lat="45.129186938097455" lon="5.364890678480016"><ele>318.5</ele><time>2026-05-02T15:17:54.999Z</time></trkpt><trkpt lat="45.129280424817715" lon="5.364811727956672"><ele>315.0</ele><time>2026-05-02T15:17:55.999Z</time></trkpt><trkpt lat="45.129407621454305" lon="5.364842705378109"><ele>315.0</ele><time>2026-05-02T15:17:56.999Z</time></trkpt><trkpt lat="45.12957720347537" lon="5.364800656336642"><ele>315.0</ele><time>2026-05-02T15:17:57.999Z</time></trkpt><trkpt lat="45.129744353920806" lon="5.364800740146643"><ele>315.0</ele><time>2026-05-02T15:17:58.999Z</time></trkpt><trkpt lat="45.129934916656126" lon="5.36474476247452"><ele>310.3333333333333</ele><time>2026-05-02T15:17:59.999Z</time></trkpt><trkpt lat="45.130143733453636" lon="5.36464674329947"><ele>305.66666666666663</ele><time>2026-05-02T15:18:00.999Z</time></trkpt><trkpt lat="45.130326905145964" lon="5.364563528013931"><ele>301.0</ele><time>2026-05-02T15:18:01.999Z</time></trkpt><trkpt lat="45.13049857005761" lon="5.36449541559105"><ele>301.0</ele><time>2026-05-02T15:18:02.999Z</time></trkpt><trkpt lat="45.13067388757125" lon="5.364419352894718"><ele>301.0</ele><time>2026-05-02T15:18:03.999Z</time></trkpt><trkpt lat="45.13083205117857" lon="5.3643170594917695"><ele>301.0</ele><time>2026-05-02T15:18:04.999Z</time></trkpt><trkpt lat="45.13096673832397" lon="5.364170269234595"><ele>300.3333333333333</ele><time>2026-05-02T15:18:05.999Z</time></trkpt><trkpt lat="45.131100862535796" lon="5.363990819946116"><ele>299.6666666666667</ele><time>2026-05-02T15:18:06.999Z</time></trkpt><trkpt lat="45.13122716933275" lon="5.363811548225129"><ele>299.0</ele><time>2026-05-02T15:18:07.999Z</time></trkpt><trkpt lat="45.13133683803192" lon="5.363660311238697"><ele>299.0</ele><time>2026-05-02T15:18:08.999Z</time></trkpt><trkpt lat="45.131437271463284" lon="5.3635194045806935"><ele>299.0</ele><time>2026-05-02T15:18:09.999Z</time></trkpt><trkpt lat="45.13146471873518" lon="5.363332097385691"><ele>299.0</ele><time>2026-05-02T15:18:10.999Z</time></trkpt><trkpt lat="45.13147666053952" lon="5.363132139661008"><ele>299.0</ele><time>2026-05-02T15:18:11.999Z</time></trkpt><trkpt lat="45.131491032931784" lon="5.362888194049684"><ele>298.6666666666667</ele><time>2026-05-02T15:18:12.999Z</time></trkpt><trkpt lat="45.13148659137508" lon="5.36260677800269"><ele>298.3333333333333</ele><time>2026-05-02T15:18:13.999Z</time></trkpt><trkpt lat="45.13148912977595" lon="5.36235495574217"><ele>298.0</ele><time>2026-05-02T15:18:14.999Z</time></trkpt><trkpt lat="45.131494192934525" lon="5.362121407347052"><ele>295.5</ele><time>2026-05-02T15:18:15.999Z</time></trkpt><trkpt lat="45.131506503534716" lon="5.361917812289166"><ele>293.0</ele><time>2026-05-02T15:18:16.999Z</time></trkpt><trkpt lat="45.13152496243107" lon="5.361737347787874"><ele>290.5</ele><time>2026-05-02T15:18:17.999Z</time></trkpt><trkpt lat="45.13157619616502" lon="5.3616180612540605"><ele>288.0</ele><time>2026-05-02T15:18:18.999Z</time></trkpt><trkpt lat="45.1316237848235" lon="5.361514072056011"><ele>285.8333333333333</ele><time>2026-05-02T15:18:19.999Z</time></trkpt><trkpt lat="45.13169846611004" lon="5.361474580380446"><ele>283.6666666666667</ele><time>2026-05-02T15:18:20.999Z</time></trkpt><trkpt lat="45.131782074445226" lon="5.361532389796059"><ele>281.5</ele><time>2026-05-02T15:18:21.999Z</time></trkpt><trkpt lat="45.131866533827946" lon="5.361575526594708"><ele>279.33333333333337</ele><time>2026-05-02T15:18:22.999Z</time></trkpt><trkpt lat="45.13194530276246" lon="5.361630598572785"><ele>277.1666666666667</ele><time>2026-05-02T15:18:23.999Z</time></trkpt><trkpt lat="45.13202433421992" lon="5.36168790342383"><ele>275.0</ele><time>2026-05-02T15:18:24.999Z</time></trkpt><trkpt lat="45.13210378091467" lon="5.361752943003911"><ele>275.0</ele><time>2026-05-02T15:18:25.999Z</time></trkpt><trkpt lat="45.13217563124045" lon="5.361818978260102"><ele>275.0</ele><time>2026-05-02T15:18:26.999Z</time></trkpt><trkpt lat="45.13225441554968" lon="5.361891708575396"><ele>275.0</ele><time>2026-05-02T15:18:27.999Z</time></trkpt><trkpt lat="45.13234537328676" lon="5.36197707255506"><ele>275.0</ele><time>2026-05-02T15:18:28.999Z</time></trkpt><trkpt lat="45.13245009083657" lon="5.362076866987666"><ele>275.0</ele><time>2026-05-02T15:18:29.999Z</time></trkpt><trkpt lat="45.13256520617489" lon="5.362170947089983"><ele>276.5</ele><time>2026-05-02T15:18:30.999Z</time></trkpt><trkpt lat="45.13267074205087" lon="5.362288935470646"><ele>278.0</ele><time>2026-05-02T15:18:31.999Z</time></trkpt><trkpt lat="45.13275956310608" lon="5.362389206830395"><ele>279.5</ele><time>2026-05-02T15:18:32.998Z</time></trkpt><trkpt lat="45.1328429435874" lon="5.3624867709150985"><ele>281.0</ele><time>2026-05-02T15:18:33.998Z</time></trkpt><trkpt lat="45.13293905892691" lon="5.362590178743019"><ele>281.0</ele><time>2026-05-02T15:18:34.998Z</time></trkpt><trkpt lat="45.13302800593449" lon="5.362732958652269"><ele>281.0</ele><time>2026-05-02T15:18:35.998Z</time></trkpt><trkpt lat="45.133088899219445" lon="5.362901406401502"><ele>281.0</ele><time>2026-05-02T15:18:36.998Z</time></trkpt><trkpt lat="45.13317238368717" lon="5.363028233726111"><ele>281.0</ele><time>2026-05-02T15:18:37.998Z</time></trkpt><trkpt lat="45.13324812045206" lon="5.363149756324991"><ele>277.2</ele><time>2026-05-02T15:18:38.998Z</time></trkpt><trkpt lat="45.133336197605864" lon="5.363240426784435"><ele>273.40000000000003</ele><time>2026-05-02T15:18:39.998Z</time></trkpt><trkpt lat="45.13344263779877" lon="5.363279182838408"><ele>269.6</ele><time>2026-05-02T15:18:40.998Z</time></trkpt><trkpt lat="45.13353399418906" lon="5.363332083026057"><ele>265.8</ele><time>2026-05-02T15:18:41.998Z</time></trkpt><trkpt lat="45.13361954614692" lon="5.3634558581686305"><ele>262.0</ele><time>2026-05-02T15:18:42.998Z</time></trkpt><trkpt lat="45.133680083211615" lon="5.36358258654514"><ele>262.0</ele><time>2026-05-02T15:18:43.998Z</time></trkpt><trkpt lat="45.13372603497673" lon="5.363722491333987"><ele>262.0</ele><time>2026-05-02T15:18:44.998Z</time></trkpt><trkpt lat="45.133794133181496" lon="5.363824538781565"><ele>262.0</ele><time>2026-05-02T15:18:45.998Z</time></trkpt><trkpt lat="45.133864624271396" lon="5.363900199889283"><ele>262.0</ele><time>2026-05-02T15:18:46.998Z</time></trkpt><trkpt lat="45.134002612850324" lon="5.363890232159633"><ele>262.0</ele><time>2026-05-02T15:18:47.998Z</time></trkpt><trkpt lat="45.13412693262604" lon="5.363877540737822"><ele>261.25</ele><time>2026-05-02T15:18:48.998Z</time></trkpt><trkpt lat="45.13424690988927" lon="5.36388733357222"><ele>260.5</ele><time>2026-05-02T15:18:49.998Z</time></trkpt><trkpt lat="45.134358511169836" lon="5.3639340109274185"><ele>259.75</ele><time>2026-05-02T15:18:50.998Z</time></trkpt><trkpt lat="45.13447196002863" lon="5.363947257680614"><ele>259.0</ele><time>2026-05-02T15:18:51.998Z</time></trkpt><trkpt lat="45.134588668752286" lon="5.3639817418849"><ele>259.0</ele><time>2026-05-02T15:18:53Z</time></trkpt><trkpt lat="45.134716173388455" lon="5.364031787039612"><ele>259.0</ele><time>2026-05-02T15:18:54Z</time></trkpt><trkpt lat="45.13484358122118" lon="5.364104329685927"><ele>259.0</ele><time>2026-05-02T15:18:55Z</time></trkpt><trkpt lat="45.13497838330456" lon="5.364156976994602"><ele>259.0</ele><time>2026-05-02T15:18:56Z</time></trkpt><trkpt lat="45.135118352228375" lon="5.364223022172672"><ele>255.25</ele><time>2026-05-02T15:18:57Z</time></trkpt><trkpt lat="45.13525284585542" lon="5.36428868095287"><ele>251.5</ele><time>2026-05-02T15:18:58Z</time></trkpt><trkpt lat="45.135382126906556" lon="5.364364237571835"><ele>247.75</ele><time>2026-05-02T15:18:59Z</time></trkpt><trkpt lat="45.13549428119163" lon="5.364452630952002"><ele>244.0</ele><time>2026-05-02T15:19:00Z</time></trkpt><trkpt lat="45.1356149876679" lon="5.364502096698313"><ele>244.0</ele><time>2026-05-02T15:19:01Z</time></trkpt><trkpt lat="45.135721842477984" lon="5.3645869484460915"><ele>244.0</ele><time>2026-05-02T15:19:02Z</time></trkpt><trkpt lat="45.135841693354536" lon="5.3646603989126636"><ele>244.0</ele><time>2026-05-02T15:19:03Z</time></trkpt><trkpt lat="45.13596193988444" lon="5.364722933735146"><ele>244.0</ele><time>2026-05-02T15:19:04Z</time></trkpt><trkpt lat="45.136074611784046" lon="5.3647845806827394"><ele>244.0</ele><time>2026-05-02T15:19:05Z</time></trkpt><trkpt lat="45.13618752853262" lon="5.364830683317846"><ele>243.99999999999997</ele><time>2026-05-02T15:19:06Z</time></trkpt><trkpt lat="45.13629474674688" lon="5.3648345030685105"><ele>243.99999999999997</ele><time>2026-05-02T15:19:07Z</time></trkpt><trkpt lat="45.13638108240422" lon="5.364794565382074"><ele>244.0</ele><time>2026-05-02T15:19:08Z</time></trkpt><trkpt lat="45.13644385992275" lon="5.3647324393230065"><ele>244.0</ele><time>2026-05-02T15:19:09Z</time></trkpt><trkpt lat="45.136492159402884" lon="5.364655417935438"><ele>240.99999999999997</ele><time>2026-05-02T15:19:10Z</time></trkpt><trkpt lat="45.13653278226886" lon="5.364577983277619"><ele>238.0</ele><time>2026-05-02T15:19:11Z</time></trkpt><trkpt lat="45.13660563762694" lon="5.364443337563714"><ele>235.0</ele><time>2026-05-02T15:19:13Z</time></trkpt><trkpt lat="45.136664475558334" lon="5.364308397371828"><ele>232.0</ele><time>2026-05-02T15:19:15Z</time></trkpt><trkpt lat="45.13671056316307" lon="5.364242974862811"><ele>228.99999999999997</ele><time>2026-05-02T15:19:16Z</time></trkpt><trkpt lat="45.136762037190294" lon="5.364161056297253"><ele>226.0</ele><time>2026-05-02T15:19:18Z</time></trkpt><trkpt lat="45.136807940560004" lon="5.364063585163173"><ele>223.33333333333331</ele><time>2026-05-02T15:19:26Z</time></trkpt><trkpt lat="45.136937591498665" lon="5.364205579958796"><ele>220.66666666666669</ele><time>2026-05-02T15:19:27Z</time></trkpt><trkpt lat="45.13705325682519" lon="5.364331311629765"><ele>218.0</ele><time>2026-05-02T15:19:28Z</time></trkpt><trkpt lat="45.137194323347586" lon="5.3644880768036005"><ele>218.0</ele><time>2026-05-02T15:19:29Z</time></trkpt><trkpt lat="45.13736230066431" lon="5.364664155291864"><ele>218.0</ele><time>2026-05-02T15:19:30Z</time></trkpt><trkpt lat="45.13753991824872" lon="5.3648633539436235"><ele>218.0</ele><time>2026-05-02T15:19:31Z</time></trkpt><trkpt lat="45.13772282692349" lon="5.365036768732624"><ele>219.33333333333334</ele><time>2026-05-02T15:19:32Z</time></trkpt><trkpt lat="45.13791425937611" lon="5.365187928691293"><ele>220.66666666666669</ele><time>2026-05-02T15:19:33Z</time></trkpt><trkpt lat="45.138102664321146" lon="5.365345903950695"><ele>222.0</ele><time>2026-05-02T15:19:34Z</time></trkpt><trkpt lat="45.138287685069045" lon="5.365504862011859"><ele>222.66666666666669</ele><time>2026-05-02T15:19:35Z</time></trkpt><trkpt lat="45.13846901386531" lon="5.365679401520627"><ele>223.33333333333334</ele><time>2026-05-02T15:19:36Z</time></trkpt><trkpt lat="45.138646094992374" lon="5.365862097605246"><ele>224.0</ele><time>2026-05-02T15:19:37Z</time></trkpt><trkpt lat="45.13882241467286" lon="5.366047188326956"><ele>224.0</ele><time>2026-05-02T15:19:37.999Z</time></trkpt><trkpt lat="45.13899673874083" lon="5.366240002301394"><ele>224.0</ele><time>2026-05-02T15:19:38.999Z</time></trkpt><trkpt lat="45.13916582043524" lon="5.366438914347027"><ele>224.0</ele><time>2026-05-02T15:19:39.999Z</time></trkpt><trkpt lat="45.13933741159222" lon="5.3666422309184405"><ele>224.0</ele><time>2026-05-02T15:19:40.999Z</time></trkpt><trkpt lat="45.13951974847953" lon="5.366849996021208"><ele>224.0</ele><time>2026-05-02T15:19:41.999Z</time></trkpt><trkpt lat="45.139695895813944" lon="5.367065022162686"><ele>223.5</ele><time>2026-05-02T15:19:42.999Z</time></trkpt><trkpt lat="45.13987173008068" lon="5.367279069160942"><ele>223.0</ele><time>2026-05-02T15:19:43.999Z</time></trkpt><trkpt lat="45.140046976299985" lon="5.367488529091767"><ele>223.0</ele><time>2026-05-02T15:19:44.999Z</time></trkpt><trkpt lat="45.140220654622155" lon="5.367692952714329"><ele>223.0</ele><time>2026-05-02T15:19:45.999Z</time></trkpt><trkpt lat="45.14039112291514" lon="5.367892640947218"><ele>223.0</ele><time>2026-05-02T15:19:46.999Z</time></trkpt><trkpt lat="45.140569203029685" lon="5.368094588288398"><ele>224.5</ele><time>2026-05-02T15:19:47.999Z</time></trkpt><trkpt lat="45.140738760266984" lon="5.36832352684236"><ele>226.0</ele><time>2026-05-02T15:19:48.999Z</time></trkpt><trkpt lat="45.140918596423894" lon="5.368536659771976"><ele>226.0</ele><time>2026-05-02T15:19:49.999Z</time></trkpt><trkpt lat="45.141109717718834" lon="5.368736637361549"><ele>226.0</ele><time>2026-05-02T15:19:50.999Z</time></trkpt><trkpt lat="45.14128594279553" lon="5.368952384414973"><ele>228.5</ele><time>2026-05-02T15:19:51.999Z</time></trkpt><trkpt lat="45.14146522120308" lon="5.36917070198826"><ele>231.0</ele><time>2026-05-02T15:19:52.999Z</time></trkpt><trkpt lat="45.141646199478885" lon="5.3693864225902415"><ele>231.0</ele><time>2026-05-02T15:19:53.999Z</time></trkpt><trkpt lat="45.14182677758334" lon="5.369604892594639"><ele>231.0</ele><time>2026-05-02T15:19:54.999Z</time></trkpt><trkpt lat="45.14200617658815" lon="5.369817038024243"><ele>234.0</ele><time>2026-05-02T15:19:55.999Z</time></trkpt><trkpt lat="45.14218380464119" lon="5.370026923141122"><ele>237.0</ele><time>2026-05-02T15:19:56.999Z</time></trkpt><trkpt lat="45.14235991533132" lon="5.370233624152739"><ele>234.0</ele><time>2026-05-02T15:19:57.999Z</time></trkpt><trkpt lat="45.14253609818469" lon="5.370438346674638"><ele>231.0</ele><time>2026-05-02T15:19:58.999Z</time></trkpt><trkpt lat="45.14271008155247" lon="5.370639671651693"><ele>231.0</ele><time>2026-05-02T15:19:59.999Z</time></trkpt><trkpt lat="45.142878959370925" lon="5.370846930219019"><ele>231.0</ele><time>2026-05-02T15:20:00.999Z</time></trkpt><trkpt lat="45.14305100524597" lon="5.371052386121301"><ele>231.0</ele><time>2026-05-02T15:20:01.999Z</time></trkpt><trkpt lat="45.1432203894538" lon="5.371251084266558"><ele>231.66666666666669</ele><time>2026-05-02T15:20:02.999Z</time></trkpt><trkpt lat="45.14339067317995" lon="5.371452389005771"><ele>232.33333333333334</ele><time>2026-05-02T15:20:03.999Z</time></trkpt><trkpt lat="45.143559527824145" lon="5.371653635781477"><ele>233.0</ele><time>2026-05-02T15:20:04.999Z</time></trkpt><trkpt lat="45.14373013276394" lon="5.371852838064421"><ele>233.0</ele><time>2026-05-02T15:20:05.999Z</time></trkpt><trkpt lat="45.14389730442604" lon="5.372052201823258"><ele>233.0</ele><time>2026-05-02T15:20:06.999Z</time></trkpt><trkpt lat="45.14406482331747" lon="5.372251540850063"><ele>233.0</ele><time>2026-05-02T15:20:07.999Z</time></trkpt><trkpt lat="45.144227372493646" lon="5.372447088897835"><ele>234.33333333333334</ele><time>2026-05-02T15:20:08.999Z</time></trkpt><trkpt lat="45.14437838960164" lon="5.372628486296666"><ele>235.66666666666669</ele><time>2026-05-02T15:20:09.999Z</time></trkpt><trkpt lat="45.14452255093524" lon="5.37277947268441"><ele>237.0</ele><time>2026-05-02T15:20:10.999Z</time></trkpt><trkpt lat="45.14464850699117" lon="5.372931234614047"><ele>237.5</ele><time>2026-05-02T15:20:11.999Z</time></trkpt><trkpt lat="45.14476812151149" lon="5.3730732826332375"><ele>238.0</ele><time>2026-05-02T15:20:12.999Z</time></trkpt><trkpt lat="45.14488770148662" lon="5.373183885105219"><ele>238.5</ele><time>2026-05-02T15:20:13.999Z</time></trkpt><trkpt lat="45.145009260156854" lon="5.3732800265870395"><ele>239.0</ele><time>2026-05-02T15:20:14.999Z</time></trkpt><trkpt lat="45.14514590080376" lon="5.373362481546364"><ele>239.25</ele><time>2026-05-02T15:20:15.999Z</time></trkpt><trkpt lat="45.14528335789746" lon="5.373435522583897"><ele>239.5</ele><time>2026-05-02T15:20:16.999Z</time></trkpt><trkpt lat="45.14541969315558" lon="5.373514179593752"><ele>239.75</ele><time>2026-05-02T15:20:17.999Z</time></trkpt><trkpt lat="45.14555766263004" lon="5.373590624417312"><ele>240.0</ele><time>2026-05-02T15:20:18.999Z</time></trkpt><trkpt lat="45.14569439827172" lon="5.3736686805672065"><ele>239.75</ele><time>2026-05-02T15:20:19.999Z</time></trkpt><trkpt lat="45.14583417944748" lon="5.373746119140005"><ele>239.5</ele><time>2026-05-02T15:20:20.999Z</time></trkpt><trkpt lat="45.14597527518056" lon="5.373830387469504"><ele>239.25</ele><time>2026-05-02T15:20:21.999Z</time></trkpt><trkpt lat="45.146105359361485" lon="5.373924966218767"><ele>239.0</ele><time>2026-05-02T15:20:22.999Z</time></trkpt><trkpt lat="45.14622555686097" lon="5.3740131334019114"><ele>238.75</ele><time>2026-05-02T15:20:23.999Z</time></trkpt><trkpt lat="45.146329492393164" lon="5.374108170093991"><ele>238.5</ele><time>2026-05-02T15:20:24.999Z</time></trkpt><trkpt lat="45.14641726532335" lon="5.37422181623952"><ele>238.25</ele><time>2026-05-02T15:20:25.999Z</time></trkpt><trkpt lat="45.146513830521144" lon="5.374296075583936"><ele>238.0</ele><time>2026-05-02T15:20:26.999Z</time></trkpt><trkpt lat="45.14660495768712" lon="5.374400943661395"><ele>238.0</ele><time>2026-05-02T15:20:27.999Z</time></trkpt><trkpt lat="45.146688603307716" lon="5.374512828914259"><ele>238.0</ele><time>2026-05-02T15:20:28.999Z</time></trkpt><trkpt lat="45.14676775791685" lon="5.374636122094619"><ele>238.0</ele><time>2026-05-02T15:20:29.999Z</time></trkpt><trkpt lat="45.14685506360732" lon="5.3747311299196"><ele>238.0</ele><time>2026-05-02T15:20:30.999Z</time></trkpt><trkpt lat="45.14691057849204" lon="5.374804448434652"><ele>238.0</ele><time>2026-05-02T15:20:31.999Z</time></trkpt><trkpt lat="45.14698000681291" lon="5.374877513934018"><ele>237.99999999999997</ele><time>2026-05-02T15:20:33.999Z</time></trkpt><trkpt lat="45.14702745140752" lon="5.374945008659699"><ele>238.0</ele><time>2026-05-02T15:20:55.998Z</time></trkpt><trkpt lat="45.147088510084906" lon="5.375003430453988"><ele>238.0</ele><time>2026-05-02T15:20:56.998Z</time></trkpt><trkpt lat="45.14715217274449" lon="5.375060307831196"><ele>238.0</ele><time>2026-05-02T15:20:57.998Z</time></trkpt><trkpt lat="45.14720938709809" lon="5.375110129175081"><ele>237.99999999999997</ele><time>2026-05-02T15:20:59Z</time></trkpt><trkpt lat="45.14728820514683" lon="5.375178369719048"><ele>238.0</ele><time>2026-05-02T15:21:00Z</time></trkpt><trkpt lat="45.147385586895496" lon="5.375261666738284"><ele>238.0</ele><time>2026-05-02T15:21:01Z</time></trkpt><trkpt lat="45.14748922656986" lon="5.375350192225919"><ele>238.0</ele><time>2026-05-02T15:21:02Z</time></trkpt><trkpt lat="45.14759258154252" lon="5.375438215379208"><ele>238.0</ele><time>2026-05-02T15:21:03Z</time></trkpt><trkpt lat="45.147702865168256" lon="5.375505362566696"><ele>238.0</ele><time>2026-05-02T15:21:04Z</time></trkpt><trkpt lat="45.147805723752505" lon="5.375622304495055"><ele>238.0</ele><time>2026-05-02T15:21:05Z</time></trkpt><trkpt lat="45.14792563993941" lon="5.375726643478173"><ele>238.0</ele><time>2026-05-02T15:21:06Z</time></trkpt><trkpt lat="45.148051131410476" lon="5.375835833023929"><ele>238.0</ele><time>2026-05-02T15:21:07Z</time></trkpt><trkpt lat="45.148178862429084" lon="5.375946971710903"><ele>238.0</ele><time>2026-05-02T15:21:08Z</time></trkpt><trkpt lat="45.14831751448187" lon="5.376042244957403"><ele>237.33333333333331</ele><time>2026-05-02T15:21:09Z</time></trkpt><trkpt lat="45.14843595814901" lon="5.376175753517687"><ele>236.66666666666669</ele><time>2026-05-02T15:21:10Z</time></trkpt><trkpt lat="45.148580757768165" lon="5.37630650117366"><ele>236.0</ele><time>2026-05-02T15:21:11Z</time></trkpt><trkpt lat="45.14873741063879" lon="5.376436287941052"><ele>236.0</ele><time>2026-05-02T15:21:12Z</time></trkpt><trkpt lat="45.14890033421424" lon="5.376584369371359"><ele>236.0</ele><time>2026-05-02T15:21:13Z</time></trkpt><trkpt lat="45.14906390969991" lon="5.376731538393197"><ele>236.0</ele><time>2026-05-02T15:21:14Z</time></trkpt><trkpt lat="45.14924265542543" lon="5.376889555955409"><ele>235.0</ele><time>2026-05-02T15:21:15Z</time></trkpt><trkpt lat="45.14943614549907" lon="5.377060812677215"><ele>234.0</ele><time>2026-05-02T15:21:16Z</time></trkpt><trkpt lat="45.14963110823817" lon="5.377229932769777"><ele>234.0</ele><time>2026-05-02T15:21:17Z</time></trkpt><trkpt lat="45.14982261900555" lon="5.3774011357185385"><ele>234.0</ele><time>2026-05-02T15:21:18Z</time></trkpt><trkpt lat="45.15001844533254" lon="5.377575253057522"><ele>233.0</ele><time>2026-05-02T15:21:19Z</time></trkpt><trkpt lat="45.1502139408878" lon="5.377749992033369"><ele>232.0</ele><time>2026-05-02T15:21:20Z</time></trkpt><trkpt lat="45.150417420327166" lon="5.377919098894093"><ele>231.5</ele><time>2026-05-02T15:21:21Z</time></trkpt><trkpt lat="45.15062665583355" lon="5.3780782544280035"><ele>231.0</ele><time>2026-05-02T15:21:22Z</time></trkpt><trkpt lat="45.1508430334459" lon="5.378227862509916"><ele>231.0</ele><time>2026-05-02T15:21:23Z</time></trkpt><trkpt lat="45.151061820561075" lon="5.378368017844869"><ele>231.0</ele><time>2026-05-02T15:21:24Z</time></trkpt><trkpt lat="45.15128353297242" lon="5.378502082147582"><ele>231.0</ele><time>2026-05-02T15:21:25Z</time></trkpt><trkpt lat="45.15150884076692" lon="5.3786308611015"><ele>231.0</ele><time>2026-05-02T15:21:26Z</time></trkpt><trkpt lat="45.151734134618216" lon="5.378755526994267"><ele>231.0</ele><time>2026-05-02T15:21:27Z</time></trkpt><trkpt lat="45.15195789799674" lon="5.378885710147132"><ele>231.0</ele><time>2026-05-02T15:21:28Z</time></trkpt><trkpt lat="45.15218397383065" lon="5.3790116964080745"><ele>231.0</ele><time>2026-05-02T15:21:29Z</time></trkpt><trkpt lat="45.15240960276967" lon="5.379135445796352"><ele>231.0</ele><time>2026-05-02T15:21:30Z</time></trkpt><trkpt lat="45.152630995826165" lon="5.379260582774039"><ele>231.0</ele><time>2026-05-02T15:21:31Z</time></trkpt><trkpt lat="45.1528527545553" lon="5.37939278870396"><ele>231.0</ele><time>2026-05-02T15:21:32Z</time></trkpt><trkpt lat="45.153069600180295" lon="5.379526298154892"><ele>231.0</ele><time>2026-05-02T15:21:33Z</time></trkpt><trkpt lat="45.15328368043" lon="5.379669229819765"><ele>231.0</ele><time>2026-05-02T15:21:34Z</time></trkpt><trkpt lat="45.15349918873208" lon="5.379817266790387"><ele>231.0</ele><time>2026-05-02T15:21:35Z</time></trkpt><trkpt lat="45.15370073818325" lon="5.3799890305981455"><ele>231.0</ele><time>2026-05-02T15:21:36Z</time></trkpt><trkpt lat="45.153885297276304" lon="5.380196311233819"><ele>231.0</ele><time>2026-05-02T15:21:37Z</time></trkpt><trkpt lat="45.15405475140904" lon="5.380433134742864"><ele>231.0</ele><time>2026-05-02T15:21:38Z</time></trkpt><trkpt lat="45.15419712821549" lon="5.380696180602487"><ele>231.0</ele><time>2026-05-02T15:21:39Z</time></trkpt><trkpt lat="45.15433515769846" lon="5.380969539380065"><ele>231.0</ele><time>2026-05-02T15:21:40Z</time></trkpt><trkpt lat="45.15447517266399" lon="5.381234254756405"><ele>233.5</ele><time>2026-05-02T15:21:40.999Z</time></trkpt><trkpt lat="45.15461385284804" lon="5.381500616268969"><ele>236.0</ele><time>2026-05-02T15:21:41.999Z</time></trkpt><trkpt lat="45.154750848346545" lon="5.3817709229902375"><ele>234.0</ele><time>2026-05-02T15:21:42.999Z</time></trkpt><trkpt lat="45.154879868994854" lon="5.382043044288982"><ele>232.0</ele><time>2026-05-02T15:21:43.999Z</time></trkpt><trkpt lat="45.15501406587363" lon="5.382317024154482"><ele>236.5</ele><time>2026-05-02T15:21:44.999Z</time></trkpt><trkpt lat="45.15515294495858" lon="5.382587072775366"><ele>241.0</ele><time>2026-05-02T15:21:45.999Z</time></trkpt><trkpt lat="45.15529596736949" lon="5.382848350497186"><ele>244.0</ele><time>2026-05-02T15:21:46.999Z</time></trkpt><trkpt lat="45.155456072154486" lon="5.383090717057079"><ele>247.0</ele><time>2026-05-02T15:21:47.999Z</time></trkpt><trkpt lat="45.155632649086776" lon="5.383321148890257"><ele>242.5</ele><time>2026-05-02T15:21:48.999Z</time></trkpt><trkpt lat="45.155810007371606" lon="5.3835540225396254"><ele>238.0</ele><time>2026-05-02T15:21:49.999Z</time></trkpt><trkpt lat="45.15598353999128" lon="5.383787802329222"><ele>242.0</ele><time>2026-05-02T15:21:50.999Z</time></trkpt><trkpt lat="45.156158833503824" lon="5.384019789355587"><ele>246.0</ele><time>2026-05-02T15:21:51.999Z</time></trkpt><trkpt lat="45.15633131156847" lon="5.384255568233963"><ele>246.0</ele><time>2026-05-02T15:21:52.999Z</time></trkpt><trkpt lat="45.156498203114616" lon="5.384496499583642"><ele>246.0</ele><time>2026-05-02T15:21:53.999Z</time></trkpt><trkpt lat="45.156659025596646" lon="5.3847471386899715"><ele>247.0</ele><time>2026-05-02T15:21:54.999Z</time></trkpt><trkpt lat="45.15680878810466" lon="5.3850079193527165"><ele>248.0</ele><time>2026-05-02T15:21:55.999Z</time></trkpt><trkpt lat="45.15694691543298" lon="5.38527834384248"><ele>249.5</ele><time>2026-05-02T15:21:56.999Z</time></trkpt><trkpt lat="45.15707711311238" lon="5.385552457795089"><ele>251.0</ele><time>2026-05-02T15:21:57.999Z</time></trkpt><trkpt lat="45.15720488295022" lon="5.38582233007302"><ele>251.0</ele><time>2026-05-02T15:21:58.999Z</time></trkpt><trkpt lat="45.157336235956365" lon="5.386088982737605"><ele>251.0</ele><time>2026-05-02T15:21:59.999Z</time></trkpt><trkpt lat="45.15746825867358" lon="5.38635856740311"><ele>250.5</ele><time>2026-05-02T15:22:00.999Z</time></trkpt><trkpt lat="45.15759815907929" lon="5.386627462897364"><ele>250.0</ele><time>2026-05-02T15:22:01.999Z</time></trkpt><trkpt lat="45.15772832803903" lon="5.386895162983223"><ele>250.0</ele><time>2026-05-02T15:22:02.999Z</time></trkpt><trkpt lat="45.15785693377745" lon="5.387166805928706"><ele>250.0</ele><time>2026-05-02T15:22:03.999Z</time></trkpt><trkpt lat="45.1579874076972" lon="5.387442062097469"><ele>250.5</ele><time>2026-05-02T15:22:04.999Z</time></trkpt><trkpt lat="45.158124000694485" lon="5.387715704731446"><ele>251.0</ele><time>2026-05-02T15:22:05.999Z</time></trkpt><trkpt lat="45.15825838842193" lon="5.387988428854904"><ele>251.0</ele><time>2026-05-02T15:22:06.999Z</time></trkpt><trkpt lat="45.15839569690647" lon="5.388263743589945"><ele>251.0</ele><time>2026-05-02T15:22:07.999Z</time></trkpt><trkpt lat="45.15853892956005" lon="5.388536661887025"><ele>251.0</ele><time>2026-05-02T15:22:08.999Z</time></trkpt><trkpt lat="45.15869203148556" lon="5.388802525138258"><ele>251.0</ele><time>2026-05-02T15:22:09.999Z</time></trkpt><trkpt lat="45.158851216167314" lon="5.389061559734562"><ele>251.5</ele><time>2026-05-02T15:22:10.999Z</time></trkpt><trkpt lat="45.15901506570098" lon="5.389314538623618"><ele>252.0</ele><time>2026-05-02T15:22:11.999Z</time></trkpt><trkpt lat="45.159182711035584" lon="5.389561490173125"><ele>252.5</ele><time>2026-05-02T15:22:12.999Z</time></trkpt><trkpt lat="45.15935089642689" lon="5.389801558081156"><ele>253.0</ele><time>2026-05-02T15:22:13.999Z</time></trkpt><trkpt lat="45.159523667260935" lon="5.3900361807255655"><ele>253.0</ele><time>2026-05-02T15:22:14.999Z</time></trkpt><trkpt lat="45.15969269481321" lon="5.390278839865583"><ele>253.0</ele><time>2026-05-02T15:22:15.999Z</time></trkpt><trkpt lat="45.15986257218664" lon="5.39051905384134"><ele>253.0</ele><time>2026-05-02T15:22:16.999Z</time></trkpt><trkpt lat="45.1600314304398" lon="5.390759245656668"><ele>253.0</ele><time>2026-05-02T15:22:17.999Z</time></trkpt><trkpt lat="45.16019510705129" lon="5.391006767387453"><ele>253.0</ele><time>2026-05-02T15:22:18.999Z</time></trkpt><trkpt lat="45.16034954077133" lon="5.391259522726671"><ele>253.0</ele><time>2026-05-02T15:22:19.999Z</time></trkpt><trkpt lat="45.16049449983694" lon="5.391522645222478"><ele>253.5</ele><time>2026-05-02T15:22:20.999Z</time></trkpt><trkpt lat="45.16062926550043" lon="5.391797634125861"><ele>254.0</ele><time>2026-05-02T15:22:21.999Z</time></trkpt><trkpt lat="45.160757619192836" lon="5.39207808122589"><ele>254.5</ele><time>2026-05-02T15:22:22.999Z</time></trkpt><trkpt lat="45.16088792764685" lon="5.392360212118865"><ele>255.0</ele><time>2026-05-02T15:22:23.999Z</time></trkpt><trkpt lat="45.16101810565171" lon="5.3926409885884015"><ele>255.0</ele><time>2026-05-02T15:22:24.999Z</time></trkpt><trkpt lat="45.16114897774433" lon="5.392916699912814"><ele>255.0</ele><time>2026-05-02T15:22:25.999Z</time></trkpt><trkpt lat="45.16128427463317" lon="5.3931907739879845"><ele>255.0</ele><time>2026-05-02T15:22:26.999Z</time></trkpt><trkpt lat="45.16142615814967" lon="5.393460046637501"><ele>255.0</ele><time>2026-05-02T15:22:27.999Z</time></trkpt><trkpt lat="45.161573533629515" lon="5.3937242119386015"><ele>256.0</ele><time>2026-05-02T15:22:28.999Z</time></trkpt><trkpt lat="45.161720912800334" lon="5.3939887115736855"><ele>257.0</ele><time>2026-05-02T15:22:29.999Z</time></trkpt><trkpt lat="45.16186996978098" lon="5.394250862472862"><ele>257.0</ele><time>2026-05-02T15:22:30.999Z</time></trkpt><trkpt lat="45.1620204608733" lon="5.394515004533669"><ele>257.0</ele><time>2026-05-02T15:22:31.999Z</time></trkpt><trkpt lat="45.162172527819465" lon="5.394777423450635"><ele>257.5</ele><time>2026-05-02T15:22:32.999Z</time></trkpt><trkpt lat="45.16232549644202" lon="5.395037641870459"><ele>258.0</ele><time>2026-05-02T15:22:33.999Z</time></trkpt><trkpt lat="45.162478591344325" lon="5.395298227462327"><ele>258.0</ele><time>2026-05-02T15:22:34.999Z</time></trkpt><trkpt lat="45.162628924773884" lon="5.395557271009685"><ele>258.0</ele><time>2026-05-02T15:22:35.999Z</time></trkpt><trkpt lat="45.162779670907014" lon="5.395814154681463"><ele>258.0</ele><time>2026-05-02T15:22:36.999Z</time></trkpt><trkpt lat="45.16293182887543" lon="5.396074407678103"><ele>258.0</ele><time>2026-05-02T15:22:37.999Z</time></trkpt><trkpt lat="45.163084540076326" lon="5.396333996968263"><ele>259.5</ele><time>2026-05-02T15:22:38.999Z</time></trkpt><trkpt lat="45.163236180918815" lon="5.396596900542242"><ele>261.0</ele><time>2026-05-02T15:22:39.999Z</time></trkpt><trkpt lat="45.16338769582668" lon="5.396861699485692"><ele>261.0</ele><time>2026-05-02T15:22:40.998Z</time></trkpt><trkpt lat="45.16353987738892" lon="5.39712694227441"><ele>261.0</ele><time>2026-05-02T15:22:41.998Z</time></trkpt><trkpt lat="45.16368999113338" lon="5.397395312206374"><ele>262.0</ele><time>2026-05-02T15:22:42.998Z</time></trkpt><trkpt lat="45.163841408219724" lon="5.397663971911223"><ele>263.0</ele><time>2026-05-02T15:22:43.998Z</time></trkpt><trkpt lat="45.16399433113335" lon="5.397929687476299"><ele>262.0</ele><time>2026-05-02T15:22:44.998Z</time></trkpt><trkpt lat="45.16415165525172" lon="5.398193208898838"><ele>261.0</ele><time>2026-05-02T15:22:45.998Z</time></trkpt><trkpt lat="45.16431264084385" lon="5.398452442496551"><ele>261.0</ele><time>2026-05-02T15:22:46.998Z</time></trkpt><trkpt lat="45.16447743031396" lon="5.398710725820916"><ele>261.0</ele><time>2026-05-02T15:22:47.998Z</time></trkpt><trkpt lat="45.16464478322029" lon="5.39896102049156"><ele>260.5</ele><time>2026-05-02T15:22:48.998Z</time></trkpt><trkpt lat="45.16481043110888" lon="5.399209688779584"><ele>260.0</ele><time>2026-05-02T15:22:49.998Z</time></trkpt><trkpt lat="45.164976072467695" lon="5.399466906207163"><ele>259.5</ele><time>2026-05-02T15:22:50.998Z</time></trkpt><trkpt lat="45.165142209715945" lon="5.399728008973997"><ele>259.0</ele><time>2026-05-02T15:22:51.998Z</time></trkpt><trkpt lat="45.16530628335574" lon="5.399989969201449"><ele>259.0</ele><time>2026-05-02T15:22:52.998Z</time></trkpt><trkpt lat="45.16547019473011" lon="5.400262442186019"><ele>259.0</ele><time>2026-05-02T15:22:53.998Z</time></trkpt><trkpt lat="45.16563605742738" lon="5.400528395478888"><ele>260.0</ele><time>2026-05-02T15:22:54.998Z</time></trkpt><trkpt lat="45.16580285137124" lon="5.400792312893385"><ele>261.0</ele><time>2026-05-02T15:22:55.998Z</time></trkpt><trkpt lat="45.16596795120638" lon="5.40105614758466"><ele>261.0</ele><time>2026-05-02T15:22:56.998Z</time></trkpt><trkpt lat="45.16613063841528" lon="5.401324816991857"><ele>261.0</ele><time>2026-05-02T15:22:57.998Z</time></trkpt><trkpt lat="45.166291651063375" lon="5.401603875934003"><ele>261.5</ele><time>2026-05-02T15:22:58.998Z</time></trkpt><trkpt lat="45.166442326924546" lon="5.401886778663513"><ele>262.0</ele><time>2026-05-02T15:22:59.998Z</time></trkpt><trkpt lat="45.166585236088935" lon="5.402176542624997"><ele>263.0</ele><time>2026-05-02T15:23:00.998Z</time></trkpt><trkpt lat="45.16672554946226" lon="5.402467136069314"><ele>264.0</ele><time>2026-05-02T15:23:01.998Z</time></trkpt><trkpt lat="45.16686484049673" lon="5.402762448465468"><ele>265.0</ele><time>2026-05-02T15:23:02.998Z</time></trkpt><trkpt lat="45.16700382765286" lon="5.403052432282841"><ele>266.0</ele><time>2026-05-02T15:23:03.998Z</time></trkpt><trkpt lat="45.16714400178972" lon="5.403341732231015"><ele>266.0</ele><time>2026-05-02T15:23:05Z</time></trkpt><trkpt lat="45.167281775471686" lon="5.403622220525193"><ele>266.0</ele><time>2026-05-02T15:23:06Z</time></trkpt><trkpt lat="45.16741598152376" lon="5.403903678818902"><ele>264.5</ele><time>2026-05-02T15:23:07Z</time></trkpt><trkpt lat="45.167549165922324" lon="5.404187819521779"><ele>263.0</ele><time>2026-05-02T15:23:08Z</time></trkpt><trkpt lat="45.16768326295348" lon="5.404470672246288"><ele>264.5</ele><time>2026-05-02T15:23:09Z</time></trkpt><trkpt lat="45.16781657921055" lon="5.404747102753425"><ele>266.0</ele><time>2026-05-02T15:23:10Z</time></trkpt><trkpt lat="45.167936280182026" lon="5.405002385801667"><ele>266.0</ele><time>2026-05-02T15:23:11Z</time></trkpt><trkpt lat="45.168022549209745" lon="5.405260323851903"><ele>266.0</ele><time>2026-05-02T15:23:12Z</time></trkpt><trkpt lat="45.1681021757232" lon="5.405501317856801"><ele>266.0</ele><time>2026-05-02T15:23:13Z</time></trkpt><trkpt lat="45.16817465066062" lon="5.405749285810019"><ele>266.0</ele><time>2026-05-02T15:23:14Z</time></trkpt><trkpt lat="45.16823618855022" lon="5.4060056070653255"><ele>266.0</ele><time>2026-05-02T15:23:15Z</time></trkpt><trkpt lat="45.16828914178975" lon="5.4062514463065785"><ele>266.0</ele><time>2026-05-02T15:23:16Z</time></trkpt><trkpt lat="45.16833135617616" lon="5.406474810526984"><ele>266.0</ele><time>2026-05-02T15:23:17Z</time></trkpt><trkpt lat="45.16836312801729" lon="5.406678474892207"><ele>266.0</ele><time>2026-05-02T15:23:18Z</time></trkpt><trkpt lat="45.1683845047538" lon="5.406878175616481"><ele>266.0</ele><time>2026-05-02T15:23:19Z</time></trkpt><trkpt lat="45.16840100623277" lon="5.407085891611939"><ele>266.0</ele><time>2026-05-02T15:23:20Z</time></trkpt><trkpt lat="45.168437680919105" lon="5.407299968928187"><ele>266.33333333333337</ele><time>2026-05-02T15:23:21Z</time></trkpt><trkpt lat="45.16845575815278" lon="5.407540934399537"><ele>266.6666666666667</ele><time>2026-05-02T15:23:22Z</time></trkpt><trkpt lat="45.168472885977415" lon="5.407795127677886"><ele>267.0</ele><time>2026-05-02T15:23:23Z</time></trkpt><trkpt lat="45.168489301134265" lon="5.408029105514915"><ele>267.0</ele><time>2026-05-02T15:23:24Z</time></trkpt><trkpt lat="45.16850651813493" lon="5.408248129554217"><ele>267.0</ele><time>2026-05-02T15:23:25Z</time></trkpt><trkpt lat="45.168524370894424" lon="5.40846610464638"><ele>267.0</ele><time>2026-05-02T15:23:26Z</time></trkpt><trkpt lat="45.16854861891455" lon="5.408690390609623"><ele>267.3333333333333</ele><time>2026-05-02T15:23:27Z</time></trkpt><trkpt lat="45.168582115795125" lon="5.408919486073649"><ele>267.66666666666663</ele><time>2026-05-02T15:23:28Z</time></trkpt><trkpt lat="45.16862890365095" lon="5.409149271921232"><ele>268.0</ele><time>2026-05-02T15:23:29Z</time></trkpt><trkpt lat="45.16869237309626" lon="5.409363237612884"><ele>268.0</ele><time>2026-05-02T15:23:30Z</time></trkpt><trkpt lat="45.16876349024351" lon="5.40954638842219"><ele>268.0</ele><time>2026-05-02T15:23:31Z</time></trkpt><trkpt lat="45.16883502843783" lon="5.409769653416604"><ele>268.0</ele><time>2026-05-02T15:23:32Z</time></trkpt><trkpt lat="45.16892589621728" lon="5.409930896339743"><ele>267.0</ele><time>2026-05-02T15:23:33Z</time></trkpt><trkpt lat="45.16902226624226" lon="5.410058480679275"><ele>266.0</ele><time>2026-05-02T15:23:34Z</time></trkpt><trkpt lat="45.16911394675913" lon="5.410170611393087"><ele>265.0</ele><time>2026-05-02T15:23:35Z</time></trkpt><trkpt lat="45.16921233586617" lon="5.410278324916109"><ele>264.0</ele><time>2026-05-02T15:23:36Z</time></trkpt><trkpt lat="45.16930590877828" lon="5.410387526497942"><ele>264.0</ele><time>2026-05-02T15:23:37Z</time></trkpt><trkpt lat="45.16938401160903" lon="5.4104796451797545"><ele>264.0</ele><time>2026-05-02T15:23:38Z</time></trkpt><trkpt lat="45.169458092795146" lon="5.410568611719929"><ele>264.0</ele><time>2026-05-02T15:23:39Z</time></trkpt><trkpt lat="45.16951294354336" lon="5.410641798653283"><ele>264.0</ele><time>2026-05-02T15:23:40Z</time></trkpt><trkpt lat="45.16956521398161" lon="5.410706080997413"><ele>264.0</ele><time>2026-05-02T15:23:41Z</time></trkpt><trkpt lat="45.1696184624846" lon="5.410772192787553"><ele>264.0</ele><time>2026-05-02T15:23:42Z</time></trkpt><trkpt lat="45.169677105702455" lon="5.410843291454797"><ele>264.3333333333333</ele><time>2026-05-02T15:23:43Z</time></trkpt><trkpt lat="45.16973647642102" lon="5.410919110739704"><ele>264.6666666666667</ele><time>2026-05-02T15:23:44Z</time></trkpt><trkpt lat="45.1697992823694" lon="5.4110001818903175"><ele>265.0</ele><time>2026-05-02T15:23:45Z</time></trkpt><trkpt lat="45.16986324014246" lon="5.411086332282136"><ele>265.33333333333337</ele><time>2026-05-02T15:23:46Z</time></trkpt><trkpt lat="45.16992691040019" lon="5.41117617689431"><ele>265.6666666666667</ele><time>2026-05-02T15:23:47Z</time></trkpt><trkpt lat="45.16999812232815" lon="5.411255897370679"><ele>266.0</ele><time>2026-05-02T15:23:47.999Z</time></trkpt><trkpt lat="45.170068962700874" lon="5.411335826014467"><ele>268.0</ele><time>2026-05-02T15:23:48.999Z</time></trkpt><trkpt lat="45.17013488067387" lon="5.411411391802104"><ele>270.0</ele><time>2026-05-02T15:23:49.999Z</time></trkpt><trkpt lat="45.17021355167888" lon="5.411514947296447"><ele>272.0</ele><time>2026-05-02T15:23:51.999Z</time></trkpt><trkpt lat="45.17026731443951" lon="5.411578512373592"><ele>274.0</ele><time>2026-05-02T15:23:53.999Z</time></trkpt><trkpt lat="45.17034032930534" lon="5.411661946458018"><ele>276.0</ele><time>2026-05-02T15:23:58.999Z</time></trkpt><trkpt lat="45.170439789064545" lon="5.4117900194284605"><ele>276.0</ele><time>2026-05-02T15:24:00.999Z</time></trkpt><trkpt lat="45.17051484692209" lon="5.411908606010942"><ele>276.0</ele><time>2026-05-02T15:24:02.999Z</time></trkpt><trkpt lat="45.17053747849575" lon="5.412022664147136"><ele>276.0</ele><time>2026-05-02T15:24:04.999Z</time></trkpt><trkpt lat="45.17060146266786" lon="5.41209878844003"><ele>276.0</ele><time>2026-05-02T15:24:56.998Z</time></trkpt><trkpt lat="45.170678655503536" lon="5.412090993923267"><ele>276.0</ele><time>2026-05-02T15:24:58.998Z</time></trkpt><trkpt lat="45.17073378875786" lon="5.412148222479777"><ele>276.0</ele><time>2026-05-02T15:24:59.998Z</time></trkpt><trkpt lat="45.17081469818931" lon="5.412234143408488"><ele>276.3333333333333</ele><time>2026-05-02T15:25:00.998Z</time></trkpt><trkpt lat="45.17090507493931" lon="5.412303789895701"><ele>276.6666666666667</ele><time>2026-05-02T15:25:01.998Z</time></trkpt><trkpt lat="45.17098096995449" lon="5.412372744273814"><ele>277.0</ele><time>2026-05-02T15:25:02.998Z</time></trkpt><trkpt lat="45.17104318536018" lon="5.41243010811684"><ele>277.33333333333337</ele><time>2026-05-02T15:25:03.998Z</time></trkpt><trkpt lat="45.171102208062536" lon="5.412479594190845"><ele>277.6666666666667</ele><time>2026-05-02T15:25:04.998Z</time></trkpt><trkpt lat="45.171170264995034" lon="5.412541517337551"><ele>278.0</ele><time>2026-05-02T15:25:05.998Z</time></trkpt><trkpt lat="45.17124008291397" lon="5.41261243774433"><ele>278.0</ele><time>2026-05-02T15:25:06.998Z</time></trkpt><trkpt lat="45.17130485594803" lon="5.4126711022883285"><ele>278.0</ele><time>2026-05-02T15:25:07.998Z</time></trkpt><trkpt lat="45.17139375041805" lon="5.412753438556648"><ele>278.0</ele><time>2026-05-02T15:25:09.998Z</time></trkpt><trkpt lat="45.171453902757186" lon="5.412808929073355"><ele>278.0</ele><time>2026-05-02T15:25:13Z</time></trkpt><trkpt lat="45.1715289873457" lon="5.412897018103395"><ele>278.0</ele><time>2026-05-02T15:25:28Z</time></trkpt><trkpt lat="45.171599235940924" lon="5.412950332036136"><ele>278.0</ele><time>2026-05-02T15:25:29Z</time></trkpt><trkpt lat="45.1716571985558" lon="5.413090767369672"><ele>278.0</ele><time>2026-05-02T15:25:31Z</time></trkpt><trkpt lat="45.171599335172296" lon="5.413136987504591"><ele>278.0</ele><time>2026-05-02T15:25:32Z</time></trkpt><trkpt lat="45.1715289800128" lon="5.4132291552647445"><ele>278.0</ele><time>2026-05-02T15:25:33Z</time></trkpt><trkpt lat="45.17145368054212" lon="5.41332934942001"><ele>278.0</ele><time>2026-05-02T15:25:34Z</time></trkpt><trkpt lat="45.171396600866984" lon="5.413437347086989"><ele>278.0</ele><time>2026-05-02T15:25:35Z</time></trkpt><trkpt lat="45.1713153175869" lon="5.413528779564011"><ele>278.0</ele><time>2026-05-02T15:25:36Z</time></trkpt><trkpt lat="45.17122425946252" lon="5.413657938708123"><ele>278.0</ele><time>2026-05-02T15:25:37Z</time></trkpt><trkpt lat="45.17111352553367" lon="5.4138060530175025"><ele>278.0</ele><time>2026-05-02T15:25:38Z</time></trkpt><trkpt lat="45.17102680819548" lon="5.4139203007376"><ele>278.0</ele><time>2026-05-02T15:25:39Z</time></trkpt><trkpt lat="45.17095868338822" lon="5.414011006195038"><ele>277.83333333333337</ele><time>2026-05-02T15:25:40Z</time></trkpt><trkpt lat="45.17089925840906" lon="5.414088357456314"><ele>277.6666666666667</ele><time>2026-05-02T15:25:41Z</time></trkpt><trkpt lat="45.17084904483171" lon="5.414153975709151"><ele>277.5</ele><time>2026-05-02T15:25:42Z</time></trkpt><trkpt lat="45.17079723369812" lon="5.414221864643794"><ele>277.3333333333333</ele><time>2026-05-02T15:25:45Z</time></trkpt><trkpt lat="45.17084630742589" lon="5.414339467080149"><ele>277.16666666666663</ele><time>2026-05-02T15:25:46Z</time></trkpt><trkpt lat="45.170921810256765" lon="5.414441252261811"><ele>277.0</ele><time>2026-05-02T15:25:47Z</time></trkpt><trkpt lat="45.17100604522486" lon="5.414582594756509"><ele>277.25</ele><time>2026-05-02T15:25:48Z</time></trkpt><trkpt lat="45.17111722492873" lon="5.4147295074525275"><ele>277.5</ele><time>2026-05-02T15:25:49Z</time></trkpt><trkpt lat="45.17118791903314" lon="5.414888191562067"><ele>277.75</ele><time>2026-05-02T15:25:50Z</time></trkpt><trkpt lat="45.17125162655727" lon="5.415011679050194"><ele>278.0</ele><time>2026-05-02T15:25:51Z</time></trkpt><trkpt lat="45.17132800580871" lon="5.415126440056613"><ele>278.0</ele><time>2026-05-02T15:25:52Z</time></trkpt><trkpt lat="45.171341102929496" lon="5.4152766510666"><ele>278.0</ele><time>2026-05-02T15:25:53Z</time></trkpt><trkpt lat="45.17132955432654" lon="5.415406774601802"><ele>278.0</ele><time>2026-05-02T15:25:53.999Z</time></trkpt><trkpt lat="45.171275430070416" lon="5.415498342910841"><ele>278.0</ele><time>2026-05-02T15:25:54.999Z</time></trkpt><trkpt lat="45.17120920909867" lon="5.4155913025102596"><ele>278.0</ele><time>2026-05-02T15:25:55.999Z</time></trkpt><trkpt lat="45.1711304870901" lon="5.415714089450362"><ele>278.0</ele><time>2026-05-02T15:25:56.999Z</time></trkpt><trkpt lat="45.17104026483117" lon="5.415854813984347"><ele>278.0</ele><time>2026-05-02T15:25:57.999Z</time></trkpt><trkpt lat="45.17094323482212" lon="5.416006156922928"><ele>278.0</ele><time>2026-05-02T15:25:58.999Z</time></trkpt><trkpt lat="45.17084595774978" lon="5.41616000537144"><ele>278.0</ele><time>2026-05-02T15:25:59.999Z</time></trkpt><trkpt lat="45.17076232496214" lon="5.416326211164346"><ele>286.0</ele><time>2026-05-02T15:26:00.999Z</time></trkpt><trkpt lat="45.170661805031536" lon="5.416450825728831"><ele>294.0</ele><time>2026-05-02T15:26:01.999Z</time></trkpt><trkpt lat="45.17059122050832" lon="5.4165732971275675"><ele>302.0</ele><time>2026-05-02T15:26:02.999Z</time></trkpt><trkpt lat="45.17054990833383" lon="5.416692512501819"><ele>310.0</ele><time>2026-05-02T15:26:03.999Z</time></trkpt><trkpt lat="45.17054881784278" lon="5.416834538912226"><ele>318.0</ele><time>2026-05-02T15:26:04.999Z</time></trkpt><trkpt lat="45.170615637027765" lon="5.416984366333527"><ele>313.6666666666667</ele><time>2026-05-02T15:26:05.999Z</time></trkpt><trkpt lat="45.17071767212115" lon="5.417147683755594"><ele>309.33333333333337</ele><time>2026-05-02T15:26:06.999Z</time></trkpt><trkpt lat="45.17086631956451" lon="5.4173465786999015"><ele>305.0</ele><time>2026-05-02T15:26:07.999Z</time></trkpt><trkpt lat="45.171013849799664" lon="5.417579385377525"><ele>305.0</ele><time>2026-05-02T15:26:08.999Z</time></trkpt><trkpt lat="45.171167573385056" lon="5.417884181592552"><ele>305.0</ele><time>2026-05-02T15:26:09.999Z</time></trkpt><trkpt lat="45.171336565137466" lon="5.4181879106976885"><ele>299.0</ele><time>2026-05-02T15:26:10.999Z</time></trkpt><trkpt lat="45.171493095258654" lon="5.4184620054720085"><ele>293.0</ele><time>2026-05-02T15:26:11.999Z</time></trkpt><trkpt lat="45.17163106630563" lon="5.418703101641462"><ele>308.5</ele><time>2026-05-02T15:26:12.999Z</time></trkpt><trkpt lat="45.171763149597204" lon="5.41899300980738"><ele>324.0</ele><time>2026-05-02T15:26:13.999Z</time></trkpt><trkpt lat="45.17191687203783" lon="5.419321136256601"><ele>347.5</ele><time>2026-05-02T15:26:14.999Z</time></trkpt><trkpt lat="45.17208007081112" lon="5.419653236789299"><ele>371.0</ele><time>2026-05-02T15:26:15.999Z</time></trkpt><trkpt lat="45.17222029982152" lon="5.419942632634349"><ele>371.0</ele><time>2026-05-02T15:26:16.999Z</time></trkpt><trkpt lat="45.17233345357418" lon="5.420193812659953"><ele>371.0</ele><time>2026-05-02T15:26:17.999Z</time></trkpt><trkpt lat="45.17243526984118" lon="5.420430637868231"><ele>371.0</ele><time>2026-05-02T15:26:18.999Z</time></trkpt><trkpt lat="45.17251835655009" lon="5.420631554131388"><ele>368.0</ele><time>2026-05-02T15:26:19.999Z</time></trkpt><trkpt lat="45.1725989286704" lon="5.420843932776949"><ele>365.0</ele><time>2026-05-02T15:26:20.999Z</time></trkpt><trkpt lat="45.172652140530104" lon="5.421114545990824"><ele>362.0</ele><time>2026-05-02T15:26:21.999Z</time></trkpt><trkpt lat="45.172722688076945" lon="5.421415096665034"><ele>362.0</ele><time>2026-05-02T15:26:22.999Z</time></trkpt><trkpt lat="45.17278814632059" lon="5.421653709082661"><ele>362.0</ele><time>2026-05-02T15:26:23.999Z</time></trkpt><trkpt lat="45.17283601650493" lon="5.421871972247295"><ele>362.0</ele><time>2026-05-02T15:26:24.999Z</time></trkpt><trkpt lat="45.17287134942904" lon="5.422062015907528"><ele>364.6666666666667</ele><time>2026-05-02T15:26:25.999Z</time></trkpt><trkpt lat="45.17290604559086" lon="5.422257099684994"><ele>367.3333333333333</ele><time>2026-05-02T15:26:26.999Z</time></trkpt><trkpt lat="45.17289904081046" lon="5.422491891101714"><ele>370.0</ele><time>2026-05-02T15:26:27.999Z</time></trkpt><trkpt lat="45.17292717871526" lon="5.422729156480118"><ele>370.0</ele><time>2026-05-02T15:26:28.999Z</time></trkpt><trkpt lat="45.17296246944508" lon="5.422934958804095"><ele>370.0</ele><time>2026-05-02T15:26:29.999Z</time></trkpt><trkpt lat="45.1729444180435" lon="5.423184261649051"><ele>370.0</ele><time>2026-05-02T15:26:30.999Z</time></trkpt><trkpt lat="45.17297216552345" lon="5.423450466736839"><ele>373.0</ele><time>2026-05-02T15:26:31.999Z</time></trkpt><trkpt lat="45.17301649364517" lon="5.423696409947941"><ele>376.0</ele><time>2026-05-02T15:26:32.999Z</time></trkpt><trkpt lat="45.17309310056733" lon="5.423896009127439"><ele>379.0</ele><time>2026-05-02T15:26:33.999Z</time></trkpt><trkpt lat="45.173207559357074" lon="5.424137575672477"><ele>372.0</ele><time>2026-05-02T15:26:34.999Z</time></trkpt><trkpt lat="45.1732943274504" lon="5.424465500532059"><ele>365.0</ele><time>2026-05-02T15:26:35.999Z</time></trkpt><trkpt lat="45.17337314690775" lon="5.42478009951543"><ele>365.0</ele><time>2026-05-02T15:26:36.999Z</time></trkpt><trkpt lat="45.173444305919" lon="5.425104872311693"><ele>365.0</ele><time>2026-05-02T15:26:37.999Z</time></trkpt><trkpt lat="45.17352452233996" lon="5.425410693984557"><ele>373.5</ele><time>2026-05-02T15:26:38.999Z</time></trkpt><trkpt lat="45.17363525484593" lon="5.425703474474683"><ele>382.0</ele><time>2026-05-02T15:26:39.999Z</time></trkpt><trkpt lat="45.17376068756175" lon="5.426040041348301"><ele>393.5</ele><time>2026-05-02T15:26:40.999Z</time></trkpt><trkpt lat="45.17388864244146" lon="5.426383377685424"><ele>405.0</ele><time>2026-05-02T15:26:41.999Z</time></trkpt><trkpt lat="45.174003166905436" lon="5.426706401725317"><ele>399.0</ele><time>2026-05-02T15:26:42.999Z</time></trkpt><trkpt lat="45.17410073331129" lon="5.4269849735423055"><ele>393.0</ele><time>2026-05-02T15:26:43.999Z</time></trkpt><trkpt lat="45.17418869670845" lon="5.427201471615174"><ele>387.0</ele><time>2026-05-02T15:26:44.999Z</time></trkpt><trkpt lat="45.174255486483425" lon="5.427377796694738"><ele>387.0</ele><time>2026-05-02T15:26:45.999Z</time></trkpt><trkpt lat="45.17435803485013" lon="5.427532363328074"><ele>387.0</ele><time>2026-05-02T15:26:46.999Z</time></trkpt><trkpt lat="45.17450066478056" lon="5.427641353157127"><ele>387.0</ele><time>2026-05-02T15:26:47.999Z</time></trkpt><trkpt lat="45.174649029240435" lon="5.427765500924612"><ele>387.0</ele><time>2026-05-02T15:26:48.999Z</time></trkpt><trkpt lat="45.174800570633955" lon="5.427825166204525"><ele>387.0</ele><time>2026-05-02T15:26:49.999Z</time></trkpt><trkpt lat="45.174913615573985" lon="5.427846249411139"><ele>387.0</ele><time>2026-05-02T15:26:50.999Z</time></trkpt><trkpt lat="45.174975178759034" lon="5.427912496864291"><ele>387.0</ele><time>2026-05-02T15:26:51.999Z</time></trkpt><trkpt lat="45.17491919102489" lon="5.42806121428945"><ele>387.0</ele><time>2026-05-02T15:26:53.999Z</time></trkpt><trkpt lat="45.17484612148616" lon="5.428110946761918"><ele>387.0</ele><time>2026-05-02T15:26:54.999Z</time></trkpt><trkpt lat="45.17472555314827" lon="5.427991969513364"><ele>387.0</ele><time>2026-05-02T15:26:55.998Z</time></trkpt><trkpt lat="45.17459376255142" lon="5.427854620785757"><ele>387.0</ele><time>2026-05-02T15:26:56.998Z</time></trkpt><trkpt lat="45.17445820400345" lon="5.427727256622568"><ele>387.0</ele><time>2026-05-02T15:26:57.998Z</time></trkpt><trkpt lat="45.17430889925351" lon="5.427675760181898"><ele>387.0</ele><time>2026-05-02T15:26:58.998Z</time></trkpt><trkpt lat="45.17415332148795" lon="5.427606956537771"><ele>387.0</ele><time>2026-05-02T15:26:59.998Z</time></trkpt><trkpt lat="45.17403252487653" lon="5.42748381626785"><ele>393.0</ele><time>2026-05-02T15:27:00.998Z</time></trkpt><trkpt lat="45.173940411176524" lon="5.427326928414275"><ele>399.0</ele><time>2026-05-02T15:27:01.998Z</time></trkpt><trkpt lat="45.17384308142905" lon="5.427130916344876"><ele>405.0</ele><time>2026-05-02T15:27:02.998Z</time></trkpt><trkpt lat="45.17374507903597" lon="5.426935753422826"><ele>405.0</ele><time>2026-05-02T15:27:03.998Z</time></trkpt><trkpt lat="45.17366436287493" lon="5.42680570308913"><ele>405.0</ele><time>2026-05-02T15:27:04.998Z</time></trkpt><trkpt lat="45.17348823136239" lon="5.4266042293525425"><ele>405.0</ele><time>2026-05-02T15:27:05.998Z</time></trkpt><trkpt lat="45.17332366279051" lon="5.42636251841672"><ele>415.33333333333337</ele><time>2026-05-02T15:27:06.998Z</time></trkpt><trkpt lat="45.17314341778653" lon="5.4261643142365354"><ele>425.6666666666667</ele><time>2026-05-02T15:27:07.998Z</time></trkpt><trkpt lat="45.17303471689573" lon="5.425960526066371"><ele>436.0</ele><time>2026-05-02T15:27:08.998Z</time></trkpt><trkpt lat="45.17299166596703" lon="5.42576065415756"><ele>436.0</ele><time>2026-05-02T15:27:09.998Z</time></trkpt><trkpt lat="45.172932002194685" lon="5.425495675760925"><ele>436.0</ele><time>2026-05-02T15:27:10.998Z</time></trkpt><trkpt lat="45.17286133828235" lon="5.425244571759392"><ele>436.0</ele><time>2026-05-02T15:27:11.998Z</time></trkpt><trkpt lat="45.17279712190622" lon="5.425038732530341"><ele>431.0</ele><time>2026-05-02T15:27:12.998Z</time></trkpt><trkpt lat="45.172719611064174" lon="5.4248752277284975"><ele>426.0</ele><time>2026-05-02T15:27:13.998Z</time></trkpt><trkpt lat="45.17261982781606" lon="5.424753439604505"><ele>421.0</ele><time>2026-05-02T15:27:14.998Z</time></trkpt><trkpt lat="45.17251464406191" lon="5.424642143613932"><ele>416.0</ele><time>2026-05-02T15:27:15.998Z</time></trkpt><trkpt lat="45.17241798297503" lon="5.424530231635432"><ele>425.0</ele><time>2026-05-02T15:27:17Z</time></trkpt><trkpt lat="45.17233836407019" lon="5.424410844247383"><ele>434.0</ele><time>2026-05-02T15:27:18Z</time></trkpt><trkpt lat="45.172332157580705" lon="5.424216403065215"><ele>443.0</ele><time>2026-05-02T15:27:19Z</time></trkpt><trkpt lat="45.17225964189612" lon="5.424023539028427"><ele>452.0</ele><time>2026-05-02T15:27:20Z</time></trkpt><trkpt lat="45.172185832134" lon="5.4238390679498085"><ele>445.66666666666663</ele><time>2026-05-02T15:27:21Z</time></trkpt><trkpt lat="45.17206385162466" lon="5.4236258539820215"><ele>439.33333333333337</ele><time>2026-05-02T15:27:22Z</time></trkpt><trkpt lat="45.17191872965036" lon="5.423401412344603"><ele>433.0</ele><time>2026-05-02T15:27:23Z</time></trkpt><trkpt lat="45.17180001112554" lon="5.423196367114595"><ele>433.0</ele><time>2026-05-02T15:27:24Z</time></trkpt><trkpt lat="45.17174626407441" lon="5.422982327433803"><ele>433.0</ele><time>2026-05-02T15:27:25Z</time></trkpt><trkpt lat="45.171713645508326" lon="5.422801636448914"><ele>433.0</ele><time>2026-05-02T15:27:26Z</time></trkpt><trkpt lat="45.17169995256391" lon="5.422580995275458"><ele>433.0</ele><time>2026-05-02T15:27:27Z</time></trkpt><trkpt lat="45.17184752350422" lon="5.422468400897862"><ele>432.75</ele><time>2026-05-02T15:27:28Z</time></trkpt><trkpt lat="45.17185919445503" lon="5.422253525171094"><ele>432.5</ele><time>2026-05-02T15:27:30Z</time></trkpt><trkpt lat="45.17183758358677" lon="5.422071162392625"><ele>432.25</ele><time>2026-05-02T15:27:31Z</time></trkpt><trkpt lat="45.17182369791341" lon="5.421861240814096"><ele>432.0</ele><time>2026-05-02T15:27:32Z</time></trkpt><trkpt lat="45.171750321579644" lon="5.42164141125375"><ele>431.0</ele><time>2026-05-02T15:27:33Z</time></trkpt><trkpt lat="45.171697509988824" lon="5.4214520047008445"><ele>430.0</ele><time>2026-05-02T15:27:34Z</time></trkpt><trkpt lat="45.17160320124093" lon="5.421304283001111"><ele>429.0</ele><time>2026-05-02T15:27:35Z</time></trkpt><trkpt lat="45.17149345029815" lon="5.42111798607853"><ele>438.0</ele><time>2026-05-02T15:27:36Z</time></trkpt><trkpt lat="45.17136540570593" lon="5.420960593423789"><ele>447.0</ele><time>2026-05-02T15:27:37Z</time></trkpt><trkpt lat="45.17124643061799" lon="5.420822551826119"><ele>456.0</ele><time>2026-05-02T15:27:38Z</time></trkpt><trkpt lat="45.171146659965096" lon="5.4207009099197405"><ele>456.0</ele><time>2026-05-02T15:27:39Z</time></trkpt><trkpt lat="45.171061090815925" lon="5.420590844897873"><ele>456.0</ele><time>2026-05-02T15:27:40Z</time></trkpt><trkpt lat="45.1709827751382" lon="5.420491294471029"><ele>456.0</ele><time>2026-05-02T15:27:41Z</time></trkpt><trkpt lat="45.17092632497809" lon="5.420411042356261"><ele>456.0</ele><time>2026-05-02T15:27:42Z</time></trkpt><trkpt lat="45.1708761998286" lon="5.420342192649822"><ele>456.0</ele><time>2026-05-02T15:27:44Z</time></trkpt><trkpt lat="45.170766151457435" lon="5.420233576223699"><ele>459.25</ele><time>2026-05-02T15:29:24Z</time></trkpt><trkpt lat="45.17067289359159" lon="5.4201201238931835"><ele>462.5</ele><time>2026-05-02T15:29:25Z</time></trkpt><trkpt lat="45.17059768378509" lon="5.4200163812798205"><ele>465.75</ele><time>2026-05-02T15:29:26Z</time></trkpt><trkpt lat="45.170510439143925" lon="5.419913882440046"><ele>469.0</ele><time>2026-05-02T15:29:27Z</time></trkpt><trkpt lat="45.17042671960071" lon="5.419801515908755"><ele>469.0</ele><time>2026-05-02T15:29:28Z</time></trkpt><trkpt lat="45.170336357695184" lon="5.419692288481489"><ele>469.0</ele><time>2026-05-02T15:29:29Z</time></trkpt><trkpt lat="45.170248558191425" lon="5.419588668915156"><ele>469.0</ele><time>2026-05-02T15:29:30Z</time></trkpt><trkpt lat="45.17015549937284" lon="5.419476916011627"><ele>469.0</ele><time>2026-05-02T15:29:31Z</time></trkpt><trkpt lat="45.17006275973726" lon="5.419357618470949"><ele>467.0</ele><time>2026-05-02T15:29:32Z</time></trkpt><trkpt lat="45.16996836878516" lon="5.41923357095329"><ele>465.0</ele><time>2026-05-02T15:29:33Z</time></trkpt><trkpt lat="45.16986048418696" lon="5.4190990444916105"><ele>463.0</ele><time>2026-05-02T15:29:34Z</time></trkpt><trkpt lat="45.169744661927254" lon="5.418975322900642"><ele>461.0</ele><time>2026-05-02T15:29:35Z</time></trkpt><trkpt lat="45.16958073556086" lon="5.418815117164858"><ele>455.3333333333333</ele><time>2026-05-02T15:29:36Z</time></trkpt><trkpt lat="45.16941222435003" lon="5.418672415383266"><ele>449.66666666666663</ele><time>2026-05-02T15:29:37Z</time></trkpt><trkpt lat="45.16926825459255" lon="5.418546346014466"><ele>444.0</ele><time>2026-05-02T15:29:38Z</time></trkpt><trkpt lat="45.1691339888454" lon="5.418406448661792"><ele>438.4</ele><time>2026-05-02T15:29:39Z</time></trkpt><trkpt lat="45.16901116729476" lon="5.418320721282575"><ele>432.79999999999995</ele><time>2026-05-02T15:29:40Z</time></trkpt><trkpt lat="45.168931005239926" lon="5.418207392904755"><ele>427.20000000000005</ele><time>2026-05-02T15:29:41Z</time></trkpt><trkpt lat="45.16887068583135" lon="5.418112809456253"><ele>421.6</ele><time>2026-05-02T15:29:42Z</time></trkpt><trkpt lat="45.16880969682161" lon="5.418042394394464"><ele>416.0</ele><time>2026-05-02T15:29:43Z</time></trkpt><trkpt lat="45.16869017488787" lon="5.418103995284397"><ele>416.0</ele><time>2026-05-02T15:29:45Z</time></trkpt><trkpt lat="45.16866193163316" lon="5.418228176116208"><ele>416.0</ele><time>2026-05-02T15:29:46Z</time></trkpt><trkpt lat="45.16869588082928" lon="5.418354964217297"><ele>416.0</ele><time>2026-05-02T15:29:47Z</time></trkpt><trkpt lat="45.16878726899385" lon="5.418485704329441"><ele>416.0</ele><time>2026-05-02T15:29:48Z</time></trkpt><trkpt lat="45.168910649420184" lon="5.418645496598034"><ele>431.0</ele><time>2026-05-02T15:29:49Z</time></trkpt><trkpt lat="45.16906148538567" lon="5.418847446713498"><ele>446.0</ele><time>2026-05-02T15:29:50Z</time></trkpt><trkpt lat="45.16922624891488" lon="5.419063321620843"><ele>461.0</ele><time>2026-05-02T15:29:51Z</time></trkpt><trkpt lat="45.169405212637784" lon="5.419252314489893"><ele>461.0</ele><time>2026-05-02T15:29:52Z</time></trkpt><trkpt lat="45.169562329522606" lon="5.419460703903075"><ele>461.0</ele><time>2026-05-02T15:29:53Z</time></trkpt><trkpt lat="45.16971653902629" lon="5.419725262499215"><ele>465.0</ele><time>2026-05-02T15:29:54Z</time></trkpt><trkpt lat="45.16986590367601" lon="5.420039279316544"><ele>469.0</ele><time>2026-05-02T15:29:55Z</time></trkpt><trkpt lat="45.170019875853335" lon="5.420330701389356"><ele>477.0</ele><time>2026-05-02T15:29:56Z</time></trkpt><trkpt lat="45.170135445546315" lon="5.42057308655546"><ele>485.0</ele><time>2026-05-02T15:29:57Z</time></trkpt><trkpt lat="45.17021033039551" lon="5.420810002107351"><ele>493.0</ele><time>2026-05-02T15:29:58Z</time></trkpt><trkpt lat="45.17026917957198" lon="5.4210582163018035"><ele>499.33333333333337</ele><time>2026-05-02T15:29:59Z</time></trkpt><trkpt lat="45.17033120178821" lon="5.42136732923967"><ele>505.66666666666663</ele><time>2026-05-02T15:30:00Z</time></trkpt><trkpt lat="45.170405867228396" lon="5.421649773079843"><ele>512.0</ele><time>2026-05-02T15:30:01Z</time></trkpt><trkpt lat="45.17047666978675" lon="5.421825685631785"><ele>512.0</ele><time>2026-05-02T15:30:02Z</time></trkpt><trkpt lat="45.170532220313504" lon="5.421971144020354"><ele>512.0</ele><time>2026-05-02T15:30:03Z</time></trkpt><trkpt lat="45.17057192105737" lon="5.422071595856143"><ele>512.0</ele><time>2026-05-02T15:30:04Z</time></trkpt><trkpt lat="45.170581207973164" lon="5.422173160762292"><ele>512.0</ele><time>2026-05-02T15:30:05Z</time></trkpt><trkpt lat="45.17047634986273" lon="5.422229733719254"><ele>512.0</ele><time>2026-05-02T15:30:07Z</time></trkpt><trkpt lat="45.17042114826865" lon="5.422143966398208"><ele>512.0</ele><time>2026-05-02T15:30:08Z</time></trkpt><trkpt lat="45.17038817089511" lon="5.421985669727599"><ele>512.0</ele><time>2026-05-02T15:30:08.999Z</time></trkpt><trkpt lat="45.17031746760711" lon="5.421814463892041"><ele>512.0</ele><time>2026-05-02T15:30:09.999Z</time></trkpt><trkpt lat="45.17023353240379" lon="5.421621389195677"><ele>512.0</ele><time>2026-05-02T15:30:10.999Z</time></trkpt><trkpt lat="45.17013603051757" lon="5.421402253860137"><ele>516.0</ele><time>2026-05-02T15:30:11.999Z</time></trkpt><trkpt lat="45.17002232642025" lon="5.421155941518753"><ele>520.0</ele><time>2026-05-02T15:30:12.999Z</time></trkpt><trkpt lat="45.169912685670774" lon="5.420900977717353"><ele>524.0</ele><time>2026-05-02T15:30:13.999Z</time></trkpt><trkpt lat="45.169745698848295" lon="5.42069393272439"><ele>511.3333333333333</ele><time>2026-05-02T15:30:14.999Z</time></trkpt><trkpt lat="45.16960969838388" lon="5.420473266780514"><ele>498.66666666666663</ele><time>2026-05-02T15:30:15.999Z</time></trkpt><trkpt lat="45.169480591016175" lon="5.420316626569867"><ele>486.0</ele><time>2026-05-02T15:30:16.999Z</time></trkpt><trkpt lat="45.169367892348724" lon="5.420200882457036"><ele>486.0</ele><time>2026-05-02T15:30:17.999Z</time></trkpt><trkpt lat="45.16927307894221" lon="5.420137294489937"><ele>486.0</ele><time>2026-05-02T15:30:18.999Z</time></trkpt><trkpt lat="45.169197088767156" lon="5.420119238268218"><ele>486.0</ele><time>2026-05-02T15:30:19.999Z</time></trkpt><trkpt lat="45.16912632353423" lon="5.420138271091454"><ele>486.0</ele><time>2026-05-02T15:30:20.999Z</time></trkpt><trkpt lat="45.169036052502825" lon="5.420216100007254"><ele>486.0</ele><time>2026-05-02T15:30:21.999Z</time></trkpt><trkpt lat="45.168924441612944" lon="5.420350744257415"><ele>494.0</ele><time>2026-05-02T15:30:22.999Z</time></trkpt><trkpt lat="45.16880934700812" lon="5.420519722366538"><ele>502.0</ele><time>2026-05-02T15:30:23.999Z</time></trkpt><trkpt lat="45.16868052090621" lon="5.420708462781546"><ele>510.0</ele><time>2026-05-02T15:30:24.999Z</time></trkpt><trkpt lat="45.168525981617485" lon="5.420879297143156"><ele>510.0</ele><time>2026-05-02T15:30:25.999Z</time></trkpt><trkpt lat="45.16838652998702" lon="5.421003840405088"><ele>510.0</ele><time>2026-05-02T15:30:26.999Z</time></trkpt><trkpt lat="45.168267722391185" lon="5.421072898679467"><ele>510.0</ele><time>2026-05-02T15:30:27.999Z</time></trkpt><trkpt lat="45.16815766862879" lon="5.421095045945552"><ele>510.0</ele><time>2026-05-02T15:30:28.999Z</time></trkpt><trkpt lat="45.168042168254225" lon="5.421008829440449"><ele>513.25</ele><time>2026-05-02T15:30:29.999Z</time></trkpt><trkpt lat="45.16789206437792" lon="5.42092886277172"><ele>516.5</ele><time>2026-05-02T15:30:30.999Z</time></trkpt><trkpt lat="45.16775822915773" lon="5.420855575313095"><ele>519.75</ele><time>2026-05-02T15:30:31.999Z</time></trkpt><trkpt lat="45.16762416654729" lon="5.4208518640901815"><ele>523.0</ele><time>2026-05-02T15:30:32.999Z</time></trkpt><trkpt lat="45.167489700963" lon="5.420843507498885"><ele>523.0</ele><time>2026-05-02T15:30:33.999Z</time></trkpt><trkpt lat="45.167387720987925" lon="5.420806740633361"><ele>523.0</ele><time>2026-05-02T15:30:34.999Z</time></trkpt><trkpt lat="45.1673039213239" lon="5.420805418428811"><ele>523.0</ele><time>2026-05-02T15:30:35.999Z</time></trkpt><trkpt lat="45.167213018140906" lon="5.420880775064118"><ele>523.0</ele><time>2026-05-02T15:30:37.999Z</time></trkpt><trkpt lat="45.167147185913805" lon="5.420941694582474"><ele>523.0</ele><time>2026-05-02T15:30:38.999Z</time></trkpt><trkpt lat="45.167097125247075" lon="5.421036437390743"><ele>532.6</ele><time>2026-05-02T15:30:39.999Z</time></trkpt><trkpt lat="45.16703500653463" lon="5.42111207953488"><ele>542.1999999999999</ele><time>2026-05-02T15:30:40.999Z</time></trkpt><trkpt lat="45.166978993953315" lon="5.4212021370601775"><ele>551.8</ele><time>2026-05-02T15:30:42.02Z</time></trkpt><trkpt lat="45.166927678513126" lon="5.4212940210013985"><ele>561.4</ele><time>2026-05-02T15:30:43.023Z</time></trkpt><trkpt lat="45.16682991870549" lon="5.4214646932202015"><ele>571.0</ele><time>2026-05-02T15:30:44.015Z</time></trkpt><trkpt lat="45.166729052356914" lon="5.421679247096906"><ele>574.2</ele><time>2026-05-02T15:30:44.999Z</time></trkpt><trkpt lat="45.16668002345638" lon="5.421812672969469"><ele>577.4000000000001</ele><time>2026-05-02T15:30:45.999Z</time></trkpt><trkpt lat="45.16663587397089" lon="5.421921507139069"><ele>580.6</ele><time>2026-05-02T15:30:46.999Z</time></trkpt><trkpt lat="45.16656712221232" lon="5.422060361266497"><ele>583.8000000000001</ele><time>2026-05-02T15:30:47.999Z</time></trkpt><trkpt lat="45.16651030667796" lon="5.422182368696596"><ele>587.0</ele><time>2026-05-02T15:30:48.999Z</time></trkpt><trkpt lat="45.16647153164668" lon="5.422268983414322"><ele>592.4</ele><time>2026-05-02T15:30:49.999Z</time></trkpt><trkpt lat="45.166434293739194" lon="5.422364281150755"><ele>597.8000000000001</ele><time>2026-05-02T15:30:50.999Z</time></trkpt><trkpt lat="45.16639074978323" lon="5.422462070526235"><ele>603.2</ele><time>2026-05-02T15:30:51.999Z</time></trkpt><trkpt lat="45.16634309532449" lon="5.42257252932484"><ele>608.6</ele><time>2026-05-02T15:30:53.019Z</time></trkpt><trkpt lat="45.166305296636246" lon="5.4226968613544315"><ele>614.0</ele><time>2026-05-02T15:30:54.02Z</time></trkpt><trkpt lat="45.16625232430573" lon="5.4228294746552965"><ele>614.0</ele><time>2026-05-02T15:30:55.018Z</time></trkpt><trkpt lat="45.166181797923805" lon="5.422926935900978"><ele>614.0</ele><time>2026-05-02T15:30:56.022Z</time></trkpt><trkpt lat="45.166180631271324" lon="5.423144685339073"><ele>614.0</ele><time>2026-05-02T15:30:58.021Z</time></trkpt><trkpt lat="45.1661599346211" lon="5.423264183129082"><ele>614.0</ele><time>2026-05-02T15:30:59.022Z</time></trkpt><trkpt lat="45.16611952695888" lon="5.423412731717413"><ele>618.4</ele><time>2026-05-02T15:30:59.999Z</time></trkpt><trkpt lat="45.16610297276088" lon="5.42353555408732"><ele>622.8</ele><time>2026-05-02T15:31:00.999Z</time></trkpt><trkpt lat="45.166085220315864" lon="5.423690237085965"><ele>627.2</ele><time>2026-05-02T15:31:01.999Z</time></trkpt><trkpt lat="45.16608204529882" lon="5.42385119861031"><ele>631.6</ele><time>2026-05-02T15:31:02.999Z</time></trkpt><trkpt lat="45.16606995250107" lon="5.42398891963938"><ele>636.0</ele><time>2026-05-02T15:31:03.999Z</time></trkpt><trkpt lat="45.16605568622779" lon="5.424140867115263"><ele>642.75</ele><time>2026-05-02T15:31:04.999Z</time></trkpt><trkpt lat="45.166022818153856" lon="5.424314921745352"><ele>649.5</ele><time>2026-05-02T15:31:05.999Z</time></trkpt><trkpt lat="45.16601581388301" lon="5.424504001240481"><ele>656.25</ele><time>2026-05-02T15:31:06.999Z</time></trkpt><trkpt lat="45.165992751680754" lon="5.42464330752676"><ele>663.0</ele><time>2026-05-02T15:31:07.999Z</time></trkpt><trkpt lat="45.16595499489694" lon="5.424773026590711"><ele>658.8</ele><time>2026-05-02T15:31:08.999Z</time></trkpt><trkpt lat="45.16592091362405" lon="5.424898239426685"><ele>654.5999999999999</ele><time>2026-05-02T15:31:09.999Z</time></trkpt><trkpt lat="45.16586094227358" lon="5.42498027588729"><ele>650.4000000000001</ele><time>2026-05-02T15:31:10.999Z</time></trkpt><trkpt lat="45.16579157131814" lon="5.425082326737029"><ele>646.2</ele><time>2026-05-02T15:31:11.999Z</time></trkpt><trkpt lat="45.16573177679741" lon="5.425222031571746"><ele>642.0</ele><time>2026-05-02T15:31:12.998Z</time></trkpt><trkpt lat="45.1656303804735" lon="5.4253577971721745"><ele>650.0</ele><time>2026-05-02T15:31:13.998Z</time></trkpt><trkpt lat="45.16551090332068" lon="5.425504894070549"><ele>658.0</ele><time>2026-05-02T15:31:14.998Z</time></trkpt><trkpt lat="45.16539786618343" lon="5.425669454276276"><ele>666.0</ele><time>2026-05-02T15:31:15.998Z</time></trkpt><trkpt lat="45.16526496977364" lon="5.4258165841850605"><ele>666.0</ele><time>2026-05-02T15:31:16.998Z</time></trkpt><trkpt lat="45.16513359524606" lon="5.425972821643216"><ele>666.0</ele><time>2026-05-02T15:31:17.998Z</time></trkpt><trkpt lat="45.164979578822525" lon="5.4261364011732836"><ele>666.0</ele><time>2026-05-02T15:31:18.998Z</time></trkpt><trkpt lat="45.16482747362877" lon="5.426348202525654"><ele>663.6666666666666</ele><time>2026-05-02T15:31:19.998Z</time></trkpt><trkpt lat="45.16469165505991" lon="5.426579215479468"><ele>661.3333333333333</ele><time>2026-05-02T15:31:20.998Z</time></trkpt><trkpt lat="45.16458450605382" lon="5.426790627521244"><ele>659.0</ele><time>2026-05-02T15:31:21.998Z</time></trkpt><trkpt lat="45.16448190856526" lon="5.426962800933427"><ele>667.3333333333333</ele><time>2026-05-02T15:31:22.998Z</time></trkpt><trkpt lat="45.16441013647801" lon="5.4271772496643775"><ele>675.6666666666666</ele><time>2026-05-02T15:31:23.998Z</time></trkpt><trkpt lat="45.164320754096245" lon="5.427403004966043"><ele>684.0</ele><time>2026-05-02T15:31:24.998Z</time></trkpt><trkpt lat="45.16423818739056" lon="5.427648378100604"><ele>684.0</ele><time>2026-05-02T15:31:25.998Z</time></trkpt><trkpt lat="45.1641706238408" lon="5.427892947647021"><ele>684.0</ele><time>2026-05-02T15:31:26.998Z</time></trkpt><trkpt lat="45.164130962677" lon="5.428098918231793"><ele>684.0</ele><time>2026-05-02T15:31:27.998Z</time></trkpt><trkpt lat="45.1641091902414" lon="5.428322231622228"><ele>681.3333333333334</ele><time>2026-05-02T15:31:29Z</time></trkpt><trkpt lat="45.1640462145775" lon="5.42847629610685"><ele>678.6666666666667</ele><time>2026-05-02T15:31:30Z</time></trkpt><trkpt lat="45.163968429684154" lon="5.4286698251908305"><ele>676.0</ele><time>2026-05-02T15:31:31Z</time></trkpt><trkpt lat="45.16386276049922" lon="5.428898820957328"><ele>682.6666666666667</ele><time>2026-05-02T15:31:32Z</time></trkpt><trkpt lat="45.16373080283726" lon="5.4291334002099285"><ele>689.3333333333334</ele><time>2026-05-02T15:31:33Z</time></trkpt><trkpt lat="45.16363320684974" lon="5.429380654085727"><ele>696.0</ele><time>2026-05-02T15:31:34Z</time></trkpt><trkpt lat="45.1635027333277" lon="5.429589886120689"><ele>696.0</ele><time>2026-05-02T15:31:35Z</time></trkpt><trkpt lat="45.16337717303921" lon="5.429820114215099"><ele>696.0</ele><time>2026-05-02T15:31:36Z</time></trkpt><trkpt lat="45.16322899114501" lon="5.430064982542777"><ele>696.0</ele><time>2026-05-02T15:31:37Z</time></trkpt><trkpt lat="45.163050526497884" lon="5.430397440789998"><ele>704.5</ele><time>2026-05-02T15:31:38Z</time></trkpt><trkpt lat="45.162891331999646" lon="5.4306609894659985"><ele>713.0</ele><time>2026-05-02T15:31:39Z</time></trkpt><trkpt lat="45.16275546203171" lon="5.430892125056963"><ele>713.0</ele><time>2026-05-02T15:31:40Z</time></trkpt><trkpt lat="45.16263408082531" lon="5.4311524816437755"><ele>713.0</ele><time>2026-05-02T15:31:41Z</time></trkpt><trkpt lat="45.16248426134698" lon="5.43138139759189"><ele>713.0</ele><time>2026-05-02T15:31:42Z</time></trkpt><trkpt lat="45.1623341367798" lon="5.431614071007017"><ele>709.5</ele><time>2026-05-02T15:31:43Z</time></trkpt><trkpt lat="45.16218564064193" lon="5.4318692856317865"><ele>706.0</ele><time>2026-05-02T15:31:44Z</time></trkpt><trkpt lat="45.16205006140294" lon="5.432123154667638"><ele>713.6666666666667</ele><time>2026-05-02T15:31:45Z</time></trkpt><trkpt lat="45.16192976759383" lon="5.432377086491749"><ele>721.3333333333334</ele><time>2026-05-02T15:31:46Z</time></trkpt><trkpt lat="45.16180560400398" lon="5.432615226500456"><ele>729.0</ele><time>2026-05-02T15:31:47Z</time></trkpt><trkpt lat="45.16170938920816" lon="5.432897738415852"><ele>729.3333333333334</ele><time>2026-05-02T15:31:48Z</time></trkpt><trkpt lat="45.161596399329085" lon="5.433155772594384"><ele>729.6666666666667</ele><time>2026-05-02T15:31:49Z</time></trkpt><trkpt lat="45.16149850784975" lon="5.433361944961559"><ele>730.0</ele><time>2026-05-02T15:31:50Z</time></trkpt><trkpt lat="45.16137791405837" lon="5.433533023559271"><ele>730.0</ele><time>2026-05-02T15:31:51Z</time></trkpt><trkpt lat="45.16123380468269" lon="5.433708639729597"><ele>730.0</ele><time>2026-05-02T15:31:52Z</time></trkpt><trkpt lat="45.16105711130577" lon="5.433904762617911"><ele>730.0</ele><time>2026-05-02T15:31:53Z</time></trkpt><trkpt lat="45.16092277032481" lon="5.434102994469952"><ele>743.0</ele><time>2026-05-02T15:31:54Z</time></trkpt><trkpt lat="45.16082202264901" lon="5.434293345723347"><ele>756.0</ele><time>2026-05-02T15:31:55Z</time></trkpt><trkpt lat="45.16073627250701" lon="5.43446415270558"><ele>769.0</ele><time>2026-05-02T15:31:56Z</time></trkpt><trkpt lat="45.1606816418565" lon="5.434674881909591"><ele>772.3333333333333</ele><time>2026-05-02T15:31:57Z</time></trkpt><trkpt lat="45.16060995281088" lon="5.434914908961169"><ele>775.6666666666667</ele><time>2026-05-02T15:31:58Z</time></trkpt><trkpt lat="45.16051953560469" lon="5.435160060047108"><ele>779.0</ele><time>2026-05-02T15:31:59Z</time></trkpt><trkpt lat="45.160393739778904" lon="5.4353598904614255"><ele>779.0</ele><time>2026-05-02T15:32:00Z</time></trkpt><trkpt lat="45.16022469907464" lon="5.435514467219606"><ele>779.0</ele><time>2026-05-02T15:32:01Z</time></trkpt><trkpt lat="45.16004692258576" lon="5.435673722664063"><ele>779.0</ele><time>2026-05-02T15:32:02Z</time></trkpt><trkpt lat="45.15984341413384" lon="5.435839415730724"><ele>779.0</ele><time>2026-05-02T15:32:03Z</time></trkpt><trkpt lat="45.159589706907234" lon="5.436041816181941"><ele>779.0</ele><time>2026-05-02T15:32:04Z</time></trkpt><trkpt lat="45.15935278532306" lon="5.436244986172115"><ele>779.0</ele><time>2026-05-02T15:32:05Z</time></trkpt><trkpt lat="45.15914938026127" lon="5.436410775678523"><ele>779.0</ele><time>2026-05-02T15:32:06Z</time></trkpt><trkpt lat="45.15896984776233" lon="5.43656693797578"><ele>779.0</ele><time>2026-05-02T15:32:07Z</time></trkpt><trkpt lat="45.158814479713755" lon="5.436728902930774"><ele>779.0</ele><time>2026-05-02T15:32:08Z</time></trkpt><trkpt lat="45.15866678294124" lon="5.436883785384116"><ele>779.0</ele><time>2026-05-02T15:32:09Z</time></trkpt><trkpt lat="45.15854710057881" lon="5.436956740767292"><ele>779.0</ele><time>2026-05-02T15:32:10Z</time></trkpt><trkpt lat="45.158482589584914" lon="5.43699354810714"><ele>779.0</ele><time>2026-05-02T15:32:11Z</time></trkpt><trkpt lat="45.15835855906624" lon="5.437041968320834"><ele>779.0</ele><time>2026-05-02T15:32:13Z</time></trkpt><trkpt lat="45.158288677871674" lon="5.437075393987276"><ele>779.0</ele><time>2026-05-02T15:32:13.999Z</time></trkpt><trkpt lat="45.158182726610754" lon="5.437067773850802"><ele>779.0</ele><time>2026-05-02T15:32:14.999Z</time></trkpt><trkpt lat="45.15806516310077" lon="5.437082991458035"><ele>779.0</ele><time>2026-05-02T15:32:15.999Z</time></trkpt><trkpt lat="45.157929721472925" lon="5.437114758236008"><ele>779.0</ele><time>2026-05-02T15:32:16.999Z</time></trkpt><trkpt lat="45.15780839327731" lon="5.437128496370907"><ele>762.5</ele><time>2026-05-02T15:32:17.999Z</time></trkpt><trkpt lat="45.157670008525805" lon="5.437109315782979"><ele>746.0</ele><time>2026-05-02T15:32:18.999Z</time></trkpt><trkpt lat="45.15752122435635" lon="5.437101241052832"><ele>729.5</ele><time>2026-05-02T15:32:19.999Z</time></trkpt><trkpt lat="45.157420158784284" lon="5.437060827650519"><ele>713.0</ele><time>2026-05-02T15:32:20.999Z</time></trkpt><trkpt lat="45.15733385806038" lon="5.437033022001961"><ele>713.0</ele><time>2026-05-02T15:32:21.999Z</time></trkpt><trkpt lat="45.15725545422303" lon="5.437001708402028"><ele>713.0</ele><time>2026-05-02T15:32:22.999Z</time></trkpt><trkpt lat="45.1571526523479" lon="5.4369897445910205"><ele>713.0</ele><time>2026-05-02T15:32:23.999Z</time></trkpt><trkpt lat="45.15705234947682" lon="5.436980483439554"><ele>713.0</ele><time>2026-05-02T15:32:24.999Z</time></trkpt><trkpt lat="45.15694192575551" lon="5.436945182440448"><ele>713.0</ele><time>2026-05-02T15:32:25.999Z</time></trkpt><trkpt lat="45.156862684467846" lon="5.436911663197902"><ele>713.0</ele><time>2026-05-02T15:32:26.999Z</time></trkpt><trkpt lat="45.15676594193162" lon="5.436858254076674"><ele>713.0</ele><time>2026-05-02T15:32:27.999Z</time></trkpt><trkpt lat="45.156656811113024" lon="5.436840965043793"><ele>713.0</ele><time>2026-05-02T15:32:28.999Z</time></trkpt><trkpt lat="45.15653420315801" lon="5.436855158511135"><ele>713.0</ele><time>2026-05-02T15:32:29.999Z</time></trkpt><trkpt lat="45.15643730974802" lon="5.436857100032522"><ele>713.0</ele><time>2026-05-02T15:32:30.999Z</time></trkpt><trkpt lat="45.156344717716344" lon="5.436863941087647"><ele>705.0</ele><time>2026-05-02T15:32:31.999Z</time></trkpt><trkpt lat="45.156274485032434" lon="5.436895684433031"><ele>697.0</ele><time>2026-05-02T15:32:32.999Z</time></trkpt><trkpt lat="45.15621426733732" lon="5.436978121220727"><ele>689.0</ele><time>2026-05-02T15:32:34.999Z</time></trkpt><trkpt lat="45.15625269578778" lon="5.437162472534815"><ele>681.0</ele><time>2026-05-02T15:32:35.999Z</time></trkpt><trkpt lat="45.15624562936851" lon="5.437287430955208"><ele>673.0</ele><time>2026-05-02T15:32:36.999Z</time></trkpt><trkpt lat="45.15625886031444" lon="5.437460105614322"><ele>673.0</ele><time>2026-05-02T15:32:37.999Z</time></trkpt><trkpt lat="45.15626110771845" lon="5.4376316768178325"><ele>673.0</ele><time>2026-05-02T15:32:38.999Z</time></trkpt><trkpt lat="45.156264466675566" lon="5.437800448161804"><ele>673.0</ele><time>2026-05-02T15:32:39.999Z</time></trkpt><trkpt lat="45.15626783618098" lon="5.437929660159252"><ele>673.0</ele><time>2026-05-02T15:32:40.999Z</time></trkpt><trkpt lat="45.15627444328171" lon="5.4380240064516965"><ele>673.0</ele><time>2026-05-02T15:32:42.999Z</time></trkpt><trkpt lat="45.156302812723546" lon="5.438199843009188"><ele>674.5</ele><time>2026-05-02T15:32:47.999Z</time></trkpt><trkpt lat="45.15631340030989" lon="5.43832759473199"><ele>676.0</ele><time>2026-05-02T15:32:48.999Z</time></trkpt><trkpt lat="45.156336787271606" lon="5.438489127791559"><ele>677.5</ele><time>2026-05-02T15:32:49.999Z</time></trkpt><trkpt lat="45.15634062684307" lon="5.438665556982482"><ele>679.0</ele><time>2026-05-02T15:32:50.999Z</time></trkpt><trkpt lat="45.156353809396215" lon="5.438837415765954"><ele>679.8333333333334</ele><time>2026-05-02T15:32:51.999Z</time></trkpt><trkpt lat="45.15633905488332" lon="5.4389894393323495"><ele>680.6666666666667</ele><time>2026-05-02T15:32:52.999Z</time></trkpt><trkpt lat="45.15633929399464" lon="5.439089415577255"><ele>681.5</ele><time>2026-05-02T15:32:53.999Z</time></trkpt><trkpt lat="45.15632177984478" lon="5.439195886549652"><ele>682.3333333333334</ele><time>2026-05-02T15:32:54.999Z</time></trkpt><trkpt lat="45.15636439207355" lon="5.439275493073154"><ele>683.1666666666666</ele><time>2026-05-02T15:32:55.999Z</time></trkpt><trkpt lat="45.15643715486634" lon="5.439349605271285"><ele>684.0</ele><time>2026-05-02T15:32:56.999Z</time></trkpt><trkpt lat="45.15651792671859" lon="5.439433445085871"><ele>684.6</ele><time>2026-05-02T15:32:57.999Z</time></trkpt><trkpt lat="45.15657673317486" lon="5.4395313897087165"><ele>685.2</ele><time>2026-05-02T15:32:58.999Z</time></trkpt><trkpt lat="45.15661408597302" lon="5.43961456904075"><ele>685.8000000000001</ele><time>2026-05-02T15:32:59.999Z</time></trkpt><trkpt lat="45.156579596579355" lon="5.439759852561032"><ele>686.4000000000001</ele><time>2026-05-02T15:33:00.999Z</time></trkpt><trkpt lat="45.156515526967674" lon="5.439897524102204"><ele>687.0</ele><time>2026-05-02T15:33:01.999Z</time></trkpt><trkpt lat="45.15642675748682" lon="5.440061167879278"><ele>689.0</ele><time>2026-05-02T15:33:02.999Z</time></trkpt><trkpt lat="45.15633937394865" lon="5.44024362407169"><ele>691.0</ele><time>2026-05-02T15:33:03.999Z</time></trkpt><trkpt lat="45.156256302567975" lon="5.440426819672293"><ele>693.0</ele><time>2026-05-02T15:33:04.999Z</time></trkpt><trkpt lat="45.15618240380579" lon="5.440606163367468"><ele>696.2</ele><time>2026-05-02T15:33:05.999Z</time></trkpt><trkpt lat="45.15612094224862" lon="5.440769114576546"><ele>699.4</ele><time>2026-05-02T15:33:06.999Z</time></trkpt><trkpt lat="45.15607294243397" lon="5.440903544403408"><ele>702.6</ele><time>2026-05-02T15:33:07.999Z</time></trkpt><trkpt lat="45.15607022950161" lon="5.441042168402293"><ele>705.8000000000001</ele><time>2026-05-02T15:33:08.999Z</time></trkpt><trkpt lat="45.15610863900759" lon="5.441160669467456"><ele>709.0</ele><time>2026-05-02T15:33:09.999Z</time></trkpt><trkpt lat="45.156191656650456" lon="5.441255033001868"><ele>710.0</ele><time>2026-05-02T15:33:10.999Z</time></trkpt><trkpt lat="45.15631198874837" lon="5.441302788468082"><ele>711.0</ele><time>2026-05-02T15:33:11.999Z</time></trkpt><trkpt lat="45.15643165227355" lon="5.441386837399477"><ele>712.0</ele><time>2026-05-02T15:33:12.999Z</time></trkpt><trkpt lat="45.156535320559755" lon="5.441504229476119"><ele>713.0</ele><time>2026-05-02T15:33:13.999Z</time></trkpt><trkpt lat="45.15656952137369" lon="5.441690355713526"><ele>713.0</ele><time>2026-05-02T15:33:14.999Z</time></trkpt><trkpt lat="45.156589599380574" lon="5.441857423475074"><ele>713.0</ele><time>2026-05-02T15:33:15.999Z</time></trkpt><trkpt lat="45.15660035895047" lon="5.441968299153436"><ele>713.0</ele><time>2026-05-02T15:33:16.998Z</time></trkpt><trkpt lat="45.15653225340772" lon="5.442042903626874"><ele>713.0</ele><time>2026-05-02T15:33:17.998Z</time></trkpt><trkpt lat="45.15647982582207" lon="5.442112629359321"><ele>713.0</ele><time>2026-05-02T15:33:18.998Z</time></trkpt><trkpt lat="45.15631942752215" lon="5.442039542380506"><ele>714.0</ele><time>2026-05-02T15:33:19.998Z</time></trkpt><trkpt lat="45.156226968651396" lon="5.4418701839367145"><ele>715.0</ele><time>2026-05-02T15:33:20.998Z</time></trkpt><trkpt lat="45.15609573007004" lon="5.441713428760608"><ele>716.0</ele><time>2026-05-02T15:33:21.998Z</time></trkpt><trkpt lat="45.1559781302667" lon="5.441570010301619"><ele>716.0</ele><time>2026-05-02T15:33:22.998Z</time></trkpt><trkpt lat="45.15587730335949" lon="5.4414147365079995"><ele>716.0</ele><time>2026-05-02T15:33:23.998Z</time></trkpt><trkpt lat="45.155793942678145" lon="5.441259070453591"><ele>716.0</ele><time>2026-05-02T15:33:24.998Z</time></trkpt><trkpt lat="45.15574901477722" lon="5.441100138879741"><ele>716.0</ele><time>2026-05-02T15:33:25.998Z</time></trkpt><trkpt lat="45.15573462572907" lon="5.440913240743949"><ele>714.5999999999999</ele><time>2026-05-02T15:33:26.998Z</time></trkpt><trkpt lat="45.15574071580845" lon="5.440732344442307"><ele>713.2</ele><time>2026-05-02T15:33:27.998Z</time></trkpt><trkpt lat="45.155748396421" lon="5.44057896332163"><ele>711.8</ele><time>2026-05-02T15:33:28.998Z</time></trkpt><trkpt lat="45.1557378017927" lon="5.440466598750833"><ele>710.4000000000001</ele><time>2026-05-02T15:33:29.998Z</time></trkpt><trkpt lat="45.155695378885056" lon="5.440352627645737"><ele>709.0</ele><time>2026-05-02T15:33:30.998Z</time></trkpt><trkpt lat="45.155614260067146" lon="5.440281879691211"><ele>716.0</ele><time>2026-05-02T15:33:31.998Z</time></trkpt><trkpt lat="45.15552678569026" lon="5.440262747615723"><ele>723.0</ele><time>2026-05-02T15:33:32.998Z</time></trkpt><trkpt lat="45.1554099757799" lon="5.4403129955715075"><ele>730.0</ele><time>2026-05-02T15:33:33.998Z</time></trkpt><trkpt lat="45.15528639391555" lon="5.4403423911501765"><ele>737.0</ele><time>2026-05-02T15:33:35Z</time></trkpt><trkpt lat="45.15516883156609" lon="5.440377341877551"><ele>737.0</ele><time>2026-05-02T15:33:36Z</time></trkpt><trkpt lat="45.15507491826091" lon="5.440384869516094"><ele>737.0</ele><time>2026-05-02T15:33:37Z</time></trkpt><trkpt lat="45.15501000400722" lon="5.440380981282688"><ele>737.0</ele><time>2026-05-02T15:33:38Z</time></trkpt><trkpt lat="45.15494502086328" lon="5.4402209768526"><ele>737.0</ele><time>2026-05-02T15:33:40Z</time></trkpt><trkpt lat="45.15496907440252" lon="5.440040138130409"><ele>737.0</ele><time>2026-05-02T15:33:41Z</time></trkpt><trkpt lat="45.15502276238078" lon="5.439837098628685"><ele>737.0</ele><time>2026-05-02T15:33:42Z</time></trkpt><trkpt lat="45.15510257333685" lon="5.439655339956906"><ele>737.0</ele><time>2026-05-02T15:33:43Z</time></trkpt><trkpt lat="45.155218412263906" lon="5.439553120730947"><ele>737.0</ele><time>2026-05-02T15:33:44Z</time></trkpt><trkpt lat="45.1552728605623" lon="5.439501542764025"><ele>737.0</ele><time>2026-05-02T15:33:45Z</time></trkpt><trkpt lat="45.15529613814106" lon="5.439393461876766"><ele>737.0</ele><time>2026-05-02T15:33:46Z</time></trkpt><trkpt lat="45.15526353262957" lon="5.439271587168108"><ele>735.5</ele><time>2026-05-02T15:33:47Z</time></trkpt><trkpt lat="45.155204819160716" lon="5.439165473215828"><ele>734.0</ele><time>2026-05-02T15:33:48Z</time></trkpt><trkpt lat="45.15508370750692" lon="5.439021159270407"><ele>732.5</ele><time>2026-05-02T15:33:49Z</time></trkpt><trkpt lat="45.15493926935864" lon="5.438866175839415"><ele>731.0</ele><time>2026-05-02T15:33:50Z</time></trkpt><trkpt lat="45.154800572063266" lon="5.43871201815831"><ele>740.6666666666666</ele><time>2026-05-02T15:33:51Z</time></trkpt><trkpt lat="45.15468982345845" lon="5.438536817791877"><ele>750.3333333333334</ele><time>2026-05-02T15:33:52Z</time></trkpt><trkpt lat="45.15459980723792" lon="5.438371972141114"><ele>760.0</ele><time>2026-05-02T15:33:53Z</time></trkpt><trkpt lat="45.15450502674365" lon="5.438215253576873"><ele>760.0</ele><time>2026-05-02T15:33:54Z</time></trkpt><trkpt lat="45.15439081737" lon="5.4380204563818815"><ele>760.0</ele><time>2026-05-02T15:33:55Z</time></trkpt><trkpt lat="45.154279736422254" lon="5.437812273542125"><ele>760.0</ele><time>2026-05-02T15:33:56Z</time></trkpt><trkpt lat="45.1542148730576" lon="5.437639706611681"><ele>760.25</ele><time>2026-05-02T15:33:57Z</time></trkpt><trkpt lat="45.15414214915619" lon="5.43749307348934"><ele>760.5</ele><time>2026-05-02T15:33:58Z</time></trkpt><trkpt lat="45.154070896601" lon="5.437370734981603"><ele>760.75</ele><time>2026-05-02T15:33:59Z</time></trkpt><trkpt lat="45.153958984231174" lon="5.437206932128776"><ele>761.0</ele><time>2026-05-02T15:34:00Z</time></trkpt><trkpt lat="45.15382934209023" lon="5.437060204565829"><ele>755.0</ele><time>2026-05-02T15:34:01Z</time></trkpt><trkpt lat="45.153695513253524" lon="5.436916319524691"><ele>749.0</ele><time>2026-05-02T15:34:02Z</time></trkpt><trkpt lat="45.15356509856013" lon="5.436782131238685"><ele>743.0</ele><time>2026-05-02T15:34:03Z</time></trkpt><trkpt lat="45.15342918863383" lon="5.436687055311907"><ele>743.0</ele><time>2026-05-02T15:34:04Z</time></trkpt><trkpt lat="45.153313991209444" lon="5.436612984459692"><ele>743.0</ele><time>2026-05-02T15:34:05Z</time></trkpt><trkpt lat="45.15322646989518" lon="5.4365219241026495"><ele>743.0</ele><time>2026-05-02T15:34:06Z</time></trkpt><trkpt lat="45.153169385589365" lon="5.436352576692819"><ele>743.0</ele><time>2026-05-02T15:34:07Z</time></trkpt><trkpt lat="45.153076530986525" lon="5.436170823474527"><ele>747.5</ele><time>2026-05-02T15:34:08Z</time></trkpt><trkpt lat="45.1529964958008" lon="5.435984437295327"><ele>752.0</ele><time>2026-05-02T15:34:09Z</time></trkpt><trkpt lat="45.15291531831663" lon="5.435813984435104"><ele>756.5</ele><time>2026-05-02T15:34:10Z</time></trkpt><trkpt lat="45.152846094119234" lon="5.435662545680402"><ele>761.0</ele><time>2026-05-02T15:34:11Z</time></trkpt><trkpt lat="45.15280284648084" lon="5.435538781796601"><ele>762.5999999999999</ele><time>2026-05-02T15:34:12Z</time></trkpt><trkpt lat="45.15280733952556" lon="5.435404144409891"><ele>764.2</ele><time>2026-05-02T15:34:13Z</time></trkpt><trkpt lat="45.152824284884424" lon="5.435291616114093"><ele>765.8</ele><time>2026-05-02T15:34:14Z</time></trkpt><trkpt lat="45.152934721428394" lon="5.435222431074103"><ele>767.4000000000001</ele><time>2026-05-02T15:34:15Z</time></trkpt><trkpt lat="45.15303568288984" lon="5.435159738717684"><ele>769.0</ele><time>2026-05-02T15:34:16Z</time></trkpt><trkpt lat="45.15313181635801" lon="5.435075368592789"><ele>769.0</ele><time>2026-05-02T15:34:17Z</time></trkpt><trkpt lat="45.15322955124919" lon="5.435004575405608"><ele>769.0</ele><time>2026-05-02T15:34:18Z</time></trkpt><trkpt lat="45.15329095040453" lon="5.434912570059589"><ele>769.0</ele><time>2026-05-02T15:34:19Z</time></trkpt><trkpt lat="45.15330226398278" lon="5.434803399578539"><ele>769.0</ele><time>2026-05-02T15:34:20Z</time></trkpt><trkpt lat="45.15326348142302" lon="5.43470806126167"><ele>769.0</ele><time>2026-05-02T15:34:21Z</time></trkpt><trkpt lat="45.15309819198877" lon="5.434684460457844"><ele>769.0</ele><time>2026-05-02T15:34:22.999Z</time></trkpt><trkpt lat="45.15299080620406" lon="5.434772292396385"><ele>769.0</ele><time>2026-05-02T15:34:23.999Z</time></trkpt><trkpt lat="45.1528284474494" lon="5.434876065554191"><ele>769.0</ele><time>2026-05-02T15:34:24.999Z</time></trkpt><trkpt lat="45.15268443512887" lon="5.434939634582962"><ele>769.0</ele><time>2026-05-02T15:34:25.999Z</time></trkpt><trkpt lat="45.152573182577534" lon="5.43496255641592"><ele>769.0</ele><time>2026-05-02T15:34:26.999Z</time></trkpt><trkpt lat="45.15247718612639" lon="5.435014269396598"><ele>769.0</ele><time>2026-05-02T15:34:27.999Z</time></trkpt><trkpt lat="45.15239980693803" lon="5.43509015895482"><ele>769.0</ele><time>2026-05-02T15:34:28.999Z</time></trkpt><trkpt lat="45.15234775119867" lon="5.435214619793743"><ele>769.0</ele><time>2026-05-02T15:34:29.999Z</time></trkpt><trkpt lat="45.15234668249864" lon="5.43539857864559"><ele>777.0</ele><time>2026-05-02T15:34:30.999Z</time></trkpt><trkpt lat="45.152367823462065" lon="5.435624723093935"><ele>785.0</ele><time>2026-05-02T15:34:31.999Z</time></trkpt><trkpt lat="45.152326641436545" lon="5.435869537442867"><ele>793.0</ele><time>2026-05-02T15:34:32.999Z</time></trkpt><trkpt lat="45.15231075555752" lon="5.436105059798449"><ele>795.0</ele><time>2026-05-02T15:34:33.999Z</time></trkpt><trkpt lat="45.15234784980811" lon="5.436327482386831"><ele>797.0</ele><time>2026-05-02T15:34:34.999Z</time></trkpt><trkpt lat="45.15239096960704" lon="5.436589219669502"><ele>799.0</ele><time>2026-05-02T15:34:35.999Z</time></trkpt><trkpt lat="45.15241202770488" lon="5.436809236642615"><ele>795.75</ele><time>2026-05-02T15:34:36.999Z</time></trkpt><trkpt lat="45.15245127962052" lon="5.436992161821513"><ele>792.5</ele><time>2026-05-02T15:34:37.999Z</time></trkpt><trkpt lat="45.152546730277486" lon="5.437112735687304"><ele>789.25</ele><time>2026-05-02T15:34:38.999Z</time></trkpt><trkpt lat="45.1526824323582" lon="5.4371891918600115"><ele>786.0</ele><time>2026-05-02T15:34:39.999Z</time></trkpt><trkpt lat="45.15282824544893" lon="5.437261854752632"><ele>786.0</ele><time>2026-05-02T15:34:40.999Z</time></trkpt><trkpt lat="45.15295134104142" lon="5.437432039737272"><ele>786.0</ele><time>2026-05-02T15:34:41.999Z</time></trkpt><trkpt lat="45.15306955322782" lon="5.437586629984791"><ele>786.0</ele><time>2026-05-02T15:34:42.999Z</time></trkpt><trkpt lat="45.153169369687504" lon="5.437750235397125"><ele>784.75</ele><time>2026-05-02T15:34:43.999Z</time></trkpt><trkpt lat="45.15324706859564" lon="5.437927952430974"><ele>783.5</ele><time>2026-05-02T15:34:44.999Z</time></trkpt><trkpt lat="45.15330596274517" lon="5.438076867344322"><ele>782.25</ele><time>2026-05-02T15:34:45.999Z</time></trkpt><trkpt lat="45.15330666673661" lon="5.438218437169686"><ele>781.0</ele><time>2026-05-02T15:34:46.999Z</time></trkpt><trkpt lat="45.1533116005534" lon="5.438422434763571"><ele>781.0</ele><time>2026-05-02T15:34:47.999Z</time></trkpt><trkpt lat="45.153341841734054" lon="5.43865579092156"><ele>781.0</ele><time>2026-05-02T15:34:48.999Z</time></trkpt><trkpt lat="45.15340695803193" lon="5.438842444046462"><ele>781.0</ele><time>2026-05-02T15:34:49.999Z</time></trkpt><trkpt lat="45.153461046179615" lon="5.4389771105944"><ele>781.0</ele><time>2026-05-02T15:34:50.999Z</time></trkpt><trkpt lat="45.153490021361286" lon="5.439079000392554"><ele>781.0</ele><time>2026-05-02T15:34:51.999Z</time></trkpt><trkpt lat="45.15343976707425" lon="5.439160137671384"><ele>781.0</ele><time>2026-05-02T15:34:53.999Z</time></trkpt><trkpt lat="45.15332365991011" lon="5.43909623653858"><ele>781.0</ele><time>2026-05-02T15:34:54.999Z</time></trkpt><trkpt lat="45.15327896977109" lon="5.438930358260839"><ele>781.0</ele><time>2026-05-02T15:34:55.999Z</time></trkpt><trkpt lat="45.153244660429635" lon="5.438699175206644"><ele>790.6666666666666</ele><time>2026-05-02T15:34:56.999Z</time></trkpt><trkpt lat="45.15316941969147" lon="5.438478980592919"><ele>800.3333333333333</ele><time>2026-05-02T15:34:57.999Z</time></trkpt><trkpt lat="45.15306623517728" lon="5.438246080215983"><ele>810.0</ele><time>2026-05-02T15:34:58.999Z</time></trkpt><trkpt lat="45.15298355557767" lon="5.438083463711748"><ele>810.0</ele><time>2026-05-02T15:34:59.999Z</time></trkpt><trkpt lat="45.15289168985186" lon="5.437971982545359"><ele>810.0</ele><time>2026-05-02T15:35:00.999Z</time></trkpt><trkpt lat="45.15274380213788" lon="5.437909761730845"><ele>810.0</ele><time>2026-05-02T15:35:01.999Z</time></trkpt><trkpt lat="45.15256214950901" lon="5.437858562335277"><ele>812.6666666666667</ele><time>2026-05-02T15:35:02.999Z</time></trkpt><trkpt lat="45.15239877125706" lon="5.437793352958048"><ele>815.3333333333334</ele><time>2026-05-02T15:35:03.999Z</time></trkpt><trkpt lat="45.15229038226489" lon="5.437651015494563"><ele>818.0</ele><time>2026-05-02T15:35:04.999Z</time></trkpt><trkpt lat="45.152160967751584" lon="5.437474252302605"><ele>818.0</ele><time>2026-05-02T15:35:05.999Z</time></trkpt><trkpt lat="45.151996572062295" lon="5.437260856610157"><ele>818.0</ele><time>2026-05-02T15:35:06.999Z</time></trkpt><trkpt lat="45.1517966539363" lon="5.4370388053066705"><ele>808.5</ele><time>2026-05-02T15:35:07.999Z</time></trkpt><trkpt lat="45.15159713641627" lon="5.436813913901587"><ele>799.0</ele><time>2026-05-02T15:35:08.999Z</time></trkpt><trkpt lat="45.15146292006755" lon="5.4365618794437"><ele>811.0</ele><time>2026-05-02T15:35:09.999Z</time></trkpt><trkpt lat="45.151321047339046" lon="5.436311510856293"><ele>823.0</ele><time>2026-05-02T15:35:10.999Z</time></trkpt><trkpt lat="45.15119009496315" lon="5.436016409924397"><ele>823.0</ele><time>2026-05-02T15:35:11.999Z</time></trkpt><trkpt lat="45.15104844601211" lon="5.435730363272044"><ele>823.0</ele><time>2026-05-02T15:35:12.999Z</time></trkpt><trkpt lat="45.15092485104307" lon="5.435487935272037"><ele>825.6666666666666</ele><time>2026-05-02T15:35:13.999Z</time></trkpt><trkpt lat="45.150821857110024" lon="5.435294494368789"><ele>828.3333333333333</ele><time>2026-05-02T15:35:14.999Z</time></trkpt><trkpt lat="45.150698959356475" lon="5.43513634816522"><ele>831.0</ele><time>2026-05-02T15:35:15.999Z</time></trkpt><trkpt lat="45.1505693384425" lon="5.435008096460062"><ele>831.0</ele><time>2026-05-02T15:35:16.999Z</time></trkpt><trkpt lat="45.15048416614857" lon="5.4349064648923875"><ele>831.0</ele><time>2026-05-02T15:35:17.999Z</time></trkpt><trkpt lat="45.150421551916295" lon="5.434863743241019"><ele>831.0</ele><time>2026-05-02T15:35:18.999Z</time></trkpt><trkpt lat="45.15036077038782" lon="5.434905881165847"><ele>831.0</ele><time>2026-05-02T15:35:19.999Z</time></trkpt><trkpt lat="45.15031436318045" lon="5.43498479887474"><ele>831.0</ele><time>2026-05-02T15:35:20.999Z</time></trkpt><trkpt lat="45.15032847937403" lon="5.435143914115038"><ele>831.0</ele><time>2026-05-02T15:35:21.999Z</time></trkpt><trkpt lat="45.150448431107215" lon="5.435283313458257"><ele>831.0</ele><time>2026-05-02T15:35:22.999Z</time></trkpt><trkpt lat="45.15053495617674" lon="5.435466207030945"><ele>831.0</ele><time>2026-05-02T15:35:23.999Z</time></trkpt><trkpt lat="45.15060578474424" lon="5.435711364995712"><ele>831.0</ele><time>2026-05-02T15:35:24.998Z</time></trkpt><trkpt lat="45.1506776925218" lon="5.436005341552737"><ele>837.5</ele><time>2026-05-02T15:35:25.998Z</time></trkpt><trkpt lat="45.15075867415018" lon="5.436335743251997"><ele>844.0</ele><time>2026-05-02T15:35:26.998Z</time></trkpt><trkpt lat="45.15086455875438" lon="5.43668535568191"><ele>844.0</ele><time>2026-05-02T15:35:27.998Z</time></trkpt><trkpt lat="45.15098135389265" lon="5.437001980098755"><ele>844.0</ele><time>2026-05-02T15:35:28.998Z</time></trkpt><trkpt lat="45.15109962562316" lon="5.437322355458821"><ele>856.0</ele><time>2026-05-02T15:35:29.998Z</time></trkpt><trkpt lat="45.15121851924659" lon="5.437588814175318"><ele>868.0</ele><time>2026-05-02T15:35:30.998Z</time></trkpt><trkpt lat="45.151391959311816" lon="5.4378800745077625"><ele>857.0</ele><time>2026-05-02T15:35:31.998Z</time></trkpt><trkpt lat="45.15154449090484" lon="5.438170936370097"><ele>846.0</ele><time>2026-05-02T15:35:32.998Z</time></trkpt><trkpt lat="45.151681830559774" lon="5.438480555140208"><ele>846.0</ele><time>2026-05-02T15:35:33.998Z</time></trkpt><trkpt lat="45.15182164607191" lon="5.43874432360842"><ele>846.0</ele><time>2026-05-02T15:35:34.998Z</time></trkpt><trkpt lat="45.15194652293231" lon="5.438980010876098"><ele>846.0</ele><time>2026-05-02T15:35:35.998Z</time></trkpt><trkpt lat="45.15205205229973" lon="5.439178023667772"><ele>851.0</ele><time>2026-05-02T15:35:36.998Z</time></trkpt><trkpt lat="45.15213680844439" lon="5.439314740837636"><ele>856.0</ele><time>2026-05-02T15:35:37.998Z</time></trkpt><trkpt lat="45.15219482182657" lon="5.439413512806223"><ele>860.9999999999999</ele><time>2026-05-02T15:35:38.998Z</time></trkpt><trkpt lat="45.15222301523625" lon="5.439505240407694"><ele>866.0</ele><time>2026-05-02T15:35:39.998Z</time></trkpt><trkpt lat="45.15214183895271" lon="5.439613398729679"><ele>871.0</ele><time>2026-05-02T15:35:42Z</time></trkpt><trkpt lat="45.15207102563761" lon="5.4395701721857845"><ele>871.0</ele><time>2026-05-02T15:35:43Z</time></trkpt><trkpt lat="45.1519876637208" lon="5.439388431162921"><ele>871.0</ele><time>2026-05-02T15:35:44Z</time></trkpt><trkpt lat="45.1518894664426" lon="5.439201017167219"><ele>871.0</ele><time>2026-05-02T15:35:45Z</time></trkpt><trkpt lat="45.15174621699079" lon="5.438991679182407"><ele>881.0</ele><time>2026-05-02T15:35:46Z</time></trkpt><trkpt lat="45.15158569348043" lon="5.4387601143034585"><ele>891.0</ele><time>2026-05-02T15:35:47Z</time></trkpt><trkpt lat="45.15138905351828" lon="5.438529565448411"><ele>891.0</ele><time>2026-05-02T15:35:48Z</time></trkpt><trkpt lat="45.15119504647405" lon="5.438295576692745"><ele>891.0</ele><time>2026-05-02T15:35:49Z</time></trkpt><trkpt lat="45.15101087848048" lon="5.438087768399367"><ele>897.0</ele><time>2026-05-02T15:35:50Z</time></trkpt><trkpt lat="45.15083099519465" lon="5.437947056617589"><ele>903.0</ele><time>2026-05-02T15:35:51Z</time></trkpt><trkpt lat="45.15065657940169" lon="5.437786036320836"><ele>909.0</ele><time>2026-05-02T15:35:52Z</time></trkpt><trkpt lat="45.15051688666836" lon="5.437582023115778"><ele>909.0</ele><time>2026-05-02T15:35:53Z</time></trkpt><trkpt lat="45.15038581239917" lon="5.437368569892666"><ele>909.0</ele><time>2026-05-02T15:35:54Z</time></trkpt><trkpt lat="45.15022268806924" lon="5.437160600191207"><ele>909.0</ele><time>2026-05-02T15:35:55Z</time></trkpt><trkpt lat="45.15010639604085" lon="5.437004509524648"><ele>909.6666666666667</ele><time>2026-05-02T15:35:56Z</time></trkpt><trkpt lat="45.149959539151645" lon="5.4368774561061946"><ele>910.3333333333334</ele><time>2026-05-02T15:35:57Z</time></trkpt><trkpt lat="45.149790898954656" lon="5.43676676968946"><ele>911.0</ele><time>2026-05-02T15:35:58Z</time></trkpt><trkpt lat="45.149631146280285" lon="5.436630159229917"><ele>911.0</ele><time>2026-05-02T15:35:59Z</time></trkpt><trkpt lat="45.14941584380706" lon="5.4364698572997865"><ele>911.0</ele><time>2026-05-02T15:36:00Z</time></trkpt><trkpt lat="45.14918649504647" lon="5.4363128389412445"><ele>905.0</ele><time>2026-05-02T15:36:01Z</time></trkpt><trkpt lat="45.14894983238482" lon="5.436153963367329"><ele>899.0</ele><time>2026-05-02T15:36:02Z</time></trkpt><trkpt lat="45.148734725883074" lon="5.436029619990589"><ele>899.0</ele><time>2026-05-02T15:36:03Z</time></trkpt><trkpt lat="45.1485529737155" lon="5.435901195644108"><ele>899.0</ele><time>2026-05-02T15:36:04Z</time></trkpt><trkpt lat="45.14841955210671" lon="5.43580519071819"><ele>899.0</ele><time>2026-05-02T15:36:05Z</time></trkpt><trkpt lat="45.14833595079304" lon="5.435657096760346"><ele>899.0</ele><time>2026-05-02T15:36:06Z</time></trkpt><trkpt lat="45.148289973007095" lon="5.4355077923166535"><ele>899.0</ele><time>2026-05-02T15:36:07Z</time></trkpt><trkpt lat="45.148221156301815" lon="5.43537231598702"><ele>899.0</ele><time>2026-05-02T15:36:08Z</time></trkpt><trkpt lat="45.14814921672573" lon="5.435278435619573"><ele>899.0</ele><time>2026-05-02T15:36:09Z</time></trkpt><trkpt lat="45.14803132011236" lon="5.43524408900251"><ele>901.0</ele><time>2026-05-02T15:36:10Z</time></trkpt><trkpt lat="45.14786631548092" lon="5.435207183235465"><ele>903.0</ele><time>2026-05-02T15:36:11Z</time></trkpt><trkpt lat="45.14770393148179" lon="5.435145743209567"><ele>905.0</ele><time>2026-05-02T15:36:12Z</time></trkpt><trkpt lat="45.147568674871785" lon="5.435101581343872"><ele>905.0</ele><time>2026-05-02T15:36:13Z</time></trkpt><trkpt lat="45.14748445920061" lon="5.435035546328161"><ele>905.0</ele><time>2026-05-02T15:36:14Z</time></trkpt><trkpt lat="45.14738390195324" lon="5.434972492508026"><ele>905.0</ele><time>2026-05-02T15:36:15Z</time></trkpt><trkpt lat="45.147274690920696" lon="5.434877926394306"><ele>905.0</ele><time>2026-05-02T15:36:16Z</time></trkpt><trkpt lat="45.147165907815335" lon="5.434816203002474"><ele>905.8</ele><time>2026-05-02T15:36:17Z</time></trkpt><trkpt lat="45.14704799478126" lon="5.434784349467225"><ele>906.6</ele><time>2026-05-02T15:36:18Z</time></trkpt><trkpt lat="45.14693385083716" lon="5.434751728096069"><ele>907.4000000000001</ele><time>2026-05-02T15:36:19Z</time></trkpt><trkpt lat="45.1468390676024" lon="5.43474866633432"><ele>908.2</ele><time>2026-05-02T15:36:20Z</time></trkpt><trkpt lat="45.14674485756424" lon="5.434813338910817"><ele>909.0</ele><time>2026-05-02T15:36:21Z</time></trkpt><trkpt lat="45.146666415970074" lon="5.434939394019288"><ele>909.0</ele><time>2026-05-02T15:36:22Z</time></trkpt><trkpt lat="45.146588788970284" lon="5.435027797052099"><ele>909.0000000000001</ele><time>2026-05-02T15:36:23Z</time></trkpt><trkpt lat="45.14652868816479" lon="5.435140665070251"><ele>909.0000000000001</ele><time>2026-05-02T15:36:24Z</time></trkpt><trkpt lat="45.14650842094302" lon="5.43526583270973"><ele>909.0</ele><time>2026-05-02T15:36:25Z</time></trkpt><trkpt lat="45.146506096781884" lon="5.4354076147462775"><ele>909.0</ele><time>2026-05-02T15:36:26Z</time></trkpt><trkpt lat="45.146509030934524" lon="5.435544746492126"><ele>910.75</ele><time>2026-05-02T15:36:27Z</time></trkpt><trkpt lat="45.146554895483156" lon="5.435696893011727"><ele>912.5</ele><time>2026-05-02T15:36:27.999Z</time></trkpt><trkpt lat="45.14661887439615" lon="5.435831571712163"><ele>914.25</ele><time>2026-05-02T15:36:28.999Z</time></trkpt><trkpt lat="45.146698814470575" lon="5.435987537769127"><ele>916.0</ele><time>2026-05-02T15:36:29.999Z</time></trkpt><trkpt lat="45.146782799055835" lon="5.4361497159103"><ele>917.8</ele><time>2026-05-02T15:36:30.999Z</time></trkpt><trkpt lat="45.14686671048145" lon="5.436311201853698"><ele>919.5999999999999</ele><time>2026-05-02T15:36:31.999Z</time></trkpt><trkpt lat="45.14694851213097" lon="5.436425961351948"><ele>921.4</ele><time>2026-05-02T15:36:32.999Z</time></trkpt><trkpt lat="45.14699628673842" lon="5.436556861872453"><ele>923.2</ele><time>2026-05-02T15:36:33.999Z</time></trkpt><trkpt lat="45.14701630728516" lon="5.436662086763478"><ele>925.0</ele><time>2026-05-02T15:36:34.999Z</time></trkpt><trkpt lat="45.146974320722144" lon="5.436779276613238"><ele>925.0</ele><time>2026-05-02T15:36:35.999Z</time></trkpt><trkpt lat="45.146867079016786" lon="5.43685779488532"><ele>925.0</ele><time>2026-05-02T15:36:36.999Z</time></trkpt><trkpt lat="45.14678248146135" lon="5.436985442439304"><ele>925.0</ele><time>2026-05-02T15:36:37.999Z</time></trkpt><trkpt lat="45.14670905888464" lon="5.437134653500195"><ele>925.0</ele><time>2026-05-02T15:36:38.999Z</time></trkpt><trkpt lat="45.14664401956303" lon="5.437211263844035"><ele>926.0</ele><time>2026-05-02T15:36:39.999Z</time></trkpt><trkpt lat="45.14654769354139" lon="5.437306266738673"><ele>927.0</ele><time>2026-05-02T15:36:41.999Z</time></trkpt><trkpt lat="45.146460377172566" lon="5.437252674154164"><ele>928.0</ele><time>2026-05-02T15:36:42.999Z</time></trkpt><trkpt lat="45.14633916319568" lon="5.437211561016964"><ele>929.0</ele><time>2026-05-02T15:36:43.999Z</time></trkpt><trkpt lat="45.14620658579979" lon="5.437138076683599"><ele>928.0</ele><time>2026-05-02T15:36:44.999Z</time></trkpt><trkpt lat="45.14606041405622" lon="5.437103493671771"><ele>927.0</ele><time>2026-05-02T15:36:45.999Z</time></trkpt><trkpt lat="45.14590704576668" lon="5.437139875705713"><ele>926.0</ele><time>2026-05-02T15:36:46.999Z</time></trkpt><trkpt lat="45.145764426871686" lon="5.4372026090293195"><ele>927.25</ele><time>2026-05-02T15:36:47.999Z</time></trkpt><trkpt lat="45.14561443459702" lon="5.437196331975138"><ele>928.5</ele><time>2026-05-02T15:36:48.999Z</time></trkpt><trkpt lat="45.14545620910296" lon="5.437151264492237"><ele>929.75</ele><time>2026-05-02T15:36:49.999Z</time></trkpt><trkpt lat="45.14532299149314" lon="5.437113903051784"><ele>931.0</ele><time>2026-05-02T15:36:50.999Z</time></trkpt><trkpt lat="45.14522082642729" lon="5.437046763408063"><ele>931.0</ele><time>2026-05-02T15:36:51.999Z</time></trkpt><trkpt lat="45.145134762156545" lon="5.437022232216466"><ele>930.9999999999999</ele><time>2026-05-02T15:36:52.999Z</time></trkpt><trkpt lat="45.14507235021349" lon="5.437058951182817"><ele>930.9999999999999</ele><time>2026-05-02T15:36:53.999Z</time></trkpt><trkpt lat="45.14507412091862" lon="5.437265315578364"><ele>931.0</ele><time>2026-05-02T15:36:55.999Z</time></trkpt><trkpt lat="45.14517408155467" lon="5.437354075641276"><ele>931.0</ele><time>2026-05-02T15:36:56.999Z</time></trkpt><trkpt lat="45.145305880148996" lon="5.437460921614114"><ele>932.6666666666666</ele><time>2026-05-02T15:36:57.999Z</time></trkpt><trkpt lat="45.145449269683" lon="5.437620181558622"><ele>934.3333333333333</ele><time>2026-05-02T15:36:58.999Z</time></trkpt><trkpt lat="45.14563202107788" lon="5.437704910183826"><ele>936.0</ele><time>2026-05-02T15:36:59.999Z</time></trkpt><trkpt lat="45.14578997393509" lon="5.437794830866739"><ele>936.0</ele><time>2026-05-02T15:37:00.999Z</time></trkpt><trkpt lat="45.145903217933814" lon="5.437877701124538"><ele>936.0</ele><time>2026-05-02T15:37:01.999Z</time></trkpt><trkpt lat="45.145983940203564" lon="5.437980750874873"><ele>936.0</ele><time>2026-05-02T15:37:02.999Z</time></trkpt><trkpt lat="45.14599334883582" lon="5.438115087085047"><ele>936.0</ele><time>2026-05-02T15:37:03.999Z</time></trkpt><trkpt lat="45.146044766539006" lon="5.438269694886687"><ele>940.3333333333333</ele><time>2026-05-02T15:37:04.999Z</time></trkpt><trkpt lat="45.146111552808485" lon="5.4384623971338275"><ele>944.6666666666666</ele><time>2026-05-02T15:37:05.999Z</time></trkpt><trkpt lat="45.14618644393325" lon="5.438684517359421"><ele>949.0</ele><time>2026-05-02T15:37:06.999Z</time></trkpt><trkpt lat="45.146270270714886" lon="5.438896226438745"><ele>949.3333333333333</ele><time>2026-05-02T15:37:07.999Z</time></trkpt><trkpt lat="45.14634712810893" lon="5.439106264667175"><ele>949.6666666666667</ele><time>2026-05-02T15:37:08.999Z</time></trkpt><trkpt lat="45.146473483990796" lon="5.439309434466229"><ele>950.0</ele><time>2026-05-02T15:37:09.999Z</time></trkpt><trkpt lat="45.14662173265247" lon="5.439464270132465"><ele>950.0</ele><time>2026-05-02T15:37:10.999Z</time></trkpt><trkpt lat="45.14672764110911" lon="5.439621324602891"><ele>950.0</ele><time>2026-05-02T15:37:11.999Z</time></trkpt><trkpt lat="45.1468095601559" lon="5.439793717488161"><ele>950.0</ele><time>2026-05-02T15:37:12.999Z</time></trkpt><trkpt lat="45.1468649180814" lon="5.439990591755259"><ele>950.0</ele><time>2026-05-02T15:37:13.999Z</time></trkpt><trkpt lat="45.14688964144959" lon="5.440201845921961"><ele>954.25</ele><time>2026-05-02T15:37:14.999Z</time></trkpt><trkpt lat="45.146940502797754" lon="5.440392007531774"><ele>958.5</ele><time>2026-05-02T15:37:15.999Z</time></trkpt><trkpt lat="45.14701943527862" lon="5.440556051837701"><ele>962.75</ele><time>2026-05-02T15:37:16.999Z</time></trkpt><trkpt lat="45.14714706299461" lon="5.440698968266536"><ele>967.0</ele><time>2026-05-02T15:37:17.999Z</time></trkpt><trkpt lat="45.14731789329252" lon="5.440813582553686"><ele>969.6666666666666</ele><time>2026-05-02T15:37:18.999Z</time></trkpt><trkpt lat="45.14750135531984" lon="5.4409559390697835"><ele>972.3333333333333</ele><time>2026-05-02T15:37:19.999Z</time></trkpt><trkpt lat="45.14763018775728" lon="5.441127692707077"><ele>975.0</ele><time>2026-05-02T15:37:20.999Z</time></trkpt><trkpt lat="45.147760471558954" lon="5.4413587014097375"><ele>986.0</ele><time>2026-05-02T15:37:21.999Z</time></trkpt><trkpt lat="45.14792005795441" lon="5.441608961252572"><ele>997.0</ele><time>2026-05-02T15:37:22.999Z</time></trkpt><trkpt lat="45.14807672411423" lon="5.44183298993232"><ele>997.0</ele><time>2026-05-02T15:37:23.999Z</time></trkpt><trkpt lat="45.14820653349068" lon="5.442020512975108"><ele>997.0</ele><time>2026-05-02T15:37:24.999Z</time></trkpt><trkpt lat="45.148308553771955" lon="5.442163597177513"><ele>997.0</ele><time>2026-05-02T15:37:25.999Z</time></trkpt><trkpt lat="45.14838485151059" lon="5.4422510019059835"><ele>997.0</ele><time>2026-05-02T15:37:26.999Z</time></trkpt><trkpt lat="45.14845320852932" lon="5.442342682419892"><ele>997.0</ele><time>2026-05-02T15:37:27.999Z</time></trkpt><trkpt lat="45.14842947587748" lon="5.442482022286573"><ele>997.0</ele><time>2026-05-02T15:37:29.998Z</time></trkpt><trkpt lat="45.148365129740654" lon="5.442515341161769"><ele>997.0</ele><time>2026-05-02T15:37:30.998Z</time></trkpt><trkpt lat="45.1483071083645" lon="5.442468256075119"><ele>997.0</ele><time>2026-05-02T15:37:31.998Z</time></trkpt><trkpt lat="45.14823689296306" lon="5.442321930844435"><ele>997.0</ele><time>2026-05-02T15:37:32.998Z</time></trkpt><trkpt lat="45.1480594211252" lon="5.442097960624444"><ele>997.0</ele><time>2026-05-02T15:37:33.998Z</time></trkpt><trkpt lat="45.147882484466315" lon="5.442001985089532"><ele>997.0</ele><time>2026-05-02T15:37:34.998Z</time></trkpt><trkpt lat="45.147663998414295" lon="5.441935619873395"><ele>997.0</ele><time>2026-05-02T15:37:35.998Z</time></trkpt><trkpt lat="45.14742641675316" lon="5.441857421972823"><ele>1001.3333333333333</ele><time>2026-05-02T15:37:36.998Z</time></trkpt><trkpt lat="45.14721758476358" lon="5.441812358281051"><ele>1005.6666666666667</ele><time>2026-05-02T15:37:37.998Z</time></trkpt><trkpt lat="45.14700714581077" lon="5.441783822721612"><ele>1010.0</ele><time>2026-05-02T15:37:38.998Z</time></trkpt><trkpt lat="45.14680390113613" lon="5.441709981029749"><ele>1010.0</ele><time>2026-05-02T15:37:39.998Z</time></trkpt><trkpt lat="45.1466442213428" lon="5.44156752739781"><ele>1010.0</ele><time>2026-05-02T15:37:40.998Z</time></trkpt><trkpt lat="45.14650069788656" lon="5.4414797853130885"><ele>1010.0</ele><time>2026-05-02T15:37:41.998Z</time></trkpt><trkpt lat="45.14635869061848" lon="5.441410421662991"><ele>1013.75</ele><time>2026-05-02T15:37:42.998Z</time></trkpt><trkpt lat="45.146200185826366" lon="5.441391254695212"><ele>1017.5</ele><time>2026-05-02T15:37:43.998Z</time></trkpt><trkpt lat="45.14605237733949" lon="5.441411139344999"><ele>1021.25</ele><time>2026-05-02T15:37:44.998Z</time></trkpt><trkpt lat="45.14593382200643" lon="5.441444899703663"><ele>1025.0</ele><time>2026-05-02T15:37:45.998Z</time></trkpt><trkpt lat="45.14581362459904" lon="5.441463665397178"><ele>1028.3333333333335</ele><time>2026-05-02T15:37:47Z</time></trkpt><trkpt lat="45.14567938218329" lon="5.441424812832555"><ele>1031.6666666666667</ele><time>2026-05-02T15:37:48Z</time></trkpt><trkpt lat="45.14550636865255" lon="5.44132566501091"><ele>1035.0</ele><time>2026-05-02T15:37:49Z</time></trkpt><trkpt lat="45.14534076821594" lon="5.4412280292398325"><ele>1028.3333333333333</ele><time>2026-05-02T15:37:50Z</time></trkpt><trkpt lat="45.14518476177125" lon="5.4411673113746755"><ele>1021.6666666666666</ele><time>2026-05-02T15:37:51Z</time></trkpt><trkpt lat="45.14502117525132" lon="5.44111195629692"><ele>1015.0</ele><time>2026-05-02T15:37:52Z</time></trkpt><trkpt lat="45.14484197240806" lon="5.441103774657591"><ele>1015.0</ele><time>2026-05-02T15:37:53Z</time></trkpt><trkpt lat="45.14467169434397" lon="5.441128141849372"><ele>1015.0</ele><time>2026-05-02T15:37:54Z</time></trkpt><trkpt lat="45.144504865751884" lon="5.441189314577071"><ele>1015.0</ele><time>2026-05-02T15:37:55Z</time></trkpt><trkpt lat="45.14434935572558" lon="5.441278819547458"><ele>1021.3333333333333</ele><time>2026-05-02T15:37:56Z</time></trkpt><trkpt lat="45.144216569166105" lon="5.441435037276824"><ele>1027.6666666666667</ele><time>2026-05-02T15:37:57Z</time></trkpt><trkpt lat="45.144078247350045" lon="5.441615564222346"><ele>1034.0</ele><time>2026-05-02T15:37:58Z</time></trkpt><trkpt lat="45.14393496676533" lon="5.441740814983249"><ele>1034.0</ele><time>2026-05-02T15:37:59Z</time></trkpt><trkpt lat="45.14377488650467" lon="5.441740292023567"><ele>1034.0</ele><time>2026-05-02T15:38:00Z</time></trkpt><trkpt lat="45.14358719881182" lon="5.441730660939967"><ele>1034.0</ele><time>2026-05-02T15:38:01Z</time></trkpt><trkpt lat="45.14339682292248" lon="5.441629410590038"><ele>1034.0</ele><time>2026-05-02T15:38:02Z</time></trkpt><trkpt lat="45.14322965169571" lon="5.441589270046663"><ele>1034.0</ele><time>2026-05-02T15:38:03Z</time></trkpt><trkpt lat="45.14310235169928" lon="5.441555416270149"><ele>1034.0</ele><time>2026-05-02T15:38:04Z</time></trkpt><trkpt lat="45.14299182765535" lon="5.44152314410761"><ele>1034.0</ele><time>2026-05-02T15:38:05Z</time></trkpt><trkpt lat="45.14288971147114" lon="5.441540505595029"><ele>1036.0</ele><time>2026-05-02T15:38:06Z</time></trkpt><trkpt lat="45.14279181893026" lon="5.44163803791315"><ele>1038.0</ele><time>2026-05-02T15:38:07Z</time></trkpt><trkpt lat="45.14266960186272" lon="5.441801819510073"><ele>1040.0</ele><time>2026-05-02T15:38:08Z</time></trkpt><trkpt lat="45.142510388796765" lon="5.441965669855609"><ele>1041.3333333333335</ele><time>2026-05-02T15:38:09Z</time></trkpt><trkpt lat="45.142334729735595" lon="5.442110384025374"><ele>1042.6666666666667</ele><time>2026-05-02T15:38:10Z</time></trkpt><trkpt lat="45.14218728362875" lon="5.442251602958378"><ele>1044.0</ele><time>2026-05-02T15:38:11Z</time></trkpt><trkpt lat="45.14204818483385" lon="5.442462850925084"><ele>1044.0</ele><time>2026-05-02T15:38:12Z</time></trkpt><trkpt lat="45.141904400572834" lon="5.442612758122968"><ele>1044.0</ele><time>2026-05-02T15:38:13Z</time></trkpt><trkpt lat="45.14178421418669" lon="5.442727369261735"><ele>1044.0</ele><time>2026-05-02T15:38:14Z</time></trkpt><trkpt lat="45.141691239040014" lon="5.442865555134833"><ele>1044.0</ele><time>2026-05-02T15:38:15Z</time></trkpt><trkpt lat="45.14161827159143" lon="5.443050915111879"><ele>1044.0</ele><time>2026-05-02T15:38:16Z</time></trkpt><trkpt lat="45.14154289934295" lon="5.443242251909046"><ele>1044.0</ele><time>2026-05-02T15:38:17Z</time></trkpt><trkpt lat="45.14150907218934" lon="5.443421705202451"><ele>1044.0</ele><time>2026-05-02T15:38:18Z</time></trkpt><trkpt lat="45.14151266348322" lon="5.4435992196825485"><ele>1044.0</ele><time>2026-05-02T15:38:19Z</time></trkpt><trkpt lat="45.14152085628346" lon="5.44379076226171"><ele>1044.0</ele><time>2026-05-02T15:38:20Z</time></trkpt><trkpt lat="45.14149926405377" lon="5.443943019468566"><ele>1044.0</ele><time>2026-05-02T15:38:21Z</time></trkpt><trkpt lat="45.14144465066123" lon="5.44404164353485"><ele>1044.0</ele><time>2026-05-02T15:38:22Z</time></trkpt><trkpt lat="45.141315369059825" lon="5.444053766393745"><ele>1047.4</ele><time>2026-05-02T15:38:23Z</time></trkpt><trkpt lat="45.141231974653536" lon="5.444135706429564"><ele>1050.8000000000002</ele><time>2026-05-02T15:38:24Z</time></trkpt><trkpt lat="45.14119006975756" lon="5.444207179487433"><ele>1054.1999999999998</ele><time>2026-05-02T15:38:25Z</time></trkpt><trkpt lat="45.141193852307474" lon="5.44433300997032"><ele>1057.6</ele><time>2026-05-02T15:38:26Z</time></trkpt><trkpt lat="45.14124146415919" lon="5.444504636417821"><ele>1061.0</ele><time>2026-05-02T15:38:27Z</time></trkpt><trkpt lat="45.14126239217538" lon="5.444718527222"><ele>1065.0</ele><time>2026-05-02T15:38:28Z</time></trkpt><trkpt lat="45.14127105631319" lon="5.444981160954716"><ele>1069.0</ele><time>2026-05-02T15:38:29Z</time></trkpt><trkpt lat="45.14126478279054" lon="5.44518520392016"><ele>1073.0</ele><time>2026-05-02T15:38:30Z</time></trkpt><trkpt lat="45.141245677737004" lon="5.445350763543481"><ele>1077.0</ele><time>2026-05-02T15:38:31Z</time></trkpt><trkpt lat="45.141202180445944" lon="5.445453444169046"><ele>1077.0</ele><time>2026-05-02T15:38:32Z</time></trkpt><trkpt lat="45.14110311298379" lon="5.445460470742502"><ele>1077.0</ele><time>2026-05-02T15:38:34Z</time></trkpt><trkpt lat="45.14097967026697" lon="5.445254956382788"><ele>1077.0</ele><time>2026-05-02T15:38:35Z</time></trkpt><trkpt lat="45.14085311516128" lon="5.445078756567088"><ele>1077.0</ele><time>2026-05-02T15:38:35.999Z</time></trkpt><trkpt lat="45.14072945887806" lon="5.4449180805556425"><ele>1077.0</ele><time>2026-05-02T15:38:36.999Z</time></trkpt><trkpt lat="45.14058223673792" lon="5.444818337933348"><ele>1077.0</ele><time>2026-05-02T15:38:37.999Z</time></trkpt><trkpt lat="45.14046259526612" lon="5.444720000244963"><ele>1078.0</ele><time>2026-05-02T15:38:38.999Z</time></trkpt><trkpt lat="45.14038464885077" lon="5.444623425700711"><ele>1079.0</ele><time>2026-05-02T15:38:39.999Z</time></trkpt><trkpt lat="45.140310534001834" lon="5.444562221991676"><ele>1080.0</ele><time>2026-05-02T15:38:40.999Z</time></trkpt><trkpt lat="45.140191292554" lon="5.444556574100176"><ele>1081.0</ele><time>2026-05-02T15:38:41.999Z</time></trkpt><trkpt lat="45.14007060920283" lon="5.444645695608384"><ele>1082.0</ele><time>2026-05-02T15:38:42.999Z</time></trkpt><trkpt lat="45.139957206814024" lon="5.444800230687342"><ele>1081.0</ele><time>2026-05-02T15:38:43.999Z</time></trkpt><trkpt lat="45.13986455050149" lon="5.444989488169443"><ele>1080.0</ele><time>2026-05-02T15:38:44.999Z</time></trkpt><trkpt lat="45.13978791974761" lon="5.445234113759735"><ele>1079.0</ele><time>2026-05-02T15:38:45.999Z</time></trkpt><trkpt lat="45.13969623415728" lon="5.445511928141388"><ele>1079.0</ele><time>2026-05-02T15:38:46.999Z</time></trkpt><trkpt lat="45.13957040127568" lon="5.445842458245648"><ele>1079.0</ele><time>2026-05-02T15:38:47.999Z</time></trkpt><trkpt lat="45.13946915523367" lon="5.44615490856453"><ele>1084.0</ele><time>2026-05-02T15:38:48.999Z</time></trkpt><trkpt lat="45.13938365564961" lon="5.446422718663403"><ele>1089.0</ele><time>2026-05-02T15:38:49.999Z</time></trkpt><trkpt lat="45.139308052377174" lon="5.4466619592268"><ele>1094.0</ele><time>2026-05-02T15:38:50.999Z</time></trkpt><trkpt lat="45.13921348695917" lon="5.446859977039897"><ele>1094.0</ele><time>2026-05-02T15:38:51.999Z</time></trkpt><trkpt lat="45.139095055747845" lon="5.4469981235845735"><ele>1094.0</ele><time>2026-05-02T15:38:52.999Z</time></trkpt><trkpt lat="45.13896002476216" lon="5.447050633098211"><ele>1094.0</ele><time>2026-05-02T15:38:53.999Z</time></trkpt><trkpt lat="45.13881800098366" lon="5.447006747528637"><ele>1094.0</ele><time>2026-05-02T15:38:54.999Z</time></trkpt><trkpt lat="45.13865652167449" lon="5.447015234365953"><ele>1094.3333333333335</ele><time>2026-05-02T15:38:55.999Z</time></trkpt><trkpt lat="45.13850009322051" lon="5.447052154141066"><ele>1094.6666666666667</ele><time>2026-05-02T15:38:56.999Z</time></trkpt><trkpt lat="45.13834382946001" lon="5.447187649295739"><ele>1095.0</ele><time>2026-05-02T15:38:57.999Z</time></trkpt><trkpt lat="45.13821209816912" lon="5.4472950900986765"><ele>1099.5</ele><time>2026-05-02T15:38:58.999Z</time></trkpt><trkpt lat="45.13809921425254" lon="5.447369556419913"><ele>1104.0</ele><time>2026-05-02T15:38:59.999Z</time></trkpt><trkpt lat="45.1379945344126" lon="5.447370352339064"><ele>1108.5</ele><time>2026-05-02T15:39:00.999Z</time></trkpt><trkpt lat="45.13789138896189" lon="5.447305171056287"><ele>1113.0</ele><time>2026-05-02T15:39:01.999Z</time></trkpt><trkpt lat="45.13781250902296" lon="5.447094203957812"><ele>1113.0</ele><time>2026-05-02T15:39:02.999Z</time></trkpt><trkpt lat="45.13765902919987" lon="5.446964298403751"><ele>1113.0</ele><time>2026-05-02T15:39:03.999Z</time></trkpt><trkpt lat="45.137502233557036" lon="5.44682165742437"><ele>1113.0</ele><time>2026-05-02T15:39:04.999Z</time></trkpt><trkpt lat="45.13734673632022" lon="5.446718781250512"><ele>1120.6666666666667</ele><time>2026-05-02T15:39:05.999Z</time></trkpt><trkpt lat="45.13715582166536" lon="5.446679512401751"><ele>1128.3333333333335</ele><time>2026-05-02T15:39:06.999Z</time></trkpt><trkpt lat="45.136922207978735" lon="5.446649677848486"><ele>1136.0</ele><time>2026-05-02T15:39:07.999Z</time></trkpt><trkpt lat="45.13667328271554" lon="5.4465895139365434"><ele>1144.5</ele><time>2026-05-02T15:39:08.999Z</time></trkpt><trkpt lat="45.136420680102134" lon="5.446470224963887"><ele>1153.0</ele><time>2026-05-02T15:39:09.999Z</time></trkpt><trkpt lat="45.13620856934948" lon="5.446341758059424"><ele>1146.6666666666665</ele><time>2026-05-02T15:39:10.999Z</time></trkpt><trkpt lat="45.13602045437604" lon="5.446222215039668"><ele>1140.3333333333333</ele><time>2026-05-02T15:39:11.999Z</time></trkpt><trkpt lat="45.13584301102255" lon="5.446126670987546"><ele>1134.0</ele><time>2026-05-02T15:39:12.999Z</time></trkpt><trkpt lat="45.1357235513897" lon="5.446068625360163"><ele>1138.8</ele><time>2026-05-02T15:39:13.999Z</time></trkpt><trkpt lat="45.135603003764295" lon="5.44599574794643"><ele>1143.6000000000001</ele><time>2026-05-02T15:39:14.999Z</time></trkpt><trkpt lat="45.135527977058295" lon="5.445879085901922"><ele>1148.4</ele><time>2026-05-02T15:39:15.999Z</time></trkpt><trkpt lat="45.13548470254153" lon="5.4457715266349345"><ele>1153.2</ele><time>2026-05-02T15:39:16.999Z</time></trkpt><trkpt lat="45.13543244103541" lon="5.445675710813961"><ele>1158.0</ele><time>2026-05-02T15:39:17.999Z</time></trkpt><trkpt lat="45.13513440653095" lon="5.445823947307044"><ele>1158.0</ele><time>2026-05-02T15:39:19.999Z</time></trkpt><trkpt lat="45.13502877631533" lon="5.445845465521468"><ele>1158.0</ele><time>2026-05-02T15:39:20.999Z</time></trkpt><trkpt lat="45.13494097888618" lon="5.445804593330639"><ele>1158.0</ele><time>2026-05-02T15:39:21.999Z</time></trkpt><trkpt lat="45.13488779673662" lon="5.445695220006857"><ele>1158.0</ele><time>2026-05-02T15:39:22.999Z</time></trkpt><trkpt lat="45.13488590008023" lon="5.445541267306713"><ele>1158.0</ele><time>2026-05-02T15:39:23.999Z</time></trkpt><trkpt lat="45.13488179920238" lon="5.445398041829447"><ele>1159.5</ele><time>2026-05-02T15:39:24.999Z</time></trkpt><trkpt lat="45.13482533273589" lon="5.445272549207586"><ele>1161.0</ele><time>2026-05-02T15:39:25.999Z</time></trkpt><trkpt lat="45.13470475348525" lon="5.445157496760909"><ele>1162.5</ele><time>2026-05-02T15:39:26.999Z</time></trkpt><trkpt lat="45.134571870373804" lon="5.445007532045487"><ele>1164.0</ele><time>2026-05-02T15:39:27.999Z</time></trkpt><trkpt lat="45.13443072796395" lon="5.444864074533574"><ele>1164.0</ele><time>2026-05-02T15:39:28.999Z</time></trkpt><trkpt lat="45.13430318644528" lon="5.444682414586355"><ele>1164.0</ele><time>2026-05-02T15:39:29.999Z</time></trkpt><trkpt lat="45.13420034548165" lon="5.44447806139722"><ele>1164.0</ele><time>2026-05-02T15:39:30.999Z</time></trkpt><trkpt lat="45.13407431416641" lon="5.4443074677927035"><ele>1169.5</ele><time>2026-05-02T15:39:31.999Z</time></trkpt><trkpt lat="45.133953229668144" lon="5.444206196457642"><ele>1175.0</ele><time>2026-05-02T15:39:32.999Z</time></trkpt><trkpt lat="45.133823313839805" lon="5.444145927032202"><ele>1180.5</ele><time>2026-05-02T15:39:33.999Z</time></trkpt><trkpt lat="45.13368881876025" lon="5.444031163327611"><ele>1186.0</ele><time>2026-05-02T15:39:34.999Z</time></trkpt><trkpt lat="45.13361688143272" lon="5.443846021903083"><ele>1183.75</ele><time>2026-05-02T15:39:35.999Z</time></trkpt><trkpt lat="45.13357068290668" lon="5.443644715772738"><ele>1181.5</ele><time>2026-05-02T15:39:36.998Z</time></trkpt><trkpt lat="45.133477784268706" lon="5.443489742722035"><ele>1179.25</ele><time>2026-05-02T15:39:37.998Z</time></trkpt><trkpt lat="45.13346193730458" lon="5.443316442234261"><ele>1177.0</ele><time>2026-05-02T15:39:38.998Z</time></trkpt><trkpt lat="45.13351474977596" lon="5.443126119703645"><ele>1180.3333333333333</ele><time>2026-05-02T15:39:39.998Z</time></trkpt><trkpt lat="45.133592927690636" lon="5.4429005783262365"><ele>1183.6666666666667</ele><time>2026-05-02T15:39:40.998Z</time></trkpt><trkpt lat="45.13369482822302" lon="5.442617431870444"><ele>1187.0</ele><time>2026-05-02T15:39:41.998Z</time></trkpt><trkpt lat="45.133791000226374" lon="5.442299473339076"><ele>1192.5</ele><time>2026-05-02T15:39:42.998Z</time></trkpt><trkpt lat="45.1338641948085" lon="5.441934105133315"><ele>1198.0</ele><time>2026-05-02T15:39:43.998Z</time></trkpt><trkpt lat="45.133943979131935" lon="5.441646914553221"><ele>1198.0</ele><time>2026-05-02T15:39:44.998Z</time></trkpt><trkpt lat="45.13403089992978" lon="5.441422615652198"><ele>1198.0</ele><time>2026-05-02T15:39:45.998Z</time></trkpt><trkpt lat="45.13410212245527" lon="5.441229276335905"><ele>1198.0</ele><time>2026-05-02T15:39:46.998Z</time></trkpt><trkpt lat="45.1341347621506" lon="5.4410509661702875"><ele>1193.3333333333333</ele><time>2026-05-02T15:39:47.998Z</time></trkpt><trkpt lat="45.13416423167037" lon="5.440866776444016"><ele>1188.6666666666667</ele><time>2026-05-02T15:39:48.998Z</time></trkpt><trkpt lat="45.134159313160374" lon="5.440609096746035"><ele>1184.0</ele><time>2026-05-02T15:39:49.998Z</time></trkpt><trkpt lat="45.13412210676038" lon="5.440322233040207"><ele>1184.0</ele><time>2026-05-02T15:39:50.998Z</time></trkpt><trkpt lat="45.134072931944864" lon="5.439942458171338"><ele>1184.0</ele><time>2026-05-02T15:39:51.998Z</time></trkpt><trkpt lat="45.134017658145105" lon="5.439643945582536"><ele>1195.3333333333335</ele><time>2026-05-02T15:39:53Z</time></trkpt><trkpt lat="45.13393163560865" lon="5.439419312600801"><ele>1206.6666666666667</ele><time>2026-05-02T15:39:54Z</time></trkpt><trkpt lat="45.13378656800245" lon="5.439216881524083"><ele>1218.0</ele><time>2026-05-02T15:39:55Z</time></trkpt><trkpt lat="45.133650067254045" lon="5.439001634849831"><ele>1213.0</ele><time>2026-05-02T15:39:56Z</time></trkpt><trkpt lat="45.133520599495874" lon="5.438752175042463"><ele>1208.0</ele><time>2026-05-02T15:39:57Z</time></trkpt><trkpt lat="45.13340993087842" lon="5.438518019375469"><ele>1203.0</ele><time>2026-05-02T15:39:58Z</time></trkpt><trkpt lat="45.13332270966838" lon="5.438290652159991"><ele>1203.0</ele><time>2026-05-02T15:39:59Z</time></trkpt><trkpt lat="45.13325459378673" lon="5.438051782913254"><ele>1203.0</ele><time>2026-05-02T15:40:00Z</time></trkpt><trkpt lat="45.13321011409939" lon="5.437787442133412"><ele>1203.0</ele><time>2026-05-02T15:40:01Z</time></trkpt><trkpt lat="45.13316646725109" lon="5.43746979376291"><ele>1235.5</ele><time>2026-05-02T15:40:02Z</time></trkpt><trkpt lat="45.13313644543599" lon="5.437128769571536"><ele>1268.0</ele><time>2026-05-02T15:40:03Z</time></trkpt><trkpt lat="45.13309123281198" lon="5.436814441452"><ele>1268.0</ele><time>2026-05-02T15:40:04Z</time></trkpt><trkpt lat="45.13301147289375" lon="5.436560683489602"><ele>1268.0</ele><time>2026-05-02T15:40:05Z</time></trkpt><trkpt lat="45.13295269694738" lon="5.436271957793806"><ele>1268.0</ele><time>2026-05-02T15:40:06Z</time></trkpt><trkpt lat="45.13291706860012" lon="5.435943243647962"><ele>1267.0</ele><time>2026-05-02T15:40:07Z</time></trkpt><trkpt lat="45.132898491187426" lon="5.435578923488759"><ele>1266.0</ele><time>2026-05-02T15:40:08Z</time></trkpt><trkpt lat="45.13292149222441" lon="5.435247681473647"><ele>1272.0</ele><time>2026-05-02T15:40:09Z</time></trkpt><trkpt lat="45.13297886658855" lon="5.434910941627942"><ele>1278.0</ele><time>2026-05-02T15:40:10Z</time></trkpt><trkpt lat="45.13304512747902" lon="5.434593179828077"><ele>1287.0</ele><time>2026-05-02T15:40:11Z</time></trkpt><trkpt lat="45.13314068099586" lon="5.434267767577573"><ele>1296.0</ele><time>2026-05-02T15:40:12Z</time></trkpt><trkpt lat="45.133251698850394" lon="5.433977498625746"><ele>1271.5</ele><time>2026-05-02T15:40:13Z</time></trkpt><trkpt lat="45.133341503078505" lon="5.433663585529814"><ele>1247.0</ele><time>2026-05-02T15:40:14Z</time></trkpt><trkpt lat="45.133417946892656" lon="5.4333546367192005"><ele>1247.0</ele><time>2026-05-02T15:40:15Z</time></trkpt><trkpt lat="45.133487559750435" lon="5.433054524015063"><ele>1247.0</ele><time>2026-05-02T15:40:16Z</time></trkpt><trkpt lat="45.13356257428624" lon="5.4327884911292825"><ele>1247.0</ele><time>2026-05-02T15:40:17Z</time></trkpt><trkpt lat="45.13366759548768" lon="5.432565897372929"><ele>1249.3333333333335</ele><time>2026-05-02T15:40:18Z</time></trkpt><trkpt lat="45.13376585043638" lon="5.4323612016058584"><ele>1251.6666666666667</ele><time>2026-05-02T15:40:19Z</time></trkpt><trkpt lat="45.133885178846114" lon="5.432187892455385"><ele>1254.0</ele><time>2026-05-02T15:40:20Z</time></trkpt><trkpt lat="45.134000038508866" lon="5.43205138250827"><ele>1251.0</ele><time>2026-05-02T15:40:21Z</time></trkpt><trkpt lat="45.134102331018795" lon="5.431943124966137"><ele>1248.0</ele><time>2026-05-02T15:40:22Z</time></trkpt><trkpt lat="45.1341702158592" lon="5.431895085746802"><ele>1245.0</ele><time>2026-05-02T15:40:23Z</time></trkpt><trkpt lat="45.13422045117865" lon="5.431826172209899"><ele>1242.0</ele><time>2026-05-02T15:40:24Z</time></trkpt><trkpt lat="45.134227183176044" lon="5.4317235897613045"><ele>1239.0</ele><time>2026-05-02T15:40:25Z</time></trkpt><trkpt lat="45.13414612026301" lon="5.431631771574738"><ele>1242.75</ele><time>2026-05-02T15:40:26Z</time></trkpt><trkpt lat="45.13403237511335" lon="5.431675964571428"><ele>1246.5</ele><time>2026-05-02T15:40:27Z</time></trkpt><trkpt lat="45.13390545334542" lon="5.431714372378969"><ele>1250.25</ele><time>2026-05-02T15:40:28Z</time></trkpt><trkpt lat="45.1337429358591" lon="5.431697320585284"><ele>1254.0</ele><time>2026-05-02T15:40:29Z</time></trkpt><trkpt lat="45.13354235438678" lon="5.4316919128580725"><ele>1254.0</ele><time>2026-05-02T15:40:30Z</time></trkpt><trkpt lat="45.13332489386793" lon="5.431698601191503"><ele>1254.0</ele><time>2026-05-02T15:40:31Z</time></trkpt><trkpt lat="45.13308276906863" lon="5.431736149641636"><ele>1254.3333333333333</ele><time>2026-05-02T15:40:32Z</time></trkpt><trkpt lat="45.13284989045026" lon="5.431751621661641"><ele>1254.6666666666665</ele><time>2026-05-02T15:40:33Z</time></trkpt><trkpt lat="45.1326505776498" lon="5.431771561287688"><ele>1255.0</ele><time>2026-05-02T15:40:34Z</time></trkpt><trkpt lat="45.132476350081156" lon="5.431834763377249"><ele>1254.3333333333333</ele><time>2026-05-02T15:40:35Z</time></trkpt><trkpt lat="45.13230677854083" lon="5.431950936401102"><ele>1253.6666666666667</ele><time>2026-05-02T15:40:36Z</time></trkpt><trkpt lat="45.13214224035615" lon="5.432141661371529"><ele>1253.0</ele><time>2026-05-02T15:40:37Z</time></trkpt><trkpt lat="45.131969787218694" lon="5.4323592001803505"><ele>1259.5</ele><time>2026-05-02T15:40:38Z</time></trkpt><trkpt lat="45.13179058758669" lon="5.432599539675896"><ele>1266.0</ele><time>2026-05-02T15:40:39Z</time></trkpt><trkpt lat="45.131631581310366" lon="5.432850674239657"><ele>1268.0</ele><time>2026-05-02T15:40:40Z</time></trkpt><trkpt lat="45.13148444198639" lon="5.43311217320308"><ele>1270.0</ele><time>2026-05-02T15:40:40.999Z</time></trkpt><trkpt lat="45.131349990549495" lon="5.433416697313499"><ele>1270.0</ele><time>2026-05-02T15:40:41.999Z</time></trkpt><trkpt lat="45.13123148357254" lon="5.4336925820273345"><ele>1270.0</ele><time>2026-05-02T15:40:42.999Z</time></trkpt><trkpt lat="45.13112747124996" lon="5.433930640888466"><ele>1270.0</ele><time>2026-05-02T15:40:43.999Z</time></trkpt><trkpt lat="45.13103580352651" lon="5.434137649482061"><ele>1274.0</ele><time>2026-05-02T15:40:44.999Z</time></trkpt><trkpt lat="45.13094378501565" lon="5.434308642997974"><ele>1278.0</ele><time>2026-05-02T15:40:45.999Z</time></trkpt><trkpt lat="45.13083485946428" lon="5.434444487102689"><ele>1282.0</ele><time>2026-05-02T15:40:46.999Z</time></trkpt><trkpt lat="45.130721148080546" lon="5.4345784733665985"><ele>1286.0</ele><time>2026-05-02T15:40:47.999Z</time></trkpt><trkpt lat="45.130650381440944" lon="5.434668797240705"><ele>1287.25</ele><time>2026-05-02T15:40:48.999Z</time></trkpt><trkpt lat="45.13060044907177" lon="5.434734016918893"><ele>1288.5</ele><time>2026-05-02T15:40:49.999Z</time></trkpt><trkpt lat="45.13055284806015" lon="5.43479619161127"><ele>1289.75</ele><time>2026-05-02T15:40:50.999Z</time></trkpt><trkpt lat="45.13055092303269" lon="5.435092171831469"><ele>1291.0</ele><time>2026-05-02T15:40:52.999Z</time></trkpt><trkpt lat="45.13056488840872" lon="5.435259758114243"><ele>1291.0</ele><time>2026-05-02T15:40:53.999Z</time></trkpt><trkpt lat="45.13057681543921" lon="5.435440041960926"><ele>1291.0</ele><time>2026-05-02T15:40:54.999Z</time></trkpt><trkpt lat="45.13058692933183" lon="5.435628920135557"><ele>1291.0</ele><time>2026-05-02T15:40:55.999Z</time></trkpt><trkpt lat="45.130597151849656" lon="5.435864060104391"><ele>1291.0</ele><time>2026-05-02T15:40:56.999Z</time></trkpt><trkpt lat="45.1306049749641" lon="5.436116455711182"><ele>1291.6666666666665</ele><time>2026-05-02T15:40:57.999Z</time></trkpt><trkpt lat="45.13062154778189" lon="5.4363503457452795"><ele>1292.3333333333333</ele><time>2026-05-02T15:40:58.999Z</time></trkpt><trkpt lat="45.13060933062743" lon="5.436592232588256"><ele>1293.0</ele><time>2026-05-02T15:40:59.999Z</time></trkpt><trkpt lat="45.130593748813084" lon="5.436820221317943"><ele>1293.0</ele><time>2026-05-02T15:41:00.999Z</time></trkpt><trkpt lat="45.13056107181754" lon="5.437010873920793"><ele>1293.0</ele><time>2026-05-02T15:41:01.999Z</time></trkpt><trkpt lat="45.130486410498946" lon="5.437160643211703"><ele>1293.0</ele><time>2026-05-02T15:41:02.999Z</time></trkpt><trkpt lat="45.13037353524033" lon="5.437244711950865"><ele>1293.0</ele><time>2026-05-02T15:41:03.999Z</time></trkpt><trkpt lat="45.13022748794293" lon="5.437285435335833"><ele>1297.3333333333333</ele><time>2026-05-02T15:41:04.999Z</time></trkpt><trkpt lat="45.13007024086393" lon="5.437277588274958"><ele>1301.6666666666665</ele><time>2026-05-02T15:41:05.999Z</time></trkpt><trkpt lat="45.12988643380027" lon="5.437253085759579"><ele>1306.0</ele><time>2026-05-02T15:41:06.999Z</time></trkpt><trkpt lat="45.12969856365411" lon="5.437232231597095"><ele>1305.3333333333333</ele><time>2026-05-02T15:41:07.999Z</time></trkpt><trkpt lat="45.129507598699604" lon="5.4372018771557835"><ele>1304.6666666666667</ele><time>2026-05-02T15:41:08.999Z</time></trkpt><trkpt lat="45.12932699893632" lon="5.437128231170904"><ele>1304.0</ele><time>2026-05-02T15:41:09.999Z</time></trkpt><trkpt lat="45.129160776049815" lon="5.437021860302771"><ele>1309.6666666666667</ele><time>2026-05-02T15:41:10.999Z</time></trkpt><trkpt lat="45.12900156898966" lon="5.43686638597971"><ele>1315.3333333333333</ele><time>2026-05-02T15:41:11.999Z</time></trkpt><trkpt lat="45.12881872082145" lon="5.436661520112487"><ele>1321.0</ele><time>2026-05-02T15:41:12.999Z</time></trkpt><trkpt lat="45.128642691451326" lon="5.436488846113535"><ele>1321.0</ele><time>2026-05-02T15:41:13.999Z</time></trkpt><trkpt lat="45.12849682697696" lon="5.436322025121964"><ele>1321.0</ele><time>2026-05-02T15:41:14.999Z</time></trkpt><trkpt lat="45.1283538988512" lon="5.436192627339808"><ele>1321.0</ele><time>2026-05-02T15:41:15.999Z</time></trkpt><trkpt lat="45.12821048299116" lon="5.43611032531211"><ele>1319.0</ele><time>2026-05-02T15:41:16.999Z</time></trkpt><trkpt lat="45.12806409778185" lon="5.43608714221593"><ele>1317.0</ele><time>2026-05-02T15:41:17.999Z</time></trkpt><trkpt lat="45.127960852208496" lon="5.436058851214047"><ele>1315.0</ele><time>2026-05-02T15:41:18.999Z</time></trkpt><trkpt lat="45.12781077349006" lon="5.436104421434869"><ele>1313.0</ele><time>2026-05-02T15:41:19.999Z</time></trkpt><trkpt lat="45.12764926696655" lon="5.436164662398846"><ele>1313.0</ele><time>2026-05-02T15:41:20.999Z</time></trkpt><trkpt lat="45.127494076862" lon="5.436210152770792"><ele>1313.0</ele><time>2026-05-02T15:41:21.999Z</time></trkpt><trkpt lat="45.127348336272156" lon="5.4362322896265365"><ele>1313.0</ele><time>2026-05-02T15:41:22.999Z</time></trkpt><trkpt lat="45.12725698564014" lon="5.436378977346201"><ele>1313.0</ele><time>2026-05-02T15:41:23.999Z</time></trkpt><trkpt lat="45.12715961381942" lon="5.436431263424011"><ele>1315.4</ele><time>2026-05-02T15:41:24.999Z</time></trkpt><trkpt lat="45.12706897953999" lon="5.436462433055745"><ele>1317.8000000000002</ele><time>2026-05-02T15:41:25.999Z</time></trkpt><trkpt lat="45.12697933706077" lon="5.436499224888057"><ele>1320.2</ele><time>2026-05-02T15:41:26.999Z</time></trkpt><trkpt lat="45.12689213731989" lon="5.436542064136907"><ele>1322.6</ele><time>2026-05-02T15:41:27.999Z</time></trkpt><trkpt lat="45.1268136821713" lon="5.436574597405861"><ele>1325.0</ele><time>2026-05-02T15:41:28.999Z</time></trkpt><trkpt lat="45.12670964552582" lon="5.4365870566815415"><ele>1325.0</ele><time>2026-05-02T15:41:29.999Z</time></trkpt><trkpt lat="45.126617265760636" lon="5.4366130653316"><ele>1325.0</ele><time>2026-05-02T15:41:30.999Z</time></trkpt><trkpt lat="45.126509776972334" lon="5.436644865902687"><ele>1325.0</ele><time>2026-05-02T15:41:31.999Z</time></trkpt><trkpt lat="45.12639667876384" lon="5.436687550002756"><ele>1325.0</ele><time>2026-05-02T15:41:32.999Z</time></trkpt><trkpt lat="45.126259375551555" lon="5.4367137697536565"><ele>1326.0</ele><time>2026-05-02T15:41:33.999Z</time></trkpt><trkpt lat="45.12611309880241" lon="5.436717055274712"><ele>1327.0</ele><time>2026-05-02T15:41:34.999Z</time></trkpt><trkpt lat="45.12599107794892" lon="5.4367193999502375"><ele>1328.0</ele><time>2026-05-02T15:41:35.999Z</time></trkpt><trkpt lat="45.12588686555756" lon="5.436736915822561"><ele>1329.0</ele><time>2026-05-02T15:41:36.999Z</time></trkpt><trkpt lat="45.12577642046475" lon="5.436743918405957"><ele>1328.25</ele><time>2026-05-02T15:41:37.999Z</time></trkpt><trkpt lat="45.12567589952251" lon="5.436719981169678"><ele>1327.5</ele><time>2026-05-02T15:41:38.999Z</time></trkpt><trkpt lat="45.12557189233489" lon="5.43667731185572"><ele>1326.75</ele><time>2026-05-02T15:41:39.998Z</time></trkpt><trkpt lat="45.12545487942904" lon="5.436673871292032"><ele>1326.0</ele><time>2026-05-02T15:41:40.998Z</time></trkpt><trkpt lat="45.12533077904965" lon="5.436700400935082"><ele>1326.0</ele><time>2026-05-02T15:41:41.998Z</time></trkpt><trkpt lat="45.12520549442755" lon="5.436771569996282"><ele>1326.0</ele><time>2026-05-02T15:41:42.998Z</time></trkpt><trkpt lat="45.1250948586539" lon="5.43685539004638"><ele>1326.0</ele><time>2026-05-02T15:41:43.998Z</time></trkpt><trkpt lat="45.124973970448856" lon="5.436910914860894"><ele>1326.0</ele><time>2026-05-02T15:41:44.998Z</time></trkpt><trkpt lat="45.12485397240758" lon="5.43694008511254"><ele>1327.75</ele><time>2026-05-02T15:41:45.998Z</time></trkpt><trkpt lat="45.12472180982026" lon="5.436946514195543"><ele>1329.5</ele><time>2026-05-02T15:41:46.998Z</time></trkpt><trkpt lat="45.12457038441338" lon="5.436937801397044"><ele>1331.25</ele><time>2026-05-02T15:41:47.998Z</time></trkpt><trkpt lat="45.12442828885406" lon="5.436849997114386"><ele>1333.0</ele><time>2026-05-02T15:41:48.998Z</time></trkpt><trkpt lat="45.12428962609034" lon="5.436820217538459"><ele>1333.0</ele><time>2026-05-02T15:41:49.998Z</time></trkpt><trkpt lat="45.12411891869607" lon="5.436889996806306"><ele>1333.0</ele><time>2026-05-02T15:41:50.998Z</time></trkpt><trkpt lat="45.12393192783151" lon="5.436989574029634"><ele>1333.0</ele><time>2026-05-02T15:41:51.998Z</time></trkpt><trkpt lat="45.123793984474766" lon="5.43710797783542"><ele>1333.75</ele><time>2026-05-02T15:41:52.998Z</time></trkpt><trkpt lat="45.123678675405685" lon="5.437202053836979"><ele>1334.5</ele><time>2026-05-02T15:41:53.998Z</time></trkpt><trkpt lat="45.12353672723572" lon="5.437220537564724"><ele>1335.25</ele><time>2026-05-02T15:41:54.998Z</time></trkpt><trkpt lat="45.12338942897145" lon="5.437155681967961"><ele>1336.0</ele><time>2026-05-02T15:41:55.998Z</time></trkpt><trkpt lat="45.12323602346145" lon="5.437072383227747"><ele>1333.3333333333333</ele><time>2026-05-02T15:41:56.998Z</time></trkpt><trkpt lat="45.12304293049685" lon="5.43706583860952"><ele>1330.6666666666667</ele><time>2026-05-02T15:41:57.998Z</time></trkpt><trkpt lat="45.122893887021654" lon="5.437138381819375"><ele>1328.0</ele><time>2026-05-02T15:41:59Z</time></trkpt><trkpt lat="45.12280687491918" lon="5.437215516765339"><ele>1333.0</ele><time>2026-05-02T15:42:00Z</time></trkpt><trkpt lat="45.12275799527227" lon="5.437304755955814"><ele>1338.0</ele><time>2026-05-02T15:42:01Z</time></trkpt><trkpt lat="45.122702994742575" lon="5.437443594011567"><ele>1343.0</ele><time>2026-05-02T15:42:02Z</time></trkpt><trkpt lat="45.122642904449144" lon="5.437612619937986"><ele>1348.0</ele><time>2026-05-02T15:42:03Z</time></trkpt><trkpt lat="45.12259227736595" lon="5.437787863660107"><ele>1354.0</ele><time>2026-05-02T15:42:04Z</time></trkpt><trkpt lat="45.122531923822834" lon="5.43797836371586"><ele>1360.0</ele><time>2026-05-02T15:42:05Z</time></trkpt><trkpt lat="45.1224747238004" lon="5.438180761659071"><ele>1366.0</ele><time>2026-05-02T15:42:06Z</time></trkpt><trkpt lat="45.12240362831392" lon="5.438370539966649"><ele>1364.75</ele><time>2026-05-02T15:42:07Z</time></trkpt><trkpt lat="45.12233789656965" lon="5.438560106926735"><ele>1363.5</ele><time>2026-05-02T15:42:08Z</time></trkpt><trkpt lat="45.12227428223786" lon="5.438747602177865"><ele>1362.25</ele><time>2026-05-02T15:42:09Z</time></trkpt><trkpt lat="45.12223225770004" lon="5.438935770415287"><ele>1361.0</ele><time>2026-05-02T15:42:10Z</time></trkpt><trkpt lat="45.12220344022707" lon="5.439134715679986"><ele>1361.0</ele><time>2026-05-02T15:42:11Z</time></trkpt><trkpt lat="45.12218478504579" lon="5.439334349480998"><ele>1361.0</ele><time>2026-05-02T15:42:12Z</time></trkpt><trkpt lat="45.12219535307139" lon="5.439555248779333"><ele>1361.0</ele><time>2026-05-02T15:42:13Z</time></trkpt><trkpt lat="45.122203022220205" lon="5.439770064873028"><ele>1364.0</ele><time>2026-05-02T15:42:14Z</time></trkpt><trkpt lat="45.12218867488968" lon="5.439975426336718"><ele>1367.0</ele><time>2026-05-02T15:42:15Z</time></trkpt><trkpt lat="45.122157873916706" lon="5.440190484978995"><ele>1370.0</ele><time>2026-05-02T15:42:16Z</time></trkpt><trkpt lat="45.12212127706123" lon="5.440397415663633"><ele>1374.3333333333335</ele><time>2026-05-02T15:42:17Z</time></trkpt><trkpt lat="45.12209506599516" lon="5.4406053259264855"><ele>1378.6666666666667</ele><time>2026-05-02T15:42:18Z</time></trkpt><trkpt lat="45.12207511327009" lon="5.440819998415037"><ele>1383.0</ele><time>2026-05-02T15:42:19Z</time></trkpt><trkpt lat="45.12206215511135" lon="5.441034748312058"><ele>1383.0</ele><time>2026-05-02T15:42:20Z</time></trkpt><trkpt lat="45.12204903714995" lon="5.441251610271056"><ele>1383.0</ele><time>2026-05-02T15:42:21Z</time></trkpt><trkpt lat="45.12202798971615" lon="5.441470120733663"><ele>1383.0</ele><time>2026-05-02T15:42:22Z</time></trkpt><trkpt lat="45.12200197118642" lon="5.441681822583291"><ele>1385.25</ele><time>2026-05-02T15:42:23Z</time></trkpt><trkpt lat="45.121965898100434" lon="5.441857494339451"><ele>1387.5</ele><time>2026-05-02T15:42:24Z</time></trkpt><trkpt lat="45.121918560059456" lon="5.441995168999619"><ele>1389.75</ele><time>2026-05-02T15:42:25Z</time></trkpt><trkpt lat="45.12183911824329" lon="5.442107447936498"><ele>1392.0</ele><time>2026-05-02T15:42:26Z</time></trkpt><trkpt lat="45.121733319807305" lon="5.442211847704993"><ele>1392.5</ele><time>2026-05-02T15:42:27Z</time></trkpt><trkpt lat="45.12162218257762" lon="5.442316174381114"><ele>1393.0</ele><time>2026-05-02T15:42:28Z</time></trkpt><trkpt lat="45.12149321491151" lon="5.4424458074978155"><ele>1393.5</ele><time>2026-05-02T15:42:29Z</time></trkpt><trkpt lat="45.12136503175097" lon="5.442560485420585"><ele>1394.0</ele><time>2026-05-02T15:42:30Z</time></trkpt><trkpt lat="45.121251744758666" lon="5.44267788229872"><ele>1394.0</ele><time>2026-05-02T15:42:31Z</time></trkpt><trkpt lat="45.121137346432334" lon="5.442820181878645"><ele>1394.0</ele><time>2026-05-02T15:42:32Z</time></trkpt><trkpt lat="45.121003045704875" lon="5.4429596354865275"><ele>1394.0</ele><time>2026-05-02T15:42:33Z</time></trkpt><trkpt lat="45.120866175573305" lon="5.443062304076457"><ele>1395.0</ele><time>2026-05-02T15:42:34Z</time></trkpt><trkpt lat="45.12072583298015" lon="5.443108531081088"><ele>1396.0</ele><time>2026-05-02T15:42:35Z</time></trkpt><trkpt lat="45.1205691234182" lon="5.443109365533884"><ele>1397.0</ele><time>2026-05-02T15:42:36Z</time></trkpt><trkpt lat="45.12039074849523" lon="5.443025335160494"><ele>1396.3333333333335</ele><time>2026-05-02T15:42:37Z</time></trkpt><trkpt lat="45.120204649147155" lon="5.442961661629442"><ele>1395.6666666666667</ele><time>2026-05-02T15:42:38Z</time></trkpt><trkpt lat="45.12003329622631" lon="5.4428868522665"><ele>1395.0</ele><time>2026-05-02T15:42:39Z</time></trkpt><trkpt lat="45.11984637429443" lon="5.442871646576377"><ele>1395.0</ele><time>2026-05-02T15:42:40Z</time></trkpt><trkpt lat="45.11966980234678" lon="5.4428493828335105"><ele>1395.0</ele><time>2026-05-02T15:42:41Z</time></trkpt><trkpt lat="45.11949380725998" lon="5.442839632274884"><ele>1395.0</ele><time>2026-05-02T15:42:42Z</time></trkpt><trkpt lat="45.119306735020615" lon="5.442803707142243"><ele>1395.0</ele><time>2026-05-02T15:42:43Z</time></trkpt><trkpt lat="45.119130023504226" lon="5.442816113284196"><ele>1395.0</ele><time>2026-05-02T15:42:44Z</time></trkpt><trkpt lat="45.11896778934269" lon="5.442801274606428"><ele>1395.0</ele><time>2026-05-02T15:42:44.999Z</time></trkpt><trkpt lat="45.118813320468455" lon="5.442810716516707"><ele>1394.0</ele><time>2026-05-02T15:42:45.999Z</time></trkpt><trkpt lat="45.11868485687477" lon="5.442781592673539"><ele>1393.0</ele><time>2026-05-02T15:42:46.999Z</time></trkpt><trkpt lat="45.11858517412406" lon="5.442736417492407"><ele>1392.0</ele><time>2026-05-02T15:42:47.999Z</time></trkpt><trkpt lat="45.118496218030636" lon="5.442747765899385"><ele>1391.0</ele><time>2026-05-02T15:42:48.999Z</time></trkpt><trkpt lat="45.11839801154585" lon="5.442815463928506"><ele>1390.0</ele><time>2026-05-02T15:42:49.999Z</time></trkpt><trkpt lat="45.118295307653874" lon="5.442877525319994"><ele>1392.0</ele><time>2026-05-02T15:42:50.999Z</time></trkpt><trkpt lat="45.11818089169838" lon="5.442974461579664"><ele>1394.0</ele><time>2026-05-02T15:42:51.999Z</time></trkpt><trkpt lat="45.1180775463122" lon="5.443115498205086"><ele>1396.0</ele><time>2026-05-02T15:42:52.999Z</time></trkpt><trkpt lat="45.11796964772473" lon="5.443272899953228"><ele>1398.0</ele><time>2026-05-02T15:42:53.999Z</time></trkpt><trkpt lat="45.11785369605177" lon="5.4434419917412935"><ele>1398.0</ele><time>2026-05-02T15:42:54.999Z</time></trkpt><trkpt lat="45.117754413439194" lon="5.443612929715506"><ele>1398.0</ele><time>2026-05-02T15:42:55.999Z</time></trkpt><trkpt lat="45.11764309315318" lon="5.443754514990702"><ele>1398.0</ele><time>2026-05-02T15:42:56.999Z</time></trkpt><trkpt lat="45.117549645684555" lon="5.443857900875414"><ele>1398.0</ele><time>2026-05-02T15:42:57.999Z</time></trkpt><trkpt lat="45.11744216728419" lon="5.443921647631794"><ele>1399.3333333333333</ele><time>2026-05-02T15:42:58.999Z</time></trkpt><trkpt lat="45.11730549145481" lon="5.443942923058362"><ele>1400.6666666666665</ele><time>2026-05-02T15:42:59.999Z</time></trkpt><trkpt lat="45.117161182454105" lon="5.443972206864732"><ele>1402.0</ele><time>2026-05-02T15:43:00.999Z</time></trkpt><trkpt lat="45.116982366417794" lon="5.4439950241396415"><ele>1402.0</ele><time>2026-05-02T15:43:01.999Z</time></trkpt><trkpt lat="45.11681637038304" lon="5.444032323626469"><ele>1402.0</ele><time>2026-05-02T15:43:02.999Z</time></trkpt><trkpt lat="45.11665606476391" lon="5.444076489293946"><ele>1402.0</ele><time>2026-05-02T15:43:03.999Z</time></trkpt><trkpt lat="45.11649379408197" lon="5.444097936072326"><ele>1404.0</ele><time>2026-05-02T15:43:04.999Z</time></trkpt><trkpt lat="45.11633336917541" lon="5.444119974057279"><ele>1406.0</ele><time>2026-05-02T15:43:05.999Z</time></trkpt><trkpt lat="45.116179151194025" lon="5.444126610262716"><ele>1408.0</ele><time>2026-05-02T15:43:06.999Z</time></trkpt><trkpt lat="45.11602255494293" lon="5.444100788488028"><ele>1408.0</ele><time>2026-05-02T15:43:07.999Z</time></trkpt><trkpt lat="45.11590070978466" lon="5.444011065932848"><ele>1408.0</ele><time>2026-05-02T15:43:08.999Z</time></trkpt><trkpt lat="45.11580314920254" lon="5.443933927393929"><ele>1408.0</ele><time>2026-05-02T15:43:09.999Z</time></trkpt><trkpt lat="45.11571795208156" lon="5.443963358355769"><ele>1408.0</ele><time>2026-05-02T15:43:10.999Z</time></trkpt><trkpt lat="45.11564169574935" lon="5.444115128329395"><ele>1408.0</ele><time>2026-05-02T15:43:12.999Z</time></trkpt><trkpt lat="45.11566966265799" lon="5.444227625823267"><ele>1408.0</ele><time>2026-05-02T15:43:13.999Z</time></trkpt><trkpt lat="45.115754432635995" lon="5.444324504339576"><ele>1408.0</ele><time>2026-05-02T15:43:14.999Z</time></trkpt><trkpt lat="45.1158558779416" lon="5.444461204234136"><ele>1408.0</ele><time>2026-05-02T15:43:15.999Z</time></trkpt><trkpt lat="45.11597130941368" lon="5.444583435100577"><ele>1413.0</ele><time>2026-05-02T15:43:16.999Z</time></trkpt><trkpt lat="45.116103828335554" lon="5.444688186026242"><ele>1418.0</ele><time>2026-05-02T15:43:17.999Z</time></trkpt><trkpt lat="45.116244795494325" lon="5.444762066018008"><ele>1423.0</ele><time>2026-05-02T15:43:18.999Z</time></trkpt><trkpt lat="45.11640727723188" lon="5.4448848380827375"><ele>1423.0</ele><time>2026-05-02T15:43:19.999Z</time></trkpt><trkpt lat="45.1165570832929" lon="5.445000636413364"><ele>1423.0</ele><time>2026-05-02T15:43:20.999Z</time></trkpt><trkpt lat="45.116689543363215" lon="5.445148384407177"><ele>1423.0</ele><time>2026-05-02T15:43:21.999Z</time></trkpt><trkpt lat="45.11682608868489" lon="5.445336908506908"><ele>1426.0</ele><time>2026-05-02T15:43:22.999Z</time></trkpt><trkpt lat="45.11696538312268" lon="5.44552069822554"><ele>1429.0</ele><time>2026-05-02T15:43:23.999Z</time></trkpt><trkpt lat="45.11708906505551" lon="5.4456760262267965"><ele>1432.0</ele><time>2026-05-02T15:43:24.999Z</time></trkpt><trkpt lat="45.117194615968145" lon="5.445801973618976"><ele>1432.0</ele><time>2026-05-02T15:43:25.999Z</time></trkpt><trkpt lat="45.117263730151265" lon="5.445934719750402"><ele>1432.0</ele><time>2026-05-02T15:43:26.999Z</time></trkpt><trkpt lat="45.117327787040665" lon="5.446065664321335"><ele>1432.0</ele><time>2026-05-02T15:43:27.999Z</time></trkpt><trkpt lat="45.11738294539594" lon="5.446247333480717"><ele>1432.0</ele><time>2026-05-02T15:43:28.999Z</time></trkpt><trkpt lat="45.117432376789544" lon="5.446456233119412"><ele>1432.0</ele><time>2026-05-02T15:43:29.999Z</time></trkpt><trkpt lat="45.1174680213801" lon="5.446639796742113"><ele>1432.0</ele><time>2026-05-02T15:43:30.999Z</time></trkpt><trkpt lat="45.11749370305575" lon="5.446820633117248"><ele>1432.0</ele><time>2026-05-02T15:43:31.999Z</time></trkpt><trkpt lat="45.11750851694066" lon="5.446949343942562"><ele>1432.0</ele><time>2026-05-02T15:43:32.999Z</time></trkpt><trkpt lat="45.11754570847242" lon="5.447088110711674"><ele>1434.0</ele><time>2026-05-02T15:43:33.999Z</time></trkpt><trkpt lat="45.11753912837319" lon="5.447280253273358"><ele>1436.0</ele><time>2026-05-02T15:43:34.999Z</time></trkpt><trkpt lat="45.11748718188846" lon="5.447518334395528"><ele>1438.0</ele><time>2026-05-02T15:43:35.999Z</time></trkpt><trkpt lat="45.11740650181924" lon="5.447750922399514"><ele>1437.75</ele><time>2026-05-02T15:43:36.999Z</time></trkpt><trkpt lat="45.117309072065126" lon="5.447940112815816"><ele>1437.5</ele><time>2026-05-02T15:43:37.999Z</time></trkpt><trkpt lat="45.117219919668" lon="5.448099759167108"><ele>1437.25</ele><time>2026-05-02T15:43:38.999Z</time></trkpt><trkpt lat="45.117121588675566" lon="5.448198092184924"><ele>1437.0</ele><time>2026-05-02T15:43:39.999Z</time></trkpt><trkpt lat="45.11707572300788" lon="5.448283316173259"><ele>1435.8</ele><time>2026-05-02T15:43:40.999Z</time></trkpt><trkpt lat="45.117071390658914" lon="5.448393973903742"><ele>1434.6</ele><time>2026-05-02T15:43:41.999Z</time></trkpt><trkpt lat="45.117119366857104" lon="5.448519588273763"><ele>1433.3999999999999</ele><time>2026-05-02T15:43:42.998Z</time></trkpt><trkpt lat="45.117196241108424" lon="5.448678822437918"><ele>1432.1999999999998</ele><time>2026-05-02T15:43:43.998Z</time></trkpt><trkpt lat="45.117219206238154" lon="5.448844416484495"><ele>1431.0</ele><time>2026-05-02T15:43:44.998Z</time></trkpt><trkpt lat="45.117196022017524" lon="5.449056167242162"><ele>1429.4</ele><time>2026-05-02T15:43:45.998Z</time></trkpt><trkpt lat="45.11716188645997" lon="5.4492361085715775"><ele>1427.8</ele><time>2026-05-02T15:43:46.998Z</time></trkpt><trkpt lat="45.11710218649671" lon="5.449358731820798"><ele>1426.2</ele><time>2026-05-02T15:43:47.998Z</time></trkpt><trkpt lat="45.11704384046019" lon="5.449437671989717"><ele>1424.6000000000001</ele><time>2026-05-02T15:43:48.998Z</time></trkpt><trkpt lat="45.117066965178786" lon="5.449560579513576"><ele>1423.0</ele><time>2026-05-02T15:43:49.998Z</time></trkpt><trkpt lat="45.11713982031098" lon="5.44970721695424"><ele>1423.5</ele><time>2026-05-02T15:43:50.998Z</time></trkpt><trkpt lat="45.117244804880436" lon="5.449884880348892"><ele>1424.0</ele><time>2026-05-02T15:43:51.998Z</time></trkpt><trkpt lat="45.11733712564081" lon="5.450024754877239"><ele>1424.5</ele><time>2026-05-02T15:43:52.998Z</time></trkpt><trkpt lat="45.117441953900645" lon="5.450133249545271"><ele>1425.0</ele><time>2026-05-02T15:43:53.998Z</time></trkpt><trkpt lat="45.117560052999494" lon="5.450248657602773"><ele>1425.0</ele><time>2026-05-02T15:43:54.998Z</time></trkpt><trkpt lat="45.1176906126734" lon="5.4503727235440165"><ele>1425.0</ele><time>2026-05-02T15:43:55.998Z</time></trkpt><trkpt lat="45.11782583868369" lon="5.450515206356416"><ele>1425.0</ele><time>2026-05-02T15:43:56.998Z</time></trkpt><trkpt lat="45.117982059668286" lon="5.450645803824838"><ele>1420.3333333333333</ele><time>2026-05-02T15:43:57.998Z</time></trkpt><trkpt lat="45.11814919736596" lon="5.450765896080861"><ele>1415.6666666666665</ele><time>2026-05-02T15:43:58.998Z</time></trkpt><trkpt lat="45.11832759820722" lon="5.450873129477709"><ele>1411.0</ele><time>2026-05-02T15:43:59.998Z</time></trkpt><trkpt lat="45.11850658203406" lon="5.4509651647891415"><ele>1411.0</ele><time>2026-05-02T15:44:00.998Z</time></trkpt><trkpt lat="45.118697686281244" lon="5.451070742701798"><ele>1411.0</ele><time>2026-05-02T15:44:01.998Z</time></trkpt><trkpt lat="45.118864461780625" lon="5.4511889517583585"><ele>1411.0</ele><time>2026-05-02T15:44:02.998Z</time></trkpt><trkpt lat="45.11898953373131" lon="5.451330694749098"><ele>1407.25</ele><time>2026-05-02T15:44:03.998Z</time></trkpt><trkpt lat="45.11908765038402" lon="5.451502803111129"><ele>1403.5</ele><time>2026-05-02T15:44:05Z</time></trkpt><trkpt lat="45.11914151251535" lon="5.451663696969454"><ele>1399.75</ele><time>2026-05-02T15:44:06Z</time></trkpt><trkpt lat="45.1191345722662" lon="5.451772683118382"><ele>1396.0</ele><time>2026-05-02T15:44:08Z</time></trkpt><trkpt lat="45.11903336661112" lon="5.451878744606837"><ele>1390.5</ele><time>2026-05-02T15:44:10Z</time></trkpt><trkpt lat="45.11896691466148" lon="5.45180952009028"><ele>1385.0</ele><time>2026-05-02T15:44:11Z</time></trkpt><trkpt lat="45.120340455724694" lon="5.4522416366304185"><ele>1383.0</ele><time>2026-05-02T15:44:12Z</time></trkpt><trkpt lat="45.120513865513914" lon="5.452311716443723"><ele>1381.0</ele><time>2026-05-02T15:44:13Z</time></trkpt><trkpt lat="45.12068767410593" lon="5.452372250127128"><ele>1379.0</ele><time>2026-05-02T15:44:14Z</time></trkpt><trkpt lat="45.120855916398455" lon="5.452417105462306"><ele>1379.0</ele><time>2026-05-02T15:44:15Z</time></trkpt><trkpt lat="45.12101981272148" lon="5.452451645490841"><ele>1379.0</ele><time>2026-05-02T15:44:16Z</time></trkpt><trkpt lat="45.12117359533661" lon="5.452486548288187"><ele>1379.0</ele><time>2026-05-02T15:44:17Z</time></trkpt><trkpt lat="45.12133244918913" lon="5.452529235197927"><ele>1379.0</ele><time>2026-05-02T15:44:18Z</time></trkpt><trkpt lat="45.12148363173402" lon="5.45258712000994"><ele>1379.0</ele><time>2026-05-02T15:44:19Z</time></trkpt><trkpt lat="45.12163583268281" lon="5.452652346568174"><ele>1379.0</ele><time>2026-05-02T15:44:20Z</time></trkpt><trkpt lat="45.12179524302269" lon="5.45272090637832"><ele>1379.6666666666667</ele><time>2026-05-02T15:44:21Z</time></trkpt><trkpt lat="45.121953252487046" lon="5.452792201468906"><ele>1380.3333333333333</ele><time>2026-05-02T15:44:22Z</time></trkpt><trkpt lat="45.12211291638988" lon="5.452860569616076"><ele>1381.0</ele><time>2026-05-02T15:44:23Z</time></trkpt><trkpt lat="45.12227301618708" lon="5.452929634810077"><ele>1372.3333333333333</ele><time>2026-05-02T15:44:24Z</time></trkpt><trkpt lat="45.12244058407975" lon="5.4529924298929755"><ele>1363.6666666666667</ele><time>2026-05-02T15:44:25Z</time></trkpt><trkpt lat="45.122607220405854" lon="5.453052445984254"><ele>1355.0</ele><time>2026-05-02T15:44:26Z</time></trkpt><trkpt lat="45.12277002129177" lon="5.4531429159639515"><ele>1355.0</ele><time>2026-05-02T15:44:27Z</time></trkpt><trkpt lat="45.12294014618198" lon="5.453222674159644"><ele>1355.0</ele><time>2026-05-02T15:44:28Z</time></trkpt><trkpt lat="45.1231125052298" lon="5.453307361766396"><ele>1355.0</ele><time>2026-05-02T15:44:29Z</time></trkpt><trkpt lat="45.123287244114394" lon="5.453372545494517"><ele>1359.0</ele><time>2026-05-02T15:44:30Z</time></trkpt><trkpt lat="45.123462607480235" lon="5.453441305497012"><ele>1363.0</ele><time>2026-05-02T15:44:31Z</time></trkpt><trkpt lat="45.12363385375404" lon="5.4535396640164135"><ele>1367.0</ele><time>2026-05-02T15:44:32Z</time></trkpt><trkpt lat="45.12380069767296" lon="5.453645364894062"><ele>1367.0</ele><time>2026-05-02T15:44:33Z</time></trkpt><trkpt lat="45.123972238250815" lon="5.453753706358453"><ele>1367.0</ele><time>2026-05-02T15:44:34Z</time></trkpt><trkpt lat="45.12415021353652" lon="5.453842632005828"><ele>1367.0</ele><time>2026-05-02T15:44:35Z</time></trkpt><trkpt lat="45.1243389381057" lon="5.453936624003008"><ele>1358.0</ele><time>2026-05-02T15:44:36Z</time></trkpt><trkpt lat="45.12452309319051" lon="5.4540185415207105"><ele>1349.0</ele><time>2026-05-02T15:44:37Z</time></trkpt><trkpt lat="45.12470946811444" lon="5.4540967987620395"><ele>1340.0</ele><time>2026-05-02T15:44:38Z</time></trkpt><trkpt lat="45.124895359994056" lon="5.45419044406179"><ele>1345.0</ele><time>2026-05-02T15:44:39Z</time></trkpt><trkpt lat="45.12508084652158" lon="5.4542813218719886"><ele>1350.0</ele><time>2026-05-02T15:44:40Z</time></trkpt><trkpt lat="45.12525471723042" lon="5.454364611605821"><ele>1355.0</ele><time>2026-05-02T15:44:41Z</time></trkpt><trkpt lat="45.125420739567296" lon="5.454442110187017"><ele>1355.0</ele><time>2026-05-02T15:44:42Z</time></trkpt><trkpt lat="45.12558698335222" lon="5.454493899400346"><ele>1355.0</ele><time>2026-05-02T15:44:43Z</time></trkpt><trkpt lat="45.125737770989815" lon="5.454586955529918"><ele>1355.0</ele><time>2026-05-02T15:44:44Z</time></trkpt><trkpt lat="45.12588494417806" lon="5.4546796565063635"><ele>1346.5</ele><time>2026-05-02T15:44:45Z</time></trkpt><trkpt lat="45.12602437722461" lon="5.454752749589063"><ele>1338.0</ele><time>2026-05-02T15:44:46Z</time></trkpt><trkpt lat="45.12616897776142" lon="5.454809548817615"><ele>1329.5</ele><time>2026-05-02T15:44:47Z</time></trkpt><trkpt lat="45.12630066777156" lon="5.454876905431218"><ele>1321.0</ele><time>2026-05-02T15:44:48Z</time></trkpt><trkpt lat="45.126440994993644" lon="5.454932697788752"><ele>1325.6666666666665</ele><time>2026-05-02T15:44:48.999Z</time></trkpt><trkpt lat="45.1265791763437" lon="5.455018189296806"><ele>1330.3333333333333</ele><time>2026-05-02T15:44:49.999Z</time></trkpt><trkpt lat="45.126722420132026" lon="5.455110282430274"><ele>1335.0</ele><time>2026-05-02T15:44:50.999Z</time></trkpt><trkpt lat="45.12686705749514" lon="5.455191822059872"><ele>1335.0</ele><time>2026-05-02T15:44:51.999Z</time></trkpt><trkpt lat="45.12700539498864" lon="5.45527905168658"><ele>1335.0</ele><time>2026-05-02T15:44:52.999Z</time></trkpt><trkpt lat="45.127124141086895" lon="5.45538922837057"><ele>1335.0</ele><time>2026-05-02T15:44:53.999Z</time></trkpt><trkpt lat="45.1272245924911" lon="5.4555245501158245"><ele>1335.0</ele><time>2026-05-02T15:44:54.999Z</time></trkpt><trkpt lat="45.127330608517674" lon="5.455657819408171"><ele>1331.0</ele><time>2026-05-02T15:44:55.999Z</time></trkpt><trkpt lat="45.12743870861227" lon="5.4557717628510005"><ele>1327.0</ele><time>2026-05-02T15:44:56.999Z</time></trkpt><trkpt lat="45.1275390301472" lon="5.455867959861083"><ele>1323.0</ele><time>2026-05-02T15:44:57.999Z</time></trkpt><trkpt lat="45.12764199590426" lon="5.455957257948084"><ele>1319.0</ele><time>2026-05-02T15:44:58.999Z</time></trkpt><trkpt lat="45.12774882171194" lon="5.456055841506448"><ele>1319.0</ele><time>2026-05-02T15:44:59.999Z</time></trkpt><trkpt lat="45.12786219292687" lon="5.456143382049984"><ele>1319.0</ele><time>2026-05-02T15:45:00.999Z</time></trkpt><trkpt lat="45.127976889790446" lon="5.456237953735931"><ele>1319.0</ele><time>2026-05-02T15:45:01.999Z</time></trkpt><trkpt lat="45.128091671053355" lon="5.456349763839743"><ele>1319.0</ele><time>2026-05-02T15:45:02.999Z</time></trkpt><trkpt lat="45.128202110700876" lon="5.456465865720525"><ele>1315.75</ele><time>2026-05-02T15:45:03.999Z</time></trkpt><trkpt lat="45.12833037374995" lon="5.456562095996564"><ele>1312.5</ele><time>2026-05-02T15:45:04.999Z</time></trkpt><trkpt lat="45.12846581904695" lon="5.456623823124069"><ele>1309.25</ele><time>2026-05-02T15:45:05.999Z</time></trkpt><trkpt lat="45.12861040201804" lon="5.45663729364645"><ele>1306.0</ele><time>2026-05-02T15:45:06.999Z</time></trkpt><trkpt lat="45.12874008281739" lon="5.456679350563545"><ele>1306.0</ele><time>2026-05-02T15:45:07.999Z</time></trkpt><trkpt lat="45.12887250929377" lon="5.45673773915978"><ele>1306.0</ele><time>2026-05-02T15:45:08.999Z</time></trkpt><trkpt lat="45.129000691162446" lon="5.456817155883716"><ele>1306.0</ele><time>2026-05-02T15:45:09.999Z</time></trkpt><trkpt lat="45.12914956871489" lon="5.456896196059153"><ele>1306.0</ele><time>2026-05-02T15:45:10.999Z</time></trkpt><trkpt lat="45.12929844630347" lon="5.456963434989349"><ele>1308.0</ele><time>2026-05-02T15:45:11.999Z</time></trkpt><trkpt lat="45.12945491096034" lon="5.457016045017938"><ele>1310.0</ele><time>2026-05-02T15:45:12.999Z</time></trkpt><trkpt lat="45.129605817666004" lon="5.45709188781514"><ele>1312.0</ele><time>2026-05-02T15:45:13.999Z</time></trkpt><trkpt lat="45.12977554742532" lon="5.457141526670758"><ele>1306.0</ele><time>2026-05-02T15:45:14.999Z</time></trkpt><trkpt lat="45.12993054475413" lon="5.4572363085340685"><ele>1300.0</ele><time>2026-05-02T15:45:15.999Z</time></trkpt><trkpt lat="45.130065945657016" lon="5.457358401833267"><ele>1294.0</ele><time>2026-05-02T15:45:16.999Z</time></trkpt><trkpt lat="45.13018539808412" lon="5.457478584136595"><ele>1294.0</ele><time>2026-05-02T15:45:17.999Z</time></trkpt><trkpt lat="45.130296144610966" lon="5.457608132704119"><ele>1294.0</ele><time>2026-05-02T15:45:18.999Z</time></trkpt><trkpt lat="45.13039834958472" lon="5.457747732816504"><ele>1294.0</ele><time>2026-05-02T15:45:19.999Z</time></trkpt><trkpt lat="45.13047830322368" lon="5.457890067461416"><ele>1294.0</ele><time>2026-05-02T15:45:20.999Z</time></trkpt><trkpt lat="45.13053447538053" lon="5.458048921686638"><ele>1289.25</ele><time>2026-05-02T15:45:21.999Z</time></trkpt><trkpt lat="45.130568931105465" lon="5.45821639739951"><ele>1284.5</ele><time>2026-05-02T15:45:22.999Z</time></trkpt><trkpt lat="45.130582889610025" lon="5.458427558939633"><ele>1279.75</ele><time>2026-05-02T15:45:23.999Z</time></trkpt><trkpt lat="45.13054887386178" lon="5.458604168438528"><ele>1275.0</ele><time>2026-05-02T15:45:24.999Z</time></trkpt><trkpt lat="45.1304865563485" lon="5.458784513665918"><ele>1273.5</ele><time>2026-05-02T15:45:25.999Z</time></trkpt><trkpt lat="45.13041408836807" lon="5.458976771498563"><ele>1272.0</ele><time>2026-05-02T15:45:26.999Z</time></trkpt><trkpt lat="45.13036859060304" lon="5.459188283372588"><ele>1270.5</ele><time>2026-05-02T15:45:27.999Z</time></trkpt><trkpt lat="45.13033428346914" lon="5.45936631282521"><ele>1269.0</ele><time>2026-05-02T15:45:28.999Z</time></trkpt><trkpt lat="45.13032114177219" lon="5.4595599461770625"><ele>1268.5</ele><time>2026-05-02T15:45:29.999Z</time></trkpt><trkpt lat="45.1303153033049" lon="5.459772670283221"><ele>1268.0</ele><time>2026-05-02T15:45:30.999Z</time></trkpt><trkpt lat="45.13030030938386" lon="5.459983125067583"><ele>1267.5</ele><time>2026-05-02T15:45:31.999Z</time></trkpt><trkpt lat="45.13027497591694" lon="5.460171758158427"><ele>1267.0</ele><time>2026-05-02T15:45:32.999Z</time></trkpt><trkpt lat="45.130283885337356" lon="5.460361842782843"><ele>1265.0</ele><time>2026-05-02T15:45:33.999Z</time></trkpt><trkpt lat="45.13033787916646" lon="5.460526290272986"><ele>1263.0</ele><time>2026-05-02T15:45:34.999Z</time></trkpt><trkpt lat="45.13040392621586" lon="5.460710273382172"><ele>1261.0</ele><time>2026-05-02T15:45:35.999Z</time></trkpt><trkpt lat="45.13047875284433" lon="5.460889604524003"><ele>1259.0</ele><time>2026-05-02T15:45:36.999Z</time></trkpt><trkpt lat="45.13057877997987" lon="5.461045378206696"><ele>1259.0</ele><time>2026-05-02T15:45:37.999Z</time></trkpt><trkpt lat="45.1306864234942" lon="5.461191071996985"><ele>1259.0</ele><time>2026-05-02T15:45:38.999Z</time></trkpt><trkpt lat="45.13081136237167" lon="5.461338090266191"><ele>1259.0</ele><time>2026-05-02T15:45:39.999Z</time></trkpt><trkpt lat="45.130952295971795" lon="5.461466836143815"><ele>1258.0</ele><time>2026-05-02T15:45:40.999Z</time></trkpt><trkpt lat="45.13109804973612" lon="5.461599571544466"><ele>1257.0</ele><time>2026-05-02T15:45:41.999Z</time></trkpt><trkpt lat="45.13123465399943" lon="5.461724341468188"><ele>1256.0</ele><time>2026-05-02T15:45:42.999Z</time></trkpt><trkpt lat="45.13137469206741" lon="5.4618661052817306"><ele>1256.0</ele><time>2026-05-02T15:45:43.999Z</time></trkpt><trkpt lat="45.131514080774316" lon="5.462010038611321"><ele>1256.0</ele><time>2026-05-02T15:45:44.998Z</time></trkpt><trkpt lat="45.13165289061397" lon="5.462159797459232"><ele>1256.0</ele><time>2026-05-02T15:45:45.998Z</time></trkpt><trkpt lat="45.131779187820456" lon="5.462311182777922"><ele>1254.3333333333335</ele><time>2026-05-02T15:45:46.998Z</time></trkpt><trkpt lat="45.13191857027085" lon="5.462441436210505"><ele>1252.6666666666667</ele><time>2026-05-02T15:45:47.998Z</time></trkpt><trkpt lat="45.13205101582432" lon="5.462597929863285"><ele>1251.0</ele><time>2026-05-02T15:45:48.998Z</time></trkpt><trkpt lat="45.13219268374602" lon="5.462746373259775"><ele>1251.0</ele><time>2026-05-02T15:45:49.998Z</time></trkpt><trkpt lat="45.132332533386794" lon="5.462905487074079"><ele>1251.0</ele><time>2026-05-02T15:45:50.998Z</time></trkpt><trkpt lat="45.13247144825951" lon="5.4630808632127215"><ele>1251.0</ele><time>2026-05-02T15:45:51.998Z</time></trkpt><trkpt lat="45.13261646021607" lon="5.463236269096168"><ele>1249.3333333333333</ele><time>2026-05-02T15:45:52.998Z</time></trkpt><trkpt lat="45.13275436887435" lon="5.463426389061172"><ele>1247.6666666666665</ele><time>2026-05-02T15:45:53.998Z</time></trkpt><trkpt lat="45.13290521602249" lon="5.463589981919966"><ele>1246.0</ele><time>2026-05-02T15:45:54.998Z</time></trkpt><trkpt lat="45.133071445549824" lon="5.463741375423646"><ele>1246.0</ele><time>2026-05-02T15:45:55.998Z</time></trkpt><trkpt lat="45.13323773990434" lon="5.46387749809243"><ele>1246.0</ele><time>2026-05-02T15:45:56.998Z</time></trkpt><trkpt lat="45.133405149479614" lon="5.464027251315314"><ele>1246.0</ele><time>2026-05-02T15:45:57.998Z</time></trkpt><trkpt lat="45.13358068143091" lon="5.464146606905288"><ele>1246.0</ele><time>2026-05-02T15:45:58.998Z</time></trkpt><trkpt lat="45.1337534122028" lon="5.464275128578158"><ele>1246.0</ele><time>2026-05-02T15:45:59.998Z</time></trkpt><trkpt lat="45.133943960956636" lon="5.464380143012564"><ele>1246.0</ele><time>2026-05-02T15:46:00.998Z</time></trkpt><trkpt lat="45.13413365629127" lon="5.464485184466577"><ele>1241.3333333333333</ele><time>2026-05-02T15:46:01.998Z</time></trkpt><trkpt lat="45.13432565130654" lon="5.464578554045015"><ele>1236.6666666666667</ele><time>2026-05-02T15:46:02.998Z</time></trkpt><trkpt lat="45.134513552586334" lon="5.464682525062891"><ele>1232.0</ele><time>2026-05-02T15:46:03.998Z</time></trkpt><trkpt lat="45.134689771533345" lon="5.464801451291512"><ele>1232.0</ele><time>2026-05-02T15:46:04.998Z</time></trkpt><trkpt lat="45.134868179796676" lon="5.464916712993501"><ele>1232.0</ele><time>2026-05-02T15:46:05.998Z</time></trkpt><trkpt lat="45.1350502427696" lon="5.465047070691172"><ele>1232.0</ele><time>2026-05-02T15:46:06.998Z</time></trkpt><trkpt lat="45.135219769573816" lon="5.465192025497848"><ele>1228.0</ele><time>2026-05-02T15:46:07.998Z</time></trkpt><trkpt lat="45.135391997128316" lon="5.4653199530110586"><ele>1224.0</ele><time>2026-05-02T15:46:08.998Z</time></trkpt><trkpt lat="45.13554631198628" lon="5.465437446011564"><ele>1220.0</ele><time>2026-05-02T15:46:09.998Z</time></trkpt><trkpt lat="45.1356708964329" lon="5.465594391719818"><ele>1224.6666666666667</ele><time>2026-05-02T15:46:11Z</time></trkpt><trkpt lat="45.13580129304267" lon="5.46572291201233"><ele>1229.3333333333333</ele><time>2026-05-02T15:46:12Z</time></trkpt><trkpt lat="45.135909154408736" lon="5.465880736973506"><ele>1234.0</ele><time>2026-05-02T15:46:13Z</time></trkpt><trkpt lat="45.136011205697635" lon="5.466036400536321"><ele>1234.0</ele><time>2026-05-02T15:46:14Z</time></trkpt><trkpt lat="45.136108908765756" lon="5.4661836108078425"><ele>1234.0</ele><time>2026-05-02T15:46:15Z</time></trkpt><trkpt lat="45.13620442327519" lon="5.46629505032485"><ele>1234.0</ele><time>2026-05-02T15:46:16Z</time></trkpt><trkpt lat="45.13628976308658" lon="5.466391829322956"><ele>1234.0</ele><time>2026-05-02T15:46:17Z</time></trkpt><trkpt lat="45.13636184204225" lon="5.466465931298547"><ele>1233.1666666666665</ele><time>2026-05-02T15:46:18Z</time></trkpt><trkpt lat="45.13642339408457" lon="5.466517069646469"><ele>1232.3333333333333</ele><time>2026-05-02T15:46:19Z</time></trkpt><trkpt lat="45.13647820285448" lon="5.466568032880662"><ele>1231.5</ele><time>2026-05-02T15:46:20Z</time></trkpt><trkpt lat="45.13654525552309" lon="5.466624197203682"><ele>1230.6666666666667</ele><time>2026-05-02T15:46:21Z</time></trkpt><trkpt lat="45.13660709329505" lon="5.466692992971463"><ele>1229.8333333333335</ele><time>2026-05-02T15:46:22Z</time></trkpt><trkpt lat="45.13667138340557" lon="5.466784039398688"><ele>1229.0</ele><time>2026-05-02T15:46:23Z</time></trkpt><trkpt lat="45.136736083917704" lon="5.466916245609334"><ele>1229.0</ele><time>2026-05-02T15:46:24Z</time></trkpt><trkpt lat="45.13679996621221" lon="5.467070812739624"><ele>1229.0</ele><time>2026-05-02T15:46:25Z</time></trkpt><trkpt lat="45.136846625683404" lon="5.467241936502737"><ele>1229.0</ele><time>2026-05-02T15:46:26Z</time></trkpt><trkpt lat="45.136884046649286" lon="5.467443983884858"><ele>1229.0</ele><time>2026-05-02T15:46:27Z</time></trkpt><trkpt lat="45.13693547316815" lon="5.467645003078444"><ele>1224.6666666666667</ele><time>2026-05-02T15:46:28Z</time></trkpt><trkpt lat="45.136977326454925" lon="5.467866773836568"><ele>1220.3333333333333</ele><time>2026-05-02T15:46:29Z</time></trkpt><trkpt lat="45.13702455588201" lon="5.468078696385083"><ele>1216.0</ele><time>2026-05-02T15:46:30Z</time></trkpt><trkpt lat="45.13706056992462" lon="5.468306897089921"><ele>1214.0</ele><time>2026-05-02T15:46:31Z</time></trkpt><trkpt lat="45.1370762582736" lon="5.468514809326551"><ele>1212.0</ele><time>2026-05-02T15:46:32Z</time></trkpt><trkpt lat="45.13710167108088" lon="5.468706021121326"><ele>1210.0</ele><time>2026-05-02T15:46:33Z</time></trkpt><trkpt lat="45.137124842977606" lon="5.468880370899108"><ele>1208.0</ele><time>2026-05-02T15:46:34Z</time></trkpt><trkpt lat="45.13713805254334" lon="5.469037656056045"><ele>1207.0</ele><time>2026-05-02T15:46:35Z</time></trkpt><trkpt lat="45.137149857797624" lon="5.469168208705575"><ele>1206.0</ele><time>2026-05-02T15:46:36Z</time></trkpt><trkpt lat="45.137168459493935" lon="5.469272103502159"><ele>1205.0</ele><time>2026-05-02T15:46:37Z</time></trkpt><trkpt lat="45.13720206594263" lon="5.469375703065031"><ele>1204.0</ele><time>2026-05-02T15:46:38Z</time></trkpt><trkpt lat="45.13727121647801" lon="5.4694658121225395"><ele>1203.0</ele><time>2026-05-02T15:46:39Z</time></trkpt><trkpt lat="45.1373603183663" lon="5.469514380022899"><ele>1202.0</ele><time>2026-05-02T15:46:40Z</time></trkpt><trkpt lat="45.13743166611548" lon="5.469620111372634"><ele>1202.0</ele><time>2026-05-02T15:46:41Z</time></trkpt><trkpt lat="45.137506249198175" lon="5.469691983699972"><ele>1202.0</ele><time>2026-05-02T15:46:42Z</time></trkpt><trkpt lat="45.13757509493277" lon="5.469766262206241"><ele>1202.0</ele><time>2026-05-02T15:46:43Z</time></trkpt><trkpt lat="45.1376284255473" lon="5.469865125967396"><ele>1202.0</ele><time>2026-05-02T15:46:44Z</time></trkpt><trkpt lat="45.137658180224044" lon="5.469994331835664"><ele>1202.0</ele><time>2026-05-02T15:46:45Z</time></trkpt><trkpt lat="45.13767654211679" lon="5.470121043449572"><ele>1202.0</ele><time>2026-05-02T15:46:46Z</time></trkpt><trkpt lat="45.137684500761885" lon="5.470239121003529"><ele>1202.0</ele><time>2026-05-02T15:46:47Z</time></trkpt><trkpt lat="45.137680633061755" lon="5.4703692383816644"><ele>1202.0</ele><time>2026-05-02T15:46:48Z</time></trkpt><trkpt lat="45.13760673234011" lon="5.47048321344398"><ele>1202.0</ele><time>2026-05-02T15:46:50Z</time></trkpt><trkpt lat="45.13746060494348" lon="5.470382315196615"><ele>1202.0</ele><time>2026-05-02T15:46:51Z</time></trkpt><trkpt lat="45.137374665962966" lon="5.470426648270439"><ele>1198.75</ele><time>2026-05-02T15:46:52Z</time></trkpt><trkpt lat="45.13723341613349" lon="5.470499917143244"><ele>1195.5</ele><time>2026-05-02T15:46:53Z</time></trkpt><trkpt lat="45.137111792684635" lon="5.470592057224108"><ele>1192.25</ele><time>2026-05-02T15:46:53.999Z</time></trkpt><trkpt lat="45.13699645021105" lon="5.470687534713262"><ele>1189.0</ele><time>2026-05-02T15:46:54.999Z</time></trkpt><trkpt lat="45.13689852461476" lon="5.470776811433008"><ele>1189.0</ele><time>2026-05-02T15:46:55.999Z</time></trkpt><trkpt lat="45.13681200029123" lon="5.470828312438646"><ele>1189.0</ele><time>2026-05-02T15:46:56.999Z</time></trkpt><trkpt lat="45.13672395935595" lon="5.470839663791875"><ele>1189.0</ele><time>2026-05-02T15:46:57.999Z</time></trkpt><trkpt lat="45.13661239552279" lon="5.4708056575607245"><ele>1189.0</ele><time>2026-05-02T15:46:58.999Z</time></trkpt><trkpt lat="45.13649357864383" lon="5.470744031728989"><ele>1189.0</ele><time>2026-05-02T15:46:59.999Z</time></trkpt><trkpt lat="45.13633671159051" lon="5.47064415547962"><ele>1187.25</ele><time>2026-05-02T15:47:00.999Z</time></trkpt><trkpt lat="45.13619490285987" lon="5.470587565841078"><ele>1185.5</ele><time>2026-05-02T15:47:01.999Z</time></trkpt><trkpt lat="45.136036201572466" lon="5.470524513316405"><ele>1183.75</ele><time>2026-05-02T15:47:02.999Z</time></trkpt><trkpt lat="45.135904505530455" lon="5.470509861154246"><ele>1182.0</ele><time>2026-05-02T15:47:03.999Z</time></trkpt><trkpt lat="45.13578179262653" lon="5.470499233703695"><ele>1177.75</ele><time>2026-05-02T15:47:04.999Z</time></trkpt><trkpt lat="45.13566960800411" lon="5.47052705135458"><ele>1173.5</ele><time>2026-05-02T15:47:05.999Z</time></trkpt><trkpt lat="45.13555501473997" lon="5.470599994697047"><ele>1169.25</ele><time>2026-05-02T15:47:06.999Z</time></trkpt><trkpt lat="45.135445693676715" lon="5.47068107167271"><ele>1165.0</ele><time>2026-05-02T15:47:07.999Z</time></trkpt><trkpt lat="45.13533739924138" lon="5.47078960682269"><ele>1165.0</ele><time>2026-05-02T15:47:08.999Z</time></trkpt><trkpt lat="45.13525287592558" lon="5.470914345674798"><ele>1165.0</ele><time>2026-05-02T15:47:09.999Z</time></trkpt><trkpt lat="45.13517742522724" lon="5.471019445743333"><ele>1165.0</ele><time>2026-05-02T15:47:10.999Z</time></trkpt><trkpt lat="45.135102131398284" lon="5.471145247513997"><ele>1165.0</ele><time>2026-05-02T15:47:11.999Z</time></trkpt><trkpt lat="45.13501136745251" lon="5.47124192514466"><ele>1167.25</ele><time>2026-05-02T15:47:12.999Z</time></trkpt><trkpt lat="45.13491293310015" lon="5.47134754328421"><ele>1169.5</ele><time>2026-05-02T15:47:13.999Z</time></trkpt><trkpt lat="45.13478922652907" lon="5.471414347070849"><ele>1171.75</ele><time>2026-05-02T15:47:14.999Z</time></trkpt><trkpt lat="45.13466164403542" lon="5.47146822770774"><ele>1174.0</ele><time>2026-05-02T15:47:15.999Z</time></trkpt><trkpt lat="45.134530896139765" lon="5.471483321426418"><ele>1169.8</ele><time>2026-05-02T15:47:16.999Z</time></trkpt><trkpt lat="45.134412391155834" lon="5.471517733408887"><ele>1165.6000000000001</ele><time>2026-05-02T15:47:17.999Z</time></trkpt><trkpt lat="45.134307168511256" lon="5.471577424910974"><ele>1161.4</ele><time>2026-05-02T15:47:18.999Z</time></trkpt><trkpt lat="45.13420988363577" lon="5.471613865602804"><ele>1157.2</ele><time>2026-05-02T15:47:19.999Z</time></trkpt><trkpt lat="45.13412652968546" lon="5.4716929710480375"><ele>1153.0</ele><time>2026-05-02T15:47:20.999Z</time></trkpt><trkpt lat="45.134066792245626" lon="5.47179775664431"><ele>1152.5</ele><time>2026-05-02T15:47:21.999Z</time></trkpt><trkpt lat="45.13403245843989" lon="5.47192467845404"><ele>1152.0</ele><time>2026-05-02T15:47:22.999Z</time></trkpt><trkpt lat="45.13402459841213" lon="5.472075771436046"><ele>1151.5</ele><time>2026-05-02T15:47:23.999Z</time></trkpt><trkpt lat="45.13402660452001" lon="5.472228431952291"><ele>1151.0</ele><time>2026-05-02T15:47:24.999Z</time></trkpt><trkpt lat="45.134115933075634" lon="5.472390715730168"><ele>1151.0</ele><time>2026-05-02T15:47:25.999Z</time></trkpt><trkpt lat="45.134223445251884" lon="5.47247228024364"><ele>1151.0</ele><time>2026-05-02T15:47:26.999Z</time></trkpt><trkpt lat="45.134312796922856" lon="5.4725863533012475"><ele>1151.0</ele><time>2026-05-02T15:47:27.999Z</time></trkpt><trkpt lat="45.13441011810932" lon="5.472687575459455"><ele>1151.0</ele><time>2026-05-02T15:47:28.999Z</time></trkpt><trkpt lat="45.134506436346676" lon="5.472785301495433"><ele>1151.0</ele><time>2026-05-02T15:47:29.999Z</time></trkpt><trkpt lat="45.13461676745498" lon="5.472867803395512"><ele>1151.0</ele><time>2026-05-02T15:47:30.999Z</time></trkpt><trkpt lat="45.13472232466333" lon="5.4729912049039955"><ele>1151.0</ele><time>2026-05-02T15:47:31.999Z</time></trkpt><trkpt lat="45.13485074886848" lon="5.47310181170326"><ele>1151.0</ele><time>2026-05-02T15:47:32.999Z</time></trkpt><trkpt lat="45.13496486439725" lon="5.473218384310802"><ele>1149.3333333333335</ele><time>2026-05-02T15:47:33.999Z</time></trkpt><trkpt lat="45.1350912240678" lon="5.473356962220391"><ele>1147.6666666666667</ele><time>2026-05-02T15:47:34.999Z</time></trkpt><trkpt lat="45.13521258168408" lon="5.473496018290191"><ele>1146.0</ele><time>2026-05-02T15:47:35.999Z</time></trkpt><trkpt lat="45.13533731862217" lon="5.473663902916627"><ele>1138.6666666666667</ele><time>2026-05-02T15:47:36.999Z</time></trkpt><trkpt lat="45.135454636510694" lon="5.473835754632404"><ele>1131.3333333333335</ele><time>2026-05-02T15:47:37.999Z</time></trkpt><trkpt lat="45.135548923233664" lon="5.474013556450695"><ele>1124.0</ele><time>2026-05-02T15:47:38.999Z</time></trkpt><trkpt lat="45.135653274819916" lon="5.474162075764468"><ele>1122.5</ele><time>2026-05-02T15:47:39.999Z</time></trkpt><trkpt lat="45.13576656467754" lon="5.474282554322975"><ele>1121.0</ele><time>2026-05-02T15:47:40.999Z</time></trkpt><trkpt lat="45.13589754606346" lon="5.474386213517335"><ele>1119.5</ele><time>2026-05-02T15:47:41.999Z</time></trkpt><trkpt lat="45.13603201960724" lon="5.474501954442742"><ele>1118.0</ele><time>2026-05-02T15:47:42.999Z</time></trkpt><trkpt lat="45.1361773298777" lon="5.474608388827368"><ele>1118.0</ele><time>2026-05-02T15:47:43.999Z</time></trkpt><trkpt lat="45.136324274328615" lon="5.474742303437998"><ele>1118.0</ele><time>2026-05-02T15:47:44.999Z</time></trkpt><trkpt lat="45.13647094750923" lon="5.4748672165832115"><ele>1118.0</ele><time>2026-05-02T15:47:45.999Z</time></trkpt><trkpt lat="45.13661823018636" lon="5.4749894632750316"><ele>1123.0</ele><time>2026-05-02T15:47:46.999Z</time></trkpt><trkpt lat="45.136767763011555" lon="5.475113802891044"><ele>1128.0</ele><time>2026-05-02T15:47:47.999Z</time></trkpt><trkpt lat="45.13692109921529" lon="5.4752414320461416"><ele>1133.0</ele><time>2026-05-02T15:47:48.999Z</time></trkpt><trkpt lat="45.13707903401176" lon="5.47536444915417"><ele>1129.3333333333335</ele><time>2026-05-02T15:47:49.999Z</time></trkpt><trkpt lat="45.13723089406555" lon="5.475490641469828"><ele>1125.6666666666667</ele><time>2026-05-02T15:47:50.998Z</time></trkpt><trkpt lat="45.13739163869986" lon="5.475604986123149"><ele>1122.0</ele><time>2026-05-02T15:47:51.998Z</time></trkpt><trkpt lat="45.13754986867086" lon="5.475706967677136"><ele>1122.0</ele><time>2026-05-02T15:47:52.998Z</time></trkpt><trkpt lat="45.13769219675387" lon="5.475822791969815"><ele>1122.0</ele><time>2026-05-02T15:47:53.998Z</time></trkpt><trkpt lat="45.13781464492604" lon="5.47595362087105"><ele>1122.0</ele><time>2026-05-02T15:47:54.998Z</time></trkpt><trkpt lat="45.13794760234151" lon="5.476042287348382"><ele>1122.0</ele><time>2026-05-02T15:47:55.998Z</time></trkpt><trkpt lat="45.13809789917207" lon="5.476145572658923"><ele>1122.0</ele><time>2026-05-02T15:47:56.998Z</time></trkpt><trkpt lat="45.13825329739913" lon="5.47625577434985"><ele>1122.0</ele><time>2026-05-02T15:47:57.998Z</time></trkpt><trkpt lat="45.13842027048866" lon="5.47634605549501"><ele>1115.0</ele><time>2026-05-02T15:47:58.998Z</time></trkpt><trkpt lat="45.138587272255414" lon="5.47643947172452"><ele>1108.0</ele><time>2026-05-02T15:47:59.998Z</time></trkpt><trkpt lat="45.138749878164056" lon="5.476550759112341"><ele>1101.0</ele><time>2026-05-02T15:48:00.998Z</time></trkpt><trkpt lat="45.138900402645554" lon="5.47668407737637"><ele>1105.3333333333333</ele><time>2026-05-02T15:48:01.998Z</time></trkpt><trkpt lat="45.13905253374394" lon="5.476767510180179"><ele>1109.6666666666665</ele><time>2026-05-02T15:48:02.998Z</time></trkpt><trkpt lat="45.13920762097463" lon="5.47685556072302"><ele>1114.0</ele><time>2026-05-02T15:48:03.998Z</time></trkpt><trkpt lat="45.139372718592774" lon="5.476953570290707"><ele>1114.0</ele><time>2026-05-02T15:48:04.998Z</time></trkpt><trkpt lat="45.13954208565813" lon="5.477033425106141"><ele>1114.0</ele><time>2026-05-02T15:48:05.998Z</time></trkpt><trkpt lat="45.13971790175111" lon="5.477115385737534"><ele>1114.0</ele><time>2026-05-02T15:48:06.998Z</time></trkpt><trkpt lat="45.139896229382636" lon="5.4771833302548725"><ele>1106.6666666666665</ele><time>2026-05-02T15:48:07.998Z</time></trkpt><trkpt lat="45.140076643621306" lon="5.477252570796792"><ele>1099.3333333333333</ele><time>2026-05-02T15:48:08.998Z</time></trkpt><trkpt lat="45.140253694248095" lon="5.477332523121408"><ele>1092.0</ele><time>2026-05-02T15:48:09.998Z</time></trkpt><trkpt lat="45.14043359836917" lon="5.477402374481778"><ele>1092.0</ele><time>2026-05-02T15:48:10.998Z</time></trkpt><trkpt lat="45.14062202530444" lon="5.477476239977955"><ele>1092.0</ele><time>2026-05-02T15:48:11.998Z</time></trkpt><trkpt lat="45.14080318019107" lon="5.477551236719616"><ele>1092.0</ele><time>2026-05-02T15:48:12.998Z</time></trkpt><trkpt lat="45.140968035220595" lon="5.4776863928881125"><ele>1094.3333333333333</ele><time>2026-05-02T15:48:13.998Z</time></trkpt><trkpt lat="45.14114399533619" lon="5.477795377631901"><ele>1096.6666666666665</ele><time>2026-05-02T15:48:14.998Z</time></trkpt><trkpt lat="45.141335054519104" lon="5.477862540633343"><ele>1099.0</ele><time>2026-05-02T15:48:15.998Z</time></trkpt><trkpt lat="45.14151307780699" lon="5.477968647403277"><ele>1092.0</ele><time>2026-05-02T15:48:17Z</time></trkpt><trkpt lat="45.14168550820334" lon="5.478047441651777"><ele>1085.0</ele><time>2026-05-02T15:48:18Z</time></trkpt><trkpt lat="45.14183184096186" lon="5.478114102417881"><ele>1078.0</ele><time>2026-05-02T15:48:19Z</time></trkpt><trkpt lat="45.141975644449225" lon="5.478198650889689"><ele>1078.0</ele><time>2026-05-02T15:48:20Z</time></trkpt><trkpt lat="45.14211846885936" lon="5.478265998175777"><ele>1078.0</ele><time>2026-05-02T15:48:21Z</time></trkpt><trkpt lat="45.14224273387179" lon="5.4783567643352615"><ele>1078.0</ele><time>2026-05-02T15:48:22Z</time></trkpt><trkpt lat="45.14234359405222" lon="5.478486716225437"><ele>1078.0</ele><time>2026-05-02T15:48:23Z</time></trkpt><trkpt lat="45.142445572525276" lon="5.478594949227475"><ele>1080.0</ele><time>2026-05-02T15:48:24Z</time></trkpt><trkpt lat="45.14254616671959" lon="5.4787226624907905"><ele>1082.0</ele><time>2026-05-02T15:48:25Z</time></trkpt><trkpt lat="45.14261476371312" lon="5.478848157998234"><ele>1084.0</ele><time>2026-05-02T15:48:26Z</time></trkpt><trkpt lat="45.142710397513326" lon="5.478937664585275"><ele>1086.0</ele><time>2026-05-02T15:48:27Z</time></trkpt><trkpt lat="45.14279774056553" lon="5.479058269417584"><ele>1082.0</ele><time>2026-05-02T15:48:28Z</time></trkpt><trkpt lat="45.14288686492626" lon="5.479171168943889"><ele>1078.0</ele><time>2026-05-02T15:48:29Z</time></trkpt><trkpt lat="45.14297170816387" lon="5.479261855341233"><ele>1074.0</ele><time>2026-05-02T15:48:30Z</time></trkpt><trkpt lat="45.14302246011195" lon="5.479318798041998"><ele>1070.0</ele><time>2026-05-02T15:48:31Z</time></trkpt><trkpt lat="45.14311477513319" lon="5.47940347709314"><ele>1066.0</ele><time>2026-05-02T15:48:33Z</time></trkpt><trkpt lat="45.14320246964641" lon="5.479454027474916"><ele>1067.3999999999999</ele><time>2026-05-02T15:48:34Z</time></trkpt><trkpt lat="45.14329998929643" lon="5.4795010220924505"><ele>1068.8</ele><time>2026-05-02T15:48:35Z</time></trkpt><trkpt lat="45.143406895788864" lon="5.479534453144356"><ele>1070.1999999999998</ele><time>2026-05-02T15:48:36Z</time></trkpt><trkpt lat="45.1435210556557" lon="5.479559167403848"><ele>1071.6</ele><time>2026-05-02T15:48:37Z</time></trkpt><trkpt lat="45.14362185924405" lon="5.4795738758409005"><ele>1073.0</ele><time>2026-05-02T15:48:38Z</time></trkpt><trkpt lat="45.1437041759438" lon="5.479583739472723"><ele>1072.4</ele><time>2026-05-02T15:48:39Z</time></trkpt><trkpt lat="45.14380463627725" lon="5.479629606048487"><ele>1071.8</ele><time>2026-05-02T15:48:41Z</time></trkpt><trkpt lat="45.14387349822679" lon="5.479764285282701"><ele>1071.2</ele><time>2026-05-02T15:48:43Z</time></trkpt><trkpt lat="45.14386798122446" lon="5.479887252482628"><ele>1070.6</ele><time>2026-05-02T15:55:44Z</time></trkpt><trkpt lat="45.143812581868346" lon="5.479785279202149"><ele>1070.0</ele><time>2026-05-02T15:56:01.999Z</time></trkpt><trkpt lat="45.14385417738841" lon="5.4798807059122625"><ele>1070.0</ele><time>2026-05-02T15:59:27Z</time></trkpt><trkpt lat="45.1439198085595" lon="5.479895086487371"><ele>1070.0</ele><time>2026-05-02T16:04:16.999Z</time></trkpt><trkpt lat="45.143981142638715" lon="5.4798246562465005"><ele>1070.0</ele><time>2026-05-02T16:04:18.999Z</time></trkpt><trkpt lat="45.144013589258876" lon="5.479713121259824"><ele>1070.0</ele><time>2026-05-02T16:04:19.999Z</time></trkpt><trkpt lat="45.14396104239686" lon="5.479763480701462"><ele>1070.0</ele><time>2026-05-02T16:04:20.999Z</time></trkpt><trkpt lat="45.14388736639234" lon="5.479720677950056"><ele>1070.0</ele><time>2026-05-02T16:04:40.999Z</time></trkpt><trkpt lat="45.14379530889038" lon="5.479651904537389"><ele>1070.0</ele><time>2026-05-02T16:04:42.999Z</time></trkpt><trkpt lat="45.143708940403265" lon="5.4796496579528435"><ele>1070.0</ele><time>2026-05-02T16:04:43.999Z</time></trkpt><trkpt lat="45.1436287468297" lon="5.47965428755824"><ele>1070.0</ele><time>2026-05-02T16:04:44.999Z</time></trkpt><trkpt lat="45.14354095301877" lon="5.479672894162172"><ele>1070.0</ele><time>2026-05-02T16:04:45.999Z</time></trkpt><trkpt lat="45.14344940181848" lon="5.479702700971016"><ele>1070.0</ele><time>2026-05-02T16:04:46.999Z</time></trkpt><trkpt lat="45.14334563074581" lon="5.4797323263214075"><ele>1070.0</ele><time>2026-05-02T16:04:47.999Z</time></trkpt><trkpt lat="45.14323085486749" lon="5.479762928172479"><ele>1070.0</ele><time>2026-05-02T16:04:48.999Z</time></trkpt><trkpt lat="45.143116871111125" lon="5.479774001765581"><ele>1070.0</ele><time>2026-05-02T16:04:49.999Z</time></trkpt><trkpt lat="45.14299779992282" lon="5.479773621442856"><ele>1070.0</ele><time>2026-05-02T16:04:50.999Z</time></trkpt><trkpt lat="45.14287463063397" lon="5.479740098344241"><ele>1069.0</ele><time>2026-05-02T16:04:51.999Z</time></trkpt><trkpt lat="45.14274241626445" lon="5.479671540659986"><ele>1068.0</ele><time>2026-05-02T16:04:52.999Z</time></trkpt><trkpt lat="45.14261821474248" lon="5.479571518956823"><ele>1067.0</ele><time>2026-05-02T16:04:53.999Z</time></trkpt><trkpt lat="45.14248963001221" lon="5.4794692192002294"><ele>1066.0</ele><time>2026-05-02T16:04:54.999Z</time></trkpt><trkpt lat="45.142349482820364" lon="5.479368284372744"><ele>1063.3333333333333</ele><time>2026-05-02T16:04:55.999Z</time></trkpt><trkpt lat="45.14219007432722" lon="5.4792623010175605"><ele>1060.6666666666667</ele><time>2026-05-02T16:04:56.999Z</time></trkpt><trkpt lat="45.14202570344277" lon="5.479186022042238"><ele>1058.0</ele><time>2026-05-02T16:04:57.999Z</time></trkpt><trkpt lat="45.14186596231668" lon="5.479116313999639"><ele>1058.0</ele><time>2026-05-02T16:04:58.999Z</time></trkpt><trkpt lat="45.14170679709525" lon="5.479041077993283"><ele>1058.0</ele><time>2026-05-02T16:04:59.999Z</time></trkpt><trkpt lat="45.14154219625042" lon="5.478957528838757"><ele>1058.0</ele><time>2026-05-02T16:05:00.999Z</time></trkpt><trkpt lat="45.141370994250344" lon="5.478873183635751"><ele>1056.3333333333335</ele><time>2026-05-02T16:05:01.999Z</time></trkpt><trkpt lat="45.14118983067409" lon="5.478812063958089"><ele>1054.6666666666667</ele><time>2026-05-02T16:05:02.999Z</time></trkpt><trkpt lat="45.14099147802486" lon="5.478789957377256"><ele>1053.0</ele><time>2026-05-02T16:05:03.999Z</time></trkpt><trkpt lat="45.14079890062668" lon="5.478789645408895"><ele>1052.0</ele><time>2026-05-02T16:05:04.999Z</time></trkpt><trkpt lat="45.14059932629923" lon="5.478773228352139"><ele>1051.0</ele><time>2026-05-02T16:05:05.999Z</time></trkpt><trkpt lat="45.14040844239578" lon="5.478740514818725"><ele>1050.0</ele><time>2026-05-02T16:05:06.999Z</time></trkpt><trkpt lat="45.14021213821865" lon="5.478707235381533"><ele>1051.6666666666667</ele><time>2026-05-02T16:05:07.998Z</time></trkpt><trkpt lat="45.140005966193165" lon="5.4787003461477495"><ele>1053.3333333333335</ele><time>2026-05-02T16:05:08.998Z</time></trkpt><trkpt lat="45.13980291679163" lon="5.478697028039986"><ele>1055.0</ele><time>2026-05-02T16:05:09.998Z</time></trkpt><trkpt lat="45.13959722966114" lon="5.4786754828556"><ele>1055.0</ele><time>2026-05-02T16:05:10.998Z</time></trkpt><trkpt lat="45.139394077752755" lon="5.47864554522711"><ele>1055.0</ele><time>2026-05-02T16:05:11.998Z</time></trkpt><trkpt lat="45.13919604264528" lon="5.478589786427707"><ele>1055.0</ele><time>2026-05-02T16:05:12.998Z</time></trkpt><trkpt lat="45.1389878597303" lon="5.4785379752558825"><ele>1050.6666666666667</ele><time>2026-05-02T16:05:13.998Z</time></trkpt><trkpt lat="45.13877526970006" lon="5.478486867119621"><ele>1046.3333333333333</ele><time>2026-05-02T16:05:14.998Z</time></trkpt><trkpt lat="45.13856560501531" lon="5.478448172294461"><ele>1042.0</ele><time>2026-05-02T16:05:15.998Z</time></trkpt><trkpt lat="45.138353638765956" lon="5.478412291760948"><ele>1040.0</ele><time>2026-05-02T16:05:16.998Z</time></trkpt><trkpt lat="45.13814336950543" lon="5.47837016789157"><ele>1038.0</ele><time>2026-05-02T16:05:17.998Z</time></trkpt><trkpt lat="45.13793002386694" lon="5.47830996271594"><ele>1036.0</ele><time>2026-05-02T16:05:18.998Z</time></trkpt><trkpt lat="45.13772200416361" lon="5.478234113779166"><ele>1036.0</ele><time>2026-05-02T16:05:19.998Z</time></trkpt><trkpt lat="45.13751294084635" lon="5.478149721133031"><ele>1036.0</ele><time>2026-05-02T16:05:20.998Z</time></trkpt><trkpt lat="45.137300903894015" lon="5.478055040368734"><ele>1036.0</ele><time>2026-05-02T16:05:21.998Z</time></trkpt><trkpt lat="45.13708893735046" lon="5.477977921194093"><ele>1035.6666666666665</ele><time>2026-05-02T16:05:22.998Z</time></trkpt><trkpt lat="45.13687765437862" lon="5.477895852542706"><ele>1035.3333333333333</ele><time>2026-05-02T16:05:23.998Z</time></trkpt><trkpt lat="45.1366660077752" lon="5.477817902282975"><ele>1035.0</ele><time>2026-05-02T16:05:24.998Z</time></trkpt><trkpt lat="45.13645464365529" lon="5.477741200924967"><ele>1035.0</ele><time>2026-05-02T16:05:25.998Z</time></trkpt><trkpt lat="45.13623844687252" lon="5.47766139287575"><ele>1035.0</ele><time>2026-05-02T16:05:26.998Z</time></trkpt><trkpt lat="45.136022994407895" lon="5.477588250532502"><ele>1035.0</ele><time>2026-05-02T16:05:27.998Z</time></trkpt><trkpt lat="45.135805023914976" lon="5.477520856049308"><ele>1032.6666666666667</ele><time>2026-05-02T16:05:28.998Z</time></trkpt><trkpt lat="45.13558915072607" lon="5.477459277853991"><ele>1030.3333333333335</ele><time>2026-05-02T16:05:29.998Z</time></trkpt><trkpt lat="45.13538050773087" lon="5.477400930371395"><ele>1028.0</ele><time>2026-05-02T16:05:30.998Z</time></trkpt><trkpt lat="45.13518819634939" lon="5.477350843909309"><ele>1028.0</ele><time>2026-05-02T16:05:31.998Z</time></trkpt><trkpt lat="45.13499996259982" lon="5.4772942858432625"><ele>1028.0</ele><time>2026-05-02T16:05:32.998Z</time></trkpt><trkpt lat="45.13482923891262" lon="5.477247009550744"><ele>1028.0</ele><time>2026-05-02T16:05:33.998Z</time></trkpt><trkpt lat="45.134648272140055" lon="5.477195825738058"><ele>1029.0</ele><time>2026-05-02T16:05:34.998Z</time></trkpt><trkpt lat="45.134464237327514" lon="5.477144105492256"><ele>1030.0</ele><time>2026-05-02T16:05:36Z</time></trkpt><trkpt lat="45.13427579419952" lon="5.477085273734943"><ele>1031.0</ele><time>2026-05-02T16:05:37Z</time></trkpt><trkpt lat="45.13409191614156" lon="5.477029279856088"><ele>1028.0</ele><time>2026-05-02T16:05:38Z</time></trkpt><trkpt lat="45.133914861105396" lon="5.476974290372798"><ele>1025.0</ele><time>2026-05-02T16:05:39Z</time></trkpt><trkpt lat="45.13373810449359" lon="5.476910846724368"><ele>1022.0</ele><time>2026-05-02T16:05:40Z</time></trkpt><trkpt lat="45.133567808605896" lon="5.4768510933714465"><ele>1022.0</ele><time>2026-05-02T16:05:41Z</time></trkpt><trkpt lat="45.133408015938855" lon="5.476799382324644"><ele>1022.0</ele><time>2026-05-02T16:05:42Z</time></trkpt><trkpt lat="45.133263609698304" lon="5.476739480080077"><ele>1022.0</ele><time>2026-05-02T16:05:43Z</time></trkpt><trkpt lat="45.13312511756875" lon="5.476643029377561"><ele>1020.6666666666667</ele><time>2026-05-02T16:05:44Z</time></trkpt><trkpt lat="45.1329933199666" lon="5.476513887377573"><ele>1019.3333333333333</ele><time>2026-05-02T16:05:45Z</time></trkpt><trkpt lat="45.1328339706737" lon="5.4764400459135505"><ele>1018.0</ele><time>2026-05-02T16:05:46Z</time></trkpt><trkpt lat="45.13264687601095" lon="5.476402241531337"><ele>1018.0</ele><time>2026-05-02T16:05:47Z</time></trkpt><trkpt lat="45.13244742457104" lon="5.476356446080165"><ele>1018.0</ele><time>2026-05-02T16:05:48Z</time></trkpt><trkpt lat="45.13224673066104" lon="5.476299771053894"><ele>1018.0</ele><time>2026-05-02T16:05:49Z</time></trkpt><trkpt lat="45.13205262369894" lon="5.47624287424963"><ele>1016.3333333333333</ele><time>2026-05-02T16:05:50Z</time></trkpt><trkpt lat="45.13186495428573" lon="5.476187662911598"><ele>1014.6666666666667</ele><time>2026-05-02T16:05:51Z</time></trkpt><trkpt lat="45.13168785470717" lon="5.4761328248941075"><ele>1013.0</ele><time>2026-05-02T16:05:52Z</time></trkpt><trkpt lat="45.13150882024998" lon="5.476066910897255"><ele>1013.0</ele><time>2026-05-02T16:05:53Z</time></trkpt><trkpt lat="45.13133369849085" lon="5.475984683994952"><ele>1013.0</ele><time>2026-05-02T16:05:54Z</time></trkpt><trkpt lat="45.13117288125049" lon="5.475871817221116"><ele>1013.0</ele><time>2026-05-02T16:05:55Z</time></trkpt><trkpt lat="45.13100624187941" lon="5.475753214860969"><ele>1013.0</ele><time>2026-05-02T16:05:56Z</time></trkpt><trkpt lat="45.13082045208578" lon="5.475682820291813"><ele>1013.0</ele><time>2026-05-02T16:05:57Z</time></trkpt><trkpt lat="45.13060504034529" lon="5.475630797786072"><ele>1013.0</ele><time>2026-05-02T16:05:58Z</time></trkpt><trkpt lat="45.13037515134492" lon="5.475583176327878"><ele>1009.6666666666667</ele><time>2026-05-02T16:05:59Z</time></trkpt><trkpt lat="45.13015705458774" lon="5.475532475143547"><ele>1006.3333333333333</ele><time>2026-05-02T16:06:00Z</time></trkpt><trkpt lat="45.1299578549209" lon="5.475488334419964"><ele>1003.0</ele><time>2026-05-02T16:06:01Z</time></trkpt><trkpt lat="45.129769339439626" lon="5.475470365283415"><ele>1001.6666666666666</ele><time>2026-05-02T16:06:02Z</time></trkpt><trkpt lat="45.12959484044476" lon="5.475509003825638"><ele>1000.3333333333333</ele><time>2026-05-02T16:06:03Z</time></trkpt><trkpt lat="45.1294432899948" lon="5.475596724051458"><ele>999.0</ele><time>2026-05-02T16:06:04Z</time></trkpt><trkpt lat="45.12929456985076" lon="5.475642930389553"><ele>999.0</ele><time>2026-05-02T16:06:05Z</time></trkpt><trkpt lat="45.1291471517701" lon="5.475590204796258"><ele>999.0</ele><time>2026-05-02T16:06:06Z</time></trkpt><trkpt lat="45.12898363689364" lon="5.475505192328903"><ele>999.0</ele><time>2026-05-02T16:06:07Z</time></trkpt><trkpt lat="45.12880408816617" lon="5.475480805173386"><ele>999.0</ele><time>2026-05-02T16:06:08Z</time></trkpt><trkpt lat="45.12861658555986" lon="5.475479877202269"><ele>999.0</ele><time>2026-05-02T16:06:09Z</time></trkpt><trkpt lat="45.12843003857345" lon="5.475451634083262"><ele>999.0</ele><time>2026-05-02T16:06:10Z</time></trkpt><trkpt lat="45.1282500450679" lon="5.47537405559929"><ele>996.0</ele><time>2026-05-02T16:06:11Z</time></trkpt><trkpt lat="45.12808866220099" lon="5.47528823314887"><ele>993.0</ele><time>2026-05-02T16:06:12Z</time></trkpt><trkpt lat="45.12793059254616" lon="5.475241471417265"><ele>990.0</ele><time>2026-05-02T16:06:13Z</time></trkpt><trkpt lat="45.12776827297471" lon="5.4752465689161"><ele>990.0</ele><time>2026-05-02T16:06:14Z</time></trkpt><trkpt lat="45.127604957749995" lon="5.475300012576349"><ele>990.0</ele><time>2026-05-02T16:06:15Z</time></trkpt><trkpt lat="45.12743771971388" lon="5.475357007295921"><ele>990.0</ele><time>2026-05-02T16:06:16Z</time></trkpt><trkpt lat="45.12728388484499" lon="5.475401895237163"><ele>988.5</ele><time>2026-05-02T16:06:16.999Z</time></trkpt><trkpt lat="45.12713981413406" lon="5.475428579236015"><ele>987.0</ele><time>2026-05-02T16:06:17.999Z</time></trkpt><trkpt lat="45.12701588839965" lon="5.475465118332202"><ele>985.5</ele><time>2026-05-02T16:06:18.999Z</time></trkpt><trkpt lat="45.126919063885296" lon="5.475570109929958"><ele>984.0</ele><time>2026-05-02T16:06:19.999Z</time></trkpt><trkpt lat="45.12686443270775" lon="5.475736140456788"><ele>984.0</ele><time>2026-05-02T16:06:20.999Z</time></trkpt><trkpt lat="45.126814280187936" lon="5.475916761945803"><ele>984.0</ele><time>2026-05-02T16:06:21.999Z</time></trkpt><trkpt lat="45.12671684923381" lon="5.476066885995176"><ele>984.0</ele><time>2026-05-02T16:06:22.999Z</time></trkpt><trkpt lat="45.126581569063795" lon="5.476116196458466"><ele>984.0</ele><time>2026-05-02T16:06:23.999Z</time></trkpt><trkpt lat="45.126448972385674" lon="5.476026342588044"><ele>982.3333333333333</ele><time>2026-05-02T16:06:24.999Z</time></trkpt><trkpt lat="45.12629927973657" lon="5.475938813186691"><ele>980.6666666666666</ele><time>2026-05-02T16:06:25.999Z</time></trkpt><trkpt lat="45.12612871947133" lon="5.475843881349467"><ele>979.0</ele><time>2026-05-02T16:06:26.999Z</time></trkpt><trkpt lat="45.12597773739419" lon="5.47578558107649"><ele>979.0</ele><time>2026-05-02T16:06:27.999Z</time></trkpt><trkpt lat="45.125854132444836" lon="5.475764293998512"><ele>979.0</ele><time>2026-05-02T16:06:28.999Z</time></trkpt><trkpt lat="45.125747245304716" lon="5.475819262713235"><ele>979.0</ele><time>2026-05-02T16:06:29.999Z</time></trkpt><trkpt lat="45.12567698215672" lon="5.4759424872130795"><ele>979.0</ele><time>2026-05-02T16:06:30.999Z</time></trkpt><trkpt lat="45.125649723926884" lon="5.476109762286409"><ele>980.0</ele><time>2026-05-02T16:06:31.999Z</time></trkpt><trkpt lat="45.12562347461067" lon="5.476271343526463"><ele>981.0</ele><time>2026-05-02T16:06:32.999Z</time></trkpt><trkpt lat="45.125556530056734" lon="5.476410644054475"><ele>982.0</ele><time>2026-05-02T16:06:33.999Z</time></trkpt><trkpt lat="45.12545165680246" lon="5.476473133300474"><ele>983.0</ele><time>2026-05-02T16:06:34.999Z</time></trkpt><trkpt lat="45.12533314322267" lon="5.476444951900434"><ele>983.0</ele><time>2026-05-02T16:06:35.999Z</time></trkpt><trkpt lat="45.12519233049158" lon="5.476323964021667"><ele>983.0</ele><time>2026-05-02T16:06:36.999Z</time></trkpt><trkpt lat="45.12506734114334" lon="5.476140120497561"><ele>983.0</ele><time>2026-05-02T16:06:37.999Z</time></trkpt><trkpt lat="45.124986037355214" lon="5.475896170694057"><ele>981.3333333333334</ele><time>2026-05-02T16:06:38.999Z</time></trkpt><trkpt lat="45.12493120985026" lon="5.475645804968439"><ele>979.6666666666667</ele><time>2026-05-02T16:06:39.999Z</time></trkpt><trkpt lat="45.124874298637316" lon="5.475440792656231"><ele>978.0</ele><time>2026-05-02T16:06:40.999Z</time></trkpt><trkpt lat="45.124819026220926" lon="5.47525976183209"><ele>975.75</ele><time>2026-05-02T16:06:41.999Z</time></trkpt><trkpt lat="45.12474622977029" lon="5.47509899523979"><ele>973.5</ele><time>2026-05-02T16:06:42.999Z</time></trkpt><trkpt lat="45.12466675526438" lon="5.474943425798085"><ele>971.25</ele><time>2026-05-02T16:06:43.999Z</time></trkpt><trkpt lat="45.124590316453585" lon="5.474777563006862"><ele>969.0</ele><time>2026-05-02T16:06:44.999Z</time></trkpt><trkpt lat="45.12450464280104" lon="5.47461962259576"><ele>967.6666666666667</ele><time>2026-05-02T16:06:45.999Z</time></trkpt><trkpt lat="45.1243884856978" lon="5.47448839034464"><ele>966.3333333333334</ele><time>2026-05-02T16:06:46.999Z</time></trkpt><trkpt lat="45.12424805796309" lon="5.474400203067702"><ele>965.0</ele><time>2026-05-02T16:06:47.999Z</time></trkpt><trkpt lat="45.12409336103944" lon="5.474369887382391"><ele>964.3333333333334</ele><time>2026-05-02T16:06:48.999Z</time></trkpt><trkpt lat="45.12393632116083" lon="5.4744029901750935"><ele>963.6666666666667</ele><time>2026-05-02T16:06:49.999Z</time></trkpt><trkpt lat="45.12378853902332" lon="5.474478884888199"><ele>963.0</ele><time>2026-05-02T16:06:50.999Z</time></trkpt><trkpt lat="45.123658783338044" lon="5.474605471875501"><ele>963.0</ele><time>2026-05-02T16:06:51.999Z</time></trkpt><trkpt lat="45.12355067454336" lon="5.474778210794359"><ele>963.0</ele><time>2026-05-02T16:06:52.999Z</time></trkpt><trkpt lat="45.12344707618699" lon="5.474944595788698"><ele>963.0</ele><time>2026-05-02T16:06:53.999Z</time></trkpt><trkpt lat="45.12330579371059" lon="5.475050497388641"><ele>962.3333333333333</ele><time>2026-05-02T16:06:54.999Z</time></trkpt><trkpt lat="45.12314519570713" lon="5.475079276838596"><ele>961.6666666666666</ele><time>2026-05-02T16:06:55.999Z</time></trkpt><trkpt lat="45.12299668529367" lon="5.475042752534867"><ele>961.0</ele><time>2026-05-02T16:06:56.999Z</time></trkpt><trkpt lat="45.12288704353382" lon="5.474921676628754"><ele>961.0</ele><time>2026-05-02T16:06:57.999Z</time></trkpt><trkpt lat="45.12286440582033" lon="5.4747433947118544"><ele>961.0</ele><time>2026-05-02T16:06:58.999Z</time></trkpt><trkpt lat="45.12281177429063" lon="5.4745551056236605"><ele>961.0</ele><time>2026-05-02T16:06:59.999Z</time></trkpt><trkpt lat="45.122773220333315" lon="5.474363721397249"><ele>961.0</ele><time>2026-05-02T16:07:00.999Z</time></trkpt><trkpt lat="45.122702712503" lon="5.474218375960679"><ele>959.75</ele><time>2026-05-02T16:07:01.999Z</time></trkpt><trkpt lat="45.122603851436594" lon="5.474112012204013"><ele>958.5</ele><time>2026-05-02T16:07:02.999Z</time></trkpt><trkpt lat="45.12246365943839" lon="5.474041901181856"><ele>957.25</ele><time>2026-05-02T16:07:03.999Z</time></trkpt><trkpt lat="45.12230822886616" lon="5.474022063648997"><ele>956.0</ele><time>2026-05-02T16:07:04.999Z</time></trkpt><trkpt lat="45.12214757341221" lon="5.474003189667302"><ele>953.5</ele><time>2026-05-02T16:07:05.999Z</time></trkpt><trkpt lat="45.12198366237933" lon="5.4739610584967755"><ele>951.0</ele><time>2026-05-02T16:07:06.999Z</time></trkpt><trkpt lat="45.12183795693897" lon="5.473932430562721"><ele>948.5</ele><time>2026-05-02T16:07:07.999Z</time></trkpt><trkpt lat="45.12171806383848" lon="5.473943483003754"><ele>946.0</ele><time>2026-05-02T16:07:08.999Z</time></trkpt><trkpt lat="45.12161870909643" lon="5.474001540079985"><ele>946.0</ele><time>2026-05-02T16:07:09.999Z</time></trkpt><trkpt lat="45.121570851098134" lon="5.474117872565671"><ele>946.0</ele><time>2026-05-02T16:07:10.999Z</time></trkpt><trkpt lat="45.12153878790113" lon="5.4742635102236825"><ele>946.0</ele><time>2026-05-02T16:07:11.998Z</time></trkpt><trkpt lat="45.12159443910354" lon="5.474456764138533"><ele>946.0</ele><time>2026-05-02T16:07:12.998Z</time></trkpt><trkpt lat="45.121674462331484" lon="5.4746746303099405"><ele>944.3333333333333</ele><time>2026-05-02T16:07:13.998Z</time></trkpt><trkpt lat="45.1217443463876" lon="5.474907138991849"><ele>942.6666666666667</ele><time>2026-05-02T16:07:14.998Z</time></trkpt><trkpt lat="45.12177443659612" lon="5.475167439554375"><ele>941.0</ele><time>2026-05-02T16:07:15.998Z</time></trkpt><trkpt lat="45.12175488320721" lon="5.475415161656474"><ele>941.3333333333334</ele><time>2026-05-02T16:07:16.998Z</time></trkpt><trkpt lat="45.12173480807428" lon="5.475655465517362"><ele>941.6666666666667</ele><time>2026-05-02T16:07:17.998Z</time></trkpt><trkpt lat="45.12173424934821" lon="5.47588730607586"><ele>942.0</ele><time>2026-05-02T16:07:18.998Z</time></trkpt><trkpt lat="45.12174967340061" lon="5.476096027401706"><ele>942.0</ele><time>2026-05-02T16:07:19.998Z</time></trkpt><trkpt lat="45.121769709047875" lon="5.476267397963128"><ele>942.0</ele><time>2026-05-02T16:07:20.998Z</time></trkpt><trkpt lat="45.12179305520792" lon="5.47638534292569"><ele>942.0</ele><time>2026-05-02T16:07:21.998Z</time></trkpt><trkpt lat="45.12177256629618" lon="5.476478484080529"><ele>942.0</ele><time>2026-05-02T16:07:22.998Z</time></trkpt><trkpt lat="45.1217097075589" lon="5.476540268780711"><ele>942.0</ele><time>2026-05-02T16:07:23.998Z</time></trkpt><trkpt lat="45.121631367129844" lon="5.476534973241204"><ele>942.0</ele><time>2026-05-02T16:07:24.998Z</time></trkpt><trkpt lat="45.121564961908845" lon="5.476441980317492"><ele>942.0</ele><time>2026-05-02T16:07:25.998Z</time></trkpt><trkpt lat="45.12155536651012" lon="5.476287678428433"><ele>942.0</ele><time>2026-05-02T16:07:26.998Z</time></trkpt><trkpt lat="45.12158843280286" lon="5.476090280899593"><ele>942.0</ele><time>2026-05-02T16:07:27.998Z</time></trkpt><trkpt lat="45.12155523296621" lon="5.4758695474002375"><ele>942.0</ele><time>2026-05-02T16:07:28.998Z</time></trkpt><trkpt lat="45.121512736474116" lon="5.475654654988012"><ele>936.0</ele><time>2026-05-02T16:07:29.998Z</time></trkpt><trkpt lat="45.121447942666826" lon="5.475446933051542"><ele>930.0</ele><time>2026-05-02T16:07:30.998Z</time></trkpt><trkpt lat="45.121362949198506" lon="5.475224919119257"><ele>924.0</ele><time>2026-05-02T16:07:31.998Z</time></trkpt><trkpt lat="45.12123264269194" lon="5.475024354288915"><ele>925.3333333333333</ele><time>2026-05-02T16:07:32.998Z</time></trkpt><trkpt lat="45.1210880309332" lon="5.474839544069154"><ele>926.6666666666666</ele><time>2026-05-02T16:07:33.998Z</time></trkpt><trkpt lat="45.12094735332101" lon="5.474665138818674"><ele>928.0</ele><time>2026-05-02T16:07:34.998Z</time></trkpt><trkpt lat="45.12081564967251" lon="5.474509210332365"><ele>921.6666666666666</ele><time>2026-05-02T16:07:35.998Z</time></trkpt><trkpt lat="45.12068498641214" lon="5.474358201081327"><ele>915.3333333333333</ele><time>2026-05-02T16:07:36.998Z</time></trkpt><trkpt lat="45.12052972378483" lon="5.474192468669103"><ele>909.0</ele><time>2026-05-02T16:07:37.998Z</time></trkpt><trkpt lat="45.12038131893504" lon="5.47405224480016"><ele>909.0</ele><time>2026-05-02T16:07:38.998Z</time></trkpt><trkpt lat="45.12022539996117" lon="5.473954971147927"><ele>909.0</ele><time>2026-05-02T16:07:39.998Z</time></trkpt><trkpt lat="45.12007787614544" lon="5.473854060720847"><ele>909.0</ele><time>2026-05-02T16:07:40.998Z</time></trkpt><trkpt lat="45.11994878207824" lon="5.473715820110718"><ele>913.6666666666667</ele><time>2026-05-02T16:07:42Z</time></trkpt><trkpt lat="45.119830367569705" lon="5.473589578302993"><ele>918.3333333333334</ele><time>2026-05-02T16:07:43Z</time></trkpt><trkpt lat="45.11968471891974" lon="5.47350868482936"><ele>923.0</ele><time>2026-05-02T16:07:44Z</time></trkpt><trkpt lat="45.11949860716417" lon="5.473498360522994"><ele>923.0</ele><time>2026-05-02T16:07:45Z</time></trkpt><trkpt lat="45.1192839578455" lon="5.47353732502393"><ele>923.0</ele><time>2026-05-02T16:07:46Z</time></trkpt><trkpt lat="45.11904168072377" lon="5.473558290604544"><ele>921.0</ele><time>2026-05-02T16:07:47Z</time></trkpt><trkpt lat="45.118785073159664" lon="5.473548682436023"><ele>919.0</ele><time>2026-05-02T16:07:48Z</time></trkpt><trkpt lat="45.118521879605154" lon="5.473506820894162"><ele>919.0</ele><time>2026-05-02T16:07:49Z</time></trkpt><trkpt lat="45.118257519640395" lon="5.473467448756189"><ele>919.0</ele><time>2026-05-02T16:07:50Z</time></trkpt><trkpt lat="45.11798748059923" lon="5.473445358199914"><ele>914.5</ele><time>2026-05-02T16:07:51Z</time></trkpt><trkpt lat="45.117712976446846" lon="5.473433957430642"><ele>910.0</ele><time>2026-05-02T16:07:52Z</time></trkpt><trkpt lat="45.11745642521456" lon="5.473435340985437"><ele>903.0</ele><time>2026-05-02T16:07:53Z</time></trkpt><trkpt lat="45.11721702703702" lon="5.473426491670805"><ele>896.0</ele><time>2026-05-02T16:07:54Z</time></trkpt><trkpt lat="45.11699185799242" lon="5.473397326526183"><ele>896.0</ele><time>2026-05-02T16:07:55Z</time></trkpt><trkpt lat="45.11677512098786" lon="5.473360162386389"><ele>896.0</ele><time>2026-05-02T16:07:56Z</time></trkpt><trkpt lat="45.11655335123954" lon="5.473336651392451"><ele>896.0</ele><time>2026-05-02T16:07:57Z</time></trkpt><trkpt lat="45.116330380667705" lon="5.473312534770004"><ele>892.0</ele><time>2026-05-02T16:07:58Z</time></trkpt><trkpt lat="45.1161026843072" lon="5.473293800956192"><ele>888.0</ele><time>2026-05-02T16:07:59Z</time></trkpt><trkpt lat="45.11586767393657" lon="5.473267479013361"><ele>883.0</ele><time>2026-05-02T16:08:00Z</time></trkpt><trkpt lat="45.11563446338745" lon="5.4732553254032625"><ele>878.0</ele><time>2026-05-02T16:08:01Z</time></trkpt><trkpt lat="45.11539269200655" lon="5.473240510059195"><ele>878.0</ele><time>2026-05-02T16:08:02Z</time></trkpt><trkpt lat="45.11516859858069" lon="5.473230351229861"><ele>878.0</ele><time>2026-05-02T16:08:03Z</time></trkpt><trkpt lat="45.114987032037845" lon="5.473215047074415"><ele>878.0</ele><time>2026-05-02T16:08:04Z</time></trkpt><trkpt lat="45.114822892862556" lon="5.4731454188386435"><ele>877.6666666666667</ele><time>2026-05-02T16:08:05Z</time></trkpt><trkpt lat="45.114671978009376" lon="5.47303416522549"><ele>877.3333333333333</ele><time>2026-05-02T16:08:06Z</time></trkpt><trkpt lat="45.1145276297293" lon="5.472901692110344"><ele>877.0</ele><time>2026-05-02T16:08:07Z</time></trkpt><trkpt lat="45.114408238638426" lon="5.4727450741647905"><ele>877.0</ele><time>2026-05-02T16:08:08Z</time></trkpt><trkpt lat="45.11430821807752" lon="5.472560761190452"><ele>877.0</ele><time>2026-05-02T16:08:09Z</time></trkpt><trkpt lat="45.114228484601334" lon="5.472373741340303"><ele>877.0</ele><time>2026-05-02T16:08:10Z</time></trkpt><trkpt lat="45.11412667724879" lon="5.472217140484422"><ele>877.0</ele><time>2026-05-02T16:08:11Z</time></trkpt><trkpt lat="45.11404243922671" lon="5.472093363976866"><ele>877.0</ele><time>2026-05-02T16:08:12Z</time></trkpt><trkpt lat="45.113883617041196" lon="5.472056806279242"><ele>877.0</ele><time>2026-05-02T16:08:13Z</time></trkpt><trkpt lat="45.11370682699637" lon="5.472001736147262"><ele>877.0</ele><time>2026-05-02T16:08:14Z</time></trkpt><trkpt lat="45.11353493172856" lon="5.4719303511186785"><ele>877.0</ele><time>2026-05-02T16:08:15Z</time></trkpt><trkpt lat="45.11337154550655" lon="5.471942934285183"><ele>877.0</ele><time>2026-05-02T16:08:16Z</time></trkpt><trkpt lat="45.113206037244765" lon="5.472000651094533"><ele>873.6666666666666</ele><time>2026-05-02T16:08:17Z</time></trkpt><trkpt lat="45.1130155409333" lon="5.4719503492859864"><ele>870.3333333333333</ele><time>2026-05-02T16:08:18Z</time></trkpt><trkpt lat="45.112822853435325" lon="5.471878235932477"><ele>867.0</ele><time>2026-05-02T16:08:19Z</time></trkpt><trkpt lat="45.11265112277179" lon="5.471826587680693"><ele>867.0</ele><time>2026-05-02T16:08:20Z</time></trkpt><trkpt lat="45.112498820378754" lon="5.4717663235358005"><ele>867.0</ele><time>2026-05-02T16:08:21Z</time></trkpt><trkpt lat="45.11234510107755" lon="5.471715192613887"><ele>867.0</ele><time>2026-05-02T16:08:22Z</time></trkpt><trkpt lat="45.1121992949125" lon="5.47166297203361"><ele>864.0</ele><time>2026-05-02T16:08:23Z</time></trkpt><trkpt lat="45.11207740266896" lon="5.471608131654306"><ele>861.0</ele><time>2026-05-02T16:08:24Z</time></trkpt><trkpt lat="45.11197863824257" lon="5.4715519542307725"><ele>858.0</ele><time>2026-05-02T16:08:24.999Z</time></trkpt><trkpt lat="45.11189771547969" lon="5.471538862264736"><ele>855.0</ele><time>2026-05-02T16:08:25.999Z</time></trkpt><trkpt lat="45.1118035303679" lon="5.471692478387005"><ele>855.0</ele><time>2026-05-02T16:08:27.999Z</time></trkpt><trkpt lat="45.11178865418469" lon="5.471856850660333"><ele>855.0</ele><time>2026-05-02T16:08:28.999Z</time></trkpt><trkpt lat="45.11176235601229" lon="5.472049623855437"><ele>855.0</ele><time>2026-05-02T16:08:29.999Z</time></trkpt><trkpt lat="45.11171727723468" lon="5.472255298342829"><ele>855.0</ele><time>2026-05-02T16:08:30.999Z</time></trkpt><trkpt lat="45.11167913496204" lon="5.472462460053766"><ele>854.0</ele><time>2026-05-02T16:08:31.999Z</time></trkpt><trkpt lat="45.11165125080081" lon="5.472639956956732"><ele>853.0</ele><time>2026-05-02T16:08:32.999Z</time></trkpt><trkpt lat="45.11165754144354" lon="5.47280710016512"><ele>852.0</ele><time>2026-05-02T16:08:33.999Z</time></trkpt><trkpt lat="45.111702434761526" lon="5.472974153951662"><ele>851.0</ele><time>2026-05-02T16:08:34.999Z</time></trkpt><trkpt lat="45.111748902896714" lon="5.473126866119047"><ele>850.75</ele><time>2026-05-02T16:08:35.999Z</time></trkpt><trkpt lat="45.11174628824547" lon="5.473282696235558"><ele>850.5</ele><time>2026-05-02T16:08:36.999Z</time></trkpt><trkpt lat="45.11168549472887" lon="5.473438179815095"><ele>850.25</ele><time>2026-05-02T16:08:37.999Z</time></trkpt><trkpt lat="45.111572668267854" lon="5.4735536937935265"><ele>850.0</ele><time>2026-05-02T16:08:38.999Z</time></trkpt><trkpt lat="45.11144158639054" lon="5.473626215363265"><ele>849.0</ele><time>2026-05-02T16:08:39.999Z</time></trkpt><trkpt lat="45.11132410288142" lon="5.473728687924395"><ele>848.0</ele><time>2026-05-02T16:08:40.999Z</time></trkpt><trkpt lat="45.111250944263716" lon="5.473887496039796"><ele>847.0</ele><time>2026-05-02T16:08:41.999Z</time></trkpt><trkpt lat="45.11123423400868" lon="5.474077006383432"><ele>846.0</ele><time>2026-05-02T16:08:42.999Z</time></trkpt><trkpt lat="45.111276957957195" lon="5.4742449801815365"><ele>846.0</ele><time>2026-05-02T16:08:43.999Z</time></trkpt><trkpt lat="45.111317598448004" lon="5.474395344516031"><ele>846.0</ele><time>2026-05-02T16:08:44.999Z</time></trkpt><trkpt lat="45.1113017657832" lon="5.4745273377461565"><ele>846.0</ele><time>2026-05-02T16:08:45.999Z</time></trkpt><trkpt lat="45.111222471636644" lon="5.474621081301972"><ele>846.0</ele><time>2026-05-02T16:08:46.999Z</time></trkpt><trkpt lat="45.11111081342246" lon="5.474670925266889"><ele>846.0</ele><time>2026-05-02T16:08:47.999Z</time></trkpt><trkpt lat="45.11096406464071" lon="5.474628374342996"><ele>846.0</ele><time>2026-05-02T16:08:48.999Z</time></trkpt><trkpt lat="45.11082881940608" lon="5.474501497517105"><ele>846.0</ele><time>2026-05-02T16:08:49.999Z</time></trkpt><trkpt lat="45.1107047486086" lon="5.474365647437215"><ele>846.0</ele><time>2026-05-02T16:08:50.999Z</time></trkpt><trkpt lat="45.11059738322329" lon="5.474247240069311"><ele>845.75</ele><time>2026-05-02T16:08:51.999Z</time></trkpt><trkpt lat="45.11050227752298" lon="5.474121879434967"><ele>845.5</ele><time>2026-05-02T16:08:52.999Z</time></trkpt><trkpt lat="45.11044221089926" lon="5.473961126817012"><ele>845.25</ele><time>2026-05-02T16:08:53.999Z</time></trkpt><trkpt lat="45.110404619387566" lon="5.473768221459134"><ele>845.0</ele><time>2026-05-02T16:08:54.999Z</time></trkpt><trkpt lat="45.11038804807628" lon="5.473571694706655"><ele>841.75</ele><time>2026-05-02T16:08:55.999Z</time></trkpt><trkpt lat="45.11034953880349" lon="5.473424715121812"><ele>838.5</ele><time>2026-05-02T16:08:56.999Z</time></trkpt><trkpt lat="45.11025033729462" lon="5.473364686866234"><ele>835.25</ele><time>2026-05-02T16:08:57.999Z</time></trkpt><trkpt lat="45.11012144121559" lon="5.4733383960531174"><ele>832.0</ele><time>2026-05-02T16:08:58.999Z</time></trkpt><trkpt lat="45.109980094445454" lon="5.4733914355328555"><ele>831.75</ele><time>2026-05-02T16:08:59.999Z</time></trkpt><trkpt lat="45.109840073038455" lon="5.473483815016207"><ele>831.5</ele><time>2026-05-02T16:09:00.999Z</time></trkpt><trkpt lat="45.10971172127861" lon="5.473489500942777"><ele>831.25</ele><time>2026-05-02T16:09:01.999Z</time></trkpt><trkpt lat="45.10959013936189" lon="5.473393558171775"><ele>831.0</ele><time>2026-05-02T16:09:02.999Z</time></trkpt><trkpt lat="45.10948274092777" lon="5.473208074524338"><ele>831.0</ele><time>2026-05-02T16:09:03.999Z</time></trkpt><trkpt lat="45.1093585836087" lon="5.473039926564069"><ele>831.0</ele><time>2026-05-02T16:09:04.999Z</time></trkpt><trkpt lat="45.1091811787437" lon="5.472925807602375"><ele>831.0</ele><time>2026-05-02T16:09:05.999Z</time></trkpt><trkpt lat="45.10897362759946" lon="5.47286000121888"><ele>826.3333333333333</ele><time>2026-05-02T16:09:06.999Z</time></trkpt><trkpt lat="45.10879710992209" lon="5.472820849348463"><ele>821.6666666666666</ele><time>2026-05-02T16:09:07.999Z</time></trkpt><trkpt lat="45.10863711899913" lon="5.472772097996461"><ele>817.0</ele><time>2026-05-02T16:09:08.999Z</time></trkpt><trkpt lat="45.108476300869036" lon="5.4727395990488015"><ele>817.0</ele><time>2026-05-02T16:09:09.999Z</time></trkpt><trkpt lat="45.108309294853164" lon="5.47276339860275"><ele>817.0</ele><time>2026-05-02T16:09:10.999Z</time></trkpt><trkpt lat="45.10814035552388" lon="5.47279613766988"><ele>817.0</ele><time>2026-05-02T16:09:11.999Z</time></trkpt><trkpt lat="45.10796732056034" lon="5.4728054234508"><ele>816.3333333333333</ele><time>2026-05-02T16:09:12.999Z</time></trkpt><trkpt lat="45.107799415727285" lon="5.472763151121569"><ele>815.6666666666667</ele><time>2026-05-02T16:09:13.999Z</time></trkpt><trkpt lat="45.107636981170316" lon="5.472686335441004"><ele>815.0</ele><time>2026-05-02T16:09:14.999Z</time></trkpt><trkpt lat="45.10750049436371" lon="5.4725876181328275"><ele>816.5</ele><time>2026-05-02T16:09:15.999Z</time></trkpt><trkpt lat="45.10739033404333" lon="5.472474810951209"><ele>818.0</ele><time>2026-05-02T16:09:16.999Z</time></trkpt><trkpt lat="45.10727210759074" lon="5.472357388707133"><ele>819.5</ele><time>2026-05-02T16:09:17.999Z</time></trkpt><trkpt lat="45.107145069206034" lon="5.472233733652753"><ele>821.0</ele><time>2026-05-02T16:09:18.999Z</time></trkpt><trkpt lat="45.10704574265877" lon="5.472087749923089"><ele>817.25</ele><time>2026-05-02T16:09:19.999Z</time></trkpt><trkpt lat="45.1069601092285" lon="5.471941571623468"><ele>813.5</ele><time>2026-05-02T16:09:20.998Z</time></trkpt><trkpt lat="45.10687364668416" lon="5.471816251766572"><ele>809.75</ele><time>2026-05-02T16:09:21.998Z</time></trkpt><trkpt lat="45.106791017943884" lon="5.471709998574371"><ele>806.0</ele><time>2026-05-02T16:09:22.998Z</time></trkpt><trkpt lat="45.10669539565317" lon="5.471656183040761"><ele>806.0</ele><time>2026-05-02T16:09:23.998Z</time></trkpt><trkpt lat="45.1065854529579" lon="5.471697921835303"><ele>806.0</ele><time>2026-05-02T16:09:24.998Z</time></trkpt><trkpt lat="45.106485015378354" lon="5.471811652031805"><ele>806.0</ele><time>2026-05-02T16:09:25.998Z</time></trkpt><trkpt lat="45.10640056387187" lon="5.471957054972947"><ele>806.0</ele><time>2026-05-02T16:09:26.998Z</time></trkpt><trkpt lat="45.10630884984582" lon="5.472097270262144"><ele>808.6666666666667</ele><time>2026-05-02T16:09:27.998Z</time></trkpt><trkpt lat="45.10618248721188" lon="5.472242000362293"><ele>811.3333333333333</ele><time>2026-05-02T16:09:28.998Z</time></trkpt><trkpt lat="45.10603954350773" lon="5.472362588801477"><ele>814.0</ele><time>2026-05-02T16:09:29.998Z</time></trkpt><trkpt lat="45.10588629913738" lon="5.472481952988489"><ele>811.0</ele><time>2026-05-02T16:09:30.998Z</time></trkpt><trkpt lat="45.10572643176386" lon="5.472540458826265"><ele>808.0</ele><time>2026-05-02T16:09:31.998Z</time></trkpt><trkpt lat="45.10557668792061" lon="5.472572005107941"><ele>805.0</ele><time>2026-05-02T16:09:32.998Z</time></trkpt><trkpt lat="45.10542344258616" lon="5.472551720506622"><ele>805.0</ele><time>2026-05-02T16:09:33.998Z</time></trkpt><trkpt lat="45.10527603681948" lon="5.472504004339755"><ele>805.0</ele><time>2026-05-02T16:09:34.998Z</time></trkpt><trkpt lat="45.105159713251716" lon="5.472466056335406"><ele>805.0</ele><time>2026-05-02T16:09:35.998Z</time></trkpt><trkpt lat="45.105072219274604" lon="5.472464211439363"><ele>805.0</ele><time>2026-05-02T16:09:36.998Z</time></trkpt><trkpt lat="45.10498667348371" lon="5.472494614363045"><ele>805.0</ele><time>2026-05-02T16:09:37.998Z</time></trkpt><trkpt lat="45.10491239343196" lon="5.472558471302527"><ele>805.2</ele><time>2026-05-02T16:09:38.998Z</time></trkpt><trkpt lat="45.104842508233524" lon="5.4726245398532845"><ele>805.4</ele><time>2026-05-02T16:09:39.998Z</time></trkpt><trkpt lat="45.104752110006835" lon="5.472670301289691"><ele>805.5999999999999</ele><time>2026-05-02T16:09:40.998Z</time></trkpt><trkpt lat="45.10466120605524" lon="5.472722168191519"><ele>805.8</ele><time>2026-05-02T16:09:41.998Z</time></trkpt><trkpt lat="45.10458026612005" lon="5.472828530265757"><ele>806.0</ele><time>2026-05-02T16:09:42.998Z</time></trkpt><trkpt lat="45.10451512230862" lon="5.472944028544525"><ele>806.0000000000001</ele><time>2026-05-02T16:09:43.998Z</time></trkpt><trkpt lat="45.10443930079312" lon="5.4730053209096745"><ele>806.0</ele><time>2026-05-02T16:09:44.998Z</time></trkpt><trkpt lat="45.10438804928102" lon="5.473080006332128"><ele>806.0</ele><time>2026-05-02T16:09:45.998Z</time></trkpt><trkpt lat="45.10431920596742" lon="5.47313550403125"><ele>806.0</ele><time>2026-05-02T16:09:46.998Z</time></trkpt><trkpt lat="45.10423670482017" lon="5.47316661057275"><ele>806.0000000000001</ele><time>2026-05-02T16:09:48Z</time></trkpt><trkpt lat="45.104143210937956" lon="5.473178185348082"><ele>806.0</ele><time>2026-05-02T16:09:49Z</time></trkpt><trkpt lat="45.104047024884586" lon="5.473183603860277"><ele>806.4</ele><time>2026-05-02T16:09:50Z</time></trkpt><trkpt lat="45.103947922092324" lon="5.473181655140968"><ele>806.8</ele><time>2026-05-02T16:09:51Z</time></trkpt><trkpt lat="45.103839809069" lon="5.473169514688172"><ele>807.1999999999999</ele><time>2026-05-02T16:09:52Z</time></trkpt><trkpt lat="45.103728525502504" lon="5.473131129725267"><ele>807.5999999999999</ele><time>2026-05-02T16:09:53Z</time></trkpt><trkpt lat="45.10361310991108" lon="5.473073501413273"><ele>808.0</ele><time>2026-05-02T16:09:54Z</time></trkpt><trkpt lat="45.10348176773041" lon="5.4730023272436785"><ele>805.6666666666666</ele><time>2026-05-02T16:09:55Z</time></trkpt><trkpt lat="45.10336105101578" lon="5.4729301948433715"><ele>803.3333333333333</ele><time>2026-05-02T16:09:56Z</time></trkpt><trkpt lat="45.10322971581177" lon="5.472843850298095"><ele>801.0</ele><time>2026-05-02T16:09:57Z</time></trkpt><trkpt lat="45.10306761815845" lon="5.472707725321315"><ele>801.0</ele><time>2026-05-02T16:09:58Z</time></trkpt><trkpt lat="45.10294082349939" lon="5.472558474988825"><ele>801.0</ele><time>2026-05-02T16:09:59Z</time></trkpt><trkpt lat="45.10282417231212" lon="5.472430231787886"><ele>801.0</ele><time>2026-05-02T16:10:00Z</time></trkpt><trkpt lat="45.10270734204227" lon="5.472321989823411"><ele>801.0</ele><time>2026-05-02T16:10:01Z</time></trkpt><trkpt lat="45.10257639717704" lon="5.472227572984784"><ele>801.0</ele><time>2026-05-02T16:10:02Z</time></trkpt><trkpt lat="45.10243839407755" lon="5.472147951461112"><ele>801.0</ele><time>2026-05-02T16:10:03Z</time></trkpt><trkpt lat="45.10232405299573" lon="5.472065801213606"><ele>801.0</ele><time>2026-05-02T16:10:04Z</time></trkpt><trkpt lat="45.102212855258536" lon="5.471996278120308"><ele>798.0</ele><time>2026-05-02T16:10:05Z</time></trkpt><trkpt lat="45.10208498974707" lon="5.47199175734546"><ele>795.0</ele><time>2026-05-02T16:10:06Z</time></trkpt><trkpt lat="45.10194475334262" lon="5.472077488608882"><ele>792.0</ele><time>2026-05-02T16:10:07Z</time></trkpt><trkpt lat="45.10179305582235" lon="5.472243849761585"><ele>792.0</ele><time>2026-05-02T16:10:08Z</time></trkpt><trkpt lat="45.101662069365204" lon="5.472389825274547"><ele>792.0</ele><time>2026-05-02T16:10:09Z</time></trkpt><trkpt lat="45.10157062660906" lon="5.4725521416974905"><ele>792.0</ele><time>2026-05-02T16:10:10Z</time></trkpt><trkpt lat="45.101520894646555" lon="5.4727453333447125"><ele>785.6666666666667</ele><time>2026-05-02T16:10:11Z</time></trkpt><trkpt lat="45.10150367587971" lon="5.472997237758536"><ele>779.3333333333334</ele><time>2026-05-02T16:10:12Z</time></trkpt><trkpt lat="45.10148383375582" lon="5.473274470709437"><ele>773.0</ele><time>2026-05-02T16:10:13Z</time></trkpt><trkpt lat="45.10146512067709" lon="5.4735552685345645"><ele>773.3333333333334</ele><time>2026-05-02T16:10:14Z</time></trkpt><trkpt lat="45.10147842996902" lon="5.473829342793901"><ele>773.6666666666667</ele><time>2026-05-02T16:10:15Z</time></trkpt><trkpt lat="45.10152831904891" lon="5.474097479789828"><ele>774.0</ele><time>2026-05-02T16:10:16Z</time></trkpt><trkpt lat="45.10153624694822" lon="5.474343643965064"><ele>774.0</ele><time>2026-05-02T16:10:17Z</time></trkpt><trkpt lat="45.10150058088324" lon="5.474561278002935"><ele>774.0</ele><time>2026-05-02T16:10:18Z</time></trkpt><trkpt lat="45.10142757452514" lon="5.474738442642221"><ele>774.0</ele><time>2026-05-02T16:10:19Z</time></trkpt><trkpt lat="45.10129675630636" lon="5.474867585010696"><ele>777.3333333333333</ele><time>2026-05-02T16:10:20Z</time></trkpt><trkpt lat="45.10112975271026" lon="5.474909502705228"><ele>780.6666666666666</ele><time>2026-05-02T16:10:21Z</time></trkpt><trkpt lat="45.10095992562313" lon="5.474986915517075"><ele>784.0</ele><time>2026-05-02T16:10:22Z</time></trkpt><trkpt lat="45.100802605749365" lon="5.475128976370531"><ele>785.75</ele><time>2026-05-02T16:10:23Z</time></trkpt><trkpt lat="45.10067062232739" lon="5.475257076044493"><ele>787.5</ele><time>2026-05-02T16:10:24Z</time></trkpt><trkpt lat="45.10054380858968" lon="5.475331472534909"><ele>789.25</ele><time>2026-05-02T16:10:25Z</time></trkpt><trkpt lat="45.10040731648648" lon="5.475303927108148"><ele>791.0</ele><time>2026-05-02T16:10:26Z</time></trkpt><trkpt lat="45.100271609555826" lon="5.475186351899126"><ele>791.0</ele><time>2026-05-02T16:10:27Z</time></trkpt><trkpt lat="45.100152766174844" lon="5.475002141093655"><ele>791.0</ele><time>2026-05-02T16:10:28Z</time></trkpt><trkpt lat="45.100002983034436" lon="5.474873758087042"><ele>791.0</ele><time>2026-05-02T16:10:29Z</time></trkpt><trkpt lat="45.09984683644781" lon="5.474803875969431"><ele>789.0</ele><time>2026-05-02T16:10:29.999Z</time></trkpt><trkpt lat="45.09969728860038" lon="5.474826005348172"><ele>787.0</ele><time>2026-05-02T16:10:30.999Z</time></trkpt><trkpt lat="45.09954863492899" lon="5.474930361454658"><ele>785.0</ele><time>2026-05-02T16:10:31.999Z</time></trkpt><trkpt lat="45.0994075855256" lon="5.475081314796516"><ele>785.0</ele><time>2026-05-02T16:10:32.999Z</time></trkpt><trkpt lat="45.0992699453231" lon="5.475195038780871"><ele>785.0</ele><time>2026-05-02T16:10:33.999Z</time></trkpt><trkpt lat="45.09915832196234" lon="5.47529166644003"><ele>785.0</ele><time>2026-05-02T16:10:34.999Z</time></trkpt><trkpt lat="45.09902978685816" lon="5.475266145678024"><ele>785.0</ele><time>2026-05-02T16:10:35.999Z</time></trkpt><trkpt lat="45.098924601951396" lon="5.475158259061422"><ele>787.0</ele><time>2026-05-02T16:10:36.999Z</time></trkpt><trkpt lat="45.09887267622746" lon="5.474974959498398"><ele>789.0</ele><time>2026-05-02T16:10:37.999Z</time></trkpt><trkpt lat="45.09883590823518" lon="5.47473988818711"><ele>791.0</ele><time>2026-05-02T16:10:38.999Z</time></trkpt><trkpt lat="45.09876454327147" lon="5.474534099903917"><ele>785.0</ele><time>2026-05-02T16:10:39.999Z</time></trkpt><trkpt lat="45.09862295733352" lon="5.474364378767995"><ele>779.0</ele><time>2026-05-02T16:10:40.999Z</time></trkpt><trkpt lat="45.09843086644646" lon="5.474222928192672"><ele>773.0</ele><time>2026-05-02T16:10:41.999Z</time></trkpt><trkpt lat="45.09826587103634" lon="5.474103175473368"><ele>773.75</ele><time>2026-05-02T16:10:42.999Z</time></trkpt><trkpt lat="45.09814360553324" lon="5.474003413926657"><ele>774.5</ele><time>2026-05-02T16:10:43.999Z</time></trkpt><trkpt lat="45.09804051140701" lon="5.473936248888909"><ele>775.25</ele><time>2026-05-02T16:10:44.999Z</time></trkpt><trkpt lat="45.09794050110478" lon="5.473924498268652"><ele>776.0</ele><time>2026-05-02T16:10:45.999Z</time></trkpt><trkpt lat="45.09762560348058" lon="5.473767061662105"><ele>778.3333333333334</ele><time>2026-05-02T16:10:46.999Z</time></trkpt><trkpt lat="45.09746281238275" lon="5.473678905150449"><ele>780.6666666666667</ele><time>2026-05-02T16:10:47.999Z</time></trkpt><trkpt lat="45.0973827594351" lon="5.473459364317707"><ele>783.0</ele><time>2026-05-02T16:10:48.999Z</time></trkpt><trkpt lat="45.09735404969414" lon="5.473208245379479"><ele>778.6666666666667</ele><time>2026-05-02T16:10:49.999Z</time></trkpt><trkpt lat="45.097333406548124" lon="5.472917529601098"><ele>774.3333333333334</ele><time>2026-05-02T16:10:50.999Z</time></trkpt><trkpt lat="45.09732679067755" lon="5.4726435083021405"><ele>770.0</ele><time>2026-05-02T16:10:51.999Z</time></trkpt><trkpt lat="45.097279180027385" lon="5.472410856683263"><ele>770.0</ele><time>2026-05-02T16:10:52.999Z</time></trkpt><trkpt lat="45.09718821859193" lon="5.472185077397094"><ele>770.0</ele><time>2026-05-02T16:10:53.999Z</time></trkpt><trkpt lat="45.097055442447044" lon="5.471938502110754"><ele>770.0</ele><time>2026-05-02T16:10:54.999Z</time></trkpt><trkpt lat="45.09693689164428" lon="5.471681796642874"><ele>767.3333333333334</ele><time>2026-05-02T16:10:55.999Z</time></trkpt><trkpt lat="45.09683055913506" lon="5.471424093645384"><ele>764.6666666666667</ele><time>2026-05-02T16:10:56.999Z</time></trkpt><trkpt lat="45.09673045441735" lon="5.471166262923885"><ele>762.0</ele><time>2026-05-02T16:10:57.999Z</time></trkpt><trkpt lat="45.09663087611835" lon="5.470905759617031"><ele>761.0</ele><time>2026-05-02T16:10:58.999Z</time></trkpt><trkpt lat="45.09653158934817" lon="5.470659748119133"><ele>760.0</ele><time>2026-05-02T16:10:59.999Z</time></trkpt><trkpt lat="45.09644301128944" lon="5.4704309571715175"><ele>759.0</ele><time>2026-05-02T16:11:00.999Z</time></trkpt><trkpt lat="45.09633858511573" lon="5.470238208161561"><ele>757.6666666666666</ele><time>2026-05-02T16:11:01.999Z</time></trkpt><trkpt lat="45.096200915448684" lon="5.470090376795111"><ele>756.3333333333333</ele><time>2026-05-02T16:11:02.999Z</time></trkpt><trkpt lat="45.09601864396045" lon="5.469951242160673"><ele>755.0</ele><time>2026-05-02T16:11:03.999Z</time></trkpt><trkpt lat="45.09584901482811" lon="5.469812183685614"><ele>752.6666666666666</ele><time>2026-05-02T16:11:04.999Z</time></trkpt><trkpt lat="45.09568774809547" lon="5.469711282671772"><ele>750.3333333333334</ele><time>2026-05-02T16:11:05.999Z</time></trkpt><trkpt lat="45.09551239018904" lon="5.469625522424799"><ele>748.0</ele><time>2026-05-02T16:11:06.999Z</time></trkpt><trkpt lat="45.095329756877476" lon="5.469558198776121"><ele>746.0</ele><time>2026-05-02T16:11:07.999Z</time></trkpt><trkpt lat="45.09514425224406" lon="5.469511245001965"><ele>744.0</ele><time>2026-05-02T16:11:08.999Z</time></trkpt><trkpt lat="45.09492870034813" lon="5.469476855052102"><ele>742.0</ele><time>2026-05-02T16:11:09.999Z</time></trkpt><trkpt lat="45.09473572638417" lon="5.469407570298925"><ele>740.0</ele><time>2026-05-02T16:11:10.999Z</time></trkpt><trkpt lat="45.094543472340696" lon="5.469354098505228"><ele>738.0</ele><time>2026-05-02T16:11:11.999Z</time></trkpt><trkpt lat="45.09435564518318" lon="5.469282375108959"><ele>736.0</ele><time>2026-05-02T16:11:12.999Z</time></trkpt><trkpt lat="45.09418579186634" lon="5.469149474465556"><ele>733.6666666666667</ele><time>2026-05-02T16:11:13.999Z</time></trkpt><trkpt lat="45.09403141494146" lon="5.469010781623438"><ele>731.3333333333334</ele><time>2026-05-02T16:11:14.999Z</time></trkpt><trkpt lat="45.093884108221445" lon="5.4688840238138186"><ele>729.0</ele><time>2026-05-02T16:11:15.999Z</time></trkpt><trkpt lat="45.09375377643936" lon="5.468770592291471"><ele>729.0</ele><time>2026-05-02T16:11:16.999Z</time></trkpt><trkpt lat="45.093636507503774" lon="5.468690579260206"><ele>729.0</ele><time>2026-05-02T16:11:17.999Z</time></trkpt><trkpt lat="45.09350829869816" lon="5.4686554938186385"><ele>729.0</ele><time>2026-05-02T16:11:18.999Z</time></trkpt><trkpt lat="45.09337605749724" lon="5.468655642250554"><ele>729.0</ele><time>2026-05-02T16:11:19.999Z</time></trkpt><trkpt lat="45.09326214931027" lon="5.468692152059743"><ele>728.2</ele><time>2026-05-02T16:11:20.999Z</time></trkpt><trkpt lat="45.093187199208245" lon="5.468780937699089"><ele>727.4000000000001</ele><time>2026-05-02T16:11:21.999Z</time></trkpt><trkpt lat="45.093145531797" lon="5.468904206590952"><ele>726.6</ele><time>2026-05-02T16:11:22.999Z</time></trkpt><trkpt lat="45.09312866360137" lon="5.469037647422933"><ele>725.8</ele><time>2026-05-02T16:11:23.999Z</time></trkpt><trkpt lat="45.093207280819406" lon="5.469183691946265"><ele>725.0</ele><time>2026-05-02T16:11:24.999Z</time></trkpt><trkpt lat="45.093359100251284" lon="5.469283142971281"><ele>725.0</ele><time>2026-05-02T16:11:25.998Z</time></trkpt><trkpt lat="45.093462940588026" lon="5.469457489417124"><ele>725.0</ele><time>2026-05-02T16:11:26.998Z</time></trkpt><trkpt lat="45.093539193010066" lon="5.4696976916855835"><ele>725.0</ele><time>2026-05-02T16:11:27.998Z</time></trkpt><trkpt lat="45.093606626809546" lon="5.4699575779070955"><ele>721.0</ele><time>2026-05-02T16:11:28.998Z</time></trkpt><trkpt lat="45.093673570002956" lon="5.4702000240919775"><ele>717.0</ele><time>2026-05-02T16:11:29.998Z</time></trkpt><trkpt lat="45.09376043644895" lon="5.470398078510855"><ele>713.0</ele><time>2026-05-02T16:11:30.998Z</time></trkpt><trkpt lat="45.093863668215526" lon="5.470593722321773"><ele>709.6666666666666</ele><time>2026-05-02T16:11:31.998Z</time></trkpt><trkpt lat="45.09394032866933" lon="5.470806020659888"><ele>706.3333333333334</ele><time>2026-05-02T16:11:32.998Z</time></trkpt><trkpt lat="45.09397071492837" lon="5.47102343965522"><ele>703.0</ele><time>2026-05-02T16:11:33.998Z</time></trkpt><trkpt lat="45.09397478051765" lon="5.471235994232"><ele>703.75</ele><time>2026-05-02T16:11:34.998Z</time></trkpt><trkpt lat="45.093969437421116" lon="5.471434077649225"><ele>704.5</ele><time>2026-05-02T16:11:35.998Z</time></trkpt><trkpt lat="45.09394403376829" lon="5.471608200754739"><ele>705.25</ele><time>2026-05-02T16:11:36.998Z</time></trkpt><trkpt lat="45.09386646948811" lon="5.4717267068984015"><ele>706.0</ele><time>2026-05-02T16:11:37.998Z</time></trkpt><trkpt lat="45.093779904569196" lon="5.471802746646889"><ele>706.0</ele><time>2026-05-02T16:11:38.998Z</time></trkpt><trkpt lat="45.093677572431375" lon="5.4717682758041155"><ele>706.0</ele><time>2026-05-02T16:11:39.998Z</time></trkpt><trkpt lat="45.09359199901333" lon="5.471678430233228"><ele>706.0</ele><time>2026-05-02T16:11:40.998Z</time></trkpt><trkpt lat="45.093531095844135" lon="5.47152391722597"><ele>706.0</ele><time>2026-05-02T16:11:41.998Z</time></trkpt><trkpt lat="45.09348230629202" lon="5.471314202800641"><ele>705.0</ele><time>2026-05-02T16:11:42.998Z</time></trkpt><trkpt lat="45.09342598242765" lon="5.471059927026288"><ele>704.0</ele><time>2026-05-02T16:11:43.998Z</time></trkpt><trkpt lat="45.093334036460824" lon="5.470794937683089"><ele>703.0</ele><time>2026-05-02T16:11:44.998Z</time></trkpt><trkpt lat="45.093204222454276" lon="5.470541306045911"><ele>701.3333333333334</ele><time>2026-05-02T16:11:45.998Z</time></trkpt><trkpt lat="45.09305461033891" lon="5.470324446386052"><ele>699.6666666666666</ele><time>2026-05-02T16:11:46.998Z</time></trkpt><trkpt lat="45.09289698135805" lon="5.470155213642766"><ele>698.0</ele><time>2026-05-02T16:11:47.998Z</time></trkpt><trkpt lat="45.09275175694849" lon="5.4700158586826015"><ele>698.0</ele><time>2026-05-02T16:11:48.998Z</time></trkpt><trkpt lat="45.092595039409126" lon="5.4698976206647645"><ele>698.0</ele><time>2026-05-02T16:11:49.998Z</time></trkpt><trkpt lat="45.09241523294327" lon="5.469863768226153"><ele>698.0</ele><time>2026-05-02T16:11:50.998Z</time></trkpt><trkpt lat="45.092204209145244" lon="5.469877672390017"><ele>693.3333333333333</ele><time>2026-05-02T16:11:51.998Z</time></trkpt><trkpt lat="45.09199467273378" lon="5.469870082301335"><ele>688.6666666666666</ele><time>2026-05-02T16:11:52.998Z</time></trkpt><trkpt lat="45.09176825898591" lon="5.469794884605253"><ele>684.0</ele><time>2026-05-02T16:11:54Z</time></trkpt><trkpt lat="45.09157506508107" lon="5.469684495075556"><ele>689.3333333333334</ele><time>2026-05-02T16:11:55Z</time></trkpt><trkpt lat="45.09140029733863" lon="5.469586876257017"><ele>694.6666666666667</ele><time>2026-05-02T16:11:56Z</time></trkpt><trkpt lat="45.09120305140854" lon="5.46949821789598"><ele>700.0</ele><time>2026-05-02T16:11:57Z</time></trkpt><trkpt lat="45.09100373018068" lon="5.469411928119243"><ele>700.0</ele><time>2026-05-02T16:11:58Z</time></trkpt><trkpt lat="45.09080880616655" lon="5.469340152030932"><ele>700.0</ele><time>2026-05-02T16:11:59Z</time></trkpt><trkpt lat="45.09062656513849" lon="5.469287384025066"><ele>700.0</ele><time>2026-05-02T16:12:00Z</time></trkpt><trkpt lat="45.09045692346582" lon="5.469238965386271"><ele>695.25</ele><time>2026-05-02T16:12:01Z</time></trkpt><trkpt lat="45.09029676194017" lon="5.469180526574235"><ele>690.5</ele><time>2026-05-02T16:12:02Z</time></trkpt><trkpt lat="45.090171784897926" lon="5.469140986239885"><ele>685.75</ele><time>2026-05-02T16:12:03Z</time></trkpt><trkpt lat="45.09008133540843" lon="5.469117502208497"><ele>681.0</ele><time>2026-05-02T16:12:04Z</time></trkpt><trkpt lat="45.09000116999597" lon="5.469149285569913"><ele>681.0</ele><time>2026-05-02T16:12:05Z</time></trkpt><trkpt lat="45.089935010214774" lon="5.469230786098665"><ele>681.0</ele><time>2026-05-02T16:12:06Z</time></trkpt><trkpt lat="45.089919761970826" lon="5.469410450905722"><ele>681.0</ele><time>2026-05-02T16:12:07Z</time></trkpt><trkpt lat="45.08995799127308" lon="5.469613549562055"><ele>681.0</ele><time>2026-05-02T16:12:08Z</time></trkpt><trkpt lat="45.08998575249439" lon="5.469840642073511"><ele>677.25</ele><time>2026-05-02T16:12:09Z</time></trkpt><trkpt lat="45.09000588318377" lon="5.470075698238416"><ele>673.5</ele><time>2026-05-02T16:12:10Z</time></trkpt><trkpt lat="45.09001093590102" lon="5.470262425464049"><ele>669.75</ele><time>2026-05-02T16:12:11Z</time></trkpt><trkpt lat="45.09000652606808" lon="5.470428161275033"><ele>666.0</ele><time>2026-05-02T16:12:12Z</time></trkpt><trkpt lat="45.09000009417029" lon="5.4705759694671094"><ele>666.0</ele><time>2026-05-02T16:12:13Z</time></trkpt><trkpt lat="45.089989732753914" lon="5.47071818749329"><ele>666.0</ele><time>2026-05-02T16:12:14Z</time></trkpt><trkpt lat="45.089964153242434" lon="5.470821811699803"><ele>666.0</ele><time>2026-05-02T16:12:15Z</time></trkpt><trkpt lat="45.089917730149736" lon="5.470894843182843"><ele>666.0</ele><time>2026-05-02T16:12:16Z</time></trkpt><trkpt lat="45.08985495451262" lon="5.470925163102048"><ele>666.0</ele><time>2026-05-02T16:12:17Z</time></trkpt><trkpt lat="45.08979295125178" lon="5.47094914718122"><ele>666.0</ele><time>2026-05-02T16:12:18Z</time></trkpt><trkpt lat="45.08971235422472" lon="5.470921652243382"><ele>663.5</ele><time>2026-05-02T16:12:20Z</time></trkpt><trkpt lat="45.08961890102516" lon="5.470921229473272"><ele>661.0</ele><time>2026-05-02T16:12:25Z</time></trkpt><trkpt lat="45.08954396472185" lon="5.470897469652867"><ele>658.5</ele><time>2026-05-02T16:12:26Z</time></trkpt><trkpt lat="45.08944237279258" lon="5.471016993991619"><ele>656.0</ele><time>2026-05-02T16:12:27Z</time></trkpt><trkpt lat="45.089336774468784" lon="5.471178612798615"><ele>656.0</ele><time>2026-05-02T16:12:28Z</time></trkpt><trkpt lat="45.08922268795953" lon="5.471386511213369"><ele>656.0</ele><time>2026-05-02T16:12:29Z</time></trkpt><trkpt lat="45.089088127292044" lon="5.471621241549054"><ele>656.0</ele><time>2026-05-02T16:12:30Z</time></trkpt><trkpt lat="45.088917555216526" lon="5.471866436921207"><ele>658.5</ele><time>2026-05-02T16:12:31Z</time></trkpt><trkpt lat="45.088761429473216" lon="5.472146026483882"><ele>661.0</ele><time>2026-05-02T16:12:32Z</time></trkpt><trkpt lat="45.08861849362246" lon="5.472371343499395"><ele>661.0</ele><time>2026-05-02T16:12:32.999Z</time></trkpt><trkpt lat="45.08849617147748" lon="5.472572274898839"><ele>661.0</ele><time>2026-05-02T16:12:33.999Z</time></trkpt><trkpt lat="45.088369785666856" lon="5.47278058773492"><ele>661.0</ele><time>2026-05-02T16:12:34.999Z</time></trkpt><trkpt lat="45.08824284494089" lon="5.472988190459083"><ele>659.3333333333334</ele><time>2026-05-02T16:12:35.999Z</time></trkpt><trkpt lat="45.088109523362675" lon="5.473193470477789"><ele>657.6666666666666</ele><time>2026-05-02T16:12:36.999Z</time></trkpt><trkpt lat="45.08797386057786" lon="5.47339531375474"><ele>656.0</ele><time>2026-05-02T16:12:37.999Z</time></trkpt><trkpt lat="45.08784927261058" lon="5.47358850353705"><ele>658.0</ele><time>2026-05-02T16:12:38.999Z</time></trkpt><trkpt lat="45.0877462210443" lon="5.473779835533969"><ele>660.0</ele><time>2026-05-02T16:12:39.999Z</time></trkpt><trkpt lat="45.08766386260088" lon="5.474034157866812"><ele>662.0</ele><time>2026-05-02T16:12:40.999Z</time></trkpt><trkpt lat="45.08758222167741" lon="5.474346790929833"><ele>661.0</ele><time>2026-05-02T16:12:41.999Z</time></trkpt><trkpt lat="45.08744088835097" lon="5.474655453227322"><ele>660.0</ele><time>2026-05-02T16:12:42.999Z</time></trkpt><trkpt lat="45.08728909703068" lon="5.474988577627438"><ele>660.0</ele><time>2026-05-02T16:12:43.999Z</time></trkpt><trkpt lat="45.08714905653897" lon="5.475320359060264"><ele>660.0</ele><time>2026-05-02T16:12:44.999Z</time></trkpt><trkpt lat="45.08700355804238" lon="5.475623531953356"><ele>663.5</ele><time>2026-05-02T16:12:45.999Z</time></trkpt><trkpt lat="45.08685800666354" lon="5.475909508789635"><ele>667.0</ele><time>2026-05-02T16:12:46.999Z</time></trkpt><trkpt lat="45.08670878698915" lon="5.476159768756035"><ele>665.6666666666667</ele><time>2026-05-02T16:12:47.999Z</time></trkpt><trkpt lat="45.08656747722463" lon="5.47639122624652"><ele>664.3333333333334</ele><time>2026-05-02T16:12:48.999Z</time></trkpt><trkpt lat="45.08644208574919" lon="5.4766535236815646"><ele>663.0</ele><time>2026-05-02T16:12:49.999Z</time></trkpt><trkpt lat="45.08634535805357" lon="5.476951466810945"><ele>664.5</ele><time>2026-05-02T16:12:50.999Z</time></trkpt><trkpt lat="45.08624212199932" lon="5.477255222912843"><ele>666.0</ele><time>2026-05-02T16:12:51.999Z</time></trkpt><trkpt lat="45.086100560912335" lon="5.477495868313376"><ele>666.0</ele><time>2026-05-02T16:12:52.999Z</time></trkpt><trkpt lat="45.08598502265583" lon="5.477730794338529"><ele>666.0</ele><time>2026-05-02T16:12:53.999Z</time></trkpt><trkpt lat="45.08587648988169" lon="5.477912963753168"><ele>666.0</ele><time>2026-05-02T16:12:54.999Z</time></trkpt><trkpt lat="45.08578661899261" lon="5.478114532145606"><ele>667.6666666666666</ele><time>2026-05-02T16:12:55.999Z</time></trkpt><trkpt lat="45.085738080951074" lon="5.478358710219199"><ele>669.3333333333333</ele><time>2026-05-02T16:12:56.999Z</time></trkpt><trkpt lat="45.085729994898436" lon="5.478633858442573"><ele>671.0</ele><time>2026-05-02T16:12:57.999Z</time></trkpt><trkpt lat="45.08568701516164" lon="5.478918836833139"><ele>671.0</ele><time>2026-05-02T16:12:58.999Z</time></trkpt><trkpt lat="45.08557394007975" lon="5.479183085962965"><ele>671.0</ele><time>2026-05-02T16:12:59.999Z</time></trkpt><trkpt lat="45.08543948925025" lon="5.479445103905817"><ele>671.0</ele><time>2026-05-02T16:13:00.999Z</time></trkpt><trkpt lat="45.08532196863138" lon="5.479668280801728"><ele>672.0</ele><time>2026-05-02T16:13:01.999Z</time></trkpt><trkpt lat="45.085238025959036" lon="5.47988290272708"><ele>673.0</ele><time>2026-05-02T16:13:02.999Z</time></trkpt><trkpt lat="45.085185918601" lon="5.480160276198982"><ele>674.0</ele><time>2026-05-02T16:13:03.999Z</time></trkpt><trkpt lat="45.0851322713924" lon="5.480476254217285"><ele>676.5</ele><time>2026-05-02T16:13:04.999Z</time></trkpt><trkpt lat="45.08503539640638" lon="5.480771411380434"><ele>679.0</ele><time>2026-05-02T16:13:05.999Z</time></trkpt><trkpt lat="45.084868957442296" lon="5.480999630379546"><ele>680.6666666666667</ele><time>2026-05-02T16:13:06.999Z</time></trkpt><trkpt lat="45.08470787283152" lon="5.481246981784918"><ele>682.3333333333334</ele><time>2026-05-02T16:13:07.999Z</time></trkpt><trkpt lat="45.08456374170923" lon="5.481453311452824"><ele>684.0</ele><time>2026-05-02T16:13:08.999Z</time></trkpt><trkpt lat="45.08444369707522" lon="5.481627689425403"><ele>683.0</ele><time>2026-05-02T16:13:09.999Z</time></trkpt><trkpt lat="45.08434349046099" lon="5.481787764165156"><ele>682.0</ele><time>2026-05-02T16:13:10.999Z</time></trkpt><trkpt lat="45.084275370072845" lon="5.481967028471158"><ele>681.0</ele><time>2026-05-02T16:13:11.999Z</time></trkpt><trkpt lat="45.084248267813614" lon="5.482152297262566"><ele>680.0</ele><time>2026-05-02T16:13:12.999Z</time></trkpt><trkpt lat="45.08421614276726" lon="5.482330807863481"><ele>680.0</ele><time>2026-05-02T16:13:13.999Z</time></trkpt><trkpt lat="45.084189294163366" lon="5.482469698887743"><ele>680.0</ele><time>2026-05-02T16:13:14.999Z</time></trkpt><trkpt lat="45.08415024009233" lon="5.4826193421947576"><ele>680.0</ele><time>2026-05-02T16:13:15.999Z</time></trkpt><trkpt lat="45.084127283814716" lon="5.482758911608946"><ele>680.0</ele><time>2026-05-02T16:13:16.999Z</time></trkpt><trkpt lat="45.084147208455754" lon="5.482940032874025"><ele>680.0</ele><time>2026-05-02T16:13:17.999Z</time></trkpt><trkpt lat="45.084182347732394" lon="5.483095583116233"><ele>681.0</ele><time>2026-05-02T16:13:18.999Z</time></trkpt><trkpt lat="45.084178772611594" lon="5.4832734121699565"><ele>682.0</ele><time>2026-05-02T16:13:19.999Z</time></trkpt><trkpt lat="45.08413084833628" lon="5.483439215012675"><ele>683.0</ele><time>2026-05-02T16:13:20.999Z</time></trkpt><trkpt lat="45.08408465907772" lon="5.483579674505635"><ele>684.0</ele><time>2026-05-02T16:13:21.999Z</time></trkpt><trkpt lat="45.0840526823109" lon="5.483743174696978"><ele>681.0</ele><time>2026-05-02T16:13:22.999Z</time></trkpt><trkpt lat="45.084050253456596" lon="5.483886217350326"><ele>678.0</ele><time>2026-05-02T16:13:23.999Z</time></trkpt><trkpt lat="45.08404441411315" lon="5.4840321226384265"><ele>675.0</ele><time>2026-05-02T16:13:24.999Z</time></trkpt><trkpt lat="45.08402790194692" lon="5.484187764986988"><ele>672.0</ele><time>2026-05-02T16:13:25.999Z</time></trkpt><trkpt lat="45.083987430883184" lon="5.484341141260487"><ele>669.0</ele><time>2026-05-02T16:13:26.999Z</time></trkpt><trkpt lat="45.08391423947624" lon="5.484467056194929"><ele>669.0</ele><time>2026-05-02T16:13:27.999Z</time></trkpt><trkpt lat="45.083813826286686" lon="5.484565293710878"><ele>669.0</ele><time>2026-05-02T16:13:28.999Z</time></trkpt><trkpt lat="45.08369958467948" lon="5.484631232713583"><ele>669.0</ele><time>2026-05-02T16:13:29.998Z</time></trkpt><trkpt lat="45.08356937276614" lon="5.484669385285927"><ele>669.0</ele><time>2026-05-02T16:13:30.998Z</time></trkpt><trkpt lat="45.08339221391051" lon="5.484717408786172"><ele>671.6666666666666</ele><time>2026-05-02T16:13:31.998Z</time></trkpt><trkpt lat="45.08318826654612" lon="5.4847819954407555"><ele>674.3333333333333</ele><time>2026-05-02T16:13:32.998Z</time></trkpt><trkpt lat="45.08295912306406" lon="5.4848271743266475"><ele>677.0</ele><time>2026-05-02T16:13:33.998Z</time></trkpt><trkpt lat="45.08274728935257" lon="5.48486361046336"><ele>677.0</ele><time>2026-05-02T16:13:34.998Z</time></trkpt><trkpt lat="45.082563724187736" lon="5.484932806308211"><ele>677.0</ele><time>2026-05-02T16:13:35.998Z</time></trkpt><trkpt lat="45.082385688032026" lon="5.48504097429161"><ele>677.0</ele><time>2026-05-02T16:13:36.998Z</time></trkpt><trkpt lat="45.08223767565449" lon="5.485190578990641"><ele>676.6666666666666</ele><time>2026-05-02T16:13:37.998Z</time></trkpt><trkpt lat="45.08210374777667" lon="5.485372184669697"><ele>676.3333333333334</ele><time>2026-05-02T16:13:38.998Z</time></trkpt><trkpt lat="45.081991226485194" lon="5.485560608339702"><ele>676.0</ele><time>2026-05-02T16:13:39.998Z</time></trkpt><trkpt lat="45.081914508047255" lon="5.485787310825781"><ele>676.0</ele><time>2026-05-02T16:13:40.998Z</time></trkpt><trkpt lat="45.08187686352585" lon="5.486027791071378"><ele>676.0</ele><time>2026-05-02T16:13:41.998Z</time></trkpt><trkpt lat="45.08188352487063" lon="5.486312107737526"><ele>676.0</ele><time>2026-05-02T16:13:42.998Z</time></trkpt><trkpt lat="45.08189342008997" lon="5.4866465575768695"><ele>677.0</ele><time>2026-05-02T16:13:43.998Z</time></trkpt><trkpt lat="45.0818749217142" lon="5.48699554873077"><ele>678.0</ele><time>2026-05-02T16:13:44.998Z</time></trkpt><trkpt lat="45.08183796548934" lon="5.48733175961615"><ele>680.3333333333334</ele><time>2026-05-02T16:13:45.998Z</time></trkpt><trkpt lat="45.08180489240045" lon="5.487643244285548"><ele>682.6666666666667</ele><time>2026-05-02T16:13:46.998Z</time></trkpt><trkpt lat="45.08176786715959" lon="5.487915983525695"><ele>685.0</ele><time>2026-05-02T16:13:47.998Z</time></trkpt><trkpt lat="45.081678586696874" lon="5.4881400220453385"><ele>684.3333333333334</ele><time>2026-05-02T16:13:48.998Z</time></trkpt><trkpt lat="45.08151432256337" lon="5.488316279379616"><ele>683.6666666666666</ele><time>2026-05-02T16:13:49.998Z</time></trkpt><trkpt lat="45.08131302913174" lon="5.488471365121545"><ele>683.0</ele><time>2026-05-02T16:13:50.998Z</time></trkpt><trkpt lat="45.08109752717268" lon="5.488625717086354"><ele>691.0</ele><time>2026-05-02T16:13:51.998Z</time></trkpt><trkpt lat="45.0808716898947" lon="5.488769984748023"><ele>699.0</ele><time>2026-05-02T16:13:52.998Z</time></trkpt><trkpt lat="45.080640237632764" lon="5.488889834262328"><ele>699.0</ele><time>2026-05-02T16:13:53.998Z</time></trkpt><trkpt lat="45.08039547333631" lon="5.488991260767385"><ele>699.0</ele><time>2026-05-02T16:13:54.998Z</time></trkpt><trkpt lat="45.08014845321113" lon="5.489094169614785"><ele>695.0</ele><time>2026-05-02T16:13:55.998Z</time></trkpt><trkpt lat="45.079907280348536" lon="5.489201340053856"><ele>691.0</ele><time>2026-05-02T16:13:56.998Z</time></trkpt><trkpt lat="45.0796699274054" lon="5.489309046731753"><ele>691.0</ele><time>2026-05-02T16:13:57.998Z</time></trkpt><trkpt lat="45.07943751391704" lon="5.489440388676357"><ele>691.0</ele><time>2026-05-02T16:13:58.998Z</time></trkpt><trkpt lat="45.0792173935951" lon="5.4895995795586545"><ele>700.5</ele><time>2026-05-02T16:14:00Z</time></trkpt><trkpt lat="45.07899456665543" lon="5.489761440122489"><ele>710.0</ele><time>2026-05-02T16:14:01Z</time></trkpt><trkpt lat="45.07879036925115" lon="5.489918810296614"><ele>710.0</ele><time>2026-05-02T16:14:02Z</time></trkpt><trkpt lat="45.07860389183935" lon="5.490035714385001"><ele>710.0</ele><time>2026-05-02T16:14:03Z</time></trkpt><trkpt lat="45.07841591161434" lon="5.490062689424887"><ele>710.0</ele><time>2026-05-02T16:14:04Z</time></trkpt><trkpt lat="45.078238010859934" lon="5.489986247742379"><ele>705.0</ele><time>2026-05-02T16:14:05Z</time></trkpt><trkpt lat="45.07801241459515" lon="5.489934804162432"><ele>700.0</ele><time>2026-05-02T16:14:06Z</time></trkpt><trkpt lat="45.07778319883959" lon="5.489948878025366"><ele>700.0</ele><time>2026-05-02T16:14:07Z</time></trkpt><trkpt lat="45.07753862652726" lon="5.490030818591011"><ele>700.0</ele><time>2026-05-02T16:14:08Z</time></trkpt><trkpt lat="45.077277952802575" lon="5.490135563830356"><ele>698.0</ele><time>2026-05-02T16:14:09Z</time></trkpt><trkpt lat="45.07703601191777" lon="5.49023820477581"><ele>696.0</ele><time>2026-05-02T16:14:10Z</time></trkpt><trkpt lat="45.076816781149574" lon="5.4903230909472445"><ele>696.0</ele><time>2026-05-02T16:14:11Z</time></trkpt><trkpt lat="45.076623815964545" lon="5.490411094989773"><ele>696.0</ele><time>2026-05-02T16:14:12Z</time></trkpt><trkpt lat="45.076435410525214" lon="5.490565866212725"><ele>696.0</ele><time>2026-05-02T16:14:13Z</time></trkpt><trkpt lat="45.076240000954364" lon="5.490754232169572"><ele>701.5</ele><time>2026-05-02T16:14:14Z</time></trkpt><trkpt lat="45.076038906160406" lon="5.490962568409187"><ele>707.0</ele><time>2026-05-02T16:14:15Z</time></trkpt><trkpt lat="45.075816382018026" lon="5.491122150619941"><ele>718.5</ele><time>2026-05-02T16:14:16Z</time></trkpt><trkpt lat="45.07558757948246" lon="5.491276997199111"><ele>730.0</ele><time>2026-05-02T16:14:17Z</time></trkpt><trkpt lat="45.07538257048916" lon="5.491403500831192"><ele>730.0</ele><time>2026-05-02T16:14:18Z</time></trkpt><trkpt lat="45.07517898532944" lon="5.49145678300089"><ele>730.0</ele><time>2026-05-02T16:14:19Z</time></trkpt><trkpt lat="45.075009834217276" lon="5.491532911220358"><ele>730.0</ele><time>2026-05-02T16:14:20Z</time></trkpt><trkpt lat="45.074858332113834" lon="5.491630460496675"><ele>724.3333333333334</ele><time>2026-05-02T16:14:21Z</time></trkpt><trkpt lat="45.07473293641717" lon="5.491770322680878"><ele>718.6666666666666</ele><time>2026-05-02T16:14:22Z</time></trkpt><trkpt lat="45.07462841533901" lon="5.491956599003879"><ele>713.0</ele><time>2026-05-02T16:14:23Z</time></trkpt><trkpt lat="45.07453730626613" lon="5.492121445363195"><ele>722.2</ele><time>2026-05-02T16:14:24Z</time></trkpt><trkpt lat="45.07443731329001" lon="5.492214896695298"><ele>731.4</ele><time>2026-05-02T16:14:25Z</time></trkpt><trkpt lat="45.074359558758864" lon="5.492312080222594"><ele>740.6</ele><time>2026-05-02T16:14:26Z</time></trkpt><trkpt lat="45.0742657636317" lon="5.492339844451899"><ele>749.8000000000001</ele><time>2026-05-02T16:14:27Z</time></trkpt><trkpt lat="45.07418747670247" lon="5.492383487190498"><ele>759.0</ele><time>2026-05-02T16:14:28Z</time></trkpt><trkpt lat="45.074061126815586" lon="5.492301811256983"><ele>763.2</ele><time>2026-05-02T16:14:29Z</time></trkpt><trkpt lat="45.073978655731224" lon="5.4922215770097695"><ele>767.4000000000001</ele><time>2026-05-02T16:14:30Z</time></trkpt><trkpt lat="45.07391003143702" lon="5.4921522670877305"><ele>771.6</ele><time>2026-05-02T16:14:31Z</time></trkpt><trkpt lat="45.07383974204195" lon="5.492116487287843"><ele>775.8</ele><time>2026-05-02T16:14:32Z</time></trkpt><trkpt lat="45.07376540812547" lon="5.492070360529969"><ele>780.0</ele><time>2026-05-02T16:14:33Z</time></trkpt><trkpt lat="45.0736119374771" lon="5.4921033406954205"><ele>781.3333333333333</ele><time>2026-05-02T16:14:34Z</time></trkpt><trkpt lat="45.073449762702445" lon="5.492146559251654"><ele>782.6666666666666</ele><time>2026-05-02T16:14:35Z</time></trkpt><trkpt lat="45.073286933650316" lon="5.492189032156609"><ele>784.0</ele><time>2026-05-02T16:14:36Z</time></trkpt><trkpt lat="45.0730376066704" lon="5.492301665174224"><ele>788.0</ele><time>2026-05-02T16:14:37Z</time></trkpt><trkpt lat="45.07282866977909" lon="5.492497464846808"><ele>792.0</ele><time>2026-05-02T16:14:38Z</time></trkpt><trkpt lat="45.0726508955491" lon="5.492611810689682"><ele>796.0</ele><time>2026-05-02T16:14:39Z</time></trkpt><trkpt lat="45.07249649121784" lon="5.492705208903969"><ele>822.3333333333333</ele><time>2026-05-02T16:14:40Z</time></trkpt><trkpt lat="45.07236030375661" lon="5.492751330360721"><ele>848.6666666666667</ele><time>2026-05-02T16:14:40.999Z</time></trkpt><trkpt lat="45.07220772543859" lon="5.49279026824033"><ele>875.0</ele><time>2026-05-02T16:14:41.999Z</time></trkpt><trkpt lat="45.07204180904255" lon="5.492851097893054"><ele>875.0</ele><time>2026-05-02T16:14:42.999Z</time></trkpt><trkpt lat="45.07190118879883" lon="5.4929755345718645"><ele>875.0</ele><time>2026-05-02T16:14:43.999Z</time></trkpt><trkpt lat="45.0718086361916" lon="5.493204230412244"><ele>875.0</ele><time>2026-05-02T16:14:44.999Z</time></trkpt><trkpt lat="45.07168348661194" lon="5.493399882110651"><ele>895.3333333333334</ele><time>2026-05-02T16:14:45.999Z</time></trkpt><trkpt lat="45.071572453060064" lon="5.493622259836535"><ele>915.6666666666667</ele><time>2026-05-02T16:14:46.999Z</time></trkpt><trkpt lat="45.07148987905373" lon="5.4938488185151755"><ele>936.0</ele><time>2026-05-02T16:14:47.999Z</time></trkpt><trkpt lat="45.07142547068299" lon="5.4940718194750735"><ele>936.5</ele><time>2026-05-02T16:14:48.999Z</time></trkpt><trkpt lat="45.07141810343243" lon="5.494301330977855"><ele>937.0</ele><time>2026-05-02T16:14:49.999Z</time></trkpt><trkpt lat="45.071392065120186" lon="5.494490729999623"><ele>937.5</ele><time>2026-05-02T16:14:50.999Z</time></trkpt><trkpt lat="45.071368652934815" lon="5.49464689509219"><ele>938.0</ele><time>2026-05-02T16:14:51.999Z</time></trkpt><trkpt lat="45.07135864831089" lon="5.4947962325439565"><ele>941.0</ele><time>2026-05-02T16:14:52.999Z</time></trkpt><trkpt lat="45.07136684037786" lon="5.494954891736734"><ele>944.0</ele><time>2026-05-02T16:14:53.999Z</time></trkpt><trkpt lat="45.071380526863024" lon="5.495092291213501"><ele>947.0</ele><time>2026-05-02T16:14:54.999Z</time></trkpt><trkpt lat="45.07140310233154" lon="5.4952161285217285"><ele>950.0</ele><time>2026-05-02T16:14:55.999Z</time></trkpt><trkpt lat="45.071421612466814" lon="5.495319886122348"><ele>953.0</ele><time>2026-05-02T16:14:56.999Z</time></trkpt><trkpt lat="45.07146398365926" lon="5.4954316343226255"><ele>953.8</ele><time>2026-05-02T16:14:57.999Z</time></trkpt><trkpt lat="45.07149059697992" lon="5.495548244806565"><ele>954.5999999999999</ele><time>2026-05-02T16:14:58.999Z</time></trkpt><trkpt lat="45.07150667915951" lon="5.495677101654844"><ele>955.4000000000001</ele><time>2026-05-02T16:14:59.999Z</time></trkpt><trkpt lat="45.07152079868273" lon="5.495825257969102"><ele>956.2</ele><time>2026-05-02T16:15:00.999Z</time></trkpt><trkpt lat="45.07150740697303" lon="5.49595465225378"><ele>957.0</ele><time>2026-05-02T16:15:01.999Z</time></trkpt><trkpt lat="45.071478293396524" lon="5.496084318268135"><ele>957.0</ele><time>2026-05-02T16:15:02.999Z</time></trkpt><trkpt lat="45.071486779627534" lon="5.496225769712019"><ele>957.0</ele><time>2026-05-02T16:15:03.999Z</time></trkpt><trkpt lat="45.07148582608183" lon="5.496381946615552"><ele>957.0</ele><time>2026-05-02T16:15:04.999Z</time></trkpt><trkpt lat="45.071497209312774" lon="5.49654766285266"><ele>957.0</ele><time>2026-05-02T16:15:05.999Z</time></trkpt><trkpt lat="45.07153862493166" lon="5.496779871367592"><ele>948.5</ele><time>2026-05-02T16:15:06.999Z</time></trkpt><trkpt lat="45.07154072333669" lon="5.49701573539883"><ele>940.0</ele><time>2026-05-02T16:15:07.999Z</time></trkpt><trkpt lat="45.071503582586224" lon="5.497247514955296"><ele>931.5</ele><time>2026-05-02T16:15:10.999Z</time></trkpt><trkpt lat="45.07145920030304" lon="5.49738572973904"><ele>923.0</ele><time>2026-05-02T16:15:11.999Z</time></trkpt><trkpt lat="45.07142551702637" lon="5.497529709044742"><ele>923.0</ele><time>2026-05-02T16:15:12.999Z</time></trkpt><trkpt lat="45.071388856759306" lon="5.497667827518068"><ele>923.0</ele><time>2026-05-02T16:15:13.999Z</time></trkpt><trkpt lat="45.07134442791035" lon="5.497800309226678"><ele>923.0</ele><time>2026-05-02T16:15:14.999Z</time></trkpt><trkpt lat="45.071280855130276" lon="5.497960017854264"><ele>923.0</ele><time>2026-05-02T16:15:15.999Z</time></trkpt><trkpt lat="45.07118001094866" lon="5.498174184704622"><ele>923.0</ele><time>2026-05-02T16:15:16.999Z</time></trkpt><trkpt lat="45.07107402914637" lon="5.498436358044215"><ele>923.0</ele><time>2026-05-02T16:15:17.999Z</time></trkpt><trkpt lat="45.07093966509358" lon="5.498710310982725"><ele>923.0</ele><time>2026-05-02T16:15:18.999Z</time></trkpt><trkpt lat="45.070821062657174" lon="5.498972309756172"><ele>918.3333333333334</ele><time>2026-05-02T16:15:19.999Z</time></trkpt><trkpt lat="45.07071924878882" lon="5.499207451165286"><ele>913.6666666666667</ele><time>2026-05-02T16:15:20.999Z</time></trkpt><trkpt lat="45.07068140308175" lon="5.499444502649308"><ele>909.0</ele><time>2026-05-02T16:15:21.999Z</time></trkpt><trkpt lat="45.07064953738911" lon="5.499698742757662"><ele>899.6666666666667</ele><time>2026-05-02T16:15:22.999Z</time></trkpt><trkpt lat="45.07064114696639" lon="5.4999757715108295"><ele>890.3333333333334</ele><time>2026-05-02T16:15:23.999Z</time></trkpt><trkpt lat="45.070631787543924" lon="5.500261250066048"><ele>881.0</ele><time>2026-05-02T16:15:24.999Z</time></trkpt><trkpt lat="45.070621889627965" lon="5.500547202722911"><ele>872.0</ele><time>2026-05-02T16:15:25.999Z</time></trkpt><trkpt lat="45.07060748822267" lon="5.500796679702142"><ele>863.0</ele><time>2026-05-02T16:15:26.999Z</time></trkpt><trkpt lat="45.07058202623446" lon="5.501002329409924"><ele>854.0</ele><time>2026-05-02T16:15:27.999Z</time></trkpt><trkpt lat="45.07049775806971" lon="5.501186474040686"><ele>854.0</ele><time>2026-05-02T16:15:28.999Z</time></trkpt><trkpt lat="45.0704213065877" lon="5.501393457288151"><ele>854.0</ele><time>2026-05-02T16:15:29.999Z</time></trkpt><trkpt lat="45.07036987997851" lon="5.501619946598578"><ele>854.0</ele><time>2026-05-02T16:15:30.999Z</time></trkpt><trkpt lat="45.070369354089216" lon="5.501847248665669"><ele>854.0</ele><time>2026-05-02T16:15:31.999Z</time></trkpt><trkpt lat="45.07032209784267" lon="5.502020996109204"><ele>854.0</ele><time>2026-05-02T16:15:32.999Z</time></trkpt><trkpt lat="45.07023890140187" lon="5.502125218074935"><ele>854.0</ele><time>2026-05-02T16:15:33.999Z</time></trkpt><trkpt lat="45.07018781444514" lon="5.50228668216755"><ele>854.0</ele><time>2026-05-02T16:15:34.999Z</time></trkpt><trkpt lat="45.07024016501332" lon="5.502530539191548"><ele>854.0</ele><time>2026-05-02T16:15:35.999Z</time></trkpt><trkpt lat="45.0703197975297" lon="5.5027336883526825"><ele>854.0</ele><time>2026-05-02T16:15:36.999Z</time></trkpt><trkpt lat="45.07031409193823" lon="5.502988590485553"><ele>854.0</ele><time>2026-05-02T16:15:37.998Z</time></trkpt><trkpt lat="45.07029520126372" lon="5.503276879888742"><ele>856.3333333333334</ele><time>2026-05-02T16:15:38.998Z</time></trkpt><trkpt lat="45.070288709173795" lon="5.503551548246198"><ele>858.6666666666667</ele><time>2026-05-02T16:15:39.998Z</time></trkpt><trkpt lat="45.07026081521461" lon="5.503777841119148"><ele>861.0</ele><time>2026-05-02T16:15:40.998Z</time></trkpt><trkpt lat="45.07026300155515" lon="5.503988460868585"><ele>861.0</ele><time>2026-05-02T16:15:41.998Z</time></trkpt><trkpt lat="45.07031298477232" lon="5.504215570584655"><ele>861.0</ele><time>2026-05-02T16:15:42.998Z</time></trkpt><trkpt lat="45.07040427641117" lon="5.504452666584332"><ele>861.0</ele><time>2026-05-02T16:15:43.998Z</time></trkpt><trkpt lat="45.07049106187323" lon="5.50470943578777"><ele>848.6666666666667</ele><time>2026-05-02T16:15:44.998Z</time></trkpt><trkpt lat="45.07056697940326" lon="5.504971922961264"><ele>836.3333333333334</ele><time>2026-05-02T16:15:45.998Z</time></trkpt><trkpt lat="45.07056249393345" lon="5.505261458103248"><ele>824.0</ele><time>2026-05-02T16:15:46.998Z</time></trkpt><trkpt lat="45.07053530499866" lon="5.505597149023812"><ele>816.6666666666667</ele><time>2026-05-02T16:15:47.998Z</time></trkpt><trkpt lat="45.070485880658794" lon="5.505810830260861"><ele>809.3333333333333</ele><time>2026-05-02T16:15:48.998Z</time></trkpt><trkpt lat="45.070386064098564" lon="5.506009370652865"><ele>802.0</ele><time>2026-05-02T16:15:49.998Z</time></trkpt><trkpt lat="45.07027715868769" lon="5.506151091815311"><ele>803.0</ele><time>2026-05-02T16:15:50.998Z</time></trkpt><trkpt lat="45.070123892845835" lon="5.5063372007483276"><ele>804.0</ele><time>2026-05-02T16:15:51.998Z</time></trkpt><trkpt lat="45.07001502334288" lon="5.506543117805807"><ele>805.0</ele><time>2026-05-02T16:15:52.998Z</time></trkpt><trkpt lat="45.06992713492559" lon="5.5068214476564386"><ele>806.0</ele><time>2026-05-02T16:15:53.998Z</time></trkpt><trkpt lat="45.06981317184245" lon="5.507075908309929"><ele>807.0</ele><time>2026-05-02T16:15:54.998Z</time></trkpt><trkpt lat="45.06969320657051" lon="5.507283394761441"><ele>808.0</ele><time>2026-05-02T16:15:55.998Z</time></trkpt><trkpt lat="45.06960895686123" lon="5.507501646561466"><ele>808.0</ele><time>2026-05-02T16:15:56.998Z</time></trkpt><trkpt lat="45.06957028548089" lon="5.50778320937721"><ele>808.0</ele><time>2026-05-02T16:15:57.998Z</time></trkpt><trkpt lat="45.06951812164779" lon="5.508093143613078"><ele>808.0</ele><time>2026-05-02T16:15:58.998Z</time></trkpt><trkpt lat="45.06945091922788" lon="5.508419354012008"><ele>811.0</ele><time>2026-05-02T16:15:59.998Z</time></trkpt><trkpt lat="45.069408553430335" lon="5.508747100826424"><ele>814.0</ele><time>2026-05-02T16:16:00.998Z</time></trkpt><trkpt lat="45.06935481470354" lon="5.509118208634232"><ele>814.0</ele><time>2026-05-02T16:16:01.998Z</time></trkpt><trkpt lat="45.069332972868025" lon="5.509499922719618"><ele>814.0</ele><time>2026-05-02T16:16:02.998Z</time></trkpt><trkpt lat="45.069331079792285" lon="5.509872053153597"><ele>815.6666666666666</ele><time>2026-05-02T16:16:03.998Z</time></trkpt><trkpt lat="45.06932721770889" lon="5.510208593704865"><ele>817.3333333333333</ele><time>2026-05-02T16:16:04.998Z</time></trkpt><trkpt lat="45.06932115432893" lon="5.510505381270538"><ele>819.0</ele><time>2026-05-02T16:16:06Z</time></trkpt><trkpt lat="45.06923604035769" lon="5.510803850066137"><ele>824.0</ele><time>2026-05-02T16:16:07Z</time></trkpt><trkpt lat="45.06913722149373" lon="5.511122389828718"><ele>829.0</ele><time>2026-05-02T16:16:08Z</time></trkpt><trkpt lat="45.069038465029834" lon="5.511441847407758"><ele>827.0</ele><time>2026-05-02T16:16:09Z</time></trkpt><trkpt lat="45.068954283733284" lon="5.511744697763261"><ele>825.0</ele><time>2026-05-02T16:16:10Z</time></trkpt><trkpt lat="45.06888705347227" lon="5.512024975962338"><ele>823.0</ele><time>2026-05-02T16:16:11Z</time></trkpt><trkpt lat="45.06884107452752" lon="5.512287108200031"><ele>823.0</ele><time>2026-05-02T16:16:12Z</time></trkpt><trkpt lat="45.06876699926532" lon="5.512519321773443"><ele>823.0</ele><time>2026-05-02T16:16:13Z</time></trkpt><trkpt lat="45.06866677483838" lon="5.512740760770383"><ele>823.0</ele><time>2026-05-02T16:16:14Z</time></trkpt><trkpt lat="45.068573174187065" lon="5.512963022352282"><ele>823.0</ele><time>2026-05-02T16:16:15Z</time></trkpt><trkpt lat="45.06849583731993" lon="5.51319512743751"><ele>823.0</ele><time>2026-05-02T16:16:16Z</time></trkpt><trkpt lat="45.06844420650487" lon="5.513440218421373"><ele>823.0</ele><time>2026-05-02T16:16:17Z</time></trkpt><trkpt lat="45.06840133728353" lon="5.51368762009939"><ele>823.0</ele><time>2026-05-02T16:16:18Z</time></trkpt><trkpt lat="45.06835296233311" lon="5.513923209187844"><ele>823.0</ele><time>2026-05-02T16:16:19Z</time></trkpt><trkpt lat="45.06829147524447" lon="5.5141288591872994"><ele>823.0</ele><time>2026-05-02T16:16:20Z</time></trkpt><trkpt lat="45.068243866871505" lon="5.51431756331178"><ele>823.0</ele><time>2026-05-02T16:16:21Z</time></trkpt><trkpt lat="45.06822982014964" lon="5.514520958981245"><ele>823.0</ele><time>2026-05-02T16:16:22Z</time></trkpt><trkpt lat="45.06824844161443" lon="5.514747197982929"><ele>823.0</ele><time>2026-05-02T16:16:23Z</time></trkpt><trkpt lat="45.06827296985042" lon="5.514964211783796"><ele>823.0</ele><time>2026-05-02T16:16:24Z</time></trkpt><trkpt lat="45.0683078443998" lon="5.515181423685979"><ele>823.0</ele><time>2026-05-02T16:16:25Z</time></trkpt><trkpt lat="45.06827232521923" lon="5.515350402366059"><ele>823.0</ele><time>2026-05-02T16:16:26Z</time></trkpt><trkpt lat="45.0682221574076" lon="5.5155585826796445"><ele>823.0</ele><time>2026-05-02T16:16:27Z</time></trkpt><trkpt lat="45.068160655790855" lon="5.51579212261095"><ele>823.0</ele><time>2026-05-02T16:16:28Z</time></trkpt><trkpt lat="45.068108841316224" lon="5.516014772766589"><ele>823.0</ele><time>2026-05-02T16:16:29Z</time></trkpt><trkpt lat="45.0680558358106" lon="5.516201484214109"><ele>823.0</ele><time>2026-05-02T16:16:30Z</time></trkpt><trkpt lat="45.068011934026956" lon="5.5163603504240175"><ele>823.0</ele><time>2026-05-02T16:16:31Z</time></trkpt><trkpt lat="45.06800413701639" lon="5.51650066597144"><ele>823.0</ele><time>2026-05-02T16:16:32Z</time></trkpt><trkpt lat="45.06801686623906" lon="5.516646209037202"><ele>823.0</ele><time>2026-05-02T16:16:33Z</time></trkpt><trkpt lat="45.068090259457435" lon="5.516772135417035"><ele>823.0</ele><time>2026-05-02T16:16:34Z</time></trkpt><trkpt lat="45.06818873538994" lon="5.516882204886137"><ele>823.0</ele><time>2026-05-02T16:16:35Z</time></trkpt><trkpt lat="45.06831466695022" lon="5.516983155338168"><ele>854.3333333333333</ele><time>2026-05-02T16:16:36Z</time></trkpt><trkpt lat="45.06841884972999" lon="5.517113569696729"><ele>885.6666666666667</ele><time>2026-05-02T16:16:37Z</time></trkpt><trkpt lat="45.068571465795095" lon="5.517210443197424"><ele>917.0</ele><time>2026-05-02T16:16:38Z</time></trkpt><trkpt lat="45.068698312581056" lon="5.517338179514619"><ele>917.0</ele><time>2026-05-02T16:16:39Z</time></trkpt><trkpt lat="45.06881422983965" lon="5.517486341509778"><ele>917.0</ele><time>2026-05-02T16:16:40Z</time></trkpt><trkpt lat="45.06896537645835" lon="5.517616250274156"><ele>917.0</ele><time>2026-05-02T16:16:41Z</time></trkpt><trkpt lat="45.06911206266018" lon="5.517767491627439"><ele>903.0</ele><time>2026-05-02T16:16:42Z</time></trkpt><trkpt lat="45.06930005379239" lon="5.517922072234993"><ele>889.0</ele><time>2026-05-02T16:16:43Z</time></trkpt><trkpt lat="45.06945738404197" lon="5.518158961379666"><ele>875.0</ele><time>2026-05-02T16:16:44Z</time></trkpt><trkpt lat="45.06961814732509" lon="5.5183882531615565"><ele>875.0</ele><time>2026-05-02T16:16:45Z</time></trkpt><trkpt lat="45.06973423057781" lon="5.518613924502803"><ele>875.0</ele><time>2026-05-02T16:16:46Z</time></trkpt><trkpt lat="45.06986282993321" lon="5.518802537620082"><ele>875.0</ele><time>2026-05-02T16:16:47Z</time></trkpt><trkpt lat="45.0699906140065" lon="5.518985078491356"><ele>877.0</ele><time>2026-05-02T16:16:48Z</time></trkpt><trkpt lat="45.07014678403575" lon="5.519160217018363"><ele>879.0</ele><time>2026-05-02T16:16:49Z</time></trkpt><trkpt lat="45.07027663870413" lon="5.519306694948401"><ele>881.0</ele><time>2026-05-02T16:16:49.999Z</time></trkpt><trkpt lat="45.070380390564445" lon="5.519425237694515"><ele>881.0</ele><time>2026-05-02T16:16:50.999Z</time></trkpt><trkpt lat="45.0704713700326" lon="5.519529187069883"><ele>880.9999999999999</ele><time>2026-05-02T16:16:51.999Z</time></trkpt><trkpt lat="45.07057456798386" lon="5.519587599043802"><ele>880.9999999999999</ele><time>2026-05-02T16:16:52.999Z</time></trkpt><trkpt lat="45.070664774183015" lon="5.5196564578086065"><ele>881.0</ele><time>2026-05-02T16:16:53.999Z</time></trkpt><trkpt lat="45.07074575926923" lon="5.519754015842612"><ele>881.0</ele><time>2026-05-02T16:16:54.999Z</time></trkpt><trkpt lat="45.07086284923326" lon="5.519751108744029"><ele>905.0</ele><time>2026-05-02T16:16:55.999Z</time></trkpt><trkpt lat="45.071224740107716" lon="5.519620289331493"><ele>929.0</ele><time>2026-05-02T16:16:56.999Z</time></trkpt><trkpt lat="45.07134240363766" lon="5.5196413537249205"><ele>929.0</ele><time>2026-05-02T16:16:57.999Z</time></trkpt><trkpt lat="45.071442558111755" lon="5.519707314626205"><ele>929.0</ele><time>2026-05-02T16:16:58.999Z</time></trkpt><trkpt lat="45.0715618454553" lon="5.519841996656335"><ele>929.0</ele><time>2026-05-02T16:16:59.999Z</time></trkpt><trkpt lat="45.07169342324041" lon="5.519914981182453"><ele>929.0</ele><time>2026-05-02T16:17:00.999Z</time></trkpt><trkpt lat="45.07185084556263" lon="5.519961835958862"><ele>936.3333333333334</ele><time>2026-05-02T16:17:01.999Z</time></trkpt><trkpt lat="45.071995979668365" lon="5.52000214078042"><ele>943.6666666666667</ele><time>2026-05-02T16:17:02.999Z</time></trkpt><trkpt lat="45.0721794645906" lon="5.520095895093481"><ele>951.0</ele><time>2026-05-02T16:17:03.999Z</time></trkpt><trkpt lat="45.07233546958529" lon="5.520192135992534"><ele>949.5</ele><time>2026-05-02T16:17:04.999Z</time></trkpt><trkpt lat="45.0724886001519" lon="5.5202342759223875"><ele>948.0</ele><time>2026-05-02T16:17:05.999Z</time></trkpt><trkpt lat="45.07262101105487" lon="5.52027457176643"><ele>946.5</ele><time>2026-05-02T16:17:06.999Z</time></trkpt><trkpt lat="45.072723414319995" lon="5.520274614232695"><ele>945.0</ele><time>2026-05-02T16:17:07.999Z</time></trkpt><trkpt lat="45.07285309208878" lon="5.520263491239154"><ele>945.0</ele><time>2026-05-02T16:17:08.999Z</time></trkpt><trkpt lat="45.07298924900572" lon="5.520294351708382"><ele>945.0</ele><time>2026-05-02T16:17:09.999Z</time></trkpt><trkpt lat="45.07313970097049" lon="5.52036374762124"><ele>945.0</ele><time>2026-05-02T16:17:10.999Z</time></trkpt><trkpt lat="45.07331865010932" lon="5.520355528784252"><ele>943.5</ele><time>2026-05-02T16:17:11.999Z</time></trkpt><trkpt lat="45.07345966897667" lon="5.520398724134177"><ele>942.0</ele><time>2026-05-02T16:17:12.999Z</time></trkpt><trkpt lat="45.07359403549712" lon="5.520418551056854"><ele>940.5</ele><time>2026-05-02T16:17:13.999Z</time></trkpt><trkpt lat="45.073743563541925" lon="5.520433418612398"><ele>939.0</ele><time>2026-05-02T16:17:14.999Z</time></trkpt><trkpt lat="45.07389198193037" lon="5.5204199529556615"><ele>939.0</ele><time>2026-05-02T16:17:15.999Z</time></trkpt><trkpt lat="45.07406259719353" lon="5.5204055135831736"><ele>939.0</ele><time>2026-05-02T16:17:16.999Z</time></trkpt><trkpt lat="45.07422011090547" lon="5.520400726948554"><ele>939.0</ele><time>2026-05-02T16:17:17.999Z</time></trkpt><trkpt lat="45.07439596514202" lon="5.520348368765297"><ele>949.0</ele><time>2026-05-02T16:17:18.999Z</time></trkpt><trkpt lat="45.0745789533913" lon="5.5203056308582825"><ele>959.0</ele><time>2026-05-02T16:17:19.999Z</time></trkpt><trkpt lat="45.074753080742354" lon="5.520270173663786"><ele>969.0</ele><time>2026-05-02T16:17:20.999Z</time></trkpt><trkpt lat="45.07491561105675" lon="5.520243342706457"><ele>970.75</ele><time>2026-05-02T16:17:21.999Z</time></trkpt><trkpt lat="45.07506267899797" lon="5.520243001076141"><ele>972.5</ele><time>2026-05-02T16:17:22.999Z</time></trkpt><trkpt lat="45.07516364676486" lon="5.520299034722294"><ele>974.25</ele><time>2026-05-02T16:17:23.999Z</time></trkpt><trkpt lat="45.07524283166714" lon="5.520386549280806"><ele>976.0</ele><time>2026-05-02T16:17:24.999Z</time></trkpt><trkpt lat="45.075317581561556" lon="5.520494418575297"><ele>968.75</ele><time>2026-05-02T16:17:25.999Z</time></trkpt><trkpt lat="45.07534091826911" lon="5.520589275427527"><ele>961.5</ele><time>2026-05-02T16:17:26.999Z</time></trkpt><trkpt lat="45.075306008585024" lon="5.520665267610465"><ele>954.25</ele><time>2026-05-02T16:17:27.999Z</time></trkpt><trkpt lat="45.07539113757247" lon="5.52093626771524"><ele>947.0</ele><time>2026-05-02T16:17:28.999Z</time></trkpt><trkpt lat="45.0754771184971" lon="5.521064183573355"><ele>947.0</ele><time>2026-05-02T16:17:29.999Z</time></trkpt><trkpt lat="45.075594992359754" lon="5.52116756780222"><ele>947.0</ele><time>2026-05-02T16:17:30.999Z</time></trkpt><trkpt lat="45.075732978963146" lon="5.521263185102727"><ele>947.0</ele><time>2026-05-02T16:17:31.999Z</time></trkpt><trkpt lat="45.0758611536551" lon="5.521313201094286"><ele>947.0</ele><time>2026-05-02T16:17:32.999Z</time></trkpt><trkpt lat="45.075981359105235" lon="5.521286125126362"><ele>949.75</ele><time>2026-05-02T16:17:33.999Z</time></trkpt><trkpt lat="45.076108540881016" lon="5.521283589508609"><ele>952.5</ele><time>2026-05-02T16:17:34.999Z</time></trkpt><trkpt lat="45.076241761694185" lon="5.52127060464855"><ele>955.25</ele><time>2026-05-02T16:17:35.999Z</time></trkpt><trkpt lat="45.07635446448458" lon="5.521261590755012"><ele>958.0</ele><time>2026-05-02T16:17:36.999Z</time></trkpt><trkpt lat="45.076430117660976" lon="5.5213432721326114"><ele>958.0</ele><time>2026-05-02T16:17:37.999Z</time></trkpt><trkpt lat="45.07652404502619" lon="5.521385680440282"><ele>958.0</ele><time>2026-05-02T16:17:38.999Z</time></trkpt><trkpt lat="45.07661630244668" lon="5.521376653233281"><ele>958.0</ele><time>2026-05-02T16:17:39.999Z</time></trkpt><trkpt lat="45.07673823603098" lon="5.521305133311744"><ele>958.0</ele><time>2026-05-02T16:17:40.999Z</time></trkpt><trkpt lat="45.0768780805649" lon="5.521263649379558"><ele>962.3333333333333</ele><time>2026-05-02T16:17:41.999Z</time></trkpt><trkpt lat="45.07704329543197" lon="5.52124220481504"><ele>966.6666666666667</ele><time>2026-05-02T16:17:42.999Z</time></trkpt><trkpt lat="45.07719898679855" lon="5.521178014511087"><ele>971.0</ele><time>2026-05-02T16:17:43.999Z</time></trkpt><trkpt lat="45.07734364805695" lon="5.5211066752645594"><ele>973.25</ele><time>2026-05-02T16:17:44.999Z</time></trkpt><trkpt lat="45.07747278542582" lon="5.521044918912245"><ele>975.5</ele><time>2026-05-02T16:17:45.999Z</time></trkpt><trkpt lat="45.07761167110296" lon="5.521013584788025"><ele>977.75</ele><time>2026-05-02T16:17:46.998Z</time></trkpt><trkpt lat="45.07774585917254" lon="5.521031056145474"><ele>980.0</ele><time>2026-05-02T16:17:47.998Z</time></trkpt><trkpt lat="45.07788290611259" lon="5.521062790435426"><ele>980.0</ele><time>2026-05-02T16:17:48.998Z</time></trkpt><trkpt lat="45.07801443458243" lon="5.521115582238789"><ele>980.0</ele><time>2026-05-02T16:17:49.998Z</time></trkpt><trkpt lat="45.078141365089344" lon="5.521183147343051"><ele>980.0</ele><time>2026-05-02T16:17:50.998Z</time></trkpt><trkpt lat="45.07826107076483" lon="5.5212552199096185"><ele>980.0</ele><time>2026-05-02T16:17:51.998Z</time></trkpt><trkpt lat="45.07839939142865" lon="5.521286768565539"><ele>979.75</ele><time>2026-05-02T16:17:52.998Z</time></trkpt><trkpt lat="45.07853443208925" lon="5.521238491145836"><ele>979.5</ele><time>2026-05-02T16:17:53.998Z</time></trkpt><trkpt lat="45.078681495144345" lon="5.5212470256357165"><ele>979.25</ele><time>2026-05-02T16:17:54.998Z</time></trkpt><trkpt lat="45.07882080021444" lon="5.521218010372676"><ele>979.0</ele><time>2026-05-02T16:17:55.998Z</time></trkpt><trkpt lat="45.078961240374426" lon="5.521155663620781"><ele>979.0</ele><time>2026-05-02T16:17:56.998Z</time></trkpt><trkpt lat="45.07909897935621" lon="5.521161414691037"><ele>979.0</ele><time>2026-05-02T16:17:57.998Z</time></trkpt><trkpt lat="45.079251451493626" lon="5.521182528738726"><ele>979.0</ele><time>2026-05-02T16:17:58.998Z</time></trkpt><trkpt lat="45.079395030107165" lon="5.521219642283874"><ele>979.0</ele><time>2026-05-02T16:17:59.998Z</time></trkpt><trkpt lat="45.07953707668422" lon="5.521270665749522"><ele>975.5</ele><time>2026-05-02T16:18:00.998Z</time></trkpt><trkpt lat="45.07966235337406" lon="5.521397104027241"><ele>972.0</ele><time>2026-05-02T16:18:01.998Z</time></trkpt><trkpt lat="45.07978424268011" lon="5.521517093331714"><ele>968.5</ele><time>2026-05-02T16:18:02.998Z</time></trkpt><trkpt lat="45.07989100613444" lon="5.521616178152504"><ele>965.0</ele><time>2026-05-02T16:18:03.998Z</time></trkpt><trkpt lat="45.07998155368654" lon="5.521669877559081"><ele>965.0</ele><time>2026-05-02T16:18:04.998Z</time></trkpt><trkpt lat="45.080082391105265" lon="5.521746074895194"><ele>965.0</ele><time>2026-05-02T16:18:05.998Z</time></trkpt><trkpt lat="45.08022136142564" lon="5.521721553644316"><ele>965.0</ele><time>2026-05-02T16:18:06.998Z</time></trkpt><trkpt lat="45.080353062919365" lon="5.521650141014689"><ele>965.0</ele><time>2026-05-02T16:18:07.998Z</time></trkpt><trkpt lat="45.08046675831988" lon="5.521582590420244"><ele>965.0</ele><time>2026-05-02T16:18:08.998Z</time></trkpt><trkpt lat="45.080606420323356" lon="5.52149647588544"><ele>965.0</ele><time>2026-05-02T16:18:09.998Z</time></trkpt><trkpt lat="45.08074047188939" lon="5.521421204548258"><ele>965.0</ele><time>2026-05-02T16:18:10.998Z</time></trkpt><trkpt lat="45.08089985343175" lon="5.521379741105504"><ele>964.3333333333334</ele><time>2026-05-02T16:18:12Z</time></trkpt><trkpt lat="45.0810564794884" lon="5.521290964818208"><ele>963.6666666666667</ele><time>2026-05-02T16:18:13Z</time></trkpt><trkpt lat="45.08119349776583" lon="5.521185309404367"><ele>963.0</ele><time>2026-05-02T16:18:14Z</time></trkpt><trkpt lat="45.081321275711765" lon="5.52113542144317"><ele>962.5</ele><time>2026-05-02T16:18:15Z</time></trkpt><trkpt lat="45.08145384349741" lon="5.521122567495748"><ele>962.0</ele><time>2026-05-02T16:18:16Z</time></trkpt><trkpt lat="45.0815778184725" lon="5.521172754854974"><ele>961.5</ele><time>2026-05-02T16:18:17Z</time></trkpt><trkpt lat="45.08170225110544" lon="5.521264452260946"><ele>961.0</ele><time>2026-05-02T16:18:18Z</time></trkpt><trkpt lat="45.08182067103191" lon="5.521232055228088"><ele>961.0</ele><time>2026-05-02T16:18:19Z</time></trkpt><trkpt lat="45.08195297661654" lon="5.52123971043871"><ele>961.0</ele><time>2026-05-02T16:18:20Z</time></trkpt><trkpt lat="45.08208279785396" lon="5.52119284041459"><ele>961.0</ele><time>2026-05-02T16:18:21Z</time></trkpt><trkpt lat="45.08218103771035" lon="5.521103631278041"><ele>961.0</ele><time>2026-05-02T16:18:22Z</time></trkpt><trkpt lat="45.08225557142791" lon="5.521002556438307"><ele>960.8</ele><time>2026-05-02T16:18:23Z</time></trkpt><trkpt lat="45.08231541959119" lon="5.520879270923226"><ele>960.5999999999999</ele><time>2026-05-02T16:18:24Z</time></trkpt><trkpt lat="45.08236124432658" lon="5.5207289111354365"><ele>960.4</ele><time>2026-05-02T16:18:25Z</time></trkpt><trkpt lat="45.08237873363671" lon="5.52060814763142"><ele>960.2</ele><time>2026-05-02T16:18:26Z</time></trkpt><trkpt lat="45.0824104943572" lon="5.520488273115032"><ele>960.0</ele><time>2026-05-02T16:18:27Z</time></trkpt><trkpt lat="45.082451200173516" lon="5.520410338296232"><ele>964.25</ele><time>2026-05-02T16:18:28Z</time></trkpt><trkpt lat="45.08252555387166" lon="5.5203204768844305"><ele>968.5</ele><time>2026-05-02T16:18:29Z</time></trkpt><trkpt lat="45.08263362931423" lon="5.520216419067058"><ele>972.75</ele><time>2026-05-02T16:18:30Z</time></trkpt><trkpt lat="45.08276221556981" lon="5.520164192590506"><ele>977.0</ele><time>2026-05-02T16:18:31Z</time></trkpt><trkpt lat="45.08292225126399" lon="5.520096093962087"><ele>977.0</ele><time>2026-05-02T16:18:32Z</time></trkpt><trkpt lat="45.08308154788272" lon="5.520057647439772"><ele>977.0</ele><time>2026-05-02T16:18:33Z</time></trkpt><trkpt lat="45.08324958771723" lon="5.520028066261722"><ele>977.0</ele><time>2026-05-02T16:18:34Z</time></trkpt><trkpt lat="45.083426286241256" lon="5.5200248824087605"><ele>971.6666666666667</ele><time>2026-05-02T16:18:35Z</time></trkpt><trkpt lat="45.083608952122226" lon="5.5200610287151575"><ele>966.3333333333333</ele><time>2026-05-02T16:18:36Z</time></trkpt><trkpt lat="45.08380066213524" lon="5.520181345831639"><ele>961.0</ele><time>2026-05-02T16:18:37Z</time></trkpt><trkpt lat="45.0839773408011" lon="5.520268606781824"><ele>960.3333333333333</ele><time>2026-05-02T16:18:38Z</time></trkpt><trkpt lat="45.0841339834587" lon="5.520303846457102"><ele>959.6666666666667</ele><time>2026-05-02T16:18:39Z</time></trkpt><trkpt lat="45.08429397882849" lon="5.5202845737444175"><ele>959.0</ele><time>2026-05-02T16:18:40Z</time></trkpt><trkpt lat="45.084440461643986" lon="5.5202662917011"><ele>959.0</ele><time>2026-05-02T16:18:41Z</time></trkpt><trkpt lat="45.08455865538519" lon="5.520295963905602"><ele>959.0</ele><time>2026-05-02T16:18:42Z</time></trkpt><trkpt lat="45.08465848006542" lon="5.520417476489813"><ele>959.0</ele><time>2026-05-02T16:18:43Z</time></trkpt><trkpt lat="45.084767185474796" lon="5.520608299800583"><ele>959.0</ele><time>2026-05-02T16:18:44Z</time></trkpt><trkpt lat="45.08488704203711" lon="5.52082293116968"><ele>953.3333333333334</ele><time>2026-05-02T16:18:45Z</time></trkpt><trkpt lat="45.085025241918316" lon="5.5210547302836055"><ele>947.6666666666667</ele><time>2026-05-02T16:18:46Z</time></trkpt><trkpt lat="45.08518104798756" lon="5.52127641729357"><ele>942.0</ele><time>2026-05-02T16:18:47Z</time></trkpt><trkpt lat="45.085295324520104" lon="5.52150625917193"><ele>941.0</ele><time>2026-05-02T16:18:48Z</time></trkpt><trkpt lat="45.085394934421515" lon="5.521730814139954"><ele>940.0</ele><time>2026-05-02T16:18:49Z</time></trkpt><trkpt lat="45.08550069043105" lon="5.521928589830999"><ele>939.0</ele><time>2026-05-02T16:18:50Z</time></trkpt><trkpt lat="45.08563358288984" lon="5.522069442316726"><ele>937.3333333333333</ele><time>2026-05-02T16:18:51Z</time></trkpt><trkpt lat="45.08576213586777" lon="5.522214987086688"><ele>935.6666666666666</ele><time>2026-05-02T16:18:52Z</time></trkpt><trkpt lat="45.085871343447074" lon="5.522381383657896"><ele>934.0</ele><time>2026-05-02T16:18:53Z</time></trkpt><trkpt lat="45.085968997962674" lon="5.522549341825971"><ele>934.0</ele><time>2026-05-02T16:18:53.999Z</time></trkpt><trkpt lat="45.08602139343092" lon="5.522738549648325"><ele>934.0</ele><time>2026-05-02T16:18:54.999Z</time></trkpt><trkpt lat="45.08602745578511" lon="5.522931237879566"><ele>934.0</ele><time>2026-05-02T16:18:55.999Z</time></trkpt><trkpt lat="45.08597941236506" lon="5.523110191156397"><ele>934.0</ele><time>2026-05-02T16:18:56.999Z</time></trkpt><trkpt lat="45.08593296572485" lon="5.523315057255939"><ele>934.0</ele><time>2026-05-02T16:18:57.999Z</time></trkpt><trkpt lat="45.085894463086326" lon="5.523480157503932"><ele>934.0000000000001</ele><time>2026-05-02T16:18:58.999Z</time></trkpt><trkpt lat="45.08585736773433" lon="5.523636129357398"><ele>934.0000000000001</ele><time>2026-05-02T16:18:59.999Z</time></trkpt><trkpt lat="45.085828015703434" lon="5.5237595434711855"><ele>934.0</ele><time>2026-05-02T16:19:00.999Z</time></trkpt><trkpt lat="45.08580183281078" lon="5.523882218748941"><ele>934.0</ele><time>2026-05-02T16:19:01.999Z</time></trkpt><trkpt lat="45.085786151915485" lon="5.523996423510653"><ele>933.8000000000001</ele><time>2026-05-02T16:19:02.999Z</time></trkpt><trkpt lat="45.085792915950414" lon="5.5240937126033"><ele>933.6000000000001</ele><time>2026-05-02T16:19:03.999Z</time></trkpt><trkpt lat="45.085778163771465" lon="5.524230404039535"><ele>933.4</ele><time>2026-05-02T16:19:04.999Z</time></trkpt><trkpt lat="45.085702090491814" lon="5.524374442519119"><ele>933.2</ele><time>2026-05-02T16:19:05.999Z</time></trkpt><trkpt lat="45.08563669319663" lon="5.524554315710636"><ele>933.0</ele><time>2026-05-02T16:19:06.999Z</time></trkpt><trkpt lat="45.08560790919825" lon="5.52471746882002"><ele>932.8</ele><time>2026-05-02T16:19:07.999Z</time></trkpt><trkpt lat="45.0855691598405" lon="5.524839696654369"><ele>932.5999999999999</ele><time>2026-05-02T16:19:08.999Z</time></trkpt><trkpt lat="45.08553504472268" lon="5.524961561203673"><ele>932.4000000000001</ele><time>2026-05-02T16:19:09.999Z</time></trkpt><trkpt lat="45.08549430334317" lon="5.525126995554396"><ele>932.2</ele><time>2026-05-02T16:19:10.999Z</time></trkpt><trkpt lat="45.08543604469456" lon="5.525276744564163"><ele>932.0</ele><time>2026-05-02T16:19:11.999Z</time></trkpt><trkpt lat="45.085414940144666" lon="5.525437357511246"><ele>932.0</ele><time>2026-05-02T16:19:12.999Z</time></trkpt><trkpt lat="45.08537335266242" lon="5.525619299385261"><ele>932.0</ele><time>2026-05-02T16:19:13.999Z</time></trkpt><trkpt lat="45.08532252626803" lon="5.5258105418275205"><ele>932.0</ele><time>2026-05-02T16:19:14.999Z</time></trkpt><trkpt lat="45.0852695976541" lon="5.526022349099045"><ele>932.0</ele><time>2026-05-02T16:19:15.999Z</time></trkpt><trkpt lat="45.085216021915414" lon="5.526232066760608"><ele>933.0</ele><time>2026-05-02T16:19:16.999Z</time></trkpt><trkpt lat="45.08515981574144" lon="5.526451192158625"><ele>934.0</ele><time>2026-05-02T16:19:17.999Z</time></trkpt><trkpt lat="45.08510307201941" lon="5.5266718786462965"><ele>935.0</ele><time>2026-05-02T16:19:18.999Z</time></trkpt><trkpt lat="45.085040022856525" lon="5.526919890404512"><ele>937.0</ele><time>2026-05-02T16:19:19.999Z</time></trkpt><trkpt lat="45.08495546499202" lon="5.527164938561291"><ele>939.0</ele><time>2026-05-02T16:19:20.999Z</time></trkpt><trkpt lat="45.08488937116855" lon="5.52741754166823"><ele>941.0</ele><time>2026-05-02T16:19:21.999Z</time></trkpt><trkpt lat="45.084840370141734" lon="5.527706422029282"><ele>942.3333333333334</ele><time>2026-05-02T16:19:22.999Z</time></trkpt><trkpt lat="45.08478246635154" lon="5.52798832767276"><ele>943.6666666666667</ele><time>2026-05-02T16:19:23.999Z</time></trkpt><trkpt lat="45.08471706897919" lon="5.528234312676991"><ele>945.0</ele><time>2026-05-02T16:19:24.999Z</time></trkpt><trkpt lat="45.084672144773386" lon="5.528461194855261"><ele>945.0</ele><time>2026-05-02T16:19:25.999Z</time></trkpt><trkpt lat="45.08463112707312" lon="5.5286985949894"><ele>945.0</ele><time>2026-05-02T16:19:26.999Z</time></trkpt><trkpt lat="45.084603343154846" lon="5.528959660748432"><ele>945.0</ele><time>2026-05-02T16:19:27.999Z</time></trkpt><trkpt lat="45.08457909492991" lon="5.529207339327951"><ele>945.6666666666667</ele><time>2026-05-02T16:19:28.999Z</time></trkpt><trkpt lat="45.08455608992931" lon="5.529453709626249"><ele>946.3333333333334</ele><time>2026-05-02T16:19:29.999Z</time></trkpt><trkpt lat="45.084522606193595" lon="5.529695818938797"><ele>947.0</ele><time>2026-05-02T16:19:30.999Z</time></trkpt><trkpt lat="45.08446848171953" lon="5.529925326858146"><ele>948.0</ele><time>2026-05-02T16:19:31.999Z</time></trkpt><trkpt lat="45.084410214932454" lon="5.530175709664189"><ele>949.0</ele><time>2026-05-02T16:19:32.999Z</time></trkpt><trkpt lat="45.08431219313312" lon="5.530397679021238"><ele>950.0</ele><time>2026-05-02T16:19:33.999Z</time></trkpt><trkpt lat="45.084197870033314" lon="5.530596957065947"><ele>949.6666666666667</ele><time>2026-05-02T16:19:34.999Z</time></trkpt><trkpt lat="45.08405422064714" lon="5.530777536407509"><ele>949.3333333333333</ele><time>2026-05-02T16:19:35.999Z</time></trkpt><trkpt lat="45.08390718780396" lon="5.5309517880594035"><ele>949.0</ele><time>2026-05-02T16:19:36.999Z</time></trkpt><trkpt lat="45.083755121023124" lon="5.531115606306862"><ele>952.3333333333333</ele><time>2026-05-02T16:19:37.999Z</time></trkpt><trkpt lat="45.083594775766315" lon="5.531276080940462"><ele>955.6666666666667</ele><time>2026-05-02T16:19:38.999Z</time></trkpt><trkpt lat="45.08343763808305" lon="5.53143380403432"><ele>959.0</ele><time>2026-05-02T16:19:39.999Z</time></trkpt><trkpt lat="45.08326802606617" lon="5.5315806177998414"><ele>955.0</ele><time>2026-05-02T16:19:40.999Z</time></trkpt><trkpt lat="45.083099240391746" lon="5.53173509042596"><ele>951.0</ele><time>2026-05-02T16:19:41.999Z</time></trkpt><trkpt lat="45.082933657963785" lon="5.531885550436982"><ele>947.0</ele><time>2026-05-02T16:19:42.999Z</time></trkpt><trkpt lat="45.08275858208588" lon="5.532038321790845"><ele>949.0</ele><time>2026-05-02T16:19:43.999Z</time></trkpt><trkpt lat="45.082576778223135" lon="5.5322048100087935"><ele>951.0</ele><time>2026-05-02T16:19:44.999Z</time></trkpt><trkpt lat="45.082402346386665" lon="5.532351347176605"><ele>953.0</ele><time>2026-05-02T16:19:45.999Z</time></trkpt><trkpt lat="45.08223825227906" lon="5.532499860362984"><ele>948.0</ele><time>2026-05-02T16:19:46.999Z</time></trkpt><trkpt lat="45.08206530247648" lon="5.532640602434054"><ele>943.0</ele><time>2026-05-02T16:19:47.999Z</time></trkpt><trkpt lat="45.081890468319195" lon="5.532772527184546"><ele>938.0</ele><time>2026-05-02T16:19:48.999Z</time></trkpt><trkpt lat="45.08170514721612" lon="5.53288878196534"><ele>941.3333333333334</ele><time>2026-05-02T16:19:49.999Z</time></trkpt><trkpt lat="45.08151936261036" lon="5.532991963164249"><ele>944.6666666666667</ele><time>2026-05-02T16:19:50.998Z</time></trkpt><trkpt lat="45.08132861877055" lon="5.533088961409696"><ele>948.0</ele><time>2026-05-02T16:19:51.998Z</time></trkpt><trkpt lat="45.08113799617888" lon="5.533189608047302"><ele>948.0</ele><time>2026-05-02T16:19:52.998Z</time></trkpt><trkpt lat="45.08095111817664" lon="5.533297003019411"><ele>948.0</ele><time>2026-05-02T16:19:53.998Z</time></trkpt><trkpt lat="45.0807627898475" lon="5.5334125991566"><ele>948.0</ele><time>2026-05-02T16:19:54.998Z</time></trkpt><trkpt lat="45.080580653047605" lon="5.533530741604244"><ele>946.3333333333333</ele><time>2026-05-02T16:19:55.998Z</time></trkpt><trkpt lat="45.08040232720338" lon="5.533651959194921"><ele>944.6666666666666</ele><time>2026-05-02T16:19:56.998Z</time></trkpt><trkpt lat="45.080230298116085" lon="5.533770699187769"><ele>943.0</ele><time>2026-05-02T16:19:57.998Z</time></trkpt><trkpt lat="45.080048638305456" lon="5.533892613481853"><ele>944.0</ele><time>2026-05-02T16:19:58.998Z</time></trkpt><trkpt lat="45.079872182900544" lon="5.534011405071253"><ele>945.0</ele><time>2026-05-02T16:19:59.998Z</time></trkpt><trkpt lat="45.07970360840427" lon="5.53413353694721"><ele>946.0</ele><time>2026-05-02T16:20:00.998Z</time></trkpt><trkpt lat="45.079543027606206" lon="5.534268686387139"><ele>946.0</ele><time>2026-05-02T16:20:01.998Z</time></trkpt><trkpt lat="45.07939378840123" lon="5.534413580446751"><ele>946.0</ele><time>2026-05-02T16:20:02.998Z</time></trkpt><trkpt lat="45.07925553627249" lon="5.534568147242115"><ele>946.0</ele><time>2026-05-02T16:20:03.998Z</time></trkpt><trkpt lat="45.07912798920338" lon="5.534747034970099"><ele>948.0</ele><time>2026-05-02T16:20:04.998Z</time></trkpt><trkpt lat="45.07898916957731" lon="5.53493641809282"><ele>950.0</ele><time>2026-05-02T16:20:05.998Z</time></trkpt><trkpt lat="45.078856094771254" lon="5.535147492309207"><ele>952.0</ele><time>2026-05-02T16:20:06.998Z</time></trkpt><trkpt lat="45.078729580026575" lon="5.535348161345176"><ele>952.3333333333333</ele><time>2026-05-02T16:20:07.998Z</time></trkpt><trkpt lat="45.07860134511295" lon="5.535550636916098"><ele>952.6666666666667</ele><time>2026-05-02T16:20:08.998Z</time></trkpt><trkpt lat="45.07848714478269" lon="5.535729487593621"><ele>953.0</ele><time>2026-05-02T16:20:09.998Z</time></trkpt><trkpt lat="45.07837652601238" lon="5.535925801866258"><ele>953.6666666666667</ele><time>2026-05-02T16:20:10.998Z</time></trkpt><trkpt lat="45.07826069641666" lon="5.536163083895464"><ele>954.3333333333333</ele><time>2026-05-02T16:20:11.998Z</time></trkpt><trkpt lat="45.07817042064959" lon="5.536363694037536"><ele>955.0</ele><time>2026-05-02T16:20:12.998Z</time></trkpt><trkpt lat="45.07808199087381" lon="5.53653411898472"><ele>955.0</ele><time>2026-05-02T16:20:13.998Z</time></trkpt><trkpt lat="45.07797387768348" lon="5.53669263897553"><ele>955.0</ele><time>2026-05-02T16:20:14.998Z</time></trkpt><trkpt lat="45.07782475888297" lon="5.536808885452849"><ele>955.0</ele><time>2026-05-02T16:20:15.998Z</time></trkpt><trkpt lat="45.077665660182106" lon="5.536874747739704"><ele>955.0</ele><time>2026-05-02T16:20:16.998Z</time></trkpt><trkpt lat="45.07747976453645" lon="5.536914110598586"><ele>955.0</ele><time>2026-05-02T16:20:18Z</time></trkpt><trkpt lat="45.07729771555351" lon="5.5369025439894255"><ele>955.0</ele><time>2026-05-02T16:20:19Z</time></trkpt><trkpt lat="45.077137547562295" lon="5.536907494513839"><ele>954.75</ele><time>2026-05-02T16:20:20Z</time></trkpt><trkpt lat="45.07698407204696" lon="5.536930520006189"><ele>954.5</ele><time>2026-05-02T16:20:21Z</time></trkpt><trkpt lat="45.07684090691863" lon="5.536935358637832"><ele>954.25</ele><time>2026-05-02T16:20:22Z</time></trkpt><trkpt lat="45.076706667873836" lon="5.536944194129332"><ele>954.0</ele><time>2026-05-02T16:20:23Z</time></trkpt><trkpt lat="45.076580421865636" lon="5.53697155851518"><ele>954.5</ele><time>2026-05-02T16:20:24Z</time></trkpt><trkpt lat="45.076452074133165" lon="5.537015106722355"><ele>955.0</ele><time>2026-05-02T16:20:25Z</time></trkpt><trkpt lat="45.07634149459073" lon="5.5371120231910025"><ele>955.5</ele><time>2026-05-02T16:20:26Z</time></trkpt><trkpt lat="45.076244784848896" lon="5.537264724871682"><ele>956.0</ele><time>2026-05-02T16:20:27Z</time></trkpt><trkpt lat="45.076184909679604" lon="5.5374654294181145"><ele>956.0</ele><time>2026-05-02T16:20:28Z</time></trkpt><trkpt lat="45.07612230561325" lon="5.537700809630804"><ele>956.0</ele><time>2026-05-02T16:20:29Z</time></trkpt><trkpt lat="45.07606396404362" lon="5.537923117510681"><ele>956.0</ele><time>2026-05-02T16:20:30Z</time></trkpt><trkpt lat="45.07600568174576" lon="5.538131622729771"><ele>954.0</ele><time>2026-05-02T16:20:31Z</time></trkpt><trkpt lat="45.07590467459408" lon="5.538305887632514"><ele>952.0</ele><time>2026-05-02T16:20:32Z</time></trkpt><trkpt lat="45.07575917835495" lon="5.538405729545824"><ele>950.0</ele><time>2026-05-02T16:20:33Z</time></trkpt><trkpt lat="45.075626809192244" lon="5.538503965579517"><ele>950.25</ele><time>2026-05-02T16:20:34Z</time></trkpt><trkpt lat="45.07551315496439" lon="5.538607821337522"><ele>950.5</ele><time>2026-05-02T16:20:35Z</time></trkpt><trkpt lat="45.07538544583454" lon="5.538700224350788"><ele>950.75</ele><time>2026-05-02T16:20:36Z</time></trkpt><trkpt lat="45.0752642419509" lon="5.538786644425678"><ele>951.0</ele><time>2026-05-02T16:20:37Z</time></trkpt><trkpt lat="45.07513450200702" lon="5.538882090513455"><ele>951.0</ele><time>2026-05-02T16:20:38Z</time></trkpt><trkpt lat="45.07500608697674" lon="5.538978336932485"><ele>951.0</ele><time>2026-05-02T16:20:39Z</time></trkpt><trkpt lat="45.07488436728959" lon="5.539071322491426"><ele>951.0</ele><time>2026-05-02T16:20:40Z</time></trkpt><trkpt lat="45.07476117176384" lon="5.5391681738993785"><ele>951.0</ele><time>2026-05-02T16:20:41Z</time></trkpt><trkpt lat="45.07464143295461" lon="5.53926675051345"><ele>950.75</ele><time>2026-05-02T16:20:42Z</time></trkpt><trkpt lat="45.07450556816726" lon="5.539355900292604"><ele>950.5</ele><time>2026-05-02T16:20:43Z</time></trkpt><trkpt lat="45.074371439235634" lon="5.539450866430499"><ele>950.25</ele><time>2026-05-02T16:20:44Z</time></trkpt><trkpt lat="45.074242753062805" lon="5.539538778668206"><ele>950.0</ele><time>2026-05-02T16:20:45Z</time></trkpt><trkpt lat="45.07410373602963" lon="5.539629437311634"><ele>950.0</ele><time>2026-05-02T16:20:46Z</time></trkpt><trkpt lat="45.073981893957196" lon="5.539721103493664"><ele>950.0</ele><time>2026-05-02T16:20:47Z</time></trkpt><trkpt lat="45.073850445183595" lon="5.539813307263705"><ele>950.0</ele><time>2026-05-02T16:20:48Z</time></trkpt><trkpt lat="45.07373034402952" lon="5.539901950290806"><ele>950.0</ele><time>2026-05-02T16:20:49Z</time></trkpt><trkpt lat="45.07362113702235" lon="5.539978729230383"><ele>950.0</ele><time>2026-05-02T16:20:50Z</time></trkpt><trkpt lat="45.07352105226638" lon="5.540054122651846"><ele>950.0</ele><time>2026-05-02T16:20:51Z</time></trkpt><trkpt lat="45.07341102022889" lon="5.5401235187385245"><ele>950.0</ele><time>2026-05-02T16:20:52Z</time></trkpt><trkpt lat="45.073304749266946" lon="5.540211211205063"><ele>950.0</ele><time>2026-05-02T16:20:53Z</time></trkpt><trkpt lat="45.07324291731713" lon="5.540289358558565"><ele>950.0</ele><time>2026-05-02T16:20:54Z</time></trkpt><trkpt lat="45.07320066996809" lon="5.540408606966268"><ele>951.0</ele><time>2026-05-02T16:20:55Z</time></trkpt><trkpt lat="45.07321038731036" lon="5.540569938351045"><ele>952.0</ele><time>2026-05-02T16:20:56Z</time></trkpt><trkpt lat="45.07328858465554" lon="5.540715220769914"><ele>953.0</ele><time>2026-05-02T16:20:57Z</time></trkpt><trkpt lat="45.07342301502606" lon="5.540758050165555"><ele>954.0</ele><time>2026-05-02T16:20:58Z</time></trkpt><trkpt lat="45.07353630640755" lon="5.540780144855125"><ele>954.0</ele><time>2026-05-02T16:20:58.999Z</time></trkpt><trkpt lat="45.07364880565775" lon="5.540799647334583"><ele>954.0000000000001</ele><time>2026-05-02T16:20:59.999Z</time></trkpt><trkpt lat="45.07375418591203" lon="5.540832326630898"><ele>954.0000000000001</ele><time>2026-05-02T16:21:00.999Z</time></trkpt><trkpt lat="45.07384606231324" lon="5.540879755363997"><ele>954.0</ele><time>2026-05-02T16:21:01.999Z</time></trkpt><trkpt lat="45.0739369108617" lon="5.540978183706412"><ele>954.0</ele><time>2026-05-02T16:21:02.999Z</time></trkpt><trkpt lat="45.074004356639016" lon="5.541104000768438"><ele>955.5</ele><time>2026-05-02T16:21:03.999Z</time></trkpt><trkpt lat="45.074046470990176" lon="5.541271020366106"><ele>957.0</ele><time>2026-05-02T16:21:04.999Z</time></trkpt><trkpt lat="45.074051488195316" lon="5.541446788757937"><ele>958.5</ele><time>2026-05-02T16:21:05.999Z</time></trkpt><trkpt lat="45.07401778488554" lon="5.541612180398155"><ele>960.0</ele><time>2026-05-02T16:21:06.999Z</time></trkpt><trkpt lat="45.07397232434297" lon="5.541789196477722"><ele>960.0</ele><time>2026-05-02T16:21:07.999Z</time></trkpt><trkpt lat="45.07392008465294" lon="5.541954495651916"><ele>960.0</ele><time>2026-05-02T16:21:08.999Z</time></trkpt><trkpt lat="45.073873681023755" lon="5.542104761642854"><ele>960.0</ele><time>2026-05-02T16:21:09.999Z</time></trkpt><trkpt lat="45.07383265714326" lon="5.542265396753849"><ele>960.0</ele><time>2026-05-02T16:21:10.999Z</time></trkpt><trkpt lat="45.073814416468" lon="5.5424412647519175"><ele>960.2</ele><time>2026-05-02T16:21:11.999Z</time></trkpt><trkpt lat="45.0737682525575" lon="5.542594825601734"><ele>960.4</ele><time>2026-05-02T16:21:12.999Z</time></trkpt><trkpt lat="45.07374123637551" lon="5.542723957063201"><ele>960.5999999999999</ele><time>2026-05-02T16:21:13.999Z</time></trkpt><trkpt lat="45.07371218850982" lon="5.542842646523119"><ele>960.8</ele><time>2026-05-02T16:21:14.999Z</time></trkpt><trkpt lat="45.07368240140226" lon="5.542961793003939"><ele>961.0</ele><time>2026-05-02T16:21:15.999Z</time></trkpt><trkpt lat="45.07363412674302" lon="5.543074336712954"><ele>960.9999999999999</ele><time>2026-05-02T16:21:16.999Z</time></trkpt><trkpt lat="45.07359302850581" lon="5.543164949647311"><ele>961.0</ele><time>2026-05-02T16:21:17.999Z</time></trkpt><trkpt lat="45.07354275254234" lon="5.543288984649848"><ele>961.0</ele><time>2026-05-02T16:21:18.999Z</time></trkpt><trkpt lat="45.07348149312556" lon="5.5433766776160445"><ele>961.0</ele><time>2026-05-02T16:21:19.999Z</time></trkpt><trkpt lat="45.07342066330704" lon="5.543432760245757"><ele>960.9999999999999</ele><time>2026-05-02T16:21:20.999Z</time></trkpt><trkpt lat="45.073366922910246" lon="5.543481203894653"><ele>961.0</ele><time>2026-05-02T16:21:21.999Z</time></trkpt><trkpt lat="45.07327469087419" lon="5.543573052353616"><ele>966.3333333333333</ele><time>2026-05-02T16:21:23.999Z</time></trkpt><trkpt lat="45.07319853527532" lon="5.5436597165339405"><ele>971.6666666666666</ele><time>2026-05-02T16:21:25.999Z</time></trkpt><trkpt lat="45.07313648936642" lon="5.5437342530620235"><ele>977.0</ele><time>2026-05-02T16:21:26.999Z</time></trkpt><trkpt lat="45.07309937406276" lon="5.543825970716902"><ele>982.3333333333333</ele><time>2026-05-02T16:21:27.999Z</time></trkpt><trkpt lat="45.07307705050191" lon="5.5439282427610515"><ele>987.6666666666666</ele><time>2026-05-02T16:21:28.999Z</time></trkpt><trkpt lat="45.07308282641202" lon="5.544043846174294"><ele>993.0</ele><time>2026-05-02T16:21:29.999Z</time></trkpt><trkpt lat="45.073106867721364" lon="5.544148732979284"><ele>994.0</ele><time>2026-05-02T16:21:30.999Z</time></trkpt><trkpt lat="45.073164585046406" lon="5.544284131447524"><ele>995.0</ele><time>2026-05-02T16:21:31.999Z</time></trkpt><trkpt lat="45.073230075665336" lon="5.544404287948335"><ele>996.0</ele><time>2026-05-02T16:21:32.999Z</time></trkpt><trkpt lat="45.07331399098257" lon="5.544526965552698"><ele>997.0</ele><time>2026-05-02T16:21:33.999Z</time></trkpt><trkpt lat="45.07341859151267" lon="5.544664406286471"><ele>991.5</ele><time>2026-05-02T16:21:34.999Z</time></trkpt><trkpt lat="45.07352170399337" lon="5.544802487038385"><ele>986.0</ele><time>2026-05-02T16:21:35.999Z</time></trkpt><trkpt lat="45.07361709636807" lon="5.544936552752269"><ele>980.5</ele><time>2026-05-02T16:21:36.999Z</time></trkpt><trkpt lat="45.07369705198403" lon="5.54506661194675"><ele>975.0</ele><time>2026-05-02T16:21:37.999Z</time></trkpt><trkpt lat="45.07375956786055" lon="5.545205801216886"><ele>975.0</ele><time>2026-05-02T16:21:38.999Z</time></trkpt><trkpt lat="45.07380358383964" lon="5.545363412744588"><ele>975.0</ele><time>2026-05-02T16:21:39.999Z</time></trkpt><trkpt lat="45.073841658570004" lon="5.545534340449604"><ele>975.0</ele><time>2026-05-02T16:21:40.999Z</time></trkpt><trkpt lat="45.073875982812055" lon="5.5457073611834815"><ele>975.0</ele><time>2026-05-02T16:21:41.999Z</time></trkpt><trkpt lat="45.07390272365344" lon="5.5458604242724725"><ele>973.2</ele><time>2026-05-02T16:21:42.999Z</time></trkpt><trkpt lat="45.073932597802" lon="5.546000262691624"><ele>971.4</ele><time>2026-05-02T16:21:43.999Z</time></trkpt><trkpt lat="45.073937291728214" lon="5.5461431763986235"><ele>969.5999999999999</ele><time>2026-05-02T16:21:44.999Z</time></trkpt><trkpt lat="45.07389727265368" lon="5.546258138833233"><ele>967.8</ele><time>2026-05-02T16:21:45.999Z</time></trkpt><trkpt lat="45.07386553059148" lon="5.546369965072544"><ele>966.0</ele><time>2026-05-02T16:21:46.999Z</time></trkpt><trkpt lat="45.073831978492876" lon="5.546470415104717"><ele>965.4</ele><time>2026-05-02T16:21:47.999Z</time></trkpt><trkpt lat="45.07379756815834" lon="5.546556007122431"><ele>964.8</ele><time>2026-05-02T16:21:48.999Z</time></trkpt><trkpt lat="45.0737281480567" lon="5.5466487313387525"><ele>964.1999999999999</ele><time>2026-05-02T16:21:50.999Z</time></trkpt><trkpt lat="45.073637782111746" lon="5.546705082458508"><ele>963.5999999999999</ele><time>2026-05-02T16:21:51.999Z</time></trkpt><trkpt lat="45.07354254601531" lon="5.546760603650782"><ele>963.0</ele><time>2026-05-02T16:21:52.999Z</time></trkpt><trkpt lat="45.07344179506479" lon="5.546771806638355"><ele>963.0</ele><time>2026-05-02T16:21:53.999Z</time></trkpt><trkpt lat="45.07348930981765" lon="5.546933211259351"><ele>963.0</ele><time>2026-05-02T16:21:54.999Z</time></trkpt><trkpt lat="45.07349362833105" lon="5.547058213772766"><ele>963.0</ele><time>2026-05-02T16:21:55.998Z</time></trkpt><trkpt lat="45.07354645293879" lon="5.547219094689235"><ele>963.0</ele><time>2026-05-02T16:21:56.998Z</time></trkpt><trkpt lat="45.07360685808626" lon="5.547404332697999"><ele>964.0</ele><time>2026-05-02T16:21:57.998Z</time></trkpt><trkpt lat="45.07365092639245" lon="5.547587175253501"><ele>965.0</ele><time>2026-05-02T16:21:58.998Z</time></trkpt><trkpt lat="45.07372105336035" lon="5.547742385537886"><ele>966.0</ele><time>2026-05-02T16:21:59.998Z</time></trkpt><trkpt lat="45.073749124195814" lon="5.547935562080259"><ele>967.0</ele><time>2026-05-02T16:22:00.998Z</time></trkpt><trkpt lat="45.07379644026131" lon="5.548118330655962"><ele>967.25</ele><time>2026-05-02T16:22:01.998Z</time></trkpt><trkpt lat="45.07386004494532" lon="5.548269483258374"><ele>967.5</ele><time>2026-05-02T16:22:02.998Z</time></trkpt><trkpt lat="45.07394261602679" lon="5.548419164478077"><ele>967.75</ele><time>2026-05-02T16:22:03.998Z</time></trkpt><trkpt lat="45.074051012189166" lon="5.548554474807144"><ele>968.0</ele><time>2026-05-02T16:22:04.998Z</time></trkpt><trkpt lat="45.07416518875094" lon="5.548686589213165"><ele>970.0</ele><time>2026-05-02T16:22:05.998Z</time></trkpt><trkpt lat="45.07428171452672" lon="5.548812200392915"><ele>972.0</ele><time>2026-05-02T16:22:06.998Z</time></trkpt><trkpt lat="45.07439596634122" lon="5.5489299525724665"><ele>974.0</ele><time>2026-05-02T16:22:07.998Z</time></trkpt><trkpt lat="45.0745100886481" lon="5.549048980338185"><ele>976.0</ele><time>2026-05-02T16:22:08.998Z</time></trkpt><trkpt lat="45.07461584862781" lon="5.549175228494186"><ele>976.0</ele><time>2026-05-02T16:22:09.998Z</time></trkpt><trkpt lat="45.07472248187026" lon="5.549291097318606"><ele>976.0</ele><time>2026-05-02T16:22:10.998Z</time></trkpt><trkpt lat="45.07481445697602" lon="5.549425639390047"><ele>976.0</ele><time>2026-05-02T16:22:11.998Z</time></trkpt><trkpt lat="45.0749166529719" lon="5.549533597947962"><ele>976.0</ele><time>2026-05-02T16:22:12.998Z</time></trkpt><trkpt lat="45.075009064435655" lon="5.549640977938433"><ele>976.75</ele><time>2026-05-02T16:22:13.998Z</time></trkpt><trkpt lat="45.075107582849796" lon="5.549730272886566"><ele>977.5</ele><time>2026-05-02T16:22:14.998Z</time></trkpt><trkpt lat="45.07521447691943" lon="5.5498038519790365"><ele>978.25</ele><time>2026-05-02T16:22:15.998Z</time></trkpt><trkpt lat="45.07532008687082" lon="5.549875294077641"><ele>979.0</ele><time>2026-05-02T16:22:16.998Z</time></trkpt><trkpt lat="45.07542618572598" lon="5.549952644211431"><ele>979.0</ele><time>2026-05-02T16:22:17.998Z</time></trkpt><trkpt lat="45.07553179976601" lon="5.550040848441435"><ele>979.0</ele><time>2026-05-02T16:22:18.998Z</time></trkpt><trkpt lat="45.07564325281454" lon="5.550124605905097"><ele>979.0</ele><time>2026-05-02T16:22:19.998Z</time></trkpt><trkpt lat="45.07576089926922" lon="5.550202502042999"><ele>979.0</ele><time>2026-05-02T16:22:20.998Z</time></trkpt><trkpt lat="45.07588328114631" lon="5.55028152382469"><ele>980.25</ele><time>2026-05-02T16:22:21.998Z</time></trkpt><trkpt lat="45.07600408572572" lon="5.550359793636237"><ele>981.5</ele><time>2026-05-02T16:22:22.998Z</time></trkpt><trkpt lat="45.076123170661035" lon="5.550440172862015"><ele>982.75</ele><time>2026-05-02T16:22:24Z</time></trkpt><trkpt lat="45.07624408529877" lon="5.550529516826283"><ele>984.0</ele><time>2026-05-02T16:22:25Z</time></trkpt><trkpt lat="45.0763697865176" lon="5.550601179984694"><ele>984.0</ele><time>2026-05-02T16:22:26Z</time></trkpt><trkpt lat="45.07647951553426" lon="5.5506708014248165"><ele>984.0</ele><time>2026-05-02T16:22:27Z</time></trkpt><trkpt lat="45.07657973719093" lon="5.550745513947734"><ele>984.0</ele><time>2026-05-02T16:22:28Z</time></trkpt><trkpt lat="45.07668117912827" lon="5.550834493638865"><ele>984.0</ele><time>2026-05-02T16:22:29Z</time></trkpt><trkpt lat="45.07677342410832" lon="5.550960478113707"><ele>984.75</ele><time>2026-05-02T16:22:30Z</time></trkpt><trkpt lat="45.07686959812628" lon="5.5510822715734"><ele>985.5</ele><time>2026-05-02T16:22:31Z</time></trkpt><trkpt lat="45.07696671780992" lon="5.5511972418233615"><ele>986.25</ele><time>2026-05-02T16:22:32Z</time></trkpt><trkpt lat="45.07704695237865" lon="5.551345840710273"><ele>987.0</ele><time>2026-05-02T16:22:33Z</time></trkpt><trkpt lat="45.07714597845332" lon="5.551468533594118"><ele>987.0</ele><time>2026-05-02T16:22:34Z</time></trkpt><trkpt lat="45.0772336985603" lon="5.551634526793233"><ele>987.0</ele><time>2026-05-02T16:22:35Z</time></trkpt><trkpt lat="45.07732780289458" lon="5.5517909706533315"><ele>987.0</ele><time>2026-05-02T16:22:36Z</time></trkpt><trkpt lat="45.07742435233085" lon="5.551944512331106"><ele>987.0</ele><time>2026-05-02T16:22:37Z</time></trkpt><trkpt lat="45.0775145216961" lon="5.5521074884598605"><ele>984.5</ele><time>2026-05-02T16:22:38Z</time></trkpt><trkpt lat="45.07759868811323" lon="5.552277443162192"><ele>982.0</ele><time>2026-05-02T16:22:39Z</time></trkpt><trkpt lat="45.07768453175006" lon="5.5524504230498835"><ele>979.5</ele><time>2026-05-02T16:22:40Z</time></trkpt><trkpt lat="45.07776895661079" lon="5.552626908070746"><ele>977.0</ele><time>2026-05-02T16:22:41Z</time></trkpt><trkpt lat="45.077835514025296" lon="5.5528159973063085"><ele>979.0</ele><time>2026-05-02T16:22:42Z</time></trkpt><trkpt lat="45.07793080099637" lon="5.552976508797353"><ele>981.0</ele><time>2026-05-02T16:22:43Z</time></trkpt><trkpt lat="45.078017748095455" lon="5.55313560648097"><ele>983.0</ele><time>2026-05-02T16:22:44Z</time></trkpt><trkpt lat="45.078115386910014" lon="5.553257479149199"><ele>985.0</ele><time>2026-05-02T16:22:45Z</time></trkpt><trkpt lat="45.07821481501631" lon="5.553342447035574"><ele>982.75</ele><time>2026-05-02T16:22:46Z</time></trkpt><trkpt lat="45.078339013019104" lon="5.553389488105317"><ele>980.5</ele><time>2026-05-02T16:22:47Z</time></trkpt><trkpt lat="45.078460698975455" lon="5.553444797067591"><ele>978.25</ele><time>2026-05-02T16:22:48Z</time></trkpt><trkpt lat="45.0785732116425" lon="5.553455166431533"><ele>976.0</ele><time>2026-05-02T16:22:49Z</time></trkpt><trkpt lat="45.078675645682765" lon="5.553450530820825"><ele>976.0</ele><time>2026-05-02T16:22:50Z</time></trkpt><trkpt lat="45.07875850969993" lon="5.553443732229126"><ele>975.9999999999999</ele><time>2026-05-02T16:22:51Z</time></trkpt><trkpt lat="45.07888438315996" lon="5.55343450924191"><ele>975.9999999999999</ele><time>2026-05-02T16:22:53Z</time></trkpt><trkpt lat="45.07895569944602" lon="5.553430644424163"><ele>976.0</ele><time>2026-05-02T16:22:55Z</time></trkpt><trkpt lat="45.079047365452034" lon="5.55343733387015"><ele>976.0</ele><time>2026-05-02T16:23:00Z</time></trkpt><trkpt lat="45.07915267439931" lon="5.553534731223858"><ele>977.4</ele><time>2026-05-02T16:23:02Z</time></trkpt><trkpt lat="45.07925794316129" lon="5.55357324664942"><ele>978.8</ele><time>2026-05-02T16:23:04Z</time></trkpt><trkpt lat="45.07932232300535" lon="5.553528192412445"><ele>980.1999999999999</ele><time>2026-05-02T16:23:05Z</time></trkpt><trkpt lat="45.07937976852963" lon="5.553440865962185"><ele>981.5999999999999</ele><time>2026-05-02T16:23:05.999Z</time></trkpt><trkpt lat="45.07944701090779" lon="5.553347287560705"><ele>983.0</ele><time>2026-05-02T16:23:06.999Z</time></trkpt><trkpt lat="45.07953494166983" lon="5.5532789672412965"><ele>983.0</ele><time>2026-05-02T16:23:07.999Z</time></trkpt><trkpt lat="45.07964564079304" lon="5.55322607709918"><ele>983.0</ele><time>2026-05-02T16:23:08.999Z</time></trkpt><trkpt lat="45.079781245431526" lon="5.553176157227954"><ele>983.0</ele><time>2026-05-02T16:23:09.999Z</time></trkpt><trkpt lat="45.079927421807206" lon="5.553136912580411"><ele>983.0</ele><time>2026-05-02T16:23:10.999Z</time></trkpt><trkpt lat="45.08007374949195" lon="5.553120493983555"><ele>985.0</ele><time>2026-05-02T16:23:11.999Z</time></trkpt><trkpt lat="45.08023383378549" lon="5.553124184832776"><ele>987.0</ele><time>2026-05-02T16:23:12.999Z</time></trkpt><trkpt lat="45.080393194697706" lon="5.553186375318556"><ele>989.0</ele><time>2026-05-02T16:23:13.999Z</time></trkpt><trkpt lat="45.080542967170665" lon="5.553278611049826"><ele>989.0</ele><time>2026-05-02T16:23:14.999Z</time></trkpt><trkpt lat="45.08068549999729" lon="5.553382253232872"><ele>989.0</ele><time>2026-05-02T16:23:15.999Z</time></trkpt><trkpt lat="45.080821665635966" lon="5.553470236581597"><ele>989.0</ele><time>2026-05-02T16:23:16.999Z</time></trkpt><trkpt lat="45.08095390371261" lon="5.553580090223979"><ele>989.5</ele><time>2026-05-02T16:23:17.999Z</time></trkpt><trkpt lat="45.08108465374979" lon="5.553683988557537"><ele>990.0</ele><time>2026-05-02T16:23:18.999Z</time></trkpt><trkpt lat="45.081213916170796" lon="5.553787409399777"><ele>990.5</ele><time>2026-05-02T16:23:19.999Z</time></trkpt><trkpt lat="45.081343993591" lon="5.5538786982340325"><ele>991.0</ele><time>2026-05-02T16:23:20.999Z</time></trkpt><trkpt lat="45.08147959524326" lon="5.553955862262165"><ele>989.6666666666666</ele><time>2026-05-02T16:23:21.999Z</time></trkpt><trkpt lat="45.08162404752652" lon="5.554008767917048"><ele>988.3333333333333</ele><time>2026-05-02T16:23:22.999Z</time></trkpt><trkpt lat="45.081773315599435" lon="5.554021575130299"><ele>987.0</ele><time>2026-05-02T16:23:23.999Z</time></trkpt><trkpt lat="45.08192506106278" lon="5.553996212013055"><ele>987.0</ele><time>2026-05-02T16:23:24.999Z</time></trkpt><trkpt lat="45.08208517628013" lon="5.553965929130494"><ele>987.0</ele><time>2026-05-02T16:23:25.999Z</time></trkpt><trkpt lat="45.082247231170655" lon="5.553965821808317"><ele>987.0</ele><time>2026-05-02T16:23:26.999Z</time></trkpt><trkpt lat="45.08240751699473" lon="5.553921866553345"><ele>987.0</ele><time>2026-05-02T16:23:27.999Z</time></trkpt><trkpt lat="45.08256991764319" lon="5.553904028846311"><ele>987.0</ele><time>2026-05-02T16:23:28.999Z</time></trkpt><trkpt lat="45.08273044889917" lon="5.553886751341855"><ele>987.0</ele><time>2026-05-02T16:23:29.999Z</time></trkpt><trkpt lat="45.082890197069084" lon="5.553870425037635"><ele>987.0</ele><time>2026-05-02T16:23:30.999Z</time></trkpt><trkpt lat="45.08304798488907" lon="5.553844216985151"><ele>987.0</ele><time>2026-05-02T16:23:31.999Z</time></trkpt><trkpt lat="45.083205050934076" lon="5.553823157087521"><ele>987.0</ele><time>2026-05-02T16:23:32.999Z</time></trkpt><trkpt lat="45.08336898307827" lon="5.553804380936535"><ele>986.0</ele><time>2026-05-02T16:23:33.999Z</time></trkpt><trkpt lat="45.083527255508734" lon="5.553795348137829"><ele>985.0</ele><time>2026-05-02T16:23:34.999Z</time></trkpt><trkpt lat="45.083692596001946" lon="5.553794797890442"><ele>984.0</ele><time>2026-05-02T16:23:35.999Z</time></trkpt><trkpt lat="45.08385432271592" lon="5.55382652208758"><ele>984.0</ele><time>2026-05-02T16:23:36.999Z</time></trkpt><trkpt lat="45.084016088967886" lon="5.553839563002508"><ele>984.0</ele><time>2026-05-02T16:23:37.999Z</time></trkpt><trkpt lat="45.08416088243078" lon="5.553881213136328"><ele>984.0</ele><time>2026-05-02T16:23:38.999Z</time></trkpt><trkpt lat="45.084296545598825" lon="5.55392363232788"><ele>984.0</ele><time>2026-05-02T16:23:39.999Z</time></trkpt><trkpt lat="45.084439824338055" lon="5.55396197501023"><ele>983.0</ele><time>2026-05-02T16:23:40.999Z</time></trkpt><trkpt lat="45.084587128443815" lon="5.554002551580699"><ele>982.0</ele><time>2026-05-02T16:23:41.999Z</time></trkpt><trkpt lat="45.084728627113755" lon="5.554047896910037"><ele>981.0</ele><time>2026-05-02T16:23:42.999Z</time></trkpt><trkpt lat="45.0848703889095" lon="5.554082957592316"><ele>980.0</ele><time>2026-05-02T16:23:43.999Z</time></trkpt><trkpt lat="45.08501455456812" lon="5.5541206488223045"><ele>979.25</ele><time>2026-05-02T16:23:44.999Z</time></trkpt><trkpt lat="45.08515993481487" lon="5.554156324268236"><ele>978.5</ele><time>2026-05-02T16:23:45.999Z</time></trkpt><trkpt lat="45.08530674669947" lon="5.554189565553176"><ele>977.75</ele><time>2026-05-02T16:23:46.999Z</time></trkpt><trkpt lat="45.085454889599035" lon="5.554223342584803"><ele>977.0</ele><time>2026-05-02T16:23:47.999Z</time></trkpt><trkpt lat="45.0856032877471" lon="5.5542598011304465"><ele>977.0</ele><time>2026-05-02T16:23:48.999Z</time></trkpt><trkpt lat="45.08574245138736" lon="5.554319061196001"><ele>977.0</ele><time>2026-05-02T16:23:49.999Z</time></trkpt><trkpt lat="45.08588285588076" lon="5.554358006356806"><ele>977.0</ele><time>2026-05-02T16:23:50.999Z</time></trkpt><trkpt lat="45.086013825198116" lon="5.554394334461558"><ele>977.0</ele><time>2026-05-02T16:23:51.999Z</time></trkpt><trkpt lat="45.08613338264952" lon="5.554428345800122"><ele>977.0</ele><time>2026-05-02T16:23:52.999Z</time></trkpt><trkpt lat="45.08623547973474" lon="5.554458731521389"><ele>977.0</ele><time>2026-05-02T16:23:53.999Z</time></trkpt><trkpt lat="45.086330811905576" lon="5.554474895714776"><ele>977.0</ele><time>2026-05-02T16:23:54.999Z</time></trkpt><trkpt lat="45.086439352073306" lon="5.554499705476014"><ele>977.0</ele><time>2026-05-02T16:23:55.999Z</time></trkpt><trkpt lat="45.0865556089097" lon="5.554537905890129"><ele>977.0</ele><time>2026-05-02T16:23:56.999Z</time></trkpt><trkpt lat="45.08668602144877" lon="5.554579163703506"><ele>977.6666666666667</ele><time>2026-05-02T16:23:57.999Z</time></trkpt><trkpt lat="45.086828413797065" lon="5.554625161313325"><ele>978.3333333333333</ele><time>2026-05-02T16:23:58.999Z</time></trkpt><trkpt lat="45.08698037433401" lon="5.554670498544312"><ele>979.0</ele><time>2026-05-02T16:23:59.999Z</time></trkpt><trkpt lat="45.08713470465323" lon="5.554738267165487"><ele>979.0</ele><time>2026-05-02T16:24:00.999Z</time></trkpt><trkpt lat="45.08730077503826" lon="5.554786220410493"><ele>979.0</ele><time>2026-05-02T16:24:01.998Z</time></trkpt><trkpt lat="45.08747514941101" lon="5.55481181652933"><ele>979.0</ele><time>2026-05-02T16:24:02.998Z</time></trkpt><trkpt lat="45.08765185038246" lon="5.5548642534009955"><ele>980.0</ele><time>2026-05-02T16:24:03.998Z</time></trkpt><trkpt lat="45.08783508872482" lon="5.554940933860385"><ele>981.0</ele><time>2026-05-02T16:24:04.998Z</time></trkpt><trkpt lat="45.088030270042225" lon="5.554980203813459"><ele>982.0</ele><time>2026-05-02T16:24:05.998Z</time></trkpt><trkpt lat="45.08821648370117" lon="5.55502784587624"><ele>981.3333333333333</ele><time>2026-05-02T16:24:06.998Z</time></trkpt><trkpt lat="45.08840311530249" lon="5.555105594772378"><ele>980.6666666666667</ele><time>2026-05-02T16:24:07.998Z</time></trkpt><trkpt lat="45.08858718908808" lon="5.555138463131558"><ele>980.0</ele><time>2026-05-02T16:24:08.998Z</time></trkpt><trkpt lat="45.08876396157565" lon="5.555208725628641"><ele>980.0</ele><time>2026-05-02T16:24:09.998Z</time></trkpt><trkpt lat="45.08894042202051" lon="5.555258797437183"><ele>980.0</ele><time>2026-05-02T16:24:10.998Z</time></trkpt><trkpt lat="45.08910540725831" lon="5.555306573997353"><ele>980.0</ele><time>2026-05-02T16:24:11.998Z</time></trkpt><trkpt lat="45.089258956572735" lon="5.555351616766791"><ele>979.25</ele><time>2026-05-02T16:24:12.998Z</time></trkpt><trkpt lat="45.08939797398388" lon="5.555392396721154"><ele>978.5</ele><time>2026-05-02T16:24:13.998Z</time></trkpt><trkpt lat="45.08952077885378" lon="5.5554284208317135"><ele>977.75</ele><time>2026-05-02T16:24:14.998Z</time></trkpt><trkpt lat="45.08962004981691" lon="5.55545754133701"><ele>977.0</ele><time>2026-05-02T16:24:15.998Z</time></trkpt><trkpt lat="45.08970052189704" lon="5.5554811473547"><ele>977.0000000000001</ele><time>2026-05-02T16:24:16.998Z</time></trkpt><trkpt lat="45.089777231646174" lon="5.555480699678918"><ele>977.0</ele><time>2026-05-02T16:24:17.998Z</time></trkpt><trkpt lat="45.08983843716734" lon="5.555517113868189"><ele>977.0000000000001</ele><time>2026-05-02T16:24:18.998Z</time></trkpt><trkpt lat="45.089899753706554" lon="5.555554325169946"><ele>977.0000000000001</ele><time>2026-05-02T16:24:19.998Z</time></trkpt><trkpt lat="45.08995558774355" lon="5.555612074122674"><ele>977.0</ele><time>2026-05-02T16:24:20.998Z</time></trkpt><trkpt lat="45.090010640043005" lon="5.555691015625588"><ele>977.0000000000001</ele><time>2026-05-02T16:24:21.998Z</time></trkpt><trkpt lat="45.090073719658044" lon="5.55576918015228"><ele>977.0000000000001</ele><time>2026-05-02T16:24:22.998Z</time></trkpt><trkpt lat="45.090145151594555" lon="5.555829774267502"><ele>977.0</ele><time>2026-05-02T16:24:23.998Z</time></trkpt><trkpt lat="45.09023958838447" lon="5.555789118636974"><ele>977.0</ele><time>2026-05-02T16:24:24.998Z</time></trkpt><trkpt lat="45.09034369855833" lon="5.555734240403535"><ele>977.0</ele><time>2026-05-02T16:24:25.998Z</time></trkpt><trkpt lat="45.090463543665706" lon="5.555705939263269"><ele>977.0</ele><time>2026-05-02T16:24:26.998Z</time></trkpt><trkpt lat="45.09060936511617" lon="5.555722455054479"><ele>976.6666666666667</ele><time>2026-05-02T16:24:27.998Z</time></trkpt><trkpt lat="45.09078835726768" lon="5.5557944303922016"><ele>976.3333333333333</ele><time>2026-05-02T16:24:28.998Z</time></trkpt><trkpt lat="45.0909950738483" lon="5.555846944976753"><ele>976.0</ele><time>2026-05-02T16:24:30Z</time></trkpt><trkpt lat="45.09122285470993" lon="5.555899405783314"><ele>976.0</ele><time>2026-05-02T16:24:31Z</time></trkpt><trkpt lat="45.0914542746337" lon="5.555952704625847"><ele>976.0</ele><time>2026-05-02T16:24:32Z</time></trkpt><trkpt lat="45.091690048182095" lon="5.556007006197186"><ele>975.5</ele><time>2026-05-02T16:24:33Z</time></trkpt><trkpt lat="45.0919210370727" lon="5.556058777401559"><ele>975.0</ele><time>2026-05-02T16:24:34Z</time></trkpt><trkpt lat="45.09215715098879" lon="5.556090041021205"><ele>975.0</ele><time>2026-05-02T16:24:35Z</time></trkpt><trkpt lat="45.09238098738358" lon="5.556142973793708"><ele>975.0</ele><time>2026-05-02T16:24:36Z</time></trkpt><trkpt lat="45.0926007551645" lon="5.556192246098606"><ele>975.0</ele><time>2026-05-02T16:24:37Z</time></trkpt><trkpt lat="45.092819222355935" lon="5.556238350667811"><ele>976.6666666666667</ele><time>2026-05-02T16:24:38Z</time></trkpt><trkpt lat="45.09303389794383" lon="5.556288583820344"><ele>978.3333333333334</ele><time>2026-05-02T16:24:39Z</time></trkpt><trkpt lat="45.09325299191102" lon="5.5563406228125585"><ele>980.0</ele><time>2026-05-02T16:24:40Z</time></trkpt><trkpt lat="45.093468741470204" lon="5.55638972583376"><ele>980.6666666666667</ele><time>2026-05-02T16:24:41Z</time></trkpt><trkpt lat="45.09368846878144" lon="5.556441343807638"><ele>981.3333333333333</ele><time>2026-05-02T16:24:42Z</time></trkpt><trkpt lat="45.09390994003952" lon="5.556493626175928"><ele>982.0</ele><time>2026-05-02T16:24:43Z</time></trkpt><trkpt lat="45.094130714031046" lon="5.55654670576014"><ele>982.0</ele><time>2026-05-02T16:24:44Z</time></trkpt><trkpt lat="45.094354133490995" lon="5.556598505413601"><ele>982.0</ele><time>2026-05-02T16:24:45Z</time></trkpt><trkpt lat="45.09457851964655" lon="5.556648481435575"><ele>982.0</ele><time>2026-05-02T16:24:46Z</time></trkpt><trkpt lat="45.094804753034815" lon="5.556699464387536"><ele>982.0</ele><time>2026-05-02T16:24:47Z</time></trkpt><trkpt lat="45.09503104856565" lon="5.556752020371773"><ele>981.5</ele><time>2026-05-02T16:24:48Z</time></trkpt><trkpt lat="45.09525246311329" lon="5.556804909932161"><ele>981.0</ele><time>2026-05-02T16:24:49Z</time></trkpt><trkpt lat="45.09547478734357" lon="5.556855072568147"><ele>981.0</ele><time>2026-05-02T16:24:50Z</time></trkpt><trkpt lat="45.09569381295448" lon="5.556904207031298"><ele>981.0</ele><time>2026-05-02T16:24:51Z</time></trkpt><trkpt lat="45.09590855333812" lon="5.556958431143807"><ele>981.0</ele><time>2026-05-02T16:24:52Z</time></trkpt><trkpt lat="45.0961166607199" lon="5.557020019817977"><ele>981.0</ele><time>2026-05-02T16:24:53Z</time></trkpt><trkpt lat="45.096301877443715" lon="5.557100995340794"><ele>981.0</ele><time>2026-05-02T16:24:54Z</time></trkpt><trkpt lat="45.09649263685305" lon="5.557143990741518"><ele>981.0</ele><time>2026-05-02T16:24:55Z</time></trkpt><trkpt lat="45.096692889704244" lon="5.557198556084135"><ele>981.0</ele><time>2026-05-02T16:24:56Z</time></trkpt><trkpt lat="45.09690923764851" lon="5.557266553834681"><ele>981.0</ele><time>2026-05-02T16:24:57Z</time></trkpt><trkpt lat="45.09712234223864" lon="5.55733295729088"><ele>981.0</ele><time>2026-05-02T16:24:58Z</time></trkpt><trkpt lat="45.0973356445377" lon="5.557404010656936"><ele>983.0</ele><time>2026-05-02T16:24:59Z</time></trkpt><trkpt lat="45.09753953622988" lon="5.557463122335409"><ele>985.0</ele><time>2026-05-02T16:25:00Z</time></trkpt><trkpt lat="45.09774883908882" lon="5.557527702210434"><ele>987.0</ele><time>2026-05-02T16:25:01Z</time></trkpt><trkpt lat="45.097946148515305" lon="5.557639819551329"><ele>987.0</ele><time>2026-05-02T16:25:02Z</time></trkpt><trkpt lat="45.09814457445564" lon="5.557762032966086"><ele>987.0</ele><time>2026-05-02T16:25:03Z</time></trkpt><trkpt lat="45.09833927990172" lon="5.557889111010932"><ele>987.0</ele><time>2026-05-02T16:25:04Z</time></trkpt><trkpt lat="45.09853579822164" lon="5.5579939801627685"><ele>985.3333333333333</ele><time>2026-05-02T16:25:05Z</time></trkpt><trkpt lat="45.09871393780307" lon="5.558101837370684"><ele>983.6666666666666</ele><time>2026-05-02T16:25:06Z</time></trkpt><trkpt lat="45.09888271580892" lon="5.558200334997963"><ele>982.0</ele><time>2026-05-02T16:25:07Z</time></trkpt><trkpt lat="45.09904721416096" lon="5.558296842828079"><ele>982.6666666666666</ele><time>2026-05-02T16:25:08Z</time></trkpt><trkpt lat="45.09920953839051" lon="5.558394289244382"><ele>983.3333333333333</ele><time>2026-05-02T16:25:09Z</time></trkpt><trkpt lat="45.09936398175505" lon="5.558517738016175"><ele>984.0</ele><time>2026-05-02T16:25:09.999Z</time></trkpt><trkpt lat="45.09949937538866" lon="5.558693212238956"><ele>983.3333333333333</ele><time>2026-05-02T16:25:10.999Z</time></trkpt><trkpt lat="45.099648582443585" lon="5.558850511841046"><ele>982.6666666666666</ele><time>2026-05-02T16:25:11.999Z</time></trkpt><trkpt lat="45.099775589743906" lon="5.559030838957944"><ele>982.0</ele><time>2026-05-02T16:25:12.999Z</time></trkpt><trkpt lat="45.09990413800509" lon="5.559205912321805"><ele>982.3333333333333</ele><time>2026-05-02T16:25:13.999Z</time></trkpt><trkpt lat="45.10003958872404" lon="5.5593787674557555"><ele>982.6666666666667</ele><time>2026-05-02T16:25:14.999Z</time></trkpt><trkpt lat="45.100172360347514" lon="5.559547428772692"><ele>983.0</ele><time>2026-05-02T16:25:15.999Z</time></trkpt><trkpt lat="45.10029831226448" lon="5.559711275286038"><ele>983.0</ele><time>2026-05-02T16:25:16.999Z</time></trkpt><trkpt lat="45.10041519361344" lon="5.5598916225010795"><ele>983.0</ele><time>2026-05-02T16:25:17.999Z</time></trkpt><trkpt lat="45.10056297950874" lon="5.560044404598779"><ele>983.0</ele><time>2026-05-02T16:25:18.999Z</time></trkpt><trkpt lat="45.100732136969235" lon="5.560180342827078"><ele>983.0</ele><time>2026-05-02T16:25:19.999Z</time></trkpt><trkpt lat="45.10091515699433" lon="5.560311358479405"><ele>983.0</ele><time>2026-05-02T16:25:20.999Z</time></trkpt><trkpt lat="45.10111924247868" lon="5.560449967142477"><ele>983.0</ele><time>2026-05-02T16:25:21.999Z</time></trkpt><trkpt lat="45.10132189274138" lon="5.560587135262707"><ele>983.0</ele><time>2026-05-02T16:25:22.999Z</time></trkpt><trkpt lat="45.10152695746207" lon="5.560725752467907"><ele>983.0</ele><time>2026-05-02T16:25:23.999Z</time></trkpt><trkpt lat="45.10173168976528" lon="5.560866269930968"><ele>983.6666666666667</ele><time>2026-05-02T16:25:24.999Z</time></trkpt><trkpt lat="45.1019300517613" lon="5.561000933348337"><ele>984.3333333333333</ele><time>2026-05-02T16:25:25.999Z</time></trkpt><trkpt lat="45.10212884848962" lon="5.561128204696668"><ele>985.0</ele><time>2026-05-02T16:25:26.999Z</time></trkpt><trkpt lat="45.102318197845726" lon="5.561245236505427"><ele>985.6666666666666</ele><time>2026-05-02T16:25:27.999Z</time></trkpt><trkpt lat="45.10249110573084" lon="5.561350960105746"><ele>986.3333333333333</ele><time>2026-05-02T16:25:28.999Z</time></trkpt><trkpt lat="45.1026647543778" lon="5.561453499520989"><ele>987.0</ele><time>2026-05-02T16:25:29.999Z</time></trkpt><trkpt lat="45.10283911637019" lon="5.561551685700344"><ele>987.0</ele><time>2026-05-02T16:25:30.999Z</time></trkpt><trkpt lat="45.103025864139504" lon="5.561648718340952"><ele>987.0</ele><time>2026-05-02T16:25:31.999Z</time></trkpt><trkpt lat="45.103230816750525" lon="5.561747982748313"><ele>987.0</ele><time>2026-05-02T16:25:32.999Z</time></trkpt><trkpt lat="45.10345244856336" lon="5.5618533262642575"><ele>988.0</ele><time>2026-05-02T16:25:33.999Z</time></trkpt><trkpt lat="45.10368398489227" lon="5.561961141166155"><ele>989.0</ele><time>2026-05-02T16:25:34.999Z</time></trkpt><trkpt lat="45.10391321465237" lon="5.562068045759527"><ele>986.0</ele><time>2026-05-02T16:25:35.999Z</time></trkpt><trkpt lat="45.10413465333429" lon="5.5621729956451835"><ele>983.0</ele><time>2026-05-02T16:25:36.999Z</time></trkpt><trkpt lat="45.104363492595496" lon="5.5622616387671515"><ele>983.0</ele><time>2026-05-02T16:25:37.999Z</time></trkpt><trkpt lat="45.104586702323516" lon="5.562378158682658"><ele>983.0</ele><time>2026-05-02T16:25:38.999Z</time></trkpt><trkpt lat="45.10480734754746" lon="5.562494158483657"><ele>985.5</ele><time>2026-05-02T16:25:39.999Z</time></trkpt><trkpt lat="45.10502782503259" lon="5.562617279659131"><ele>988.0</ele><time>2026-05-02T16:25:40.999Z</time></trkpt><trkpt lat="45.105244910868386" lon="5.562738400831762"><ele>985.5</ele><time>2026-05-02T16:25:41.999Z</time></trkpt><trkpt lat="45.1054612415781" lon="5.5628671380967925"><ele>983.0</ele><time>2026-05-02T16:25:42.999Z</time></trkpt><trkpt lat="45.105671722026706" lon="5.562991144907377"><ele>984.0</ele><time>2026-05-02T16:25:43.999Z</time></trkpt><trkpt lat="45.10588446260349" lon="5.563117151769283"><ele>985.0</ele><time>2026-05-02T16:25:44.999Z</time></trkpt><trkpt lat="45.10609515777963" lon="5.563243739126284"><ele>985.0</ele><time>2026-05-02T16:25:45.999Z</time></trkpt><trkpt lat="45.10630812695468" lon="5.563369039323011"><ele>985.0</ele><time>2026-05-02T16:25:46.999Z</time></trkpt><trkpt lat="45.10652036582551" lon="5.563497754725616"><ele>983.5</ele><time>2026-05-02T16:25:47.999Z</time></trkpt><trkpt lat="45.10673183807476" lon="5.563631528226209"><ele>982.0</ele><time>2026-05-02T16:25:48.999Z</time></trkpt><trkpt lat="45.10693971629036" lon="5.563773497846445"><ele>982.0</ele><time>2026-05-02T16:25:49.999Z</time></trkpt><trkpt lat="45.10714195879718" lon="5.563925360807375"><ele>982.0</ele><time>2026-05-02T16:25:50.999Z</time></trkpt><trkpt lat="45.107344801001375" lon="5.564083714897895"><ele>985.0</ele><time>2026-05-02T16:25:51.999Z</time></trkpt><trkpt lat="45.10754843793356" lon="5.564241335716209"><ele>988.0</ele><time>2026-05-02T16:25:52.999Z</time></trkpt><trkpt lat="45.10775202132115" lon="5.564397837886553"><ele>987.0</ele><time>2026-05-02T16:25:53.999Z</time></trkpt><trkpt lat="45.10795546947471" lon="5.564554040620471"><ele>986.0</ele><time>2026-05-02T16:25:54.999Z</time></trkpt><trkpt lat="45.10815706598277" lon="5.56471045463824"><ele>986.5</ele><time>2026-05-02T16:25:55.999Z</time></trkpt><trkpt lat="45.108359294626794" lon="5.564865370287984"><ele>987.0</ele><time>2026-05-02T16:25:56.999Z</time></trkpt><trkpt lat="45.10855551499377" lon="5.565015239259503"><ele>987.0</ele><time>2026-05-02T16:25:57.999Z</time></trkpt><trkpt lat="45.10873927269725" lon="5.56515516972143"><ele>987.0</ele><time>2026-05-02T16:25:58.999Z</time></trkpt><trkpt lat="45.108910523318954" lon="5.565280994420655"><ele>987.0</ele><time>2026-05-02T16:25:59.999Z</time></trkpt><trkpt lat="45.10907101783038" lon="5.565405643186274"><ele>987.6666666666667</ele><time>2026-05-02T16:26:00.999Z</time></trkpt><trkpt lat="45.10921635774438" lon="5.56552159205335"><ele>988.3333333333334</ele><time>2026-05-02T16:26:01.999Z</time></trkpt><trkpt lat="45.10936478911434" lon="5.5656436504159155"><ele>989.0</ele><time>2026-05-02T16:26:02.999Z</time></trkpt><trkpt lat="45.10950028767722" lon="5.565758672270686"><ele>989.0</ele><time>2026-05-02T16:26:03.999Z</time></trkpt><trkpt lat="45.10961939871789" lon="5.565865023126892"><ele>989.0</ele><time>2026-05-02T16:26:04.999Z</time></trkpt><trkpt lat="45.10973526408543" lon="5.565969821565225"><ele>989.0</ele><time>2026-05-02T16:26:05.998Z</time></trkpt><trkpt lat="45.10984555944212" lon="5.566074917245152"><ele>989.0</ele><time>2026-05-02T16:26:06.998Z</time></trkpt><trkpt lat="45.10994878175701" lon="5.566178263154147"><ele>989.75</ele><time>2026-05-02T16:26:07.998Z</time></trkpt><trkpt lat="45.11005230593167" lon="5.566278925007697"><ele>990.5</ele><time>2026-05-02T16:26:08.998Z</time></trkpt><trkpt lat="45.11015275950853" lon="5.566377514805376"><ele>991.25</ele><time>2026-05-02T16:26:09.998Z</time></trkpt><trkpt lat="45.11025668082011" lon="5.566478514482854"><ele>992.0</ele><time>2026-05-02T16:26:10.998Z</time></trkpt><trkpt lat="45.110361767786515" lon="5.566581305572359"><ele>992.0</ele><time>2026-05-02T16:26:11.998Z</time></trkpt><trkpt lat="45.11046788286031" lon="5.566685228757746"><ele>992.0</ele><time>2026-05-02T16:26:12.998Z</time></trkpt><trkpt lat="45.11057443159254" lon="5.566788821957235"><ele>992.0</ele><time>2026-05-02T16:26:13.998Z</time></trkpt><trkpt lat="45.110678521197265" lon="5.566897546324213"><ele>992.0</ele><time>2026-05-02T16:26:14.998Z</time></trkpt><trkpt lat="45.110784284435866" lon="5.567004091809793"><ele>991.5</ele><time>2026-05-02T16:26:15.998Z</time></trkpt><trkpt lat="45.11089087793107" lon="5.567109255710127"><ele>991.0</ele><time>2026-05-02T16:26:16.998Z</time></trkpt><trkpt lat="45.110997136668416" lon="5.567213950183974"><ele>990.5</ele><time>2026-05-02T16:26:17.998Z</time></trkpt><trkpt lat="45.11109999171575" lon="5.567321745692656"><ele>990.0</ele><time>2026-05-02T16:26:18.998Z</time></trkpt><trkpt lat="45.11119268369423" lon="5.567443589351669"><ele>990.0</ele><time>2026-05-02T16:26:19.998Z</time></trkpt><trkpt lat="45.111280907933235" lon="5.567575092582221"><ele>990.0</ele><time>2026-05-02T16:26:20.998Z</time></trkpt><trkpt lat="45.111356579630474" lon="5.567710295195538"><ele>990.0</ele><time>2026-05-02T16:26:21.998Z</time></trkpt><trkpt lat="45.1114360781454" lon="5.56786224319643"><ele>990.0</ele><time>2026-05-02T16:26:22.998Z</time></trkpt><trkpt lat="45.11151999473256" lon="5.568009017296502"><ele>991.0</ele><time>2026-05-02T16:26:23.998Z</time></trkpt><trkpt lat="45.11160780339188" lon="5.56816038204043"><ele>992.0</ele><time>2026-05-02T16:26:24.998Z</time></trkpt><trkpt lat="45.111704553197605" lon="5.568329405016909"><ele>993.0</ele><time>2026-05-02T16:26:25.998Z</time></trkpt><trkpt lat="45.11180407162846" lon="5.5685018865136495"><ele>994.0</ele><time>2026-05-02T16:26:26.998Z</time></trkpt><trkpt lat="45.11190807439718" lon="5.568686331783229"><ele>994.0</ele><time>2026-05-02T16:26:27.998Z</time></trkpt><trkpt lat="45.112015722515736" lon="5.568878182509797"><ele>994.0</ele><time>2026-05-02T16:26:28.998Z</time></trkpt><trkpt lat="45.112136958120196" lon="5.569088584928336"><ele>994.0</ele><time>2026-05-02T16:26:29.998Z</time></trkpt><trkpt lat="45.11227333567789" lon="5.569325094939805"><ele>994.0</ele><time>2026-05-02T16:26:30.998Z</time></trkpt><trkpt lat="45.1124256891394" lon="5.569595890774729"><ele>994.0</ele><time>2026-05-02T16:26:31.998Z</time></trkpt><trkpt lat="45.11258570901008" lon="5.569885806435352"><ele>994.0</ele><time>2026-05-02T16:26:32.998Z</time></trkpt><trkpt lat="45.11274751969308" lon="5.5702000556285105"><ele>994.0</ele><time>2026-05-02T16:26:33.998Z</time></trkpt><trkpt lat="45.1128996452876" lon="5.5705358682994355"><ele>994.3333333333333</ele><time>2026-05-02T16:26:34.998Z</time></trkpt><trkpt lat="45.11302262650408" lon="5.570720698739829"><ele>994.6666666666667</ele><time>2026-05-02T16:26:36Z</time></trkpt><trkpt lat="45.113125342971585" lon="5.571054114912872"><ele>995.0</ele><time>2026-05-02T16:26:37Z</time></trkpt><trkpt lat="45.11320411179695" lon="5.571397967893035"><ele>997.5</ele><time>2026-05-02T16:26:38Z</time></trkpt><trkpt lat="45.11328107613007" lon="5.571737731375032"><ele>1000.0</ele><time>2026-05-02T16:26:39Z</time></trkpt><trkpt lat="45.113363057739946" lon="5.5720702507513025"><ele>1000.0</ele><time>2026-05-02T16:26:40Z</time></trkpt><trkpt lat="45.113475243196284" lon="5.57234486180294"><ele>1000.0</ele><time>2026-05-02T16:26:41Z</time></trkpt><trkpt lat="45.113629671653655" lon="5.5725620646265055"><ele>1000.0</ele><time>2026-05-02T16:26:42Z</time></trkpt><trkpt lat="45.11382222615421" lon="5.572723580828297"><ele>1000.0</ele><time>2026-05-02T16:26:43Z</time></trkpt><trkpt lat="45.1140431694128" lon="5.5728347997093755"><ele>1000.0</ele><time>2026-05-02T16:26:44Z</time></trkpt><trkpt lat="45.11428210802654" lon="5.5728848426858075"><ele>1000.0</ele><time>2026-05-02T16:26:45Z</time></trkpt><trkpt lat="45.114535125652914" lon="5.572868362826909"><ele>1000.0</ele><time>2026-05-02T16:26:46Z</time></trkpt><trkpt lat="45.1147964950269" lon="5.572806418573439"><ele>1003.0</ele><time>2026-05-02T16:26:47Z</time></trkpt><trkpt lat="45.11506491733049" lon="5.5727144165639855"><ele>1006.0</ele><time>2026-05-02T16:26:48Z</time></trkpt><trkpt lat="45.11532155748998" lon="5.572626492654258"><ele>1006.0</ele><time>2026-05-02T16:26:49Z</time></trkpt><trkpt lat="45.115553820819734" lon="5.572558429239074"><ele>1006.0</ele><time>2026-05-02T16:26:50Z</time></trkpt><trkpt lat="45.115770893478924" lon="5.572499046219964"><ele>1006.5</ele><time>2026-05-02T16:26:51Z</time></trkpt><trkpt lat="45.11598859019667" lon="5.572403777742715"><ele>1007.0</ele><time>2026-05-02T16:26:52Z</time></trkpt><trkpt lat="45.11619532135648" lon="5.572266559620343"><ele>1007.0</ele><time>2026-05-02T16:26:53Z</time></trkpt><trkpt lat="45.116406512688286" lon="5.572097472683306"><ele>1007.0</ele><time>2026-05-02T16:26:54Z</time></trkpt><trkpt lat="45.11663112284809" lon="5.571944053836129"><ele>1010.5</ele><time>2026-05-02T16:26:55Z</time></trkpt><trkpt lat="45.11687147356165" lon="5.571833051985581"><ele>1014.0</ele><time>2026-05-02T16:26:56Z</time></trkpt><trkpt lat="45.11711316733265" lon="5.571777977331837"><ele>1014.0</ele><time>2026-05-02T16:26:57Z</time></trkpt><trkpt lat="45.117347535699686" lon="5.571765534670093"><ele>1014.0</ele><time>2026-05-02T16:26:58Z</time></trkpt><trkpt lat="45.11759169092161" lon="5.571833664500343"><ele>1014.5</ele><time>2026-05-02T16:26:59Z</time></trkpt><trkpt lat="45.11781551689588" lon="5.571888377452871"><ele>1015.0</ele><time>2026-05-02T16:27:00Z</time></trkpt><trkpt lat="45.11803754278031" lon="5.571970108509209"><ele>1012.0</ele><time>2026-05-02T16:27:01Z</time></trkpt><trkpt lat="45.11825466013024" lon="5.572024838333609"><ele>1009.0</ele><time>2026-05-02T16:27:02Z</time></trkpt><trkpt lat="45.118479474708195" lon="5.5720858894476"><ele>1006.0</ele><time>2026-05-02T16:27:03Z</time></trkpt><trkpt lat="45.11870636935574" lon="5.572149342055853"><ele>1006.0</ele><time>2026-05-02T16:27:04Z</time></trkpt><trkpt lat="45.11894540939015" lon="5.572218551729729"><ele>1006.0</ele><time>2026-05-02T16:27:05Z</time></trkpt><trkpt lat="45.11918189493676" lon="5.572286539892951"><ele>1004.5</ele><time>2026-05-02T16:27:06Z</time></trkpt><trkpt lat="45.119413011425415" lon="5.572352725677205"><ele>1003.0</ele><time>2026-05-02T16:27:07Z</time></trkpt><trkpt lat="45.11965898522994" lon="5.572424099320511"><ele>1008.5</ele><time>2026-05-02T16:27:08Z</time></trkpt><trkpt lat="45.119914010657" lon="5.572499292597433"><ele>1014.0</ele><time>2026-05-02T16:27:09Z</time></trkpt><trkpt lat="45.12015711345948" lon="5.572576017283958"><ele>1014.0</ele><time>2026-05-02T16:27:10Z</time></trkpt><trkpt lat="45.12039216674648" lon="5.5726705228246445"><ele>1014.0</ele><time>2026-05-02T16:27:11Z</time></trkpt><trkpt lat="45.12061199099195" lon="5.572799335191391"><ele>1008.5</ele><time>2026-05-02T16:27:12Z</time></trkpt><trkpt lat="45.120828118831284" lon="5.572970349596808"><ele>1003.0</ele><time>2026-05-02T16:27:13Z</time></trkpt><trkpt lat="45.12102138965879" lon="5.57318399763172"><ele>1003.0</ele><time>2026-05-02T16:27:14Z</time></trkpt><trkpt lat="45.12119969522828" lon="5.573427710996293"><ele>1003.0</ele><time>2026-05-02T16:27:15Z</time></trkpt><trkpt lat="45.12137569262869" lon="5.573674115218972"><ele>1001.0</ele><time>2026-05-02T16:27:16Z</time></trkpt><trkpt lat="45.12156176951267" lon="5.573893986721895"><ele>999.0</ele><time>2026-05-02T16:27:17Z</time></trkpt><trkpt lat="45.121758648316494" lon="5.574108795468843"><ele>999.0</ele><time>2026-05-02T16:27:17.999Z</time></trkpt><trkpt lat="45.1219713308283" lon="5.574294549194731"><ele>999.0</ele><time>2026-05-02T16:27:18.999Z</time></trkpt><trkpt lat="45.12218685467884" lon="5.574482584323921"><ele>999.5</ele><time>2026-05-02T16:27:19.999Z</time></trkpt><trkpt lat="45.12240176061396" lon="5.574651386063043"><ele>1000.0</ele><time>2026-05-02T16:27:20.999Z</time></trkpt><trkpt lat="45.12263323538904" lon="5.574808270461697"><ele>1000.0</ele><time>2026-05-02T16:27:21.999Z</time></trkpt><trkpt lat="45.12284848495225" lon="5.57500227372737"><ele>1000.0</ele><time>2026-05-02T16:27:22.999Z</time></trkpt><trkpt lat="45.1230719750365" lon="5.575177818036689"><ele>997.0</ele><time>2026-05-02T16:27:23.999Z</time></trkpt><trkpt lat="45.123295996233054" lon="5.575353779512776"><ele>994.0</ele><time>2026-05-02T16:27:24.999Z</time></trkpt><trkpt lat="45.12350697013967" lon="5.575519492767957"><ele>993.6666666666666</ele><time>2026-05-02T16:27:25.999Z</time></trkpt><trkpt lat="45.123709001531275" lon="5.575678181951938"><ele>993.3333333333333</ele><time>2026-05-02T16:27:26.999Z</time></trkpt><trkpt lat="45.123905508640824" lon="5.57581068110758"><ele>993.0</ele><time>2026-05-02T16:27:27.999Z</time></trkpt><trkpt lat="45.12408557614107" lon="5.575951615590321"><ele>995.6666666666667</ele><time>2026-05-02T16:27:28.999Z</time></trkpt><trkpt lat="45.12426111954879" lon="5.576088074467791"><ele>998.3333333333334</ele><time>2026-05-02T16:27:29.999Z</time></trkpt><trkpt lat="45.1244339003089" lon="5.576224939545339"><ele>1001.0</ele><time>2026-05-02T16:27:30.999Z</time></trkpt><trkpt lat="45.12460424399805" lon="5.57636089022271"><ele>1001.0</ele><time>2026-05-02T16:27:31.999Z</time></trkpt><trkpt lat="45.12477290847612" lon="5.576489272968042"><ele>1001.0</ele><time>2026-05-02T16:27:32.999Z</time></trkpt><trkpt lat="45.124933044526955" lon="5.576626660595363"><ele>1001.0</ele><time>2026-05-02T16:27:33.999Z</time></trkpt><trkpt lat="45.12508880645426" lon="5.576764571441559"><ele>1001.3333333333334</ele><time>2026-05-02T16:27:34.999Z</time></trkpt><trkpt lat="45.12524427316843" lon="5.5769065919040495"><ele>1001.6666666666667</ele><time>2026-05-02T16:27:35.999Z</time></trkpt><trkpt lat="45.125394248104136" lon="5.5770470121559725"><ele>1002.0</ele><time>2026-05-02T16:27:36.999Z</time></trkpt><trkpt lat="45.1255498710586" lon="5.577182425890368"><ele>1002.0</ele><time>2026-05-02T16:27:37.999Z</time></trkpt><trkpt lat="45.12570488098217" lon="5.577313136699835"><ele>1002.0</ele><time>2026-05-02T16:27:38.999Z</time></trkpt><trkpt lat="45.125871339060076" lon="5.577437879262857"><ele>1002.0</ele><time>2026-05-02T16:27:39.999Z</time></trkpt><trkpt lat="45.12603971146182" lon="5.577555283751586"><ele>1002.0</ele><time>2026-05-02T16:27:40.999Z</time></trkpt><trkpt lat="45.12620812510443" lon="5.5776680916202395"><ele>1002.0</ele><time>2026-05-02T16:27:41.999Z</time></trkpt><trkpt lat="45.1263810722562" lon="5.577776124619207"><ele>1002.0</ele><time>2026-05-02T16:27:42.999Z</time></trkpt><trkpt lat="45.126549822835955" lon="5.577895142245281"><ele>1001.3333333333333</ele><time>2026-05-02T16:27:43.999Z</time></trkpt><trkpt lat="45.12670513494734" lon="5.578047938397984"><ele>1000.6666666666666</ele><time>2026-05-02T16:27:44.999Z</time></trkpt><trkpt lat="45.12686998991275" lon="5.578174030165401"><ele>1000.0</ele><time>2026-05-02T16:27:45.999Z</time></trkpt><trkpt lat="45.127039383310574" lon="5.578303593199479"><ele>1000.0</ele><time>2026-05-02T16:27:46.999Z</time></trkpt><trkpt lat="45.12721346270933" lon="5.57841214278022"><ele>1000.0</ele><time>2026-05-02T16:27:47.999Z</time></trkpt><trkpt lat="45.1273785337693" lon="5.578541754202779"><ele>1000.0</ele><time>2026-05-02T16:27:48.999Z</time></trkpt><trkpt lat="45.127537947567404" lon="5.5786905388297825"><ele>1000.6666666666666</ele><time>2026-05-02T16:27:49.999Z</time></trkpt><trkpt lat="45.12770541398885" lon="5.578820079872928"><ele>1001.3333333333333</ele><time>2026-05-02T16:27:50.999Z</time></trkpt><trkpt lat="45.12786931670806" lon="5.578947246129709"><ele>1002.0</ele><time>2026-05-02T16:27:51.999Z</time></trkpt><trkpt lat="45.12803332528442" lon="5.579075244283312"><ele>1002.0</ele><time>2026-05-02T16:27:52.999Z</time></trkpt><trkpt lat="45.128213067393574" lon="5.579172887795585"><ele>1002.0</ele><time>2026-05-02T16:27:53.999Z</time></trkpt><trkpt lat="45.12837874885224" lon="5.579308621096284"><ele>1002.0</ele><time>2026-05-02T16:27:54.999Z</time></trkpt><trkpt lat="45.128544280282725" lon="5.579438986032449"><ele>1002.3333333333333</ele><time>2026-05-02T16:27:55.999Z</time></trkpt><trkpt lat="45.12871105097394" lon="5.579567368642602"><ele>1002.6666666666666</ele><time>2026-05-02T16:27:56.999Z</time></trkpt><trkpt lat="45.128865699392" lon="5.579723938178344"><ele>1003.0</ele><time>2026-05-02T16:27:57.999Z</time></trkpt><trkpt lat="45.12902877244991" lon="5.579852165986641"><ele>1004.3333333333333</ele><time>2026-05-02T16:27:58.999Z</time></trkpt><trkpt lat="45.129197303471884" lon="5.579982428507072"><ele>1005.6666666666667</ele><time>2026-05-02T16:27:59.999Z</time></trkpt><trkpt lat="45.12935913932748" lon="5.58011068978906"><ele>1007.0</ele><time>2026-05-02T16:28:00.999Z</time></trkpt><trkpt lat="45.12949617054975" lon="5.5802189814680885"><ele>1007.0</ele><time>2026-05-02T16:28:01.999Z</time></trkpt><trkpt lat="45.12962953605821" lon="5.580303379921872"><ele>1007.0</ele><time>2026-05-02T16:28:02.999Z</time></trkpt><trkpt lat="45.12975321211735" lon="5.5804014577495025"><ele>1007.0</ele><time>2026-05-02T16:28:03.999Z</time></trkpt><trkpt lat="45.12985849919838" lon="5.580506660167015"><ele>1007.0</ele><time>2026-05-02T16:28:04.999Z</time></trkpt><trkpt lat="45.12996780254239" lon="5.580592299228991"><ele>1006.8</ele><time>2026-05-02T16:28:05.999Z</time></trkpt><trkpt lat="45.13005942681476" lon="5.580661606436206"><ele>1006.6</ele><time>2026-05-02T16:28:06.999Z</time></trkpt><trkpt lat="45.13015814268525" lon="5.580706424224498"><ele>1006.3999999999999</ele><time>2026-05-02T16:28:07.999Z</time></trkpt><trkpt lat="45.13025185602893" lon="5.580772147453997"><ele>1006.1999999999999</ele><time>2026-05-02T16:28:08.999Z</time></trkpt><trkpt lat="45.13034982976418" lon="5.580821279386808"><ele>1006.0</ele><time>2026-05-02T16:28:09.999Z</time></trkpt><trkpt lat="45.13042985903612" lon="5.580862639387153"><ele>1005.9999999999999</ele><time>2026-05-02T16:28:10.999Z</time></trkpt><trkpt lat="45.13049229090795" lon="5.580917312744484"><ele>1006.0</ele><time>2026-05-02T16:28:11.999Z</time></trkpt><trkpt lat="45.13053385983757" lon="5.581014839717851"><ele>1006.0</ele><time>2026-05-02T16:28:12.999Z</time></trkpt><trkpt lat="45.1305394864606" lon="5.581145462602413"><ele>1006.0</ele><time>2026-05-02T16:28:13.999Z</time></trkpt><trkpt lat="45.13052757694172" lon="5.581249279116793"><ele>1005.9999999999999</ele><time>2026-05-02T16:28:14.999Z</time></trkpt><trkpt lat="45.1305471329799" lon="5.581408553765994"><ele>1006.0</ele><time>2026-05-02T16:28:16.998Z</time></trkpt><trkpt lat="45.13060744874138" lon="5.581514751613385"><ele>1005.9999999999999</ele><time>2026-05-02T16:28:18.998Z</time></trkpt><trkpt lat="45.13067613260034" lon="5.581547780088724"><ele>1006.0</ele><time>2026-05-02T16:28:20.998Z</time></trkpt><trkpt lat="45.130748562667016" lon="5.581636164351645"><ele>1006.0</ele><time>2026-05-02T16:28:22.998Z</time></trkpt><trkpt lat="45.13079671995019" lon="5.581735065745813"><ele>1006.0</ele><time>2026-05-02T16:28:23.998Z</time></trkpt><trkpt lat="45.130861744398565" lon="5.581817344890274"><ele>1005.9999999999999</ele><time>2026-05-02T16:28:24.998Z</time></trkpt><trkpt lat="45.13095612533449" lon="5.581844439982668"><ele>1006.0</ele><time>2026-05-02T16:28:25.998Z</time></trkpt><trkpt lat="45.131046377092915" lon="5.581805928423737"><ele>1005.25</ele><time>2026-05-02T16:28:26.998Z</time></trkpt><trkpt lat="45.13112465048148" lon="5.581696449129873"><ele>1004.5</ele><time>2026-05-02T16:28:27.998Z</time></trkpt><trkpt lat="45.13118702442109" lon="5.581564520081706"><ele>1003.75</ele><time>2026-05-02T16:28:28.998Z</time></trkpt><trkpt lat="45.1313583429255" lon="5.5815589114478295"><ele>1003.0</ele><time>2026-05-02T16:28:29.998Z</time></trkpt><trkpt lat="45.131527823336974" lon="5.581594085579438"><ele>1003.0</ele><time>2026-05-02T16:28:30.998Z</time></trkpt><trkpt lat="45.13172582576904" lon="5.581632207553246"><ele>1003.0</ele><time>2026-05-02T16:28:31.998Z</time></trkpt><trkpt lat="45.13194595991552" lon="5.581680254432341"><ele>1003.0</ele><time>2026-05-02T16:28:32.998Z</time></trkpt><trkpt lat="45.13215367964461" lon="5.581727432750823"><ele>1003.0</ele><time>2026-05-02T16:28:33.998Z</time></trkpt><trkpt lat="45.13235547317597" lon="5.581758640442051"><ele>1003.0</ele><time>2026-05-02T16:28:34.998Z</time></trkpt><trkpt lat="45.13254886235512" lon="5.581810781141383"><ele>1003.0</ele><time>2026-05-02T16:28:35.998Z</time></trkpt><trkpt lat="45.13274382464895" lon="5.581896901803357"><ele>1004.3333333333333</ele><time>2026-05-02T16:28:36.998Z</time></trkpt><trkpt lat="45.13293971789871" lon="5.5820118816486435"><ele>1005.6666666666667</ele><time>2026-05-02T16:28:37.998Z</time></trkpt><trkpt lat="45.13312683972555" lon="5.582165460054294"><ele>1007.0</ele><time>2026-05-02T16:28:38.998Z</time></trkpt><trkpt lat="45.133311562536434" lon="5.582325527768388"><ele>1003.6666666666667</ele><time>2026-05-02T16:28:39.998Z</time></trkpt><trkpt lat="45.13349172719907" lon="5.582504931032777"><ele>1000.3333333333333</ele><time>2026-05-02T16:28:40.998Z</time></trkpt><trkpt lat="45.13366588787972" lon="5.582700092710409"><ele>997.0</ele><time>2026-05-02T16:28:42Z</time></trkpt><trkpt lat="45.13383721207729" lon="5.582918696420802"><ele>997.5</ele><time>2026-05-02T16:28:43Z</time></trkpt><trkpt lat="45.134012325302976" lon="5.583154439442138"><ele>998.0</ele><time>2026-05-02T16:28:44Z</time></trkpt><trkpt lat="45.134190248555946" lon="5.58337841755636"><ele>998.0</ele><time>2026-05-02T16:28:45Z</time></trkpt><trkpt lat="45.1343775262825" lon="5.583594812704532"><ele>998.0</ele><time>2026-05-02T16:28:46Z</time></trkpt><trkpt lat="45.134577251301316" lon="5.58381993551477"><ele>996.0</ele><time>2026-05-02T16:28:47Z</time></trkpt><trkpt lat="45.134792985967145" lon="5.584049711993162"><ele>994.0</ele><time>2026-05-02T16:28:48Z</time></trkpt><trkpt lat="45.13501400075765" lon="5.58427086508541"><ele>994.0</ele><time>2026-05-02T16:28:49Z</time></trkpt><trkpt lat="45.13523260274541" lon="5.584476710952409"><ele>994.0</ele><time>2026-05-02T16:28:50Z</time></trkpt><trkpt lat="45.13546074090233" lon="5.584667058706894"><ele>988.5</ele><time>2026-05-02T16:28:51Z</time></trkpt><trkpt lat="45.135692850525004" lon="5.5848313046536555"><ele>983.0</ele><time>2026-05-02T16:28:52Z</time></trkpt><trkpt lat="45.135929398736735" lon="5.584998244702503"><ele>983.0</ele><time>2026-05-02T16:28:53Z</time></trkpt><trkpt lat="45.1361460059794" lon="5.5851615871045714"><ele>983.0</ele><time>2026-05-02T16:28:54Z</time></trkpt><trkpt lat="45.136351269916936" lon="5.585335199146384"><ele>979.5</ele><time>2026-05-02T16:28:55Z</time></trkpt><trkpt lat="45.13653931799515" lon="5.585525656232973"><ele>976.0</ele><time>2026-05-02T16:28:56Z</time></trkpt><trkpt lat="45.13671782031621" lon="5.585722215027249"><ele>976.0</ele><time>2026-05-02T16:28:57Z</time></trkpt><trkpt lat="45.13689783222708" lon="5.585932118007056"><ele>976.0</ele><time>2026-05-02T16:28:58Z</time></trkpt><trkpt lat="45.137088189617906" lon="5.586119673573243"><ele>974.0</ele><time>2026-05-02T16:28:59Z</time></trkpt><trkpt lat="45.137291688152715" lon="5.586282932446109"><ele>972.0</ele><time>2026-05-02T16:29:00Z</time></trkpt><trkpt lat="45.1375079213484" lon="5.586433452393532"><ele>972.0</ele><time>2026-05-02T16:29:01Z</time></trkpt><trkpt lat="45.13773654376613" lon="5.586555559330634"><ele>972.0</ele><time>2026-05-02T16:29:02Z</time></trkpt><trkpt lat="45.137967291210465" lon="5.5866764974101315"><ele>972.0</ele><time>2026-05-02T16:29:03Z</time></trkpt><trkpt lat="45.13819308594884" lon="5.586832118009151"><ele>972.0</ele><time>2026-05-02T16:29:04Z</time></trkpt><trkpt lat="45.138424285965655" lon="5.586958018971133"><ele>969.5</ele><time>2026-05-02T16:29:05Z</time></trkpt><trkpt lat="45.13865566959156" lon="5.587089618929641"><ele>967.0</ele><time>2026-05-02T16:29:06Z</time></trkpt><trkpt lat="45.1388870023746" lon="5.587204809104901"><ele>966.0</ele><time>2026-05-02T16:29:07Z</time></trkpt><trkpt lat="45.13910429103547" lon="5.587381768853896"><ele>965.0</ele><time>2026-05-02T16:29:08Z</time></trkpt><trkpt lat="45.1393181344316" lon="5.587552613095168"><ele>965.0</ele><time>2026-05-02T16:29:09Z</time></trkpt><trkpt lat="45.13952173708862" lon="5.5877407338637965"><ele>965.0</ele><time>2026-05-02T16:29:10Z</time></trkpt><trkpt lat="45.139712545434044" lon="5.5879518553803"><ele>963.0</ele><time>2026-05-02T16:29:11Z</time></trkpt><trkpt lat="45.13989771985958" lon="5.588184011630172"><ele>961.0</ele><time>2026-05-02T16:29:12Z</time></trkpt><trkpt lat="45.14007477699153" lon="5.588422556945787"><ele>961.0</ele><time>2026-05-02T16:29:13Z</time></trkpt><trkpt lat="45.14024031258427" lon="5.5886837654891295"><ele>961.0</ele><time>2026-05-02T16:29:14Z</time></trkpt><trkpt lat="45.140403146704635" lon="5.588959768050918"><ele>961.0</ele><time>2026-05-02T16:29:15Z</time></trkpt><trkpt lat="45.1405496352293" lon="5.589232067815028"><ele>961.0</ele><time>2026-05-02T16:29:16Z</time></trkpt><trkpt lat="45.140687607193" lon="5.5894894628494"><ele>959.6666666666666</ele><time>2026-05-02T16:29:17Z</time></trkpt><trkpt lat="45.14079810036252" lon="5.589762416922685"><ele>958.3333333333333</ele><time>2026-05-02T16:29:18Z</time></trkpt><trkpt lat="45.14088836085095" lon="5.590027189157544"><ele>957.0</ele><time>2026-05-02T16:29:19Z</time></trkpt><trkpt lat="45.140926496098665" lon="5.590330896090771"><ele>955.0</ele><time>2026-05-02T16:29:20Z</time></trkpt><trkpt lat="45.14091083504862" lon="5.590616222601073"><ele>953.0</ele><time>2026-05-02T16:29:21Z</time></trkpt><trkpt lat="45.140861844783295" lon="5.590939189362252"><ele>951.0</ele><time>2026-05-02T16:29:22Z</time></trkpt><trkpt lat="45.14080101507166" lon="5.591227246606557"><ele>950.6666666666667</ele><time>2026-05-02T16:29:23Z</time></trkpt><trkpt lat="45.14077900732792" lon="5.59150167895395"><ele>950.3333333333334</ele><time>2026-05-02T16:29:23.999Z</time></trkpt><trkpt lat="45.14081097329354" lon="5.591771401401878"><ele>950.0</ele><time>2026-05-02T16:29:24.999Z</time></trkpt><trkpt lat="45.14087258931772" lon="5.592029335512452"><ele>952.6666666666667</ele><time>2026-05-02T16:29:25.999Z</time></trkpt><trkpt lat="45.14094179190705" lon="5.592271546962817"><ele>955.3333333333333</ele><time>2026-05-02T16:29:26.999Z</time></trkpt><trkpt lat="45.14101109344381" lon="5.59249394763038"><ele>958.0</ele><time>2026-05-02T16:29:27.999Z</time></trkpt><trkpt lat="45.14107980205519" lon="5.592684240545057"><ele>963.0</ele><time>2026-05-02T16:29:28.999Z</time></trkpt><trkpt lat="45.14163239260828" lon="5.59261783615307"><ele>963.0</ele><time>2026-05-02T16:29:29.999Z</time></trkpt><trkpt lat="45.14185081664294" lon="5.592799319917267"><ele>963.0</ele><time>2026-05-02T16:29:30.999Z</time></trkpt><trkpt lat="45.142040299311844" lon="5.593024437193882"><ele>965.5</ele><time>2026-05-02T16:29:31.999Z</time></trkpt><trkpt lat="45.14220134166078" lon="5.593291136133222"><ele>968.0</ele><time>2026-05-02T16:29:32.999Z</time></trkpt><trkpt lat="45.1423309081851" lon="5.593592879814159"><ele>967.0</ele><time>2026-05-02T16:29:33.999Z</time></trkpt><trkpt lat="45.142455760064195" lon="5.593911483016532"><ele>966.0</ele><time>2026-05-02T16:29:34.999Z</time></trkpt><trkpt lat="45.14258697329089" lon="5.5942453369366705"><ele>969.0</ele><time>2026-05-02T16:29:35.999Z</time></trkpt><trkpt lat="45.142712638524934" lon="5.5945668458712685"><ele>972.0</ele><time>2026-05-02T16:29:36.999Z</time></trkpt><trkpt lat="45.14284566391555" lon="5.594873352154761"><ele>972.0</ele><time>2026-05-02T16:29:37.999Z</time></trkpt><trkpt lat="45.1430004752107" lon="5.595173833208854"><ele>972.0</ele><time>2026-05-02T16:29:38.999Z</time></trkpt><trkpt lat="45.14312784850024" lon="5.59549742322899"><ele>964.0</ele><time>2026-05-02T16:29:39.999Z</time></trkpt><trkpt lat="45.1432480382775" lon="5.595799324947038"><ele>956.0</ele><time>2026-05-02T16:29:40.999Z</time></trkpt><trkpt lat="45.143360795930995" lon="5.59609545601566"><ele>958.3333333333334</ele><time>2026-05-02T16:29:41.999Z</time></trkpt><trkpt lat="45.14345500379501" lon="5.596380318243755"><ele>960.6666666666667</ele><time>2026-05-02T16:29:42.999Z</time></trkpt><trkpt lat="45.143536793593604" lon="5.596662426960417"><ele>963.0</ele><time>2026-05-02T16:29:43.999Z</time></trkpt><trkpt lat="45.143613865463806" lon="5.596915267777318"><ele>962.0</ele><time>2026-05-02T16:29:44.999Z</time></trkpt><trkpt lat="45.14372236262487" lon="5.59711773848723"><ele>961.0</ele><time>2026-05-02T16:29:45.999Z</time></trkpt><trkpt lat="45.143886583538375" lon="5.597262045980642"><ele>960.0</ele><time>2026-05-02T16:29:46.999Z</time></trkpt><trkpt lat="45.14409104827344" lon="5.597386738067344"><ele>960.0</ele><time>2026-05-02T16:29:47.999Z</time></trkpt><trkpt lat="45.14431242226263" lon="5.5974904140269865"><ele>960.0</ele><time>2026-05-02T16:29:48.999Z</time></trkpt><trkpt lat="45.144538403949504" lon="5.597566811448378"><ele>960.0</ele><time>2026-05-02T16:29:49.999Z</time></trkpt><trkpt lat="45.144768354673076" lon="5.597568380771184"><ele>960.0</ele><time>2026-05-02T16:29:50.999Z</time></trkpt><trkpt lat="45.14500048792487" lon="5.597483521629855"><ele>961.0</ele><time>2026-05-02T16:29:51.999Z</time></trkpt><trkpt lat="45.14522619506109" lon="5.597389200622709"><ele>962.0</ele><time>2026-05-02T16:29:52.999Z</time></trkpt><trkpt lat="45.14545093637963" lon="5.597351547782634"><ele>962.0</ele><time>2026-05-02T16:29:53.999Z</time></trkpt><trkpt lat="45.145651484882166" lon="5.5973938354913795"><ele>962.0</ele><time>2026-05-02T16:29:54.999Z</time></trkpt><trkpt lat="45.14583829997011" lon="5.597489520678224"><ele>962.0</ele><time>2026-05-02T16:29:55.999Z</time></trkpt><trkpt lat="45.14599983191736" lon="5.597693024040922"><ele>962.0</ele><time>2026-05-02T16:29:56.999Z</time></trkpt><trkpt lat="45.14611205478308" lon="5.597979923183949"><ele>962.0</ele><time>2026-05-02T16:29:57.999Z</time></trkpt><trkpt lat="45.14617918994524" lon="5.598320379958475"><ele>966.5</ele><time>2026-05-02T16:29:58.999Z</time></trkpt><trkpt lat="45.146209464542366" lon="5.598684047873376"><ele>971.0</ele><time>2026-05-02T16:29:59.999Z</time></trkpt><trkpt lat="45.14628344085735" lon="5.599005612776635"><ele>971.0</ele><time>2026-05-02T16:30:00.999Z</time></trkpt><trkpt lat="45.146413803181936" lon="5.599296766226222"><ele>971.0</ele><time>2026-05-02T16:30:01.999Z</time></trkpt><trkpt lat="45.1465851070594" lon="5.599559355617101"><ele>969.0</ele><time>2026-05-02T16:30:02.999Z</time></trkpt><trkpt lat="45.146765560299364" lon="5.599790846238519"><ele>967.0</ele><time>2026-05-02T16:30:03.999Z</time></trkpt><trkpt lat="45.14694382279352" lon="5.60001723824428"><ele>967.0</ele><time>2026-05-02T16:30:04.999Z</time></trkpt><trkpt lat="45.14713787317646" lon="5.600187624934055"><ele>967.0</ele><time>2026-05-02T16:30:05.999Z</time></trkpt><trkpt lat="45.14733894803505" lon="5.600277428696958"><ele>967.0</ele><time>2026-05-02T16:30:06.999Z</time></trkpt><trkpt lat="45.147573242323695" lon="5.600307747277577"><ele>973.5</ele><time>2026-05-02T16:30:07.999Z</time></trkpt><trkpt lat="45.14782142201743" lon="5.600290379864601"><ele>980.0</ele><time>2026-05-02T16:30:08.999Z</time></trkpt><trkpt lat="45.14808500968317" lon="5.600271396284376"><ele>976.0</ele><time>2026-05-02T16:30:09.999Z</time></trkpt><trkpt lat="45.148334925598334" lon="5.600206052272247"><ele>972.0</ele><time>2026-05-02T16:30:10.999Z</time></trkpt><trkpt lat="45.14858383532099" lon="5.600146138396725"><ele>972.0</ele><time>2026-05-02T16:30:11.999Z</time></trkpt><trkpt lat="45.148832374477934" lon="5.600088983923179"><ele>972.0</ele><time>2026-05-02T16:30:12.999Z</time></trkpt><trkpt lat="45.14907848481894" lon="5.60004281973675"><ele>972.5</ele><time>2026-05-02T16:30:13.999Z</time></trkpt><trkpt lat="45.14932517228424" lon="5.600013200204442"><ele>973.0</ele><time>2026-05-02T16:30:14.999Z</time></trkpt><trkpt lat="45.14957220510603" lon="5.600004076365264"><ele>973.0</ele><time>2026-05-02T16:30:15.999Z</time></trkpt><trkpt lat="45.14981539197248" lon="5.600009589433938"><ele>973.0</ele><time>2026-05-02T16:30:16.999Z</time></trkpt><trkpt lat="45.15004747146597" lon="5.600082230726615"><ele>962.5</ele><time>2026-05-02T16:30:17.999Z</time></trkpt><trkpt lat="45.15027317970753" lon="5.600184274667044"><ele>952.0</ele><time>2026-05-02T16:30:18.999Z</time></trkpt><trkpt lat="45.1504857785087" lon="5.600324211980854"><ele>944.0</ele><time>2026-05-02T16:30:19.999Z</time></trkpt><trkpt lat="45.1506864907707" lon="5.600500271610891"><ele>936.0</ele><time>2026-05-02T16:30:20.998Z</time></trkpt><trkpt lat="45.15085930035016" lon="5.60069483503904"><ele>936.0</ele><time>2026-05-02T16:30:21.998Z</time></trkpt><trkpt lat="45.15101053657769" lon="5.600902381347274"><ele>936.0</ele><time>2026-05-02T16:30:22.998Z</time></trkpt><trkpt lat="45.151138113829354" lon="5.601114828550261"><ele>936.0</ele><time>2026-05-02T16:30:23.998Z</time></trkpt><trkpt lat="45.15123487209343" lon="5.601334954962174"><ele>934.3333333333333</ele><time>2026-05-02T16:30:24.998Z</time></trkpt><trkpt lat="45.15132462475083" lon="5.6015592246146815"><ele>932.6666666666666</ele><time>2026-05-02T16:30:25.998Z</time></trkpt><trkpt lat="45.15141949308071" lon="5.601773364718701"><ele>931.0</ele><time>2026-05-02T16:30:26.998Z</time></trkpt><trkpt lat="45.15151698663278" lon="5.601970626930201"><ele>927.0</ele><time>2026-05-02T16:30:27.998Z</time></trkpt><trkpt lat="45.15162944098145" lon="5.602176662424313"><ele>923.0</ele><time>2026-05-02T16:30:28.998Z</time></trkpt><trkpt lat="45.15175768275296" lon="5.6023785548697775"><ele>919.0</ele><time>2026-05-02T16:30:29.998Z</time></trkpt><trkpt lat="45.15191439803358" lon="5.602587201240578"><ele>919.0</ele><time>2026-05-02T16:30:30.998Z</time></trkpt><trkpt lat="45.15210577903727" lon="5.602796429923691"><ele>919.0</ele><time>2026-05-02T16:30:31.998Z</time></trkpt><trkpt lat="45.15231924037278" lon="5.6030243987534645"><ele>919.0</ele><time>2026-05-02T16:30:32.998Z</time></trkpt><trkpt lat="45.152544973041024" lon="5.6032532340623"><ele>919.0</ele><time>2026-05-02T16:30:33.998Z</time></trkpt><trkpt lat="45.15275580635564" lon="5.603477255275349"><ele>920.0</ele><time>2026-05-02T16:30:34.998Z</time></trkpt><trkpt lat="45.1529555049507" lon="5.603690831576719"><ele>921.0</ele><time>2026-05-02T16:30:35.998Z</time></trkpt><trkpt lat="45.15315812801483" lon="5.603914588810526"><ele>917.0</ele><time>2026-05-02T16:30:36.998Z</time></trkpt><trkpt lat="45.15336804982482" lon="5.604152203765801"><ele>913.0</ele><time>2026-05-02T16:30:37.998Z</time></trkpt><trkpt lat="45.15359335903598" lon="5.60436077362608"><ele>914.5</ele><time>2026-05-02T16:30:38.998Z</time></trkpt><trkpt lat="45.153773265292074" lon="5.604611599753419"><ele>916.0</ele><time>2026-05-02T16:30:39.998Z</time></trkpt><trkpt lat="45.15389181705362" lon="5.604908127001717"><ele>916.0</ele><time>2026-05-02T16:30:40.998Z</time></trkpt><trkpt lat="45.153968240099864" lon="5.605206332217336"><ele>916.0</ele><time>2026-05-02T16:30:41.998Z</time></trkpt><trkpt lat="45.1540609730534" lon="5.605487658896774"><ele>916.0</ele><time>2026-05-02T16:30:42.998Z</time></trkpt><trkpt lat="45.15420092111826" lon="5.605713888971261"><ele>912.5</ele><time>2026-05-02T16:30:43.998Z</time></trkpt><trkpt lat="45.15439285501629" lon="5.60587004530469"><ele>909.0</ele><time>2026-05-02T16:30:44.998Z</time></trkpt><trkpt lat="45.154614349391466" lon="5.60597079063208"><ele>909.0</ele><time>2026-05-02T16:30:45.998Z</time></trkpt><trkpt lat="45.15485537527671" lon="5.6060684289733524"><ele>909.0</ele><time>2026-05-02T16:30:46.998Z</time></trkpt><trkpt lat="45.15510057742423" lon="5.606162611403043"><ele>915.5</ele><time>2026-05-02T16:30:48Z</time></trkpt><trkpt lat="45.155342489293425" lon="5.606254347332363"><ele>922.0</ele><time>2026-05-02T16:30:49Z</time></trkpt><trkpt lat="45.155584646397756" lon="5.606347903891346"><ele>913.5</ele><time>2026-05-02T16:30:50Z</time></trkpt><trkpt lat="45.155821389631846" lon="5.606432959749129"><ele>905.0</ele><time>2026-05-02T16:30:51Z</time></trkpt><trkpt lat="45.15605741941382" lon="5.606523012343332"><ele>905.0</ele><time>2026-05-02T16:30:52Z</time></trkpt><trkpt lat="45.15628966371405" lon="5.606636045295771"><ele>905.0</ele><time>2026-05-02T16:30:53Z</time></trkpt><trkpt lat="45.15651491153967" lon="5.606769206589033"><ele>904.0</ele><time>2026-05-02T16:30:54Z</time></trkpt><trkpt lat="45.15673797532296" lon="5.606908999399107"><ele>903.0</ele><time>2026-05-02T16:30:55Z</time></trkpt><trkpt lat="45.15696390148965" lon="5.607048654887395"><ele>903.0</ele><time>2026-05-02T16:30:56Z</time></trkpt><trkpt lat="45.157187882963875" lon="5.607195276627376"><ele>903.0</ele><time>2026-05-02T16:30:57Z</time></trkpt><trkpt lat="45.15739619300237" lon="5.607361366489803"><ele>904.0</ele><time>2026-05-02T16:30:58Z</time></trkpt><trkpt lat="45.15759667609562" lon="5.607550246929004"><ele>905.0</ele><time>2026-05-02T16:30:59Z</time></trkpt><trkpt lat="45.15781260372506" lon="5.607713211959779"><ele>905.0</ele><time>2026-05-02T16:31:00Z</time></trkpt><trkpt lat="45.1580355540317" lon="5.607825322193148"><ele>905.0</ele><time>2026-05-02T16:31:01Z</time></trkpt><trkpt lat="45.158274271892715" lon="5.6079190185998105"><ele>902.5</ele><time>2026-05-02T16:31:02Z</time></trkpt><trkpt lat="45.15850031798344" lon="5.60802036949064"><ele>900.0</ele><time>2026-05-02T16:31:03Z</time></trkpt><trkpt lat="45.1587494581052" lon="5.608123373581409"><ele>900.0</ele><time>2026-05-02T16:31:04Z</time></trkpt><trkpt lat="45.15898535358364" lon="5.608252579217241"><ele>900.0</ele><time>2026-05-02T16:31:05Z</time></trkpt><trkpt lat="45.15921596814935" lon="5.608384014433168"><ele>901.0</ele><time>2026-05-02T16:31:06Z</time></trkpt><trkpt lat="45.15944160643659" lon="5.608536410492241"><ele>902.0</ele><time>2026-05-02T16:31:07Z</time></trkpt><trkpt lat="45.15965598053858" lon="5.608714304037306"><ele>899.5</ele><time>2026-05-02T16:31:08Z</time></trkpt><trkpt lat="45.159880102621784" lon="5.608888664838042"><ele>897.0</ele><time>2026-05-02T16:31:09Z</time></trkpt><trkpt lat="45.16012004175098" lon="5.60902331339091"><ele>897.0</ele><time>2026-05-02T16:31:10Z</time></trkpt><trkpt lat="45.160357408419394" lon="5.609132749409938"><ele>897.0</ele><time>2026-05-02T16:31:11Z</time></trkpt><trkpt lat="45.160593589141975" lon="5.6092433508302975"><ele>899.5</ele><time>2026-05-02T16:31:12Z</time></trkpt><trkpt lat="45.16083292830927" lon="5.609336866086828"><ele>902.0</ele><time>2026-05-02T16:31:13Z</time></trkpt><trkpt lat="45.16107080735697" lon="5.609387796487751"><ele>902.0</ele><time>2026-05-02T16:31:14Z</time></trkpt><trkpt lat="45.16132827701109" lon="5.609402160063715"><ele>902.0</ele><time>2026-05-02T16:31:15Z</time></trkpt><trkpt lat="45.16160714069097" lon="5.609403726326067"><ele>903.5</ele><time>2026-05-02T16:31:16Z</time></trkpt><trkpt lat="45.16189253155287" lon="5.609414554310686"><ele>905.0</ele><time>2026-05-02T16:31:17Z</time></trkpt><trkpt lat="45.16218109066372" lon="5.609442782940081"><ele>907.5</ele><time>2026-05-02T16:31:18Z</time></trkpt><trkpt lat="45.16247424885973" lon="5.609482138478503"><ele>910.0</ele><time>2026-05-02T16:31:19Z</time></trkpt><trkpt lat="45.16276272207516" lon="5.609527929527439"><ele>901.0</ele><time>2026-05-02T16:31:20Z</time></trkpt><trkpt lat="45.16305406902629" lon="5.609574324697612"><ele>892.0</ele><time>2026-05-02T16:31:21Z</time></trkpt><trkpt lat="45.1633380872602" lon="5.609623206304494"><ele>890.0</ele><time>2026-05-02T16:31:22Z</time></trkpt><trkpt lat="45.16360098279153" lon="5.609681694731657"><ele>888.0</ele><time>2026-05-02T16:31:23Z</time></trkpt><trkpt lat="45.16384182739739" lon="5.609773246259382"><ele>889.5</ele><time>2026-05-02T16:31:24Z</time></trkpt><trkpt lat="45.16406016695326" lon="5.6099410312683196"><ele>891.0</ele><time>2026-05-02T16:31:25Z</time></trkpt><trkpt lat="45.164269941589666" lon="5.6101451761179915"><ele>893.5</ele><time>2026-05-02T16:31:26Z</time></trkpt><trkpt lat="45.16448854244006" lon="5.610361737796307"><ele>896.0</ele><time>2026-05-02T16:31:27Z</time></trkpt><trkpt lat="45.164710615941296" lon="5.6105654993834975"><ele>890.5</ele><time>2026-05-02T16:31:28Z</time></trkpt><trkpt lat="45.16492138283109" lon="5.610768195999844"><ele>885.0</ele><time>2026-05-02T16:31:29Z</time></trkpt><trkpt lat="45.16513499755783" lon="5.610921854622819"><ele>885.0</ele><time>2026-05-02T16:31:29.999Z</time></trkpt><trkpt lat="45.16537675285224" lon="5.611007842379022"><ele>885.0</ele><time>2026-05-02T16:31:30.999Z</time></trkpt><trkpt lat="45.16563381528668" lon="5.61102768055234"><ele>883.5</ele><time>2026-05-02T16:31:31.999Z</time></trkpt><trkpt lat="45.16589369037724" lon="5.611004745213"><ele>882.0</ele><time>2026-05-02T16:31:32.999Z</time></trkpt><trkpt lat="45.166143592646236" lon="5.611049474354695"><ele>882.0</ele><time>2026-05-02T16:31:33.999Z</time></trkpt><trkpt lat="45.166382138204355" lon="5.611139772767962"><ele>882.0</ele><time>2026-05-02T16:31:34.999Z</time></trkpt><trkpt lat="45.16660902816013" lon="5.611293985125436"><ele>878.0</ele><time>2026-05-02T16:31:35.999Z</time></trkpt><trkpt lat="45.166822766936455" lon="5.611514656330809"><ele>874.0</ele><time>2026-05-02T16:31:36.999Z</time></trkpt><trkpt lat="45.167043961976205" lon="5.6117725337389786"><ele>874.0</ele><time>2026-05-02T16:31:37.999Z</time></trkpt><trkpt lat="45.167295161926205" lon="5.611977814078897"><ele>874.0</ele><time>2026-05-02T16:31:38.999Z</time></trkpt><trkpt lat="45.16756036632397" lon="5.612143603590628"><ele>873.0</ele><time>2026-05-02T16:31:39.999Z</time></trkpt><trkpt lat="45.16784820196147" lon="5.6122753666338845"><ele>872.0</ele><time>2026-05-02T16:31:40.999Z</time></trkpt><trkpt lat="45.16814134237365" lon="5.612406408376691"><ele>875.5</ele><time>2026-05-02T16:31:41.999Z</time></trkpt><trkpt lat="45.16841608489433" lon="5.612567170873111"><ele>879.0</ele><time>2026-05-02T16:31:42.999Z</time></trkpt><trkpt lat="45.16870946585808" lon="5.612693889206821"><ele>879.0</ele><time>2026-05-02T16:31:43.999Z</time></trkpt><trkpt lat="45.168986468703636" lon="5.612868441080302"><ele>879.0</ele><time>2026-05-02T16:31:44.999Z</time></trkpt><trkpt lat="45.16926538834184" lon="5.613029098351496"><ele>878.0</ele><time>2026-05-02T16:31:45.999Z</time></trkpt><trkpt lat="45.169543770824696" lon="5.6131706023575365"><ele>877.0</ele><time>2026-05-02T16:31:46.999Z</time></trkpt><trkpt lat="45.16979585234506" lon="5.613324659523964"><ele>876.0</ele><time>2026-05-02T16:31:47.999Z</time></trkpt><trkpt lat="45.170065705461866" lon="5.613474665498235"><ele>875.0</ele><time>2026-05-02T16:31:48.999Z</time></trkpt><trkpt lat="45.1703130458562" lon="5.613620152092116"><ele>872.0</ele><time>2026-05-02T16:31:49.999Z</time></trkpt><trkpt lat="45.17054848288026" lon="5.613729597466712"><ele>869.0</ele><time>2026-05-02T16:31:50.999Z</time></trkpt><trkpt lat="45.170778950604664" lon="5.613787115835282"><ele>869.0</ele><time>2026-05-02T16:31:51.999Z</time></trkpt><trkpt lat="45.17102224398511" lon="5.613760720617789"><ele>869.0</ele><time>2026-05-02T16:31:52.999Z</time></trkpt><trkpt lat="45.17127334810094" lon="5.613750200177916"><ele>869.0</ele><time>2026-05-02T16:31:53.999Z</time></trkpt><trkpt lat="45.171503350361135" lon="5.6137992493392055"><ele>869.0</ele><time>2026-05-02T16:31:54.999Z</time></trkpt><trkpt lat="45.171733418931304" lon="5.613913577551745"><ele>870.0</ele><time>2026-05-02T16:31:55.999Z</time></trkpt><trkpt lat="45.171958225155265" lon="5.6140826325968725"><ele>871.0</ele><time>2026-05-02T16:31:56.999Z</time></trkpt><trkpt lat="45.1721829780639" lon="5.6142838721488495"><ele>867.5</ele><time>2026-05-02T16:31:57.999Z</time></trkpt><trkpt lat="45.172417333688315" lon="5.614461314932409"><ele>864.0</ele><time>2026-05-02T16:31:58.999Z</time></trkpt><trkpt lat="45.172651037184956" lon="5.614619189724189"><ele>864.0</ele><time>2026-05-02T16:31:59.999Z</time></trkpt><trkpt lat="45.17289575959279" lon="5.614731803549592"><ele>864.0</ele><time>2026-05-02T16:32:00.999Z</time></trkpt><trkpt lat="45.17313440168636" lon="5.6148018488896705"><ele>867.0</ele><time>2026-05-02T16:32:01.999Z</time></trkpt><trkpt lat="45.173352066127876" lon="5.614870684530337"><ele>870.0</ele><time>2026-05-02T16:32:02.999Z</time></trkpt><trkpt lat="45.1735576634612" lon="5.614947997971487"><ele>873.0</ele><time>2026-05-02T16:32:03.999Z</time></trkpt><trkpt lat="45.17375284171261" lon="5.615089896928094"><ele>873.0</ele><time>2026-05-02T16:32:04.999Z</time></trkpt><trkpt lat="45.17393099749717" lon="5.6152832311558845"><ele>873.0</ele><time>2026-05-02T16:32:05.999Z</time></trkpt><trkpt lat="45.17408065916318" lon="5.615517217226797"><ele>873.0</ele><time>2026-05-02T16:32:06.999Z</time></trkpt><trkpt lat="45.17419108965847" lon="5.615759753683166"><ele>869.6666666666667</ele><time>2026-05-02T16:32:07.999Z</time></trkpt><trkpt lat="45.17427563314307" lon="5.616002093912733"><ele>866.3333333333334</ele><time>2026-05-02T16:32:08.999Z</time></trkpt><trkpt lat="45.17435170164643" lon="5.616233293901188"><ele>863.0</ele><time>2026-05-02T16:32:09.999Z</time></trkpt><trkpt lat="45.17440855466493" lon="5.616460172171251"><ele>862.0</ele><time>2026-05-02T16:32:10.999Z</time></trkpt><trkpt lat="45.1744965421821" lon="5.616681480137353"><ele>861.0</ele><time>2026-05-02T16:32:11.999Z</time></trkpt><trkpt lat="45.174604074978305" lon="5.616881800760656"><ele>860.0</ele><time>2026-05-02T16:32:12.999Z</time></trkpt><trkpt lat="45.17471194496837" lon="5.617072757545991"><ele>860.3333333333334</ele><time>2026-05-02T16:32:13.999Z</time></trkpt><trkpt lat="45.17480722208793" lon="5.6172484233056466"><ele>860.6666666666667</ele><time>2026-05-02T16:32:14.999Z</time></trkpt><trkpt lat="45.17489645231574" lon="5.617421332634666"><ele>861.0</ele><time>2026-05-02T16:32:15.999Z</time></trkpt><trkpt lat="45.174992466080724" lon="5.617594963621965"><ele>861.0</ele><time>2026-05-02T16:32:16.999Z</time></trkpt><trkpt lat="45.17509598299141" lon="5.617740375505087"><ele>861.0</ele><time>2026-05-02T16:32:17.999Z</time></trkpt><trkpt lat="45.17520201384874" lon="5.617846643034107"><ele>861.0</ele><time>2026-05-02T16:32:18.999Z</time></trkpt><trkpt lat="45.17529776321231" lon="5.617944093748178"><ele>861.0</ele><time>2026-05-02T16:32:19.999Z</time></trkpt><trkpt lat="45.17537919331924" lon="5.618008787463429"><ele>860.4</ele><time>2026-05-02T16:32:20.999Z</time></trkpt><trkpt lat="45.17545610533716" lon="5.618055926756838"><ele>859.8</ele><time>2026-05-02T16:32:21.999Z</time></trkpt><trkpt lat="45.17553931683728" lon="5.6180983021257775"><ele>859.1999999999999</ele><time>2026-05-02T16:32:22.999Z</time></trkpt><trkpt lat="45.17562920541497" lon="5.618142804503833"><ele>858.5999999999999</ele><time>2026-05-02T16:32:23.999Z</time></trkpt><trkpt lat="45.175729552271235" lon="5.61816879915136"><ele>858.0</ele><time>2026-05-02T16:32:24.999Z</time></trkpt><trkpt lat="45.17582858201076" lon="5.618161003230577"><ele>858.0</ele><time>2026-05-02T16:32:25.999Z</time></trkpt><trkpt lat="45.175933816664404" lon="5.618151748513039"><ele>858.0</ele><time>2026-05-02T16:32:26.999Z</time></trkpt><trkpt lat="45.17602872446711" lon="5.618115528112472"><ele>858.0</ele><time>2026-05-02T16:32:27.998Z</time></trkpt><trkpt lat="45.17612292295472" lon="5.618078193923372"><ele>858.0</ele><time>2026-05-02T16:32:28.998Z</time></trkpt><trkpt lat="45.17622234183047" lon="5.618051270822208"><ele>858.0</ele><time>2026-05-02T16:32:29.998Z</time></trkpt><trkpt lat="45.17632083516365" lon="5.618029240850751"><ele>858.0</ele><time>2026-05-02T16:32:30.998Z</time></trkpt><trkpt lat="45.17641561625424" lon="5.6180464705733915"><ele>858.0</ele><time>2026-05-02T16:32:31.998Z</time></trkpt><trkpt lat="45.176506780947136" lon="5.618118645990473"><ele>858.0</ele><time>2026-05-02T16:32:32.998Z</time></trkpt><trkpt lat="45.17658509611102" lon="5.618222008842716"><ele>858.0</ele><time>2026-05-02T16:32:33.998Z</time></trkpt><trkpt lat="45.17664719631423" lon="5.618355439125865"><ele>858.0</ele><time>2026-05-02T16:32:34.998Z</time></trkpt><trkpt lat="45.176708289254194" lon="5.618486404878646"><ele>858.5999999999999</ele><time>2026-05-02T16:32:35.998Z</time></trkpt><trkpt lat="45.17678537733565" lon="5.61859859658424"><ele>859.1999999999999</ele><time>2026-05-02T16:32:36.998Z</time></trkpt><trkpt lat="45.17686816444017" lon="5.6187075988476085"><ele>859.8</ele><time>2026-05-02T16:32:37.998Z</time></trkpt><trkpt lat="45.17695450901349" lon="5.6188050000107825"><ele>860.4</ele><time>2026-05-02T16:32:38.998Z</time></trkpt><trkpt lat="45.177049495272534" lon="5.618875932897494"><ele>861.0</ele><time>2026-05-02T16:32:39.998Z</time></trkpt><trkpt lat="45.17716721884565" lon="5.618901212421628"><ele>858.75</ele><time>2026-05-02T16:32:40.998Z</time></trkpt><trkpt lat="45.17728324845053" lon="5.61889518516695"><ele>856.5</ele><time>2026-05-02T16:32:41.998Z</time></trkpt><trkpt lat="45.17739456254566" lon="5.6188873417699705"><ele>854.25</ele><time>2026-05-02T16:32:42.998Z</time></trkpt><trkpt lat="45.17752205768977" lon="5.618867059679867"><ele>852.0</ele><time>2026-05-02T16:32:43.998Z</time></trkpt><trkpt lat="45.17765622512027" lon="5.618854109156262"><ele>852.0</ele><time>2026-05-02T16:32:44.998Z</time></trkpt><trkpt lat="45.17777771486558" lon="5.618848078750233"><ele>852.0</ele><time>2026-05-02T16:32:45.998Z</time></trkpt><trkpt lat="45.17788451221114" lon="5.618852381823988"><ele>852.0</ele><time>2026-05-02T16:32:46.998Z</time></trkpt><trkpt lat="45.17798948479187" lon="5.618879570193404"><ele>852.0</ele><time>2026-05-02T16:32:47.998Z</time></trkpt><trkpt lat="45.1780856634984" lon="5.618923387978387"><ele>852.0</ele><time>2026-05-02T16:32:48.998Z</time></trkpt><trkpt lat="45.1781769686977" lon="5.61896998007227"><ele>852.5</ele><time>2026-05-02T16:32:49.998Z</time></trkpt><trkpt lat="45.17827985662822" lon="5.61900792364282"><ele>853.0</ele><time>2026-05-02T16:32:50.998Z</time></trkpt><trkpt lat="45.17839838783618" lon="5.619060807948377"><ele>853.5</ele><time>2026-05-02T16:32:51.998Z</time></trkpt><trkpt lat="45.178542798850415" lon="5.6191232836455125"><ele>854.0</ele><time>2026-05-02T16:32:52.998Z</time></trkpt><trkpt lat="45.17871550830236" lon="5.619204875584068"><ele>854.0</ele><time>2026-05-02T16:32:54Z</time></trkpt><trkpt lat="45.17890285010152" lon="5.61929326562257"><ele>854.0</ele><time>2026-05-02T16:32:55Z</time></trkpt><trkpt lat="45.17909007462163" lon="5.619382639295022"><ele>854.0</ele><time>2026-05-02T16:32:56Z</time></trkpt><trkpt lat="45.17926377953933" lon="5.619490170693249"><ele>849.3333333333334</ele><time>2026-05-02T16:32:57Z</time></trkpt><trkpt lat="45.1794283930874" lon="5.619617949103055"><ele>844.6666666666667</ele><time>2026-05-02T16:32:58Z</time></trkpt><trkpt lat="45.179585276898145" lon="5.6197365053667845"><ele>840.0</ele><time>2026-05-02T16:32:59Z</time></trkpt><trkpt lat="45.179752635913566" lon="5.619767992863309"><ele>839.6666666666667</ele><time>2026-05-02T16:33:00Z</time></trkpt><trkpt lat="45.17992585214829" lon="5.619713780818998"><ele>839.3333333333334</ele><time>2026-05-02T16:33:01Z</time></trkpt><trkpt lat="45.18010917850932" lon="5.61961505427685"><ele>839.0</ele><time>2026-05-02T16:33:02Z</time></trkpt><trkpt lat="45.180296777434556" lon="5.619560475650193"><ele>839.0</ele><time>2026-05-02T16:33:03Z</time></trkpt><trkpt lat="45.18048467607247" lon="5.619612618536686"><ele>839.0</ele><time>2026-05-02T16:33:04Z</time></trkpt><trkpt lat="45.18065965296597" lon="5.619761416148297"><ele>839.0</ele><time>2026-05-02T16:33:05Z</time></trkpt><trkpt lat="45.180825622299075" lon="5.6199850892727365"><ele>840.3333333333334</ele><time>2026-05-02T16:33:06Z</time></trkpt><trkpt lat="45.18099154534988" lon="5.620153688381997"><ele>841.6666666666667</ele><time>2026-05-02T16:33:07Z</time></trkpt><trkpt lat="45.1811414325725" lon="5.620298777724395"><ele>843.0</ele><time>2026-05-02T16:33:08Z</time></trkpt><trkpt lat="45.18128341614274" lon="5.620405869983392"><ele>843.0</ele><time>2026-05-02T16:33:09Z</time></trkpt><trkpt lat="45.18144293453718" lon="5.620442297980453"><ele>843.0</ele><time>2026-05-02T16:33:10Z</time></trkpt><trkpt lat="45.181608677539145" lon="5.62040139145042"><ele>843.0</ele><time>2026-05-02T16:33:11Z</time></trkpt><trkpt lat="45.18176904590416" lon="5.620308737443046"><ele>843.5</ele><time>2026-05-02T16:33:12Z</time></trkpt><trkpt lat="45.181915511441765" lon="5.620242078823681"><ele>844.0</ele><time>2026-05-02T16:33:13Z</time></trkpt><trkpt lat="45.18205005302437" lon="5.620261429191518"><ele>844.5</ele><time>2026-05-02T16:33:14Z</time></trkpt><trkpt lat="45.18217100687242" lon="5.620363047460126"><ele>845.0</ele><time>2026-05-02T16:33:15Z</time></trkpt><trkpt lat="45.18225772733204" lon="5.620537799897224"><ele>843.6666666666667</ele><time>2026-05-02T16:33:16Z</time></trkpt><trkpt lat="45.18232839227593" lon="5.620787317384427"><ele>842.3333333333333</ele><time>2026-05-02T16:33:17Z</time></trkpt><trkpt lat="45.18244245148364" lon="5.621025239927306"><ele>841.0</ele><time>2026-05-02T16:33:18Z</time></trkpt><trkpt lat="45.18259605536524" lon="5.621238379057959"><ele>836.3333333333333</ele><time>2026-05-02T16:33:19Z</time></trkpt><trkpt lat="45.182734749117024" lon="5.621409182663459"><ele>831.6666666666667</ele><time>2026-05-02T16:33:20Z</time></trkpt><trkpt lat="45.182871690934" lon="5.62152856643171"><ele>827.0</ele><time>2026-05-02T16:33:21Z</time></trkpt><trkpt lat="45.18302390860687" lon="5.621556644074967"><ele>827.0</ele><time>2026-05-02T16:33:22Z</time></trkpt><trkpt lat="45.183177486103844" lon="5.621489198414173"><ele>827.0</ele><time>2026-05-02T16:33:23Z</time></trkpt><trkpt lat="45.18330982871248" lon="5.621341312709799"><ele>827.0</ele><time>2026-05-02T16:33:24Z</time></trkpt><trkpt lat="45.18341056639269" lon="5.621152805728819"><ele>826.0</ele><time>2026-05-02T16:33:25Z</time></trkpt><trkpt lat="45.1835190626323" lon="5.621023707995603"><ele>825.0</ele><time>2026-05-02T16:33:26Z</time></trkpt><trkpt lat="45.183663045583124" lon="5.620984353973696"><ele>824.0</ele><time>2026-05-02T16:33:27Z</time></trkpt><trkpt lat="45.183801724358894" lon="5.621075222233452"><ele>823.0</ele><time>2026-05-02T16:33:28Z</time></trkpt><trkpt lat="45.18395152682079" lon="5.621244447232478"><ele>819.6666666666666</ele><time>2026-05-02T16:33:29Z</time></trkpt><trkpt lat="45.184131449364756" lon="5.621410038465163"><ele>816.3333333333333</ele><time>2026-05-02T16:33:30Z</time></trkpt><trkpt lat="45.18431938783261" lon="5.621490264268922"><ele>813.0</ele><time>2026-05-02T16:33:31Z</time></trkpt><trkpt lat="45.18454618532015" lon="5.62149644688942"><ele>813.0</ele><time>2026-05-02T16:33:32Z</time></trkpt><trkpt lat="45.1847712829514" lon="5.621482927727717"><ele>813.0</ele><time>2026-05-02T16:33:33Z</time></trkpt><trkpt lat="45.18496041124994" lon="5.621588982453772"><ele>813.0</ele><time>2026-05-02T16:33:34Z</time></trkpt><trkpt lat="45.1850996006949" lon="5.6217446470899075"><ele>814.0</ele><time>2026-05-02T16:33:35Z</time></trkpt><trkpt lat="45.18525008397191" lon="5.621860441209591"><ele>815.0</ele><time>2026-05-02T16:33:36Z</time></trkpt><trkpt lat="45.185415892656906" lon="5.621934053292245"><ele>816.0</ele><time>2026-05-02T16:33:36.999Z</time></trkpt><trkpt lat="45.185620818711406" lon="5.621906378543869"><ele>815.0</ele><time>2026-05-02T16:33:37.999Z</time></trkpt><trkpt lat="45.18585671119238" lon="5.62184224936026"><ele>814.0</ele><time>2026-05-02T16:33:38.999Z</time></trkpt><trkpt lat="45.18607695914518" lon="5.621765715553995"><ele>814.0</ele><time>2026-05-02T16:33:39.999Z</time></trkpt><trkpt lat="45.18628104078287" lon="5.621724222356098"><ele>814.0</ele><time>2026-05-02T16:33:40.999Z</time></trkpt><trkpt lat="45.18646285523492" lon="5.621698840104368"><ele>814.0</ele><time>2026-05-02T16:33:41.999Z</time></trkpt><trkpt lat="45.18661908146561" lon="5.621739800199122"><ele>813.6666666666666</ele><time>2026-05-02T16:33:42.999Z</time></trkpt><trkpt lat="45.18673413862473" lon="5.62192604822869"><ele>813.3333333333333</ele><time>2026-05-02T16:33:43.999Z</time></trkpt><trkpt lat="45.18684687928763" lon="5.622156898131313"><ele>813.0</ele><time>2026-05-02T16:33:44.999Z</time></trkpt><trkpt lat="45.186986859408655" lon="5.622392275442621"><ele>805.3333333333333</ele><time>2026-05-02T16:33:45.999Z</time></trkpt><trkpt lat="45.18714901304419" lon="5.622607849250274"><ele>797.6666666666666</ele><time>2026-05-02T16:33:46.999Z</time></trkpt><trkpt lat="45.18732799491396" lon="5.622781509866348"><ele>790.0</ele><time>2026-05-02T16:33:47.999Z</time></trkpt><trkpt lat="45.18752536523761" lon="5.6229253490089555"><ele>786.6666666666666</ele><time>2026-05-02T16:33:48.999Z</time></trkpt><trkpt lat="45.18770325582213" lon="5.6231134548365675"><ele>783.3333333333333</ele><time>2026-05-02T16:33:49.999Z</time></trkpt><trkpt lat="45.1878888688668" lon="5.623289704781398"><ele>780.0</ele><time>2026-05-02T16:33:50.999Z</time></trkpt><trkpt lat="45.188075609595714" lon="5.623473677614484"><ele>779.0</ele><time>2026-05-02T16:33:51.999Z</time></trkpt><trkpt lat="45.188260743299956" lon="5.62365742640856"><ele>778.0</ele><time>2026-05-02T16:33:52.999Z</time></trkpt><trkpt lat="45.18844720719146" lon="5.623846876602594"><ele>778.0</ele><time>2026-05-02T16:33:53.999Z</time></trkpt><trkpt lat="45.1886342663855" lon="5.624037080654371"><ele>778.0</ele><time>2026-05-02T16:33:54.999Z</time></trkpt><trkpt lat="45.18882166547604" lon="5.624227630333571"><ele>782.5</ele><time>2026-05-02T16:33:55.999Z</time></trkpt><trkpt lat="45.18900983433475" lon="5.624418981007271"><ele>787.0</ele><time>2026-05-02T16:33:56.999Z</time></trkpt><trkpt lat="45.18919742262242" lon="5.624610840713945"><ele>777.5</ele><time>2026-05-02T16:33:57.999Z</time></trkpt><trkpt lat="45.18938235478388" lon="5.6248077221020285"><ele>768.0</ele><time>2026-05-02T16:33:58.999Z</time></trkpt><trkpt lat="45.18956554612107" lon="5.6249765598182"><ele>768.0</ele><time>2026-05-02T16:33:59.999Z</time></trkpt><trkpt lat="45.18973943849413" lon="5.625125618087974"><ele>768.0</ele><time>2026-05-02T16:34:00.999Z</time></trkpt><trkpt lat="45.189923496967324" lon="5.625243976795728"><ele>768.0</ele><time>2026-05-02T16:34:01.999Z</time></trkpt><trkpt lat="45.19012992998742" lon="5.625278980734558"><ele>769.0</ele><time>2026-05-02T16:34:02.999Z</time></trkpt><trkpt lat="45.19033065967073" lon="5.62525769461668"><ele>770.0</ele><time>2026-05-02T16:34:03.999Z</time></trkpt><trkpt lat="45.19053211057805" lon="5.625192666902812"><ele>771.0</ele><time>2026-05-02T16:34:04.999Z</time></trkpt><trkpt lat="45.19072110684222" lon="5.625085096510887"><ele>771.0</ele><time>2026-05-02T16:34:05.999Z</time></trkpt><trkpt lat="45.190907518085936" lon="5.625019246234098"><ele>771.0</ele><time>2026-05-02T16:34:06.999Z</time></trkpt><trkpt lat="45.191105420542364" lon="5.625032542776355"><ele>771.0</ele><time>2026-05-02T16:34:07.999Z</time></trkpt><trkpt lat="45.191279416593666" lon="5.625188975429762"><ele>765.6666666666666</ele><time>2026-05-02T16:34:08.999Z</time></trkpt><trkpt lat="45.1914487218274" lon="5.625328163142764"><ele>760.3333333333333</ele><time>2026-05-02T16:34:09.999Z</time></trkpt><trkpt lat="45.19159115515843" lon="5.625477336318972"><ele>755.0</ele><time>2026-05-02T16:34:10.999Z</time></trkpt><trkpt lat="45.19177213925346" lon="5.625556722651847"><ele>755.0</ele><time>2026-05-02T16:34:11.999Z</time></trkpt><trkpt lat="45.19197937329009" lon="5.625581068463614"><ele>755.0</ele><time>2026-05-02T16:34:12.999Z</time></trkpt><trkpt lat="45.192179959874" lon="5.6256074643145135"><ele>755.0</ele><time>2026-05-02T16:34:13.999Z</time></trkpt><trkpt lat="45.19235943902531" lon="5.625628696997317"><ele>753.6666666666666</ele><time>2026-05-02T16:34:14.999Z</time></trkpt><trkpt lat="45.1925413534521" lon="5.625614871714882"><ele>752.3333333333334</ele><time>2026-05-02T16:34:15.999Z</time></trkpt><trkpt lat="45.19270168726736" lon="5.625510196520287"><ele>751.0</ele><time>2026-05-02T16:34:16.999Z</time></trkpt><trkpt lat="45.19286695137303" lon="5.625440679372463"><ele>751.0</ele><time>2026-05-02T16:34:17.999Z</time></trkpt><trkpt lat="45.19304695555402" lon="5.625475257140153"><ele>751.0</ele><time>2026-05-02T16:34:18.999Z</time></trkpt><trkpt lat="45.193217941649955" lon="5.625617902874686"><ele>751.0</ele><time>2026-05-02T16:34:19.999Z</time></trkpt><trkpt lat="45.19338703070101" lon="5.625790449262501"><ele>750.0</ele><time>2026-05-02T16:34:20.999Z</time></trkpt><trkpt lat="45.19355553713136" lon="5.625958229456666"><ele>749.0</ele><time>2026-05-02T16:34:21.999Z</time></trkpt><trkpt lat="45.19376566808316" lon="5.626060492696039"><ele>748.0</ele><time>2026-05-02T16:34:22.999Z</time></trkpt><trkpt lat="45.19399236180975" lon="5.626105098015513"><ele>738.0</ele><time>2026-05-02T16:34:23.999Z</time></trkpt><trkpt lat="45.194221652313" lon="5.626153220159341"><ele>728.0</ele><time>2026-05-02T16:34:24.999Z</time></trkpt><trkpt lat="45.19444032280112" lon="5.626188424848484"><ele>728.0</ele><time>2026-05-02T16:34:25.999Z</time></trkpt><trkpt lat="45.19462693486034" lon="5.626250602740622"><ele>728.0</ele><time>2026-05-02T16:34:26.999Z</time></trkpt><trkpt lat="45.19481416764364" lon="5.626309020297482"><ele>728.0</ele><time>2026-05-02T16:34:27.999Z</time></trkpt><trkpt lat="45.194981835284665" lon="5.626385580031398"><ele>729.0</ele><time>2026-05-02T16:34:28.999Z</time></trkpt><trkpt lat="45.195141674401" lon="5.6264657555307025"><ele>730.0</ele><time>2026-05-02T16:34:29.999Z</time></trkpt><trkpt lat="45.19528850309493" lon="5.626598292930619"><ele>731.0</ele><time>2026-05-02T16:34:30.999Z</time></trkpt><trkpt lat="45.195442166221596" lon="5.626694547349085"><ele>731.0</ele><time>2026-05-02T16:34:31.999Z</time></trkpt><trkpt lat="45.19558410960808" lon="5.626791040175435"><ele>731.0</ele><time>2026-05-02T16:34:32.999Z</time></trkpt><trkpt lat="45.19573735813309" lon="5.626865849083512"><ele>731.0</ele><time>2026-05-02T16:34:33.998Z</time></trkpt><trkpt lat="45.195900558703215" lon="5.626929048760215"><ele>734.0</ele><time>2026-05-02T16:34:34.998Z</time></trkpt><trkpt lat="45.19606822824058" lon="5.626932322716505"><ele>737.0</ele><time>2026-05-02T16:34:35.998Z</time></trkpt><trkpt lat="45.19624904821784" lon="5.626949415559745"><ele>740.0</ele><time>2026-05-02T16:34:36.998Z</time></trkpt><trkpt lat="45.19642113335063" lon="5.627001725467759"><ele>732.3333333333333</ele><time>2026-05-02T16:34:37.998Z</time></trkpt><trkpt lat="45.19659547871639" lon="5.627096695089678"><ele>724.6666666666666</ele><time>2026-05-02T16:34:38.998Z</time></trkpt><trkpt lat="45.19676664903818" lon="5.627192625879848"><ele>717.0</ele><time>2026-05-02T16:34:39.998Z</time></trkpt><trkpt lat="45.19692812656598" lon="5.627276194682035"><ele>717.0</ele><time>2026-05-02T16:34:40.998Z</time></trkpt><trkpt lat="45.19709038312254" lon="5.627350114656849"><ele>717.0</ele><time>2026-05-02T16:34:41.998Z</time></trkpt><trkpt lat="45.19726129264025" lon="5.627417126509654"><ele>717.0</ele><time>2026-05-02T16:34:42.998Z</time></trkpt><trkpt lat="45.19742824314127" lon="5.62747607810998"><ele>720.3333333333334</ele><time>2026-05-02T16:34:43.998Z</time></trkpt><trkpt lat="45.197581220409376" lon="5.627528037354456"><ele>723.6666666666667</ele><time>2026-05-02T16:34:44.998Z</time></trkpt><trkpt lat="45.19772781959252" lon="5.627584027271049"><ele>727.0</ele><time>2026-05-02T16:34:45.998Z</time></trkpt><trkpt lat="45.197867142538946" lon="5.6276564182239595"><ele>727.0</ele><time>2026-05-02T16:34:46.998Z</time></trkpt><trkpt lat="45.19799128406303" lon="5.627746287288699"><ele>727.0</ele><time>2026-05-02T16:34:47.998Z</time></trkpt><trkpt lat="45.19812756484852" lon="5.627833128426138"><ele>727.0</ele><time>2026-05-02T16:34:48.998Z</time></trkpt><trkpt lat="45.1982488943924" lon="5.627968483570199"><ele>727.0</ele><time>2026-05-02T16:34:49.998Z</time></trkpt><trkpt lat="45.19838009044605" lon="5.628086789900468"><ele>722.0</ele><time>2026-05-02T16:34:50.998Z</time></trkpt><trkpt lat="45.19851631820552" lon="5.628196876157788"><ele>717.0</ele><time>2026-05-02T16:34:51.998Z</time></trkpt><trkpt lat="45.19866578809856" lon="5.6282748059438"><ele>712.0</ele><time>2026-05-02T16:34:52.998Z</time></trkpt><trkpt lat="45.198813600787766" lon="5.628375140372183"><ele>712.0</ele><time>2026-05-02T16:34:53.998Z</time></trkpt><trkpt lat="45.198977054261064" lon="5.628432988708839"><ele>712.0</ele><time>2026-05-02T16:34:54.998Z</time></trkpt><trkpt lat="45.19914776004707" lon="5.628482474565058"><ele>712.0</ele><time>2026-05-02T16:34:55.998Z</time></trkpt><trkpt lat="45.1993191076495" lon="5.628531577513791"><ele>714.6666666666667</ele><time>2026-05-02T16:34:56.998Z</time></trkpt><trkpt lat="45.19948937857728" lon="5.6285956052638655"><ele>717.3333333333334</ele><time>2026-05-02T16:34:57.998Z</time></trkpt><trkpt lat="45.199652660871735" lon="5.628696718164768"><ele>720.0</ele><time>2026-05-02T16:34:58.998Z</time></trkpt><trkpt lat="45.199815270026654" lon="5.628804497370125"><ele>715.0</ele><time>2026-05-02T16:35:00Z</time></trkpt><trkpt lat="45.19994683470889" lon="5.628955056767749"><ele>710.0</ele><time>2026-05-02T16:35:01Z</time></trkpt><trkpt lat="45.2000786044315" lon="5.629101365364975"><ele>705.0</ele><time>2026-05-02T16:35:02Z</time></trkpt><trkpt lat="45.20022679407572" lon="5.629241488455179"><ele>705.0</ele><time>2026-05-02T16:35:03Z</time></trkpt><trkpt lat="45.200402001348586" lon="5.62935972194345"><ele>705.0</ele><time>2026-05-02T16:35:04Z</time></trkpt><trkpt lat="45.20060571455813" lon="5.629461431739053"><ele>705.0</ele><time>2026-05-02T16:35:05Z</time></trkpt><trkpt lat="45.20085360681425" lon="5.629523803671102"><ele>703.0</ele><time>2026-05-02T16:35:06Z</time></trkpt><trkpt lat="45.20091781969764" lon="5.629522196060206"><ele>701.0</ele><time>2026-05-02T16:35:07Z</time></trkpt><trkpt lat="45.20120285795097" lon="5.629606726144815"><ele>699.0</ele><time>2026-05-02T16:35:08Z</time></trkpt><trkpt lat="45.20151552288668" lon="5.629677547640982"><ele>699.0</ele><time>2026-05-02T16:35:09Z</time></trkpt><trkpt lat="45.20179886290041" lon="5.62977403549133"><ele>699.0</ele><time>2026-05-02T16:35:10Z</time></trkpt><trkpt lat="45.202061013706846" lon="5.629838583153505"><ele>699.0</ele><time>2026-05-02T16:35:11Z</time></trkpt><trkpt lat="45.202292392290495" lon="5.629953778353612"><ele>699.0</ele><time>2026-05-02T16:35:12Z</time></trkpt><trkpt lat="45.20250258078458" lon="5.630121986396019"><ele>687.0</ele><time>2026-05-02T16:35:13Z</time></trkpt><trkpt lat="45.20269559013083" lon="5.630344796563402"><ele>675.0</ele><time>2026-05-02T16:35:14Z</time></trkpt><trkpt lat="45.20287138363583" lon="5.630616230792746"><ele>675.0</ele><time>2026-05-02T16:35:15Z</time></trkpt><trkpt lat="45.20305016305699" lon="5.630897594654984"><ele>675.0</ele><time>2026-05-02T16:35:16Z</time></trkpt><trkpt lat="45.20320923321544" lon="5.631176083445747"><ele>677.5</ele><time>2026-05-02T16:35:17Z</time></trkpt><trkpt lat="45.20334068168496" lon="5.631448218472084"><ele>680.0</ele><time>2026-05-02T16:35:18Z</time></trkpt><trkpt lat="45.203456292880645" lon="5.631730537815707"><ele>680.0</ele><time>2026-05-02T16:35:19Z</time></trkpt><trkpt lat="45.203611412004676" lon="5.63195535292594"><ele>680.0</ele><time>2026-05-02T16:35:20Z</time></trkpt><trkpt lat="45.20374125810278" lon="5.632178785392115"><ele>680.0</ele><time>2026-05-02T16:35:21Z</time></trkpt><trkpt lat="45.20391374950742" lon="5.632336198148878"><ele>677.3333333333333</ele><time>2026-05-02T16:35:22Z</time></trkpt><trkpt lat="45.20411332799456" lon="5.632411641455502"><ele>674.6666666666666</ele><time>2026-05-02T16:35:23Z</time></trkpt><trkpt lat="45.20430734619696" lon="5.6324177046379225"><ele>672.0</ele><time>2026-05-02T16:35:24Z</time></trkpt><trkpt lat="45.204492203088975" lon="5.632429184085357"><ele>672.0</ele><time>2026-05-02T16:35:25Z</time></trkpt><trkpt lat="45.20464901856603" lon="5.63256698143005"><ele>672.0</ele><time>2026-05-02T16:35:26Z</time></trkpt><trkpt lat="45.20475275021075" lon="5.632797024943223"><ele>672.0</ele><time>2026-05-02T16:35:27Z</time></trkpt><trkpt lat="45.20485499745155" lon="5.633063973414107"><ele>672.5</ele><time>2026-05-02T16:35:28Z</time></trkpt><trkpt lat="45.20493061665454" lon="5.6334028113009404"><ele>673.0</ele><time>2026-05-02T16:35:29Z</time></trkpt><trkpt lat="45.20501354915004" lon="5.63379407474788"><ele>673.0</ele><time>2026-05-02T16:35:30Z</time></trkpt><trkpt lat="45.20508263999951" lon="5.634092501090951"><ele>673.0</ele><time>2026-05-02T16:35:31Z</time></trkpt><trkpt lat="45.20521172497168" lon="5.6343352071181005"><ele>673.0</ele><time>2026-05-02T16:35:32Z</time></trkpt><trkpt lat="45.20537483265989" lon="5.6345004889348775"><ele>674.0</ele><time>2026-05-02T16:35:33Z</time></trkpt><trkpt lat="45.20555534105133" lon="5.634624156580822"><ele>675.0</ele><time>2026-05-02T16:35:34Z</time></trkpt><trkpt lat="45.20569732998785" lon="5.634763174951332"><ele>676.0</ele><time>2026-05-02T16:35:35Z</time></trkpt><trkpt lat="45.20583974531551" lon="5.63488912787784"><ele>676.0</ele><time>2026-05-02T16:35:36Z</time></trkpt><trkpt lat="45.20596323425768" lon="5.6349946745802395"><ele>676.0</ele><time>2026-05-02T16:35:37Z</time></trkpt><trkpt lat="45.20605526141646" lon="5.635087216057022"><ele>676.0</ele><time>2026-05-02T16:35:38Z</time></trkpt><trkpt lat="45.20611206067244" lon="5.635178212598863"><ele>676.0</ele><time>2026-05-02T16:35:39Z</time></trkpt><trkpt lat="45.20614263856833" lon="5.635275504830606"><ele>676.0</ele><time>2026-05-02T16:35:40Z</time></trkpt><trkpt lat="45.20604512151562" lon="5.635423023118098"><ele>676.0</ele><time>2026-05-02T16:35:42Z</time></trkpt><trkpt lat="45.20594925060268" lon="5.635339515007529"><ele>676.0</ele><time>2026-05-02T16:35:42.999Z</time></trkpt><trkpt lat="45.20587229216338" lon="5.635161200815625"><ele>676.0</ele><time>2026-05-02T16:35:43.999Z</time></trkpt><trkpt lat="45.20579461569251" lon="5.634998351194777"><ele>676.0</ele><time>2026-05-02T16:35:44.999Z</time></trkpt><trkpt lat="45.205664593918634" lon="5.6348495666436165"><ele>666.0</ele><time>2026-05-02T16:35:45.999Z</time></trkpt><trkpt lat="45.2054972615332" lon="5.634764463872739"><ele>656.0</ele><time>2026-05-02T16:35:46.999Z</time></trkpt><trkpt lat="45.20530474020339" lon="5.634721430695111"><ele>646.0</ele><time>2026-05-02T16:35:47.999Z</time></trkpt><trkpt lat="45.205130920434804" lon="5.634647668235743"><ele>646.0</ele><time>2026-05-02T16:35:48.999Z</time></trkpt><trkpt lat="45.204988262335085" lon="5.634530506657159"><ele>646.0</ele><time>2026-05-02T16:35:49.999Z</time></trkpt><trkpt lat="45.204853678096555" lon="5.634308761577329"><ele>646.0</ele><time>2026-05-02T16:35:50.999Z</time></trkpt><trkpt lat="45.204756835170635" lon="5.634011666576738"><ele>648.0</ele><time>2026-05-02T16:35:51.999Z</time></trkpt><trkpt lat="45.204667219693405" lon="5.633730795316322"><ele>650.0</ele><time>2026-05-02T16:35:52.999Z</time></trkpt><trkpt lat="45.2045667760109" lon="5.6334861625227"><ele>652.0</ele><time>2026-05-02T16:35:53.999Z</time></trkpt><trkpt lat="45.20441775278362" lon="5.63332677933778"><ele>652.0</ele><time>2026-05-02T16:35:54.999Z</time></trkpt><trkpt lat="45.204257918119524" lon="5.633243564056203"><ele>652.0</ele><time>2026-05-02T16:35:55.999Z</time></trkpt><trkpt lat="45.20408368650638" lon="5.633237976232124"><ele>652.0</ele><time>2026-05-02T16:35:56.999Z</time></trkpt><trkpt lat="45.20387634164038" lon="5.633318950161474"><ele>647.0</ele><time>2026-05-02T16:35:57.999Z</time></trkpt><trkpt lat="45.20371406172613" lon="5.633378840835782"><ele>642.0</ele><time>2026-05-02T16:35:58.999Z</time></trkpt><trkpt lat="45.20355124685974" lon="5.633402621028966"><ele>637.0</ele><time>2026-05-02T16:35:59.999Z</time></trkpt><trkpt lat="45.20339745720073" lon="5.633325445250533"><ele>637.0</ele><time>2026-05-02T16:36:00.999Z</time></trkpt><trkpt lat="45.203261895795855" lon="5.633205504799858"><ele>637.0</ele><time>2026-05-02T16:36:01.999Z</time></trkpt><trkpt lat="45.20315632741452" lon="5.633068588366717"><ele>637.0</ele><time>2026-05-02T16:36:02.999Z</time></trkpt><trkpt lat="45.20308616439176" lon="5.632926290624686"><ele>637.0</ele><time>2026-05-02T16:36:03.999Z</time></trkpt><trkpt lat="45.20305846704647" lon="5.632728302109302"><ele>635.8000000000001</ele><time>2026-05-02T16:36:04.999Z</time></trkpt><trkpt lat="45.20302398104363" lon="5.632575596251966"><ele>634.6</ele><time>2026-05-02T16:36:05.999Z</time></trkpt><trkpt lat="45.20299007012112" lon="5.632458932054379"><ele>633.4000000000001</ele><time>2026-05-02T16:36:06.999Z</time></trkpt><trkpt lat="45.202920981295044" lon="5.632368440398788"><ele>632.2</ele><time>2026-05-02T16:36:07.999Z</time></trkpt><trkpt lat="45.20280943357715" lon="5.632283598530528"><ele>631.0</ele><time>2026-05-02T16:36:08.999Z</time></trkpt><trkpt lat="45.202670943752" lon="5.632235208704978"><ele>631.0</ele><time>2026-05-02T16:36:09.999Z</time></trkpt><trkpt lat="45.20255240945556" lon="5.6322036937369235"><ele>631.0</ele><time>2026-05-02T16:36:10.999Z</time></trkpt><trkpt lat="45.20244531637521" lon="5.632168270614864"><ele>631.0</ele><time>2026-05-02T16:36:11.999Z</time></trkpt><trkpt lat="45.20233537622767" lon="5.632110166524748"><ele>631.0</ele><time>2026-05-02T16:36:12.999Z</time></trkpt><trkpt lat="45.20224353587827" lon="5.632009896665716"><ele>631.75</ele><time>2026-05-02T16:36:13.999Z</time></trkpt><trkpt lat="45.202149930067584" lon="5.631889147033674"><ele>632.5</ele><time>2026-05-02T16:36:14.999Z</time></trkpt><trkpt lat="45.20204304961472" lon="5.6318188322539715"><ele>633.25</ele><time>2026-05-02T16:36:15.999Z</time></trkpt><trkpt lat="45.201892926888604" lon="5.63180022274563"><ele>634.0</ele><time>2026-05-02T16:36:16.999Z</time></trkpt><trkpt lat="45.201677788250905" lon="5.6318532703992235"><ele>633.3333333333334</ele><time>2026-05-02T16:36:17.999Z</time></trkpt><trkpt lat="45.201447250727234" lon="5.63191868021802"><ele>632.6666666666666</ele><time>2026-05-02T16:36:18.999Z</time></trkpt><trkpt lat="45.20123718709351" lon="5.631897862367707"><ele>632.0</ele><time>2026-05-02T16:36:19.999Z</time></trkpt><trkpt lat="45.2010383983162" lon="5.631798400213354"><ele>632.0</ele><time>2026-05-02T16:36:20.999Z</time></trkpt><trkpt lat="45.20082885094948" lon="5.631744286098976"><ele>632.0</ele><time>2026-05-02T16:36:21.999Z</time></trkpt><trkpt lat="45.20059919503192" lon="5.63177677339454"><ele>632.0</ele><time>2026-05-02T16:36:22.999Z</time></trkpt><trkpt lat="45.200379911892426" lon="5.6318430973548645"><ele>631.6666666666666</ele><time>2026-05-02T16:36:23.999Z</time></trkpt><trkpt lat="45.20017190970435" lon="5.6318997873148025"><ele>631.3333333333334</ele><time>2026-05-02T16:36:24.999Z</time></trkpt><trkpt lat="45.19998251194908" lon="5.631878438781885"><ele>631.0</ele><time>2026-05-02T16:36:25.999Z</time></trkpt><trkpt lat="45.19980364802481" lon="5.631777195990568"><ele>627.0</ele><time>2026-05-02T16:36:26.999Z</time></trkpt><trkpt lat="45.199655224650144" lon="5.631643933369933"><ele>623.0</ele><time>2026-05-02T16:36:27.999Z</time></trkpt><trkpt lat="45.199509258013194" lon="5.63150503537713"><ele>619.0</ele><time>2026-05-02T16:36:28.999Z</time></trkpt><trkpt lat="45.199376552376144" lon="5.631379896381645"><ele>619.0</ele><time>2026-05-02T16:36:29.999Z</time></trkpt><trkpt lat="45.19925428801421" lon="5.631317640411809"><ele>619.0</ele><time>2026-05-02T16:36:30.999Z</time></trkpt><trkpt lat="45.19915457630448" lon="5.631358350472364"><ele>619.0</ele><time>2026-05-02T16:36:31.999Z</time></trkpt><trkpt lat="45.1990828996009" lon="5.631466801092546"><ele>619.0</ele><time>2026-05-02T16:36:32.999Z</time></trkpt><trkpt lat="45.1990496874048" lon="5.631659488145615"><ele>619.0</ele><time>2026-05-02T16:36:33.999Z</time></trkpt><trkpt lat="45.19910577714841" lon="5.63184784235149"><ele>619.0</ele><time>2026-05-02T16:36:34.999Z</time></trkpt><trkpt lat="45.19924089684522" lon="5.63197625396785"><ele>619.0</ele><time>2026-05-02T16:36:35.999Z</time></trkpt><trkpt lat="45.19945066450617" lon="5.631980037530489"><ele>613.6666666666667</ele><time>2026-05-02T16:36:36.999Z</time></trkpt><trkpt lat="45.19966530937241" lon="5.632019842489166"><ele>608.3333333333334</ele><time>2026-05-02T16:36:37.999Z</time></trkpt><trkpt lat="45.199885846535686" lon="5.632111402561947"><ele>603.0</ele><time>2026-05-02T16:36:38.999Z</time></trkpt><trkpt lat="45.20013890267722" lon="5.632240855354846"><ele>603.0</ele><time>2026-05-02T16:36:39.998Z</time></trkpt><trkpt lat="45.200399783073635" lon="5.632280599794391"><ele>603.0</ele><time>2026-05-02T16:36:40.998Z</time></trkpt><trkpt lat="45.2006812761727" lon="5.632332371354161"><ele>606.5</ele><time>2026-05-02T16:36:41.998Z</time></trkpt><trkpt lat="45.20095841209992" lon="5.632391423175736"><ele>610.0</ele><time>2026-05-02T16:36:42.998Z</time></trkpt><trkpt lat="45.20121324107329" lon="5.632458594417954"><ele>610.0</ele><time>2026-05-02T16:36:43.998Z</time></trkpt><trkpt lat="45.20143624079659" lon="5.632613852297019"><ele>610.0</ele><time>2026-05-02T16:36:44.998Z</time></trkpt><trkpt lat="45.20165247437904" lon="5.632714673151786"><ele>602.0</ele><time>2026-05-02T16:36:45.998Z</time></trkpt><trkpt lat="45.20185541189752" lon="5.632822021169735"><ele>594.0</ele><time>2026-05-02T16:36:46.998Z</time></trkpt><trkpt lat="45.20203444198605" lon="5.6329222566843455"><ele>586.0</ele><time>2026-05-02T16:36:47.998Z</time></trkpt><trkpt lat="45.20221055135294" lon="5.633021466155846"><ele>591.3333333333334</ele><time>2026-05-02T16:36:48.998Z</time></trkpt><trkpt lat="45.20240274895912" lon="5.6331361049141035"><ele>596.6666666666666</ele><time>2026-05-02T16:36:49.998Z</time></trkpt><trkpt lat="45.20254776495728" lon="5.633293409490637"><ele>602.0</ele><time>2026-05-02T16:36:50.998Z</time></trkpt><trkpt lat="45.20264212074457" lon="5.633500921706494"><ele>595.6666666666666</ele><time>2026-05-02T16:36:51.998Z</time></trkpt><trkpt lat="45.202696132197005" lon="5.6337682436494205"><ele>589.3333333333334</ele><time>2026-05-02T16:36:52.998Z</time></trkpt><trkpt lat="45.20276183502639" lon="5.634076498063209"><ele>583.0</ele><time>2026-05-02T16:36:53.998Z</time></trkpt><trkpt lat="45.202834142076384" lon="5.634399028641787"><ele>572.5</ele><time>2026-05-02T16:36:54.998Z</time></trkpt><trkpt lat="45.202967236082934" lon="5.634690124579934"><ele>562.0</ele><time>2026-05-02T16:36:55.998Z</time></trkpt><trkpt lat="45.203094733604026" lon="5.6349792630826006"><ele>568.5</ele><time>2026-05-02T16:36:56.998Z</time></trkpt><trkpt lat="45.203242179559965" lon="5.635250350991087"><ele>575.0</ele><time>2026-05-02T16:36:57.998Z</time></trkpt><trkpt lat="45.20335919347808" lon="5.635519267208747"><ele>575.0</ele><time>2026-05-02T16:36:58.998Z</time></trkpt><trkpt lat="45.20346882190409" lon="5.6357673209131445"><ele>575.0</ele><time>2026-05-02T16:36:59.998Z</time></trkpt><trkpt lat="45.20356746707357" lon="5.63602176624493"><ele>575.0</ele><time>2026-05-02T16:37:00.998Z</time></trkpt><trkpt lat="45.20366803663499" lon="5.63627195716311"><ele>578.6666666666666</ele><time>2026-05-02T16:37:01.998Z</time></trkpt><trkpt lat="45.20377990520785" lon="5.6365255333156785"><ele>582.3333333333334</ele><time>2026-05-02T16:37:02.998Z</time></trkpt><trkpt lat="45.20392075803535" lon="5.636763476962823"><ele>586.0</ele><time>2026-05-02T16:37:03.998Z</time></trkpt><trkpt lat="45.20408095402992" lon="5.636955081718918"><ele>577.6666666666667</ele><time>2026-05-02T16:37:04.998Z</time></trkpt><trkpt lat="45.204271673311155" lon="5.637098362189501"><ele>569.3333333333334</ele><time>2026-05-02T16:37:06Z</time></trkpt><trkpt lat="45.20447070202931" lon="5.637191921524121"><ele>561.0</ele><time>2026-05-02T16:37:07Z</time></trkpt><trkpt lat="45.20466820632862" lon="5.637287228854994"><ele>566.6666666666666</ele><time>2026-05-02T16:37:08Z</time></trkpt><trkpt lat="45.20485554353461" lon="5.637392627630061"><ele>572.3333333333333</ele><time>2026-05-02T16:37:09Z</time></trkpt><trkpt lat="45.20501378310218" lon="5.6375569972895585"><ele>578.0</ele><time>2026-05-02T16:37:10Z</time></trkpt><trkpt lat="45.205128188929166" lon="5.637783658784658"><ele>571.0</ele><time>2026-05-02T16:37:11Z</time></trkpt><trkpt lat="45.205239395233846" lon="5.638039953207476"><ele>564.0</ele><time>2026-05-02T16:37:12Z</time></trkpt><trkpt lat="45.20534759939936" lon="5.638311717386857"><ele>557.0</ele><time>2026-05-02T16:37:13Z</time></trkpt><trkpt lat="45.20543475709889" lon="5.638569964486702"><ele>552.3333333333333</ele><time>2026-05-02T16:37:14Z</time></trkpt><trkpt lat="45.20551376675963" lon="5.6388409066265694"><ele>547.6666666666666</ele><time>2026-05-02T16:37:15Z</time></trkpt><trkpt lat="45.2055940830666" lon="5.639134035004054"><ele>543.0</ele><time>2026-05-02T16:37:16Z</time></trkpt><trkpt lat="45.20568397987082" lon="5.639446846674871"><ele>550.0</ele><time>2026-05-02T16:37:17Z</time></trkpt><trkpt lat="45.205791947516076" lon="5.639725652617745"><ele>557.0</ele><time>2026-05-02T16:37:18Z</time></trkpt><trkpt lat="45.2059195562865" lon="5.640003903200959"><ele>557.0</ele><time>2026-05-02T16:37:19Z</time></trkpt><trkpt lat="45.206047163388604" lon="5.640252978780445"><ele>557.0</ele><time>2026-05-02T16:37:20Z</time></trkpt><trkpt lat="45.20616470576366" lon="5.640515558474377"><ele>557.0</ele><time>2026-05-02T16:37:21Z</time></trkpt><trkpt lat="45.206277463963886" lon="5.640738025363436"><ele>557.0</ele><time>2026-05-02T16:37:22Z</time></trkpt><trkpt lat="45.20640110318427" lon="5.640933938453396"><ele>557.0</ele><time>2026-05-02T16:37:23Z</time></trkpt><trkpt lat="45.20653354261592" lon="5.641043942307766"><ele>557.0</ele><time>2026-05-02T16:37:24Z</time></trkpt><trkpt lat="45.20668632108699" lon="5.641129280390735"><ele>548.0</ele><time>2026-05-02T16:37:25Z</time></trkpt><trkpt lat="45.20686132368161" lon="5.641185554376139"><ele>539.0</ele><time>2026-05-02T16:37:26Z</time></trkpt><trkpt lat="45.20708967818594" lon="5.6412336585115"><ele>530.0</ele><time>2026-05-02T16:37:27Z</time></trkpt><trkpt lat="45.207354802296265" lon="5.641270366178564"><ele>530.0</ele><time>2026-05-02T16:37:28Z</time></trkpt><trkpt lat="45.20761046946048" lon="5.6413218102565725"><ele>530.0</ele><time>2026-05-02T16:37:29Z</time></trkpt><trkpt lat="45.20782378411182" lon="5.6414372995512645"><ele>530.0</ele><time>2026-05-02T16:37:30Z</time></trkpt><trkpt lat="45.20800245454346" lon="5.641553937639493"><ele>530.0</ele><time>2026-05-02T16:37:31Z</time></trkpt><trkpt lat="45.20824477920291" lon="5.641639352150469"><ele>530.0</ele><time>2026-05-02T16:37:32Z</time></trkpt><trkpt lat="45.20846996268551" lon="5.641639897982801"><ele>541.0</ele><time>2026-05-02T16:37:33Z</time></trkpt><trkpt lat="45.20869957933922" lon="5.641533380396955"><ele>552.0</ele><time>2026-05-02T16:37:34Z</time></trkpt><trkpt lat="45.2089237755228" lon="5.641370461750432"><ele>535.0</ele><time>2026-05-02T16:37:35Z</time></trkpt><trkpt lat="45.20912125318328" lon="5.641139965841186"><ele>518.0</ele><time>2026-05-02T16:37:36Z</time></trkpt><trkpt lat="45.20931147079463" lon="5.640924033893985"><ele>553.5</ele><time>2026-05-02T16:37:37Z</time></trkpt><trkpt lat="45.209527023348755" lon="5.640730560937118"><ele>589.0</ele><time>2026-05-02T16:37:38Z</time></trkpt><trkpt lat="45.20972971220298" lon="5.640592762517448"><ele>574.0</ele><time>2026-05-02T16:37:39Z</time></trkpt><trkpt lat="45.209880309598965" lon="5.640383083286329"><ele>559.0</ele><time>2026-05-02T16:37:40Z</time></trkpt><trkpt lat="45.21010996345385" lon="5.640197650568689"><ele>559.0</ele><time>2026-05-02T16:37:41Z</time></trkpt><trkpt lat="45.2102876661153" lon="5.639961490051824"><ele>559.0</ele><time>2026-05-02T16:37:42Z</time></trkpt><trkpt lat="45.21046297951358" lon="5.639721693143701"><ele>559.0</ele><time>2026-05-02T16:37:43Z</time></trkpt><trkpt lat="45.21062448814139" lon="5.639481946209259"><ele>559.0</ele><time>2026-05-02T16:37:44Z</time></trkpt><trkpt lat="45.210777873858476" lon="5.63926304092277"><ele>548.0</ele><time>2026-05-02T16:37:45Z</time></trkpt><trkpt lat="45.21093267805452" lon="5.63906751096263"><ele>537.0</ele><time>2026-05-02T16:37:46Z</time></trkpt><trkpt lat="45.211117333358146" lon="5.638981458486291"><ele>526.0</ele><time>2026-05-02T16:37:47Z</time></trkpt><trkpt lat="45.21130034184316" lon="5.638953572687217"><ele>526.0</ele><time>2026-05-02T16:37:47.999Z</time></trkpt><trkpt lat="45.21148289416591" lon="5.638906124214043"><ele>526.0</ele><time>2026-05-02T16:37:48.999Z</time></trkpt><trkpt lat="45.21165700038297" lon="5.638961411142253"><ele>526.0</ele><time>2026-05-02T16:37:49.999Z</time></trkpt><trkpt lat="45.21181845341179" lon="5.6390170004206555"><ele>521.0</ele><time>2026-05-02T16:37:50.999Z</time></trkpt><trkpt lat="45.21197578831432" lon="5.639046677723451"><ele>516.0</ele><time>2026-05-02T16:37:51.999Z</time></trkpt><trkpt lat="45.21214004649076" lon="5.63906382937398"><ele>511.0</ele><time>2026-05-02T16:37:52.999Z</time></trkpt><trkpt lat="45.21230260805264" lon="5.639060516498345"><ele>509.33333333333337</ele><time>2026-05-02T16:37:53.999Z</time></trkpt><trkpt lat="45.212457786742505" lon="5.639032055141989"><ele>507.66666666666663</ele><time>2026-05-02T16:37:54.999Z</time></trkpt><trkpt lat="45.21260553985159" lon="5.639008818684542"><ele>506.0</ele><time>2026-05-02T16:37:55.999Z</time></trkpt><trkpt lat="45.212751003531764" lon="5.638991293426545"><ele>506.0</ele><time>2026-05-02T16:37:56.999Z</time></trkpt><trkpt lat="45.2129040276216" lon="5.638996279802216"><ele>506.0</ele><time>2026-05-02T16:37:57.999Z</time></trkpt><trkpt lat="45.21305820943904" lon="5.639014550630508"><ele>506.0</ele><time>2026-05-02T16:37:58.999Z</time></trkpt><trkpt lat="45.21321324637347" lon="5.639041832784616"><ele>503.66666666666663</ele><time>2026-05-02T16:37:59.999Z</time></trkpt><trkpt lat="45.213372239757895" lon="5.639083388720847"><ele>501.33333333333337</ele><time>2026-05-02T16:38:00.999Z</time></trkpt><trkpt lat="45.21352293275052" lon="5.63915404127042"><ele>499.0</ele><time>2026-05-02T16:38:01.999Z</time></trkpt><trkpt lat="45.2136725716838" lon="5.6392508280014475"><ele>499.0</ele><time>2026-05-02T16:38:02.999Z</time></trkpt><trkpt lat="45.21380433450196" lon="5.639387083412969"><ele>499.0</ele><time>2026-05-02T16:38:03.999Z</time></trkpt><trkpt lat="45.21395701590059" lon="5.639476748856362"><ele>499.0</ele><time>2026-05-02T16:38:04.999Z</time></trkpt><trkpt lat="45.214116232846976" lon="5.639559050521828"><ele>495.33333333333337</ele><time>2026-05-02T16:38:05.999Z</time></trkpt><trkpt lat="45.21427036496199" lon="5.639613598909111"><ele>491.66666666666663</ele><time>2026-05-02T16:38:06.999Z</time></trkpt><trkpt lat="45.21444978301023" lon="5.639656149443231"><ele>488.0</ele><time>2026-05-02T16:38:07.999Z</time></trkpt><trkpt lat="45.214609512807975" lon="5.6396961481065615"><ele>488.0</ele><time>2026-05-02T16:38:08.999Z</time></trkpt><trkpt lat="45.21476526665575" lon="5.639737596821674"><ele>488.0</ele><time>2026-05-02T16:38:09.999Z</time></trkpt><trkpt lat="45.21492497711902" lon="5.639782501340158"><ele>488.0</ele><time>2026-05-02T16:38:10.999Z</time></trkpt><trkpt lat="45.21508606278367" lon="5.639833546081384"><ele>487.66666666666663</ele><time>2026-05-02T16:38:11.999Z</time></trkpt><trkpt lat="45.215236219137196" lon="5.639884388911524"><ele>487.33333333333337</ele><time>2026-05-02T16:38:12.999Z</time></trkpt><trkpt lat="45.21539671175077" lon="5.639946403568989"><ele>487.0</ele><time>2026-05-02T16:38:13.999Z</time></trkpt><trkpt lat="45.215573728189234" lon="5.640011404853405"><ele>487.6666666666667</ele><time>2026-05-02T16:38:14.999Z</time></trkpt><trkpt lat="45.21575194365246" lon="5.640067253085261"><ele>488.33333333333337</ele><time>2026-05-02T16:38:15.999Z</time></trkpt><trkpt lat="45.21594431559875" lon="5.640139205947844"><ele>489.0</ele><time>2026-05-02T16:38:16.999Z</time></trkpt><trkpt lat="45.216159138017396" lon="5.640194712202504"><ele>489.0</ele><time>2026-05-02T16:38:17.999Z</time></trkpt><trkpt lat="45.216376969559704" lon="5.640195805183283"><ele>489.0</ele><time>2026-05-02T16:38:18.999Z</time></trkpt><trkpt lat="45.2166134800961" lon="5.640143978970873"><ele>487.5</ele><time>2026-05-02T16:38:19.999Z</time></trkpt><trkpt lat="45.21684307277397" lon="5.640088992253927"><ele>486.0</ele><time>2026-05-02T16:38:20.999Z</time></trkpt><trkpt lat="45.217085076475485" lon="5.640056672401968"><ele>482.5</ele><time>2026-05-02T16:38:21.999Z</time></trkpt><trkpt lat="45.217328274501995" lon="5.640059957568737"><ele>479.0</ele><time>2026-05-02T16:38:22.999Z</time></trkpt><trkpt lat="45.21756688454576" lon="5.640103190132934"><ele>479.0</ele><time>2026-05-02T16:38:23.999Z</time></trkpt><trkpt lat="45.217808393003516" lon="5.640190712384851"><ele>479.0</ele><time>2026-05-02T16:38:24.999Z</time></trkpt><trkpt lat="45.21804744996336" lon="5.640288079085985"><ele>473.0</ele><time>2026-05-02T16:38:25.999Z</time></trkpt><trkpt lat="45.2182987774475" lon="5.640383966966007"><ele>467.0</ele><time>2026-05-02T16:38:26.999Z</time></trkpt><trkpt lat="45.21853301957435" lon="5.640459269203931"><ele>467.0</ele><time>2026-05-02T16:38:27.999Z</time></trkpt><trkpt lat="45.218757807160074" lon="5.6405226626584675"><ele>467.0</ele><time>2026-05-02T16:38:28.999Z</time></trkpt><trkpt lat="45.218949290943605" lon="5.640583342270086"><ele>467.0</ele><time>2026-05-02T16:38:29.999Z</time></trkpt><trkpt lat="45.21912362761806" lon="5.640635420002794"><ele>467.0</ele><time>2026-05-02T16:38:30.999Z</time></trkpt><trkpt lat="45.21926485023118" lon="5.640631280895911"><ele>467.0</ele><time>2026-05-02T16:38:31.999Z</time></trkpt><trkpt lat="45.21939112749968" lon="5.6406044268016675"><ele>467.0</ele><time>2026-05-02T16:38:32.999Z</time></trkpt><trkpt lat="45.2195716791981" lon="5.640567167847039"><ele>467.0</ele><time>2026-05-02T16:38:33.999Z</time></trkpt><trkpt lat="45.2196778631898" lon="5.6405714114273104"><ele>467.0</ele><time>2026-05-02T16:38:34.999Z</time></trkpt><trkpt lat="45.219770291830955" lon="5.640638555961357"><ele>467.0</ele><time>2026-05-02T16:38:35.999Z</time></trkpt><trkpt lat="45.21982049836918" lon="5.640791907027344"><ele>467.0</ele><time>2026-05-02T16:38:36.999Z</time></trkpt><trkpt lat="45.21979019253608" lon="5.640973223143856"><ele>467.0</ele><time>2026-05-02T16:38:37.999Z</time></trkpt><trkpt lat="45.219670282686714" lon="5.64110223312852"><ele>467.0</ele><time>2026-05-02T16:38:38.999Z</time></trkpt><trkpt lat="45.21951767820226" lon="5.641127376553678"><ele>467.0</ele><time>2026-05-02T16:38:39.999Z</time></trkpt><trkpt lat="45.2193376095748" lon="5.641069373381175"><ele>467.0</ele><time>2026-05-02T16:38:40.999Z</time></trkpt><trkpt lat="45.21913739521964" lon="5.641025849914183"><ele>467.0</ele><time>2026-05-02T16:38:41.999Z</time></trkpt><trkpt lat="45.218908211022644" lon="5.641017410041287"><ele>467.0</ele><time>2026-05-02T16:38:42.999Z</time></trkpt><trkpt lat="45.21866612609837" lon="5.6410237759152935"><ele>467.0</ele><time>2026-05-02T16:38:43.999Z</time></trkpt><trkpt lat="45.21844665904618" lon="5.641025351586322"><ele>467.0</ele><time>2026-05-02T16:38:44.998Z</time></trkpt><trkpt lat="45.21824650312576" lon="5.641089996004801"><ele>467.0</ele><time>2026-05-02T16:38:45.998Z</time></trkpt><trkpt lat="45.21805291285163" lon="5.641146872156882"><ele>458.3333333333333</ele><time>2026-05-02T16:38:46.998Z</time></trkpt><trkpt lat="45.217846333994736" lon="5.641206643514266"><ele>449.66666666666663</ele><time>2026-05-02T16:38:47.998Z</time></trkpt><trkpt lat="45.217634023233444" lon="5.641269708399703"><ele>441.0</ele><time>2026-05-02T16:38:48.998Z</time></trkpt><trkpt lat="45.21742342204008" lon="5.641335039981337"><ele>443.66666666666663</ele><time>2026-05-02T16:38:49.998Z</time></trkpt><trkpt lat="45.21722429636795" lon="5.641444141781668"><ele>446.3333333333333</ele><time>2026-05-02T16:38:50.998Z</time></trkpt><trkpt lat="45.21704105324397" lon="5.641606462299226"><ele>449.0</ele><time>2026-05-02T16:38:51.998Z</time></trkpt><trkpt lat="45.21686991007228" lon="5.641805653252018"><ele>447.0</ele><time>2026-05-02T16:38:52.998Z</time></trkpt><trkpt lat="45.21671468795474" lon="5.641989270848528"><ele>445.0</ele><time>2026-05-02T16:38:53.998Z</time></trkpt><trkpt lat="45.21654470378069" lon="5.642145562377677"><ele>443.0</ele><time>2026-05-02T16:38:54.998Z</time></trkpt><trkpt lat="45.216385001388296" lon="5.642272624722985"><ele>443.0</ele><time>2026-05-02T16:38:55.998Z</time></trkpt><trkpt lat="45.21623689749558" lon="5.6423856179880385"><ele>443.0</ele><time>2026-05-02T16:38:56.998Z</time></trkpt><trkpt lat="45.216092856849805" lon="5.64249737559742"><ele>443.0</ele><time>2026-05-02T16:38:57.998Z</time></trkpt><trkpt lat="45.215958671060356" lon="5.642609815380684"><ele>443.0</ele><time>2026-05-02T16:38:58.998Z</time></trkpt><trkpt lat="45.21582655239928" lon="5.642713095258491"><ele>443.0</ele><time>2026-05-02T16:38:59.998Z</time></trkpt><trkpt lat="45.215698753612116" lon="5.642806486393924"><ele>443.0</ele><time>2026-05-02T16:39:00.998Z</time></trkpt><trkpt lat="45.21558998161286" lon="5.642895786950028"><ele>443.0</ele><time>2026-05-02T16:39:01.998Z</time></trkpt><trkpt lat="45.2154863345578" lon="5.6429909241234775"><ele>440.0</ele><time>2026-05-02T16:39:02.998Z</time></trkpt><trkpt lat="45.21537831425185" lon="5.643074122814836"><ele>437.0</ele><time>2026-05-02T16:39:03.998Z</time></trkpt><trkpt lat="45.215264778586885" lon="5.6431403133605045"><ele>434.0</ele><time>2026-05-02T16:39:04.998Z</time></trkpt><trkpt lat="45.21514228895469" lon="5.643184322995211"><ele>431.0</ele><time>2026-05-02T16:39:05.998Z</time></trkpt><trkpt lat="45.21501604985358" lon="5.643202609350327"><ele>431.0</ele><time>2026-05-02T16:39:06.998Z</time></trkpt><trkpt lat="45.21488383349922" lon="5.643194021137395"><ele>431.0</ele><time>2026-05-02T16:39:07.998Z</time></trkpt><trkpt lat="45.214744603244796" lon="5.64317737501957"><ele>431.0</ele><time>2026-05-02T16:39:08.998Z</time></trkpt><trkpt lat="45.21460234401304" lon="5.6431608004449805"><ele>431.0</ele><time>2026-05-02T16:39:09.998Z</time></trkpt><trkpt lat="45.21446367270063" lon="5.643144980471656"><ele>428.25</ele><time>2026-05-02T16:39:10.998Z</time></trkpt><trkpt lat="45.21431580230456" lon="5.6431399460308045"><ele>425.5</ele><time>2026-05-02T16:39:12Z</time></trkpt><trkpt lat="45.21416794714192" lon="5.643128423845658"><ele>422.75</ele><time>2026-05-02T16:39:13Z</time></trkpt><trkpt lat="45.21401760476828" lon="5.643117644309713"><ele>420.0</ele><time>2026-05-02T16:39:14Z</time></trkpt><trkpt lat="45.21386718006497" lon="5.643106339948259"><ele>419.75</ele><time>2026-05-02T16:39:15Z</time></trkpt><trkpt lat="45.21371676222706" lon="5.643096918095859"><ele>419.5</ele><time>2026-05-02T16:39:16Z</time></trkpt><trkpt lat="45.21356665242265" lon="5.643089099788899"><ele>419.25</ele><time>2026-05-02T16:39:17Z</time></trkpt><trkpt lat="45.21341853468618" lon="5.643102418592791"><ele>419.0</ele><time>2026-05-02T16:39:18Z</time></trkpt><trkpt lat="45.21326801506014" lon="5.643140033962791"><ele>418.0</ele><time>2026-05-02T16:39:19Z</time></trkpt><trkpt lat="45.213120236935644" lon="5.643194325480856"><ele>417.0</ele><time>2026-05-02T16:39:20Z</time></trkpt><trkpt lat="45.21297379228365" lon="5.643256174197331"><ele>416.0</ele><time>2026-05-02T16:39:21Z</time></trkpt><trkpt lat="45.2128303804305" lon="5.643312470152685"><ele>416.0</ele><time>2026-05-02T16:39:22Z</time></trkpt><trkpt lat="45.21267995350382" lon="5.643369495127303"><ele>416.0</ele><time>2026-05-02T16:39:23Z</time></trkpt><trkpt lat="45.212526714976256" lon="5.643429769958144"><ele>416.0</ele><time>2026-05-02T16:39:24Z</time></trkpt><trkpt lat="45.21238019023926" lon="5.643483149735966"><ele>416.3333333333333</ele><time>2026-05-02T16:39:25Z</time></trkpt><trkpt lat="45.21223314910071" lon="5.643536323585835"><ele>416.66666666666663</ele><time>2026-05-02T16:39:26Z</time></trkpt><trkpt lat="45.212081018933894" lon="5.6435948611985145"><ele>417.0</ele><time>2026-05-02T16:39:27Z</time></trkpt><trkpt lat="45.21192630204736" lon="5.6436487890050016"><ele>413.75</ele><time>2026-05-02T16:39:28Z</time></trkpt><trkpt lat="45.21177500192298" lon="5.643688906882307"><ele>410.5</ele><time>2026-05-02T16:39:29Z</time></trkpt><trkpt lat="45.211628790543784" lon="5.643708964367681"><ele>407.25</ele><time>2026-05-02T16:39:30Z</time></trkpt><trkpt lat="45.21150086940423" lon="5.64370077877777"><ele>404.0</ele><time>2026-05-02T16:39:31Z</time></trkpt><trkpt lat="45.21138197425449" lon="5.643693187856991"><ele>404.0</ele><time>2026-05-02T16:39:32Z</time></trkpt><trkpt lat="45.21127195812052" lon="5.643687599330305"><ele>404.0</ele><time>2026-05-02T16:39:33Z</time></trkpt><trkpt lat="45.21118145424063" lon="5.643739333102247"><ele>404.0</ele><time>2026-05-02T16:39:34Z</time></trkpt><trkpt lat="45.211139393650775" lon="5.643843976867209"><ele>404.0</ele><time>2026-05-02T16:39:35Z</time></trkpt><trkpt lat="45.211131863452145" lon="5.6440054447542805"><ele>404.0</ele><time>2026-05-02T16:39:36Z</time></trkpt><trkpt lat="45.21117120663131" lon="5.644162766070244"><ele>404.0</ele><time>2026-05-02T16:39:37Z</time></trkpt><trkpt lat="45.211260338740246" lon="5.64423884473445"><ele>404.0</ele><time>2026-05-02T16:39:38Z</time></trkpt><trkpt lat="45.21137298029178" lon="5.644229135364088"><ele>404.0</ele><time>2026-05-02T16:39:39Z</time></trkpt><trkpt lat="45.211496799935894" lon="5.644179485248008"><ele>404.0</ele><time>2026-05-02T16:39:40Z</time></trkpt><trkpt lat="45.21163815288775" lon="5.644167997158627"><ele>402.5</ele><time>2026-05-02T16:39:41Z</time></trkpt><trkpt lat="45.21176240284882" lon="5.644179168383513"><ele>401.0</ele><time>2026-05-02T16:39:42Z</time></trkpt><trkpt lat="45.21188431040526" lon="5.64421778553413"><ele>399.5</ele><time>2026-05-02T16:39:43Z</time></trkpt><trkpt lat="45.21201100813627" lon="5.644276637815375"><ele>398.0</ele><time>2026-05-02T16:39:44Z</time></trkpt><trkpt lat="45.21214645484821" lon="5.644342682206976"><ele>398.0</ele><time>2026-05-02T16:39:45Z</time></trkpt><trkpt lat="45.21228205183656" lon="5.644411364373716"><ele>398.0</ele><time>2026-05-02T16:39:46Z</time></trkpt><trkpt lat="45.21240860179071" lon="5.644475463988589"><ele>398.0</ele><time>2026-05-02T16:39:47Z</time></trkpt><trkpt lat="45.21254272625732" lon="5.644543400301355"><ele>398.0</ele><time>2026-05-02T16:39:48Z</time></trkpt><trkpt lat="45.21267321224561" lon="5.644609493623975"><ele>397.0</ele><time>2026-05-02T16:39:49Z</time></trkpt><trkpt lat="45.21280827474221" lon="5.644677905015142"><ele>396.0</ele><time>2026-05-02T16:39:50Z</time></trkpt><trkpt lat="45.212936163378465" lon="5.64474268277484"><ele>395.0</ele><time>2026-05-02T16:39:51Z</time></trkpt><trkpt lat="45.213071244796616" lon="5.644810782816683"><ele>394.0</ele><time>2026-05-02T16:39:52Z</time></trkpt><trkpt lat="45.21320777761667" lon="5.644878171736328"><ele>394.0</ele><time>2026-05-02T16:39:53Z</time></trkpt><trkpt lat="45.213343957116614" lon="5.644946589099603"><ele>394.0</ele><time>2026-05-02T16:39:53.999Z</time></trkpt><trkpt lat="45.21348171320535" lon="5.645015798426028"><ele>394.0</ele><time>2026-05-02T16:39:54.999Z</time></trkpt><trkpt lat="45.213607785715766" lon="5.645103860121199"><ele>394.0</ele><time>2026-05-02T16:39:55.999Z</time></trkpt><trkpt lat="45.21371601137909" lon="5.645215650570573"><ele>392.75</ele><time>2026-05-02T16:39:56.999Z</time></trkpt><trkpt lat="45.21379955023411" lon="5.645360339857658"><ele>391.5</ele><time>2026-05-02T16:39:57.999Z</time></trkpt><trkpt lat="45.21386359184591" lon="5.6455280569383275"><ele>390.25</ele><time>2026-05-02T16:39:58.999Z</time></trkpt><trkpt lat="45.21391868504961" lon="5.645719354226332"><ele>389.0</ele><time>2026-05-02T16:39:59.999Z</time></trkpt><trkpt lat="45.21398948190968" lon="5.645908512790773"><ele>389.0</ele><time>2026-05-02T16:40:00.999Z</time></trkpt><trkpt lat="45.214041637796484" lon="5.646104877980156"><ele>389.0</ele><time>2026-05-02T16:40:01.999Z</time></trkpt><trkpt lat="45.21410608873492" lon="5.646276310619878"><ele>389.0</ele><time>2026-05-02T16:40:02.999Z</time></trkpt><trkpt lat="45.214193680625144" lon="5.646404115691281"><ele>389.0</ele><time>2026-05-02T16:40:03.999Z</time></trkpt><trkpt lat="45.21430230749469" lon="5.6464877395346456"><ele>386.25</ele><time>2026-05-02T16:40:04.999Z</time></trkpt><trkpt lat="45.214432462502636" lon="5.646530085001704"><ele>383.5</ele><time>2026-05-02T16:40:05.999Z</time></trkpt><trkpt lat="45.21456836987993" lon="5.646506391295832"><ele>380.75</ele><time>2026-05-02T16:40:06.999Z</time></trkpt><trkpt lat="45.21470220752124" lon="5.646428611210576"><ele>378.0</ele><time>2026-05-02T16:40:07.999Z</time></trkpt><trkpt lat="45.2148473683333" lon="5.646351880751199"><ele>377.3333333333333</ele><time>2026-05-02T16:40:08.999Z</time></trkpt><trkpt lat="45.214988467024156" lon="5.646273909857516"><ele>376.66666666666663</ele><time>2026-05-02T16:40:09.999Z</time></trkpt><trkpt lat="45.21513039410733" lon="5.646197429897536"><ele>376.0</ele><time>2026-05-02T16:40:10.999Z</time></trkpt><trkpt lat="45.21527063621687" lon="5.646122253836871"><ele>376.66666666666663</ele><time>2026-05-02T16:40:11.999Z</time></trkpt><trkpt lat="45.21541268015964" lon="5.646046497055647"><ele>377.3333333333333</ele><time>2026-05-02T16:40:12.999Z</time></trkpt><trkpt lat="45.21555773803623" lon="5.645969132905724"><ele>378.0</ele><time>2026-05-02T16:40:13.999Z</time></trkpt><trkpt lat="45.215702466043474" lon="5.645894236450058"><ele>378.0</ele><time>2026-05-02T16:40:14.999Z</time></trkpt><trkpt lat="45.215832695545046" lon="5.645826855723564"><ele>378.0</ele><time>2026-05-02T16:40:15.999Z</time></trkpt><trkpt lat="45.215964304082135" lon="5.645755809872479"><ele>378.0</ele><time>2026-05-02T16:40:16.999Z</time></trkpt><trkpt lat="45.21610523564774" lon="5.645713341529024"><ele>378.0</ele><time>2026-05-02T16:40:17.999Z</time></trkpt><trkpt lat="45.21624632486774" lon="5.645665645106611"><ele>378.0</ele><time>2026-05-02T16:40:18.999Z</time></trkpt><trkpt lat="45.216373504082455" lon="5.645627101824098"><ele>378.0</ele><time>2026-05-02T16:40:19.999Z</time></trkpt><trkpt lat="45.21649093792466" lon="5.645623283809458"><ele>378.0</ele><time>2026-05-02T16:40:20.999Z</time></trkpt><trkpt lat="45.21659888601765" lon="5.645667572017551"><ele>378.0</ele><time>2026-05-02T16:40:21.999Z</time></trkpt><trkpt lat="45.216710554215126" lon="5.645755929216485"><ele>374.6666666666667</ele><time>2026-05-02T16:40:22.999Z</time></trkpt><trkpt lat="45.216803807234506" lon="5.645905739125222"><ele>371.33333333333337</ele><time>2026-05-02T16:40:23.999Z</time></trkpt><trkpt lat="45.21685639175766" lon="5.646078113766816"><ele>368.0</ele><time>2026-05-02T16:40:24.999Z</time></trkpt><trkpt lat="45.2169122540686" lon="5.646315627672903"><ele>364.33333333333337</ele><time>2026-05-02T16:40:25.999Z</time></trkpt><trkpt lat="45.21697370177875" lon="5.646580995962094"><ele>360.6666666666667</ele><time>2026-05-02T16:40:26.999Z</time></trkpt><trkpt lat="45.21701030403448" lon="5.646734378706561"><ele>357.0</ele><time>2026-05-02T16:40:28.999Z</time></trkpt><trkpt lat="45.21706588692562" lon="5.646924958546778"><ele>356.6666666666667</ele><time>2026-05-02T16:40:29.999Z</time></trkpt><trkpt lat="45.21716318188007" lon="5.647109359262184"><ele>356.33333333333337</ele><time>2026-05-02T16:40:30.999Z</time></trkpt><trkpt lat="45.21729050775427" lon="5.647247950661766"><ele>356.0</ele><time>2026-05-02T16:40:31.999Z</time></trkpt><trkpt lat="45.217399937820005" lon="5.647410945424845"><ele>356.0</ele><time>2026-05-02T16:40:32.999Z</time></trkpt><trkpt lat="45.217517962350925" lon="5.647558208162802"><ele>356.0</ele><time>2026-05-02T16:40:33.999Z</time></trkpt><trkpt lat="45.21763234118068" lon="5.647700922059576"><ele>356.0</ele><time>2026-05-02T16:40:34.999Z</time></trkpt><trkpt lat="45.217745585426336" lon="5.647846735729827"><ele>355.75</ele><time>2026-05-02T16:40:35.999Z</time></trkpt><trkpt lat="45.21785608449191" lon="5.647989383510988"><ele>355.5</ele><time>2026-05-02T16:40:36.999Z</time></trkpt><trkpt lat="45.21796295638572" lon="5.648136906813207"><ele>355.25</ele><time>2026-05-02T16:40:37.999Z</time></trkpt><trkpt lat="45.218067205861345" lon="5.648284201732797"><ele>355.0</ele><time>2026-05-02T16:40:38.999Z</time></trkpt><trkpt lat="45.21817437973719" lon="5.6484342303796256"><ele>355.0</ele><time>2026-05-02T16:40:39.999Z</time></trkpt><trkpt lat="45.218283839854465" lon="5.648582458635115"><ele>355.0</ele><time>2026-05-02T16:40:40.999Z</time></trkpt><trkpt lat="45.21839585313271" lon="5.648733455018718"><ele>355.0</ele><time>2026-05-02T16:40:41.999Z</time></trkpt><trkpt lat="45.21850312126048" lon="5.648873174752737"><ele>353.5</ele><time>2026-05-02T16:40:42.999Z</time></trkpt><trkpt lat="45.21860454280684" lon="5.648997529209508"><ele>352.0</ele><time>2026-05-02T16:40:43.999Z</time></trkpt><trkpt lat="45.21870155418285" lon="5.649114128643508"><ele>350.5</ele><time>2026-05-02T16:40:44.999Z</time></trkpt><trkpt lat="45.21879606804061" lon="5.64922071846309"><ele>349.0</ele><time>2026-05-02T16:40:45.999Z</time></trkpt><trkpt lat="45.21890096860136" lon="5.649305139795662"><ele>349.5</ele><time>2026-05-02T16:40:46.999Z</time></trkpt><trkpt lat="45.219010390577374" lon="5.649400143989433"><ele>350.0</ele><time>2026-05-02T16:40:47.999Z</time></trkpt><trkpt lat="45.219138450855276" lon="5.649477995378869"><ele>350.5</ele><time>2026-05-02T16:40:48.999Z</time></trkpt><trkpt lat="45.219271160259844" lon="5.649534473992167"><ele>351.0</ele><time>2026-05-02T16:40:49.999Z</time></trkpt><trkpt lat="45.2194194963441" lon="5.649538975298438"><ele>348.0</ele><time>2026-05-02T16:40:50.998Z</time></trkpt><trkpt lat="45.21951956866474" lon="5.649556553857421"><ele>345.0</ele><time>2026-05-02T16:40:51.998Z</time></trkpt><trkpt lat="45.21962297899641" lon="5.649605007880123"><ele>342.0</ele><time>2026-05-02T16:40:52.998Z</time></trkpt><trkpt lat="45.219814568191566" lon="5.649855924908508"><ele>343.5</ele><time>2026-05-02T16:40:53.998Z</time></trkpt><trkpt lat="45.21997392551751" lon="5.650087686592581"><ele>345.0</ele><time>2026-05-02T16:40:54.998Z</time></trkpt><trkpt lat="45.220157547161655" lon="5.6502695154224485"><ele>342.0</ele><time>2026-05-02T16:40:55.998Z</time></trkpt><trkpt lat="45.22032157561931" lon="5.650416036166096"><ele>339.0</ele><time>2026-05-02T16:40:56.998Z</time></trkpt><trkpt lat="45.220535776654444" lon="5.6505676004608585"><ele>336.0</ele><time>2026-05-02T16:40:57.998Z</time></trkpt><trkpt lat="45.220741745057815" lon="5.650685531243132"><ele>336.0</ele><time>2026-05-02T16:40:58.998Z</time></trkpt><trkpt lat="45.22094886526881" lon="5.650782457599169"><ele>336.0</ele><time>2026-05-02T16:40:59.998Z</time></trkpt><trkpt lat="45.22117113831562" lon="5.65087855453144"><ele>336.0</ele><time>2026-05-02T16:41:00.998Z</time></trkpt><trkpt lat="45.221390373078236" lon="5.65096958992696"><ele>336.0</ele><time>2026-05-02T16:41:01.998Z</time></trkpt><trkpt lat="45.22161848846884" lon="5.651071542057569"><ele>326.5</ele><time>2026-05-02T16:41:02.998Z</time></trkpt><trkpt lat="45.221848846692275" lon="5.651177428581557"><ele>317.0</ele><time>2026-05-02T16:41:03.998Z</time></trkpt><trkpt lat="45.22208316582386" lon="5.651293561789254"><ele>317.0</ele><time>2026-05-02T16:41:04.998Z</time></trkpt><trkpt lat="45.22231229009665" lon="5.651394050520401"><ele>317.0</ele><time>2026-05-02T16:41:05.998Z</time></trkpt><trkpt lat="45.22255160039063" lon="5.65146927854761"><ele>319.0</ele><time>2026-05-02T16:41:06.998Z</time></trkpt><trkpt lat="45.22281691049146" lon="5.651486649299185"><ele>321.0</ele><time>2026-05-02T16:41:07.998Z</time></trkpt><trkpt lat="45.223071003423385" lon="5.6514706405011745"><ele>316.0</ele><time>2026-05-02T16:41:08.998Z</time></trkpt><trkpt lat="45.223311501340355" lon="5.651387850820829"><ele>311.0</ele><time>2026-05-02T16:41:09.998Z</time></trkpt><trkpt lat="45.22353226354095" lon="5.651242679136135"><ele>314.6666666666667</ele><time>2026-05-02T16:41:10.998Z</time></trkpt><trkpt lat="45.22372321766614" lon="5.651083240781143"><ele>318.3333333333333</ele><time>2026-05-02T16:41:11.998Z</time></trkpt><trkpt lat="45.22391739475781" lon="5.650986515536914"><ele>322.0</ele><time>2026-05-02T16:41:12.998Z</time></trkpt><trkpt lat="45.22409484421065" lon="5.650878467365753"><ele>322.0</ele><time>2026-05-02T16:41:13.998Z</time></trkpt><trkpt lat="45.22425410848365" lon="5.6508026639625575"><ele>322.0</ele><time>2026-05-02T16:41:14.998Z</time></trkpt><trkpt lat="45.22440440851117" lon="5.65075766010089"><ele>322.0</ele><time>2026-05-02T16:41:15.998Z</time></trkpt><trkpt lat="45.224539909047905" lon="5.650739694416279"><ele>322.0</ele><time>2026-05-02T16:41:16.998Z</time></trkpt><trkpt lat="45.22465666929456" lon="5.6507557657660294"><ele>322.0</ele><time>2026-05-02T16:41:18Z</time></trkpt><trkpt lat="45.224754963869565" lon="5.650804665726448"><ele>322.0</ele><time>2026-05-02T16:41:19Z</time></trkpt><trkpt lat="45.224823704473934" lon="5.65089673527661"><ele>322.0</ele><time>2026-05-02T16:41:20Z</time></trkpt><trkpt lat="45.224829098289376" lon="5.651027761788546"><ele>322.0</ele><time>2026-05-02T16:41:21Z</time></trkpt><trkpt lat="45.22478460336106" lon="5.651167631875282"><ele>314.3333333333333</ele><time>2026-05-02T16:41:22Z</time></trkpt><trkpt lat="45.224669157579285" lon="5.651247297935337"><ele>306.6666666666667</ele><time>2026-05-02T16:41:23Z</time></trkpt><trkpt lat="45.224517396773585" lon="5.651203946277451"><ele>299.0</ele><time>2026-05-02T16:41:24Z</time></trkpt><trkpt lat="45.224355520335266" lon="5.651129078904753"><ele>299.0</ele><time>2026-05-02T16:41:25Z</time></trkpt><trkpt lat="45.22417979231738" lon="5.651106935227703"><ele>299.0</ele><time>2026-05-02T16:41:26Z</time></trkpt><trkpt lat="45.22401560416807" lon="5.651166560904161"><ele>299.0</ele><time>2026-05-02T16:41:27Z</time></trkpt><trkpt lat="45.22385890101111" lon="5.651324242614863"><ele>303.0</ele><time>2026-05-02T16:41:28Z</time></trkpt><trkpt lat="45.223691324194874" lon="5.651511280608426"><ele>307.0</ele><time>2026-05-02T16:41:29Z</time></trkpt><trkpt lat="45.22348556788163" lon="5.651664270782524"><ele>311.0</ele><time>2026-05-02T16:41:30Z</time></trkpt><trkpt lat="45.223281906345484" lon="5.651811053921014"><ele>316.0</ele><time>2026-05-02T16:41:31Z</time></trkpt><trkpt lat="45.223078877117445" lon="5.6519377823169235"><ele>321.0</ele><time>2026-05-02T16:41:32Z</time></trkpt><trkpt lat="45.22286352156969" lon="5.652068044604883"><ele>311.0</ele><time>2026-05-02T16:41:33Z</time></trkpt><trkpt lat="45.222660412065004" lon="5.652203839749449"><ele>301.0</ele><time>2026-05-02T16:41:34Z</time></trkpt><trkpt lat="45.22245983853002" lon="5.652312735940338"><ele>291.0</ele><time>2026-05-02T16:41:35Z</time></trkpt><trkpt lat="45.222248219597724" lon="5.6523766908297315"><ele>290.0</ele><time>2026-05-02T16:41:36Z</time></trkpt><trkpt lat="45.22203177616348" lon="5.652378753245708"><ele>289.0</ele><time>2026-05-02T16:41:37Z</time></trkpt><trkpt lat="45.221801586153845" lon="5.652314585849019"><ele>289.0</ele><time>2026-05-02T16:41:38Z</time></trkpt><trkpt lat="45.221549897388584" lon="5.652255988058691"><ele>289.0</ele><time>2026-05-02T16:41:39Z</time></trkpt><trkpt lat="45.2212929061794" lon="5.652200600883139"><ele>286.5</ele><time>2026-05-02T16:41:40Z</time></trkpt><trkpt lat="45.22104127403794" lon="5.652231148310645"><ele>284.0</ele><time>2026-05-02T16:41:41Z</time></trkpt><trkpt lat="45.220792638076716" lon="5.6523371539979825"><ele>291.0</ele><time>2026-05-02T16:41:42Z</time></trkpt><trkpt lat="45.22053494701912" lon="5.652464279783312"><ele>298.0</ele><time>2026-05-02T16:41:43Z</time></trkpt><trkpt lat="45.2202881090683" lon="5.652600037419528"><ele>298.0</ele><time>2026-05-02T16:41:44Z</time></trkpt><trkpt lat="45.220050004639646" lon="5.652779638894619"><ele>298.0</ele><time>2026-05-02T16:41:45Z</time></trkpt><trkpt lat="45.219836002987684" lon="5.653000586030452"><ele>297.5</ele><time>2026-05-02T16:41:46Z</time></trkpt><trkpt lat="45.219616363098716" lon="5.653262186857802"><ele>297.0</ele><time>2026-05-02T16:41:47Z</time></trkpt><trkpt lat="45.21940507925834" lon="5.653551813164655"><ele>278.0</ele><time>2026-05-02T16:41:48Z</time></trkpt><trkpt lat="45.219188659692485" lon="5.653849042988868"><ele>259.0</ele><time>2026-05-02T16:41:49Z</time></trkpt><trkpt lat="45.218987846239884" lon="5.654119044556532"><ele>257.0</ele><time>2026-05-02T16:41:50Z</time></trkpt><trkpt lat="45.21879318413209" lon="5.654356336979285"><ele>255.0</ele><time>2026-05-02T16:41:51Z</time></trkpt><trkpt lat="45.218584681361314" lon="5.654557533607438"><ele>255.0</ele><time>2026-05-02T16:41:52Z</time></trkpt><trkpt lat="45.21835097967506" lon="5.654742529493069"><ele>255.0</ele><time>2026-05-02T16:41:53Z</time></trkpt><trkpt lat="45.218107006995965" lon="5.654932463667526"><ele>263.5</ele><time>2026-05-02T16:41:54Z</time></trkpt><trkpt lat="45.217846006831074" lon="5.655104516048612"><ele>272.0</ele><time>2026-05-02T16:41:55Z</time></trkpt><trkpt lat="45.217586745939485" lon="5.655280309683376"><ele>258.5</ele><time>2026-05-02T16:41:56Z</time></trkpt><trkpt lat="45.217339886239756" lon="5.655447564768091"><ele>245.0</ele><time>2026-05-02T16:41:57Z</time></trkpt><trkpt lat="45.217097757497875" lon="5.655596161793159"><ele>245.0</ele><time>2026-05-02T16:41:57.999Z</time></trkpt><trkpt lat="45.21686857560101" lon="5.655679219206301"><ele>245.0</ele><time>2026-05-02T16:41:58.999Z</time></trkpt><trkpt lat="45.21662961508924" lon="5.65566899450367"><ele>236.0</ele><time>2026-05-02T16:41:59.999Z</time></trkpt><trkpt lat="45.21640050321636" lon="5.65558948778909"><ele>227.0</ele><time>2026-05-02T16:42:00.999Z</time></trkpt><trkpt lat="45.216174342090596" lon="5.655453422210981"><ele>243.5</ele><time>2026-05-02T16:42:01.999Z</time></trkpt><trkpt lat="45.21595234254695" lon="5.655285085613134"><ele>260.0</ele><time>2026-05-02T16:42:02.999Z</time></trkpt><trkpt lat="45.21572528597224" lon="5.655155830491917"><ele>256.6666666666667</ele><time>2026-05-02T16:42:03.999Z</time></trkpt><trkpt lat="45.215507061726946" lon="5.655079669787967"><ele>253.33333333333331</ele><time>2026-05-02T16:42:04.999Z</time></trkpt><trkpt lat="45.215290774366366" lon="5.655080753982087"><ele>250.0</ele><time>2026-05-02T16:42:05.999Z</time></trkpt><trkpt lat="45.21508164191896" lon="5.655120473826479"><ele>250.0</ele><time>2026-05-02T16:42:06.999Z</time></trkpt><trkpt lat="45.214880996812084" lon="5.655142063020535"><ele>250.0</ele><time>2026-05-02T16:42:07.999Z</time></trkpt><trkpt lat="45.214686510694946" lon="5.655158735435231"><ele>250.0</ele><time>2026-05-02T16:42:08.999Z</time></trkpt><trkpt lat="45.21449453210152" lon="5.655184712805088"><ele>247.33333333333331</ele><time>2026-05-02T16:42:09.999Z</time></trkpt><trkpt lat="45.21432086724057" lon="5.655173194164231"><ele>244.66666666666669</ele><time>2026-05-02T16:42:10.999Z</time></trkpt><trkpt lat="45.21415024483603" lon="5.6551494018349295"><ele>242.0</ele><time>2026-05-02T16:42:11.999Z</time></trkpt><trkpt lat="45.21398291732681" lon="5.655106333170139"><ele>238.66666666666669</ele><time>2026-05-02T16:42:12.999Z</time></trkpt><trkpt lat="45.21380014361259" lon="5.655055470198919"><ele>235.33333333333331</ele><time>2026-05-02T16:42:13.999Z</time></trkpt><trkpt lat="45.21361467669546" lon="5.655009634387833"><ele>232.0</ele><time>2026-05-02T16:42:14.999Z</time></trkpt><trkpt lat="45.21341891994631" lon="5.654967237874919"><ele>232.0</ele><time>2026-05-02T16:42:15.999Z</time></trkpt><trkpt lat="45.21323134283206" lon="5.654926904505437"><ele>232.0</ele><time>2026-05-02T16:42:16.999Z</time></trkpt><trkpt lat="45.213058758448135" lon="5.654887891755308"><ele>232.0</ele><time>2026-05-02T16:42:17.999Z</time></trkpt><trkpt lat="45.21289699527251" lon="5.654871275307715"><ele>233.75</ele><time>2026-05-02T16:42:18.999Z</time></trkpt><trkpt lat="45.21274737201549" lon="5.6548774265414"><ele>235.5</ele><time>2026-05-02T16:42:19.999Z</time></trkpt><trkpt lat="45.212614225363104" lon="5.6548621775564145"><ele>237.25</ele><time>2026-05-02T16:42:20.999Z</time></trkpt><trkpt lat="45.21249149974687" lon="5.6548481220764675"><ele>239.0</ele><time>2026-05-02T16:42:21.999Z</time></trkpt><trkpt lat="45.21240060310477" lon="5.655106221977349"><ele>237.2</ele><time>2026-05-02T16:42:22.999Z</time></trkpt><trkpt lat="45.21230784155218" lon="5.655229431751141"><ele>235.39999999999998</ele><time>2026-05-02T16:42:23.999Z</time></trkpt><trkpt lat="45.21226893161053" lon="5.655323731593286"><ele>233.6</ele><time>2026-05-02T16:42:24.999Z</time></trkpt><trkpt lat="45.21224070282732" lon="5.6554739454275325"><ele>231.8</ele><time>2026-05-02T16:42:25.999Z</time></trkpt><trkpt lat="45.21219190043408" lon="5.655587045160762"><ele>230.0</ele><time>2026-05-02T16:42:26.999Z</time></trkpt><trkpt lat="45.212130803478225" lon="5.655662722271383"><ele>230.0</ele><time>2026-05-02T16:42:27.999Z</time></trkpt><trkpt lat="45.21206154307597" lon="5.655760454637571"><ele>230.0</ele><time>2026-05-02T16:42:28.999Z</time></trkpt><trkpt lat="45.21203645742893" lon="5.6558984535337995"><ele>230.0</ele><time>2026-05-02T16:42:29.999Z</time></trkpt><trkpt lat="45.212056055675184" lon="5.65605351064436"><ele>230.0</ele><time>2026-05-02T16:42:30.999Z</time></trkpt><trkpt lat="45.212104426688256" lon="5.656235670506168"><ele>230.0</ele><time>2026-05-02T16:42:31.999Z</time></trkpt><trkpt lat="45.212133589827786" lon="5.656411955847517"><ele>225.5</ele><time>2026-05-02T16:42:32.999Z</time></trkpt><trkpt lat="45.21216315737126" lon="5.656597540427688"><ele>221.0</ele><time>2026-05-02T16:42:33.999Z</time></trkpt><trkpt lat="45.21220492400168" lon="5.656783187131459"><ele>216.5</ele><time>2026-05-02T16:42:34.999Z</time></trkpt><trkpt lat="45.212258581354114" lon="5.656959166527733"><ele>212.0</ele><time>2026-05-02T16:42:35.999Z</time></trkpt><trkpt lat="45.21232582030139" lon="5.657148501841737"><ele>209.66666666666669</ele><time>2026-05-02T16:42:36.999Z</time></trkpt><trkpt lat="45.212392589856" lon="5.657339592570851"><ele>207.33333333333331</ele><time>2026-05-02T16:42:37.999Z</time></trkpt><trkpt lat="45.21245247798384" lon="5.6575385224054635"><ele>205.0</ele><time>2026-05-02T16:42:38.999Z</time></trkpt><trkpt lat="45.212514255140775" lon="5.657734616859636"><ele>205.0</ele><time>2026-05-02T16:42:39.999Z</time></trkpt><trkpt lat="45.21256899364937" lon="5.657934590185654"><ele>205.0</ele><time>2026-05-02T16:42:40.999Z</time></trkpt><trkpt lat="45.21261081765016" lon="5.65814048291105"><ele>205.0</ele><time>2026-05-02T16:42:41.999Z</time></trkpt><trkpt lat="45.212642615549264" lon="5.658351719967703"><ele>205.0</ele><time>2026-05-02T16:42:42.999Z</time></trkpt><trkpt lat="45.21266756627836" lon="5.658563657329052"><ele>205.0</ele><time>2026-05-02T16:42:43.999Z</time></trkpt><trkpt lat="45.21268944889475" lon="5.6587737615462865"><ele>205.0</ele><time>2026-05-02T16:42:44.999Z</time></trkpt><trkpt lat="45.21271070974123" lon="5.6589847385762635"><ele>205.25</ele><time>2026-05-02T16:42:45.999Z</time></trkpt><trkpt lat="45.21272881843637" lon="5.659197793857015"><ele>205.5</ele><time>2026-05-02T16:42:46.999Z</time></trkpt><trkpt lat="45.212752471570376" lon="5.6594004709857435"><ele>205.75</ele><time>2026-05-02T16:42:47.999Z</time></trkpt><trkpt lat="45.21277855926584" lon="5.659602535685275"><ele>206.0</ele><time>2026-05-02T16:42:48.999Z</time></trkpt><trkpt lat="45.2128011221269" lon="5.659795770236849"><ele>206.0</ele><time>2026-05-02T16:42:49.999Z</time></trkpt><trkpt lat="45.21281870323203" lon="5.659975829041934"><ele>206.0</ele><time>2026-05-02T16:42:50.999Z</time></trkpt><trkpt lat="45.212834631188" lon="5.660134528025491"><ele>206.0</ele><time>2026-05-02T16:42:51.999Z</time></trkpt><trkpt lat="45.21284320433832" lon="5.6602740011704595"><ele>206.0</ele><time>2026-05-02T16:42:52.999Z</time></trkpt><trkpt lat="45.212849589042676" lon="5.660402840988554"><ele>206.0</ele><time>2026-05-02T16:42:53.999Z</time></trkpt><trkpt lat="45.21285873984928" lon="5.6605128366312645"><ele>204.0</ele><time>2026-05-02T16:42:54.999Z</time></trkpt><trkpt lat="45.212862627084476" lon="5.6606089262467245"><ele>204.0</ele><time>2026-05-02T16:42:55.998Z</time></trkpt><trkpt lat="45.21282291794884" lon="5.66072834068497"><ele>204.0</ele><time>2026-05-02T16:42:57.998Z</time></trkpt><trkpt lat="45.21283782527911" lon="5.660818494304309"><ele>204.0</ele><time>2026-05-02T16:42:59.998Z</time></trkpt><trkpt lat="45.21290246155603" lon="5.660772543432329"><ele>204.0</ele><time>2026-05-02T16:43:07.998Z</time></trkpt></trkseg><trkseg><trkpt lat="45.212935801545164" lon="5.660912614731357"><ele>204.0</ele><time>2026-05-02T16:59:44.998Z</time></trkpt><trkpt lat="45.212965634747505" lon="5.66100439670663"><ele>204.0</ele><time>2026-05-02T16:59:45.998Z</time></trkpt><trkpt lat="45.21299364306854" lon="5.66109005092799"><ele>204.0</ele><time>2026-05-02T16:59:46.998Z</time></trkpt><trkpt lat="45.21300241722037" lon="5.661261168405874"><ele>204.0</ele><time>2026-05-02T16:59:48.998Z</time></trkpt><trkpt lat="45.21297374177104" lon="5.661359059930499"><ele>204.0</ele><time>2026-05-02T16:59:49.998Z</time></trkpt><trkpt lat="45.21291732412978" lon="5.661447010229479"><ele>204.0</ele><time>2026-05-02T16:59:50.998Z</time></trkpt><trkpt lat="45.21283600132312" lon="5.661514727546902"><ele>204.0</ele><time>2026-05-02T16:59:51.998Z</time></trkpt><trkpt lat="45.21273620923606" lon="5.661561461247432"><ele>204.0</ele><time>2026-05-02T16:59:52.998Z</time></trkpt><trkpt lat="45.212634248330225" lon="5.6615965207497405"><ele>204.0</ele><time>2026-05-02T16:59:53.998Z</time></trkpt><trkpt lat="45.21252280754472" lon="5.6616317787190376"><ele>204.0</ele><time>2026-05-02T16:59:54.998Z</time></trkpt><trkpt lat="45.21241743869189" lon="5.661655121979417"><ele>204.0</ele><time>2026-05-02T16:59:55.998Z</time></trkpt><trkpt lat="45.212324915847425" lon="5.6616843100263345"><ele>204.5</ele><time>2026-05-02T16:59:56.998Z</time></trkpt><trkpt lat="45.21222003522066" lon="5.661710857612031"><ele>205.0</ele><time>2026-05-02T16:59:57.998Z</time></trkpt><trkpt lat="45.212105804384784" lon="5.661740224493602"><ele>205.5</ele><time>2026-05-02T16:59:58.998Z</time></trkpt><trkpt lat="45.211993321395" lon="5.661762531427694"><ele>206.0</ele><time>2026-05-02T16:59:59.998Z</time></trkpt><trkpt lat="45.21187715552082" lon="5.661776618060602"><ele>206.0</ele><time>2026-05-02T17:00:00.998Z</time></trkpt><trkpt lat="45.21176773651556" lon="5.661786961535762"><ele>206.0</ele><time>2026-05-02T17:00:01.998Z</time></trkpt><trkpt lat="45.211659315885065" lon="5.661802856547247"><ele>206.0</ele><time>2026-05-02T17:00:02.998Z</time></trkpt><trkpt lat="45.211550371461456" lon="5.661817228630545"><ele>206.0</ele><time>2026-05-02T17:00:03.998Z</time></trkpt><trkpt lat="45.21143776828494" lon="5.661830343573883"><ele>206.0</ele><time>2026-05-02T17:00:04.998Z</time></trkpt><trkpt lat="45.21133287500245" lon="5.66184397525772"><ele>206.0</ele><time>2026-05-02T17:00:05.998Z</time></trkpt><trkpt lat="45.21122282846295" lon="5.661863884328562"><ele>206.0</ele><time>2026-05-02T17:00:06.998Z</time></trkpt><trkpt lat="45.21112380868443" lon="5.6618877185742225"><ele>206.0</ele><time>2026-05-02T17:00:07.998Z</time></trkpt><trkpt lat="45.211007047387504" lon="5.6619225129937645"><ele>206.0</ele><time>2026-05-02T17:00:08.998Z</time></trkpt><trkpt lat="45.21088873745222" lon="5.661941780627697"><ele>206.25</ele><time>2026-05-02T17:00:09.998Z</time></trkpt><trkpt lat="45.21077285454712" lon="5.661967885653424"><ele>206.5</ele><time>2026-05-02T17:00:10.998Z</time></trkpt><trkpt lat="45.21065590709001" lon="5.661991397826465"><ele>206.75</ele><time>2026-05-02T17:00:12Z</time></trkpt><trkpt lat="45.21053733866838" lon="5.662015822444116"><ele>207.0</ele><time>2026-05-02T17:00:13Z</time></trkpt><trkpt lat="45.21042252282384" lon="5.662038413118029"><ele>207.0</ele><time>2026-05-02T17:00:14Z</time></trkpt><trkpt lat="45.21030967706825" lon="5.662060945285742"><ele>207.0</ele><time>2026-05-02T17:00:15Z</time></trkpt><trkpt lat="45.210202698307775" lon="5.662081351622106"><ele>207.0</ele><time>2026-05-02T17:00:16Z</time></trkpt><trkpt lat="45.21010421857638" lon="5.662102883202938"><ele>207.0</ele><time>2026-05-02T17:00:17Z</time></trkpt><trkpt lat="45.21000920460477" lon="5.662118885150566"><ele>207.0</ele><time>2026-05-02T17:00:18Z</time></trkpt><trkpt lat="45.209916850300125" lon="5.662138288057787"><ele>207.8</ele><time>2026-05-02T17:00:19Z</time></trkpt><trkpt lat="45.20981659699998" lon="5.662144150288145"><ele>208.6</ele><time>2026-05-02T17:00:20Z</time></trkpt><trkpt lat="45.20971651263572" lon="5.662166201711935"><ele>209.4</ele><time>2026-05-02T17:00:21Z</time></trkpt><trkpt lat="45.20962428233898" lon="5.662187581646201"><ele>210.20000000000002</ele><time>2026-05-02T17:00:22Z</time></trkpt><trkpt lat="45.20954398951807" lon="5.662207090271082"><ele>211.0</ele><time>2026-05-02T17:00:23Z</time></trkpt><trkpt lat="45.20946268699512" lon="5.662224274744553"><ele>210.99999999999997</ele><time>2026-05-02T17:00:24Z</time></trkpt><trkpt lat="45.20938545580592" lon="5.662239676941188"><ele>211.0</ele><time>2026-05-02T17:00:25Z</time></trkpt><trkpt lat="45.20929484176377" lon="5.66226238419199"><ele>211.0</ele><time>2026-05-02T17:00:26Z</time></trkpt><trkpt lat="45.209206907542416" lon="5.662285826400555"><ele>211.0</ele><time>2026-05-02T17:00:27Z</time></trkpt><trkpt lat="45.209124200167125" lon="5.662309116518654"><ele>210.99999999999997</ele><time>2026-05-02T17:00:28Z</time></trkpt><trkpt lat="45.209044007183095" lon="5.662323416842991"><ele>211.0</ele><time>2026-05-02T17:00:29Z</time></trkpt><trkpt lat="45.20896283397061" lon="5.662343534936073"><ele>211.20000000000002</ele><time>2026-05-02T17:00:30Z</time></trkpt><trkpt lat="45.20884821392611" lon="5.662368957304819"><ele>211.4</ele><time>2026-05-02T17:00:32Z</time></trkpt><trkpt lat="45.20877184680998" lon="5.662387427219175"><ele>211.6</ele><time>2026-05-02T17:00:34Z</time></trkpt><trkpt lat="45.20870769385561" lon="5.662388606390939"><ele>211.8</ele><time>2026-05-02T17:01:02.999Z</time></trkpt><trkpt lat="45.20860175601917" lon="5.662593787788313"><ele>212.0</ele><time>2026-05-02T17:01:04.999Z</time></trkpt><trkpt lat="45.208652534608355" lon="5.662768329356235"><ele>211.66666666666669</ele><time>2026-05-02T17:01:06.999Z</time></trkpt><trkpt lat="45.20869297923878" lon="5.6628959412633115"><ele>211.33333333333334</ele><time>2026-05-02T17:01:07.999Z</time></trkpt><trkpt lat="45.20874401534851" lon="5.663026233032538"><ele>211.0</ele><time>2026-05-02T17:01:08.999Z</time></trkpt><trkpt lat="45.20879501788179" lon="5.6631484031113235"><ele>210.66666666666669</ele><time>2026-05-02T17:01:09.999Z</time></trkpt><trkpt lat="45.208850598955785" lon="5.6632255400971285"><ele>210.33333333333334</ele><time>2026-05-02T17:01:10.999Z</time></trkpt><trkpt lat="45.20888493479509" lon="5.6633037087042215"><ele>210.0</ele><time>2026-05-02T17:01:11.999Z</time></trkpt><trkpt lat="45.20893072876065" lon="5.663389926549615"><ele>210.0</ele><time>2026-05-02T17:01:12.999Z</time></trkpt><trkpt lat="45.20897695276855" lon="5.663485414593131"><ele>210.0</ele><time>2026-05-02T17:01:13.999Z</time></trkpt><trkpt lat="45.209034988758546" lon="5.663583402039101"><ele>210.0</ele><time>2026-05-02T17:01:14.999Z</time></trkpt><trkpt lat="45.209104035966334" lon="5.663685542456405"><ele>210.0</ele><time>2026-05-02T17:01:15.999Z</time></trkpt><trkpt lat="45.20919246387321" lon="5.66379542431841"><ele>210.0</ele><time>2026-05-02T17:01:16.999Z</time></trkpt><trkpt lat="45.20927732761801" lon="5.663896134544772"><ele>210.0</ele><time>2026-05-02T17:01:17.999Z</time></trkpt><trkpt lat="45.2093436531291" lon="5.664008191600701"><ele>210.0</ele><time>2026-05-02T17:01:18.999Z</time></trkpt><trkpt lat="45.20942978837271" lon="5.66411161422461"><ele>210.0</ele><time>2026-05-02T17:01:19.999Z</time></trkpt><trkpt lat="45.209529996120885" lon="5.664203896493308"><ele>210.0</ele><time>2026-05-02T17:01:20.999Z</time></trkpt><trkpt lat="45.20962360626622" lon="5.664318413398267"><ele>210.0</ele><time>2026-05-02T17:01:21.999Z</time></trkpt><trkpt lat="45.20971606075282" lon="5.664438136629274"><ele>210.0</ele><time>2026-05-02T17:01:22.999Z</time></trkpt><trkpt lat="45.20981627668243" lon="5.664546453271885"><ele>210.0</ele><time>2026-05-02T17:01:23.999Z</time></trkpt><trkpt lat="45.2099332308365" lon="5.66463515652874"><ele>210.0</ele><time>2026-05-02T17:01:24.999Z</time></trkpt><trkpt lat="45.21004869914378" lon="5.664725283350119"><ele>209.75</ele><time>2026-05-02T17:01:25.999Z</time></trkpt><trkpt lat="45.2101580535999" lon="5.664809019512483"><ele>209.5</ele><time>2026-05-02T17:01:26.999Z</time></trkpt><trkpt lat="45.210258567371305" lon="5.664890548254739"><ele>209.25</ele><time>2026-05-02T17:01:27.999Z</time></trkpt><trkpt lat="45.21035108305054" lon="5.664974390052781"><ele>209.0</ele><time>2026-05-02T17:01:28.999Z</time></trkpt><trkpt lat="45.21044218913797" lon="5.665044258014785"><ele>209.0</ele><time>2026-05-02T17:01:29.999Z</time></trkpt><trkpt lat="45.21053250729512" lon="5.665129041132585"><ele>209.0</ele><time>2026-05-02T17:01:30.999Z</time></trkpt><trkpt lat="45.21058794035619" lon="5.665275437158937"><ele>209.0</ele><time>2026-05-02T17:01:31.999Z</time></trkpt><trkpt lat="45.21066394702886" lon="5.66539905461545"><ele>209.0</ele><time>2026-05-02T17:01:32.999Z</time></trkpt><trkpt lat="45.210689929456926" lon="5.6655483474830115"><ele>209.0</ele><time>2026-05-02T17:01:33.999Z</time></trkpt><trkpt lat="45.21068466294871" lon="5.66569918459775"><ele>208.75</ele><time>2026-05-02T17:01:34.999Z</time></trkpt><trkpt lat="45.21065551356197" lon="5.665849278600837"><ele>208.5</ele><time>2026-05-02T17:01:35.999Z</time></trkpt><trkpt lat="45.21060375833071" lon="5.665985941487794"><ele>208.25</ele><time>2026-05-02T17:01:36.999Z</time></trkpt><trkpt lat="45.210477005012216" lon="5.666046687187888"><ele>208.0</ele><time>2026-05-02T17:01:37.999Z</time></trkpt><trkpt lat="45.21039082299705" lon="5.666164220609867"><ele>208.0</ele><time>2026-05-02T17:01:38.999Z</time></trkpt><trkpt lat="45.210294710745394" lon="5.666263801178329"><ele>208.0</ele><time>2026-05-02T17:01:39.999Z</time></trkpt><trkpt lat="45.210205798035375" lon="5.666371290148906"><ele>208.0</ele><time>2026-05-02T17:01:40.999Z</time></trkpt><trkpt lat="45.21011197333979" lon="5.666477810619538"><ele>208.0</ele><time>2026-05-02T17:01:41.999Z</time></trkpt><trkpt lat="45.21001257943046" lon="5.666588489504013"><ele>208.0</ele><time>2026-05-02T17:01:42.999Z</time></trkpt><trkpt lat="45.20992576487988" lon="5.6666946629145825"><ele>208.0</ele><time>2026-05-02T17:01:43.999Z</time></trkpt><trkpt lat="45.209830007003106" lon="5.666798820516034"><ele>208.0</ele><time>2026-05-02T17:01:44.999Z</time></trkpt><trkpt lat="45.20974448722713" lon="5.666905972473661"><ele>208.0</ele><time>2026-05-02T17:01:45.999Z</time></trkpt><trkpt lat="45.20965151550042" lon="5.667006789555749"><ele>207.83333333333331</ele><time>2026-05-02T17:01:46.999Z</time></trkpt><trkpt lat="45.20957214690669" lon="5.667097862287551"><ele>207.66666666666666</ele><time>2026-05-02T17:01:47.999Z</time></trkpt><trkpt lat="45.20950247566893" lon="5.667174348332405"><ele>207.5</ele><time>2026-05-02T17:01:48.998Z</time></trkpt><trkpt lat="45.209443533534404" lon="5.667241511666683"><ele>207.33333333333331</ele><time>2026-05-02T17:01:49.998Z</time></trkpt><trkpt lat="45.209388613742206" lon="5.6672978943255155"><ele>207.16666666666666</ele><time>2026-05-02T17:01:50.998Z</time></trkpt><trkpt lat="45.20932515569581" lon="5.667339163565702"><ele>207.0</ele><time>2026-05-02T17:01:51.998Z</time></trkpt><trkpt lat="45.209256328665525" lon="5.667355503123576"><ele>207.0</ele><time>2026-05-02T17:01:52.998Z</time></trkpt><trkpt lat="45.2091850047443" lon="5.667372226190734"><ele>207.0</ele><time>2026-05-02T17:01:53.998Z</time></trkpt><trkpt lat="45.20911932584933" lon="5.6674042376044795"><ele>207.0</ele><time>2026-05-02T17:01:54.998Z</time></trkpt><trkpt lat="45.20908441131456" lon="5.66752672611009"><ele>207.0</ele><time>2026-05-02T17:01:55.998Z</time></trkpt><trkpt lat="45.20910550760811" lon="5.667627307208502"><ele>207.0</ele><time>2026-05-02T17:01:56.998Z</time></trkpt><trkpt lat="45.20916324189812" lon="5.667698560809096"><ele>207.0</ele><time>2026-05-02T17:01:57.998Z</time></trkpt><trkpt lat="45.2092383527462" lon="5.667722139071394"><ele>207.0</ele><time>2026-05-02T17:01:58.998Z</time></trkpt><trkpt lat="45.209317230072294" lon="5.667757297697517"><ele>207.0</ele><time>2026-05-02T17:01:59.998Z</time></trkpt><trkpt lat="45.20939236036683" lon="5.667829609889275"><ele>207.0</ele><time>2026-05-02T17:02:00.998Z</time></trkpt><trkpt lat="45.20945149221268" lon="5.66794530030434"><ele>207.0</ele><time>2026-05-02T17:02:01.998Z</time></trkpt><trkpt lat="45.209489196592095" lon="5.668080691036925"><ele>207.0</ele><time>2026-05-02T17:02:02.998Z</time></trkpt><trkpt lat="45.209524862852206" lon="5.668224914289071"><ele>207.16666666666666</ele><time>2026-05-02T17:02:03.998Z</time></trkpt><trkpt lat="45.20956037827634" lon="5.668360445096557"><ele>207.33333333333331</ele><time>2026-05-02T17:02:04.998Z</time></trkpt><trkpt lat="45.20959661919201" lon="5.66848439437218"><ele>207.5</ele><time>2026-05-02T17:02:05.998Z</time></trkpt><trkpt lat="45.20963143239003" lon="5.668607758289779"><ele>207.66666666666666</ele><time>2026-05-02T17:02:06.998Z</time></trkpt><trkpt lat="45.209656166695154" lon="5.668717564043599"><ele>207.83333333333331</ele><time>2026-05-02T17:02:07.998Z</time></trkpt><trkpt lat="45.209685291411695" lon="5.668819992242525"><ele>208.0</ele><time>2026-05-02T17:02:08.998Z</time></trkpt><trkpt lat="45.20971305333253" lon="5.6689245750309745"><ele>208.16666666666666</ele><time>2026-05-02T17:02:09.998Z</time></trkpt><trkpt lat="45.20973775803465" lon="5.669018271074399"><ele>208.33333333333331</ele><time>2026-05-02T17:02:10.998Z</time></trkpt><trkpt lat="45.20976498301285" lon="5.669155369431861"><ele>208.5</ele><time>2026-05-02T17:02:12.998Z</time></trkpt><trkpt lat="45.209794674201184" lon="5.669267126388356"><ele>208.66666666666669</ele><time>2026-05-02T17:02:15.998Z</time></trkpt><trkpt lat="45.20982238942586" lon="5.669371149172409"><ele>208.83333333333334</ele><time>2026-05-02T17:02:19Z</time></trkpt><trkpt lat="45.20985193493079" lon="5.669469233385626"><ele>209.0</ele><time>2026-05-02T17:02:23Z</time></trkpt><trkpt lat="45.2098881348552" lon="5.669550485921724"><ele>209.00000000000003</ele><time>2026-05-02T17:02:28Z</time></trkpt><trkpt lat="45.209930123590226" lon="5.669641538861829"><ele>209.0</ele><time>2026-05-02T17:02:32Z</time></trkpt><trkpt lat="45.20996559094301" lon="5.669747541144244"><ele>209.0</ele><time>2026-05-02T17:02:34Z</time></trkpt><trkpt lat="45.20999989458202" lon="5.669841548364809"><ele>209.0</ele><time>2026-05-02T17:02:36Z</time></trkpt><trkpt lat="45.210039741628115" lon="5.669970324646037"><ele>209.00000000000003</ele><time>2026-05-02T17:02:38Z</time></trkpt><trkpt lat="45.210067025721735" lon="5.670063216967125"><ele>209.0</ele><time>2026-05-02T17:02:40Z</time></trkpt><trkpt lat="45.21010108520487" lon="5.670155130080487"><ele>209.0</ele><time>2026-05-02T17:02:43Z</time></trkpt><trkpt lat="45.21012456495835" lon="5.670238111464085"><ele>209.0</ele><time>2026-05-02T17:02:46Z</time></trkpt><trkpt lat="45.210150453109996" lon="5.670321298017868"><ele>209.0</ele><time>2026-05-02T17:02:49Z</time></trkpt><trkpt lat="45.21018939568831" lon="5.670432037478661"><ele>209.0</ele><time>2026-05-02T17:02:53Z</time></trkpt><trkpt lat="45.21022664903178" lon="5.670526906079735"><ele>209.0</ele><time>2026-05-02T17:02:59.999Z</time></trkpt><trkpt lat="45.210265309808435" lon="5.670627132242602"><ele>209.0</ele><time>2026-05-02T17:03:01.999Z</time></trkpt><trkpt lat="45.2102971523326" lon="5.670722375792453"><ele>209.0</ele><time>2026-05-02T17:03:02.999Z</time></trkpt><trkpt lat="45.21033698885129" lon="5.670811788864307"><ele>208.33333333333334</ele><time>2026-05-02T17:03:03.999Z</time></trkpt><trkpt lat="45.21036700171982" lon="5.670902580276403"><ele>207.66666666666669</ele><time>2026-05-02T17:03:04.999Z</time></trkpt><trkpt lat="45.21041515524657" lon="5.670992035321809"><ele>207.0</ele><time>2026-05-02T17:03:05.999Z</time></trkpt><trkpt lat="45.21047059082222" lon="5.671087369876391"><ele>206.33333333333331</ele><time>2026-05-02T17:03:06.999Z</time></trkpt><trkpt lat="45.21053670062385" lon="5.671184260371098"><ele>205.66666666666666</ele><time>2026-05-02T17:03:07.999Z</time></trkpt><trkpt lat="45.210603595558084" lon="5.671290922630884"><ele>205.0</ele><time>2026-05-02T17:03:08.999Z</time></trkpt><trkpt lat="45.21066838566549" lon="5.671408779230932"><ele>204.75</ele><time>2026-05-02T17:03:09.999Z</time></trkpt><trkpt lat="45.21074559539884" lon="5.671540776153245"><ele>204.5</ele><time>2026-05-02T17:03:10.999Z</time></trkpt><trkpt lat="45.21083173622297" lon="5.671673501274467"><ele>204.25</ele><time>2026-05-02T17:03:11.999Z</time></trkpt><trkpt lat="45.21092378201748" lon="5.671817052179037"><ele>204.0</ele><time>2026-05-02T17:03:12.999Z</time></trkpt><trkpt lat="45.21101231681381" lon="5.67196140946784"><ele>204.0</ele><time>2026-05-02T17:03:13.999Z</time></trkpt><trkpt lat="45.21109220438726" lon="5.672108094048336"><ele>204.0</ele><time>2026-05-02T17:03:14.999Z</time></trkpt><trkpt lat="45.21119185431306" lon="5.672277447437004"><ele>204.0</ele><time>2026-05-02T17:03:15.999Z</time></trkpt><trkpt lat="45.211249119193084" lon="5.672379162191043"><ele>204.0</ele><time>2026-05-02T17:03:17.999Z</time></trkpt><trkpt lat="45.21130106862023" lon="5.6724805151945406"><ele>204.0</ele><time>2026-05-02T17:03:18.999Z</time></trkpt><trkpt lat="45.21136712035013" lon="5.672595908365166"><ele>204.0</ele><time>2026-05-02T17:03:19.999Z</time></trkpt><trkpt lat="45.21145340109049" lon="5.672738689571609"><ele>204.0</ele><time>2026-05-02T17:03:20.999Z</time></trkpt><trkpt lat="45.21153253962002" lon="5.672883039169217"><ele>204.0</ele><time>2026-05-02T17:03:21.999Z</time></trkpt><trkpt lat="45.211608066699405" lon="5.673017015865887"><ele>204.2</ele><time>2026-05-02T17:03:22.999Z</time></trkpt><trkpt lat="45.21167503585978" lon="5.673137031432938"><ele>204.39999999999998</ele><time>2026-05-02T17:03:23.999Z</time></trkpt><trkpt lat="45.211731781906465" lon="5.673239995292724"><ele>204.6</ele><time>2026-05-02T17:03:24.999Z</time></trkpt><trkpt lat="45.21178098246464" lon="5.673327861968128"><ele>204.8</ele><time>2026-05-02T17:03:25.999Z</time></trkpt><trkpt lat="45.21183581139503" lon="5.673421260471774"><ele>205.0</ele><time>2026-05-02T17:03:26.999Z</time></trkpt><trkpt lat="45.21189810484236" lon="5.673525589234222"><ele>205.0</ele><time>2026-05-02T17:03:27.999Z</time></trkpt><trkpt lat="45.21195454799183" lon="5.67365274674596"><ele>205.0</ele><time>2026-05-02T17:03:28.999Z</time></trkpt><trkpt lat="45.211967864641714" lon="5.673788576194621"><ele>205.0</ele><time>2026-05-02T17:03:29.999Z</time></trkpt><trkpt lat="45.21192164445886" lon="5.673916594710489"><ele>205.0</ele><time>2026-05-02T17:03:30.999Z</time></trkpt><trkpt lat="45.211831731026166" lon="5.674027519480811"><ele>205.0</ele><time>2026-05-02T17:03:31.999Z</time></trkpt><trkpt lat="45.211739322175596" lon="5.674131614422897"><ele>205.0</ele><time>2026-05-02T17:03:32.999Z</time></trkpt><trkpt lat="45.21166417776862" lon="5.674239436732557"><ele>205.0</ele><time>2026-05-02T17:03:33.999Z</time></trkpt><trkpt lat="45.21158989581123" lon="5.674345448393961"><ele>205.0</ele><time>2026-05-02T17:03:34.999Z</time></trkpt><trkpt lat="45.211510982126825" lon="5.674452758248484"><ele>205.0</ele><time>2026-05-02T17:03:35.999Z</time></trkpt><trkpt lat="45.21142860565101" lon="5.674564584374208"><ele>205.0</ele><time>2026-05-02T17:03:36.999Z</time></trkpt><trkpt lat="45.211343566738115" lon="5.674683247294054"><ele>205.0</ele><time>2026-05-02T17:03:37.999Z</time></trkpt><trkpt lat="45.211262343538635" lon="5.674797801416044"><ele>205.0</ele><time>2026-05-02T17:03:38.999Z</time></trkpt><trkpt lat="45.211175665453794" lon="5.67491598482308"><ele>205.0</ele><time>2026-05-02T17:03:39.999Z</time></trkpt><trkpt lat="45.21109259832966" lon="5.675031240416074"><ele>205.0</ele><time>2026-05-02T17:03:40.999Z</time></trkpt><trkpt lat="45.21100750788716" lon="5.675150323605659"><ele>205.0</ele><time>2026-05-02T17:03:41.999Z</time></trkpt><trkpt lat="45.21092327664031" lon="5.6752690165745445"><ele>205.0</ele><time>2026-05-02T17:03:42.999Z</time></trkpt><trkpt lat="45.21084173027107" lon="5.675382969728411"><ele>205.0</ele><time>2026-05-02T17:03:43.999Z</time></trkpt><trkpt lat="45.21076713245638" lon="5.675488052690841"><ele>205.0</ele><time>2026-05-02T17:03:44.999Z</time></trkpt><trkpt lat="45.210709217834236" lon="5.675577985019032"><ele>205.0</ele><time>2026-05-02T17:03:45.999Z</time></trkpt><trkpt lat="45.210661973411064" lon="5.675677856420917"><ele>205.0</ele><time>2026-05-02T17:03:46.999Z</time></trkpt><trkpt lat="45.21060941355027" lon="5.675804578171067"><ele>205.0</ele><time>2026-05-02T17:03:47.999Z</time></trkpt><trkpt lat="45.21054745850922" lon="5.675910150813594"><ele>205.0</ele><time>2026-05-02T17:03:48.999Z</time></trkpt><trkpt lat="45.2104717320657" lon="5.676008232819846"><ele>205.0</ele><time>2026-05-02T17:03:49.999Z</time></trkpt><trkpt lat="45.21041140026096" lon="5.6761178264291665"><ele>205.0</ele><time>2026-05-02T17:03:50.999Z</time></trkpt><trkpt lat="45.210348584860576" lon="5.676232822136563"><ele>205.0</ele><time>2026-05-02T17:03:51.999Z</time></trkpt><trkpt lat="45.21025411602315" lon="5.676303343201312"><ele>205.0</ele><time>2026-05-02T17:03:52.998Z</time></trkpt><trkpt lat="45.2101796925869" lon="5.6763898929593095"><ele>205.0</ele><time>2026-05-02T17:03:53.998Z</time></trkpt><trkpt lat="45.21010569361686" lon="5.676454090942436"><ele>205.0</ele><time>2026-05-02T17:03:54.998Z</time></trkpt><trkpt lat="45.2100360331718" lon="5.6765306714807044"><ele>205.0</ele><time>2026-05-02T17:03:55.998Z</time></trkpt><trkpt lat="45.20996925030197" lon="5.676633487799073"><ele>205.0</ele><time>2026-05-02T17:03:56.998Z</time></trkpt><trkpt lat="45.20989410303694" lon="5.676740505100565"><ele>205.0</ele><time>2026-05-02T17:03:57.998Z</time></trkpt><trkpt lat="45.20982130059779" lon="5.676843820878048"><ele>205.0</ele><time>2026-05-02T17:03:58.998Z</time></trkpt><trkpt lat="45.209752331219676" lon="5.676945111229847"><ele>205.0</ele><time>2026-05-02T17:03:59.998Z</time></trkpt><trkpt lat="45.20966377359627" lon="5.677040594753873"><ele>205.0</ele><time>2026-05-02T17:04:00.998Z</time></trkpt><trkpt lat="45.2095805408271" lon="5.677157152534788"><ele>205.25</ele><time>2026-05-02T17:04:01.998Z</time></trkpt><trkpt lat="45.20950036698122" lon="5.677269426114904"><ele>205.5</ele><time>2026-05-02T17:04:02.998Z</time></trkpt><trkpt lat="45.20941863256447" lon="5.677383986898516"><ele>205.75</ele><time>2026-05-02T17:04:03.998Z</time></trkpt><trkpt lat="45.209337807815466" lon="5.677497245619277"><ele>206.0</ele><time>2026-05-02T17:04:04.998Z</time></trkpt><trkpt lat="45.20925516708517" lon="5.67761304916097"><ele>206.0</ele><time>2026-05-02T17:04:05.998Z</time></trkpt><trkpt lat="45.20917277251381" lon="5.677735726063952"><ele>206.0</ele><time>2026-05-02T17:04:06.998Z</time></trkpt><trkpt lat="45.209089258335105" lon="5.677857036487174"><ele>206.0</ele><time>2026-05-02T17:04:07.998Z</time></trkpt><trkpt lat="45.209006799212304" lon="5.677979242112687"><ele>206.0</ele><time>2026-05-02T17:04:08.998Z</time></trkpt><trkpt lat="45.20892356622776" lon="5.678098303929415"><ele>206.0</ele><time>2026-05-02T17:04:09.998Z</time></trkpt><trkpt lat="45.20884259241906" lon="5.678221067492292"><ele>206.0</ele><time>2026-05-02T17:04:10.998Z</time></trkpt><trkpt lat="45.208752357602705" lon="5.6783514485753015"><ele>206.0</ele><time>2026-05-02T17:04:11.998Z</time></trkpt><trkpt lat="45.20865578320137" lon="5.6784860099356"><ele>206.0</ele><time>2026-05-02T17:04:12.998Z</time></trkpt><trkpt lat="45.208559211890766" lon="5.6786279347898265"><ele>206.0</ele><time>2026-05-02T17:04:13.998Z</time></trkpt><trkpt lat="45.20845056418326" lon="5.678774802310164"><ele>206.0</ele><time>2026-05-02T17:04:14.998Z</time></trkpt><trkpt lat="45.20835015418169" lon="5.678873798173641"><ele>206.0</ele><time>2026-05-02T17:04:15.998Z</time></trkpt><trkpt lat="45.20828847614005" lon="5.6789953761082685"><ele>206.0</ele><time>2026-05-02T17:04:16.998Z</time></trkpt><trkpt lat="45.20822089035548" lon="5.679083756524003"><ele>206.00000000000003</ele><time>2026-05-02T17:04:17.998Z</time></trkpt><trkpt lat="45.208158343081834" lon="5.679169053923785"><ele>206.0</ele><time>2026-05-02T17:04:18.998Z</time></trkpt><trkpt lat="45.20810112715922" lon="5.679248481608322"><ele>206.0</ele><time>2026-05-02T17:04:19.998Z</time></trkpt><trkpt lat="45.208023501867466" lon="5.679350670365306"><ele>206.0</ele><time>2026-05-02T17:04:21.998Z</time></trkpt><trkpt lat="45.20797343451276" lon="5.67941132474464"><ele>206.00000000000003</ele><time>2026-05-02T17:04:25Z</time></trkpt><trkpt lat="45.20791621053424" lon="5.6794984748531565"><ele>206.0</ele><time>2026-05-02T17:04:29Z</time></trkpt><trkpt lat="45.20784214599324" lon="5.67956063875852"><ele>206.0</ele><time>2026-05-02T17:04:43Z</time></trkpt><trkpt lat="45.207794871887536" lon="5.67966695777288"><ele>206.0</ele><time>2026-05-02T17:04:44Z</time></trkpt><trkpt lat="45.207710772802294" lon="5.679759395651224"><ele>206.0</ele><time>2026-05-02T17:04:45Z</time></trkpt><trkpt lat="45.20760674404828" lon="5.67988546869725"><ele>206.0</ele><time>2026-05-02T17:04:46Z</time></trkpt><trkpt lat="45.20747259792372" lon="5.68004896103674"><ele>206.33333333333334</ele><time>2026-05-02T17:04:47Z</time></trkpt><trkpt lat="45.207297978111725" lon="5.6802222298829665"><ele>206.66666666666669</ele><time>2026-05-02T17:04:48Z</time></trkpt><trkpt lat="45.2071337539625" lon="5.680420572926218"><ele>207.0</ele><time>2026-05-02T17:04:49Z</time></trkpt><trkpt lat="45.206984016222776" lon="5.680604717280877"><ele>207.0</ele><time>2026-05-02T17:04:50Z</time></trkpt><trkpt lat="45.206848247697344" lon="5.680771681075488"><ele>207.0</ele><time>2026-05-02T17:04:51Z</time></trkpt><trkpt lat="45.20672636288996" lon="5.680921571072193"><ele>207.0</ele><time>2026-05-02T17:04:52Z</time></trkpt><trkpt lat="45.20661049493496" lon="5.681094227559598"><ele>207.0</ele><time>2026-05-02T17:04:53Z</time></trkpt><trkpt lat="45.20648276454396" lon="5.681249931802776"><ele>207.0</ele><time>2026-05-02T17:04:54Z</time></trkpt><trkpt lat="45.206352855555586" lon="5.681409828698786"><ele>207.0</ele><time>2026-05-02T17:04:55Z</time></trkpt><trkpt lat="45.20624027368775" lon="5.681543959581811"><ele>207.0</ele><time>2026-05-02T17:04:56Z</time></trkpt><trkpt lat="45.206138578548206" lon="5.68166922309068"><ele>207.0</ele><time>2026-05-02T17:04:57Z</time></trkpt><trkpt lat="45.20603777529994" lon="5.681792471914721"><ele>207.0</ele><time>2026-05-02T17:04:58Z</time></trkpt><trkpt lat="45.205963442826025" lon="5.68190537353909"><ele>207.0</ele><time>2026-05-02T17:04:59Z</time></trkpt><trkpt lat="45.20590431392405" lon="5.682006393692819"><ele>207.39999999999998</ele><time>2026-05-02T17:05:00Z</time></trkpt><trkpt lat="45.20584759645761" lon="5.682078907180782"><ele>207.79999999999998</ele><time>2026-05-02T17:05:00.999Z</time></trkpt><trkpt lat="45.20578125845397" lon="5.6821683276217225"><ele>208.2</ele><time>2026-05-02T17:05:02.999Z</time></trkpt><trkpt lat="45.20573534853587" lon="5.6822498387003755"><ele>208.6</ele><time>2026-05-02T17:05:44.999Z</time></trkpt><trkpt lat="45.20568201532129" lon="5.682341992580327"><ele>209.0</ele><time>2026-05-02T17:05:46.999Z</time></trkpt><trkpt lat="45.205749072045656" lon="5.682535163962387"><ele>209.0</ele><time>2026-05-02T17:05:49.999Z</time></trkpt><trkpt lat="45.2058137127643" lon="5.682580715450968"><ele>209.0</ele><time>2026-05-02T17:05:50.999Z</time></trkpt><trkpt lat="45.20591559385822" lon="5.682611918878524"><ele>209.0</ele><time>2026-05-02T17:05:51.999Z</time></trkpt><trkpt lat="45.20605011305484" lon="5.682646899886235"><ele>209.0</ele><time>2026-05-02T17:05:52.999Z</time></trkpt><trkpt lat="45.206195313715" lon="5.682696272943705"><ele>209.0</ele><time>2026-05-02T17:05:53.999Z</time></trkpt><trkpt lat="45.20636124083605" lon="5.682748501210297"><ele>209.0</ele><time>2026-05-02T17:05:54.999Z</time></trkpt><trkpt lat="45.20657629775997" lon="5.682824274139408"><ele>209.0</ele><time>2026-05-02T17:05:55.999Z</time></trkpt><trkpt lat="45.20682255319726" lon="5.682925959023037"><ele>208.66666666666669</ele><time>2026-05-02T17:05:56.999Z</time></trkpt><trkpt lat="45.20704714998301" lon="5.683013737668157"><ele>208.33333333333331</ele><time>2026-05-02T17:05:57.999Z</time></trkpt><trkpt lat="45.20723265131939" lon="5.68309365226657"><ele>208.0</ele><time>2026-05-02T17:05:58.999Z</time></trkpt><trkpt lat="45.20737815466023" lon="5.683241401700118"><ele>208.66666666666666</ele><time>2026-05-02T17:05:59.999Z</time></trkpt><trkpt lat="45.20751452844796" lon="5.683398906454414"><ele>209.33333333333331</ele><time>2026-05-02T17:06:00.999Z</time></trkpt><trkpt lat="45.2076457122905" lon="5.68357738141292"><ele>210.0</ele><time>2026-05-02T17:06:01.998Z</time></trkpt><trkpt lat="45.2077839858087" lon="5.683757513082715"><ele>210.33333333333331</ele><time>2026-05-02T17:06:02.998Z</time></trkpt><trkpt lat="45.20791374133153" lon="5.683948933033172"><ele>210.66666666666666</ele><time>2026-05-02T17:06:03.998Z</time></trkpt><trkpt lat="45.20805927547299" lon="5.684149848977233"><ele>211.0</ele><time>2026-05-02T17:06:04.998Z</time></trkpt><trkpt lat="45.20821219638104" lon="5.684380458664747"><ele>211.33333333333331</ele><time>2026-05-02T17:06:05.998Z</time></trkpt><trkpt lat="45.208367326539346" lon="5.684602647561671"><ele>211.66666666666669</ele><time>2026-05-02T17:06:06.998Z</time></trkpt><trkpt lat="45.20850541366701" lon="5.684803404345736"><ele>212.0</ele><time>2026-05-02T17:06:07.998Z</time></trkpt><trkpt lat="45.208631145173655" lon="5.684989254035315"><ele>212.0</ele><time>2026-05-02T17:06:08.998Z</time></trkpt><trkpt lat="45.208747931146135" lon="5.685154057626058"><ele>212.0</ele><time>2026-05-02T17:06:09.998Z</time></trkpt><trkpt lat="45.208850081884535" lon="5.685302740058319"><ele>212.0</ele><time>2026-05-02T17:06:10.998Z</time></trkpt><trkpt lat="45.20893046590686" lon="5.685450346532176"><ele>212.0</ele><time>2026-05-02T17:06:11.998Z</time></trkpt><trkpt lat="45.20897559326455" lon="5.685619780877156"><ele>212.0</ele><time>2026-05-02T17:06:12.998Z</time></trkpt><trkpt lat="45.208968632299744" lon="5.6858138747338876"><ele>212.0</ele><time>2026-05-02T17:06:13.998Z</time></trkpt><trkpt lat="45.20891253172155" lon="5.686008006947095"><ele>212.0</ele><time>2026-05-02T17:06:14.998Z</time></trkpt><trkpt lat="45.20880160719919" lon="5.686152339886564"><ele>212.0</ele><time>2026-05-02T17:06:15.998Z</time></trkpt><trkpt lat="45.208657539712526" lon="5.686250894112675"><ele>209.66666666666669</ele><time>2026-05-02T17:06:16.998Z</time></trkpt><trkpt lat="45.208493306163014" lon="5.68630202947468"><ele>207.33333333333331</ele><time>2026-05-02T17:06:17.998Z</time></trkpt><trkpt lat="45.20832438008169" lon="5.68635163558691"><ele>205.0</ele><time>2026-05-02T17:06:18.998Z</time></trkpt><trkpt lat="45.20816820083879" lon="5.686424795997996"><ele>208.66666666666666</ele><time>2026-05-02T17:06:19.998Z</time></trkpt><trkpt lat="45.20800726986063" lon="5.686524144394823"><ele>212.33333333333331</ele><time>2026-05-02T17:06:20.998Z</time></trkpt><trkpt lat="45.20785296550156" lon="5.6866474636655155"><ele>216.0</ele><time>2026-05-02T17:06:21.998Z</time></trkpt><trkpt lat="45.20769844015235" lon="5.6867981977405995"><ele>216.0</ele><time>2026-05-02T17:06:22.998Z</time></trkpt><trkpt lat="45.20754947644189" lon="5.686973768582693"><ele>216.0</ele><time>2026-05-02T17:06:23.998Z</time></trkpt><trkpt lat="45.20739516076346" lon="5.687174989382083"><ele>216.0</ele><time>2026-05-02T17:06:24.998Z</time></trkpt><trkpt lat="45.20723655176299" lon="5.687403106665073"><ele>216.0</ele><time>2026-05-02T17:06:25.998Z</time></trkpt><trkpt lat="45.207060243056105" lon="5.687653760782049"><ele>216.0</ele><time>2026-05-02T17:06:26.998Z</time></trkpt><trkpt lat="45.206875402690905" lon="5.687894377718584"><ele>210.5</ele><time>2026-05-02T17:06:27.998Z</time></trkpt><trkpt lat="45.206687400039826" lon="5.688134942527265"><ele>205.0</ele><time>2026-05-02T17:06:29Z</time></trkpt><trkpt lat="45.20649507747319" lon="5.688380480738262"><ele>207.0</ele><time>2026-05-02T17:06:30Z</time></trkpt><trkpt lat="45.20631253869606" lon="5.688627869614109"><ele>209.0</ele><time>2026-05-02T17:06:31Z</time></trkpt><trkpt lat="45.20615925123344" lon="5.688882249317636"><ele>209.0</ele><time>2026-05-02T17:06:32Z</time></trkpt><trkpt lat="45.20599062117975" lon="5.68909477720728"><ele>209.0</ele><time>2026-05-02T17:06:33Z</time></trkpt><trkpt lat="45.20583342843798" lon="5.689341579027179"><ele>212.0</ele><time>2026-05-02T17:06:34Z</time></trkpt><trkpt lat="45.205659500226865" lon="5.689620629715078"><ele>215.0</ele><time>2026-05-02T17:06:35Z</time></trkpt><trkpt lat="45.20547395910695" lon="5.689900754898298"><ele>215.0</ele><time>2026-05-02T17:06:36Z</time></trkpt><trkpt lat="45.20528118465746" lon="5.690172348918755"><ele>215.0</ele><time>2026-05-02T17:06:37Z</time></trkpt><trkpt lat="45.20508715470471" lon="5.690453718240992"><ele>213.0</ele><time>2026-05-02T17:06:38Z</time></trkpt><trkpt lat="45.20489395474121" lon="5.690740294343019"><ele>211.0</ele><time>2026-05-02T17:06:39Z</time></trkpt><trkpt lat="45.20468619544357" lon="5.6910402072755115"><ele>211.0</ele><time>2026-05-02T17:06:40Z</time></trkpt><trkpt lat="45.20447739796926" lon="5.691339115896186"><ele>211.0</ele><time>2026-05-02T17:06:41Z</time></trkpt><trkpt lat="45.20428228450716" lon="5.6916270278139365"><ele>211.0</ele><time>2026-05-02T17:06:42Z</time></trkpt><trkpt lat="45.204082233820955" lon="5.691915383054784"><ele>211.0</ele><time>2026-05-02T17:06:43Z</time></trkpt><trkpt lat="45.20388055020842" lon="5.692203201661781"><ele>212.5</ele><time>2026-05-02T17:06:44Z</time></trkpt><trkpt lat="45.20367605637756" lon="5.6924995857970515"><ele>214.0</ele><time>2026-05-02T17:06:45Z</time></trkpt><trkpt lat="45.203474118174526" lon="5.6927945294274815"><ele>214.0</ele><time>2026-05-02T17:06:46Z</time></trkpt><trkpt lat="45.20327197549186" lon="5.693087069323962"><ele>214.0</ele><time>2026-05-02T17:06:47Z</time></trkpt><trkpt lat="45.203066825051266" lon="5.693380589562804"><ele>212.0</ele><time>2026-05-02T17:06:48Z</time></trkpt><trkpt lat="45.20286221466854" lon="5.69367547867916"><ele>210.0</ele><time>2026-05-02T17:06:49Z</time></trkpt><trkpt lat="45.20265372244445" lon="5.693975665139943"><ele>210.0</ele><time>2026-05-02T17:06:50Z</time></trkpt><trkpt lat="45.20245366159611" lon="5.694263751992862"><ele>210.0</ele><time>2026-05-02T17:06:51Z</time></trkpt><trkpt lat="45.202240124930455" lon="5.69455712642875"><ele>211.5</ele><time>2026-05-02T17:06:52Z</time></trkpt><trkpt lat="45.20205376033428" lon="5.6948319647014864"><ele>213.0</ele><time>2026-05-02T17:06:53Z</time></trkpt><trkpt lat="45.20185050110355" lon="5.69511633455361"><ele>212.0</ele><time>2026-05-02T17:06:54Z</time></trkpt><trkpt lat="45.201650592388475" lon="5.695397589071604"><ele>211.0</ele><time>2026-05-02T17:06:55Z</time></trkpt><trkpt lat="45.20145199702706" lon="5.695682727393685"><ele>211.0</ele><time>2026-05-02T17:06:56Z</time></trkpt><trkpt lat="45.2012479505144" lon="5.695972509716101"><ele>211.0</ele><time>2026-05-02T17:06:57Z</time></trkpt><trkpt lat="45.20104988347292" lon="5.696253499965223"><ele>211.0</ele><time>2026-05-02T17:06:58Z</time></trkpt><trkpt lat="45.20085001296168" lon="5.6965400083461315"><ele>211.0</ele><time>2026-05-02T17:06:59Z</time></trkpt><trkpt lat="45.200651034265746" lon="5.696822995647833"><ele>209.5</ele><time>2026-05-02T17:07:00Z</time></trkpt><trkpt lat="45.20045407288252" lon="5.697113740160643"><ele>208.0</ele><time>2026-05-02T17:07:01Z</time></trkpt><trkpt lat="45.20025507658525" lon="5.69739919940091"><ele>208.0</ele><time>2026-05-02T17:07:02Z</time></trkpt><trkpt lat="45.200054381129156" lon="5.697682140487573"><ele>208.0</ele><time>2026-05-02T17:07:03Z</time></trkpt><trkpt lat="45.19985492280959" lon="5.697958858179763"><ele>212.0</ele><time>2026-05-02T17:07:04Z</time></trkpt><trkpt lat="45.19965740935007" lon="5.698236738326679"><ele>216.0</ele><time>2026-05-02T17:07:05Z</time></trkpt><trkpt lat="45.19946111115848" lon="5.698515790512699"><ele>216.0</ele><time>2026-05-02T17:07:06Z</time></trkpt><trkpt lat="45.19926431562681" lon="5.6987943775874355"><ele>216.0</ele><time>2026-05-02T17:07:07Z</time></trkpt><trkpt lat="45.19907281676876" lon="5.699078407871241"><ele>214.5</ele><time>2026-05-02T17:07:08Z</time></trkpt><trkpt lat="45.19888425687035" lon="5.699350984685101"><ele>213.0</ele><time>2026-05-02T17:07:09Z</time></trkpt><trkpt lat="45.19870329145146" lon="5.699611454764464"><ele>212.5</ele><time>2026-05-02T17:07:10Z</time></trkpt><trkpt lat="45.198528842542366" lon="5.699868750965823"><ele>212.0</ele><time>2026-05-02T17:07:10.999Z</time></trkpt><trkpt lat="45.19835253789536" lon="5.700122183334682"><ele>213.5</ele><time>2026-05-02T17:07:11.999Z</time></trkpt><trkpt lat="45.198182598818185" lon="5.700380742867051"><ele>215.0</ele><time>2026-05-02T17:07:12.999Z</time></trkpt><trkpt lat="45.19799862369454" lon="5.70063142208775"><ele>215.0</ele><time>2026-05-02T17:07:13.999Z</time></trkpt><trkpt lat="45.197805438833115" lon="5.700866509658521"><ele>215.0</ele><time>2026-05-02T17:07:14.999Z</time></trkpt><trkpt lat="45.197595651213504" lon="5.701088948646267"><ele>215.5</ele><time>2026-05-02T17:07:15.999Z</time></trkpt><trkpt lat="45.197385252699114" lon="5.7012966778863525"><ele>216.0</ele><time>2026-05-02T17:07:16.999Z</time></trkpt><trkpt lat="45.19717143728703" lon="5.701487381109775"><ele>215.0</ele><time>2026-05-02T17:07:17.999Z</time></trkpt><trkpt lat="45.19694876508604" lon="5.7016713437193625"><ele>214.0</ele><time>2026-05-02T17:07:18.999Z</time></trkpt><trkpt lat="45.196721457506044" lon="5.701845017626982"><ele>215.0</ele><time>2026-05-02T17:07:19.999Z</time></trkpt><trkpt lat="45.19648662652403" lon="5.702002129139313"><ele>216.0</ele><time>2026-05-02T17:07:20.999Z</time></trkpt><trkpt lat="45.19625145665923" lon="5.702148359742843"><ele>216.0</ele><time>2026-05-02T17:07:21.999Z</time></trkpt><trkpt lat="45.19601168160213" lon="5.7022808160696785"><ele>216.0</ele><time>2026-05-02T17:07:22.999Z</time></trkpt><trkpt lat="45.19577131400158" lon="5.702400990034714"><ele>213.5</ele><time>2026-05-02T17:07:23.999Z</time></trkpt><trkpt lat="45.19552254614115" lon="5.702504561784079"><ele>211.0</ele><time>2026-05-02T17:07:24.999Z</time></trkpt><trkpt lat="45.195273105543166" lon="5.7025957897541195"><ele>211.0</ele><time>2026-05-02T17:07:25.999Z</time></trkpt><trkpt lat="45.19502269923725" lon="5.702671559246814"><ele>211.0</ele><time>2026-05-02T17:07:26.999Z</time></trkpt><trkpt lat="45.19477158207923" lon="5.702729828895712"><ele>213.0</ele><time>2026-05-02T17:07:27.999Z</time></trkpt><trkpt lat="45.19452192190708" lon="5.7027767402750476"><ele>215.0</ele><time>2026-05-02T17:07:28.999Z</time></trkpt><trkpt lat="45.194272512354274" lon="5.702810528898999"><ele>215.0</ele><time>2026-05-02T17:07:29.999Z</time></trkpt><trkpt lat="45.194021147732265" lon="5.70283903800646"><ele>215.0</ele><time>2026-05-02T17:07:30.999Z</time></trkpt><trkpt lat="45.19377091521682" lon="5.702862651257925"><ele>215.5</ele><time>2026-05-02T17:07:31.999Z</time></trkpt><trkpt lat="45.193520401733494" lon="5.702872929747051"><ele>216.0</ele><time>2026-05-02T17:07:32.999Z</time></trkpt><trkpt lat="45.19326736551861" lon="5.702874494026522"><ele>215.5</ele><time>2026-05-02T17:07:33.999Z</time></trkpt><trkpt lat="45.19301744221601" lon="5.702875529460994"><ele>215.0</ele><time>2026-05-02T17:07:34.999Z</time></trkpt><trkpt lat="45.19276149825396" lon="5.70287274283901"><ele>215.0</ele><time>2026-05-02T17:07:35.999Z</time></trkpt><trkpt lat="45.19250567692676" lon="5.702867848479727"><ele>215.0</ele><time>2026-05-02T17:07:36.999Z</time></trkpt><trkpt lat="45.19225509611483" lon="5.70286205490361"><ele>215.5</ele><time>2026-05-02T17:07:37.999Z</time></trkpt><trkpt lat="45.19200321563638" lon="5.7028510362501255"><ele>216.0</ele><time>2026-05-02T17:07:38.999Z</time></trkpt><trkpt lat="45.19175467473918" lon="5.702838149857385"><ele>216.0</ele><time>2026-05-02T17:07:39.999Z</time></trkpt><trkpt lat="45.19150214873816" lon="5.7028165366142165"><ele>216.0</ele><time>2026-05-02T17:07:40.999Z</time></trkpt><trkpt lat="45.19125617112051" lon="5.702793098823569"><ele>216.0</ele><time>2026-05-02T17:07:41.999Z</time></trkpt><trkpt lat="45.19100477456024" lon="5.702771469940645"><ele>216.0</ele><time>2026-05-02T17:07:42.999Z</time></trkpt><trkpt lat="45.19075602417961" lon="5.702754482847687"><ele>216.0</ele><time>2026-05-02T17:07:43.999Z</time></trkpt><trkpt lat="45.190495245833716" lon="5.702735199517593"><ele>216.0</ele><time>2026-05-02T17:07:44.999Z</time></trkpt><trkpt lat="45.19024936237754" lon="5.702720323721004"><ele>216.0</ele><time>2026-05-02T17:07:45.999Z</time></trkpt><trkpt lat="45.189996179316964" lon="5.702702290309974"><ele>216.0</ele><time>2026-05-02T17:07:46.999Z</time></trkpt><trkpt lat="45.18974055878642" lon="5.7026881262832"><ele>215.0</ele><time>2026-05-02T17:07:47.999Z</time></trkpt><trkpt lat="45.18948565791253" lon="5.7026764918636"><ele>214.0</ele><time>2026-05-02T17:07:48.999Z</time></trkpt><trkpt lat="45.18922667431656" lon="5.702656163211041"><ele>212.5</ele><time>2026-05-02T17:07:49.999Z</time></trkpt><trkpt lat="45.18897833651262" lon="5.7026514510016355"><ele>211.0</ele><time>2026-05-02T17:07:50.999Z</time></trkpt><trkpt lat="45.18870957843462" lon="5.702652849552631"><ele>211.0</ele><time>2026-05-02T17:07:51.999Z</time></trkpt><trkpt lat="45.18846178557691" lon="5.702643414392585"><ele>211.0</ele><time>2026-05-02T17:07:52.999Z</time></trkpt><trkpt lat="45.18822088651132" lon="5.702630714027714"><ele>214.5</ele><time>2026-05-02T17:07:53.999Z</time></trkpt><trkpt lat="45.187975215377016" lon="5.702626306185594"><ele>218.0</ele><time>2026-05-02T17:07:54.999Z</time></trkpt><trkpt lat="45.1877380140636" lon="5.7026227326822525"><ele>218.0</ele><time>2026-05-02T17:07:55.999Z</time></trkpt><trkpt lat="45.18749799938306" lon="5.7026212054512655"><ele>218.0</ele><time>2026-05-02T17:07:56.999Z</time></trkpt><trkpt lat="45.18725832248083" lon="5.702614613379367"><ele>220.0</ele><time>2026-05-02T17:07:57.999Z</time></trkpt><trkpt lat="45.18702062147347" lon="5.702605944333987"><ele>222.0</ele><time>2026-05-02T17:07:58.999Z</time></trkpt><trkpt lat="45.18677762742447" lon="5.702590190170671"><ele>222.0</ele><time>2026-05-02T17:07:59.999Z</time></trkpt><trkpt lat="45.18653824140253" lon="5.702585844826616"><ele>222.0</ele><time>2026-05-02T17:08:00.999Z</time></trkpt><trkpt lat="45.18629768463489" lon="5.702580557500161"><ele>221.5</ele><time>2026-05-02T17:08:01.999Z</time></trkpt><trkpt lat="45.1860532914587" lon="5.702573065161618"><ele>221.0</ele><time>2026-05-02T17:08:02.999Z</time></trkpt><trkpt lat="45.185806653898645" lon="5.702561881689043"><ele>219.0</ele><time>2026-05-02T17:08:03.999Z</time></trkpt><trkpt lat="45.18556123880641" lon="5.7025562723315675"><ele>217.0</ele><time>2026-05-02T17:08:04.999Z</time></trkpt><trkpt lat="45.1853129173868" lon="5.702551923354319"><ele>217.0</ele><time>2026-05-02T17:08:05.999Z</time></trkpt><trkpt lat="45.185069206819115" lon="5.702540815405053"><ele>217.0</ele><time>2026-05-02T17:08:06.999Z</time></trkpt><trkpt lat="45.18482717450104" lon="5.7025390231921484"><ele>216.5</ele><time>2026-05-02T17:08:07.999Z</time></trkpt><trkpt lat="45.18458105278515" lon="5.70252826819726"><ele>216.0</ele><time>2026-05-02T17:08:08.999Z</time></trkpt><trkpt lat="45.184338951707474" lon="5.702522553839343"><ele>216.0</ele><time>2026-05-02T17:08:09.999Z</time></trkpt><trkpt lat="45.18409104168235" lon="5.70251211118971"><ele>216.0</ele><time>2026-05-02T17:08:10.999Z</time></trkpt><trkpt lat="45.18384545254358" lon="5.702509857777453"><ele>218.0</ele><time>2026-05-02T17:08:11.999Z</time></trkpt><trkpt lat="45.18360180363198" lon="5.702499636800601"><ele>220.0</ele><time>2026-05-02T17:08:12.998Z</time></trkpt><trkpt lat="45.18335157963437" lon="5.702497043209591"><ele>221.0</ele><time>2026-05-02T17:08:13.998Z</time></trkpt><trkpt lat="45.1831018154498" lon="5.702491498405593"><ele>222.0</ele><time>2026-05-02T17:08:14.998Z</time></trkpt><trkpt lat="45.18285416577171" lon="5.702482485826265"><ele>222.0</ele><time>2026-05-02T17:08:15.998Z</time></trkpt><trkpt lat="45.182608282064145" lon="5.702470551664272"><ele>222.0</ele><time>2026-05-02T17:08:16.998Z</time></trkpt><trkpt lat="45.182359985911624" lon="5.702464004384661"><ele>219.5</ele><time>2026-05-02T17:08:17.998Z</time></trkpt><trkpt lat="45.18212302137226" lon="5.702453078000502"><ele>217.0</ele><time>2026-05-02T17:08:18.998Z</time></trkpt><trkpt lat="45.18185957290417" lon="5.702470739258078"><ele>217.0</ele><time>2026-05-02T17:08:19.998Z</time></trkpt><trkpt lat="45.18160786726146" lon="5.702482401737387"><ele>217.0</ele><time>2026-05-02T17:08:20.998Z</time></trkpt><trkpt lat="45.18135448480817" lon="5.70248965778135"><ele>218.0</ele><time>2026-05-02T17:08:21.998Z</time></trkpt><trkpt lat="45.18110008152175" lon="5.7024921879734585"><ele>219.0</ele><time>2026-05-02T17:08:22.998Z</time></trkpt><trkpt lat="45.18083966333724" lon="5.70249042832179"><ele>220.0</ele><time>2026-05-02T17:08:23.998Z</time></trkpt><trkpt lat="45.18058820137439" lon="5.70248701764971"><ele>221.0</ele><time>2026-05-02T17:08:24.998Z</time></trkpt><trkpt lat="45.18033385287804" lon="5.702484130127355"><ele>221.0</ele><time>2026-05-02T17:08:25.998Z</time></trkpt><trkpt lat="45.18007726640374" lon="5.702477444342387"><ele>221.0</ele><time>2026-05-02T17:08:26.998Z</time></trkpt><trkpt lat="45.17981671156913" lon="5.702471454950785"><ele>221.5</ele><time>2026-05-02T17:08:27.998Z</time></trkpt><trkpt lat="45.17956926215509" lon="5.702473461099433"><ele>222.0</ele><time>2026-05-02T17:08:28.998Z</time></trkpt><trkpt lat="45.17931679281151" lon="5.7024428480474345"><ele>222.0</ele><time>2026-05-02T17:08:29.998Z</time></trkpt><trkpt lat="45.1790592447656" lon="5.702429469729103"><ele>222.0</ele><time>2026-05-02T17:08:30.998Z</time></trkpt><trkpt lat="45.178802827839675" lon="5.702416367514757"><ele>223.0</ele><time>2026-05-02T17:08:31.998Z</time></trkpt><trkpt lat="45.17854947601225" lon="5.702404660543926"><ele>224.0</ele><time>2026-05-02T17:08:32.998Z</time></trkpt><trkpt lat="45.17829337114688" lon="5.70239209248994"><ele>224.0</ele><time>2026-05-02T17:08:33.998Z</time></trkpt><trkpt lat="45.17802859024899" lon="5.702384103366359"><ele>224.0</ele><time>2026-05-02T17:08:35Z</time></trkpt><trkpt lat="45.17777908236146" lon="5.702381607098053"><ele>224.0</ele><time>2026-05-02T17:08:36Z</time></trkpt><trkpt lat="45.17752147604222" lon="5.702375846201743"><ele>224.0</ele><time>2026-05-02T17:08:37Z</time></trkpt><trkpt lat="45.177258548808496" lon="5.702368872581801"><ele>225.5</ele><time>2026-05-02T17:08:38Z</time></trkpt><trkpt lat="45.176992349178775" lon="5.702351605235442"><ele>227.0</ele><time>2026-05-02T17:08:39Z</time></trkpt><trkpt lat="45.176721512643525" lon="5.702330028614566"><ele>224.5</ele><time>2026-05-02T17:08:40Z</time></trkpt><trkpt lat="45.176449761324015" lon="5.702310838133406"><ele>222.0</ele><time>2026-05-02T17:08:41Z</time></trkpt><trkpt lat="45.1761772218952" lon="5.702290136470727"><ele>222.0</ele><time>2026-05-02T17:08:42Z</time></trkpt><trkpt lat="45.1759021016362" lon="5.702260756369014"><ele>222.0</ele><time>2026-05-02T17:08:43Z</time></trkpt><trkpt lat="45.175631282706796" lon="5.702231387368284"><ele>222.5</ele><time>2026-05-02T17:08:44Z</time></trkpt><trkpt lat="45.17536093740678" lon="5.702197512174147"><ele>223.0</ele><time>2026-05-02T17:08:45Z</time></trkpt><trkpt lat="45.1750948561691" lon="5.702169345052428"><ele>222.5</ele><time>2026-05-02T17:08:46Z</time></trkpt><trkpt lat="45.17482991299359" lon="5.702140943696968"><ele>222.0</ele><time>2026-05-02T17:08:47Z</time></trkpt><trkpt lat="45.17456959949453" lon="5.702118650332253"><ele>222.0</ele><time>2026-05-02T17:08:48Z</time></trkpt><trkpt lat="45.17431281876449" lon="5.702094170276675"><ele>222.0</ele><time>2026-05-02T17:08:49Z</time></trkpt><trkpt lat="45.17405863567808" lon="5.702073279763186"><ele>222.0</ele><time>2026-05-02T17:08:50Z</time></trkpt><trkpt lat="45.17380793472051" lon="5.702057252633918"><ele>222.0</ele><time>2026-05-02T17:08:51Z</time></trkpt><trkpt lat="45.17355590801217" lon="5.702043785683357"><ele>222.0</ele><time>2026-05-02T17:08:52Z</time></trkpt><trkpt lat="45.17330951661321" lon="5.702031585519352"><ele>222.0</ele><time>2026-05-02T17:08:53Z</time></trkpt><trkpt lat="45.17306613157837" lon="5.702018994092945"><ele>221.5</ele><time>2026-05-02T17:08:54Z</time></trkpt><trkpt lat="45.1728174933561" lon="5.702004813458038"><ele>221.0</ele><time>2026-05-02T17:08:55Z</time></trkpt><trkpt lat="45.17257510003502" lon="5.7019816306058635"><ele>222.5</ele><time>2026-05-02T17:08:56Z</time></trkpt><trkpt lat="45.17233337098119" lon="5.701971060037797"><ele>224.0</ele><time>2026-05-02T17:08:57Z</time></trkpt><trkpt lat="45.172087898784106" lon="5.701954534791826"><ele>224.0</ele><time>2026-05-02T17:08:58Z</time></trkpt><trkpt lat="45.17184041014392" lon="5.7019473193643"><ele>224.0</ele><time>2026-05-02T17:08:59Z</time></trkpt><trkpt lat="45.17160674199327" lon="5.701933986172072"><ele>224.5</ele><time>2026-05-02T17:09:00Z</time></trkpt><trkpt lat="45.171376291276665" lon="5.701924152712439"><ele>225.0</ele><time>2026-05-02T17:09:00.999Z</time></trkpt><trkpt lat="45.17114883922511" lon="5.701915187339078"><ele>224.0</ele><time>2026-05-02T17:09:01.999Z</time></trkpt><trkpt lat="45.17091632611065" lon="5.701910310871275"><ele>223.0</ele><time>2026-05-02T17:09:02.999Z</time></trkpt><trkpt lat="45.17068249799376" lon="5.701909046095068"><ele>223.0</ele><time>2026-05-02T17:09:03.999Z</time></trkpt><trkpt lat="45.170445907237436" lon="5.701905635469985"><ele>223.0</ele><time>2026-05-02T17:09:04.999Z</time></trkpt><trkpt lat="45.17020866035705" lon="5.701894771040178"><ele>223.0</ele><time>2026-05-02T17:09:05.999Z</time></trkpt><trkpt lat="45.16997455176933" lon="5.701885999829931"><ele>223.0</ele><time>2026-05-02T17:09:06.999Z</time></trkpt><trkpt lat="45.16973555125064" lon="5.701871398311276"><ele>222.5</ele><time>2026-05-02T17:09:07.999Z</time></trkpt><trkpt lat="45.16949966479644" lon="5.701857046656272"><ele>222.0</ele><time>2026-05-02T17:09:08.999Z</time></trkpt><trkpt lat="45.1692632276157" lon="5.701843938296482"><ele>223.5</ele><time>2026-05-02T17:09:09.999Z</time></trkpt><trkpt lat="45.169025826383" lon="5.701830516864722"><ele>225.0</ele><time>2026-05-02T17:09:10.999Z</time></trkpt><trkpt lat="45.168789630919434" lon="5.701808045311869"><ele>225.0</ele><time>2026-05-02T17:09:11.999Z</time></trkpt><trkpt lat="45.168555363655145" lon="5.701791804615137"><ele>225.0</ele><time>2026-05-02T17:09:12.999Z</time></trkpt><trkpt lat="45.168316876487125" lon="5.701773362584478"><ele>226.0</ele><time>2026-05-02T17:09:13.999Z</time></trkpt><trkpt lat="45.16807758938829" lon="5.701758388905863"><ele>227.0</ele><time>2026-05-02T17:09:14.999Z</time></trkpt><trkpt lat="45.16784240308995" lon="5.701742982123751"><ele>227.0</ele><time>2026-05-02T17:09:15.999Z</time></trkpt><trkpt lat="45.16760635514767" lon="5.701730840212135"><ele>227.0</ele><time>2026-05-02T17:09:16.999Z</time></trkpt><trkpt lat="45.167369667761925" lon="5.701718851156736"><ele>224.5</ele><time>2026-05-02T17:09:17.999Z</time></trkpt><trkpt lat="45.167129828460084" lon="5.701710627146694"><ele>222.0</ele><time>2026-05-02T17:09:18.999Z</time></trkpt><trkpt lat="45.16689146829645" lon="5.7017020819100255"><ele>222.0</ele><time>2026-05-02T17:09:19.999Z</time></trkpt><trkpt lat="45.16664969821676" lon="5.701697683959659"><ele>222.0</ele><time>2026-05-02T17:09:20.999Z</time></trkpt><trkpt lat="45.1664080609473" lon="5.70169017136294"><ele>222.5</ele><time>2026-05-02T17:09:21.999Z</time></trkpt><trkpt lat="45.166170310210376" lon="5.701685128599046"><ele>223.0</ele><time>2026-05-02T17:09:22.999Z</time></trkpt><trkpt lat="45.165925013665564" lon="5.701681623104187"><ele>224.0</ele><time>2026-05-02T17:09:23.999Z</time></trkpt><trkpt lat="45.165686097815474" lon="5.7016698202268135"><ele>225.0</ele><time>2026-05-02T17:09:24.999Z</time></trkpt><trkpt lat="45.16544504376699" lon="5.701660279945802"><ele>225.0</ele><time>2026-05-02T17:09:25.999Z</time></trkpt><trkpt lat="45.16520412070128" lon="5.70164944711831"><ele>225.0</ele><time>2026-05-02T17:09:26.999Z</time></trkpt><trkpt lat="45.16496297746036" lon="5.701644023179246"><ele>225.0</ele><time>2026-05-02T17:09:27.999Z</time></trkpt><trkpt lat="45.164721621678275" lon="5.701632922286954"><ele>225.0</ele><time>2026-05-02T17:09:28.999Z</time></trkpt><trkpt lat="45.164484702761236" lon="5.701623147380306"><ele>225.0</ele><time>2026-05-02T17:09:29.999Z</time></trkpt><trkpt lat="45.16424871911524" lon="5.7016137459355996"><ele>225.0</ele><time>2026-05-02T17:09:30.999Z</time></trkpt><trkpt lat="45.16403094446401" lon="5.701603059492329"><ele>225.33333333333331</ele><time>2026-05-02T17:09:31.999Z</time></trkpt><trkpt lat="45.163811871375984" lon="5.701592831054597"><ele>225.66666666666666</ele><time>2026-05-02T17:09:32.999Z</time></trkpt><trkpt lat="45.16361337577008" lon="5.701586188795315"><ele>226.0</ele><time>2026-05-02T17:09:33.999Z</time></trkpt><trkpt lat="45.16341760799177" lon="5.70157696520914"><ele>226.0</ele><time>2026-05-02T17:09:34.999Z</time></trkpt><trkpt lat="45.16322774053429" lon="5.70156468473413"><ele>226.0</ele><time>2026-05-02T17:09:35.999Z</time></trkpt><trkpt lat="45.16304375310048" lon="5.701552656748095"><ele>226.0</ele><time>2026-05-02T17:09:36.999Z</time></trkpt><trkpt lat="45.162859251050875" lon="5.701534268674647"><ele>225.66666666666666</ele><time>2026-05-02T17:09:37.999Z</time></trkpt><trkpt lat="45.16268042050057" lon="5.701517263873512"><ele>225.33333333333331</ele><time>2026-05-02T17:09:38.999Z</time></trkpt><trkpt lat="45.162503052053395" lon="5.701500193572454"><ele>225.0</ele><time>2026-05-02T17:09:39.999Z</time></trkpt><trkpt lat="45.16234246148285" lon="5.701479668152309"><ele>225.0</ele><time>2026-05-02T17:09:40.999Z</time></trkpt><trkpt lat="45.16218914202219" lon="5.701447368456191"><ele>225.0</ele><time>2026-05-02T17:09:41.999Z</time></trkpt><trkpt lat="45.16204360336973" lon="5.701415982983957"><ele>225.0</ele><time>2026-05-02T17:09:42.999Z</time></trkpt><trkpt lat="45.16188942964448" lon="5.701373254975601"><ele>225.0</ele><time>2026-05-02T17:09:43.999Z</time></trkpt><trkpt lat="45.16173392367774" lon="5.701331373714943"><ele>225.0</ele><time>2026-05-02T17:09:44.999Z</time></trkpt><trkpt lat="45.1615653340088" lon="5.70127198843578"><ele>225.0</ele><time>2026-05-02T17:09:45.999Z</time></trkpt><trkpt lat="45.1613905898363" lon="5.70122037074402"><ele>224.33333333333331</ele><time>2026-05-02T17:09:46.999Z</time></trkpt><trkpt lat="45.16122233785089" lon="5.701141332261338"><ele>223.66666666666666</ele><time>2026-05-02T17:09:47.999Z</time></trkpt><trkpt lat="45.16104985476373" lon="5.701060510278854"><ele>223.0</ele><time>2026-05-02T17:09:48.999Z</time></trkpt><trkpt lat="45.160873433642955" lon="5.700976932326492"><ele>223.0</ele><time>2026-05-02T17:09:49.999Z</time></trkpt><trkpt lat="45.16069456894986" lon="5.700895073727506"><ele>223.0</ele><time>2026-05-02T17:09:50.999Z</time></trkpt><trkpt lat="45.160529036911676" lon="5.700820784408313"><ele>223.0</ele><time>2026-05-02T17:09:51.999Z</time></trkpt><trkpt lat="45.16038263646752" lon="5.70075639750886"><ele>223.0</ele><time>2026-05-02T17:09:52.999Z</time></trkpt><trkpt lat="45.1602445196159" lon="5.700695037910867"><ele>223.0</ele><time>2026-05-02T17:09:53.999Z</time></trkpt><trkpt lat="45.160105006721835" lon="5.700632030494941"><ele>223.0</ele><time>2026-05-02T17:09:54.999Z</time></trkpt><trkpt lat="45.1599795473714" lon="5.700579739659517"><ele>223.0</ele><time>2026-05-02T17:09:55.999Z</time></trkpt><trkpt lat="45.15985438752986" lon="5.700519280481577"><ele>224.0</ele><time>2026-05-02T17:09:56.999Z</time></trkpt><trkpt lat="45.15972406400032" lon="5.700458829961046"><ele>225.0</ele><time>2026-05-02T17:09:57.999Z</time></trkpt><trkpt lat="45.1595899418922" lon="5.700402841500825"><ele>226.0</ele><time>2026-05-02T17:09:58.999Z</time></trkpt><trkpt lat="45.15946556505526" lon="5.700347242612505"><ele>227.0</ele><time>2026-05-02T17:09:59.999Z</time></trkpt><trkpt lat="45.15935513937214" lon="5.700293141847117"><ele>226.5</ele><time>2026-05-02T17:10:00.998Z</time></trkpt><trkpt lat="45.1592481177639" lon="5.700244546567307"><ele>226.0</ele><time>2026-05-02T17:10:01.998Z</time></trkpt><trkpt lat="45.1591370089909" lon="5.700197438331043"><ele>225.5</ele><time>2026-05-02T17:10:02.998Z</time></trkpt><trkpt lat="45.15903185683038" lon="5.700160350326675"><ele>225.0</ele><time>2026-05-02T17:10:03.998Z</time></trkpt><trkpt lat="45.15891887966597" lon="5.700118531892425"><ele>225.0</ele><time>2026-05-02T17:10:04.998Z</time></trkpt><trkpt lat="45.15879916669387" lon="5.700070981161106"><ele>225.0</ele><time>2026-05-02T17:10:05.998Z</time></trkpt><trkpt lat="45.158644439266624" lon="5.700005361918239"><ele>225.0</ele><time>2026-05-02T17:10:06.998Z</time></trkpt><trkpt lat="45.15850056282415" lon="5.699948843723944"><ele>225.0</ele><time>2026-05-02T17:10:07.998Z</time></trkpt><trkpt lat="45.158383782393784" lon="5.699905201905895"><ele>225.0</ele><time>2026-05-02T17:10:08.998Z</time></trkpt><trkpt lat="45.158283954372585" lon="5.699913425941096"><ele>225.0</ele><time>2026-05-02T17:10:09.998Z</time></trkpt><trkpt lat="45.15817018513781" lon="5.699914341321527"><ele>225.0</ele><time>2026-05-02T17:10:10.998Z</time></trkpt><trkpt lat="45.15806115781485" lon="5.699938848936854"><ele>225.0</ele><time>2026-05-02T17:10:11.998Z</time></trkpt><trkpt lat="45.15795461997381" lon="5.699987512762964"><ele>225.0</ele><time>2026-05-02T17:10:12.998Z</time></trkpt><trkpt lat="45.1578529724852" lon="5.700052619584636"><ele>225.25</ele><time>2026-05-02T17:10:13.998Z</time></trkpt><trkpt lat="45.157759889948466" lon="5.700147767584516"><ele>225.5</ele><time>2026-05-02T17:10:14.998Z</time></trkpt><trkpt lat="45.15767775240331" lon="5.700261433878693"><ele>225.75</ele><time>2026-05-02T17:10:15.998Z</time></trkpt><trkpt lat="45.157607613940975" lon="5.700388844132429"><ele>226.0</ele><time>2026-05-02T17:10:16.998Z</time></trkpt><trkpt lat="45.15755328553288" lon="5.700535415935848"><ele>226.0</ele><time>2026-05-02T17:10:17.998Z</time></trkpt><trkpt lat="45.15751605031719" lon="5.700696443426038"><ele>226.0</ele><time>2026-05-02T17:10:18.998Z</time></trkpt><trkpt lat="45.15750141379493" lon="5.700869598509142"><ele>226.0</ele><time>2026-05-02T17:10:19.998Z</time></trkpt><trkpt lat="45.15751006347036" lon="5.701047918275851"><ele>226.0</ele><time>2026-05-02T17:10:20.998Z</time></trkpt><trkpt lat="45.15753740045927" lon="5.701223225134168"><ele>226.25</ele><time>2026-05-02T17:10:21.998Z</time></trkpt><trkpt lat="45.15758596787126" lon="5.701399086222559"><ele>226.5</ele><time>2026-05-02T17:10:22.998Z</time></trkpt><trkpt lat="45.157655753224745" lon="5.701567357336676"><ele>226.75</ele><time>2026-05-02T17:10:23.998Z</time></trkpt><trkpt lat="45.15773808182601" lon="5.701738835104625"><ele>227.0</ele><time>2026-05-02T17:10:24.998Z</time></trkpt><trkpt lat="45.1578238142084" lon="5.701916448491207"><ele>227.5</ele><time>2026-05-02T17:10:25.998Z</time></trkpt><trkpt lat="45.15790277759183" lon="5.702083970056352"><ele>228.0</ele><time>2026-05-02T17:10:26.998Z</time></trkpt><trkpt lat="45.15798876406512" lon="5.702213161541908"><ele>228.5</ele><time>2026-05-02T17:10:27.998Z</time></trkpt><trkpt lat="45.15807456502691" lon="5.702361690083136"><ele>229.0</ele><time>2026-05-02T17:10:28.998Z</time></trkpt><trkpt lat="45.158153513201356" lon="5.7025372755660255"><ele>229.0</ele><time>2026-05-02T17:10:29.998Z</time></trkpt><trkpt lat="45.15823067357339" lon="5.702708360491212"><ele>229.0</ele><time>2026-05-02T17:10:30.998Z</time></trkpt><trkpt lat="45.15831444217525" lon="5.702888114195423"><ele>229.0</ele><time>2026-05-02T17:10:31.998Z</time></trkpt><trkpt lat="45.15840958392567" lon="5.703105756814317"><ele>229.0</ele><time>2026-05-02T17:10:32.998Z</time></trkpt><trkpt lat="45.15849671866391" lon="5.703347786166414"><ele>229.0</ele><time>2026-05-02T17:10:33.998Z</time></trkpt><trkpt lat="45.15856446347399" lon="5.703627071668818"><ele>229.0</ele><time>2026-05-02T17:10:34.998Z</time></trkpt><trkpt lat="45.158608798114216" lon="5.703906335207539"><ele>229.66666666666666</ele><time>2026-05-02T17:10:35.998Z</time></trkpt><trkpt lat="45.15866545729891" lon="5.704172975209212"><ele>230.33333333333331</ele><time>2026-05-02T17:10:36.998Z</time></trkpt><trkpt lat="45.15869732411873" lon="5.704465914224283"><ele>231.0</ele><time>2026-05-02T17:10:38.015Z</time></trkpt><trkpt lat="45.158705575055606" lon="5.704743847746059"><ele>229.0</ele><time>2026-05-02T17:10:39.017Z</time></trkpt><trkpt lat="45.15870532284181" lon="5.705035854926211"><ele>227.0</ele><time>2026-05-02T17:10:40.018Z</time></trkpt><trkpt lat="45.1587073956732" lon="5.705388384237299"><ele>227.0</ele><time>2026-05-02T17:10:41.016Z</time></trkpt><trkpt lat="45.15870856575774" lon="5.7056738968224705"><ele>227.0</ele><time>2026-05-02T17:10:42.017Z</time></trkpt><trkpt lat="45.15869964384023" lon="5.707890149211239"><ele>227.0</ele><time>2026-05-02T17:10:48.998Z</time></trkpt><trkpt lat="45.15870433688817" lon="5.7082505002514425"><ele>227.0</ele><time>2026-05-02T17:10:49.998Z</time></trkpt><trkpt lat="45.158675143085205" lon="5.708591818098981"><ele>225.0</ele><time>2026-05-02T17:10:50.998Z</time></trkpt><trkpt lat="45.15861186480182" lon="5.70890119188654"><ele>223.0</ele><time>2026-05-02T17:10:51.999Z</time></trkpt><trkpt lat="45.158549565756566" lon="5.7092363137940945"><ele>222.5</ele><time>2026-05-02T17:10:52.999Z</time></trkpt><trkpt lat="45.158497122306606" lon="5.709574039800509"><ele>222.0</ele><time>2026-05-02T17:10:53.999Z</time></trkpt><trkpt lat="45.15842205490684" lon="5.709894934059624"><ele>222.0</ele><time>2026-05-02T17:10:54.999Z</time></trkpt><trkpt lat="45.158294624183135" lon="5.710225376802173"><ele>222.0</ele><time>2026-05-02T17:10:56Z</time></trkpt><trkpt lat="45.15818830362572" lon="5.710549615642974"><ele>223.0</ele><time>2026-05-02T17:10:57Z</time></trkpt><trkpt lat="45.15806566417359" lon="5.710871860784381"><ele>224.0</ele><time>2026-05-02T17:10:58Z</time></trkpt><trkpt lat="45.157927675972175" lon="5.711180660719284"><ele>224.5</ele><time>2026-05-02T17:10:59Z</time></trkpt><trkpt lat="45.15777191263249" lon="5.7114681667735505"><ele>225.0</ele><time>2026-05-02T17:11:00Z</time></trkpt><trkpt lat="45.15760395224514" lon="5.711744926742166"><ele>225.0</ele><time>2026-05-02T17:11:01Z</time></trkpt><trkpt lat="45.15742452113317" lon="5.712009278788637"><ele>225.0</ele><time>2026-05-02T17:11:02Z</time></trkpt><trkpt lat="45.15723528869482" lon="5.712258168920508"><ele>226.0</ele><time>2026-05-02T17:11:03Z</time></trkpt><trkpt lat="45.157034385690515" lon="5.712493958358482"><ele>227.0</ele><time>2026-05-02T17:11:04Z</time></trkpt><trkpt lat="45.15682769828271" lon="5.712714191708281"><ele>226.0</ele><time>2026-05-02T17:11:05Z</time></trkpt><trkpt lat="45.15661190511516" lon="5.712913641853491"><ele>225.0</ele><time>2026-05-02T17:11:06Z</time></trkpt><trkpt lat="45.15639474338632" lon="5.71310302795538"><ele>225.0</ele><time>2026-05-02T17:11:07Z</time></trkpt><trkpt lat="45.1561616057151" lon="5.713280237173267"><ele>225.0</ele><time>2026-05-02T17:11:08Z</time></trkpt><trkpt lat="45.15594083401105" lon="5.713460315933672"><ele>225.0</ele><time>2026-05-02T17:11:09Z</time></trkpt><trkpt lat="45.15572118628324" lon="5.71364274633152"><ele>225.0</ele><time>2026-05-02T17:11:10Z</time></trkpt><trkpt lat="45.155497428523205" lon="5.7138378423979965"><ele>227.0</ele><time>2026-05-02T17:11:11Z</time></trkpt><trkpt lat="45.155269830350605" lon="5.714046360156465"><ele>229.0</ele><time>2026-05-02T17:11:12Z</time></trkpt><trkpt lat="45.155049051557036" lon="5.714257557057027"><ele>228.5</ele><time>2026-05-02T17:11:13Z</time></trkpt><trkpt lat="45.15483393592542" lon="5.714471348711066"><ele>228.0</ele><time>2026-05-02T17:11:14Z</time></trkpt><trkpt lat="45.154621456525675" lon="5.714689044069452"><ele>228.0</ele><time>2026-05-02T17:11:15Z</time></trkpt><trkpt lat="45.15441556186597" lon="5.71491775555432"><ele>228.0</ele><time>2026-05-02T17:11:16Z</time></trkpt><trkpt lat="45.15421132439487" lon="5.7151505460382666"><ele>228.5</ele><time>2026-05-02T17:11:17Z</time></trkpt><trkpt lat="45.15401126985219" lon="5.7153861687354945"><ele>229.0</ele><time>2026-05-02T17:11:18Z</time></trkpt><trkpt lat="45.15380573759002" lon="5.715614666892482"><ele>229.0</ele><time>2026-05-02T17:11:19Z</time></trkpt><trkpt lat="45.1536016114267" lon="5.715843490474007"><ele>229.0</ele><time>2026-05-02T17:11:20Z</time></trkpt><trkpt lat="45.153401300500164" lon="5.716069792979925"><ele>228.5</ele><time>2026-05-02T17:11:21Z</time></trkpt><trkpt lat="45.15320500155124" lon="5.716299903859335"><ele>228.0</ele><time>2026-05-02T17:11:22Z</time></trkpt><trkpt lat="45.15301577132622" lon="5.716542075268701"><ele>228.0</ele><time>2026-05-02T17:11:23Z</time></trkpt><trkpt lat="45.15284184641279" lon="5.716798887958362"><ele>228.0</ele><time>2026-05-02T17:11:24Z</time></trkpt><trkpt lat="45.1526827084673" lon="5.717081079317641"><ele>228.5</ele><time>2026-05-02T17:11:25Z</time></trkpt><trkpt lat="45.15253699224648" lon="5.717379148056957"><ele>229.0</ele><time>2026-05-02T17:11:26Z</time></trkpt><trkpt lat="45.15240531330626" lon="5.717695807653265"><ele>227.5</ele><time>2026-05-02T17:11:27Z</time></trkpt><trkpt lat="45.15228385174628" lon="5.718025826001886"><ele>226.0</ele><time>2026-05-02T17:11:27.999Z</time></trkpt><trkpt lat="45.15216779521946" lon="5.718371987190862"><ele>226.0</ele><time>2026-05-02T17:11:28.999Z</time></trkpt><trkpt lat="45.15207176762263" lon="5.718726687321524"><ele>226.0</ele><time>2026-05-02T17:11:29.999Z</time></trkpt><trkpt lat="45.151985274745655" lon="5.719087336929665"><ele>226.5</ele><time>2026-05-02T17:11:30.999Z</time></trkpt><trkpt lat="45.151938851382695" lon="5.719456550146605"><ele>227.0</ele><time>2026-05-02T17:11:31.999Z</time></trkpt><trkpt lat="45.15187457914116" lon="5.719827482901893"><ele>227.0</ele><time>2026-05-02T17:11:32.999Z</time></trkpt><trkpt lat="45.1518052165538" lon="5.720193931155404"><ele>227.0</ele><time>2026-05-02T17:11:33.999Z</time></trkpt><trkpt lat="45.15173401708037" lon="5.720557628193798"><ele>227.0</ele><time>2026-05-02T17:11:34.999Z</time></trkpt><trkpt lat="45.15165662615732" lon="5.720930185816358"><ele>227.0</ele><time>2026-05-02T17:11:35.999Z</time></trkpt><trkpt lat="45.15159382349007" lon="5.72129542901736"><ele>227.5</ele><time>2026-05-02T17:11:36.999Z</time></trkpt><trkpt lat="45.151537947169544" lon="5.721672839966137"><ele>228.0</ele><time>2026-05-02T17:11:37.999Z</time></trkpt><trkpt lat="45.15147040492811" lon="5.722049145247557"><ele>228.0</ele><time>2026-05-02T17:11:38.999Z</time></trkpt><trkpt lat="45.15140135160542" lon="5.722418442344867"><ele>228.0</ele><time>2026-05-02T17:11:39.999Z</time></trkpt><trkpt lat="45.15133204842163" lon="5.722786823262887"><ele>228.0</ele><time>2026-05-02T17:11:40.999Z</time></trkpt><trkpt lat="45.15125879703313" lon="5.72315985151565"><ele>228.0</ele><time>2026-05-02T17:11:41.999Z</time></trkpt><trkpt lat="45.151189307952244" lon="5.723533877013703"><ele>228.5</ele><time>2026-05-02T17:11:42.999Z</time></trkpt><trkpt lat="45.15112236894346" lon="5.72390255321158"><ele>229.0</ele><time>2026-05-02T17:11:43.999Z</time></trkpt><trkpt lat="45.15104854848536" lon="5.724267955644819"><ele>227.0</ele><time>2026-05-02T17:11:44.999Z</time></trkpt><trkpt lat="45.15097937757519" lon="5.724620620874608"><ele>225.0</ele><time>2026-05-02T17:11:45.999Z</time></trkpt><trkpt lat="45.150918331303956" lon="5.724973043819968"><ele>224.0</ele><time>2026-05-02T17:11:46.999Z</time></trkpt><trkpt lat="45.15086037885299" lon="5.725327662073277"><ele>223.0</ele><time>2026-05-02T17:11:47.999Z</time></trkpt><trkpt lat="45.15081268463898" lon="5.725688401971655"><ele>223.0</ele><time>2026-05-02T17:11:48.999Z</time></trkpt><trkpt lat="45.150776533451584" lon="5.726060122565819"><ele>223.0</ele><time>2026-05-02T17:11:49.999Z</time></trkpt><trkpt lat="45.15073944756486" lon="5.726428266659718"><ele>223.0</ele><time>2026-05-02T17:11:50.999Z</time></trkpt><trkpt lat="45.15070580806209" lon="5.726793354102006"><ele>223.0</ele><time>2026-05-02T17:11:51.999Z</time></trkpt><trkpt lat="45.15067604245476" lon="5.72715119502035"><ele>223.0</ele><time>2026-05-02T17:11:52.999Z</time></trkpt><trkpt lat="45.150649440499386" lon="5.727510153576167"><ele>223.0</ele><time>2026-05-02T17:11:53.999Z</time></trkpt><trkpt lat="45.1506292665922" lon="5.727873434026094"><ele>225.0</ele><time>2026-05-02T17:11:54.999Z</time></trkpt><trkpt lat="45.15061456871202" lon="5.7282379830120105"><ele>227.0</ele><time>2026-05-02T17:11:55.999Z</time></trkpt><trkpt lat="45.15059651074221" lon="5.7286020413030165"><ele>227.0</ele><time>2026-05-02T17:11:56.999Z</time></trkpt><trkpt lat="45.1505804915499" lon="5.728968188132993"><ele>227.0</ele><time>2026-05-02T17:11:57.999Z</time></trkpt><trkpt lat="45.15056410524709" lon="5.729334437614532"><ele>226.5</ele><time>2026-05-02T17:11:58.999Z</time></trkpt><trkpt lat="45.15055096197202" lon="5.729702412377678"><ele>226.0</ele><time>2026-05-02T17:11:59.999Z</time></trkpt><trkpt lat="45.150544282086024" lon="5.730069351464262"><ele>227.0</ele><time>2026-05-02T17:12:00.999Z</time></trkpt><trkpt lat="45.150542262135396" lon="5.730438228085263"><ele>228.0</ele><time>2026-05-02T17:12:01.999Z</time></trkpt><trkpt lat="45.150539662070145" lon="5.730803124888715"><ele>228.0</ele><time>2026-05-02T17:12:02.999Z</time></trkpt><trkpt lat="45.15053885193574" lon="5.7311684124603905"><ele>228.0</ele><time>2026-05-02T17:12:03.999Z</time></trkpt><trkpt lat="45.15053252432818" lon="5.731522619861611"><ele>228.0</ele><time>2026-05-02T17:12:04.999Z</time></trkpt><trkpt lat="45.15052853850447" lon="5.7318544643667835"><ele>228.0</ele><time>2026-05-02T17:12:05.999Z</time></trkpt><trkpt lat="45.15052626167965" lon="5.73216330127185"><ele>226.66666666666669</ele><time>2026-05-02T17:12:06.999Z</time></trkpt><trkpt lat="45.15053364225108" lon="5.732439006065959"><ele>225.33333333333334</ele><time>2026-05-02T17:12:07.999Z</time></trkpt><trkpt lat="45.15054936887136" lon="5.732683264311262"><ele>224.0</ele><time>2026-05-02T17:12:08.999Z</time></trkpt><trkpt lat="45.150574072883245" lon="5.732899638698499"><ele>224.0</ele><time>2026-05-02T17:12:09.999Z</time></trkpt><trkpt lat="45.15060204650105" lon="5.733085924335768"><ele>223.99999999999997</ele><time>2026-05-02T17:12:10.999Z</time></trkpt><trkpt lat="45.15062450273501" lon="5.733220398072271"><ele>223.99999999999997</ele><time>2026-05-02T17:12:11.999Z</time></trkpt><trkpt lat="45.15064482336386" lon="5.7333298221455635"><ele>224.0</ele><time>2026-05-02T17:12:12.999Z</time></trkpt><trkpt lat="45.15065524422949" lon="5.733420590027944"><ele>224.0</ele><time>2026-05-02T17:12:13.999Z</time></trkpt><trkpt lat="45.15064587456242" lon="5.733557962418395"><ele>223.6</ele><time>2026-05-02T17:12:17.999Z</time></trkpt><trkpt lat="45.150619446649834" lon="5.733658546725977"><ele>223.2</ele><time>2026-05-02T17:12:18.999Z</time></trkpt><trkpt lat="45.15056056694293" lon="5.733799597484539"><ele>222.79999999999998</ele><time>2026-05-02T17:12:19.999Z</time></trkpt><trkpt lat="45.15054061778373" lon="5.733942930530361"><ele>222.39999999999998</ele><time>2026-05-02T17:12:20.999Z</time></trkpt><trkpt lat="45.15043303332658" lon="5.73404099474005"><ele>222.0</ele><time>2026-05-02T17:12:21.999Z</time></trkpt><trkpt lat="45.1503359815001" lon="5.7341175759084155"><ele>222.0</ele><time>2026-05-02T17:12:22.999Z</time></trkpt><trkpt lat="45.150227581268624" lon="5.734216802534373"><ele>222.0</ele><time>2026-05-02T17:12:23.999Z</time></trkpt><trkpt lat="45.15010209866758" lon="5.734265165015089"><ele>222.0</ele><time>2026-05-02T17:12:24.999Z</time></trkpt><trkpt lat="45.149977495541286" lon="5.734338998529686"><ele>222.0</ele><time>2026-05-02T17:12:25.999Z</time></trkpt><trkpt lat="45.1498472824702" lon="5.7344223486132675"><ele>221.33333333333331</ele><time>2026-05-02T17:12:26.999Z</time></trkpt><trkpt lat="45.149729081414144" lon="5.734504315230081"><ele>220.66666666666666</ele><time>2026-05-02T17:12:27.999Z</time></trkpt><trkpt lat="45.149601125130324" lon="5.734584016980106"><ele>220.0</ele><time>2026-05-02T17:12:28.999Z</time></trkpt><trkpt lat="45.14936180721254" lon="5.734731298619971"><ele>220.0</ele><time>2026-05-02T17:12:30.999Z</time></trkpt><trkpt lat="45.14925563552523" lon="5.73480996557955"><ele>220.0</ele><time>2026-05-02T17:12:31.999Z</time></trkpt><trkpt lat="45.149162137191816" lon="5.734875420202304"><ele>220.0</ele><time>2026-05-02T17:12:32.999Z</time></trkpt><trkpt lat="45.14906042841639" lon="5.734943396732087"><ele>220.0</ele><time>2026-05-02T17:12:33.999Z</time></trkpt></trkseg></trk></gpx>